<?xml version='1.0' encoding='UTF-8'?><gpx version="1.1" creator="JPX - https://github.com/jenetics/jpx" xmlns="http://www.topografix.com/GPX/1/1"><trk><trkseg><trkpt lat="45.718539441892055" lon="9.771009590302288"><ele>333.0</ele><time>2026-04-26T06:54:40Z</time></trkpt><trkpt lat="45.71847552926189" lon="9.770956923849996"><ele>333.0</ele><time>2026-04-26T06:54:42Z</time></trkpt><trkpt lat="45.71838232618205" lon="9.770892802112055"><ele>333.0</ele><time>2026-04-26T06:54:44Z</time></trkpt><trkpt lat="45.718324418492" lon="9.770854794578574"><ele>333.0</ele><time>2026-04-26T06:54:45Z</time></trkpt><trkpt lat="45.71826634749281" lon="9.770813774153167"><ele>333.0</ele><time>2026-04-26T06:54:46Z</time></trkpt><trkpt lat="45.71820658573392" lon="9.770776428895305"><ele>333.0</ele><time>2026-04-26T06:54:47Z</time></trkpt><trkpt lat="45.718145802856604" lon="9.77073636871961"><ele>333.0</ele><time>2026-04-26T06:54:48Z</time></trkpt><trkpt lat="45.71804018200194" lon="9.7706778243971"><ele>333.0</ele><time>2026-04-26T06:54:50Z</time></trkpt><trkpt lat="45.717966270861794" lon="9.770598272757923"><ele>333.0</ele><time>2026-04-26T06:54:52Z</time></trkpt><trkpt lat="45.7178821605058" lon="9.77058404958387"><ele>333.0</ele><time>2026-04-26T06:54:54Z</time></trkpt><trkpt lat="45.71780456997972" lon="9.770588979851292"><ele>333.0</ele><time>2026-04-26T06:54:56Z</time></trkpt><trkpt lat="45.71771941843384" lon="9.770514584945929"><ele>333.0</ele><time>2026-04-26T06:54:58Z</time></trkpt><trkpt lat="45.71766834507698" lon="9.770453157535979"><ele>333.0</ele><time>2026-04-26T06:54:59Z</time></trkpt><trkpt lat="45.717576217549166" lon="9.770349644961035"><ele>331.59999999999997</ele><time>2026-04-26T06:55:01Z</time></trkpt><trkpt lat="45.717507573892675" lon="9.770283134586878"><ele>330.2</ele><time>2026-04-26T06:55:03Z</time></trkpt><trkpt lat="45.71749071148772" lon="9.770159022065908"><ele>328.8</ele><time>2026-04-26T06:55:06Z</time></trkpt><trkpt lat="45.71758252783635" lon="9.770039119399819"><ele>327.4</ele><time>2026-04-26T06:55:08Z</time></trkpt><trkpt lat="45.71767088887841" lon="9.769902418151101"><ele>326.0</ele><time>2026-04-26T06:55:10Z</time></trkpt><trkpt lat="45.71771883949304" lon="9.76983396630013"><ele>326.2857142857143</ele><time>2026-04-26T06:55:11Z</time></trkpt><trkpt lat="45.71776734732511" lon="9.769768799654354"><ele>326.57142857142856</ele><time>2026-04-26T06:55:12Z</time></trkpt><trkpt lat="45.717812923255025" lon="9.769701572428007"><ele>326.85714285714283</ele><time>2026-04-26T06:55:13Z</time></trkpt><trkpt lat="45.71785856812403" lon="9.769634080780898"><ele>327.1428571428571</ele><time>2026-04-26T06:55:14Z</time></trkpt><trkpt lat="45.71790319389019" lon="9.769562514066623"><ele>327.42857142857144</ele><time>2026-04-26T06:55:15Z</time></trkpt><trkpt lat="45.717945962495826" lon="9.76949017822562"><ele>327.71428571428567</ele><time>2026-04-26T06:55:16Z</time></trkpt><trkpt lat="45.71798839936288" lon="9.769418330741157"><ele>328.0</ele><time>2026-04-26T06:55:17Z</time></trkpt><trkpt lat="45.71803270657047" lon="9.769347180755403"><ele>327.1428571428571</ele><time>2026-04-26T06:55:18Z</time></trkpt><trkpt lat="45.718076835817186" lon="9.769277377694857"><ele>326.2857142857143</ele><time>2026-04-26T06:55:19Z</time></trkpt><trkpt lat="45.71812265972642" lon="9.769207252524241"><ele>325.42857142857144</ele><time>2026-04-26T06:55:20Z</time></trkpt><trkpt lat="45.71816453417932" lon="9.76913836420518"><ele>324.57142857142856</ele><time>2026-04-26T06:55:21Z</time></trkpt><trkpt lat="45.71821111272246" lon="9.769075056436527"><ele>323.7142857142857</ele><time>2026-04-26T06:55:22Z</time></trkpt><trkpt lat="45.718262651587644" lon="9.769017702742943"><ele>322.85714285714283</ele><time>2026-04-26T06:55:23Z</time></trkpt><trkpt lat="45.71831486184441" lon="9.7689561538354"><ele>322.0</ele><time>2026-04-26T06:55:24Z</time></trkpt><trkpt lat="45.71836782868326" lon="9.76889545862701"><ele>322.0</ele><time>2026-04-26T06:55:25Z</time></trkpt><trkpt lat="45.71842377263082" lon="9.768842991814681"><ele>322.0</ele><time>2026-04-26T06:55:26Z</time></trkpt><trkpt lat="45.71847950213885" lon="9.768788035061313"><ele>322.0</ele><time>2026-04-26T06:55:27Z</time></trkpt><trkpt lat="45.71853489107232" lon="9.768734792714406"><ele>322.0</ele><time>2026-04-26T06:55:28Z</time></trkpt><trkpt lat="45.71859014410203" lon="9.76868426666853"><ele>322.0</ele><time>2026-04-26T06:55:29Z</time></trkpt><trkpt lat="45.71864555486365" lon="9.768633292667126"><ele>322.0</ele><time>2026-04-26T06:55:30Z</time></trkpt><trkpt lat="45.718700309184406" lon="9.768575825148016"><ele>322.0</ele><time>2026-04-26T06:55:31Z</time></trkpt><trkpt lat="45.718756540350185" lon="9.768519910866488"><ele>322.14285714285717</ele><time>2026-04-26T06:55:32Z</time></trkpt><trkpt lat="45.718813160156216" lon="9.768466624250271"><ele>322.2857142857143</ele><time>2026-04-26T06:55:33Z</time></trkpt><trkpt lat="45.71886816753837" lon="9.76840994258385"><ele>322.42857142857144</ele><time>2026-04-26T06:55:34Z</time></trkpt><trkpt lat="45.71892387399414" lon="9.768355265347749"><ele>322.57142857142856</ele><time>2026-04-26T06:55:35Z</time></trkpt><trkpt lat="45.718979533459176" lon="9.768300523589197"><ele>322.7142857142857</ele><time>2026-04-26T06:55:36Z</time></trkpt><trkpt lat="45.71903295911565" lon="9.76824962797324"><ele>322.8571428571429</ele><time>2026-04-26T06:55:37Z</time></trkpt><trkpt lat="45.719087040317355" lon="9.768197052733763"><ele>323.0</ele><time>2026-04-26T06:55:38Z</time></trkpt><trkpt lat="45.71914229058353" lon="9.7681451977054"><ele>323.00000000000006</ele><time>2026-04-26T06:55:39Z</time></trkpt><trkpt lat="45.71920027344782" lon="9.768095428452527"><ele>323.0</ele><time>2026-04-26T06:55:40Z</time></trkpt><trkpt lat="45.71925216906401" lon="9.76804338642259"><ele>323.0</ele><time>2026-04-26T06:55:41Z</time></trkpt><trkpt lat="45.71930689337682" lon="9.767986015389654"><ele>323.0</ele><time>2026-04-26T06:55:42Z</time></trkpt><trkpt lat="45.719361302175635" lon="9.767925861842134"><ele>323.0</ele><time>2026-04-26T06:55:43Z</time></trkpt><trkpt lat="45.719412546867446" lon="9.767870423879733"><ele>323.00000000000006</ele><time>2026-04-26T06:55:44Z</time></trkpt><trkpt lat="45.719467024911204" lon="9.76781602524233"><ele>323.0</ele><time>2026-04-26T06:55:45Z</time></trkpt><trkpt lat="45.719525600478136" lon="9.76776261326805"><ele>323.42857142857144</ele><time>2026-04-26T06:55:46Z</time></trkpt><trkpt lat="45.71958040049875" lon="9.767707788486668"><ele>323.8571428571429</ele><time>2026-04-26T06:55:47Z</time></trkpt><trkpt lat="45.7196370292702" lon="9.767654946632186"><ele>324.28571428571433</ele><time>2026-04-26T06:55:48Z</time></trkpt><trkpt lat="45.71969488881197" lon="9.767602169491685"><ele>324.7142857142857</ele><time>2026-04-26T06:55:49Z</time></trkpt><trkpt lat="45.71975062205591" lon="9.767547273364466"><ele>325.1428571428571</ele><time>2026-04-26T06:55:50Z</time></trkpt><trkpt lat="45.71980808847639" lon="9.767491105201021"><ele>325.5714285714286</ele><time>2026-04-26T06:55:51Z</time></trkpt><trkpt lat="45.7198625643946" lon="9.767435286080365"><ele>326.0</ele><time>2026-04-26T06:55:52Z</time></trkpt><trkpt lat="45.719916700162806" lon="9.767378572218878"><ele>326.0</ele><time>2026-04-26T06:55:53Z</time></trkpt><trkpt lat="45.71996886885741" lon="9.767321488111874"><ele>326.0</ele><time>2026-04-26T06:55:54Z</time></trkpt><trkpt lat="45.72002181379205" lon="9.76726878880866"><ele>326.0</ele><time>2026-04-26T06:55:55Z</time></trkpt><trkpt lat="45.72007630892914" lon="9.767214396925405"><ele>326.0</ele><time>2026-04-26T06:55:56Z</time></trkpt><trkpt lat="45.72017763950948" lon="9.767098364385317"><ele>326.0</ele><time>2026-04-26T06:55:58Z</time></trkpt><trkpt lat="45.72023055215321" lon="9.767044406594506"><ele>326.0</ele><time>2026-04-26T06:55:59Z</time></trkpt><trkpt lat="45.72028657500807" lon="9.766992082150404"><ele>325.42857142857144</ele><time>2026-04-26T06:56:00Z</time></trkpt><trkpt lat="45.720342355348826" lon="9.76693845601478"><ele>324.85714285714283</ele><time>2026-04-26T06:56:01Z</time></trkpt><trkpt lat="45.720398687846654" lon="9.76688692310244"><ele>324.2857142857143</ele><time>2026-04-26T06:56:02Z</time></trkpt><trkpt lat="45.72045452199842" lon="9.76683615648495"><ele>323.7142857142857</ele><time>2026-04-26T06:56:03Z</time></trkpt><trkpt lat="45.720509498632936" lon="9.766781333391288"><ele>323.1428571428571</ele><time>2026-04-26T06:56:04Z</time></trkpt><trkpt lat="45.720563954472446" lon="9.766726954467275"><ele>322.57142857142856</ele><time>2026-04-26T06:56:05Z</time></trkpt><trkpt lat="45.720615088156244" lon="9.766671623923122"><ele>322.0</ele><time>2026-04-26T06:56:06Z</time></trkpt><trkpt lat="45.720664488092076" lon="9.766608201499613"><ele>322.0</ele><time>2026-04-26T06:56:07Z</time></trkpt><trkpt lat="45.720712988691986" lon="9.766539571372254"><ele>322.0</ele><time>2026-04-26T06:56:08Z</time></trkpt><trkpt lat="45.720762894585945" lon="9.76647725946629"><ele>322.0</ele><time>2026-04-26T06:56:09Z</time></trkpt><trkpt lat="45.72081346629761" lon="9.766411986898271"><ele>322.0</ele><time>2026-04-26T06:56:10Z</time></trkpt><trkpt lat="45.72086315822614" lon="9.766345423080294"><ele>322.0</ele><time>2026-04-26T06:56:11Z</time></trkpt><trkpt lat="45.720913765458945" lon="9.766281557463131"><ele>322.0</ele><time>2026-04-26T06:56:12Z</time></trkpt><trkpt lat="45.72096197704831" lon="9.7662155914147"><ele>322.0</ele><time>2026-04-26T06:56:13Z</time></trkpt><trkpt lat="45.72101046797686" lon="9.766153669268608"><ele>322.0</ele><time>2026-04-26T06:56:14Z</time></trkpt><trkpt lat="45.72106061574572" lon="9.76608813211949"><ele>322.0</ele><time>2026-04-26T06:56:15Z</time></trkpt><trkpt lat="45.72110880441173" lon="9.76602762602664"><ele>322.0</ele><time>2026-04-26T06:56:16Z</time></trkpt><trkpt lat="45.72116065943645" lon="9.765967981157049"><ele>322.0</ele><time>2026-04-26T06:56:17Z</time></trkpt><trkpt lat="45.721213530928466" lon="9.765914040720723"><ele>322.0</ele><time>2026-04-26T06:56:18Z</time></trkpt><trkpt lat="45.7212656614499" lon="9.765855195964905"><ele>322.0</ele><time>2026-04-26T06:56:19Z</time></trkpt><trkpt lat="45.721318639531354" lon="9.765793314196165"><ele>322.0</ele><time>2026-04-26T06:56:20Z</time></trkpt><trkpt lat="45.721369110073326" lon="9.765735343557669"><ele>321.57142857142856</ele><time>2026-04-26T06:56:21Z</time></trkpt><trkpt lat="45.72142089928724" lon="9.765678743083633"><ele>321.1428571428571</ele><time>2026-04-26T06:56:22Z</time></trkpt><trkpt lat="45.7214761866443" lon="9.76562124857522"><ele>320.7142857142857</ele><time>2026-04-26T06:56:23Z</time></trkpt><trkpt lat="45.721527990921636" lon="9.765565840551606"><ele>320.2857142857143</ele><time>2026-04-26T06:56:24Z</time></trkpt><trkpt lat="45.721580516896864" lon="9.765509751870631"><ele>319.85714285714283</ele><time>2026-04-26T06:56:25Z</time></trkpt><trkpt lat="45.72163422908236" lon="9.765455759830834"><ele>319.42857142857144</ele><time>2026-04-26T06:56:26Z</time></trkpt><trkpt lat="45.72168744378542" lon="9.765402872942522"><ele>319.0</ele><time>2026-04-26T06:56:27Z</time></trkpt><trkpt lat="45.721739856625376" lon="9.765345861157591"><ele>319.0</ele><time>2026-04-26T06:56:28Z</time></trkpt><trkpt lat="45.721798553821024" lon="9.765294808517075"><ele>319.0</ele><time>2026-04-26T06:56:29Z</time></trkpt><trkpt lat="45.721849705254066" lon="9.765240866695628"><ele>319.0</ele><time>2026-04-26T06:56:30Z</time></trkpt><trkpt lat="45.72190487957804" lon="9.765188842078988"><ele>319.0</ele><time>2026-04-26T06:56:31Z</time></trkpt><trkpt lat="45.721961142979396" lon="9.76513753305751"><ele>319.0</ele><time>2026-04-26T06:56:32Z</time></trkpt><trkpt lat="45.722018803662664" lon="9.76508346674656"><ele>319.0</ele><time>2026-04-26T06:56:33Z</time></trkpt><trkpt lat="45.72207573082281" lon="9.765026883895514"><ele>319.0</ele><time>2026-04-26T06:56:34Z</time></trkpt><trkpt lat="45.72213504238497" lon="9.764971622054052"><ele>319.0</ele><time>2026-04-26T06:56:35Z</time></trkpt><trkpt lat="45.72219287982603" lon="9.76491682045628"><ele>319.0</ele><time>2026-04-26T06:56:36Z</time></trkpt><trkpt lat="45.72225132703245" lon="9.764859531639685"><ele>319.0</ele><time>2026-04-26T06:56:37Z</time></trkpt><trkpt lat="45.722308744048995" lon="9.764800724528207"><ele>319.0</ele><time>2026-04-26T06:56:38Z</time></trkpt><trkpt lat="45.72236992883491" lon="9.76474293259269"><ele>319.0</ele><time>2026-04-26T06:56:39Z</time></trkpt><trkpt lat="45.722428308589755" lon="9.764683463808709"><ele>319.0</ele><time>2026-04-26T06:56:40Z</time></trkpt><trkpt lat="45.72248922618405" lon="9.764623195657567"><ele>319.0</ele><time>2026-04-26T06:56:41Z</time></trkpt><trkpt lat="45.72255091969861" lon="9.764564328795887"><ele>319.0</ele><time>2026-04-26T06:56:42Z</time></trkpt><trkpt lat="45.72261082479955" lon="9.76450425570939"><ele>319.0</ele><time>2026-04-26T06:56:43Z</time></trkpt><trkpt lat="45.72267291589536" lon="9.764447598393545"><ele>319.0</ele><time>2026-04-26T06:56:44Z</time></trkpt><trkpt lat="45.722733202286776" lon="9.764388809999486"><ele>319.0</ele><time>2026-04-26T06:56:45Z</time></trkpt><trkpt lat="45.72279262364198" lon="9.76433020187796"><ele>319.0</ele><time>2026-04-26T06:56:46Z</time></trkpt><trkpt lat="45.72285454392951" lon="9.764271958000988"><ele>319.0</ele><time>2026-04-26T06:56:47Z</time></trkpt><trkpt lat="45.722913016075616" lon="9.76420994599845"><ele>319.0</ele><time>2026-04-26T06:56:48Z</time></trkpt><trkpt lat="45.72297024593759" lon="9.764145873686257"><ele>318.2857142857143</ele><time>2026-04-26T06:56:49Z</time></trkpt><trkpt lat="45.723029198652036" lon="9.76408315301777"><ele>317.57142857142856</ele><time>2026-04-26T06:56:50Z</time></trkpt><trkpt lat="45.723083030567416" lon="9.764016521791836"><ele>316.85714285714283</ele><time>2026-04-26T06:56:51Z</time></trkpt><trkpt lat="45.723134493886676" lon="9.763951864957534"><ele>316.1428571428571</ele><time>2026-04-26T06:56:52Z</time></trkpt><trkpt lat="45.72318972516375" lon="9.763882142713367"><ele>315.42857142857144</ele><time>2026-04-26T06:56:53Z</time></trkpt><trkpt lat="45.723236443288165" lon="9.763814971368479"><ele>314.71428571428567</ele><time>2026-04-26T06:56:54Z</time></trkpt><trkpt lat="45.72328777358645" lon="9.763746825661123"><ele>314.0</ele><time>2026-04-26T06:56:55Z</time></trkpt><trkpt lat="45.72333667536623" lon="9.763680715275402"><ele>313.99999999999994</ele><time>2026-04-26T06:56:56Z</time></trkpt><trkpt lat="45.72338357305979" lon="9.763607709312089"><ele>314.0</ele><time>2026-04-26T06:56:57Z</time></trkpt><trkpt lat="45.72343539250605" lon="9.763549937431147"><ele>314.0</ele><time>2026-04-26T06:56:58Z</time></trkpt><trkpt lat="45.72347958706432" lon="9.763480673368537"><ele>314.0</ele><time>2026-04-26T06:56:59Z</time></trkpt><trkpt lat="45.72352715416558" lon="9.763414956483496"><ele>314.0</ele><time>2026-04-26T06:57:00Z</time></trkpt><trkpt lat="45.7235738844649" lon="9.763348636114744"><ele>313.99999999999994</ele><time>2026-04-26T06:57:01Z</time></trkpt><trkpt lat="45.72362169729462" lon="9.763283028967392"><ele>314.0</ele><time>2026-04-26T06:57:02Z</time></trkpt><trkpt lat="45.723670668293224" lon="9.763219357845458"><ele>314.4285714285714</ele><time>2026-04-26T06:57:03Z</time></trkpt><trkpt lat="45.72372131206884" lon="9.763162139898844"><ele>314.85714285714283</ele><time>2026-04-26T06:57:03.999Z</time></trkpt><trkpt lat="45.723772389442345" lon="9.763104751671648"><ele>315.2857142857143</ele><time>2026-04-26T06:57:04.999Z</time></trkpt><trkpt lat="45.723825798316604" lon="9.763047481621609"><ele>315.71428571428567</ele><time>2026-04-26T06:57:05.999Z</time></trkpt><trkpt lat="45.72387922220879" lon="9.76299128399377"><ele>316.1428571428571</ele><time>2026-04-26T06:57:06.999Z</time></trkpt><trkpt lat="45.723933585274324" lon="9.762939099057288"><ele>316.57142857142856</ele><time>2026-04-26T06:57:07.999Z</time></trkpt><trkpt lat="45.72398687549949" lon="9.76288525401498"><ele>317.0</ele><time>2026-04-26T06:57:08.999Z</time></trkpt><trkpt lat="45.724037928924815" lon="9.762829794604738"><ele>317.0</ele><time>2026-04-26T06:57:09.999Z</time></trkpt><trkpt lat="45.7240896617005" lon="9.762770581613774"><ele>317.0</ele><time>2026-04-26T06:57:10.999Z</time></trkpt><trkpt lat="45.72413899271824" lon="9.762711290553812"><ele>317.0</ele><time>2026-04-26T06:57:11.999Z</time></trkpt><trkpt lat="45.724188467864664" lon="9.762649526473497"><ele>317.0</ele><time>2026-04-26T06:57:12.999Z</time></trkpt><trkpt lat="45.72423490324323" lon="9.762580022599655"><ele>317.0</ele><time>2026-04-26T06:57:13.999Z</time></trkpt><trkpt lat="45.72427734459376" lon="9.762502275857953"><ele>317.0</ele><time>2026-04-26T06:57:14.999Z</time></trkpt><trkpt lat="45.72431709312598" lon="9.762425779523122"><ele>317.0</ele><time>2026-04-26T06:57:15.999Z</time></trkpt><trkpt lat="45.72435543559712" lon="9.762343046257755"><ele>316.7142857142857</ele><time>2026-04-26T06:57:16.999Z</time></trkpt><trkpt lat="45.72439197920043" lon="9.762260859029688"><ele>316.42857142857144</ele><time>2026-04-26T06:57:17.999Z</time></trkpt><trkpt lat="45.72443003055283" lon="9.762176399545675"><ele>316.1428571428571</ele><time>2026-04-26T06:57:18.999Z</time></trkpt><trkpt lat="45.724464553718825" lon="9.762090441890525"><ele>315.8571428571429</ele><time>2026-04-26T06:57:19.999Z</time></trkpt><trkpt lat="45.72450028584965" lon="9.762001313909854"><ele>315.57142857142856</ele><time>2026-04-26T06:57:20.999Z</time></trkpt><trkpt lat="45.724537097551135" lon="9.761911336128659"><ele>315.2857142857143</ele><time>2026-04-26T06:57:21.999Z</time></trkpt><trkpt lat="45.724574904069996" lon="9.76182225779532"><ele>315.0</ele><time>2026-04-26T06:57:22.999Z</time></trkpt><trkpt lat="45.72461329672315" lon="9.761733814510258"><ele>315.0</ele><time>2026-04-26T06:57:23.999Z</time></trkpt><trkpt lat="45.72465387597802" lon="9.761649737284138"><ele>315.0</ele><time>2026-04-26T06:57:24.999Z</time></trkpt><trkpt lat="45.724696647909305" lon="9.761571038907404"><ele>315.0</ele><time>2026-04-26T06:57:25.999Z</time></trkpt><trkpt lat="45.72474392417644" lon="9.761497368362862"><ele>315.0</ele><time>2026-04-26T06:57:26.999Z</time></trkpt><trkpt lat="45.72479563179413" lon="9.7614289747409"><ele>315.0</ele><time>2026-04-26T06:57:27.999Z</time></trkpt><trkpt lat="45.7248503812869" lon="9.761366849553328"><ele>315.0</ele><time>2026-04-26T06:57:28.999Z</time></trkpt><trkpt lat="45.724908124405296" lon="9.76131082155015"><ele>315.0</ele><time>2026-04-26T06:57:29.999Z</time></trkpt><trkpt lat="45.72496947560336" lon="9.761260400883831"><ele>315.0</ele><time>2026-04-26T06:57:30.999Z</time></trkpt><trkpt lat="45.72503129475772" lon="9.761211525426251"><ele>315.0</ele><time>2026-04-26T06:57:31.999Z</time></trkpt><trkpt lat="45.72509532889978" lon="9.761168745744236"><ele>315.0</ele><time>2026-04-26T06:57:32.999Z</time></trkpt><trkpt lat="45.72516101931478" lon="9.761130813251862"><ele>315.0</ele><time>2026-04-26T06:57:33.999Z</time></trkpt><trkpt lat="45.725224452375585" lon="9.76108842953205"><ele>315.0</ele><time>2026-04-26T06:57:34.999Z</time></trkpt><trkpt lat="45.725288967123895" lon="9.761049653055151"><ele>315.0</ele><time>2026-04-26T06:57:35.999Z</time></trkpt><trkpt lat="45.725354558128465" lon="9.761016779375527"><ele>315.0</ele><time>2026-04-26T06:57:37Z</time></trkpt><trkpt lat="45.72542108726861" lon="9.760984784067253"><ele>314.2857142857143</ele><time>2026-04-26T06:57:38Z</time></trkpt><trkpt lat="45.7254884094231" lon="9.76095717305974"><ele>313.57142857142856</ele><time>2026-04-26T06:57:39Z</time></trkpt><trkpt lat="45.72555423703376" lon="9.760925676154198"><ele>312.8571428571429</ele><time>2026-04-26T06:57:40Z</time></trkpt><trkpt lat="45.72561923065684" lon="9.760899710056043"><ele>312.1428571428571</ele><time>2026-04-26T06:57:41Z</time></trkpt><trkpt lat="45.72568534837724" lon="9.760876359031705"><ele>311.42857142857144</ele><time>2026-04-26T06:57:42Z</time></trkpt><trkpt lat="45.72575115717654" lon="9.760851819662157"><ele>310.7142857142857</ele><time>2026-04-26T06:57:43Z</time></trkpt><trkpt lat="45.72581565022014" lon="9.76082608848481"><ele>310.0</ele><time>2026-04-26T06:57:44Z</time></trkpt><trkpt lat="45.72587880835968" lon="9.760798471001486"><ele>310.0</ele><time>2026-04-26T06:57:45Z</time></trkpt><trkpt lat="45.725941587986206" lon="9.760770344132226"><ele>310.0</ele><time>2026-04-26T06:57:46Z</time></trkpt><trkpt lat="45.72600692304099" lon="9.760745635064662"><ele>310.0</ele><time>2026-04-26T06:57:47Z</time></trkpt><trkpt lat="45.72607108676848" lon="9.760719358925726"><ele>310.0</ele><time>2026-04-26T06:57:48Z</time></trkpt><trkpt lat="45.72613435092701" lon="9.760694428463541"><ele>310.0</ele><time>2026-04-26T06:57:49Z</time></trkpt><trkpt lat="45.72619977482344" lon="9.760667812353864"><ele>310.0</ele><time>2026-04-26T06:57:50Z</time></trkpt><trkpt lat="45.72626310470424" lon="9.760639975463796"><ele>310.0</ele><time>2026-04-26T06:57:51Z</time></trkpt><trkpt lat="45.72632697709388" lon="9.760614513604594"><ele>310.42857142857144</ele><time>2026-04-26T06:57:52Z</time></trkpt><trkpt lat="45.726391066117166" lon="9.760587942520843"><ele>310.85714285714283</ele><time>2026-04-26T06:57:53Z</time></trkpt><trkpt lat="45.72645572174348" lon="9.76056385767097"><ele>311.2857142857143</ele><time>2026-04-26T06:57:54Z</time></trkpt><trkpt lat="45.726518361927795" lon="9.760538651708693"><ele>311.7142857142857</ele><time>2026-04-26T06:57:55Z</time></trkpt><trkpt lat="45.72658355826723" lon="9.760514099943155"><ele>312.14285714285717</ele><time>2026-04-26T06:57:56Z</time></trkpt><trkpt lat="45.72664731176354" lon="9.760485740269614"><ele>312.57142857142856</ele><time>2026-04-26T06:57:57Z</time></trkpt><trkpt lat="45.72671238616892" lon="9.760460224078873"><ele>313.0</ele><time>2026-04-26T06:57:58Z</time></trkpt><trkpt lat="45.726775681239026" lon="9.760434677446153"><ele>313.0</ele><time>2026-04-26T06:57:59Z</time></trkpt><trkpt lat="45.72684058857286" lon="9.760411542099684"><ele>313.0</ele><time>2026-04-26T06:58:00Z</time></trkpt><trkpt lat="45.726905740941824" lon="9.76039527828149"><ele>313.0</ele><time>2026-04-26T06:58:01Z</time></trkpt><trkpt lat="45.72697031915776" lon="9.760380807967133"><ele>313.0</ele><time>2026-04-26T06:58:02Z</time></trkpt><trkpt lat="45.72703512118168" lon="9.760359123870007"><ele>313.0</ele><time>2026-04-26T06:58:03Z</time></trkpt><trkpt lat="45.727100164787245" lon="9.760344466554246"><ele>313.0</ele><time>2026-04-26T06:58:04Z</time></trkpt><trkpt lat="45.72716619263916" lon="9.760330185388524"><ele>313.0</ele><time>2026-04-26T06:58:05Z</time></trkpt><trkpt lat="45.727231830238516" lon="9.760312500498369"><ele>312.57142857142856</ele><time>2026-04-26T06:58:06Z</time></trkpt><trkpt lat="45.7272972394475" lon="9.760289003738098"><ele>312.14285714285717</ele><time>2026-04-26T06:58:07Z</time></trkpt><trkpt lat="45.727361202653576" lon="9.760263514514474"><ele>311.7142857142857</ele><time>2026-04-26T06:58:08Z</time></trkpt><trkpt lat="45.72742477734355" lon="9.760236627372446"><ele>311.2857142857143</ele><time>2026-04-26T06:58:09Z</time></trkpt><trkpt lat="45.72748738769138" lon="9.760207170554912"><ele>310.85714285714283</ele><time>2026-04-26T06:58:10Z</time></trkpt><trkpt lat="45.72755130147426" lon="9.76017447404078"><ele>310.42857142857144</ele><time>2026-04-26T06:58:11Z</time></trkpt><trkpt lat="45.727612512736556" lon="9.760140035549652"><ele>310.0</ele><time>2026-04-26T06:58:12Z</time></trkpt><trkpt lat="45.72767608311738" lon="9.760106329610728"><ele>310.0</ele><time>2026-04-26T06:58:13Z</time></trkpt><trkpt lat="45.72774006268552" lon="9.760072466152657"><ele>310.0</ele><time>2026-04-26T06:58:14Z</time></trkpt><trkpt lat="45.72780133120241" lon="9.760042920719279"><ele>310.0</ele><time>2026-04-26T06:58:15Z</time></trkpt><trkpt lat="45.72786378125396" lon="9.760010799191232"><ele>310.0</ele><time>2026-04-26T06:58:16Z</time></trkpt><trkpt lat="45.72792444185453" lon="9.759982373798987"><ele>310.0</ele><time>2026-04-26T06:58:17Z</time></trkpt><trkpt lat="45.727987587213846" lon="9.759949841700902"><ele>310.0</ele><time>2026-04-26T06:58:18Z</time></trkpt><trkpt lat="45.72804986159479" lon="9.759916868458037"><ele>310.0</ele><time>2026-04-26T06:58:19Z</time></trkpt><trkpt lat="45.728111129469696" lon="9.759885826604341"><ele>310.0</ele><time>2026-04-26T06:58:20Z</time></trkpt><trkpt lat="45.72817312483803" lon="9.759851642977809"><ele>310.0</ele><time>2026-04-26T06:58:21Z</time></trkpt><trkpt lat="45.72823597546233" lon="9.759820575337727"><ele>310.0</ele><time>2026-04-26T06:58:22Z</time></trkpt><trkpt lat="45.72829736354572" lon="9.759789421196043"><ele>310.0</ele><time>2026-04-26T06:58:23Z</time></trkpt><trkpt lat="45.72835814297636" lon="9.759754993111699"><ele>310.0</ele><time>2026-04-26T06:58:24Z</time></trkpt><trkpt lat="45.72841994686496" lon="9.759721391528805"><ele>310.0</ele><time>2026-04-26T06:58:25Z</time></trkpt><trkpt lat="45.7284814667107" lon="9.759688467276137"><ele>310.0</ele><time>2026-04-26T06:58:26Z</time></trkpt><trkpt lat="45.72854371226766" lon="9.75965538857037"><ele>310.57142857142856</ele><time>2026-04-26T06:58:27Z</time></trkpt><trkpt lat="45.72860375068163" lon="9.759623235852475"><ele>311.1428571428571</ele><time>2026-04-26T06:58:28Z</time></trkpt><trkpt lat="45.72866510911105" lon="9.759589541470882"><ele>311.71428571428567</ele><time>2026-04-26T06:58:29Z</time></trkpt><trkpt lat="45.728726217693584" lon="9.759555022024621"><ele>312.2857142857143</ele><time>2026-04-26T06:58:30Z</time></trkpt><trkpt lat="45.72878607856883" lon="9.75952223968601"><ele>312.85714285714283</ele><time>2026-04-26T06:58:31Z</time></trkpt><trkpt lat="45.728848094023846" lon="9.759491850562458"><ele>313.4285714285714</ele><time>2026-04-26T06:58:32Z</time></trkpt><trkpt lat="45.72891145932534" lon="9.759463840613703"><ele>314.0</ele><time>2026-04-26T06:58:33Z</time></trkpt><trkpt lat="45.72897368741678" lon="9.75943618687309"><ele>313.99999999999994</ele><time>2026-04-26T06:58:34Z</time></trkpt><trkpt lat="45.72903645546166" lon="9.759419631701524"><ele>314.0</ele><time>2026-04-26T06:58:35Z</time></trkpt><trkpt lat="45.72910343988885" lon="9.759402085973154"><ele>314.0</ele><time>2026-04-26T06:58:36Z</time></trkpt><trkpt lat="45.729166605227235" lon="9.759387143793514"><ele>314.0</ele><time>2026-04-26T06:58:37Z</time></trkpt><trkpt lat="45.72923114120197" lon="9.759379286753147"><ele>314.0</ele><time>2026-04-26T06:58:38Z</time></trkpt><trkpt lat="45.729296085484066" lon="9.759373534158955"><ele>313.99999999999994</ele><time>2026-04-26T06:58:39Z</time></trkpt><trkpt lat="45.72935949586023" lon="9.759368164175973"><ele>314.0</ele><time>2026-04-26T06:58:40Z</time></trkpt><trkpt lat="45.72942314599933" lon="9.759363568907132"><ele>312.85714285714283</ele><time>2026-04-26T06:58:41Z</time></trkpt><trkpt lat="45.72948823133984" lon="9.759361160630247"><ele>311.7142857142857</ele><time>2026-04-26T06:58:42Z</time></trkpt><trkpt lat="45.72955309980806" lon="9.759363211126384"><ele>310.57142857142856</ele><time>2026-04-26T06:58:43Z</time></trkpt><trkpt lat="45.729621135806006" lon="9.759359891397823"><ele>309.42857142857144</ele><time>2026-04-26T06:58:44Z</time></trkpt><trkpt lat="45.72968391233055" lon="9.75935292838756"><ele>308.2857142857143</ele><time>2026-04-26T06:58:45Z</time></trkpt><trkpt lat="45.7297498505765" lon="9.759349814006383"><ele>307.1428571428571</ele><time>2026-04-26T06:58:46Z</time></trkpt><trkpt lat="45.729817066248366" lon="9.759346901221754"><ele>306.0</ele><time>2026-04-26T06:58:47Z</time></trkpt><trkpt lat="45.72988222443293" lon="9.759342165587578"><ele>306.0</ele><time>2026-04-26T06:58:48Z</time></trkpt><trkpt lat="45.729947277123486" lon="9.759336923177342"><ele>306.0</ele><time>2026-04-26T06:58:49Z</time></trkpt><trkpt lat="45.73001057579169" lon="9.759329233304575"><ele>306.0</ele><time>2026-04-26T06:58:50Z</time></trkpt><trkpt lat="45.73007503381396" lon="9.759324965019417"><ele>306.0</ele><time>2026-04-26T06:58:51Z</time></trkpt><trkpt lat="45.73013926917468" lon="9.759312684244602"><ele>306.0</ele><time>2026-04-26T06:58:52Z</time></trkpt><trkpt lat="45.73020373660616" lon="9.759303052759478"><ele>306.0</ele><time>2026-04-26T06:58:53Z</time></trkpt><trkpt lat="45.73027011868772" lon="9.75929204901245"><ele>306.0</ele><time>2026-04-26T06:58:54Z</time></trkpt><trkpt lat="45.73033640722832" lon="9.759279648690793"><ele>306.0</ele><time>2026-04-26T06:58:54.999Z</time></trkpt><trkpt lat="45.73040320496881" lon="9.759270041499585"><ele>306.0</ele><time>2026-04-26T06:58:55.999Z</time></trkpt><trkpt lat="45.73047094388227" lon="9.759261666918079"><ele>306.0</ele><time>2026-04-26T06:58:56.999Z</time></trkpt><trkpt lat="45.730536528820224" lon="9.759242975024021"><ele>306.0</ele><time>2026-04-26T06:58:57.999Z</time></trkpt><trkpt lat="45.73060004200778" lon="9.759221973158786"><ele>306.0</ele><time>2026-04-26T06:58:58.999Z</time></trkpt><trkpt lat="45.73066347865641" lon="9.759190930855894"><ele>306.0</ele><time>2026-04-26T06:58:59.999Z</time></trkpt><trkpt lat="45.7307259182282" lon="9.759156442205141"><ele>306.0</ele><time>2026-04-26T06:59:00.999Z</time></trkpt><trkpt lat="45.730787988365584" lon="9.759120514428451"><ele>306.0</ele><time>2026-04-26T06:59:01.999Z</time></trkpt><trkpt lat="45.73085005699692" lon="9.759078893936376"><ele>306.0</ele><time>2026-04-26T06:59:02.999Z</time></trkpt><trkpt lat="45.73091097624453" lon="9.759033822793155"><ele>306.0</ele><time>2026-04-26T06:59:03.999Z</time></trkpt><trkpt lat="45.73097269230793" lon="9.758985325112887"><ele>306.0</ele><time>2026-04-26T06:59:04.999Z</time></trkpt><trkpt lat="45.7310413500926" lon="9.7589425875516"><ele>306.0</ele><time>2026-04-26T06:59:05.999Z</time></trkpt><trkpt lat="45.731114527829604" lon="9.75890521327855"><ele>306.0</ele><time>2026-04-26T06:59:06.999Z</time></trkpt><trkpt lat="45.731192447771775" lon="9.758876951664694"><ele>306.0</ele><time>2026-04-26T06:59:07.999Z</time></trkpt><trkpt lat="45.73126938374256" lon="9.758855899438188"><ele>306.1666666666667</ele><time>2026-04-26T06:59:08.999Z</time></trkpt><trkpt lat="45.731349203088556" lon="9.758842122931576"><ele>306.3333333333333</ele><time>2026-04-26T06:59:09.999Z</time></trkpt><trkpt lat="45.73142937801992" lon="9.758827570453656"><ele>306.5</ele><time>2026-04-26T06:59:10.999Z</time></trkpt><trkpt lat="45.731508070219526" lon="9.758812944941022"><ele>306.66666666666663</ele><time>2026-04-26T06:59:11.999Z</time></trkpt><trkpt lat="45.7315879013162" lon="9.758800795180983"><ele>306.8333333333333</ele><time>2026-04-26T06:59:12.999Z</time></trkpt><trkpt lat="45.73166414200741" lon="9.758798891559303"><ele>307.0</ele><time>2026-04-26T06:59:13.999Z</time></trkpt><trkpt lat="45.73173810732022" lon="9.758790137984004"><ele>306.99999999999994</ele><time>2026-04-26T06:59:14.999Z</time></trkpt><trkpt lat="45.73180797013952" lon="9.758777080597318"><ele>307.0</ele><time>2026-04-26T06:59:15.999Z</time></trkpt><trkpt lat="45.73187561298783" lon="9.758756711402889"><ele>307.0</ele><time>2026-04-26T06:59:16.999Z</time></trkpt><trkpt lat="45.73194043371822" lon="9.758734664785202"><ele>307.0</ele><time>2026-04-26T06:59:17.999Z</time></trkpt><trkpt lat="45.732001159653244" lon="9.758708189923118"><ele>307.0</ele><time>2026-04-26T06:59:18.999Z</time></trkpt><trkpt lat="45.73206383299666" lon="9.75867892752545"><ele>306.99999999999994</ele><time>2026-04-26T06:59:19.999Z</time></trkpt><trkpt lat="45.732124718047125" lon="9.758646900929014"><ele>307.0</ele><time>2026-04-26T06:59:20.999Z</time></trkpt><trkpt lat="45.73218752518245" lon="9.75861858977779"><ele>307.5</ele><time>2026-04-26T06:59:21.999Z</time></trkpt><trkpt lat="45.732248280414474" lon="9.758585074921717"><ele>308.0</ele><time>2026-04-26T06:59:22.999Z</time></trkpt><trkpt lat="45.7323093755857" lon="9.758552878838668"><ele>308.5</ele><time>2026-04-26T06:59:23.999Z</time></trkpt><trkpt lat="45.73237146861607" lon="9.75852678748151"><ele>309.0</ele><time>2026-04-26T06:59:24.999Z</time></trkpt><trkpt lat="45.732433886521825" lon="9.758500133456648"><ele>309.5</ele><time>2026-04-26T06:59:25.999Z</time></trkpt><trkpt lat="45.73249492459904" lon="9.758471002773604"><ele>310.0</ele><time>2026-04-26T06:59:26.999Z</time></trkpt><trkpt lat="45.73261459297978" lon="9.758405399090472"><ele>309.42857142857144</ele><time>2026-04-26T06:59:28.999Z</time></trkpt><trkpt lat="45.7326734222772" lon="9.758370910917778"><ele>308.85714285714283</ele><time>2026-04-26T06:59:29.999Z</time></trkpt><trkpt lat="45.732732027503474" lon="9.75832900951786"><ele>308.2857142857143</ele><time>2026-04-26T06:59:30.999Z</time></trkpt><trkpt lat="45.73278826172087" lon="9.758281096350535"><ele>307.7142857142857</ele><time>2026-04-26T06:59:31.999Z</time></trkpt><trkpt lat="45.73284518388278" lon="9.75823560020394"><ele>307.14285714285717</ele><time>2026-04-26T06:59:32.999Z</time></trkpt><trkpt lat="45.73290423284411" lon="9.758189433723865"><ele>306.57142857142856</ele><time>2026-04-26T06:59:33.999Z</time></trkpt><trkpt lat="45.732961389838565" lon="9.758146790375566"><ele>306.0</ele><time>2026-04-26T06:59:34.999Z</time></trkpt><trkpt lat="45.733018769166954" lon="9.758101467399975"><ele>306.0</ele><time>2026-04-26T06:59:35.999Z</time></trkpt><trkpt lat="45.7330780493132" lon="9.758062711197297"><ele>306.0</ele><time>2026-04-26T06:59:36.999Z</time></trkpt><trkpt lat="45.73313869681572" lon="9.758025465799006"><ele>306.0</ele><time>2026-04-26T06:59:37.999Z</time></trkpt><trkpt lat="45.733195990341045" lon="9.757983312269555"><ele>306.0</ele><time>2026-04-26T06:59:38.999Z</time></trkpt><trkpt lat="45.73325574108311" lon="9.757941691044936"><ele>306.0</ele><time>2026-04-26T06:59:39.999Z</time></trkpt><trkpt lat="45.733317473407475" lon="9.75790550089574"><ele>306.0</ele><time>2026-04-26T06:59:40.999Z</time></trkpt><trkpt lat="45.73343844554495" lon="9.757841496469624"><ele>306.0</ele><time>2026-04-26T06:59:43Z</time></trkpt><trkpt lat="45.733499799888556" lon="9.757813778450966"><ele>306.0</ele><time>2026-04-26T06:59:44Z</time></trkpt><trkpt lat="45.73356179634293" lon="9.757782601267252"><ele>306.0</ele><time>2026-04-26T06:59:45Z</time></trkpt><trkpt lat="45.733622453124234" lon="9.757752279823567"><ele>306.0</ele><time>2026-04-26T06:59:46Z</time></trkpt><trkpt lat="45.73368498211234" lon="9.75772575709513"><ele>306.0</ele><time>2026-04-26T06:59:47Z</time></trkpt><trkpt lat="45.73374496384119" lon="9.757692724786548"><ele>306.0</ele><time>2026-04-26T06:59:48Z</time></trkpt><trkpt lat="45.73380979946402" lon="9.757666589691324"><ele>306.0</ele><time>2026-04-26T06:59:49Z</time></trkpt><trkpt lat="45.733924987880215" lon="9.757591289873302"><ele>306.1428571428571</ele><time>2026-04-26T06:59:51Z</time></trkpt><trkpt lat="45.7339839485291" lon="9.75754897758634"><ele>306.2857142857143</ele><time>2026-04-26T06:59:52Z</time></trkpt><trkpt lat="45.73404149063073" lon="9.757505260670724"><ele>306.42857142857144</ele><time>2026-04-26T06:59:53Z</time></trkpt><trkpt lat="45.73410020227006" lon="9.757462542231702"><ele>306.57142857142856</ele><time>2026-04-26T06:59:54Z</time></trkpt><trkpt lat="45.734161564062326" lon="9.757427660718122"><ele>306.7142857142857</ele><time>2026-04-26T06:59:55Z</time></trkpt><trkpt lat="45.73422590181849" lon="9.757392669878513"><ele>306.85714285714283</ele><time>2026-04-26T06:59:56Z</time></trkpt><trkpt lat="45.73429078456426" lon="9.757365211697186"><ele>307.0</ele><time>2026-04-26T06:59:57Z</time></trkpt><trkpt lat="45.734363797917595" lon="9.757338061688316"><ele>307.0</ele><time>2026-04-26T06:59:58Z</time></trkpt><trkpt lat="45.734438696659836" lon="9.757323047704702"><ele>307.0</ele><time>2026-04-26T06:59:59Z</time></trkpt><trkpt lat="45.73451733260592" lon="9.757314969494292"><ele>307.0</ele><time>2026-04-26T07:00:00Z</time></trkpt><trkpt lat="45.734598811082165" lon="9.757318136264775"><ele>307.0</ele><time>2026-04-26T07:00:01Z</time></trkpt><trkpt lat="45.73468264504637" lon="9.757310961142903"><ele>307.0</ele><time>2026-04-26T07:00:02Z</time></trkpt><trkpt lat="45.734777400228324" lon="9.75728141775834"><ele>307.0</ele><time>2026-04-26T07:00:03Z</time></trkpt><trkpt lat="45.73487204967309" lon="9.757249916412139"><ele>307.0</ele><time>2026-04-26T07:00:04Z</time></trkpt><trkpt lat="45.73493529588897" lon="9.757289102441968"><ele>307.0</ele><time>2026-04-26T07:00:05Z</time></trkpt><trkpt lat="45.735021455099826" lon="9.757285947621185"><ele>307.0</ele><time>2026-04-26T07:00:06Z</time></trkpt><trkpt lat="45.73511018087612" lon="9.757281841979362"><ele>307.0</ele><time>2026-04-26T07:00:07Z</time></trkpt><trkpt lat="45.735199508867126" lon="9.757277868254782"><ele>307.0</ele><time>2026-04-26T07:00:08Z</time></trkpt><trkpt lat="45.7352835675478" lon="9.757285119292595"><ele>307.0</ele><time>2026-04-26T07:00:09Z</time></trkpt><trkpt lat="45.73537506357942" lon="9.757271819846961"><ele>306.16666666666663</ele><time>2026-04-26T07:00:10Z</time></trkpt><trkpt lat="45.73546454473654" lon="9.757260308404993"><ele>305.3333333333333</ele><time>2026-04-26T07:00:11Z</time></trkpt><trkpt lat="45.73555344999414" lon="9.757248883048021"><ele>304.5</ele><time>2026-04-26T07:00:12Z</time></trkpt><trkpt lat="45.73564110269231" lon="9.757236543408437"><ele>303.6666666666667</ele><time>2026-04-26T07:00:13Z</time></trkpt><trkpt lat="45.73572970530168" lon="9.75722884758346"><ele>302.83333333333337</ele><time>2026-04-26T07:00:14Z</time></trkpt><trkpt lat="45.73582019425591" lon="9.75723737511984"><ele>302.0</ele><time>2026-04-26T07:00:15Z</time></trkpt><trkpt lat="45.735911711352315" lon="9.757254301870683"><ele>302.0</ele><time>2026-04-26T07:00:16Z</time></trkpt><trkpt lat="45.73599933420016" lon="9.757276095765693"><ele>302.0</ele><time>2026-04-26T07:00:17Z</time></trkpt><trkpt lat="45.73608587492353" lon="9.757304638891496"><ele>302.0</ele><time>2026-04-26T07:00:18Z</time></trkpt><trkpt lat="45.736168595883115" lon="9.75733519407808"><ele>302.0</ele><time>2026-04-26T07:00:19Z</time></trkpt><trkpt lat="45.73625324713565" lon="9.757372454225"><ele>302.0</ele><time>2026-04-26T07:00:20Z</time></trkpt><trkpt lat="45.736332318106975" lon="9.757414361892298"><ele>302.0</ele><time>2026-04-26T07:00:21Z</time></trkpt><trkpt lat="45.73640758400196" lon="9.757470482100741"><ele>301.8571428571429</ele><time>2026-04-26T07:00:22Z</time></trkpt><trkpt lat="45.73646996477693" lon="9.757539065736541"><ele>301.7142857142857</ele><time>2026-04-26T07:00:23Z</time></trkpt><trkpt lat="45.736522137071475" lon="9.757615660377493"><ele>301.57142857142856</ele><time>2026-04-26T07:00:24Z</time></trkpt><trkpt lat="45.73656892593529" lon="9.757698836050903"><ele>301.42857142857144</ele><time>2026-04-26T07:00:25Z</time></trkpt><trkpt lat="45.736606983181204" lon="9.75779107310117"><ele>301.2857142857143</ele><time>2026-04-26T07:00:26Z</time></trkpt><trkpt lat="45.736624773753334" lon="9.757887754136318"><ele>301.14285714285717</ele><time>2026-04-26T07:00:27Z</time></trkpt><trkpt lat="45.73666110179606" lon="9.757970286077299"><ele>301.0</ele><time>2026-04-26T07:00:28Z</time></trkpt><trkpt lat="45.736697324709525" lon="9.75805143780339"><ele>301.0</ele><time>2026-04-26T07:00:29Z</time></trkpt><trkpt lat="45.73673426733776" lon="9.758132491058293"><ele>301.0</ele><time>2026-04-26T07:00:30Z</time></trkpt><trkpt lat="45.73676949456723" lon="9.75821097118004"><ele>301.0</ele><time>2026-04-26T07:00:31Z</time></trkpt><trkpt lat="45.73680607737694" lon="9.758290225740849"><ele>301.0</ele><time>2026-04-26T07:00:32Z</time></trkpt><trkpt lat="45.736840986922694" lon="9.75836635274583"><ele>301.0</ele><time>2026-04-26T07:00:33Z</time></trkpt><trkpt lat="45.73687942190815" lon="9.758448951794136"><ele>301.0</ele><time>2026-04-26T07:00:34Z</time></trkpt><trkpt lat="45.73691356522364" lon="9.758528081921195"><ele>301.0</ele><time>2026-04-26T07:00:35Z</time></trkpt><trkpt lat="45.736950057785656" lon="9.75860880828783"><ele>300.0</ele><time>2026-04-26T07:00:36Z</time></trkpt><trkpt lat="45.73698422310919" lon="9.75868804569705"><ele>299.0</ele><time>2026-04-26T07:00:37Z</time></trkpt><trkpt lat="45.73701990361881" lon="9.758767993505803"><ele>298.0</ele><time>2026-04-26T07:00:38Z</time></trkpt><trkpt lat="45.73705473834279" lon="9.758847607836023"><ele>297.0</ele><time>2026-04-26T07:00:39Z</time></trkpt><trkpt lat="45.73708978014872" lon="9.758930006568955"><ele>296.0</ele><time>2026-04-26T07:00:40Z</time></trkpt><trkpt lat="45.73712430840632" lon="9.759008908696606"><ele>295.0</ele><time>2026-04-26T07:00:41Z</time></trkpt><trkpt lat="45.73715882615469" lon="9.759091340677829"><ele>294.0</ele><time>2026-04-26T07:00:42Z</time></trkpt><trkpt lat="45.73718929863874" lon="9.759175546501908"><ele>294.0</ele><time>2026-04-26T07:00:42.999Z</time></trkpt><trkpt lat="45.73721816951865" lon="9.759261681801318"><ele>294.0</ele><time>2026-04-26T07:00:43.999Z</time></trkpt><trkpt lat="45.73724630464352" lon="9.759346082247596"><ele>294.0</ele><time>2026-04-26T07:00:44.999Z</time></trkpt><trkpt lat="45.73727190734969" lon="9.759432491889308"><ele>294.0</ele><time>2026-04-26T07:00:45.999Z</time></trkpt><trkpt lat="45.73729794037473" lon="9.759517903799454"><ele>294.0</ele><time>2026-04-26T07:00:46.999Z</time></trkpt><trkpt lat="45.73732371057535" lon="9.759604527728886"><ele>294.0</ele><time>2026-04-26T07:00:47.999Z</time></trkpt><trkpt lat="45.73734741803061" lon="9.759689922678907"><ele>294.0</ele><time>2026-04-26T07:00:48.999Z</time></trkpt><trkpt lat="45.737371977763445" lon="9.759775307410806"><ele>294.42857142857144</ele><time>2026-04-26T07:00:49.999Z</time></trkpt><trkpt lat="45.737396015000265" lon="9.759862735245084"><ele>294.8571428571429</ele><time>2026-04-26T07:00:50.999Z</time></trkpt><trkpt lat="45.737421391877234" lon="9.759947893281751"><ele>295.2857142857143</ele><time>2026-04-26T07:00:51.999Z</time></trkpt><trkpt lat="45.73744855059391" lon="9.760032769717672"><ele>295.7142857142857</ele><time>2026-04-26T07:00:52.999Z</time></trkpt><trkpt lat="45.73747134658886" lon="9.760120004074404"><ele>296.14285714285717</ele><time>2026-04-26T07:00:53.999Z</time></trkpt><trkpt lat="45.73749379388174" lon="9.760208088141663"><ele>296.57142857142856</ele><time>2026-04-26T07:00:54.999Z</time></trkpt><trkpt lat="45.73751656358632" lon="9.760296810691207"><ele>297.0</ele><time>2026-04-26T07:00:55.999Z</time></trkpt><trkpt lat="45.73753550217708" lon="9.76038454416372"><ele>297.42857142857144</ele><time>2026-04-26T07:00:56.999Z</time></trkpt><trkpt lat="45.73755389030316" lon="9.760474542251579"><ele>297.8571428571429</ele><time>2026-04-26T07:00:57.999Z</time></trkpt><trkpt lat="45.73757105481739" lon="9.760564103050731"><ele>298.2857142857143</ele><time>2026-04-26T07:00:58.999Z</time></trkpt><trkpt lat="45.73759023406058" lon="9.760652353952866"><ele>298.7142857142857</ele><time>2026-04-26T07:00:59.999Z</time></trkpt><trkpt lat="45.73760586755999" lon="9.76074107475711"><ele>299.1428571428571</ele><time>2026-04-26T07:01:00.999Z</time></trkpt><trkpt lat="45.73761912131146" lon="9.760831448445643"><ele>299.57142857142856</ele><time>2026-04-26T07:01:01.999Z</time></trkpt><trkpt lat="45.73763431698906" lon="9.760921914599967"><ele>300.0</ele><time>2026-04-26T07:01:02.999Z</time></trkpt><trkpt lat="45.73764686864208" lon="9.76101263908479"><ele>300.57142857142856</ele><time>2026-04-26T07:01:03.999Z</time></trkpt><trkpt lat="45.737662456789536" lon="9.761101615907753"><ele>301.1428571428571</ele><time>2026-04-26T07:01:04.999Z</time></trkpt><trkpt lat="45.7376755171526" lon="9.761192937797807"><ele>301.71428571428567</ele><time>2026-04-26T07:01:05.999Z</time></trkpt><trkpt lat="45.73768714209597" lon="9.761283395083062"><ele>302.2857142857143</ele><time>2026-04-26T07:01:06.999Z</time></trkpt><trkpt lat="45.73769807044678" lon="9.761372678407167"><ele>302.8571428571429</ele><time>2026-04-26T07:01:07.999Z</time></trkpt><trkpt lat="45.73770517464644" lon="9.761466278094725"><ele>303.4285714285714</ele><time>2026-04-26T07:01:08.999Z</time></trkpt><trkpt lat="45.73771472588697" lon="9.761558222988954"><ele>304.0</ele><time>2026-04-26T07:01:09.999Z</time></trkpt><trkpt lat="45.737715626749406" lon="9.761648725001347"><ele>304.85714285714283</ele><time>2026-04-26T07:01:10.999Z</time></trkpt><trkpt lat="45.7377190276718" lon="9.761740036654805"><ele>305.7142857142857</ele><time>2026-04-26T07:01:11.999Z</time></trkpt><trkpt lat="45.737720461508445" lon="9.761832461198473"><ele>306.57142857142856</ele><time>2026-04-26T07:01:12.999Z</time></trkpt><trkpt lat="45.7377197072388" lon="9.761923672418742"><ele>307.42857142857144</ele><time>2026-04-26T07:01:13.999Z</time></trkpt><trkpt lat="45.73772135344664" lon="9.762017029817374"><ele>308.2857142857143</ele><time>2026-04-26T07:01:14.999Z</time></trkpt><trkpt lat="45.73771967950184" lon="9.762108491176255"><ele>309.14285714285717</ele><time>2026-04-26T07:01:15.999Z</time></trkpt><trkpt lat="45.737717645703974" lon="9.762203165735272"><ele>310.0</ele><time>2026-04-26T07:01:16.999Z</time></trkpt><trkpt lat="45.73771984327081" lon="9.762294053995682"><ele>307.3333333333333</ele><time>2026-04-26T07:01:17.999Z</time></trkpt><trkpt lat="45.73772303556607" lon="9.762387604582099"><ele>304.66666666666663</ele><time>2026-04-26T07:01:18.999Z</time></trkpt><trkpt lat="45.73772719333143" lon="9.762478819139162"><ele>302.0</ele><time>2026-04-26T07:01:19.999Z</time></trkpt><trkpt lat="45.737739594743246" lon="9.762655204491628"><ele>299.3333333333333</ele><time>2026-04-26T07:01:21.999Z</time></trkpt><trkpt lat="45.73775153526096" lon="9.762746062187892"><ele>296.6666666666667</ele><time>2026-04-26T07:01:22.999Z</time></trkpt><trkpt lat="45.73778264720941" lon="9.762922850933261"><ele>294.0</ele><time>2026-04-26T07:01:24.999Z</time></trkpt><trkpt lat="45.737804945631396" lon="9.763011473665697"><ele>294.0</ele><time>2026-04-26T07:01:25.999Z</time></trkpt><trkpt lat="45.737830028833116" lon="9.763097740709517"><ele>294.0</ele><time>2026-04-26T07:01:26.999Z</time></trkpt><trkpt lat="45.737857849047515" lon="9.763182375816319"><ele>294.0</ele><time>2026-04-26T07:01:27.999Z</time></trkpt><trkpt lat="45.737885056516355" lon="9.763266440259985"><ele>294.0</ele><time>2026-04-26T07:01:28.999Z</time></trkpt><trkpt lat="45.737938768729606" lon="9.763428385338596"><ele>294.0</ele><time>2026-04-26T07:01:30.999Z</time></trkpt><trkpt lat="45.737994746794655" lon="9.763591736412955"><ele>294.0</ele><time>2026-04-26T07:01:32.999Z</time></trkpt><trkpt lat="45.73803991875209" lon="9.76376001951439"><ele>295.0</ele><time>2026-04-26T07:01:34.999Z</time></trkpt><trkpt lat="45.738068425554864" lon="9.763843118007989"><ele>296.0</ele><time>2026-04-26T07:01:35.999Z</time></trkpt><trkpt lat="45.73809456337335" lon="9.763928266916187"><ele>297.0</ele><time>2026-04-26T07:01:36.999Z</time></trkpt><trkpt lat="45.73812360375632" lon="9.76401249202421"><ele>298.0</ele><time>2026-04-26T07:01:37.999Z</time></trkpt><trkpt lat="45.73816869378797" lon="9.764183315339341"><ele>299.0</ele><time>2026-04-26T07:01:39.999Z</time></trkpt><trkpt lat="45.738217274125866" lon="9.764352975045933"><ele>299.6666666666667</ele><time>2026-04-26T07:01:41.999Z</time></trkpt><trkpt lat="45.7382675518552" lon="9.764509526879744"><ele>300.33333333333337</ele><time>2026-04-26T07:01:43.999Z</time></trkpt><trkpt lat="45.73831835107875" lon="9.764673507226014"><ele>301.0</ele><time>2026-04-26T07:01:45.999Z</time></trkpt><trkpt lat="45.73834558169155" lon="9.764756068279684"><ele>301.6666666666667</ele><time>2026-04-26T07:01:46.999Z</time></trkpt><trkpt lat="45.7383706088599" lon="9.764841834115652"><ele>302.3333333333333</ele><time>2026-04-26T07:01:47.999Z</time></trkpt><trkpt lat="45.73839676775045" lon="9.764928432724558"><ele>303.0</ele><time>2026-04-26T07:01:49Z</time></trkpt><trkpt lat="45.738423453012544" lon="9.765015806097274"><ele>303.0</ele><time>2026-04-26T07:01:50Z</time></trkpt><trkpt lat="45.738451698326145" lon="9.765099746173801"><ele>303.0</ele><time>2026-04-26T07:01:51Z</time></trkpt><trkpt lat="45.73848006459482" lon="9.76518114082676"><ele>303.0</ele><time>2026-04-26T07:01:52Z</time></trkpt><trkpt lat="45.73851008070434" lon="9.765265319473622"><ele>303.0</ele><time>2026-04-26T07:01:53Z</time></trkpt><trkpt lat="45.73853965194622" lon="9.765350975888035"><ele>303.0</ele><time>2026-04-26T07:01:54Z</time></trkpt><trkpt lat="45.73856545185814" lon="9.765435887895569"><ele>303.0</ele><time>2026-04-26T07:01:55Z</time></trkpt><trkpt lat="45.738592129774034" lon="9.765520414432531"><ele>303.0</ele><time>2026-04-26T07:01:56Z</time></trkpt><trkpt lat="45.73861667251264" lon="9.76560737538099"><ele>302.7142857142857</ele><time>2026-04-26T07:01:57Z</time></trkpt><trkpt lat="45.73864423125532" lon="9.765691407860816"><ele>302.42857142857144</ele><time>2026-04-26T07:01:58Z</time></trkpt><trkpt lat="45.73867342774361" lon="9.765773974158858"><ele>302.1428571428571</ele><time>2026-04-26T07:01:59Z</time></trkpt><trkpt lat="45.73869995636847" lon="9.765856950320323"><ele>301.8571428571429</ele><time>2026-04-26T07:02:00Z</time></trkpt><trkpt lat="45.738727123549864" lon="9.765942116289555"><ele>301.57142857142856</ele><time>2026-04-26T07:02:01Z</time></trkpt><trkpt lat="45.738754165563755" lon="9.766025399848411"><ele>301.2857142857143</ele><time>2026-04-26T07:02:02Z</time></trkpt><trkpt lat="45.73878098470049" lon="9.76611104100355"><ele>301.0</ele><time>2026-04-26T07:02:03Z</time></trkpt><trkpt lat="45.738808257685264" lon="9.766195892961578"><ele>301.0</ele><time>2026-04-26T07:02:04Z</time></trkpt><trkpt lat="45.738868197559256" lon="9.766357929209269"><ele>301.0</ele><time>2026-04-26T07:02:06Z</time></trkpt><trkpt lat="45.7388971060696" lon="9.76644131484388"><ele>301.0</ele><time>2026-04-26T07:02:07Z</time></trkpt><trkpt lat="45.73892582582682" lon="9.766524037237142"><ele>301.0</ele><time>2026-04-26T07:02:08Z</time></trkpt><trkpt lat="45.7389515008818" lon="9.766611316274654"><ele>301.0</ele><time>2026-04-26T07:02:09Z</time></trkpt><trkpt lat="45.73897670638756" lon="9.766695288818125"><ele>301.0</ele><time>2026-04-26T07:02:10Z</time></trkpt><trkpt lat="45.73900122902272" lon="9.766780340159618"><ele>301.6</ele><time>2026-04-26T07:02:11Z</time></trkpt><trkpt lat="45.7390263742049" lon="9.766863906836285"><ele>302.20000000000005</ele><time>2026-04-26T07:02:12Z</time></trkpt><trkpt lat="45.739051040073846" lon="9.76695057057797"><ele>302.79999999999995</ele><time>2026-04-26T07:02:13Z</time></trkpt><trkpt lat="45.73908496375749" lon="9.767129438279172"><ele>303.4</ele><time>2026-04-26T07:02:15Z</time></trkpt><trkpt lat="45.7390894170339" lon="9.767305957697296"><ele>304.0</ele><time>2026-04-26T07:02:17Z</time></trkpt><trkpt lat="45.73906551108542" lon="9.76747623307108"><ele>304.0</ele><time>2026-04-26T07:02:19Z</time></trkpt><trkpt lat="45.739050235765895" lon="9.767649085651094"><ele>304.0</ele><time>2026-04-26T07:02:21Z</time></trkpt><trkpt lat="45.739077160304234" lon="9.767816187425288"><ele>304.0</ele><time>2026-04-26T07:02:23Z</time></trkpt><trkpt lat="45.73918070831182" lon="9.767925342270223"><ele>304.0</ele><time>2026-04-26T07:02:25Z</time></trkpt><trkpt lat="45.73924053068268" lon="9.767961124155763"><ele>304.0</ele><time>2026-04-26T07:02:26Z</time></trkpt><trkpt lat="45.73929717190255" lon="9.768001009887062"><ele>304.16666666666663</ele><time>2026-04-26T07:02:27Z</time></trkpt><trkpt lat="45.73935126293259" lon="9.768047247434886"><ele>304.3333333333333</ele><time>2026-04-26T07:02:28Z</time></trkpt><trkpt lat="45.739458857961466" lon="9.768136231370647"><ele>304.5</ele><time>2026-04-26T07:02:30Z</time></trkpt><trkpt lat="45.739570180877045" lon="9.768214752918414"><ele>304.6666666666667</ele><time>2026-04-26T07:02:32Z</time></trkpt><trkpt lat="45.73962674513542" lon="9.768254392675786"><ele>304.83333333333337</ele><time>2026-04-26T07:02:33Z</time></trkpt><trkpt lat="45.7396838345673" lon="9.768293148341195"><ele>305.0</ele><time>2026-04-26T07:02:34Z</time></trkpt><trkpt lat="45.73974286559815" lon="9.768330073973093"><ele>305.0</ele><time>2026-04-26T07:02:35Z</time></trkpt><trkpt lat="45.73985660356471" lon="9.768396932217547"><ele>305.0</ele><time>2026-04-26T07:02:37Z</time></trkpt><trkpt lat="45.73996789879102" lon="9.76846312059162"><ele>305.0</ele><time>2026-04-26T07:02:39Z</time></trkpt><trkpt lat="45.74007518972502" lon="9.768527421785626"><ele>305.0</ele><time>2026-04-26T07:02:41Z</time></trkpt><trkpt lat="45.740180296064366" lon="9.76859732025845"><ele>305.33333333333337</ele><time>2026-04-26T07:02:43Z</time></trkpt><trkpt lat="45.74023792119446" lon="9.768640848626283"><ele>305.6666666666667</ele><time>2026-04-26T07:02:44Z</time></trkpt><trkpt lat="45.740341887675676" lon="9.76871524538955"><ele>306.0</ele><time>2026-04-26T07:02:46Z</time></trkpt><trkpt lat="45.74044449708813" lon="9.76878742021897"><ele>306.3333333333333</ele><time>2026-04-26T07:02:48Z</time></trkpt><trkpt lat="45.74050399966146" lon="9.768823725003351"><ele>306.66666666666663</ele><time>2026-04-26T07:02:49Z</time></trkpt><trkpt lat="45.740563122398925" lon="9.768866180853118"><ele>307.0</ele><time>2026-04-26T07:02:50Z</time></trkpt><trkpt lat="45.74066404763546" lon="9.76896002366502"><ele>307.0</ele><time>2026-04-26T07:02:52Z</time></trkpt><trkpt lat="45.74075352469772" lon="9.769057684689296"><ele>307.0</ele><time>2026-04-26T07:02:54Z</time></trkpt><trkpt lat="45.74083798934029" lon="9.769150558074625"><ele>307.0</ele><time>2026-04-26T07:02:56Z</time></trkpt><trkpt lat="45.74091992897985" lon="9.76923850097554"><ele>307.0</ele><time>2026-04-26T07:02:58Z</time></trkpt><trkpt lat="45.74102247965709" lon="9.769353290094614"><ele>306.85714285714283</ele><time>2026-04-26T07:03:00Z</time></trkpt><trkpt lat="45.74107891242258" lon="9.769417659258538"><ele>306.7142857142857</ele><time>2026-04-26T07:03:01Z</time></trkpt><trkpt lat="45.74113479585795" lon="9.769481917979473"><ele>306.57142857142856</ele><time>2026-04-26T07:03:02Z</time></trkpt><trkpt lat="45.74118917684461" lon="9.769542161594647"><ele>306.42857142857144</ele><time>2026-04-26T07:03:03Z</time></trkpt><trkpt lat="45.741240879895166" lon="9.769609180257676"><ele>306.2857142857143</ele><time>2026-04-26T07:03:04Z</time></trkpt><trkpt lat="45.74128965579293" lon="9.769679627681683"><ele>306.1428571428571</ele><time>2026-04-26T07:03:05Z</time></trkpt><trkpt lat="45.7413310632173" lon="9.769756136463224"><ele>306.0</ele><time>2026-04-26T07:03:06Z</time></trkpt><trkpt lat="45.74137220797029" lon="9.76983183084729"><ele>306.0</ele><time>2026-04-26T07:03:07Z</time></trkpt><trkpt lat="45.74141466676858" lon="9.769904763098506"><ele>306.0</ele><time>2026-04-26T07:03:08Z</time></trkpt><trkpt lat="45.74145983382969" lon="9.769972564862648"><ele>306.0</ele><time>2026-04-26T07:03:09Z</time></trkpt><trkpt lat="45.741501952956135" lon="9.770042503645616"><ele>306.0</ele><time>2026-04-26T07:03:10Z</time></trkpt><trkpt lat="45.741541293736915" lon="9.770113972696812"><ele>306.0</ele><time>2026-04-26T07:03:11Z</time></trkpt><trkpt lat="45.741584905690964" lon="9.770186003226737"><ele>306.0</ele><time>2026-04-26T07:03:12Z</time></trkpt><trkpt lat="45.74162903800717" lon="9.770252687757536"><ele>306.0</ele><time>2026-04-26T07:03:13Z</time></trkpt><trkpt lat="45.74168060637087" lon="9.770321615021764"><ele>305.6</ele><time>2026-04-26T07:03:14Z</time></trkpt><trkpt lat="45.74176140337922" lon="9.770460275775882"><ele>305.20000000000005</ele><time>2026-04-26T07:03:16Z</time></trkpt><trkpt lat="45.741799614035635" lon="9.770532529089312"><ele>304.79999999999995</ele><time>2026-04-26T07:03:17Z</time></trkpt><trkpt lat="45.741833637426474" lon="9.770609558062752"><ele>304.4</ele><time>2026-04-26T07:03:18Z</time></trkpt><trkpt lat="45.74189083237729" lon="9.770775758001879"><ele>304.0</ele><time>2026-04-26T07:03:20Z</time></trkpt><trkpt lat="45.741955958821976" lon="9.770931674082254"><ele>304.0</ele><time>2026-04-26T07:03:22Z</time></trkpt><trkpt lat="45.74199084777044" lon="9.771007619846642"><ele>304.0</ele><time>2026-04-26T07:03:23Z</time></trkpt><trkpt lat="45.74202766997912" lon="9.771082821672117"><ele>304.0</ele><time>2026-04-26T07:03:24Z</time></trkpt><trkpt lat="45.74206289663163" lon="9.771158431475827"><ele>304.0</ele><time>2026-04-26T07:03:25Z</time></trkpt><trkpt lat="45.742099091603" lon="9.771232417971984"><ele>304.0</ele><time>2026-04-26T07:03:26Z</time></trkpt><trkpt lat="45.74213815310996" lon="9.771308211304378"><ele>304.0</ele><time>2026-04-26T07:03:27Z</time></trkpt><trkpt lat="45.742179550987544" lon="9.77138000312439"><ele>304.0</ele><time>2026-04-26T07:03:28Z</time></trkpt><trkpt lat="45.74221685671941" lon="9.771458868441494"><ele>304.59999999999997</ele><time>2026-04-26T07:03:29Z</time></trkpt><trkpt lat="45.74228619489441" lon="9.771602705048188"><ele>305.2</ele><time>2026-04-26T07:03:31Z</time></trkpt><trkpt lat="45.74233203716233" lon="9.771684216464152"><ele>305.79999999999995</ele><time>2026-04-26T07:03:32Z</time></trkpt><trkpt lat="45.742377473887935" lon="9.77175603256785"><ele>306.4</ele><time>2026-04-26T07:03:33Z</time></trkpt><trkpt lat="45.74242550630655" lon="9.7718267353721"><ele>307.0</ele><time>2026-04-26T07:03:34Z</time></trkpt><trkpt lat="45.742525331444476" lon="9.77193204279095"><ele>307.16666666666663</ele><time>2026-04-26T07:03:36Z</time></trkpt><trkpt lat="45.74258285005568" lon="9.771977841130525"><ele>307.3333333333333</ele><time>2026-04-26T07:03:37Z</time></trkpt><trkpt lat="45.74269298957156" lon="9.772065396728708"><ele>307.5</ele><time>2026-04-26T07:03:39Z</time></trkpt><trkpt lat="45.74275080176822" lon="9.77210661670896"><ele>307.6666666666667</ele><time>2026-04-26T07:03:40Z</time></trkpt><trkpt lat="45.7428032508262" lon="9.772156785400423"><ele>307.83333333333337</ele><time>2026-04-26T07:03:41Z</time></trkpt><trkpt lat="45.74285219907883" lon="9.77221580335151"><ele>308.0</ele><time>2026-04-26T07:03:42Z</time></trkpt><trkpt lat="45.74290030473651" lon="9.77228280196811"><ele>307.6</ele><time>2026-04-26T07:03:43Z</time></trkpt><trkpt lat="45.74294592618865" lon="9.772346026078617"><ele>307.20000000000005</ele><time>2026-04-26T07:03:44Z</time></trkpt><trkpt lat="45.743030351073536" lon="9.772470482436184"><ele>306.8</ele><time>2026-04-26T07:03:46Z</time></trkpt><trkpt lat="45.74310541008746" lon="9.772592256149235"><ele>306.40000000000003</ele><time>2026-04-26T07:03:48Z</time></trkpt><trkpt lat="45.743157612022664" lon="9.772719932279951"><ele>306.0</ele><time>2026-04-26T07:03:50Z</time></trkpt><trkpt lat="45.743207143207805" lon="9.772865685151906"><ele>306.0</ele><time>2026-04-26T07:03:52Z</time></trkpt><trkpt lat="45.74323303197774" lon="9.772951246287455"><ele>306.0</ele><time>2026-04-26T07:03:53Z</time></trkpt><trkpt lat="45.743254958650354" lon="9.773036399096041"><ele>306.0</ele><time>2026-04-26T07:03:54Z</time></trkpt><trkpt lat="45.74327541252737" lon="9.773124576117214"><ele>306.0</ele><time>2026-04-26T07:03:55Z</time></trkpt><trkpt lat="45.74329702647922" lon="9.77320947396383"><ele>306.0</ele><time>2026-04-26T07:03:56Z</time></trkpt><trkpt lat="45.74331721162364" lon="9.77329640098142"><ele>306.0</ele><time>2026-04-26T07:03:57Z</time></trkpt><trkpt lat="45.743335432172245" lon="9.773385280629075"><ele>306.0</ele><time>2026-04-26T07:03:58Z</time></trkpt><trkpt lat="45.74337536250465" lon="9.773557521714295"><ele>306.2857142857143</ele><time>2026-04-26T07:04:00Z</time></trkpt><trkpt lat="45.743391790785964" lon="9.77364644338936"><ele>306.57142857142856</ele><time>2026-04-26T07:04:01Z</time></trkpt><trkpt lat="45.74341088863863" lon="9.773736264418702"><ele>306.8571428571429</ele><time>2026-04-26T07:04:02Z</time></trkpt><trkpt lat="45.74343034121713" lon="9.773822973443355"><ele>307.1428571428571</ele><time>2026-04-26T07:04:03Z</time></trkpt><trkpt lat="45.74344765678115" lon="9.77391308810974"><ele>307.42857142857144</ele><time>2026-04-26T07:04:04Z</time></trkpt><trkpt lat="45.74348053403226" lon="9.774086897314584"><ele>307.7142857142857</ele><time>2026-04-26T07:04:06Z</time></trkpt><trkpt lat="45.74349533835246" lon="9.77417586398648"><ele>308.0</ele><time>2026-04-26T07:04:07Z</time></trkpt><trkpt lat="45.74351219458846" lon="9.774264871871718"><ele>308.0</ele><time>2026-04-26T07:04:08Z</time></trkpt><trkpt lat="45.7435316909171" lon="9.774354813333373"><ele>308.0</ele><time>2026-04-26T07:04:09Z</time></trkpt><trkpt lat="45.743549592714196" lon="9.774442512367735"><ele>308.0</ele><time>2026-04-26T07:04:10Z</time></trkpt><trkpt lat="45.7435665507115" lon="9.774532755665225"><ele>308.0</ele><time>2026-04-26T07:04:11Z</time></trkpt><trkpt lat="45.74358347086867" lon="9.77462209948257"><ele>308.0</ele><time>2026-04-26T07:04:12Z</time></trkpt><trkpt lat="45.74362062057182" lon="9.774793539499555"><ele>308.0</ele><time>2026-04-26T07:04:14Z</time></trkpt><trkpt lat="45.743658201773556" lon="9.774937088168638"><ele>308.0</ele><time>2026-04-26T07:04:16Z</time></trkpt><trkpt lat="45.74370570925682" lon="9.775089311548177"><ele>308.0</ele><time>2026-04-26T07:04:18Z</time></trkpt><trkpt lat="45.743741433533586" lon="9.775166532158241"><ele>308.0</ele><time>2026-04-26T07:04:19Z</time></trkpt><trkpt lat="45.74377570613854" lon="9.7752427331287"><ele>308.0</ele><time>2026-04-26T07:04:20Z</time></trkpt><trkpt lat="45.74381347639942" lon="9.775317551009472"><ele>308.0</ele><time>2026-04-26T07:04:21Z</time></trkpt><trkpt lat="45.74388752358948" lon="9.77546341882729"><ele>308.0</ele><time>2026-04-26T07:04:23Z</time></trkpt><trkpt lat="45.74392154527209" lon="9.775541011917705"><ele>308.2857142857143</ele><time>2026-04-26T07:04:24Z</time></trkpt><trkpt lat="45.74394986391078" lon="9.77562180825302"><ele>308.57142857142856</ele><time>2026-04-26T07:04:25Z</time></trkpt><trkpt lat="45.7439854422529" lon="9.775703791128244"><ele>308.8571428571429</ele><time>2026-04-26T07:04:26Z</time></trkpt><trkpt lat="45.74402124178232" lon="9.775784388148862"><ele>309.1428571428571</ele><time>2026-04-26T07:04:27Z</time></trkpt><trkpt lat="45.74405808269287" lon="9.775859777133018"><ele>309.42857142857144</ele><time>2026-04-26T07:04:28Z</time></trkpt><trkpt lat="45.74409779279071" lon="9.77593551878526"><ele>309.7142857142857</ele><time>2026-04-26T07:04:29Z</time></trkpt><trkpt lat="45.744137075087615" lon="9.776010475654257"><ele>310.0</ele><time>2026-04-26T07:04:30Z</time></trkpt><trkpt lat="45.74417546406623" lon="9.776087992560694"><ele>310.14285714285717</ele><time>2026-04-26T07:04:31Z</time></trkpt><trkpt lat="45.74421015034434" lon="9.776167923095214"><ele>310.2857142857143</ele><time>2026-04-26T07:04:32Z</time></trkpt><trkpt lat="45.74424325134497" lon="9.77624889631203"><ele>310.42857142857144</ele><time>2026-04-26T07:04:33Z</time></trkpt><trkpt lat="45.744276319105964" lon="9.776329785962808"><ele>310.57142857142856</ele><time>2026-04-26T07:04:34Z</time></trkpt><trkpt lat="45.7443124409688" lon="9.776410129046349"><ele>310.7142857142857</ele><time>2026-04-26T07:04:35Z</time></trkpt><trkpt lat="45.74434877943166" lon="9.776485685348089"><ele>310.85714285714283</ele><time>2026-04-26T07:04:36Z</time></trkpt><trkpt lat="45.744389998316144" lon="9.776558534267116"><ele>311.0</ele><time>2026-04-26T07:04:37Z</time></trkpt><trkpt lat="45.74443051380339" lon="9.77662952317673"><ele>310.85714285714283</ele><time>2026-04-26T07:04:38Z</time></trkpt><trkpt lat="45.74447123844005" lon="9.77670209273923"><ele>310.7142857142857</ele><time>2026-04-26T07:04:39Z</time></trkpt><trkpt lat="45.744511456310555" lon="9.77677406405174"><ele>310.57142857142856</ele><time>2026-04-26T07:04:40Z</time></trkpt><trkpt lat="45.744550778191616" lon="9.776849255857847"><ele>310.42857142857144</ele><time>2026-04-26T07:04:41Z</time></trkpt><trkpt lat="45.74458968059625" lon="9.776921102230613"><ele>310.2857142857143</ele><time>2026-04-26T07:04:42Z</time></trkpt><trkpt lat="45.744630833209655" lon="9.776993487529522"><ele>310.14285714285717</ele><time>2026-04-26T07:04:43Z</time></trkpt><trkpt lat="45.74467028015919" lon="9.777065361691191"><ele>310.0</ele><time>2026-04-26T07:04:44Z</time></trkpt><trkpt lat="45.744709938073846" lon="9.777138832962192"><ele>310.0</ele><time>2026-04-26T07:04:45Z</time></trkpt><trkpt lat="45.744748573603474" lon="9.777214698892768"><ele>310.0</ele><time>2026-04-26T07:04:46Z</time></trkpt><trkpt lat="45.744783040732294" lon="9.777290621884339"><ele>310.0</ele><time>2026-04-26T07:04:47Z</time></trkpt><trkpt lat="45.744818154992316" lon="9.777369308926447"><ele>310.0</ele><time>2026-04-26T07:04:48Z</time></trkpt><trkpt lat="45.74485396590067" lon="9.77744584408224"><ele>310.0</ele><time>2026-04-26T07:04:49Z</time></trkpt><trkpt lat="45.744882954759234" lon="9.777530031247052"><ele>310.0</ele><time>2026-04-26T07:04:50Z</time></trkpt><trkpt lat="45.744906766145576" lon="9.777616508122781"><ele>310.0</ele><time>2026-04-26T07:04:51Z</time></trkpt><trkpt lat="45.74493188607892" lon="9.777702425849638"><ele>310.42857142857144</ele><time>2026-04-26T07:04:52Z</time></trkpt><trkpt lat="45.7449574523828" lon="9.777786587169373"><ele>310.85714285714283</ele><time>2026-04-26T07:04:53Z</time></trkpt><trkpt lat="45.74498392024333" lon="9.77786959302274"><ele>311.2857142857143</ele><time>2026-04-26T07:04:54Z</time></trkpt><trkpt lat="45.745007763427736" lon="9.777953876273605"><ele>311.7142857142857</ele><time>2026-04-26T07:04:55Z</time></trkpt><trkpt lat="45.74503325813081" lon="9.778042621694006"><ele>312.14285714285717</ele><time>2026-04-26T07:04:56Z</time></trkpt><trkpt lat="45.745057020657974" lon="9.778126236981066"><ele>312.57142857142856</ele><time>2026-04-26T07:04:57Z</time></trkpt><trkpt lat="45.745085289926465" lon="9.778209390652416"><ele>313.0</ele><time>2026-04-26T07:04:58Z</time></trkpt><trkpt lat="45.74511930269178" lon="9.778290531994138"><ele>313.0</ele><time>2026-04-26T07:04:59Z</time></trkpt><trkpt lat="45.7451608339743" lon="9.778360716369445"><ele>313.0</ele><time>2026-04-26T07:05:00Z</time></trkpt><trkpt lat="45.74520264432908" lon="9.77843404389281"><ele>313.0</ele><time>2026-04-26T07:05:01Z</time></trkpt><trkpt lat="45.74524190687874" lon="9.778506524872395"><ele>313.0</ele><time>2026-04-26T07:05:02Z</time></trkpt><trkpt lat="45.74528248509497" lon="9.778588449996533"><ele>313.0</ele><time>2026-04-26T07:05:03Z</time></trkpt><trkpt lat="45.745358372102984" lon="9.77873580968611"><ele>313.0</ele><time>2026-04-26T07:05:05Z</time></trkpt><trkpt lat="45.745395360752696" lon="9.778810364117254"><ele>313.0</ele><time>2026-04-26T07:05:06Z</time></trkpt><trkpt lat="45.745432734036" lon="9.778884522500693"><ele>313.0</ele><time>2026-04-26T07:05:07Z</time></trkpt><trkpt lat="45.7454624807289" lon="9.778965111235605"><ele>313.0</ele><time>2026-04-26T07:05:08Z</time></trkpt><trkpt lat="45.74549270156189" lon="9.7790489640922"><ele>313.0</ele><time>2026-04-26T07:05:09Z</time></trkpt><trkpt lat="45.745518398033205" lon="9.779132961390564"><ele>313.0</ele><time>2026-04-26T07:05:10Z</time></trkpt><trkpt lat="45.74554320083311" lon="9.7792182034987"><ele>313.0</ele><time>2026-04-26T07:05:11Z</time></trkpt><trkpt lat="45.74557151222719" lon="9.779302109775204"><ele>313.0</ele><time>2026-04-26T07:05:12Z</time></trkpt><trkpt lat="45.74559965002696" lon="9.779385890268525"><ele>313.0</ele><time>2026-04-26T07:05:13Z</time></trkpt><trkpt lat="45.74562558806122" lon="9.779470860385713"><ele>313.0</ele><time>2026-04-26T07:05:14Z</time></trkpt><trkpt lat="45.745652357738734" lon="9.779558600477634"><ele>313.0</ele><time>2026-04-26T07:05:15Z</time></trkpt><trkpt lat="45.74568243937767" lon="9.779639368562163"><ele>313.0</ele><time>2026-04-26T07:05:16Z</time></trkpt><trkpt lat="45.74571241869234" lon="9.779721784997747"><ele>313.0</ele><time>2026-04-26T07:05:17Z</time></trkpt><trkpt lat="45.74574319894964" lon="9.779803203070301"><ele>313.0</ele><time>2026-04-26T07:05:18Z</time></trkpt><trkpt lat="45.74579780772671" lon="9.779969086782568"><ele>313.0</ele><time>2026-04-26T07:05:20Z</time></trkpt><trkpt lat="45.745820903783454" lon="9.780054540649006"><ele>313.0</ele><time>2026-04-26T07:05:21Z</time></trkpt><trkpt lat="45.74584658123847" lon="9.780138745620034"><ele>313.0</ele><time>2026-04-26T07:05:22Z</time></trkpt><trkpt lat="45.74589226311987" lon="9.78030688154782"><ele>313.0</ele><time>2026-04-26T07:05:24Z</time></trkpt><trkpt lat="45.74591760039679" lon="9.780393095742994"><ele>313.0</ele><time>2026-04-26T07:05:24.999Z</time></trkpt><trkpt lat="45.74594379254669" lon="9.780480973786197"><ele>313.0</ele><time>2026-04-26T07:05:26Z</time></trkpt><trkpt lat="45.74596925450292" lon="9.780567001073537"><ele>313.0</ele><time>2026-04-26T07:05:26.999Z</time></trkpt><trkpt lat="45.74599443324392" lon="9.780654217156515"><ele>313.0</ele><time>2026-04-26T07:05:27.999Z</time></trkpt><trkpt lat="45.74602196872206" lon="9.780738426105687"><ele>313.0</ele><time>2026-04-26T07:05:28.999Z</time></trkpt><trkpt lat="45.74604796469404" lon="9.780824050564172"><ele>313.0</ele><time>2026-04-26T07:05:29.999Z</time></trkpt><trkpt lat="45.74607189693932" lon="9.780913575867261"><ele>313.0</ele><time>2026-04-26T07:05:30.999Z</time></trkpt><trkpt lat="45.746097118676865" lon="9.780997844294944"><ele>313.0</ele><time>2026-04-26T07:05:31.999Z</time></trkpt><trkpt lat="45.74612341711924" lon="9.781085156786117"><ele>313.0</ele><time>2026-04-26T07:05:32.999Z</time></trkpt><trkpt lat="45.74614679685981" lon="9.781174018973307"><ele>313.0</ele><time>2026-04-26T07:05:33.999Z</time></trkpt><trkpt lat="45.746170788748465" lon="9.781259683355469"><ele>313.0</ele><time>2026-04-26T07:05:34.999Z</time></trkpt><trkpt lat="45.746192578650536" lon="9.78134704076069"><ele>313.0</ele><time>2026-04-26T07:05:35.999Z</time></trkpt><trkpt lat="45.74621471033805" lon="9.781433859217188"><ele>313.0</ele><time>2026-04-26T07:05:36.999Z</time></trkpt><trkpt lat="45.74623755325597" lon="9.781518747477032"><ele>313.0</ele><time>2026-04-26T07:05:37.999Z</time></trkpt><trkpt lat="45.74628221379201" lon="9.781689531010214"><ele>313.0</ele><time>2026-04-26T07:05:39.999Z</time></trkpt><trkpt lat="45.74630512798239" lon="9.78177552311286"><ele>313.0</ele><time>2026-04-26T07:05:40.999Z</time></trkpt><trkpt lat="45.74633011956436" lon="9.781863309935094"><ele>313.16666666666663</ele><time>2026-04-26T07:05:41.999Z</time></trkpt><trkpt lat="45.74635318854595" lon="9.78194739704518"><ele>313.3333333333333</ele><time>2026-04-26T07:05:42.999Z</time></trkpt><trkpt lat="45.7463784790815" lon="9.782034773835532"><ele>313.5</ele><time>2026-04-26T07:05:43.999Z</time></trkpt><trkpt lat="45.74640101236475" lon="9.78212105706011"><ele>313.6666666666667</ele><time>2026-04-26T07:05:44.999Z</time></trkpt><trkpt lat="45.74642449653702" lon="9.78220606077756"><ele>313.83333333333337</ele><time>2026-04-26T07:05:45.999Z</time></trkpt><trkpt lat="45.746448894137075" lon="9.78229388207071"><ele>314.0</ele><time>2026-04-26T07:05:46.999Z</time></trkpt><trkpt lat="45.74649549276724" lon="9.782462759967528"><ele>314.0</ele><time>2026-04-26T07:05:48.999Z</time></trkpt><trkpt lat="45.74651566946554" lon="9.782551752222243"><ele>314.0</ele><time>2026-04-26T07:05:49.999Z</time></trkpt><trkpt lat="45.746537759415155" lon="9.782639709548354"><ele>314.0</ele><time>2026-04-26T07:05:50.999Z</time></trkpt><trkpt lat="45.74656140408561" lon="9.782726059243732"><ele>314.0</ele><time>2026-04-26T07:05:51.999Z</time></trkpt><trkpt lat="45.74660763959721" lon="9.782898523576783"><ele>314.0</ele><time>2026-04-26T07:05:53.999Z</time></trkpt><trkpt lat="45.746652283066936" lon="9.783066510183856"><ele>314.4285714285714</ele><time>2026-04-26T07:05:55.999Z</time></trkpt><trkpt lat="45.74667723749682" lon="9.783150556617974"><ele>314.85714285714283</ele><time>2026-04-26T07:05:56.999Z</time></trkpt><trkpt lat="45.74670148319287" lon="9.783236370598361"><ele>315.2857142857143</ele><time>2026-04-26T07:05:57.999Z</time></trkpt><trkpt lat="45.74676019142207" lon="9.783394199242986"><ele>315.71428571428567</ele><time>2026-04-26T07:05:59.999Z</time></trkpt><trkpt lat="45.74678975737759" lon="9.783476686075518"><ele>316.1428571428571</ele><time>2026-04-26T07:06:01Z</time></trkpt><trkpt lat="45.74681993207229" lon="9.783556427664143"><ele>316.57142857142856</ele><time>2026-04-26T07:06:02Z</time></trkpt><trkpt lat="45.74684890922047" lon="9.783636696952268"><ele>317.0</ele><time>2026-04-26T07:06:03Z</time></trkpt><trkpt lat="45.74687845154029" lon="9.78371999817591"><ele>317.0</ele><time>2026-04-26T07:06:04Z</time></trkpt><trkpt lat="45.74690555407057" lon="9.783806162898554"><ele>317.0</ele><time>2026-04-26T07:06:05Z</time></trkpt><trkpt lat="45.746931255609056" lon="9.783890277246106"><ele>317.0</ele><time>2026-04-26T07:06:06Z</time></trkpt><trkpt lat="45.74695982347685" lon="9.783973900388727"><ele>317.0</ele><time>2026-04-26T07:06:07Z</time></trkpt><trkpt lat="45.746991306276406" lon="9.784055619914918"><ele>317.0</ele><time>2026-04-26T07:06:08Z</time></trkpt><trkpt lat="45.747021722113644" lon="9.78413817507253"><ele>317.0</ele><time>2026-04-26T07:06:09Z</time></trkpt><trkpt lat="45.74705140867552" lon="9.78422097720389"><ele>317.0</ele><time>2026-04-26T07:06:10Z</time></trkpt><trkpt lat="45.74708196072004" lon="9.784304457433384"><ele>317.42857142857144</ele><time>2026-04-26T07:06:11Z</time></trkpt><trkpt lat="45.74711147242259" lon="9.784386400579447"><ele>317.85714285714283</ele><time>2026-04-26T07:06:12Z</time></trkpt><trkpt lat="45.74714381085737" lon="9.78447229999901"><ele>318.2857142857143</ele><time>2026-04-26T07:06:13Z</time></trkpt><trkpt lat="45.747172963265115" lon="9.784555600297294"><ele>318.7142857142857</ele><time>2026-04-26T07:06:14Z</time></trkpt><trkpt lat="45.74720595334735" lon="9.784639478682434"><ele>319.14285714285717</ele><time>2026-04-26T07:06:15Z</time></trkpt><trkpt lat="45.74723703596445" lon="9.784723245967772"><ele>319.57142857142856</ele><time>2026-04-26T07:06:16Z</time></trkpt><trkpt lat="45.74726608759808" lon="9.784806398386632"><ele>320.0</ele><time>2026-04-26T07:06:17Z</time></trkpt><trkpt lat="45.747295466057246" lon="9.784891205231828"><ele>320.0</ele><time>2026-04-26T07:06:18Z</time></trkpt><trkpt lat="45.747324770088056" lon="9.784974848423312"><ele>320.0</ele><time>2026-04-26T07:06:19Z</time></trkpt><trkpt lat="45.74735452463309" lon="9.785061422989095"><ele>320.0</ele><time>2026-04-26T07:06:20Z</time></trkpt><trkpt lat="45.747383487269566" lon="9.78514787668697"><ele>320.0</ele><time>2026-04-26T07:06:21Z</time></trkpt><trkpt lat="45.74741330855081" lon="9.785229441985278"><ele>320.0</ele><time>2026-04-26T07:06:22Z</time></trkpt><trkpt lat="45.74744398468965" lon="9.785309465259976"><ele>320.0</ele><time>2026-04-26T07:06:23Z</time></trkpt><trkpt lat="45.74747623588849" lon="9.785391369205863"><ele>320.0</ele><time>2026-04-26T07:06:24Z</time></trkpt><trkpt lat="45.74750626286878" lon="9.785473292958331"><ele>320.4</ele><time>2026-04-26T07:06:25Z</time></trkpt><trkpt lat="45.7475361213692" lon="9.78555738166659"><ele>320.8</ele><time>2026-04-26T07:06:26Z</time></trkpt><trkpt lat="45.74756456670994" lon="9.785640653411766"><ele>321.20000000000005</ele><time>2026-04-26T07:06:27Z</time></trkpt><trkpt lat="45.7476220900461" lon="9.785803517999849"><ele>321.6</ele><time>2026-04-26T07:06:29Z</time></trkpt><trkpt lat="45.74768062779909" lon="9.78596414612809"><ele>322.0</ele><time>2026-04-26T07:06:31Z</time></trkpt><trkpt lat="45.74771323192474" lon="9.786045471056784"><ele>322.0</ele><time>2026-04-26T07:06:32Z</time></trkpt><trkpt lat="45.74774216975742" lon="9.786125783538576"><ele>322.0</ele><time>2026-04-26T07:06:33Z</time></trkpt><trkpt lat="45.74777216670104" lon="9.78620839337797"><ele>322.0</ele><time>2026-04-26T07:06:34Z</time></trkpt><trkpt lat="45.74780133990952" lon="9.78628937483109"><ele>322.0</ele><time>2026-04-26T07:06:35Z</time></trkpt><trkpt lat="45.747834956141055" lon="9.786371237369925"><ele>322.0</ele><time>2026-04-26T07:06:36Z</time></trkpt><trkpt lat="45.747869609447925" lon="9.78644856313547"><ele>322.0</ele><time>2026-04-26T07:06:37Z</time></trkpt><trkpt lat="45.74790114932928" lon="9.786530864988235"><ele>322.0</ele><time>2026-04-26T07:06:38Z</time></trkpt><trkpt lat="45.74792581193108" lon="9.786616663755018"><ele>322.0</ele><time>2026-04-26T07:06:39Z</time></trkpt><trkpt lat="45.74795449348843" lon="9.786700009772492"><ele>322.0</ele><time>2026-04-26T07:06:40Z</time></trkpt><trkpt lat="45.747989141607206" lon="9.786781214151366"><ele>322.0</ele><time>2026-04-26T07:06:41Z</time></trkpt><trkpt lat="45.74802053639282" lon="9.78686026702041"><ele>322.0</ele><time>2026-04-26T07:06:42Z</time></trkpt><trkpt lat="45.74805418272762" lon="9.786939211755428"><ele>322.0</ele><time>2026-04-26T07:06:43Z</time></trkpt><trkpt lat="45.748087255799085" lon="9.787018355818683"><ele>322.0</ele><time>2026-04-26T07:06:44Z</time></trkpt><trkpt lat="45.74816707660603" lon="9.787157406153058"><ele>322.0</ele><time>2026-04-26T07:06:46Z</time></trkpt><trkpt lat="45.74822473431657" lon="9.787204147904124"><ele>322.85714285714283</ele><time>2026-04-26T07:06:47Z</time></trkpt><trkpt lat="45.748289480618745" lon="9.787232090769237"><ele>323.7142857142857</ele><time>2026-04-26T07:06:48Z</time></trkpt><trkpt lat="45.748357193519674" lon="9.787240968708879"><ele>324.57142857142856</ele><time>2026-04-26T07:06:49Z</time></trkpt><trkpt lat="45.748423662639794" lon="9.787240231884054"><ele>325.42857142857144</ele><time>2026-04-26T07:06:50Z</time></trkpt><trkpt lat="45.74848838811133" lon="9.78723739708015"><ele>326.2857142857143</ele><time>2026-04-26T07:06:51Z</time></trkpt><trkpt lat="45.7485544058939" lon="9.787234057445046"><ele>327.1428571428571</ele><time>2026-04-26T07:06:52Z</time></trkpt><trkpt lat="45.748620036031845" lon="9.787229684587055"><ele>328.0</ele><time>2026-04-26T07:06:53Z</time></trkpt><trkpt lat="45.748685693806536" lon="9.787227130121998"><ele>327.99999999999994</ele><time>2026-04-26T07:06:54Z</time></trkpt><trkpt lat="45.74875098948686" lon="9.787224825490831"><ele>328.0</ele><time>2026-04-26T07:06:55Z</time></trkpt><trkpt lat="45.748816626773646" lon="9.78722725017278"><ele>328.0</ele><time>2026-04-26T07:06:56Z</time></trkpt><trkpt lat="45.74888381252142" lon="9.787228908757152"><ele>328.0</ele><time>2026-04-26T07:06:57Z</time></trkpt><trkpt lat="45.74894958139956" lon="9.787234952299192"><ele>328.0</ele><time>2026-04-26T07:06:58Z</time></trkpt><trkpt lat="45.74901550787879" lon="9.787242976916007"><ele>327.99999999999994</ele><time>2026-04-26T07:06:59Z</time></trkpt><trkpt lat="45.7490805789612" lon="9.787254830082327"><ele>328.0</ele><time>2026-04-26T07:07:00Z</time></trkpt><trkpt lat="45.74914367648367" lon="9.787268694578012"><ele>327.99999999999994</ele><time>2026-04-26T07:07:01Z</time></trkpt><trkpt lat="45.7492075073276" lon="9.78729086205222"><ele>328.0</ele><time>2026-04-26T07:07:02Z</time></trkpt><trkpt lat="45.74926913982092" lon="9.787320203962592"><ele>328.0</ele><time>2026-04-26T07:07:03Z</time></trkpt><trkpt lat="45.74932724048997" lon="9.7873599823978"><ele>328.0</ele><time>2026-04-26T07:07:04Z</time></trkpt><trkpt lat="45.74938332818327" lon="9.787407524915857"><ele>328.0</ele><time>2026-04-26T07:07:05Z</time></trkpt><trkpt lat="45.749438637094826" lon="9.787465536690664"><ele>327.99999999999994</ele><time>2026-04-26T07:07:06Z</time></trkpt><trkpt lat="45.74948549460085" lon="9.78752980935829"><ele>328.0</ele><time>2026-04-26T07:07:07Z</time></trkpt><trkpt lat="45.74954357894279" lon="9.78758440591751"><ele>328.4285714285714</ele><time>2026-04-26T07:07:08Z</time></trkpt><trkpt lat="45.74959626832033" lon="9.787642923721963"><ele>328.85714285714283</ele><time>2026-04-26T07:07:09Z</time></trkpt><trkpt lat="45.74964892695683" lon="9.787703333134099"><ele>329.2857142857143</ele><time>2026-04-26T07:07:10Z</time></trkpt><trkpt lat="45.749705176370654" lon="9.787756593788963"><ele>329.71428571428567</ele><time>2026-04-26T07:07:11Z</time></trkpt><trkpt lat="45.749757464382704" lon="9.787808829131306"><ele>330.1428571428571</ele><time>2026-04-26T07:07:12Z</time></trkpt><trkpt lat="45.74981015699939" lon="9.787861308135493"><ele>330.57142857142856</ele><time>2026-04-26T07:07:13Z</time></trkpt><trkpt lat="45.74986286304009" lon="9.787917030505799"><ele>331.0</ele><time>2026-04-26T07:07:14Z</time></trkpt><trkpt lat="45.74991516278002" lon="9.787973959143121"><ele>331.0</ele><time>2026-04-26T07:07:15Z</time></trkpt><trkpt lat="45.74996824291152" lon="9.788030165275721"><ele>331.0</ele><time>2026-04-26T07:07:16Z</time></trkpt><trkpt lat="45.75001795483205" lon="9.788089188682232"><ele>331.0</ele><time>2026-04-26T07:07:17Z</time></trkpt><trkpt lat="45.7500699847856" lon="9.78814630073967"><ele>331.0</ele><time>2026-04-26T07:07:18Z</time></trkpt><trkpt lat="45.75012089014543" lon="9.788203948034656"><ele>331.0</ele><time>2026-04-26T07:07:19Z</time></trkpt><trkpt lat="45.750167637850794" lon="9.788269892905548"><ele>331.0</ele><time>2026-04-26T07:07:20Z</time></trkpt><trkpt lat="45.75020620662979" lon="9.788342827565875"><ele>331.0</ele><time>2026-04-26T07:07:21Z</time></trkpt><trkpt lat="45.75024103449513" lon="9.788421977361274"><ele>331.0</ele><time>2026-04-26T07:07:22Z</time></trkpt><trkpt lat="45.75027224303946" lon="9.788501942858638"><ele>331.0</ele><time>2026-04-26T07:07:23Z</time></trkpt><trkpt lat="45.75034314664374" lon="9.788653202985682"><ele>331.0</ele><time>2026-04-26T07:07:25Z</time></trkpt><trkpt lat="45.750377810125784" lon="9.788729409259595"><ele>331.0</ele><time>2026-04-26T07:07:26Z</time></trkpt><trkpt lat="45.750414342536516" lon="9.788804675945725"><ele>331.0</ele><time>2026-04-26T07:07:27Z</time></trkpt><trkpt lat="45.750458623873" lon="9.788874481394654"><ele>331.0</ele><time>2026-04-26T07:07:28Z</time></trkpt><trkpt lat="45.75050683630674" lon="9.788943501725988"><ele>331.0</ele><time>2026-04-26T07:07:29Z</time></trkpt><trkpt lat="45.7505580688987" lon="9.789003602927062"><ele>331.0</ele><time>2026-04-26T07:07:30Z</time></trkpt><trkpt lat="45.75061538066146" lon="9.789057096896533"><ele>331.0</ele><time>2026-04-26T07:07:31Z</time></trkpt><trkpt lat="45.750670177521684" lon="9.789111984990326"><ele>331.0</ele><time>2026-04-26T07:07:32Z</time></trkpt><trkpt lat="45.750725051232266" lon="9.789165451734888"><ele>331.0</ele><time>2026-04-26T07:07:33Z</time></trkpt><trkpt lat="45.7507792820256" lon="9.789217053498415"><ele>331.0</ele><time>2026-04-26T07:07:34Z</time></trkpt><trkpt lat="45.750831895923234" lon="9.789266693545622"><ele>331.0</ele><time>2026-04-26T07:07:35Z</time></trkpt><trkpt lat="45.75093600865988" lon="9.789357535185166"><ele>331.42857142857144</ele><time>2026-04-26T07:07:37Z</time></trkpt><trkpt lat="45.75099691179789" lon="9.789400868019994"><ele>331.85714285714283</ele><time>2026-04-26T07:07:38Z</time></trkpt><trkpt lat="45.751059240609635" lon="9.78943497587531"><ele>332.2857142857143</ele><time>2026-04-26T07:07:38.999Z</time></trkpt><trkpt lat="45.75112202435628" lon="9.789467502414439"><ele>332.7142857142857</ele><time>2026-04-26T07:07:40Z</time></trkpt><trkpt lat="45.75118233138957" lon="9.789501461807461"><ele>333.14285714285717</ele><time>2026-04-26T07:07:40.999Z</time></trkpt><trkpt lat="45.75124614800803" lon="9.789532560341577"><ele>333.57142857142856</ele><time>2026-04-26T07:07:41.999Z</time></trkpt><trkpt lat="45.75130880339409" lon="9.789562632389805"><ele>334.0</ele><time>2026-04-26T07:07:42.999Z</time></trkpt><trkpt lat="45.75137147785578" lon="9.789593137926904"><ele>334.0</ele><time>2026-04-26T07:07:43.999Z</time></trkpt><trkpt lat="45.751434421438596" lon="9.789625219486888"><ele>334.0</ele><time>2026-04-26T07:07:44.999Z</time></trkpt><trkpt lat="45.75149593193397" lon="9.789657499951733"><ele>334.0</ele><time>2026-04-26T07:07:45.999Z</time></trkpt><trkpt lat="45.75155659332154" lon="9.789693009565203"><ele>334.0</ele><time>2026-04-26T07:07:46.999Z</time></trkpt><trkpt lat="45.75161859969288" lon="9.789732336718258"><ele>334.0</ele><time>2026-04-26T07:07:47.999Z</time></trkpt><trkpt lat="45.75168000720854" lon="9.789775535237618"><ele>334.0</ele><time>2026-04-26T07:07:48.999Z</time></trkpt><trkpt lat="45.75173987602236" lon="9.789814539641995"><ele>334.0</ele><time>2026-04-26T07:07:49.999Z</time></trkpt><trkpt lat="45.75180048290385" lon="9.789856525856553"><ele>334.0</ele><time>2026-04-26T07:07:50.999Z</time></trkpt><trkpt lat="45.75185751616079" lon="9.789896373492432"><ele>334.0</ele><time>2026-04-26T07:07:51.999Z</time></trkpt><trkpt lat="45.751917183730114" lon="9.789936849450774"><ele>334.0</ele><time>2026-04-26T07:07:52.999Z</time></trkpt><trkpt lat="45.75197742737025" lon="9.789975688979236"><ele>334.0</ele><time>2026-04-26T07:07:53.999Z</time></trkpt><trkpt lat="45.75203985192503" lon="9.790014376764237"><ele>334.0</ele><time>2026-04-26T07:07:54.999Z</time></trkpt><trkpt lat="45.752099926044544" lon="9.79005449157731"><ele>334.0</ele><time>2026-04-26T07:07:55.999Z</time></trkpt><trkpt lat="45.75215748563542" lon="9.790102937390115"><ele>334.0</ele><time>2026-04-26T07:07:56.999Z</time></trkpt><trkpt lat="45.752207027508085" lon="9.79016534732064"><ele>333.0</ele><time>2026-04-26T07:07:57.999Z</time></trkpt><trkpt lat="45.752249913017174" lon="9.790244893732288"><ele>332.0</ele><time>2026-04-26T07:07:58.999Z</time></trkpt><trkpt lat="45.75227593523642" lon="9.79033440256239"><ele>331.0</ele><time>2026-04-26T07:07:59.999Z</time></trkpt><trkpt lat="45.75230067603107" lon="9.790427552620532"><ele>330.0</ele><time>2026-04-26T07:08:00.999Z</time></trkpt><trkpt lat="45.75232041806706" lon="9.790515425071995"><ele>329.0</ele><time>2026-04-26T07:08:01.999Z</time></trkpt><trkpt lat="45.75234416237762" lon="9.79060151030622"><ele>328.0</ele><time>2026-04-26T07:08:02.999Z</time></trkpt><trkpt lat="45.752363307202884" lon="9.790692913728716"><ele>327.0</ele><time>2026-04-26T07:08:03.999Z</time></trkpt><trkpt lat="45.75238001530461" lon="9.790785081589195"><ele>327.0</ele><time>2026-04-26T07:08:04.999Z</time></trkpt><trkpt lat="45.75239981077504" lon="9.790873122578505"><ele>327.0</ele><time>2026-04-26T07:08:05.999Z</time></trkpt><trkpt lat="45.752417932910255" lon="9.790964618085864"><ele>327.0</ele><time>2026-04-26T07:08:07Z</time></trkpt><trkpt lat="45.75243409857247" lon="9.791055356911752"><ele>327.0</ele><time>2026-04-26T07:08:08Z</time></trkpt><trkpt lat="45.75245144431298" lon="9.791149493286099"><ele>327.0</ele><time>2026-04-26T07:08:09Z</time></trkpt><trkpt lat="45.752482216835865" lon="9.79123057501243"><ele>327.0</ele><time>2026-04-26T07:08:10Z</time></trkpt><trkpt lat="45.75251515460684" lon="9.791312380380457"><ele>327.0</ele><time>2026-04-26T07:08:11Z</time></trkpt><trkpt lat="45.75255244958866" lon="9.791390195288644"><ele>327.0</ele><time>2026-04-26T07:08:12Z</time></trkpt><trkpt lat="45.752594442353846" lon="9.791464053146697"><ele>327.0</ele><time>2026-04-26T07:08:13Z</time></trkpt><trkpt lat="45.75263219317233" lon="9.791538518100353"><ele>327.0</ele><time>2026-04-26T07:08:14Z</time></trkpt><trkpt lat="45.752678843670424" lon="9.791612589429048"><ele>327.0</ele><time>2026-04-26T07:08:15Z</time></trkpt><trkpt lat="45.75272762744808" lon="9.791676109406517"><ele>327.0</ele><time>2026-04-26T07:08:16Z</time></trkpt><trkpt lat="45.75277502070899" lon="9.791739421956944"><ele>327.0</ele><time>2026-04-26T07:08:17Z</time></trkpt><trkpt lat="45.752826054018335" lon="9.791804303238504"><ele>327.0</ele><time>2026-04-26T07:08:18Z</time></trkpt><trkpt lat="45.752874485823604" lon="9.791869188869367"><ele>327.0</ele><time>2026-04-26T07:08:19Z</time></trkpt><trkpt lat="45.75292410251504" lon="9.791931409902567"><ele>327.0</ele><time>2026-04-26T07:08:20Z</time></trkpt><trkpt lat="45.75297466897715" lon="9.791991339172037"><ele>327.0</ele><time>2026-04-26T07:08:21Z</time></trkpt><trkpt lat="45.75302500061376" lon="9.792052754615858"><ele>327.0</ele><time>2026-04-26T07:08:22Z</time></trkpt><trkpt lat="45.75307287053848" lon="9.79211392879119"><ele>327.0</ele><time>2026-04-26T07:08:23Z</time></trkpt><trkpt lat="45.7531234824635" lon="9.79218096628723"><ele>327.0</ele><time>2026-04-26T07:08:24Z</time></trkpt><trkpt lat="45.75322143148532" lon="9.792300702551552"><ele>327.0</ele><time>2026-04-26T07:08:26Z</time></trkpt><trkpt lat="45.75327124204291" lon="9.792361186485758"><ele>327.0</ele><time>2026-04-26T07:08:27Z</time></trkpt><trkpt lat="45.75331861092438" lon="9.792426054582961"><ele>327.0</ele><time>2026-04-26T07:08:28Z</time></trkpt><trkpt lat="45.75336616104445" lon="9.7924869476545"><ele>327.0</ele><time>2026-04-26T07:08:29Z</time></trkpt><trkpt lat="45.75341820445893" lon="9.79254905761148"><ele>327.0</ele><time>2026-04-26T07:08:30Z</time></trkpt><trkpt lat="45.753466867450896" lon="9.792611106055128"><ele>327.0</ele><time>2026-04-26T07:08:31Z</time></trkpt><trkpt lat="45.7535158879963" lon="9.792673601482662"><ele>327.0</ele><time>2026-04-26T07:08:32Z</time></trkpt><trkpt lat="45.75356168256012" lon="9.792741449549933"><ele>326.3333333333333</ele><time>2026-04-26T07:08:33Z</time></trkpt><trkpt lat="45.75360708480867" lon="9.792810396583695"><ele>325.6666666666667</ele><time>2026-04-26T07:08:34Z</time></trkpt><trkpt lat="45.75365006226707" lon="9.792879724895919"><ele>325.0</ele><time>2026-04-26T07:08:35Z</time></trkpt><trkpt lat="45.753692446569886" lon="9.792953658143091"><ele>324.33333333333337</ele><time>2026-04-26T07:08:36Z</time></trkpt><trkpt lat="45.75372951137338" lon="9.793030049449092"><ele>323.6666666666667</ele><time>2026-04-26T07:08:37Z</time></trkpt><trkpt lat="45.75376712439347" lon="9.793106592237367"><ele>323.0</ele><time>2026-04-26T07:08:38Z</time></trkpt><trkpt lat="45.75383649539767" lon="9.793259292477838"><ele>323.00000000000006</ele><time>2026-04-26T07:08:40Z</time></trkpt><trkpt lat="45.75388245886292" lon="9.793334353776451"><ele>323.0</ele><time>2026-04-26T07:08:41Z</time></trkpt><trkpt lat="45.75392124802365" lon="9.793409761587423"><ele>323.0</ele><time>2026-04-26T07:08:42Z</time></trkpt><trkpt lat="45.753965694940206" lon="9.793479544355337"><ele>323.0</ele><time>2026-04-26T07:08:43Z</time></trkpt><trkpt lat="45.75401091186473" lon="9.793549461045036"><ele>323.0</ele><time>2026-04-26T07:08:44Z</time></trkpt><trkpt lat="45.75405934429788" lon="9.793620017292007"><ele>323.00000000000006</ele><time>2026-04-26T07:08:45Z</time></trkpt><trkpt lat="45.754102811589476" lon="9.793688277030954"><ele>323.0</ele><time>2026-04-26T07:08:46Z</time></trkpt><trkpt lat="45.75414862757027" lon="9.793758005340226"><ele>323.14285714285717</ele><time>2026-04-26T07:08:47Z</time></trkpt><trkpt lat="45.75419421565071" lon="9.793823756063322"><ele>323.2857142857143</ele><time>2026-04-26T07:08:48Z</time></trkpt><trkpt lat="45.754241590595996" lon="9.793892951421038"><ele>323.42857142857144</ele><time>2026-04-26T07:08:49Z</time></trkpt><trkpt lat="45.75428392047239" lon="9.793960039608285"><ele>323.57142857142856</ele><time>2026-04-26T07:08:50Z</time></trkpt><trkpt lat="45.754326191691014" lon="9.794027566168133"><ele>323.7142857142857</ele><time>2026-04-26T07:08:51Z</time></trkpt><trkpt lat="45.754372324569644" lon="9.794102729716853"><ele>323.8571428571429</ele><time>2026-04-26T07:08:52Z</time></trkpt><trkpt lat="45.75440731219132" lon="9.794181682724231"><ele>324.0</ele><time>2026-04-26T07:08:53Z</time></trkpt><trkpt lat="45.754445286375166" lon="9.794257485294748"><ele>324.14285714285717</ele><time>2026-04-26T07:08:54Z</time></trkpt><trkpt lat="45.75447240906042" lon="9.794340160052855"><ele>324.2857142857143</ele><time>2026-04-26T07:08:55Z</time></trkpt><trkpt lat="45.7545052447071" lon="9.794421719486657"><ele>324.42857142857144</ele><time>2026-04-26T07:08:56Z</time></trkpt><trkpt lat="45.7545356313846" lon="9.794503308662952"><ele>324.57142857142856</ele><time>2026-04-26T07:08:57Z</time></trkpt><trkpt lat="45.754567359640895" lon="9.794584654431288"><ele>324.7142857142857</ele><time>2026-04-26T07:08:58Z</time></trkpt><trkpt lat="45.75460254257612" lon="9.794663704125833"><ele>324.85714285714283</ele><time>2026-04-26T07:08:59Z</time></trkpt><trkpt lat="45.754638170506226" lon="9.79474315574078"><ele>325.0</ele><time>2026-04-26T07:09:00Z</time></trkpt><trkpt lat="45.754715101374295" lon="9.794893827988778"><ele>325.0</ele><time>2026-04-26T07:09:02Z</time></trkpt><trkpt lat="45.754756510829836" lon="9.794966044541315"><ele>325.0</ele><time>2026-04-26T07:09:03Z</time></trkpt><trkpt lat="45.754800352247905" lon="9.795040950325939"><ele>325.0</ele><time>2026-04-26T07:09:04Z</time></trkpt><trkpt lat="45.754836261613136" lon="9.795118787328645"><ele>325.0</ele><time>2026-04-26T07:09:05Z</time></trkpt><trkpt lat="45.754871595767874" lon="9.795197662959225"><ele>325.0</ele><time>2026-04-26T07:09:06Z</time></trkpt><trkpt lat="45.75490679160076" lon="9.795277034320103"><ele>325.0</ele><time>2026-04-26T07:09:07Z</time></trkpt><trkpt lat="45.75494164594777" lon="9.795358403844046"><ele>325.0</ele><time>2026-04-26T07:09:08Z</time></trkpt><trkpt lat="45.75497512066122" lon="9.795436826674418"><ele>325.4285714285714</ele><time>2026-04-26T07:09:09Z</time></trkpt><trkpt lat="45.75500103727405" lon="9.7955209155224"><ele>325.8571428571429</ele><time>2026-04-26T07:09:10Z</time></trkpt><trkpt lat="45.75502509250324" lon="9.795607669911"><ele>326.2857142857143</ele><time>2026-04-26T07:09:11Z</time></trkpt><trkpt lat="45.75505002807984" lon="9.795694593993336"><ele>326.71428571428567</ele><time>2026-04-26T07:09:12Z</time></trkpt><trkpt lat="45.75507687095692" lon="9.795780574090166"><ele>327.1428571428571</ele><time>2026-04-26T07:09:13Z</time></trkpt><trkpt lat="45.7551038080504" lon="9.795867065871825"><ele>327.57142857142856</ele><time>2026-04-26T07:09:14Z</time></trkpt><trkpt lat="45.75513047553872" lon="9.795953384473824"><ele>328.0</ele><time>2026-04-26T07:09:15Z</time></trkpt><trkpt lat="45.755157141228125" lon="9.796038223794334"><ele>328.71428571428567</ele><time>2026-04-26T07:09:16Z</time></trkpt><trkpt lat="45.75518400710772" lon="9.796123925950752"><ele>329.42857142857144</ele><time>2026-04-26T07:09:17Z</time></trkpt><trkpt lat="45.75520853992828" lon="9.796211067245627"><ele>330.1428571428571</ele><time>2026-04-26T07:09:18Z</time></trkpt><trkpt lat="45.75523492162117" lon="9.796295771081446"><ele>330.85714285714283</ele><time>2026-04-26T07:09:19Z</time></trkpt><trkpt lat="45.75526459337213" lon="9.796379050304756"><ele>331.57142857142856</ele><time>2026-04-26T07:09:20Z</time></trkpt><trkpt lat="45.75529283958318" lon="9.796463468492039"><ele>332.2857142857143</ele><time>2026-04-26T07:09:21Z</time></trkpt><trkpt lat="45.75532001146593" lon="9.796549322206134"><ele>333.0</ele><time>2026-04-26T07:09:22Z</time></trkpt><trkpt lat="45.755343658677745" lon="9.796634892883109"><ele>331.6666666666667</ele><time>2026-04-26T07:09:23Z</time></trkpt><trkpt lat="45.755369620174235" lon="9.796720760216898"><ele>330.3333333333333</ele><time>2026-04-26T07:09:24Z</time></trkpt><trkpt lat="45.75539577771301" lon="9.79680604184107"><ele>329.0</ele><time>2026-04-26T07:09:25Z</time></trkpt><trkpt lat="45.755423232884304" lon="9.796892208629219"><ele>327.66666666666663</ele><time>2026-04-26T07:09:26Z</time></trkpt><trkpt lat="45.755474006240014" lon="9.797061237611437"><ele>326.3333333333333</ele><time>2026-04-26T07:09:28Z</time></trkpt><trkpt lat="45.755499064616124" lon="9.79714419776218"><ele>325.0</ele><time>2026-04-26T07:09:29Z</time></trkpt><trkpt lat="45.75552376982284" lon="9.797228677879422"><ele>325.0</ele><time>2026-04-26T07:09:30Z</time></trkpt><trkpt lat="45.75555278219393" lon="9.797312755854398"><ele>325.0</ele><time>2026-04-26T07:09:31Z</time></trkpt><trkpt lat="45.75558099139318" lon="9.797398790530739"><ele>325.0</ele><time>2026-04-26T07:09:32Z</time></trkpt><trkpt lat="45.75560786326626" lon="9.797481228088964"><ele>325.0</ele><time>2026-04-26T07:09:33Z</time></trkpt><trkpt lat="45.75563655069832" lon="9.797564982473396"><ele>325.0</ele><time>2026-04-26T07:09:34Z</time></trkpt><trkpt lat="45.7556655965658" lon="9.797645601016061"><ele>325.0</ele><time>2026-04-26T07:09:35Z</time></trkpt><trkpt lat="45.75571160086266" lon="9.797793217938656"><ele>325.0</ele><time>2026-04-26T07:09:37Z</time></trkpt><trkpt lat="45.75575728973334" lon="9.797927828650348"><ele>324.8333333333333</ele><time>2026-04-26T07:09:39Z</time></trkpt><trkpt lat="45.75580366408069" lon="9.798026312493832"><ele>324.66666666666663</ele><time>2026-04-26T07:09:41Z</time></trkpt><trkpt lat="45.75588793192598" lon="9.798053277478944"><ele>324.5</ele><time>2026-04-26T07:09:43Z</time></trkpt><trkpt lat="45.755998059549285" lon="9.797966351879726"><ele>324.3333333333333</ele><time>2026-04-26T07:09:45Z</time></trkpt><trkpt lat="45.75605476843539" lon="9.79792107279095"><ele>324.1666666666667</ele><time>2026-04-26T07:09:46Z</time></trkpt><trkpt lat="45.75611149770149" lon="9.797873483969976"><ele>324.0</ele><time>2026-04-26T07:09:47Z</time></trkpt><trkpt lat="45.75616699166086" lon="9.797822694702667"><ele>324.0</ele><time>2026-04-26T07:09:48Z</time></trkpt><trkpt lat="45.756272110591595" lon="9.797720363030022"><ele>324.0</ele><time>2026-04-26T07:09:50Z</time></trkpt><trkpt lat="45.756376641316834" lon="9.797633754244794"><ele>324.0</ele><time>2026-04-26T07:09:52Z</time></trkpt><trkpt lat="45.75647916097059" lon="9.797555981696172"><ele>324.0</ele><time>2026-04-26T07:09:54Z</time></trkpt><trkpt lat="45.75658210026802" lon="9.797464670109758"><ele>324.14285714285717</ele><time>2026-04-26T07:09:56Z</time></trkpt><trkpt lat="45.756638360398654" lon="9.797416142805876"><ele>324.2857142857143</ele><time>2026-04-26T07:09:57Z</time></trkpt><trkpt lat="45.75669376112495" lon="9.797368222055319"><ele>324.42857142857144</ele><time>2026-04-26T07:09:58Z</time></trkpt><trkpt lat="45.75675003609961" lon="9.797319053860992"><ele>324.57142857142856</ele><time>2026-04-26T07:09:59Z</time></trkpt><trkpt lat="45.75680406414331" lon="9.797269858915795"><ele>324.7142857142857</ele><time>2026-04-26T07:10:00Z</time></trkpt><trkpt lat="45.75685900077022" lon="9.797221875618774"><ele>324.85714285714283</ele><time>2026-04-26T07:10:01Z</time></trkpt><trkpt lat="45.75691271399623" lon="9.797171152266774"><ele>325.0</ele><time>2026-04-26T07:10:02Z</time></trkpt><trkpt lat="45.75701465892285" lon="9.797075664401795"><ele>325.5</ele><time>2026-04-26T07:10:04Z</time></trkpt><trkpt lat="45.75711939683946" lon="9.796997421341002"><ele>326.0</ele><time>2026-04-26T07:10:06Z</time></trkpt><trkpt lat="45.75721826969204" lon="9.796919180194227"><ele>326.5</ele><time>2026-04-26T07:10:08Z</time></trkpt><trkpt lat="45.757337814805716" lon="9.79686645760513"><ele>327.0</ele><time>2026-04-26T07:10:10Z</time></trkpt><trkpt lat="45.75744225961786" lon="9.796969769392577"><ele>327.0</ele><time>2026-04-26T07:10:12Z</time></trkpt><trkpt lat="45.75748297916199" lon="9.797043008547835"><ele>327.0</ele><time>2026-04-26T07:10:13Z</time></trkpt><trkpt lat="45.75752033825058" lon="9.797118075909852"><ele>327.0</ele><time>2026-04-26T07:10:14Z</time></trkpt><trkpt lat="45.75757643803701" lon="9.797258476619625"><ele>327.0</ele><time>2026-04-26T07:10:16Z</time></trkpt><trkpt lat="45.75763055952589" lon="9.797384935712236"><ele>327.0</ele><time>2026-04-26T07:10:18Z</time></trkpt><trkpt lat="45.75769942695743" lon="9.79751976420153"><ele>327.6</ele><time>2026-04-26T07:10:20Z</time></trkpt><trkpt lat="45.75778313809558" lon="9.797641737259656"><ele>328.20000000000005</ele><time>2026-04-26T07:10:22Z</time></trkpt><trkpt lat="45.757862539986675" lon="9.797735052804617"><ele>328.8</ele><time>2026-04-26T07:10:24Z</time></trkpt><trkpt lat="45.757935960336305" lon="9.797810776582821"><ele>329.4</ele><time>2026-04-26T07:10:26Z</time></trkpt><trkpt lat="45.758022371110506" lon="9.797846818735684"><ele>330.0</ele><time>2026-04-26T07:10:28Z</time></trkpt><trkpt lat="45.758132295588716" lon="9.79783345427635"><ele>330.0</ele><time>2026-04-26T07:10:30Z</time></trkpt><trkpt lat="45.75822750628417" lon="9.79779717746059"><ele>330.0</ele><time>2026-04-26T07:10:32Z</time></trkpt><trkpt lat="45.7583359540498" lon="9.797734554988713"><ele>330.0</ele><time>2026-04-26T07:10:34Z</time></trkpt><trkpt lat="45.75845001927788" lon="9.797793829640181"><ele>330.0</ele><time>2026-04-26T07:10:36Z</time></trkpt><trkpt lat="45.75849094622116" lon="9.797866080909023"><ele>330.0</ele><time>2026-04-26T07:10:37Z</time></trkpt><trkpt lat="45.758527218788515" lon="9.797946482257746"><ele>330.42857142857144</ele><time>2026-04-26T07:10:38Z</time></trkpt><trkpt lat="45.758564038486846" lon="9.79802518745048"><ele>330.8571428571429</ele><time>2026-04-26T07:10:39Z</time></trkpt><trkpt lat="45.75860270288399" lon="9.798102579225342"><ele>331.28571428571433</ele><time>2026-04-26T07:10:40Z</time></trkpt><trkpt lat="45.75864408736792" lon="9.798176700273247"><ele>331.7142857142857</ele><time>2026-04-26T07:10:41Z</time></trkpt><trkpt lat="45.75868630594508" lon="9.798249975879973"><ele>332.1428571428571</ele><time>2026-04-26T07:10:42Z</time></trkpt><trkpt lat="45.75872834104023" lon="9.798321281940456"><ele>332.5714285714286</ele><time>2026-04-26T07:10:43Z</time></trkpt><trkpt lat="45.758772309031265" lon="9.798392842158512"><ele>333.0</ele><time>2026-04-26T07:10:44Z</time></trkpt><trkpt lat="45.75881651735821" lon="9.798463018322204"><ele>332.8333333333333</ele><time>2026-04-26T07:10:45Z</time></trkpt><trkpt lat="45.758857681470126" lon="9.798536007857791"><ele>332.6666666666667</ele><time>2026-04-26T07:10:46Z</time></trkpt><trkpt lat="45.75890129637015" lon="9.79860603776159"><ele>332.5</ele><time>2026-04-26T07:10:47Z</time></trkpt><trkpt lat="45.758942402277526" lon="9.798679379542765"><ele>332.33333333333337</ele><time>2026-04-26T07:10:48Z</time></trkpt><trkpt lat="45.758983713301745" lon="9.798751036992817"><ele>332.1666666666667</ele><time>2026-04-26T07:10:49Z</time></trkpt><trkpt lat="45.75902740871195" lon="9.798822830149428"><ele>332.0</ele><time>2026-04-26T07:10:50Z</time></trkpt><trkpt lat="45.75911043354407" lon="9.798957769093635"><ele>332.0</ele><time>2026-04-26T07:10:52Z</time></trkpt><trkpt lat="45.75918871277188" lon="9.799087728024094"><ele>332.0</ele><time>2026-04-26T07:10:54Z</time></trkpt><trkpt lat="45.759261859401" lon="9.799214529729232"><ele>332.0</ele><time>2026-04-26T07:10:56Z</time></trkpt><trkpt lat="45.75933586899733" lon="9.79933268943882"><ele>332.0</ele><time>2026-04-26T07:10:58Z</time></trkpt><trkpt lat="45.759377784287125" lon="9.799407693088549"><ele>332.0</ele><time>2026-04-26T07:10:59Z</time></trkpt><trkpt lat="45.759418706770376" lon="9.799478282370298"><ele>332.40000000000003</ele><time>2026-04-26T07:11:00Z</time></trkpt><trkpt lat="45.759460453340495" lon="9.799549794616679"><ele>332.8</ele><time>2026-04-26T07:11:01Z</time></trkpt><trkpt lat="45.759537143645495" lon="9.799685966435181"><ele>333.2</ele><time>2026-04-26T07:11:03Z</time></trkpt><trkpt lat="45.75961403891871" lon="9.799814816267851"><ele>333.6</ele><time>2026-04-26T07:11:05Z</time></trkpt><trkpt lat="45.75968595082745" lon="9.799939787408782"><ele>334.0</ele><time>2026-04-26T07:11:07Z</time></trkpt><trkpt lat="45.759758254832775" lon="9.800057332857138"><ele>333.4</ele><time>2026-04-26T07:11:09Z</time></trkpt><trkpt lat="45.75984181893033" lon="9.800197737776658"><ele>332.79999999999995</ele><time>2026-04-26T07:11:11Z</time></trkpt><trkpt lat="45.7598803450504" lon="9.800271127168898"><ele>332.20000000000005</ele><time>2026-04-26T07:11:12Z</time></trkpt><trkpt lat="45.759959381093246" lon="9.80040475521425"><ele>331.6</ele><time>2026-04-26T07:11:14Z</time></trkpt><trkpt lat="45.76003944718025" lon="9.800527941131499"><ele>331.0</ele><time>2026-04-26T07:11:16Z</time></trkpt><trkpt lat="45.76011480595998" lon="9.800656112479512"><ele>331.0</ele><time>2026-04-26T07:11:18Z</time></trkpt><trkpt lat="45.76015506246718" lon="9.800731788412538"><ele>331.0</ele><time>2026-04-26T07:11:19Z</time></trkpt><trkpt lat="45.76019806751068" lon="9.800805815514899"><ele>331.0</ele><time>2026-04-26T07:11:20Z</time></trkpt><trkpt lat="45.760236533123646" lon="9.800880019507622"><ele>331.0</ele><time>2026-04-26T07:11:21Z</time></trkpt><trkpt lat="45.76027935081478" lon="9.800949634470927"><ele>331.0</ele><time>2026-04-26T07:11:22Z</time></trkpt><trkpt lat="45.76032158942504" lon="9.801022921720767"><ele>331.0</ele><time>2026-04-26T07:11:23Z</time></trkpt><trkpt lat="45.76036255884755" lon="9.801092202289071"><ele>331.0</ele><time>2026-04-26T07:11:24Z</time></trkpt><trkpt lat="45.76040510312928" lon="9.80116488420985"><ele>331.0</ele><time>2026-04-26T07:11:25Z</time></trkpt><trkpt lat="45.76044572283608" lon="9.801237512185999"><ele>331.0</ele><time>2026-04-26T07:11:26Z</time></trkpt><trkpt lat="45.760486333512624" lon="9.801307673650209"><ele>331.0</ele><time>2026-04-26T07:11:27Z</time></trkpt><trkpt lat="45.76052837103486" lon="9.801379797528096"><ele>331.0</ele><time>2026-04-26T07:11:28Z</time></trkpt><trkpt lat="45.760572141856585" lon="9.801449097145648"><ele>331.0</ele><time>2026-04-26T07:11:29Z</time></trkpt><trkpt lat="45.76062023613397" lon="9.801520362471969"><ele>331.0</ele><time>2026-04-26T07:11:30Z</time></trkpt><trkpt lat="45.760698259630345" lon="9.801664934782256"><ele>331.0</ele><time>2026-04-26T07:11:32Z</time></trkpt><trkpt lat="45.76074192165516" lon="9.801734468269167"><ele>331.0</ele><time>2026-04-26T07:11:33Z</time></trkpt><trkpt lat="45.76078271526942" lon="9.8018035750095"><ele>331.0</ele><time>2026-04-26T07:11:33.999Z</time></trkpt><trkpt lat="45.760824798424835" lon="9.801874065867171"><ele>331.0</ele><time>2026-04-26T07:11:34.999Z</time></trkpt><trkpt lat="45.760867072605556" lon="9.80194447415194"><ele>331.0</ele><time>2026-04-26T07:11:35.999Z</time></trkpt><trkpt lat="45.76090684614641" lon="9.802015243796797"><ele>331.0</ele><time>2026-04-26T07:11:36.999Z</time></trkpt><trkpt lat="45.76095038546171" lon="9.802083668665265"><ele>331.0</ele><time>2026-04-26T07:11:37.999Z</time></trkpt><trkpt lat="45.76099048977524" lon="9.802153639323752"><ele>331.0</ele><time>2026-04-26T07:11:38.999Z</time></trkpt><trkpt lat="45.76103066363752" lon="9.802224390643744"><ele>331.2857142857143</ele><time>2026-04-26T07:11:39.999Z</time></trkpt><trkpt lat="45.76107383090356" lon="9.80229238748964"><ele>331.57142857142856</ele><time>2026-04-26T07:11:40.999Z</time></trkpt><trkpt lat="45.76111501971045" lon="9.80236176993626"><ele>331.8571428571429</ele><time>2026-04-26T07:11:41.999Z</time></trkpt><trkpt lat="45.76115650577759" lon="9.80243357325923"><ele>332.1428571428571</ele><time>2026-04-26T07:11:42.999Z</time></trkpt><trkpt lat="45.761198679994976" lon="9.802505701444222"><ele>332.4285714285714</ele><time>2026-04-26T07:11:43.999Z</time></trkpt><trkpt lat="45.76123982929625" lon="9.802577567047798"><ele>332.7142857142857</ele><time>2026-04-26T07:11:44.999Z</time></trkpt><trkpt lat="45.76128061348852" lon="9.802651602810661"><ele>333.0</ele><time>2026-04-26T07:11:45.999Z</time></trkpt><trkpt lat="45.761323125941566" lon="9.802720687533084"><ele>333.0</ele><time>2026-04-26T07:11:46.999Z</time></trkpt><trkpt lat="45.76136241456506" lon="9.80279340179337"><ele>333.0</ele><time>2026-04-26T07:11:47.999Z</time></trkpt><trkpt lat="45.76140656017224" lon="9.802862678617242"><ele>333.0</ele><time>2026-04-26T07:11:48.999Z</time></trkpt><trkpt lat="45.761448208943825" lon="9.802932285416253"><ele>333.0</ele><time>2026-04-26T07:11:49.999Z</time></trkpt><trkpt lat="45.76148797403399" lon="9.803006027438485"><ele>333.0</ele><time>2026-04-26T07:11:50.999Z</time></trkpt><trkpt lat="45.761530523540166" lon="9.803079615680584"><ele>333.0</ele><time>2026-04-26T07:11:51.999Z</time></trkpt><trkpt lat="45.76161223990269" lon="9.803216652596678"><ele>333.0</ele><time>2026-04-26T07:11:53.999Z</time></trkpt><trkpt lat="45.761654305274334" lon="9.803292087689846"><ele>333.0</ele><time>2026-04-26T07:11:54.999Z</time></trkpt><trkpt lat="45.76173810280579" lon="9.803433364689102"><ele>333.0</ele><time>2026-04-26T07:11:56.999Z</time></trkpt><trkpt lat="45.76182029203588" lon="9.803572633743071"><ele>333.0</ele><time>2026-04-26T07:11:58.999Z</time></trkpt><trkpt lat="45.76186152865837" lon="9.803641225697586"><ele>333.0</ele><time>2026-04-26T07:11:59.999Z</time></trkpt><trkpt lat="45.7619042591829" lon="9.803711883575255"><ele>333.8333333333333</ele><time>2026-04-26T07:12:00.999Z</time></trkpt><trkpt lat="45.761942108503796" lon="9.803784212217119"><ele>334.6666666666667</ele><time>2026-04-26T07:12:01.999Z</time></trkpt><trkpt lat="45.76198438068506" lon="9.803858389007468"><ele>335.5</ele><time>2026-04-26T07:12:02.999Z</time></trkpt><trkpt lat="45.76202736938863" lon="9.803928589085825"><ele>336.33333333333337</ele><time>2026-04-26T07:12:03.999Z</time></trkpt><trkpt lat="45.76207090987311" lon="9.803996791718752"><ele>337.1666666666667</ele><time>2026-04-26T07:12:04.999Z</time></trkpt><trkpt lat="45.7621228351584" lon="9.804069444460582"><ele>338.0</ele><time>2026-04-26T07:12:05.999Z</time></trkpt><trkpt lat="45.762199421033294" lon="9.804208219528112"><ele>338.0</ele><time>2026-04-26T07:12:07.999Z</time></trkpt><trkpt lat="45.76224140742941" lon="9.804281213726998"><ele>338.0</ele><time>2026-04-26T07:12:08.999Z</time></trkpt><trkpt lat="45.76231464314031" lon="9.80442168481361"><ele>338.0</ele><time>2026-04-26T07:12:10.999Z</time></trkpt><trkpt lat="45.76236156915755" lon="9.804495163548"><ele>338.0</ele><time>2026-04-26T07:12:11.999Z</time></trkpt><trkpt lat="45.76240076929792" lon="9.804565978046899"><ele>338.0</ele><time>2026-04-26T07:12:12.999Z</time></trkpt><trkpt lat="45.762442137395304" lon="9.804634658044476"><ele>338.0</ele><time>2026-04-26T07:12:13.999Z</time></trkpt><trkpt lat="45.762486180439986" lon="9.804704063222003"><ele>337.83333333333337</ele><time>2026-04-26T07:12:14.999Z</time></trkpt><trkpt lat="45.76252571099841" lon="9.804776230256858"><ele>337.6666666666667</ele><time>2026-04-26T07:12:15.999Z</time></trkpt><trkpt lat="45.762568834399815" lon="9.80484367306438"><ele>337.5</ele><time>2026-04-26T07:12:16.999Z</time></trkpt><trkpt lat="45.762608896313985" lon="9.804915130679294"><ele>337.3333333333333</ele><time>2026-04-26T07:12:17.999Z</time></trkpt><trkpt lat="45.76265119695704" lon="9.804983587946984"><ele>337.16666666666663</ele><time>2026-04-26T07:12:19Z</time></trkpt><trkpt lat="45.762688959352204" lon="9.805057197333726"><ele>337.0</ele><time>2026-04-26T07:12:20Z</time></trkpt><trkpt lat="45.76277657995522" lon="9.805206326785338"><ele>337.00000000000006</ele><time>2026-04-26T07:12:22Z</time></trkpt><trkpt lat="45.762854532959544" lon="9.805341637893928"><ele>337.0</ele><time>2026-04-26T07:12:24Z</time></trkpt><trkpt lat="45.76289793399494" lon="9.805411807655624"><ele>337.0</ele><time>2026-04-26T07:12:25Z</time></trkpt><trkpt lat="45.762942048854924" lon="9.805479599269653"><ele>337.0</ele><time>2026-04-26T07:12:26Z</time></trkpt><trkpt lat="45.76298284913419" lon="9.805550727841023"><ele>337.0</ele><time>2026-04-26T07:12:27Z</time></trkpt><trkpt lat="45.763025504703386" lon="9.805619220540288"><ele>337.00000000000006</ele><time>2026-04-26T07:12:28Z</time></trkpt><trkpt lat="45.76306493601551" lon="9.80569356275602"><ele>337.0</ele><time>2026-04-26T07:12:29Z</time></trkpt><trkpt lat="45.76314606030253" lon="9.805835174203043"><ele>337.0</ele><time>2026-04-26T07:12:31Z</time></trkpt><trkpt lat="45.76323052464809" lon="9.805974887978374"><ele>337.0</ele><time>2026-04-26T07:12:33Z</time></trkpt><trkpt lat="45.76327039184572" lon="9.806046784947359"><ele>337.0</ele><time>2026-04-26T07:12:34Z</time></trkpt><trkpt lat="45.763352330691916" lon="9.80618426907423"><ele>337.0</ele><time>2026-04-26T07:12:36Z</time></trkpt><trkpt lat="45.76339384189983" lon="9.806255269446678"><ele>337.0</ele><time>2026-04-26T07:12:37Z</time></trkpt><trkpt lat="45.76343682917823" lon="9.806323971648727"><ele>337.0</ele><time>2026-04-26T07:12:38Z</time></trkpt><trkpt lat="45.76347497730073" lon="9.806397550300646"><ele>337.8</ele><time>2026-04-26T07:12:39Z</time></trkpt><trkpt lat="45.763556457034454" lon="9.806535516423471"><ele>338.6</ele><time>2026-04-26T07:12:41Z</time></trkpt><trkpt lat="45.763638072878926" lon="9.806674124090847"><ele>339.40000000000003</ele><time>2026-04-26T07:12:43Z</time></trkpt><trkpt lat="45.76372074459704" lon="9.806810072758376"><ele>340.20000000000005</ele><time>2026-04-26T07:12:45Z</time></trkpt><trkpt lat="45.763761592699204" lon="9.806881168779894"><ele>341.0</ele><time>2026-04-26T07:12:46Z</time></trkpt><trkpt lat="45.7638402570389" lon="9.80702129683304"><ele>341.0</ele><time>2026-04-26T07:12:48Z</time></trkpt><trkpt lat="45.76388227065103" lon="9.807092660223654"><ele>341.0</ele><time>2026-04-26T07:12:49Z</time></trkpt><trkpt lat="45.763964559408535" lon="9.807230598864933"><ele>341.0</ele><time>2026-04-26T07:12:51Z</time></trkpt><trkpt lat="45.764048599371186" lon="9.807367217236047"><ele>341.0</ele><time>2026-04-26T07:12:53Z</time></trkpt><trkpt lat="45.76413062965165" lon="9.807501771889484"><ele>341.0</ele><time>2026-04-26T07:12:55Z</time></trkpt><trkpt lat="45.7641746970194" lon="9.807567829628791"><ele>341.0</ele><time>2026-04-26T07:12:56Z</time></trkpt><trkpt lat="45.76422149565828" lon="9.80762947524187"><ele>341.0</ele><time>2026-04-26T07:12:57Z</time></trkpt><trkpt lat="45.76432051272632" lon="9.80774418116229"><ele>341.0</ele><time>2026-04-26T07:12:59Z</time></trkpt><trkpt lat="45.76436949510702" lon="9.807802852120757"><ele>341.0</ele><time>2026-04-26T07:13:00Z</time></trkpt><trkpt lat="45.76441969034762" lon="9.807857510926931"><ele>341.0</ele><time>2026-04-26T07:13:01Z</time></trkpt><trkpt lat="45.76447303746289" lon="9.807908264382428"><ele>341.0</ele><time>2026-04-26T07:13:02Z</time></trkpt><trkpt lat="45.764528244513116" lon="9.807957648323319"><ele>341.0</ele><time>2026-04-26T07:13:03Z</time></trkpt><trkpt lat="45.76464277651979" lon="9.80804228412299"><ele>341.33333333333337</ele><time>2026-04-26T07:13:05Z</time></trkpt><trkpt lat="45.76475189620953" lon="9.808135964709685"><ele>341.6666666666667</ele><time>2026-04-26T07:13:07Z</time></trkpt><trkpt lat="45.764811525360564" lon="9.808173245767128"><ele>342.0</ele><time>2026-04-26T07:13:08Z</time></trkpt><trkpt lat="45.764932196545224" lon="9.808233444265026"><ele>342.3333333333333</ele><time>2026-04-26T07:13:10Z</time></trkpt><trkpt lat="45.764991829553104" lon="9.808263556517545"><ele>342.66666666666663</ele><time>2026-04-26T07:13:11Z</time></trkpt><trkpt lat="45.76505166869121" lon="9.80829304728557"><ele>343.0</ele><time>2026-04-26T07:13:12Z</time></trkpt><trkpt lat="45.76511354494889" lon="9.8083253737757"><ele>342.5</ele><time>2026-04-26T07:13:13Z</time></trkpt><trkpt lat="45.76523282720535" lon="9.808391656052665"><ele>342.0</ele><time>2026-04-26T07:13:15Z</time></trkpt><trkpt lat="45.76529178892684" lon="9.808425946497335"><ele>341.5</ele><time>2026-04-26T07:13:16Z</time></trkpt><trkpt lat="45.765352645789896" lon="9.808452052536653"><ele>341.0</ele><time>2026-04-26T07:13:17Z</time></trkpt><trkpt lat="45.765464152445325" lon="9.808527264867939"><ele>340.5</ele><time>2026-04-26T07:13:19Z</time></trkpt><trkpt lat="45.76553100551853" lon="9.808551541095492"><ele>340.0</ele><time>2026-04-26T07:13:20Z</time></trkpt><trkpt lat="45.76564722125745" lon="9.808622342274894"><ele>340.0</ele><time>2026-04-26T07:13:22Z</time></trkpt><trkpt lat="45.76576328038065" lon="9.8086864100491"><ele>340.0</ele><time>2026-04-26T07:13:24Z</time></trkpt><trkpt lat="45.76582325136729" lon="9.80871668970115"><ele>340.0</ele><time>2026-04-26T07:13:25Z</time></trkpt><trkpt lat="45.765882982372744" lon="9.808751320455308"><ele>340.0</ele><time>2026-04-26T07:13:26Z</time></trkpt><trkpt lat="45.76600389351184" lon="9.808808335528381"><ele>340.0</ele><time>2026-04-26T07:13:28Z</time></trkpt><trkpt lat="45.76606274392217" lon="9.80884208952499"><ele>340.0</ele><time>2026-04-26T07:13:29Z</time></trkpt><trkpt lat="45.76612175749414" lon="9.80887611985573"><ele>341.0</ele><time>2026-04-26T07:13:30Z</time></trkpt><trkpt lat="45.766181421508996" lon="9.80890916959576"><ele>342.0</ele><time>2026-04-26T07:13:31Z</time></trkpt><trkpt lat="45.7662451795233" lon="9.808941178973404"><ele>343.0</ele><time>2026-04-26T07:13:32Z</time></trkpt><trkpt lat="45.76636057445549" lon="9.809006934435255"><ele>344.0</ele><time>2026-04-26T07:13:34Z</time></trkpt><trkpt lat="45.76642347169491" lon="9.80903625843985"><ele>345.0</ele><time>2026-04-26T07:13:35Z</time></trkpt><trkpt lat="45.766482107274214" lon="9.80907037154427"><ele>346.0</ele><time>2026-04-26T07:13:36Z</time></trkpt><trkpt lat="45.76660381828779" lon="9.80913390347555"><ele>346.0</ele><time>2026-04-26T07:13:38Z</time></trkpt><trkpt lat="45.7667194358342" lon="9.809197186470138"><ele>346.0</ele><time>2026-04-26T07:13:40Z</time></trkpt><trkpt lat="45.7667825349471" lon="9.809226645652178"><ele>346.0</ele><time>2026-04-26T07:13:41Z</time></trkpt><trkpt lat="45.76684180666989" lon="9.80926085210718"><ele>346.0</ele><time>2026-04-26T07:13:42Z</time></trkpt><trkpt lat="45.76690241326672" lon="9.809292425561171"><ele>346.0</ele><time>2026-04-26T07:13:43Z</time></trkpt><trkpt lat="45.76696276465866" lon="9.809321125706125"><ele>346.0</ele><time>2026-04-26T07:13:44Z</time></trkpt><trkpt lat="45.76702265180353" lon="9.809355352520868"><ele>346.0</ele><time>2026-04-26T07:13:45Z</time></trkpt><trkpt lat="45.76714778787214" lon="9.809416208671296"><ele>346.0</ele><time>2026-04-26T07:13:47Z</time></trkpt><trkpt lat="45.76726031583124" lon="9.809478496881145"><ele>346.0</ele><time>2026-04-26T07:13:49Z</time></trkpt><trkpt lat="45.76731992983913" lon="9.809513429667867"><ele>346.0</ele><time>2026-04-26T07:13:50Z</time></trkpt><trkpt lat="45.76743949681322" lon="9.80957336499488"><ele>346.0</ele><time>2026-04-26T07:13:52Z</time></trkpt><trkpt lat="45.7674990581374" lon="9.809605585445931"><ele>346.0</ele><time>2026-04-26T07:13:53Z</time></trkpt><trkpt lat="45.76755883302975" lon="9.809635300639098"><ele>346.0</ele><time>2026-04-26T07:13:54Z</time></trkpt><trkpt lat="45.767616871271066" lon="9.809671539023695"><ele>346.0</ele><time>2026-04-26T07:13:55Z</time></trkpt><trkpt lat="45.76767687152176" lon="9.809701381597648"><ele>346.0</ele><time>2026-04-26T07:13:56Z</time></trkpt><trkpt lat="45.76773535783414" lon="9.809736498439047"><ele>346.0</ele><time>2026-04-26T07:13:57Z</time></trkpt><trkpt lat="45.767795843052134" lon="9.809762313631849"><ele>346.0</ele><time>2026-04-26T07:13:58Z</time></trkpt><trkpt lat="45.76785633961606" lon="9.809790333269675"><ele>346.0</ele><time>2026-04-26T07:13:59Z</time></trkpt><trkpt lat="45.76791797309631" lon="9.809817717232383"><ele>346.0</ele><time>2026-04-26T07:14:00Z</time></trkpt><trkpt lat="45.76797688892776" lon="9.809852135336124"><ele>346.0</ele><time>2026-04-26T07:14:01Z</time></trkpt><trkpt lat="45.7680385495501" lon="9.809883575284667"><ele>346.0</ele><time>2026-04-26T07:14:02Z</time></trkpt><trkpt lat="45.76809579807982" lon="9.809922773760235"><ele>346.5</ele><time>2026-04-26T07:14:03Z</time></trkpt><trkpt lat="45.76815756577755" lon="9.80995089130324"><ele>347.0</ele><time>2026-04-26T07:14:04Z</time></trkpt><trkpt lat="45.76821819801036" lon="9.809984544718095"><ele>347.5</ele><time>2026-04-26T07:14:05Z</time></trkpt><trkpt lat="45.76827920643649" lon="9.810015951346395"><ele>348.0</ele><time>2026-04-26T07:14:06Z</time></trkpt><trkpt lat="45.768339608132145" lon="9.810047772913089"><ele>348.5</ele><time>2026-04-26T07:14:07Z</time></trkpt><trkpt lat="45.768453362374274" lon="9.810106848298284"><ele>349.0</ele><time>2026-04-26T07:14:09Z</time></trkpt><trkpt lat="45.76856051449826" lon="9.810161915007786"><ele>349.0</ele><time>2026-04-26T07:14:11Z</time></trkpt><trkpt lat="45.7686718492861" lon="9.810222257213121"><ele>349.0</ele><time>2026-04-26T07:14:13Z</time></trkpt><trkpt lat="45.76878000619628" lon="9.810275245516841"><ele>349.0</ele><time>2026-04-26T07:14:15Z</time></trkpt><trkpt lat="45.7688935341454" lon="9.81033811762017"><ele>349.0</ele><time>2026-04-26T07:14:17Z</time></trkpt><trkpt lat="45.76895462459095" lon="9.810370878633943"><ele>349.0</ele><time>2026-04-26T07:14:18Z</time></trkpt><trkpt lat="45.76901793730884" lon="9.810405014722072"><ele>349.0</ele><time>2026-04-26T07:14:19Z</time></trkpt><trkpt lat="45.76907919533804" lon="9.810441408350924"><ele>349.0</ele><time>2026-04-26T07:14:20Z</time></trkpt><trkpt lat="45.7691430235935" lon="9.810468181308195"><ele>349.0</ele><time>2026-04-26T07:14:21Z</time></trkpt><trkpt lat="45.769206907952906" lon="9.810494683118401"><ele>349.0</ele><time>2026-04-26T07:14:22Z</time></trkpt><trkpt lat="45.76926870000103" lon="9.810515639962286"><ele>349.0</ele><time>2026-04-26T07:14:23Z</time></trkpt><trkpt lat="45.76939081854889" lon="9.810560450237015"><ele>349.0</ele><time>2026-04-26T07:14:25Z</time></trkpt><trkpt lat="45.76949379865665" lon="9.81064811550757"><ele>349.0</ele><time>2026-04-26T07:14:27Z</time></trkpt><trkpt lat="45.76958286184767" lon="9.81074187251042"><ele>349.0</ele><time>2026-04-26T07:14:29Z</time></trkpt><trkpt lat="45.769647547077454" lon="9.810863343376502"><ele>349.0</ele><time>2026-04-26T07:14:31Z</time></trkpt><trkpt lat="45.769720784907996" lon="9.810943015703998"><ele>349.0</ele><time>2026-04-26T07:14:33Z</time></trkpt><trkpt lat="45.769798069667395" lon="9.810893261166509"><ele>349.0</ele><time>2026-04-26T07:14:35Z</time></trkpt><trkpt lat="45.76986212867821" lon="9.810818708574736"><ele>349.0</ele><time>2026-04-26T07:14:37Z</time></trkpt><trkpt lat="45.76998672602009" lon="9.810881890642987"><ele>349.0</ele><time>2026-04-26T07:14:39Z</time></trkpt><trkpt lat="45.77004492916858" lon="9.810956452361951"><ele>349.0</ele><time>2026-04-26T07:14:40Z</time></trkpt><trkpt lat="45.77010499979276" lon="9.811000283790937"><ele>349.0</ele><time>2026-04-26T07:14:41Z</time></trkpt><trkpt lat="45.77016717463189" lon="9.811034001839365"><ele>349.0</ele><time>2026-04-26T07:14:42Z</time></trkpt><trkpt lat="45.77022873616755" lon="9.811067373539387"><ele>349.0</ele><time>2026-04-26T07:14:43Z</time></trkpt><trkpt lat="45.77029154687646" lon="9.811099283893903"><ele>348.99999999999994</ele><time>2026-04-26T07:14:44Z</time></trkpt><trkpt lat="45.77035330207942" lon="9.81113457636865"><ele>349.0</ele><time>2026-04-26T07:14:45Z</time></trkpt><trkpt lat="45.77041458870413" lon="9.8111692846825"><ele>349.0</ele><time>2026-04-26T07:14:46Z</time></trkpt><trkpt lat="45.770475310871355" lon="9.811205822852262"><ele>349.0</ele><time>2026-04-26T07:14:47Z</time></trkpt><trkpt lat="45.77053462724882" lon="9.811246380440588"><ele>349.0</ele><time>2026-04-26T07:14:48Z</time></trkpt><trkpt lat="45.7705942642005" lon="9.811285099535258"><ele>348.99999999999994</ele><time>2026-04-26T07:14:49Z</time></trkpt><trkpt lat="45.77065556605224" lon="9.811324449216636"><ele>349.0</ele><time>2026-04-26T07:14:50Z</time></trkpt><trkpt lat="45.770714226533535" lon="9.811367634763963"><ele>348.99999999999994</ele><time>2026-04-26T07:14:51Z</time></trkpt><trkpt lat="45.7707727079064" lon="9.811411553340928"><ele>349.0</ele><time>2026-04-26T07:14:52Z</time></trkpt><trkpt lat="45.77083175243794" lon="9.811454156032907"><ele>349.0</ele><time>2026-04-26T07:14:53Z</time></trkpt><trkpt lat="45.77089145879051" lon="9.811495769074403"><ele>349.0</ele><time>2026-04-26T07:14:54Z</time></trkpt><trkpt lat="45.77094904509179" lon="9.811540112093912"><ele>349.0</ele><time>2026-04-26T07:14:55Z</time></trkpt><trkpt lat="45.77100803316247" lon="9.811585989098344"><ele>348.99999999999994</ele><time>2026-04-26T07:14:56Z</time></trkpt><trkpt lat="45.77106576313386" lon="9.811631584223743"><ele>349.0</ele><time>2026-04-26T07:14:57Z</time></trkpt><trkpt lat="45.771123185948326" lon="9.811676209675802"><ele>348.99999999999994</ele><time>2026-04-26T07:14:58Z</time></trkpt><trkpt lat="45.771179664636506" lon="9.811723271018035"><ele>349.0</ele><time>2026-04-26T07:14:59Z</time></trkpt><trkpt lat="45.77123716620247" lon="9.811768344252297"><ele>349.0</ele><time>2026-04-26T07:15:00Z</time></trkpt><trkpt lat="45.771293742439724" lon="9.81181522915103"><ele>349.0</ele><time>2026-04-26T07:15:01Z</time></trkpt><trkpt lat="45.77135043893762" lon="9.811864643711262"><ele>349.0</ele><time>2026-04-26T07:15:02Z</time></trkpt><trkpt lat="45.77140716878205" lon="9.811915778847535"><ele>348.99999999999994</ele><time>2026-04-26T07:15:03Z</time></trkpt><trkpt lat="45.77146674201583" lon="9.8119614207859"><ele>349.0</ele><time>2026-04-26T07:15:04Z</time></trkpt><trkpt lat="45.771521009633105" lon="9.812010782918664"><ele>348.99999999999994</ele><time>2026-04-26T07:15:05Z</time></trkpt><trkpt lat="45.77157774984633" lon="9.812058171673248"><ele>349.0</ele><time>2026-04-26T07:15:06Z</time></trkpt><trkpt lat="45.77163563503636" lon="9.812104630610111"><ele>349.0</ele><time>2026-04-26T07:15:07Z</time></trkpt><trkpt lat="45.771692518721316" lon="9.812149844583551"><ele>349.0</ele><time>2026-04-26T07:15:08Z</time></trkpt><trkpt lat="45.771748225320366" lon="9.812200796216645"><ele>349.0</ele><time>2026-04-26T07:15:09Z</time></trkpt><trkpt lat="45.77180419164357" lon="9.812251212959696"><ele>348.99999999999994</ele><time>2026-04-26T07:15:10Z</time></trkpt><trkpt lat="45.77186050012481" lon="9.81230030212468"><ele>349.0</ele><time>2026-04-26T07:15:11Z</time></trkpt><trkpt lat="45.77191526743983" lon="9.812346708324863"><ele>349.3333333333333</ele><time>2026-04-26T07:15:12Z</time></trkpt><trkpt lat="45.77197079735001" lon="9.812396318822802"><ele>349.66666666666663</ele><time>2026-04-26T07:15:13Z</time></trkpt><trkpt lat="45.77202654383648" lon="9.812441950808472"><ele>350.0</ele><time>2026-04-26T07:15:14Z</time></trkpt><trkpt lat="45.77208345138341" lon="9.812493878119707"><ele>350.3333333333333</ele><time>2026-04-26T07:15:15Z</time></trkpt><trkpt lat="45.77213734440109" lon="9.81254275856187"><ele>350.6666666666667</ele><time>2026-04-26T07:15:16Z</time></trkpt><trkpt lat="45.772249700730534" lon="9.812630163148954"><ele>351.0</ele><time>2026-04-26T07:15:18Z</time></trkpt><trkpt lat="45.77230371085721" lon="9.812681456072351"><ele>351.0</ele><time>2026-04-26T07:15:19Z</time></trkpt><trkpt lat="45.77236176248355" lon="9.812728984214571"><ele>351.0</ele><time>2026-04-26T07:15:20Z</time></trkpt><trkpt lat="45.772421036236516" lon="9.812779560961422"><ele>351.0</ele><time>2026-04-26T07:15:21Z</time></trkpt><trkpt lat="45.77253062976838" lon="9.812876306507848"><ele>351.0</ele><time>2026-04-26T07:15:23Z</time></trkpt><trkpt lat="45.77263875106622" lon="9.812969335651236"><ele>351.0</ele><time>2026-04-26T07:15:25Z</time></trkpt><trkpt lat="45.7726969469587" lon="9.813017765404974"><ele>351.28571428571433</ele><time>2026-04-26T07:15:26Z</time></trkpt><trkpt lat="45.772751604479396" lon="9.81306262846731"><ele>351.57142857142856</ele><time>2026-04-26T07:15:27Z</time></trkpt><trkpt lat="45.77280529223057" lon="9.81311107960759"><ele>351.8571428571429</ele><time>2026-04-26T07:15:28Z</time></trkpt><trkpt lat="45.7728620926047" lon="9.813159339002508"><ele>352.14285714285717</ele><time>2026-04-26T07:15:29Z</time></trkpt><trkpt lat="45.77291667985611" lon="9.813211243582396"><ele>352.42857142857144</ele><time>2026-04-26T07:15:30Z</time></trkpt><trkpt lat="45.77297229560566" lon="9.813258295391542"><ele>352.7142857142857</ele><time>2026-04-26T07:15:31Z</time></trkpt><trkpt lat="45.77302971581753" lon="9.81330687790894"><ele>353.0</ele><time>2026-04-26T07:15:32Z</time></trkpt><trkpt lat="45.773137845356935" lon="9.813401816974565"><ele>353.0</ele><time>2026-04-26T07:15:34Z</time></trkpt><trkpt lat="45.77319796978659" lon="9.813450293795713"><ele>353.0</ele><time>2026-04-26T07:15:35Z</time></trkpt><trkpt lat="45.77325228510647" lon="9.813498352774262"><ele>353.0</ele><time>2026-04-26T07:15:36Z</time></trkpt><trkpt lat="45.773366371623815" lon="9.813594655451848"><ele>353.0</ele><time>2026-04-26T07:15:38Z</time></trkpt><trkpt lat="45.77342326127061" lon="9.81363967003388"><ele>353.0</ele><time>2026-04-26T07:15:39Z</time></trkpt><trkpt lat="45.77347981318332" lon="9.813688221257944"><ele>353.0</ele><time>2026-04-26T07:15:40Z</time></trkpt><trkpt lat="45.773536117489286" lon="9.813735054779347"><ele>353.1666666666667</ele><time>2026-04-26T07:15:41Z</time></trkpt><trkpt lat="45.77359358870843" lon="9.81377952191202"><ele>353.33333333333337</ele><time>2026-04-26T07:15:42Z</time></trkpt><trkpt lat="45.77365031974986" lon="9.813827851349101"><ele>353.5</ele><time>2026-04-26T07:15:43Z</time></trkpt><trkpt lat="45.77370757730358" lon="9.813879052843618"><ele>353.6666666666667</ele><time>2026-04-26T07:15:44Z</time></trkpt><trkpt lat="45.77381586805539" lon="9.813969842894014"><ele>353.8333333333333</ele><time>2026-04-26T07:15:46Z</time></trkpt><trkpt lat="45.77387102400948" lon="9.814021240180669"><ele>354.0</ele><time>2026-04-26T07:15:47Z</time></trkpt><trkpt lat="45.773926537079205" lon="9.814066444115513"><ele>354.0</ele><time>2026-04-26T07:15:48Z</time></trkpt><trkpt lat="45.77398080057322" lon="9.814112725973393"><ele>354.0</ele><time>2026-04-26T07:15:49Z</time></trkpt><trkpt lat="45.77409171536026" lon="9.814205091074726"><ele>354.0</ele><time>2026-04-26T07:15:51Z</time></trkpt><trkpt lat="45.774146091805314" lon="9.814257313971808"><ele>354.0</ele><time>2026-04-26T07:15:52Z</time></trkpt><trkpt lat="45.77420157917505" lon="9.814300991300676"><ele>354.0</ele><time>2026-04-26T07:15:53Z</time></trkpt><trkpt lat="45.77425679239331" lon="9.814344413026149"><ele>354.0</ele><time>2026-04-26T07:15:54Z</time></trkpt><trkpt lat="45.774311173725664" lon="9.81439549588231"><ele>354.0</ele><time>2026-04-26T07:15:55Z</time></trkpt><trkpt lat="45.7743672719673" lon="9.814444674697029"><ele>355.2857142857143</ele><time>2026-04-26T07:15:56Z</time></trkpt><trkpt lat="45.77442216163414" lon="9.814492419387042"><ele>356.57142857142856</ele><time>2026-04-26T07:15:57Z</time></trkpt><trkpt lat="45.774477800773454" lon="9.81454155775251"><ele>357.85714285714283</ele><time>2026-04-26T07:15:58Z</time></trkpt><trkpt lat="45.774532040905314" lon="9.814591610090266"><ele>359.1428571428571</ele><time>2026-04-26T07:15:59Z</time></trkpt><trkpt lat="45.77458801692094" lon="9.81463566827589"><ele>360.42857142857144</ele><time>2026-04-26T07:16:00Z</time></trkpt><trkpt lat="45.774644317182435" lon="9.81468116955867"><ele>361.71428571428567</ele><time>2026-04-26T07:16:01Z</time></trkpt><trkpt lat="45.77469877246694" lon="9.814731441975377"><ele>363.0</ele><time>2026-04-26T07:16:02Z</time></trkpt><trkpt lat="45.774755159772155" lon="9.814780854970808"><ele>362.99999999999994</ele><time>2026-04-26T07:16:03Z</time></trkpt><trkpt lat="45.77481227975076" lon="9.814828018932959"><ele>363.0</ele><time>2026-04-26T07:16:04Z</time></trkpt><trkpt lat="45.774872914813635" lon="9.814876334770734"><ele>363.0</ele><time>2026-04-26T07:16:05Z</time></trkpt><trkpt lat="45.774932742992476" lon="9.81492706720993"><ele>363.0</ele><time>2026-04-26T07:16:06Z</time></trkpt><trkpt lat="45.7749926749968" lon="9.814978445609563"><ele>363.0</ele><time>2026-04-26T07:16:07Z</time></trkpt><trkpt lat="45.77505257214678" lon="9.815027597030257"><ele>362.99999999999994</ele><time>2026-04-26T07:16:08Z</time></trkpt><trkpt lat="45.77511253278004" lon="9.81507890007119"><ele>363.0</ele><time>2026-04-26T07:16:09Z</time></trkpt><trkpt lat="45.77517198346203" lon="9.815130431055106"><ele>362.2857142857143</ele><time>2026-04-26T07:16:10Z</time></trkpt><trkpt lat="45.77523036467182" lon="9.815181057277327"><ele>361.57142857142856</ele><time>2026-04-26T07:16:11Z</time></trkpt><trkpt lat="45.77528906370808" lon="9.815231109320075"><ele>360.8571428571429</ele><time>2026-04-26T07:16:12Z</time></trkpt><trkpt lat="45.7753465238062" lon="9.815280945556397"><ele>360.1428571428571</ele><time>2026-04-26T07:16:13Z</time></trkpt><trkpt lat="45.77540152272659" lon="9.81533565027857"><ele>359.42857142857144</ele><time>2026-04-26T07:16:14Z</time></trkpt><trkpt lat="45.77545611824614" lon="9.81538779486296"><ele>358.7142857142857</ele><time>2026-04-26T07:16:15Z</time></trkpt><trkpt lat="45.77550988410217" lon="9.815443984317604"><ele>358.0</ele><time>2026-04-26T07:16:16Z</time></trkpt><trkpt lat="45.775561598706204" lon="9.81550049029383"><ele>358.00000000000006</ele><time>2026-04-26T07:16:17Z</time></trkpt><trkpt lat="45.775614245680934" lon="9.81555849333037"><ele>358.0</ele><time>2026-04-26T07:16:18Z</time></trkpt><trkpt lat="45.77566601337248" lon="9.815619032846083"><ele>358.0</ele><time>2026-04-26T07:16:19Z</time></trkpt><trkpt lat="45.775719504565544" lon="9.81567701264649"><ele>358.0</ele><time>2026-04-26T07:16:20Z</time></trkpt><trkpt lat="45.775768634452255" lon="9.815737664290461"><ele>358.0</ele><time>2026-04-26T07:16:21Z</time></trkpt><trkpt lat="45.77581788869049" lon="9.815802656647406"><ele>358.00000000000006</ele><time>2026-04-26T07:16:22Z</time></trkpt><trkpt lat="45.775867783073956" lon="9.815859613254935"><ele>358.0</ele><time>2026-04-26T07:16:23Z</time></trkpt><trkpt lat="45.775921707406816" lon="9.81592044638807"><ele>358.00000000000006</ele><time>2026-04-26T07:16:24Z</time></trkpt><trkpt lat="45.77596846105241" lon="9.815983764497023"><ele>358.0</ele><time>2026-04-26T07:16:25Z</time></trkpt><trkpt lat="45.77602085116502" lon="9.816042052313398"><ele>358.0</ele><time>2026-04-26T07:16:26Z</time></trkpt><trkpt lat="45.77607356823328" lon="9.816100680765999"><ele>358.0</ele><time>2026-04-26T07:16:27Z</time></trkpt><trkpt lat="45.77612253508998" lon="9.816163585674666"><ele>358.0</ele><time>2026-04-26T07:16:28Z</time></trkpt><trkpt lat="45.77617552792014" lon="9.816223480493086"><ele>358.00000000000006</ele><time>2026-04-26T07:16:29Z</time></trkpt><trkpt lat="45.77622658850272" lon="9.816283226425659"><ele>358.0</ele><time>2026-04-26T07:16:30Z</time></trkpt><trkpt lat="45.77627699478596" lon="9.81634396225179"><ele>358.28571428571433</ele><time>2026-04-26T07:16:31Z</time></trkpt><trkpt lat="45.77632605378966" lon="9.816405099687014"><ele>358.57142857142856</ele><time>2026-04-26T07:16:32Z</time></trkpt><trkpt lat="45.776376147307275" lon="9.81646662489921"><ele>358.8571428571429</ele><time>2026-04-26T07:16:33Z</time></trkpt><trkpt lat="45.77642810506381" lon="9.816526879301268"><ele>359.14285714285717</ele><time>2026-04-26T07:16:34Z</time></trkpt><trkpt lat="45.776477822464024" lon="9.81658777233106"><ele>359.42857142857144</ele><time>2026-04-26T07:16:35Z</time></trkpt><trkpt lat="45.77652703122774" lon="9.81664992503611"><ele>359.7142857142857</ele><time>2026-04-26T07:16:36Z</time></trkpt><trkpt lat="45.77657652601352" lon="9.816711997934908"><ele>360.0</ele><time>2026-04-26T07:16:37Z</time></trkpt><trkpt lat="45.77662749528786" lon="9.81677096759068"><ele>360.4285714285714</ele><time>2026-04-26T07:16:38Z</time></trkpt><trkpt lat="45.776677591695844" lon="9.816833741016817"><ele>360.8571428571429</ele><time>2026-04-26T07:16:39Z</time></trkpt><trkpt lat="45.77672891238592" lon="9.816890742822345"><ele>361.2857142857143</ele><time>2026-04-26T07:16:40Z</time></trkpt><trkpt lat="45.77677785935083" lon="9.816949681209124"><ele>361.71428571428567</ele><time>2026-04-26T07:16:41Z</time></trkpt><trkpt lat="45.776828593275404" lon="9.817008897698418"><ele>362.1428571428571</ele><time>2026-04-26T07:16:42Z</time></trkpt><trkpt lat="45.776879503212925" lon="9.817067738304228"><ele>362.57142857142856</ele><time>2026-04-26T07:16:43Z</time></trkpt><trkpt lat="45.77692890152844" lon="9.817129816360234"><ele>363.0</ele><time>2026-04-26T07:16:44Z</time></trkpt><trkpt lat="45.776978550631675" lon="9.817191560225956"><ele>362.99999999999994</ele><time>2026-04-26T07:16:45Z</time></trkpt><trkpt lat="45.77702775428549" lon="9.81724833395843"><ele>363.0</ele><time>2026-04-26T07:16:46Z</time></trkpt><trkpt lat="45.777080077841134" lon="9.817308718504869"><ele>363.0</ele><time>2026-04-26T07:16:47Z</time></trkpt><trkpt lat="45.77712963489126" lon="9.817364840627368"><ele>363.0</ele><time>2026-04-26T07:16:48Z</time></trkpt><trkpt lat="45.777182346109186" lon="9.817419655557467"><ele>363.0</ele><time>2026-04-26T07:16:49Z</time></trkpt><trkpt lat="45.777234039367656" lon="9.81747335756884"><ele>362.99999999999994</ele><time>2026-04-26T07:16:50Z</time></trkpt><trkpt lat="45.777286418597356" lon="9.817529554142087"><ele>363.0</ele><time>2026-04-26T07:16:51Z</time></trkpt><trkpt lat="45.777339363752624" lon="9.817582503404337"><ele>362.99999999999994</ele><time>2026-04-26T07:16:52Z</time></trkpt><trkpt lat="45.77739463697003" lon="9.817632900497651"><ele>363.0</ele><time>2026-04-26T07:16:53Z</time></trkpt><trkpt lat="45.77744879911116" lon="9.817683319391353"><ele>363.0</ele><time>2026-04-26T07:16:54Z</time></trkpt><trkpt lat="45.77750574258688" lon="9.817727699120002"><ele>363.0</ele><time>2026-04-26T07:16:55Z</time></trkpt><trkpt lat="45.77756401705543" lon="9.8177653437578"><ele>363.0</ele><time>2026-04-26T07:16:56Z</time></trkpt><trkpt lat="45.7776240760713" lon="9.817801234974906"><ele>362.99999999999994</ele><time>2026-04-26T07:16:57Z</time></trkpt><trkpt lat="45.77768492442205" lon="9.817833402090892"><ele>363.0</ele><time>2026-04-26T07:16:58Z</time></trkpt><trkpt lat="45.777745349010466" lon="9.817863839109181"><ele>362.3333333333333</ele><time>2026-04-26T07:16:59Z</time></trkpt><trkpt lat="45.777807429033466" lon="9.817892881515547"><ele>361.6666666666667</ele><time>2026-04-26T07:17:00Z</time></trkpt><trkpt lat="45.777868717486626" lon="9.817919045075651"><ele>361.0</ele><time>2026-04-26T07:17:01Z</time></trkpt><trkpt lat="45.77793095447708" lon="9.817948807422233"><ele>360.33333333333337</ele><time>2026-04-26T07:17:02Z</time></trkpt><trkpt lat="45.778053290499095" lon="9.817997131700523"><ele>359.6666666666667</ele><time>2026-04-26T07:17:04Z</time></trkpt><trkpt lat="45.77811459440291" lon="9.81802128929232"><ele>359.0</ele><time>2026-04-26T07:17:05Z</time></trkpt><trkpt lat="45.778177264295906" lon="9.818043860267608"><ele>359.0</ele><time>2026-04-26T07:17:06Z</time></trkpt><trkpt lat="45.778237736384696" lon="9.818073606014035"><ele>359.0</ele><time>2026-04-26T07:17:07Z</time></trkpt><trkpt lat="45.77835375868677" lon="9.81813810575431"><ele>359.0</ele><time>2026-04-26T07:17:09Z</time></trkpt><trkpt lat="45.778411165792996" lon="9.818179206034207"><ele>359.0</ele><time>2026-04-26T07:17:10Z</time></trkpt><trkpt lat="45.77846760515925" lon="9.818222958247995"><ele>359.0</ele><time>2026-04-26T07:17:11Z</time></trkpt><trkpt lat="45.77852097644455" lon="9.818273412956012"><ele>359.0</ele><time>2026-04-26T07:17:12Z</time></trkpt><trkpt lat="45.77857765344801" lon="9.818323042307547"><ele>359.0</ele><time>2026-04-26T07:17:13Z</time></trkpt><trkpt lat="45.778634500415734" lon="9.818372679407936"><ele>358.1666666666667</ele><time>2026-04-26T07:17:14Z</time></trkpt><trkpt lat="45.778692724385664" lon="9.818423448213771"><ele>357.33333333333337</ele><time>2026-04-26T07:17:15Z</time></trkpt><trkpt lat="45.77874939895524" lon="9.818466616189982"><ele>356.5</ele><time>2026-04-26T07:17:16Z</time></trkpt><trkpt lat="45.778804886561794" lon="9.818512989947843"><ele>355.6666666666667</ele><time>2026-04-26T07:17:17Z</time></trkpt><trkpt lat="45.778911333685485" lon="9.81860751718255"><ele>354.8333333333333</ele><time>2026-04-26T07:17:19Z</time></trkpt><trkpt lat="45.77896357015706" lon="9.818658654716481"><ele>354.0</ele><time>2026-04-26T07:17:20Z</time></trkpt><trkpt lat="45.779021451132785" lon="9.818710014364507"><ele>354.0</ele><time>2026-04-26T07:17:21Z</time></trkpt><trkpt lat="45.77907575824404" lon="9.818764033120765"><ele>354.0</ele><time>2026-04-26T07:17:22Z</time></trkpt><trkpt lat="45.779132765232426" lon="9.818812171530112"><ele>354.0</ele><time>2026-04-26T07:17:23Z</time></trkpt><trkpt lat="45.77918845998582" lon="9.818861648243796"><ele>354.0</ele><time>2026-04-26T07:17:24Z</time></trkpt><trkpt lat="45.77924662490572" lon="9.818912436948334"><ele>354.0</ele><time>2026-04-26T07:17:25Z</time></trkpt><trkpt lat="45.779303296897965" lon="9.818962021705836"><ele>354.0</ele><time>2026-04-26T07:17:26Z</time></trkpt><trkpt lat="45.7793609830129" lon="9.819009048691813"><ele>354.0</ele><time>2026-04-26T07:17:27Z</time></trkpt><trkpt lat="45.7794175225628" lon="9.819058938382227"><ele>354.5714285714286</ele><time>2026-04-26T07:17:28Z</time></trkpt><trkpt lat="45.77947299285177" lon="9.819109734633525"><ele>355.1428571428571</ele><time>2026-04-26T07:17:29Z</time></trkpt><trkpt lat="45.77952824979887" lon="9.819159829213"><ele>355.7142857142857</ele><time>2026-04-26T07:17:30Z</time></trkpt><trkpt lat="45.779583532605514" lon="9.819206999521567"><ele>356.28571428571433</ele><time>2026-04-26T07:17:31Z</time></trkpt><trkpt lat="45.77964063111547" lon="9.819256755072121"><ele>356.8571428571429</ele><time>2026-04-26T07:17:32Z</time></trkpt><trkpt lat="45.779697011980886" lon="9.819301011616929"><ele>357.42857142857144</ele><time>2026-04-26T07:17:33Z</time></trkpt><trkpt lat="45.77975223998379" lon="9.819351948085075"><ele>358.0</ele><time>2026-04-26T07:17:34Z</time></trkpt><trkpt lat="45.779809318636865" lon="9.819397821166918"><ele>358.00000000000006</ele><time>2026-04-26T07:17:35Z</time></trkpt><trkpt lat="45.77986680030975" lon="9.819448683682442"><ele>358.0</ele><time>2026-04-26T07:17:36Z</time></trkpt><trkpt lat="45.779921811251384" lon="9.819499119547904"><ele>358.0</ele><time>2026-04-26T07:17:37Z</time></trkpt><trkpt lat="45.77997863132157" lon="9.819547522311376"><ele>358.0</ele><time>2026-04-26T07:17:38Z</time></trkpt><trkpt lat="45.78003634450234" lon="9.81959868476"><ele>358.0</ele><time>2026-04-26T07:17:39Z</time></trkpt><trkpt lat="45.78009488857496" lon="9.819643818494542"><ele>358.00000000000006</ele><time>2026-04-26T07:17:40Z</time></trkpt><trkpt lat="45.780152837176246" lon="9.819692392635957"><ele>358.0</ele><time>2026-04-26T07:17:41Z</time></trkpt><trkpt lat="45.780210712613574" lon="9.81974002101778"><ele>359.00000000000006</ele><time>2026-04-26T07:17:42Z</time></trkpt><trkpt lat="45.78026790696261" lon="9.81978620358043"><ele>360.0</ele><time>2026-04-26T07:17:43Z</time></trkpt><trkpt lat="45.78032823886825" lon="9.819830249344303"><ele>361.0</ele><time>2026-04-26T07:17:44Z</time></trkpt><trkpt lat="45.78038719717753" lon="9.81987139666178"><ele>362.0</ele><time>2026-04-26T07:17:45Z</time></trkpt><trkpt lat="45.78044563507777" lon="9.819917207889356"><ele>363.0</ele><time>2026-04-26T07:17:46Z</time></trkpt><trkpt lat="45.780503900162614" lon="9.819956947378165"><ele>364.00000000000006</ele><time>2026-04-26T07:17:47Z</time></trkpt><trkpt lat="45.78056209715759" lon="9.820002798171103"><ele>365.0</ele><time>2026-04-26T07:17:48Z</time></trkpt><trkpt lat="45.78062102566174" lon="9.820042746604196"><ele>365.00000000000006</ele><time>2026-04-26T07:17:49Z</time></trkpt><trkpt lat="45.780678202960196" lon="9.820084513165932"><ele>365.0</ele><time>2026-04-26T07:17:50Z</time></trkpt><trkpt lat="45.78073467340967" lon="9.820126253553886"><ele>365.0</ele><time>2026-04-26T07:17:51Z</time></trkpt><trkpt lat="45.78079306551888" lon="9.820172814742115"><ele>365.0</ele><time>2026-04-26T07:17:52Z</time></trkpt><trkpt lat="45.780849253245606" lon="9.820215819089457"><ele>365.0</ele><time>2026-04-26T07:17:53Z</time></trkpt><trkpt lat="45.780903486398245" lon="9.820271347354668"><ele>365.00000000000006</ele><time>2026-04-26T07:17:54Z</time></trkpt><trkpt lat="45.780956706642236" lon="9.820320042065227"><ele>365.0</ele><time>2026-04-26T07:17:55Z</time></trkpt><trkpt lat="45.78101518791131" lon="9.820368755293885"><ele>364.14285714285717</ele><time>2026-04-26T07:17:56Z</time></trkpt><trkpt lat="45.78106788901491" lon="9.820421356493418"><ele>363.2857142857143</ele><time>2026-04-26T07:17:57Z</time></trkpt><trkpt lat="45.78112255689661" lon="9.820473528072638"><ele>362.42857142857144</ele><time>2026-04-26T07:17:58Z</time></trkpt><trkpt lat="45.78118016102083" lon="9.820518237134875"><ele>361.57142857142856</ele><time>2026-04-26T07:17:59Z</time></trkpt><trkpt lat="45.78123723381707" lon="9.820569675729866"><ele>360.7142857142857</ele><time>2026-04-26T07:18:00Z</time></trkpt><trkpt lat="45.78129817641496" lon="9.820619533539139"><ele>359.8571428571429</ele><time>2026-04-26T07:18:01Z</time></trkpt><trkpt lat="45.7813557702087" lon="9.82066988370496"><ele>359.0</ele><time>2026-04-26T07:18:02Z</time></trkpt><trkpt lat="45.78141828008084" lon="9.820722760877782"><ele>359.0</ele><time>2026-04-26T07:18:03Z</time></trkpt><trkpt lat="45.78148431770991" lon="9.820778715934395"><ele>359.0</ele><time>2026-04-26T07:18:04Z</time></trkpt><trkpt lat="45.781550115283316" lon="9.82083838622618"><ele>359.0</ele><time>2026-04-26T07:18:05Z</time></trkpt><trkpt lat="45.781613853577696" lon="9.820895446673202"><ele>359.0</ele><time>2026-04-26T07:18:06Z</time></trkpt><trkpt lat="45.78168174308139" lon="9.820943662913404"><ele>359.0</ele><time>2026-04-26T07:18:07Z</time></trkpt><trkpt lat="45.7817419936448" lon="9.820989339267609"><ele>359.0</ele><time>2026-04-26T07:18:08Z</time></trkpt><trkpt lat="45.781801976444136" lon="9.821032769312836"><ele>359.0</ele><time>2026-04-26T07:18:09Z</time></trkpt><trkpt lat="45.78186388506835" lon="9.82107976095913"><ele>358.33333333333337</ele><time>2026-04-26T07:18:10Z</time></trkpt><trkpt lat="45.781923908312024" lon="9.821128520561658"><ele>357.6666666666667</ele><time>2026-04-26T07:18:11Z</time></trkpt><trkpt lat="45.78198011513588" lon="9.821179753643905"><ele>357.0</ele><time>2026-04-26T07:18:12Z</time></trkpt><trkpt lat="45.782049848534506" lon="9.821213126410706"><ele>356.3333333333333</ele><time>2026-04-26T07:18:14Z</time></trkpt><trkpt lat="45.782167334030675" lon="9.821192668953987"><ele>355.66666666666663</ele><time>2026-04-26T07:18:15Z</time></trkpt><trkpt lat="45.78223794387388" lon="9.821209167665184"><ele>355.0</ele><time>2026-04-26T07:18:16Z</time></trkpt><trkpt lat="45.782301058027414" lon="9.821217065860852"><ele>355.0</ele><time>2026-04-26T07:18:17Z</time></trkpt><trkpt lat="45.78237002153353" lon="9.82122785589253"><ele>355.0</ele><time>2026-04-26T07:18:18Z</time></trkpt><trkpt lat="45.7824880758571" lon="9.821220441728558"><ele>355.0</ele><time>2026-04-26T07:18:20Z</time></trkpt><trkpt lat="45.78255145707482" lon="9.821215987079096"><ele>355.0</ele><time>2026-04-26T07:18:21Z</time></trkpt><trkpt lat="45.7826758134269" lon="9.821202401846904"><ele>355.0</ele><time>2026-04-26T07:18:23Z</time></trkpt><trkpt lat="45.782741946911386" lon="9.821199970617785"><ele>355.0</ele><time>2026-04-26T07:18:24Z</time></trkpt><trkpt lat="45.782870389925364" lon="9.821183325174168"><ele>355.8</ele><time>2026-04-26T07:18:26Z</time></trkpt><trkpt lat="45.782935072625875" lon="9.8211767771693"><ele>356.6</ele><time>2026-04-26T07:18:27Z</time></trkpt><trkpt lat="45.78300326222506" lon="9.821171517443306"><ele>357.4</ele><time>2026-04-26T07:18:28Z</time></trkpt><trkpt lat="45.78313485276803" lon="9.821171751515598"><ele>358.2</ele><time>2026-04-26T07:18:30Z</time></trkpt><trkpt lat="45.78326136058889" lon="9.82117399725729"><ele>359.0</ele><time>2026-04-26T07:18:32Z</time></trkpt><trkpt lat="45.78332776234556" lon="9.821181256137182"><ele>359.0</ele><time>2026-04-26T07:18:33Z</time></trkpt><trkpt lat="45.78345538334572" lon="9.821197707040149"><ele>359.0</ele><time>2026-04-26T07:18:35Z</time></trkpt><trkpt lat="45.78358390463594" lon="9.821209275760568"><ele>359.0</ele><time>2026-04-26T07:18:37Z</time></trkpt><trkpt lat="45.78371093982012" lon="9.821222415677417"><ele>359.0</ele><time>2026-04-26T07:18:39Z</time></trkpt><trkpt lat="45.78383773548995" lon="9.82124811004017"><ele>359.1666666666667</ele><time>2026-04-26T07:18:41Z</time></trkpt><trkpt lat="45.78396120556097" lon="9.82129725312493"><ele>359.33333333333337</ele><time>2026-04-26T07:18:43Z</time></trkpt><trkpt lat="45.78402325075664" lon="9.821320387770603"><ele>359.5</ele><time>2026-04-26T07:18:44Z</time></trkpt><trkpt lat="45.78408566249837" lon="9.821342236337049"><ele>359.6666666666667</ele><time>2026-04-26T07:18:45Z</time></trkpt><trkpt lat="45.784147843966274" lon="9.82136719250012"><ele>359.8333333333333</ele><time>2026-04-26T07:18:46Z</time></trkpt><trkpt lat="45.784273123695094" lon="9.821407052242073"><ele>360.0</ele><time>2026-04-26T07:18:48Z</time></trkpt><trkpt lat="45.784336090389644" lon="9.82142681945238"><ele>360.6666666666667</ele><time>2026-04-26T07:18:49Z</time></trkpt><trkpt lat="45.78439809399094" lon="9.821452936956359"><ele>361.3333333333333</ele><time>2026-04-26T07:18:50Z</time></trkpt><trkpt lat="45.78446048569845" lon="9.821476655457172"><ele>362.0</ele><time>2026-04-26T07:18:51Z</time></trkpt><trkpt lat="45.78452368178087" lon="9.821499150888139"><ele>362.66666666666663</ele><time>2026-04-26T07:18:52Z</time></trkpt><trkpt lat="45.784647466995864" lon="9.82154440917239"><ele>363.3333333333333</ele><time>2026-04-26T07:18:54Z</time></trkpt><trkpt lat="45.78476918164888" lon="9.821591429989093"><ele>364.0</ele><time>2026-04-26T07:18:56Z</time></trkpt><trkpt lat="45.784832726042424" lon="9.821616205994868"><ele>364.0</ele><time>2026-04-26T07:18:57Z</time></trkpt><trkpt lat="45.784895824544975" lon="9.821636739725449"><ele>364.0</ele><time>2026-04-26T07:18:58Z</time></trkpt><trkpt lat="45.784959188972735" lon="9.821660867786196"><ele>364.0</ele><time>2026-04-26T07:18:59Z</time></trkpt><trkpt lat="45.785024620605796" lon="9.82167805905707"><ele>364.0</ele><time>2026-04-26T07:19:00Z</time></trkpt><trkpt lat="45.78508687906314" lon="9.821700882027773"><ele>364.0</ele><time>2026-04-26T07:19:01Z</time></trkpt><trkpt lat="45.7851497654868" lon="9.821720372055486"><ele>364.0</ele><time>2026-04-26T07:19:02Z</time></trkpt><trkpt lat="45.785214284559764" lon="9.821740172346708"><ele>364.0</ele><time>2026-04-26T07:19:03Z</time></trkpt><trkpt lat="45.78527690642995" lon="9.82176433447663"><ele>363.57142857142856</ele><time>2026-04-26T07:19:04Z</time></trkpt><trkpt lat="45.78533977356683" lon="9.821784040551677"><ele>363.1428571428571</ele><time>2026-04-26T07:19:05Z</time></trkpt><trkpt lat="45.78540413016536" lon="9.82179940608034"><ele>362.7142857142857</ele><time>2026-04-26T07:19:06Z</time></trkpt><trkpt lat="45.78547142149734" lon="9.821823008451391"><ele>362.2857142857143</ele><time>2026-04-26T07:19:07Z</time></trkpt><trkpt lat="45.785532057229744" lon="9.821850367873354"><ele>361.85714285714283</ele><time>2026-04-26T07:19:08Z</time></trkpt><trkpt lat="45.785595433459555" lon="9.821881007525858"><ele>361.42857142857144</ele><time>2026-04-26T07:19:09Z</time></trkpt><trkpt lat="45.785660389393826" lon="9.821909656447145"><ele>361.0</ele><time>2026-04-26T07:19:10Z</time></trkpt><trkpt lat="45.78572057940356" lon="9.821941203050494"><ele>361.0</ele><time>2026-04-26T07:19:11Z</time></trkpt><trkpt lat="45.785785144930344" lon="9.821974991747181"><ele>361.0</ele><time>2026-04-26T07:19:12Z</time></trkpt><trkpt lat="45.78590484500936" lon="9.822050807829804"><ele>361.0</ele><time>2026-04-26T07:19:14Z</time></trkpt><trkpt lat="45.78596589164834" lon="9.822082741315212"><ele>361.0</ele><time>2026-04-26T07:19:15Z</time></trkpt><trkpt lat="45.78602691605923" lon="9.82211950203249"><ele>361.0</ele><time>2026-04-26T07:19:16Z</time></trkpt><trkpt lat="45.7860872833649" lon="9.822159443493138"><ele>361.0</ele><time>2026-04-26T07:19:17Z</time></trkpt><trkpt lat="45.78614672230179" lon="9.82219474591777"><ele>362.0</ele><time>2026-04-26T07:19:18Z</time></trkpt><trkpt lat="45.78621130185875" lon="9.822223828461514"><ele>363.0</ele><time>2026-04-26T07:19:19Z</time></trkpt><trkpt lat="45.786270865403516" lon="9.822258101266042"><ele>364.0</ele><time>2026-04-26T07:19:20Z</time></trkpt><trkpt lat="45.7863875904678" lon="9.822335732015745"><ele>365.0</ele><time>2026-04-26T07:19:22Z</time></trkpt><trkpt lat="45.78644722350903" lon="9.822378570919653"><ele>366.0</ele><time>2026-04-26T07:19:23Z</time></trkpt><trkpt lat="45.78650667476046" lon="9.822419014643854"><ele>367.0</ele><time>2026-04-26T07:19:24Z</time></trkpt><trkpt lat="45.786566075075136" lon="9.822458397197426"><ele>367.0</ele><time>2026-04-26T07:19:25Z</time></trkpt><trkpt lat="45.786625972580154" lon="9.822499018905795"><ele>367.0</ele><time>2026-04-26T07:19:26Z</time></trkpt><trkpt lat="45.78668493081295" lon="9.822538115698215"><ele>367.0</ele><time>2026-04-26T07:19:27Z</time></trkpt><trkpt lat="45.786742835689964" lon="9.822580073576809"><ele>367.0</ele><time>2026-04-26T07:19:28Z</time></trkpt><trkpt lat="45.78680107037424" lon="9.822625545710983"><ele>367.0</ele><time>2026-04-26T07:19:29Z</time></trkpt><trkpt lat="45.7868579841234" lon="9.822672235100681"><ele>367.0</ele><time>2026-04-26T07:19:30Z</time></trkpt><trkpt lat="45.78691543884012" lon="9.82271796469273"><ele>367.0</ele><time>2026-04-26T07:19:31Z</time></trkpt><trkpt lat="45.78697085483783" lon="9.822769908166128"><ele>366.4285714285714</ele><time>2026-04-26T07:19:32Z</time></trkpt><trkpt lat="45.78702567083117" lon="9.82282264059004"><ele>365.8571428571429</ele><time>2026-04-26T07:19:33Z</time></trkpt><trkpt lat="45.78708038237428" lon="9.822877377017548"><ele>365.2857142857143</ele><time>2026-04-26T07:19:34Z</time></trkpt><trkpt lat="45.78713370869428" lon="9.8229324855794"><ele>364.71428571428567</ele><time>2026-04-26T07:19:35Z</time></trkpt><trkpt lat="45.78718742462862" lon="9.822989331837949"><ele>364.1428571428571</ele><time>2026-04-26T07:19:36Z</time></trkpt><trkpt lat="45.78723996051452" lon="9.823048668838705"><ele>363.57142857142856</ele><time>2026-04-26T07:19:37Z</time></trkpt><trkpt lat="45.78729068275286" lon="9.823111221902325"><ele>363.0</ele><time>2026-04-26T07:19:38Z</time></trkpt><trkpt lat="45.78734027355319" lon="9.823176044196597"><ele>362.99999999999994</ele><time>2026-04-26T07:19:39Z</time></trkpt><trkpt lat="45.78738908753269" lon="9.823240069061042"><ele>363.0</ele><time>2026-04-26T07:19:40Z</time></trkpt><trkpt lat="45.7874372017046" lon="9.823305079229508"><ele>363.0</ele><time>2026-04-26T07:19:41Z</time></trkpt><trkpt lat="45.787483989204524" lon="9.823372318319688"><ele>363.0</ele><time>2026-04-26T07:19:42Z</time></trkpt><trkpt lat="45.78753067131296" lon="9.823442270028288"><ele>363.0</ele><time>2026-04-26T07:19:43Z</time></trkpt><trkpt lat="45.78757552947569" lon="9.82351237823728"><ele>362.99999999999994</ele><time>2026-04-26T07:19:44Z</time></trkpt><trkpt lat="45.78761941072784" lon="9.823584786282433"><ele>363.0</ele><time>2026-04-26T07:19:45Z</time></trkpt><trkpt lat="45.78766143894437" lon="9.82365781985654"><ele>363.2857142857143</ele><time>2026-04-26T07:19:46Z</time></trkpt><trkpt lat="45.78770260074038" lon="9.823737946927858"><ele>363.57142857142856</ele><time>2026-04-26T07:19:47Z</time></trkpt><trkpt lat="45.787744238066665" lon="9.82381311497979"><ele>363.8571428571429</ele><time>2026-04-26T07:19:48Z</time></trkpt><trkpt lat="45.7877858012337" lon="9.823887681152643"><ele>364.1428571428571</ele><time>2026-04-26T07:19:49Z</time></trkpt><trkpt lat="45.78782957797518" lon="9.823961732467703"><ele>364.42857142857144</ele><time>2026-04-26T07:19:50Z</time></trkpt><trkpt lat="45.78787019934982" lon="9.824040456350101"><ele>364.7142857142857</ele><time>2026-04-26T07:19:51Z</time></trkpt><trkpt lat="45.78791063037924" lon="9.824116283319091"><ele>365.0</ele><time>2026-04-26T07:19:52Z</time></trkpt><trkpt lat="45.78795251774416" lon="9.82419372138514"><ele>365.00000000000006</ele><time>2026-04-26T07:19:53Z</time></trkpt><trkpt lat="45.78799328533439" lon="9.82426839748224"><ele>365.0</ele><time>2026-04-26T07:19:54Z</time></trkpt><trkpt lat="45.78803271976044" lon="9.82434306999084"><ele>365.0</ele><time>2026-04-26T07:19:55Z</time></trkpt><trkpt lat="45.788071550875195" lon="9.824418489710364"><ele>365.0</ele><time>2026-04-26T07:19:56Z</time></trkpt><trkpt lat="45.78811182793885" lon="9.824491847929576"><ele>365.0</ele><time>2026-04-26T07:19:57Z</time></trkpt><trkpt lat="45.788153470330904" lon="9.824567654151222"><ele>365.00000000000006</ele><time>2026-04-26T07:19:58Z</time></trkpt><trkpt lat="45.78819194454625" lon="9.824640887655612"><ele>365.0</ele><time>2026-04-26T07:19:59Z</time></trkpt><trkpt lat="45.788230978223744" lon="9.824720300165398"><ele>364.6666666666667</ele><time>2026-04-26T07:20:00Z</time></trkpt><trkpt lat="45.788272251521086" lon="9.824794687438681"><ele>364.33333333333337</ele><time>2026-04-26T07:20:01Z</time></trkpt><trkpt lat="45.78831201088233" lon="9.82486899423769"><ele>364.0</ele><time>2026-04-26T07:20:02Z</time></trkpt><trkpt lat="45.78835054067127" lon="9.82494260652662"><ele>363.6666666666667</ele><time>2026-04-26T07:20:03Z</time></trkpt><trkpt lat="45.7883926804139" lon="9.82501802970043"><ele>363.3333333333333</ele><time>2026-04-26T07:20:04Z</time></trkpt><trkpt lat="45.78847170509893" lon="9.8251626001582"><ele>363.0</ele><time>2026-04-26T07:20:06Z</time></trkpt><trkpt lat="45.78850926293619" lon="9.825240441849697"><ele>363.2857142857143</ele><time>2026-04-26T07:20:07Z</time></trkpt><trkpt lat="45.78854773762448" lon="9.825315883746235"><ele>363.57142857142856</ele><time>2026-04-26T07:20:08Z</time></trkpt><trkpt lat="45.78858731524907" lon="9.825387076708472"><ele>363.8571428571429</ele><time>2026-04-26T07:20:09Z</time></trkpt><trkpt lat="45.788626046536244" lon="9.825463796256779"><ele>364.1428571428571</ele><time>2026-04-26T07:20:10Z</time></trkpt><trkpt lat="45.78866600718034" lon="9.82553777765606"><ele>364.42857142857144</ele><time>2026-04-26T07:20:11Z</time></trkpt><trkpt lat="45.788706562544824" lon="9.825613517287742"><ele>364.7142857142857</ele><time>2026-04-26T07:20:12Z</time></trkpt><trkpt lat="45.78874636574459" lon="9.825686997046938"><ele>365.0</ele><time>2026-04-26T07:20:13Z</time></trkpt><trkpt lat="45.78878403193647" lon="9.825762813460928"><ele>365.0</ele><time>2026-04-26T07:20:14Z</time></trkpt><trkpt lat="45.78882564737214" lon="9.82583771531071"><ele>365.0</ele><time>2026-04-26T07:20:15Z</time></trkpt><trkpt lat="45.78890258286639" lon="9.825983126088502"><ele>365.0</ele><time>2026-04-26T07:20:17Z</time></trkpt><trkpt lat="45.7889443042835" lon="9.826052587387364"><ele>365.0</ele><time>2026-04-26T07:20:18Z</time></trkpt><trkpt lat="45.78898723472179" lon="9.826124525322383"><ele>365.0</ele><time>2026-04-26T07:20:19Z</time></trkpt><trkpt lat="45.78902122430371" lon="9.826202244613167"><ele>365.0</ele><time>2026-04-26T07:20:20Z</time></trkpt><trkpt lat="45.789063076102295" lon="9.826274088647295"><ele>365.33333333333337</ele><time>2026-04-26T07:20:21Z</time></trkpt><trkpt lat="45.789102913253" lon="9.826348327392255"><ele>365.6666666666667</ele><time>2026-04-26T07:20:22Z</time></trkpt><trkpt lat="45.78914145636312" lon="9.826423459818251"><ele>366.0</ele><time>2026-04-26T07:20:23Z</time></trkpt><trkpt lat="45.78921799205195" lon="9.82656963266203"><ele>366.3333333333333</ele><time>2026-04-26T07:20:25Z</time></trkpt><trkpt lat="45.789256058950656" lon="9.826644645407383"><ele>366.66666666666663</ele><time>2026-04-26T07:20:26Z</time></trkpt><trkpt lat="45.789295279760154" lon="9.826716784537595"><ele>367.0</ele><time>2026-04-26T07:20:27Z</time></trkpt><trkpt lat="45.78933294009887" lon="9.826791245610847"><ele>366.75</ele><time>2026-04-26T07:20:28Z</time></trkpt><trkpt lat="45.78940984899042" lon="9.826933852812191"><ele>366.5</ele><time>2026-04-26T07:20:30Z</time></trkpt><trkpt lat="45.78948448404519" lon="9.827080855914383"><ele>366.25</ele><time>2026-04-26T07:20:32Z</time></trkpt><trkpt lat="45.78956052963704" lon="9.827224983551131"><ele>366.0</ele><time>2026-04-26T07:20:34Z</time></trkpt><trkpt lat="45.789631901835946" lon="9.82736904682528"><ele>366.0</ele><time>2026-04-26T07:20:36Z</time></trkpt><trkpt lat="45.78966843288185" lon="9.827442802021768"><ele>366.0</ele><time>2026-04-26T07:20:37Z</time></trkpt><trkpt lat="45.7897418957244" lon="9.827586057576683"><ele>366.0</ele><time>2026-04-26T07:20:39Z</time></trkpt><trkpt lat="45.7898163854207" lon="9.827731909552298"><ele>366.0</ele><time>2026-04-26T07:20:41Z</time></trkpt><trkpt lat="45.78988966006314" lon="9.82787824443755"><ele>366.0</ele><time>2026-04-26T07:20:43Z</time></trkpt><trkpt lat="45.789963476184795" lon="9.828025272718095"><ele>366.0</ele><time>2026-04-26T07:20:45Z</time></trkpt><trkpt lat="45.790036892308215" lon="9.828167429346607"><ele>366.0</ele><time>2026-04-26T07:20:47Z</time></trkpt><trkpt lat="45.7901128857521" lon="9.828314302992968"><ele>366.0</ele><time>2026-04-26T07:20:49Z</time></trkpt><trkpt lat="45.790146077577916" lon="9.828393932024927"><ele>366.0</ele><time>2026-04-26T07:20:50Z</time></trkpt><trkpt lat="45.79022219110021" lon="9.828542679579758"><ele>366.0</ele><time>2026-04-26T07:20:52Z</time></trkpt><trkpt lat="45.79029352105356" lon="9.828695345652845"><ele>366.20000000000005</ele><time>2026-04-26T07:20:54Z</time></trkpt><trkpt lat="45.790365569362635" lon="9.828845964395901"><ele>366.40000000000003</ele><time>2026-04-26T07:20:56Z</time></trkpt><trkpt lat="45.790437497134675" lon="9.82899598099689"><ele>366.6</ele><time>2026-04-26T07:20:58Z</time></trkpt><trkpt lat="45.790474489635585" lon="9.82907384691455"><ele>366.8</ele><time>2026-04-26T07:20:59Z</time></trkpt><trkpt lat="45.79051343703134" lon="9.829149691413935"><ele>367.0</ele><time>2026-04-26T07:21:00Z</time></trkpt><trkpt lat="45.790552316847524" lon="9.82922625479466"><ele>367.0</ele><time>2026-04-26T07:21:01Z</time></trkpt><trkpt lat="45.790592171704894" lon="9.829301693890475"><ele>367.0</ele><time>2026-04-26T07:21:02Z</time></trkpt><trkpt lat="45.790628863969694" lon="9.8293777842163"><ele>367.0</ele><time>2026-04-26T07:21:03Z</time></trkpt><trkpt lat="45.7906700949006" lon="9.829453271470998"><ele>367.0</ele><time>2026-04-26T07:21:04Z</time></trkpt><trkpt lat="45.79070923933317" lon="9.82952815439999"><ele>367.0</ele><time>2026-04-26T07:21:05Z</time></trkpt><trkpt lat="45.79074421804603" lon="9.82960374423441"><ele>367.0</ele><time>2026-04-26T07:21:06Z</time></trkpt><trkpt lat="45.79078475168254" lon="9.829681206362292"><ele>367.0</ele><time>2026-04-26T07:21:07Z</time></trkpt><trkpt lat="45.79082358385364" lon="9.829758211180003"><ele>367.0</ele><time>2026-04-26T07:21:08Z</time></trkpt><trkpt lat="45.790861460859276" lon="9.829833177224973"><ele>367.0</ele><time>2026-04-26T07:21:09Z</time></trkpt><trkpt lat="45.79090011806846" lon="9.829908961462051"><ele>367.0</ele><time>2026-04-26T07:21:10Z</time></trkpt><trkpt lat="45.790938746372994" lon="9.829985061180203"><ele>367.0</ele><time>2026-04-26T07:21:11Z</time></trkpt><trkpt lat="45.79097880101998" lon="9.830059830364391"><ele>367.0</ele><time>2026-04-26T07:21:12Z</time></trkpt><trkpt lat="45.79101586888648" lon="9.830137866617681"><ele>367.0</ele><time>2026-04-26T07:21:13Z</time></trkpt><trkpt lat="45.79105496669468" lon="9.830213518978006"><ele>367.0</ele><time>2026-04-26T07:21:14Z</time></trkpt><trkpt lat="45.791093463452114" lon="9.83029053617391"><ele>366.85714285714283</ele><time>2026-04-26T07:21:15Z</time></trkpt><trkpt lat="45.79113363500503" lon="9.830365651582946"><ele>366.7142857142857</ele><time>2026-04-26T07:21:16Z</time></trkpt><trkpt lat="45.79117132094757" lon="9.830439673056063"><ele>366.57142857142856</ele><time>2026-04-26T07:21:17Z</time></trkpt><trkpt lat="45.79121197311025" lon="9.830513622975712"><ele>366.42857142857144</ele><time>2026-04-26T07:21:18Z</time></trkpt><trkpt lat="45.79125279515566" lon="9.830587130877188"><ele>366.28571428571433</ele><time>2026-04-26T07:21:19Z</time></trkpt><trkpt lat="45.79129498566571" lon="9.830658173850683"><ele>366.14285714285717</ele><time>2026-04-26T07:21:20Z</time></trkpt><trkpt lat="45.79133630455878" lon="9.830730398983535"><ele>366.0</ele><time>2026-04-26T07:21:21Z</time></trkpt><trkpt lat="45.79137886432216" lon="9.830802917590571"><ele>366.0</ele><time>2026-04-26T07:21:22Z</time></trkpt><trkpt lat="45.79142352602394" lon="9.830873524976342"><ele>366.0</ele><time>2026-04-26T07:21:23Z</time></trkpt><trkpt lat="45.791469420150975" lon="9.830943652022308"><ele>366.0</ele><time>2026-04-26T07:21:24Z</time></trkpt><trkpt lat="45.79151592978984" lon="9.831013542607138"><ele>366.0</ele><time>2026-04-26T07:21:25Z</time></trkpt><trkpt lat="45.791561807727604" lon="9.831082138620806"><ele>366.0</ele><time>2026-04-26T07:21:26Z</time></trkpt><trkpt lat="45.79160935139531" lon="9.831148643198345"><ele>366.0</ele><time>2026-04-26T07:21:27Z</time></trkpt><trkpt lat="45.7916568355428" lon="9.83121424959849"><ele>366.0</ele><time>2026-04-26T07:21:28Z</time></trkpt><trkpt lat="45.79170523907014" lon="9.831280626164292"><ele>365.8571428571429</ele><time>2026-04-26T07:21:29Z</time></trkpt><trkpt lat="45.79175321260655" lon="9.831344026334587"><ele>365.7142857142857</ele><time>2026-04-26T07:21:30Z</time></trkpt><trkpt lat="45.79180317246251" lon="9.831408127393408"><ele>365.57142857142856</ele><time>2026-04-26T07:21:31Z</time></trkpt><trkpt lat="45.79185304501011" lon="9.831470200875975"><ele>365.42857142857144</ele><time>2026-04-26T07:21:32Z</time></trkpt><trkpt lat="45.79190526431687" lon="9.831530055229278"><ele>365.2857142857143</ele><time>2026-04-26T07:21:33Z</time></trkpt><trkpt lat="45.791956252061205" lon="9.831589914443112"><ele>365.14285714285717</ele><time>2026-04-26T07:21:34Z</time></trkpt><trkpt lat="45.79200650883185" lon="9.831649161895262"><ele>365.0</ele><time>2026-04-26T07:21:35Z</time></trkpt><trkpt lat="45.79205769893126" lon="9.831706664668962"><ele>365.42857142857144</ele><time>2026-04-26T07:21:36Z</time></trkpt><trkpt lat="45.7921119607894" lon="9.831762031566873"><ele>365.8571428571429</ele><time>2026-04-26T07:21:37Z</time></trkpt><trkpt lat="45.79216584968099" lon="9.831815734655494"><ele>366.28571428571433</ele><time>2026-04-26T07:21:38Z</time></trkpt><trkpt lat="45.792220444131004" lon="9.831869220818248"><ele>366.7142857142857</ele><time>2026-04-26T07:21:39Z</time></trkpt><trkpt lat="45.792274847065165" lon="9.831920159950265"><ele>367.1428571428571</ele><time>2026-04-26T07:21:40Z</time></trkpt><trkpt lat="45.79232977984655" lon="9.831971465899862"><ele>367.5714285714286</ele><time>2026-04-26T07:21:41Z</time></trkpt><trkpt lat="45.79238602383073" lon="9.832020753784292"><ele>368.0</ele><time>2026-04-26T07:21:42Z</time></trkpt><trkpt lat="45.79244127519488" lon="9.83207296549197"><ele>368.14285714285717</ele><time>2026-04-26T07:21:43Z</time></trkpt><trkpt lat="45.79249454583547" lon="9.83212554227494"><ele>368.2857142857143</ele><time>2026-04-26T07:21:44Z</time></trkpt><trkpt lat="45.792550646388264" lon="9.832180089263295"><ele>368.42857142857144</ele><time>2026-04-26T07:21:45Z</time></trkpt><trkpt lat="45.79260680839435" lon="9.83223022847053"><ele>368.57142857142856</ele><time>2026-04-26T07:21:46Z</time></trkpt><trkpt lat="45.792661072726176" lon="9.832285578526937"><ele>368.71428571428567</ele><time>2026-04-26T07:21:47Z</time></trkpt><trkpt lat="45.79271397525334" lon="9.83233972463642"><ele>368.85714285714283</ele><time>2026-04-26T07:21:48Z</time></trkpt><trkpt lat="45.7927665964944" lon="9.832396845715897"><ele>369.0</ele><time>2026-04-26T07:21:49Z</time></trkpt><trkpt lat="45.79281816533053" lon="9.832452602266201"><ele>369.0</ele><time>2026-04-26T07:21:50Z</time></trkpt><trkpt lat="45.792870293672564" lon="9.832514792518156"><ele>369.0</ele><time>2026-04-26T07:21:51Z</time></trkpt><trkpt lat="45.79292117698528" lon="9.83257368932915"><ele>369.0</ele><time>2026-04-26T07:21:52Z</time></trkpt><trkpt lat="45.79297026732508" lon="9.832638770170893"><ele>369.0</ele><time>2026-04-26T07:21:53Z</time></trkpt><trkpt lat="45.79302055323504" lon="9.832705223120689"><ele>369.0</ele><time>2026-04-26T07:21:54Z</time></trkpt><trkpt lat="45.79306775973651" lon="9.832770688024135"><ele>369.0</ele><time>2026-04-26T07:21:55Z</time></trkpt><trkpt lat="45.79311201507568" lon="9.83284049304067"><ele>369.0</ele><time>2026-04-26T07:21:56Z</time></trkpt><trkpt lat="45.79316364714632" lon="9.832910268198155"><ele>369.3333333333333</ele><time>2026-04-26T07:21:57Z</time></trkpt><trkpt lat="45.79324706725892" lon="9.833047816679573"><ele>369.6666666666667</ele><time>2026-04-26T07:21:59Z</time></trkpt><trkpt lat="45.79328831510511" lon="9.833118896714685"><ele>370.0</ele><time>2026-04-26T07:22:00Z</time></trkpt><trkpt lat="45.79332805309552" lon="9.833194449086283"><ele>370.33333333333337</ele><time>2026-04-26T07:22:01Z</time></trkpt><trkpt lat="45.79336429942281" lon="9.833273746860822"><ele>370.6666666666667</ele><time>2026-04-26T07:22:02Z</time></trkpt><trkpt lat="45.793405624201625" lon="9.833347694650552"><ele>371.0</ele><time>2026-04-26T07:22:03Z</time></trkpt><trkpt lat="45.793443545848326" lon="9.833423487073299"><ele>371.14285714285717</ele><time>2026-04-26T07:22:04Z</time></trkpt><trkpt lat="45.79348352835146" lon="9.833498237024887"><ele>371.2857142857143</ele><time>2026-04-26T07:22:05Z</time></trkpt><trkpt lat="45.79352135514575" lon="9.833573426523229"><ele>371.42857142857144</ele><time>2026-04-26T07:22:06Z</time></trkpt><trkpt lat="45.793559187018765" lon="9.833647423513186"><ele>371.57142857142856</ele><time>2026-04-26T07:22:07Z</time></trkpt><trkpt lat="45.79359476213439" lon="9.833728592515238"><ele>371.7142857142857</ele><time>2026-04-26T07:22:08Z</time></trkpt><trkpt lat="45.7936308751718" lon="9.833804015856405"><ele>371.8571428571429</ele><time>2026-04-26T07:22:09Z</time></trkpt><trkpt lat="45.793665019042145" lon="9.833882609480312"><ele>372.0</ele><time>2026-04-26T07:22:10Z</time></trkpt><trkpt lat="45.79370031457233" lon="9.833960360116846"><ele>372.14285714285717</ele><time>2026-04-26T07:22:11Z</time></trkpt><trkpt lat="45.793736500354036" lon="9.83404018121767"><ele>372.2857142857143</ele><time>2026-04-26T07:22:12Z</time></trkpt><trkpt lat="45.793771325725" lon="9.834118534914802"><ele>372.42857142857144</ele><time>2026-04-26T07:22:13Z</time></trkpt><trkpt lat="45.793804157898904" lon="9.834196430097332"><ele>372.57142857142856</ele><time>2026-04-26T07:22:14Z</time></trkpt><trkpt lat="45.79383947672932" lon="9.834276628053908"><ele>372.7142857142857</ele><time>2026-04-26T07:22:15Z</time></trkpt><trkpt lat="45.79387418241045" lon="9.834355515639205"><ele>372.8571428571429</ele><time>2026-04-26T07:22:16Z</time></trkpt><trkpt lat="45.793907734176535" lon="9.834432765156249"><ele>373.0</ele><time>2026-04-26T07:22:17Z</time></trkpt><trkpt lat="45.79394220374459" lon="9.834512012310702"><ele>373.16666666666663</ele><time>2026-04-26T07:22:18Z</time></trkpt><trkpt lat="45.79397652533988" lon="9.83459145969714"><ele>373.3333333333333</ele><time>2026-04-26T07:22:19Z</time></trkpt><trkpt lat="45.79400830590209" lon="9.834672395966825"><ele>373.5</ele><time>2026-04-26T07:22:20Z</time></trkpt><trkpt lat="45.79404425787618" lon="9.834751893886601"><ele>373.6666666666667</ele><time>2026-04-26T07:22:21Z</time></trkpt><trkpt lat="45.79410989786473" lon="9.83490390180928"><ele>373.83333333333337</ele><time>2026-04-26T07:22:23Z</time></trkpt><trkpt lat="45.79417582065503" lon="9.835057629284513"><ele>374.0</ele><time>2026-04-26T07:22:24.999Z</time></trkpt><trkpt lat="45.79424058789121" lon="9.835208011701148"><ele>374.0</ele><time>2026-04-26T07:22:26.999Z</time></trkpt><trkpt lat="45.79427161133287" lon="9.835287993811514"><ele>374.0</ele><time>2026-04-26T07:22:27.999Z</time></trkpt><trkpt lat="45.79430823140615" lon="9.83536358484941"><ele>374.0</ele><time>2026-04-26T07:22:28.999Z</time></trkpt><trkpt lat="45.79437216084367" lon="9.83551833346856"><ele>374.0</ele><time>2026-04-26T07:22:30.999Z</time></trkpt><trkpt lat="45.79443574701509" lon="9.835674225865244"><ele>374.0</ele><time>2026-04-26T07:22:32.999Z</time></trkpt><trkpt lat="45.79450232531942" lon="9.835825178411568"><ele>374.25</ele><time>2026-04-26T07:22:34.999Z</time></trkpt><trkpt lat="45.79456598204099" lon="9.835978228166558"><ele>374.5</ele><time>2026-04-26T07:22:36.999Z</time></trkpt><trkpt lat="45.79462622786989" lon="9.836133674220608"><ele>374.75</ele><time>2026-04-26T07:22:38.999Z</time></trkpt><trkpt lat="45.79468006551514" lon="9.836292673732805"><ele>375.0</ele><time>2026-04-26T07:22:40.999Z</time></trkpt><trkpt lat="45.794733032336005" lon="9.836453576720494"><ele>375.0</ele><time>2026-04-26T07:22:42.999Z</time></trkpt><trkpt lat="45.79475921713099" lon="9.836537805691389"><ele>375.0</ele><time>2026-04-26T07:22:43.999Z</time></trkpt><trkpt lat="45.794806518802794" lon="9.836702493424651"><ele>375.0</ele><time>2026-04-26T07:22:45.999Z</time></trkpt><trkpt lat="45.79482859430225" lon="9.836789774789066"><ele>375.0</ele><time>2026-04-26T07:22:46.999Z</time></trkpt><trkpt lat="45.79487484257925" lon="9.836965441123109"><ele>375.0</ele><time>2026-04-26T07:22:49Z</time></trkpt><trkpt lat="45.794912707973864" lon="9.837136630783506"><ele>374.75</ele><time>2026-04-26T07:22:51Z</time></trkpt><trkpt lat="45.794949731680816" lon="9.837314488496501"><ele>374.5</ele><time>2026-04-26T07:22:53Z</time></trkpt><trkpt lat="45.79498487814913" lon="9.837489471988889"><ele>374.25</ele><time>2026-04-26T07:22:55Z</time></trkpt><trkpt lat="45.79499779942641" lon="9.837587220909807"><ele>374.0</ele><time>2026-04-26T07:22:56Z</time></trkpt><trkpt lat="45.79502114832556" lon="9.83777022844228"><ele>374.0</ele><time>2026-04-26T07:22:58Z</time></trkpt><trkpt lat="45.79502721478515" lon="9.837863742567173"><ele>374.0</ele><time>2026-04-26T07:22:59Z</time></trkpt><trkpt lat="45.79504058203912" lon="9.837955964807438"><ele>374.0</ele><time>2026-04-26T07:23:00Z</time></trkpt><trkpt lat="45.795052170520364" lon="9.838047880417623"><ele>374.0</ele><time>2026-04-26T07:23:01Z</time></trkpt><trkpt lat="45.79506329931425" lon="9.83814003881181"><ele>374.0</ele><time>2026-04-26T07:23:02Z</time></trkpt><trkpt lat="45.795073712078974" lon="9.83823255763151"><ele>374.0</ele><time>2026-04-26T07:23:03Z</time></trkpt><trkpt lat="45.7950837776716" lon="9.838323786859407"><ele>374.0</ele><time>2026-04-26T07:23:04Z</time></trkpt><trkpt lat="45.795095626306185" lon="9.838412834162906"><ele>374.0</ele><time>2026-04-26T07:23:05Z</time></trkpt><trkpt lat="45.79510410022478" lon="9.838506376540053"><ele>374.0</ele><time>2026-04-26T07:23:06Z</time></trkpt><trkpt lat="45.795123683054925" lon="9.838688875908039"><ele>374.0</ele><time>2026-04-26T07:23:08Z</time></trkpt><trkpt lat="45.7951386165284" lon="9.838783265293518"><ele>374.0</ele><time>2026-04-26T07:23:09Z</time></trkpt><trkpt lat="45.7951473029337" lon="9.838877340472116"><ele>374.0</ele><time>2026-04-26T07:23:10Z</time></trkpt><trkpt lat="45.79515561152342" lon="9.838973513398729"><ele>374.0</ele><time>2026-04-26T07:23:11Z</time></trkpt><trkpt lat="45.79516638396149" lon="9.839066233099311"><ele>374.4285714285714</ele><time>2026-04-26T07:23:12Z</time></trkpt><trkpt lat="45.79517654850437" lon="9.839159284980207"><ele>374.8571428571429</ele><time>2026-04-26T07:23:13Z</time></trkpt><trkpt lat="45.795187786000106" lon="9.839252849676319"><ele>375.2857142857143</ele><time>2026-04-26T07:23:14Z</time></trkpt><trkpt lat="45.79519450851291" lon="9.839345871603637"><ele>375.71428571428567</ele><time>2026-04-26T07:23:15Z</time></trkpt><trkpt lat="45.79521005143207" lon="9.839440510217411"><ele>376.1428571428571</ele><time>2026-04-26T07:23:16Z</time></trkpt><trkpt lat="45.7952199801735" lon="9.839532879645335"><ele>376.57142857142856</ele><time>2026-04-26T07:23:17Z</time></trkpt><trkpt lat="45.79523222421321" lon="9.839625780529271"><ele>377.0</ele><time>2026-04-26T07:23:18Z</time></trkpt><trkpt lat="45.795236339464026" lon="9.839716851310877"><ele>376.99999999999994</ele><time>2026-04-26T07:23:19Z</time></trkpt><trkpt lat="45.79525317652895" lon="9.839810317759243"><ele>377.0</ele><time>2026-04-26T07:23:20Z</time></trkpt><trkpt lat="45.795257375915" lon="9.839901992909201"><ele>377.0</ele><time>2026-04-26T07:23:21Z</time></trkpt><trkpt lat="45.795270026680875" lon="9.83999770956732"><ele>377.0</ele><time>2026-04-26T07:23:22Z</time></trkpt><trkpt lat="45.7952806388386" lon="9.840089501517715"><ele>377.0</ele><time>2026-04-26T07:23:23Z</time></trkpt><trkpt lat="45.79528648790714" lon="9.84018008751795"><ele>376.99999999999994</ele><time>2026-04-26T07:23:24Z</time></trkpt><trkpt lat="45.7953039754552" lon="9.840271276409167"><ele>377.0</ele><time>2026-04-26T07:23:25Z</time></trkpt><trkpt lat="45.79532800769366" lon="9.840445095434701"><ele>377.0</ele><time>2026-04-26T07:23:27Z</time></trkpt><trkpt lat="45.795349571358365" lon="9.84060606216137"><ele>377.0</ele><time>2026-04-26T07:23:29Z</time></trkpt><trkpt lat="45.795388698153054" lon="9.840758990175962"><ele>377.0</ele><time>2026-04-26T07:23:31Z</time></trkpt><trkpt lat="45.79542151270171" lon="9.840930664228276"><ele>377.0</ele><time>2026-04-26T07:23:33Z</time></trkpt><trkpt lat="45.79544576935657" lon="9.841020042387784"><ele>377.0</ele><time>2026-04-26T07:23:34Z</time></trkpt><trkpt lat="45.795469070902456" lon="9.841108816735378"><ele>376.85714285714283</ele><time>2026-04-26T07:23:35Z</time></trkpt><trkpt lat="45.79549474419537" lon="9.841196205544817"><ele>376.7142857142857</ele><time>2026-04-26T07:23:36Z</time></trkpt><trkpt lat="45.795519215907696" lon="9.841285185391712"><ele>376.57142857142856</ele><time>2026-04-26T07:23:37Z</time></trkpt><trkpt lat="45.795546920657934" lon="9.841370184306019"><ele>376.42857142857144</ele><time>2026-04-26T07:23:38Z</time></trkpt><trkpt lat="45.79557687134454" lon="9.841457308642603"><ele>376.2857142857143</ele><time>2026-04-26T07:23:39Z</time></trkpt><trkpt lat="45.79560707724186" lon="9.84154347666004"><ele>376.1428571428571</ele><time>2026-04-26T07:23:40Z</time></trkpt><trkpt lat="45.79563877608872" lon="9.841626929995963"><ele>376.0</ele><time>2026-04-26T07:23:41Z</time></trkpt><trkpt lat="45.795672116161235" lon="9.841707018548902"><ele>376.0</ele><time>2026-04-26T07:23:42Z</time></trkpt><trkpt lat="45.79570436657806" lon="9.841793274051206"><ele>376.0</ele><time>2026-04-26T07:23:43Z</time></trkpt><trkpt lat="45.79573865719143" lon="9.84187323043536"><ele>376.0</ele><time>2026-04-26T07:23:44Z</time></trkpt><trkpt lat="45.79577556690538" lon="9.84195530989729"><ele>376.0</ele><time>2026-04-26T07:23:45Z</time></trkpt><trkpt lat="45.79581171197807" lon="9.842035597196634"><ele>376.0</ele><time>2026-04-26T07:23:46Z</time></trkpt><trkpt lat="45.795850753034394" lon="9.842113756295209"><ele>376.0</ele><time>2026-04-26T07:23:47Z</time></trkpt><trkpt lat="45.79588936859943" lon="9.842190114961825"><ele>376.0</ele><time>2026-04-26T07:23:48Z</time></trkpt><trkpt lat="45.79592827424194" lon="9.842266456649556"><ele>375.85714285714283</ele><time>2026-04-26T07:23:49Z</time></trkpt><trkpt lat="45.79596710469269" lon="9.842343216801757"><ele>375.71428571428567</ele><time>2026-04-26T07:23:50Z</time></trkpt><trkpt lat="45.79600829989248" lon="9.84241777963743"><ele>375.57142857142856</ele><time>2026-04-26T07:23:51Z</time></trkpt><trkpt lat="45.79604984482847" lon="9.842491901721704"><ele>375.42857142857144</ele><time>2026-04-26T07:23:52Z</time></trkpt><trkpt lat="45.796090494540834" lon="9.842568274500778"><ele>375.2857142857143</ele><time>2026-04-26T07:23:53Z</time></trkpt><trkpt lat="45.796129426608516" lon="9.842641734118397"><ele>375.14285714285717</ele><time>2026-04-26T07:23:54Z</time></trkpt><trkpt lat="45.79617403515409" lon="9.842721765748866"><ele>375.0</ele><time>2026-04-26T07:23:55Z</time></trkpt><trkpt lat="45.796211140685486" lon="9.842796665547693"><ele>376.0</ele><time>2026-04-26T07:23:56Z</time></trkpt><trkpt lat="45.796248588702056" lon="9.842870877256185"><ele>377.0</ele><time>2026-04-26T07:23:57Z</time></trkpt><trkpt lat="45.79628756339973" lon="9.842948806162626"><ele>378.0</ele><time>2026-04-26T07:23:58Z</time></trkpt><trkpt lat="45.79632179871862" lon="9.843027024807242"><ele>379.0</ele><time>2026-04-26T07:23:59Z</time></trkpt><trkpt lat="45.796367546555764" lon="9.843107823674371"><ele>380.0</ele><time>2026-04-26T07:24:00Z</time></trkpt><trkpt lat="45.79642997825214" lon="9.843264016654532"><ele>381.0</ele><time>2026-04-26T07:24:02Z</time></trkpt><trkpt lat="45.79646132975083" lon="9.843344849117223"><ele>381.0</ele><time>2026-04-26T07:24:03Z</time></trkpt><trkpt lat="45.79649156777426" lon="9.843428485189813"><ele>381.0</ele><time>2026-04-26T07:24:04Z</time></trkpt><trkpt lat="45.79652117995734" lon="9.843512589421007"><ele>381.0</ele><time>2026-04-26T07:24:05Z</time></trkpt><trkpt lat="45.79655071056609" lon="9.843595361199553"><ele>381.0</ele><time>2026-04-26T07:24:06Z</time></trkpt><trkpt lat="45.79657799640787" lon="9.843681707268187"><ele>381.0</ele><time>2026-04-26T07:24:07Z</time></trkpt><trkpt lat="45.796604545720434" lon="9.843767203601566"><ele>381.0</ele><time>2026-04-26T07:24:08Z</time></trkpt><trkpt lat="45.79662862425973" lon="9.843852841427935"><ele>381.0</ele><time>2026-04-26T07:24:09Z</time></trkpt><trkpt lat="45.79665809606877" lon="9.843940194617318"><ele>380.85714285714283</ele><time>2026-04-26T07:24:10Z</time></trkpt><trkpt lat="45.79667840813037" lon="9.844026552858606"><ele>380.7142857142857</ele><time>2026-04-26T07:24:11Z</time></trkpt><trkpt lat="45.79670225045453" lon="9.84411284890812"><ele>380.57142857142856</ele><time>2026-04-26T07:24:12Z</time></trkpt><trkpt lat="45.796728247074945" lon="9.844197971745203"><ele>380.42857142857144</ele><time>2026-04-26T07:24:13Z</time></trkpt><trkpt lat="45.796752420820276" lon="9.844284118682586"><ele>380.28571428571433</ele><time>2026-04-26T07:24:14Z</time></trkpt><trkpt lat="45.796774856574395" lon="9.844370184637594"><ele>380.14285714285717</ele><time>2026-04-26T07:24:15Z</time></trkpt><trkpt lat="45.79679969777487" lon="9.844456532532721"><ele>380.0</ele><time>2026-04-26T07:24:16Z</time></trkpt><trkpt lat="45.79682266022989" lon="9.844542744062231"><ele>380.1666666666667</ele><time>2026-04-26T07:24:17Z</time></trkpt><trkpt lat="45.79684798699982" lon="9.844628879067496"><ele>380.33333333333337</ele><time>2026-04-26T07:24:18Z</time></trkpt><trkpt lat="45.796871007387345" lon="9.844715450409327"><ele>380.5</ele><time>2026-04-26T07:24:19Z</time></trkpt><trkpt lat="45.79689428275496" lon="9.844801006848531"><ele>380.6666666666667</ele><time>2026-04-26T07:24:20Z</time></trkpt><trkpt lat="45.796921086428945" lon="9.844885840387915"><ele>380.8333333333333</ele><time>2026-04-26T07:24:21Z</time></trkpt><trkpt lat="45.79696978172114" lon="9.845060338885663"><ele>381.0</ele><time>2026-04-26T07:24:23Z</time></trkpt><trkpt lat="45.797015660481" lon="9.845229439865742"><ele>381.0</ele><time>2026-04-26T07:24:25Z</time></trkpt><trkpt lat="45.79704319671311" lon="9.845314802759965"><ele>381.0</ele><time>2026-04-26T07:24:26Z</time></trkpt><trkpt lat="45.79706426551397" lon="9.845401040572941"><ele>381.0</ele><time>2026-04-26T07:24:27Z</time></trkpt><trkpt lat="45.79708882849485" lon="9.845485498511689"><ele>381.0</ele><time>2026-04-26T07:24:28Z</time></trkpt><trkpt lat="45.79711341167244" lon="9.845569697232454"><ele>381.0</ele><time>2026-04-26T07:24:29Z</time></trkpt><trkpt lat="45.79713767008184" lon="9.845653805504572"><ele>381.0</ele><time>2026-04-26T07:24:30Z</time></trkpt><trkpt lat="45.79716268595737" lon="9.845737656064411"><ele>381.0</ele><time>2026-04-26T07:24:31Z</time></trkpt><trkpt lat="45.797186856173" lon="9.845821704449316"><ele>381.0</ele><time>2026-04-26T07:24:32Z</time></trkpt><trkpt lat="45.79721219251098" lon="9.845908102574422"><ele>380.7142857142857</ele><time>2026-04-26T07:24:33Z</time></trkpt><trkpt lat="45.79724122509496" lon="9.845991919435523"><ele>380.42857142857144</ele><time>2026-04-26T07:24:34Z</time></trkpt><trkpt lat="45.79727053049304" lon="9.846073547099119"><ele>380.14285714285717</ele><time>2026-04-26T07:24:35Z</time></trkpt><trkpt lat="45.797300366648784" lon="9.846155885970719"><ele>379.8571428571429</ele><time>2026-04-26T07:24:36Z</time></trkpt><trkpt lat="45.79733372001707" lon="9.846238482394773"><ele>379.57142857142856</ele><time>2026-04-26T07:24:37Z</time></trkpt><trkpt lat="45.79736788344686" lon="9.84631525806195"><ele>379.28571428571433</ele><time>2026-04-26T07:24:38Z</time></trkpt><trkpt lat="45.79739904784559" lon="9.846397846439945"><ele>379.0</ele><time>2026-04-26T07:24:39Z</time></trkpt><trkpt lat="45.79743352757326" lon="9.84647751949737"><ele>379.00000000000006</ele><time>2026-04-26T07:24:40Z</time></trkpt><trkpt lat="45.79747157537152" lon="9.846553694351016"><ele>379.0</ele><time>2026-04-26T07:24:41Z</time></trkpt><trkpt lat="45.797505733166254" lon="9.846629975008184"><ele>379.0</ele><time>2026-04-26T07:24:42Z</time></trkpt><trkpt lat="45.797545327380355" lon="9.846705884879599"><ele>379.0</ele><time>2026-04-26T07:24:43Z</time></trkpt><trkpt lat="45.79758357342085" lon="9.84678408987983"><ele>379.0</ele><time>2026-04-26T07:24:44Z</time></trkpt><trkpt lat="45.797624432055514" lon="9.846855170096639"><ele>379.00000000000006</ele><time>2026-04-26T07:24:45Z</time></trkpt><trkpt lat="45.797662467905894" lon="9.846928166074612"><ele>379.0</ele><time>2026-04-26T07:24:46Z</time></trkpt><trkpt lat="45.79770681844655" lon="9.84699958033962"><ele>379.16666666666663</ele><time>2026-04-26T07:24:47Z</time></trkpt><trkpt lat="45.797793904567484" lon="9.847137948880917"><ele>379.3333333333333</ele><time>2026-04-26T07:24:49Z</time></trkpt><trkpt lat="45.79783793757317" lon="9.847204800449749"><ele>379.5</ele><time>2026-04-26T07:24:50Z</time></trkpt><trkpt lat="45.797883328465836" lon="9.847271244290257"><ele>379.6666666666667</ele><time>2026-04-26T07:24:51Z</time></trkpt><trkpt lat="45.79792996381187" lon="9.847338037882501"><ele>379.83333333333337</ele><time>2026-04-26T07:24:52Z</time></trkpt><trkpt lat="45.79797748243108" lon="9.8474070338465"><ele>380.0</ele><time>2026-04-26T07:24:53Z</time></trkpt><trkpt lat="45.798025341204166" lon="9.847468153754559"><ele>380.0</ele><time>2026-04-26T07:24:54Z</time></trkpt><trkpt lat="45.79807627079887" lon="9.847528371246518"><ele>380.0</ele><time>2026-04-26T07:24:55Z</time></trkpt><trkpt lat="45.79812521822447" lon="9.847591606659096"><ele>380.0</ele><time>2026-04-26T07:24:56Z</time></trkpt><trkpt lat="45.798174740199116" lon="9.847654613235392"><ele>380.0</ele><time>2026-04-26T07:24:57Z</time></trkpt><trkpt lat="45.79822376556637" lon="9.84771236456173"><ele>380.0</ele><time>2026-04-26T07:24:58Z</time></trkpt><trkpt lat="45.7982764660968" lon="9.847766659667409"><ele>380.0</ele><time>2026-04-26T07:24:59Z</time></trkpt><trkpt lat="45.79833070126708" lon="9.847821174030873"><ele>380.0</ele><time>2026-04-26T07:25:00Z</time></trkpt><trkpt lat="45.798383322331276" lon="9.847875267576573"><ele>380.33333333333337</ele><time>2026-04-26T07:25:01Z</time></trkpt><trkpt lat="45.7984360239626" lon="9.847936127898661"><ele>380.6666666666667</ele><time>2026-04-26T07:25:02Z</time></trkpt><trkpt lat="45.79849797208626" lon="9.848001068377018"><ele>381.0</ele><time>2026-04-26T07:25:03Z</time></trkpt><trkpt lat="45.798609691804764" lon="9.848074438966636"><ele>381.3333333333333</ele><time>2026-04-26T07:25:05Z</time></trkpt><trkpt lat="45.798666665369545" lon="9.84811771497762"><ele>381.66666666666663</ele><time>2026-04-26T07:25:06Z</time></trkpt><trkpt lat="45.79872742868589" lon="9.848161553739438"><ele>382.0</ele><time>2026-04-26T07:25:07Z</time></trkpt><trkpt lat="45.79878402426625" lon="9.848204446525122"><ele>382.0</ele><time>2026-04-26T07:25:08Z</time></trkpt><trkpt lat="45.7988982175825" lon="9.84828295587362"><ele>382.0</ele><time>2026-04-26T07:25:10Z</time></trkpt><trkpt lat="45.799003768507895" lon="9.848352614180184"><ele>382.0</ele><time>2026-04-26T07:25:12Z</time></trkpt><trkpt lat="45.799062158840634" lon="9.848395347399398"><ele>382.0</ele><time>2026-04-26T07:25:13Z</time></trkpt><trkpt lat="45.79912227153025" lon="9.8484317035346"><ele>382.0</ele><time>2026-04-26T07:25:14Z</time></trkpt><trkpt lat="45.799188458989015" lon="9.848468769167686"><ele>382.0</ele><time>2026-04-26T07:25:15Z</time></trkpt><trkpt lat="45.79930612718331" lon="9.848543810686124"><ele>381.5714285714286</ele><time>2026-04-26T07:25:17Z</time></trkpt><trkpt lat="45.799366273381146" lon="9.848584946636914"><ele>381.1428571428571</ele><time>2026-04-26T07:25:18Z</time></trkpt><trkpt lat="45.79942697200438" lon="9.848623203201207"><ele>380.7142857142857</ele><time>2026-04-26T07:25:19Z</time></trkpt><trkpt lat="45.7994862492953" lon="9.848661339994125"><ele>380.28571428571433</ele><time>2026-04-26T07:25:20Z</time></trkpt><trkpt lat="45.79954808567507" lon="9.848698918377666"><ele>379.8571428571429</ele><time>2026-04-26T07:25:21Z</time></trkpt><trkpt lat="45.79960808870159" lon="9.848736884557116"><ele>379.42857142857144</ele><time>2026-04-26T07:25:22Z</time></trkpt><trkpt lat="45.79966870749738" lon="9.848775072167463"><ele>379.0</ele><time>2026-04-26T07:25:23Z</time></trkpt><trkpt lat="45.79972816418102" lon="9.848814766084116"><ele>379.00000000000006</ele><time>2026-04-26T07:25:24Z</time></trkpt><trkpt lat="45.799790708870226" lon="9.848849171214331"><ele>379.0</ele><time>2026-04-26T07:25:25Z</time></trkpt><trkpt lat="45.799850255279694" lon="9.848890089076235"><ele>379.0</ele><time>2026-04-26T07:25:26Z</time></trkpt><trkpt lat="45.79991080858546" lon="9.848929315321934"><ele>379.0</ele><time>2026-04-26T07:25:27Z</time></trkpt><trkpt lat="45.799972253896684" lon="9.84896735484829"><ele>379.0</ele><time>2026-04-26T07:25:28Z</time></trkpt><trkpt lat="45.80003208177612" lon="9.849005049336634"><ele>379.00000000000006</ele><time>2026-04-26T07:25:29Z</time></trkpt><trkpt lat="45.80009208131722" lon="9.849040951730869"><ele>379.0</ele><time>2026-04-26T07:25:30Z</time></trkpt><trkpt lat="45.80015262286087" lon="9.849079461001233"><ele>379.5714285714286</ele><time>2026-04-26T07:25:31Z</time></trkpt><trkpt lat="45.800213303607826" lon="9.849117048477002"><ele>380.14285714285717</ele><time>2026-04-26T07:25:32Z</time></trkpt><trkpt lat="45.800274717544134" lon="9.849150603454845"><ele>380.7142857142857</ele><time>2026-04-26T07:25:33Z</time></trkpt><trkpt lat="45.800335626044834" lon="9.84918774670426"><ele>381.28571428571433</ele><time>2026-04-26T07:25:34Z</time></trkpt><trkpt lat="45.80039559450481" lon="9.8492277026471"><ele>381.85714285714283</ele><time>2026-04-26T07:25:35Z</time></trkpt><trkpt lat="45.800457220725" lon="9.849263440275644"><ele>382.42857142857144</ele><time>2026-04-26T07:25:36Z</time></trkpt><trkpt lat="45.800519061232706" lon="9.849299621241503"><ele>383.0</ele><time>2026-04-26T07:25:37Z</time></trkpt><trkpt lat="45.80057805660521" lon="9.849337905598311"><ele>383.1666666666667</ele><time>2026-04-26T07:25:38Z</time></trkpt><trkpt lat="45.800636563669606" lon="9.849376237244861"><ele>383.33333333333337</ele><time>2026-04-26T07:25:39Z</time></trkpt><trkpt lat="45.80069676005523" lon="9.849415512707445"><ele>383.5</ele><time>2026-04-26T07:25:40Z</time></trkpt><trkpt lat="45.800756412426786" lon="9.849450963486955"><ele>383.6666666666667</ele><time>2026-04-26T07:25:41Z</time></trkpt><trkpt lat="45.800874259519496" lon="9.849523854197924"><ele>383.8333333333333</ele><time>2026-04-26T07:25:43Z</time></trkpt><trkpt lat="45.800940172749904" lon="9.849553247497138"><ele>384.0</ele><time>2026-04-26T07:25:44Z</time></trkpt><trkpt lat="45.80099736912027" lon="9.849595938680025"><ele>384.1428571428571</ele><time>2026-04-26T07:25:45Z</time></trkpt><trkpt lat="45.80105827460808" lon="9.849634869713181"><ele>384.2857142857143</ele><time>2026-04-26T07:25:46Z</time></trkpt><trkpt lat="45.80111724673675" lon="9.849672562880864"><ele>384.42857142857144</ele><time>2026-04-26T07:25:47Z</time></trkpt><trkpt lat="45.80117650349824" lon="9.849708010191542"><ele>384.57142857142856</ele><time>2026-04-26T07:25:48Z</time></trkpt><trkpt lat="45.801237094094745" lon="9.849744447496906"><ele>384.7142857142857</ele><time>2026-04-26T07:25:49Z</time></trkpt><trkpt lat="45.80129768434059" lon="9.849781727647446"><ele>384.85714285714283</ele><time>2026-04-26T07:25:50Z</time></trkpt><trkpt lat="45.80135812552149" lon="9.849819140201848"><ele>385.0</ele><time>2026-04-26T07:25:51Z</time></trkpt><trkpt lat="45.80141604508988" lon="9.849858161011383"><ele>385.0</ele><time>2026-04-26T07:25:52Z</time></trkpt><trkpt lat="45.801475792418834" lon="9.849897425705446"><ele>385.0</ele><time>2026-04-26T07:25:53Z</time></trkpt><trkpt lat="45.80153374709795" lon="9.849935457090817"><ele>385.0</ele><time>2026-04-26T07:25:54Z</time></trkpt><trkpt lat="45.80159541648093" lon="9.849973161224344"><ele>385.0</ele><time>2026-04-26T07:25:55Z</time></trkpt><trkpt lat="45.80165410930607" lon="9.850013035649855"><ele>385.0</ele><time>2026-04-26T07:25:56Z</time></trkpt><trkpt lat="45.80171644997434" lon="9.850049199886879"><ele>385.0</ele><time>2026-04-26T07:25:57Z</time></trkpt><trkpt lat="45.801776318977154" lon="9.85008777463804"><ele>385.0</ele><time>2026-04-26T07:25:58Z</time></trkpt><trkpt lat="45.801836530131986" lon="9.850126913447886"><ele>385.14285714285717</ele><time>2026-04-26T07:25:59Z</time></trkpt><trkpt lat="45.8018955017508" lon="9.850162732009538"><ele>385.2857142857143</ele><time>2026-04-26T07:26:00Z</time></trkpt><trkpt lat="45.8019566197143" lon="9.850196566788318"><ele>385.42857142857144</ele><time>2026-04-26T07:26:01Z</time></trkpt><trkpt lat="45.80201685384741" lon="9.85023480160205"><ele>385.57142857142856</ele><time>2026-04-26T07:26:02Z</time></trkpt><trkpt lat="45.80207528439145" lon="9.850269835323665"><ele>385.7142857142857</ele><time>2026-04-26T07:26:03Z</time></trkpt><trkpt lat="45.80213504075395" lon="9.850306927870976"><ele>385.8571428571429</ele><time>2026-04-26T07:26:04Z</time></trkpt><trkpt lat="45.802196995788954" lon="9.8503419288605"><ele>386.0</ele><time>2026-04-26T07:26:05Z</time></trkpt><trkpt lat="45.80231410054185" lon="9.850412440965611"><ele>385.99999999999994</ele><time>2026-04-26T07:26:07Z</time></trkpt><trkpt lat="45.80237242395739" lon="9.850452295285807"><ele>386.0</ele><time>2026-04-26T07:26:08Z</time></trkpt><trkpt lat="45.802433224258934" lon="9.850488550556786"><ele>386.0</ele><time>2026-04-26T07:26:09Z</time></trkpt><trkpt lat="45.8024913789434" lon="9.850525901523415"><ele>386.0</ele><time>2026-04-26T07:26:10Z</time></trkpt><trkpt lat="45.8025502922214" lon="9.850563892903848"><ele>385.99999999999994</ele><time>2026-04-26T07:26:11Z</time></trkpt><trkpt lat="45.8026121808571" lon="9.850599559119722"><ele>386.0</ele><time>2026-04-26T07:26:12Z</time></trkpt><trkpt lat="45.8027296110876" lon="9.850677735903547"><ele>386.20000000000005</ele><time>2026-04-26T07:26:14Z</time></trkpt><trkpt lat="45.80284845246174" lon="9.850751036949035"><ele>386.40000000000003</ele><time>2026-04-26T07:26:16Z</time></trkpt><trkpt lat="45.80296338912478" lon="9.850815161089034"><ele>386.6</ele><time>2026-04-26T07:26:18Z</time></trkpt><trkpt lat="45.803022765207075" lon="9.850859978191007"><ele>386.8</ele><time>2026-04-26T07:26:19Z</time></trkpt><trkpt lat="45.8030839615591" lon="9.850898113058294"><ele>387.0</ele><time>2026-04-26T07:26:20Z</time></trkpt><trkpt lat="45.803194402106264" lon="9.850976566452033"><ele>387.0</ele><time>2026-04-26T07:26:22Z</time></trkpt><trkpt lat="45.80325453311939" lon="9.851017572345514"><ele>387.0</ele><time>2026-04-26T07:26:23Z</time></trkpt><trkpt lat="45.80336431115351" lon="9.851104172547743"><ele>387.0</ele><time>2026-04-26T07:26:25Z</time></trkpt><trkpt lat="45.80342290236769" lon="9.851151428863414"><ele>387.0</ele><time>2026-04-26T07:26:26Z</time></trkpt><trkpt lat="45.803529132769874" lon="9.851242691810674"><ele>387.0</ele><time>2026-04-26T07:26:28Z</time></trkpt><trkpt lat="45.803586135386574" lon="9.851294613033877"><ele>387.0</ele><time>2026-04-26T07:26:29Z</time></trkpt><trkpt lat="45.80368918659381" lon="9.851395546491048"><ele>387.0</ele><time>2026-04-26T07:26:31Z</time></trkpt><trkpt lat="45.80374444582174" lon="9.851445735334481"><ele>387.0</ele><time>2026-04-26T07:26:32Z</time></trkpt><trkpt lat="45.80379437457119" lon="9.85150557079124"><ele>387.0</ele><time>2026-04-26T07:26:33Z</time></trkpt><trkpt lat="45.803848183448984" lon="9.851561416418717"><ele>387.0</ele><time>2026-04-26T07:26:34Z</time></trkpt><trkpt lat="45.80394839692103" lon="9.85166989794105"><ele>387.0</ele><time>2026-04-26T07:26:36Z</time></trkpt><trkpt lat="45.80404351971281" lon="9.851784716068268"><ele>386.8333333333333</ele><time>2026-04-26T07:26:38Z</time></trkpt><trkpt lat="45.80409401461347" lon="9.85184321673637"><ele>386.66666666666663</ele><time>2026-04-26T07:26:39Z</time></trkpt><trkpt lat="45.80419253350335" lon="9.851957779805083"><ele>386.5</ele><time>2026-04-26T07:26:41Z</time></trkpt><trkpt lat="45.80424279225878" lon="9.852014172706555"><ele>386.3333333333333</ele><time>2026-04-26T07:26:42Z</time></trkpt><trkpt lat="45.80434072935496" lon="9.852132342605126"><ele>386.16666666666663</ele><time>2026-04-26T07:26:44Z</time></trkpt><trkpt lat="45.80439073502261" lon="9.85218907529617"><ele>386.0</ele><time>2026-04-26T07:26:45Z</time></trkpt><trkpt lat="45.804441622822" lon="9.85225087095838"><ele>385.99999999999994</ele><time>2026-04-26T07:26:46Z</time></trkpt><trkpt lat="45.80449245128836" lon="9.852306202320513"><ele>386.0</ele><time>2026-04-26T07:26:47Z</time></trkpt><trkpt lat="45.80454262809696" lon="9.852368138327073"><ele>386.0</ele><time>2026-04-26T07:26:48Z</time></trkpt><trkpt lat="45.80464036165566" lon="9.852484960071017"><ele>386.0</ele><time>2026-04-26T07:26:50Z</time></trkpt><trkpt lat="45.804741296669285" lon="9.852598049461305"><ele>385.99999999999994</ele><time>2026-04-26T07:26:52Z</time></trkpt><trkpt lat="45.804785288908924" lon="9.852664700410754"><ele>386.0</ele><time>2026-04-26T07:26:53Z</time></trkpt><trkpt lat="45.80483367476384" lon="9.852723260714448"><ele>386.66666666666663</ele><time>2026-04-26T07:26:54Z</time></trkpt><trkpt lat="45.80488498702322" lon="9.852787260457518"><ele>387.3333333333333</ele><time>2026-04-26T07:26:55Z</time></trkpt><trkpt lat="45.8049860663348" lon="9.852902665193273"><ele>388.0</ele><time>2026-04-26T07:26:56.999Z</time></trkpt><trkpt lat="45.80503526116697" lon="9.852962138206692"><ele>388.66666666666663</ele><time>2026-04-26T07:26:57.999Z</time></trkpt><trkpt lat="45.805087116339834" lon="9.853021863609174"><ele>389.3333333333333</ele><time>2026-04-26T07:26:58.999Z</time></trkpt><trkpt lat="45.805137142259845" lon="9.853078232126402"><ele>390.0</ele><time>2026-04-26T07:26:59.999Z</time></trkpt><trkpt lat="45.8051878399369" lon="9.853140155775005"><ele>390.0</ele><time>2026-04-26T07:27:01Z</time></trkpt><trkpt lat="45.80523789637009" lon="9.853197034898129"><ele>390.0</ele><time>2026-04-26T07:27:02Z</time></trkpt><trkpt lat="45.80528750283489" lon="9.85325664662796"><ele>390.0</ele><time>2026-04-26T07:27:03Z</time></trkpt><trkpt lat="45.805338646673015" lon="9.85331699810545"><ele>390.0</ele><time>2026-04-26T07:27:04Z</time></trkpt><trkpt lat="45.805389511119216" lon="9.853375627554875"><ele>390.0</ele><time>2026-04-26T07:27:05Z</time></trkpt><trkpt lat="45.80544038202865" lon="9.853435996910715"><ele>390.0</ele><time>2026-04-26T07:27:06Z</time></trkpt><trkpt lat="45.805490902587536" lon="9.853495214885323"><ele>390.0</ele><time>2026-04-26T07:27:07Z</time></trkpt><trkpt lat="45.80554159895279" lon="9.853553772955589"><ele>390.5</ele><time>2026-04-26T07:27:08Z</time></trkpt><trkpt lat="45.805592730276224" lon="9.853613377087555"><ele>391.0</ele><time>2026-04-26T07:27:09Z</time></trkpt><trkpt lat="45.80564133856089" lon="9.853675604102696"><ele>391.5</ele><time>2026-04-26T07:27:10Z</time></trkpt><trkpt lat="45.80568970165117" lon="9.853738490432931"><ele>392.0</ele><time>2026-04-26T07:27:11Z</time></trkpt><trkpt lat="45.80578688425169" lon="9.853857130027556"><ele>392.5</ele><time>2026-04-26T07:27:13Z</time></trkpt><trkpt lat="45.80583698928895" lon="9.853914252291576"><ele>393.0</ele><time>2026-04-26T07:27:14Z</time></trkpt><trkpt lat="45.80588731644215" lon="9.8539705661575"><ele>393.0</ele><time>2026-04-26T07:27:15Z</time></trkpt><trkpt lat="45.80593521948683" lon="9.854033991626256"><ele>393.0</ele><time>2026-04-26T07:27:16Z</time></trkpt><trkpt lat="45.805985842215684" lon="9.854096718965986"><ele>393.0</ele><time>2026-04-26T07:27:17Z</time></trkpt><trkpt lat="45.806036381013406" lon="9.854153121409176"><ele>393.0</ele><time>2026-04-26T07:27:18Z</time></trkpt><trkpt lat="45.806135508232146" lon="9.854269658982624"><ele>393.0</ele><time>2026-04-26T07:27:20Z</time></trkpt><trkpt lat="45.80618147685731" lon="9.854335314619977"><ele>393.0</ele><time>2026-04-26T07:27:21Z</time></trkpt><trkpt lat="45.806226742520515" lon="9.854401901472329"><ele>393.5714285714286</ele><time>2026-04-26T07:27:22Z</time></trkpt><trkpt lat="45.80626161283873" lon="9.854477302633933"><ele>394.14285714285717</ele><time>2026-04-26T07:27:23Z</time></trkpt><trkpt lat="45.806293926655286" lon="9.854561581211838"><ele>394.7142857142857</ele><time>2026-04-26T07:27:24Z</time></trkpt><trkpt lat="45.80632817469443" lon="9.854646149259265"><ele>395.28571428571433</ele><time>2026-04-26T07:27:25Z</time></trkpt><trkpt lat="45.80636110464359" lon="9.854725899506843"><ele>395.85714285714283</ele><time>2026-04-26T07:27:26Z</time></trkpt><trkpt lat="45.80640817522846" lon="9.854796286767902"><ele>396.42857142857144</ele><time>2026-04-26T07:27:27Z</time></trkpt><trkpt lat="45.80646593792481" lon="9.854843119979671"><ele>397.0</ele><time>2026-04-26T07:27:28Z</time></trkpt><trkpt lat="45.80652552531383" lon="9.854885557588359"><ele>397.0</ele><time>2026-04-26T07:27:29Z</time></trkpt><trkpt lat="45.80658806140111" lon="9.854921308927214"><ele>397.0</ele><time>2026-04-26T07:27:30Z</time></trkpt><trkpt lat="45.806642830321564" lon="9.854969786275708"><ele>397.0</ele><time>2026-04-26T07:27:31Z</time></trkpt><trkpt lat="45.80669574733408" lon="9.85502974310454"><ele>397.0</ele><time>2026-04-26T07:27:32Z</time></trkpt><trkpt lat="45.80674064561093" lon="9.855098494053012"><ele>397.0</ele><time>2026-04-26T07:27:33Z</time></trkpt><trkpt lat="45.80678448770766" lon="9.855172608865908"><ele>397.0</ele><time>2026-04-26T07:27:34Z</time></trkpt><trkpt lat="45.806825707206116" lon="9.855248174869265"><ele>397.0</ele><time>2026-04-26T07:27:35Z</time></trkpt><trkpt lat="45.80687052222912" lon="9.855322349728436"><ele>396.85714285714283</ele><time>2026-04-26T07:27:36Z</time></trkpt><trkpt lat="45.806915089742944" lon="9.855395097864486"><ele>396.71428571428567</ele><time>2026-04-26T07:27:37Z</time></trkpt><trkpt lat="45.80696098219872" lon="9.855468606394686"><ele>396.57142857142856</ele><time>2026-04-26T07:27:38Z</time></trkpt><trkpt lat="45.807005519382955" lon="9.85554277246731"><ele>396.42857142857144</ele><time>2026-04-26T07:27:39Z</time></trkpt><trkpt lat="45.80704818238503" lon="9.855616110664952"><ele>396.2857142857143</ele><time>2026-04-26T07:27:40Z</time></trkpt><trkpt lat="45.80709291945025" lon="9.855686303582779"><ele>396.14285714285717</ele><time>2026-04-26T07:27:41Z</time></trkpt><trkpt lat="45.80713647785123" lon="9.855757309729393"><ele>396.0</ele><time>2026-04-26T07:27:42Z</time></trkpt><trkpt lat="45.8071809026424" lon="9.855826330302099"><ele>396.0</ele><time>2026-04-26T07:27:43Z</time></trkpt><trkpt lat="45.80722544576853" lon="9.855895911083797"><ele>396.0</ele><time>2026-04-26T07:27:44Z</time></trkpt><trkpt lat="45.80727040703131" lon="9.855965224170438"><ele>396.0</ele><time>2026-04-26T07:27:45Z</time></trkpt><trkpt lat="45.80731132290139" lon="9.856036849668152"><ele>396.0</ele><time>2026-04-26T07:27:46Z</time></trkpt><trkpt lat="45.80735474854197" lon="9.856108737497424"><ele>396.0</ele><time>2026-04-26T07:27:47Z</time></trkpt><trkpt lat="45.807398659315034" lon="9.856177877574234"><ele>396.0</ele><time>2026-04-26T07:27:48Z</time></trkpt><trkpt lat="45.807439538347715" lon="9.856249666325303"><ele>396.0</ele><time>2026-04-26T07:27:49Z</time></trkpt><trkpt lat="45.807483110570345" lon="9.856321957281557"><ele>396.0</ele><time>2026-04-26T07:27:50Z</time></trkpt><trkpt lat="45.807526086163946" lon="9.85639100448898"><ele>396.0</ele><time>2026-04-26T07:27:51Z</time></trkpt><trkpt lat="45.8075703263179" lon="9.85645957940873"><ele>396.0</ele><time>2026-04-26T07:27:52Z</time></trkpt><trkpt lat="45.80761572800237" lon="9.856529307829183"><ele>396.0</ele><time>2026-04-26T07:27:53Z</time></trkpt><trkpt lat="45.807660838391065" lon="9.856596591239324"><ele>396.0</ele><time>2026-04-26T07:27:54Z</time></trkpt><trkpt lat="45.80770502008544" lon="9.856665554688943"><ele>396.0</ele><time>2026-04-26T07:27:55Z</time></trkpt><trkpt lat="45.80775335100641" lon="9.85672932490302"><ele>396.0</ele><time>2026-04-26T07:27:56Z</time></trkpt><trkpt lat="45.807798671220105" lon="9.856798062839484"><ele>395.5714285714286</ele><time>2026-04-26T07:27:57Z</time></trkpt><trkpt lat="45.80784661563117" lon="9.85686046771456"><ele>395.1428571428571</ele><time>2026-04-26T07:27:58Z</time></trkpt><trkpt lat="45.807898553600175" lon="9.856919928411719"><ele>394.7142857142857</ele><time>2026-04-26T07:27:59Z</time></trkpt><trkpt lat="45.80794765002447" lon="9.856978511169492"><ele>394.28571428571433</ele><time>2026-04-26T07:28:00Z</time></trkpt><trkpt lat="45.808001422535696" lon="9.857041123076991"><ele>393.8571428571429</ele><time>2026-04-26T07:28:01Z</time></trkpt><trkpt lat="45.80805293101116" lon="9.85709980227804"><ele>393.42857142857144</ele><time>2026-04-26T07:28:02Z</time></trkpt><trkpt lat="45.80810509636639" lon="9.857158279474346"><ele>393.0</ele><time>2026-04-26T07:28:03Z</time></trkpt><trkpt lat="45.80815836406333" lon="9.857213339899925"><ele>393.00000000000006</ele><time>2026-04-26T07:28:04Z</time></trkpt><trkpt lat="45.80821171773953" lon="9.857271356324459"><ele>393.0</ele><time>2026-04-26T07:28:05Z</time></trkpt><trkpt lat="45.808266146158424" lon="9.857327473934104"><ele>393.0</ele><time>2026-04-26T07:28:06Z</time></trkpt><trkpt lat="45.80831999741198" lon="9.857380612697606"><ele>393.0</ele><time>2026-04-26T07:28:07Z</time></trkpt><trkpt lat="45.8083745769346" lon="9.857431341616817"><ele>393.0</ele><time>2026-04-26T07:28:08Z</time></trkpt><trkpt lat="45.80843093630352" lon="9.857482201507793"><ele>393.00000000000006</ele><time>2026-04-26T07:28:09Z</time></trkpt><trkpt lat="45.808485437200254" lon="9.857536594916462"><ele>393.0</ele><time>2026-04-26T07:28:10Z</time></trkpt><trkpt lat="45.8085403797964" lon="9.857591577387018"><ele>393.42857142857144</ele><time>2026-04-26T07:28:11Z</time></trkpt><trkpt lat="45.80859623121252" lon="9.857644400269628"><ele>393.8571428571429</ele><time>2026-04-26T07:28:12Z</time></trkpt><trkpt lat="45.80865165961813" lon="9.85769533473979"><ele>394.28571428571433</ele><time>2026-04-26T07:28:13Z</time></trkpt><trkpt lat="45.80870709662927" lon="9.85774594104058"><ele>394.7142857142857</ele><time>2026-04-26T07:28:14Z</time></trkpt><trkpt lat="45.80876216574262" lon="9.857800833375721"><ele>395.1428571428571</ele><time>2026-04-26T07:28:15Z</time></trkpt><trkpt lat="45.808815393542886" lon="9.857856380447634"><ele>395.5714285714286</ele><time>2026-04-26T07:28:16Z</time></trkpt><trkpt lat="45.80887029746361" lon="9.857909416305526"><ele>396.0</ele><time>2026-04-26T07:28:17Z</time></trkpt><trkpt lat="45.80892437682127" lon="9.85796322862394"><ele>396.0</ele><time>2026-04-26T07:28:18Z</time></trkpt><trkpt lat="45.80897927009437" lon="9.858015153631477"><ele>396.0</ele><time>2026-04-26T07:28:19Z</time></trkpt><trkpt lat="45.80903452382645" lon="9.858068588810363"><ele>396.0</ele><time>2026-04-26T07:28:20Z</time></trkpt><trkpt lat="45.80908740914086" lon="9.858119963444006"><ele>396.0</ele><time>2026-04-26T07:28:21Z</time></trkpt><trkpt lat="45.80914647417323" lon="9.858170013846594"><ele>396.0</ele><time>2026-04-26T07:28:22Z</time></trkpt><trkpt lat="45.80920102518222" lon="9.85822264430416"><ele>396.0</ele><time>2026-04-26T07:28:23Z</time></trkpt><trkpt lat="45.809258205822715" lon="9.858272301950894"><ele>396.0</ele><time>2026-04-26T07:28:24Z</time></trkpt><trkpt lat="45.80931433045592" lon="9.8583217332175"><ele>395.8571428571429</ele><time>2026-04-26T07:28:25Z</time></trkpt><trkpt lat="45.80936973735065" lon="9.85837664350575"><ele>395.71428571428567</ele><time>2026-04-26T07:28:26Z</time></trkpt><trkpt lat="45.80942243722112" lon="9.858432188879673"><ele>395.57142857142856</ele><time>2026-04-26T07:28:27Z</time></trkpt><trkpt lat="45.80947944258442" lon="9.858484057290736"><ele>395.42857142857144</ele><time>2026-04-26T07:28:28Z</time></trkpt><trkpt lat="45.80953658036889" lon="9.858533192151192"><ele>395.28571428571433</ele><time>2026-04-26T07:28:29Z</time></trkpt><trkpt lat="45.809591772167536" lon="9.85858418373324"><ele>395.1428571428571</ele><time>2026-04-26T07:28:30Z</time></trkpt><trkpt lat="45.80964646962521" lon="9.858641877323743"><ele>395.0</ele><time>2026-04-26T07:28:31Z</time></trkpt><trkpt lat="45.80970190829002" lon="9.858696949340437"><ele>394.85714285714283</ele><time>2026-04-26T07:28:32Z</time></trkpt><trkpt lat="45.80975683806813" lon="9.858749684583872"><ele>394.7142857142857</ele><time>2026-04-26T07:28:33Z</time></trkpt><trkpt lat="45.80981194555601" lon="9.85880356894453"><ele>394.57142857142856</ele><time>2026-04-26T07:28:34Z</time></trkpt><trkpt lat="45.809867765769" lon="9.858854805344931"><ele>394.42857142857144</ele><time>2026-04-26T07:28:35Z</time></trkpt><trkpt lat="45.8099216693059" lon="9.858910252151563"><ele>394.28571428571433</ele><time>2026-04-26T07:28:35.999Z</time></trkpt><trkpt lat="45.80997825399246" lon="9.858966288368388"><ele>394.14285714285717</ele><time>2026-04-26T07:28:36.999Z</time></trkpt><trkpt lat="45.81003254156091" lon="9.859020563305332"><ele>394.0</ele><time>2026-04-26T07:28:37.999Z</time></trkpt><trkpt lat="45.81008908814623" lon="9.859072680249447"><ele>394.0</ele><time>2026-04-26T07:28:38.999Z</time></trkpt><trkpt lat="45.810144400932586" lon="9.859124869581454"><ele>394.0</ele><time>2026-04-26T07:28:39.999Z</time></trkpt><trkpt lat="45.81020032074485" lon="9.859175888990242"><ele>394.0</ele><time>2026-04-26T07:28:40.999Z</time></trkpt><trkpt lat="45.810256827052115" lon="9.8592263681097"><ele>394.0</ele><time>2026-04-26T07:28:41.999Z</time></trkpt><trkpt lat="45.81031264665233" lon="9.859281184650506"><ele>394.0</ele><time>2026-04-26T07:28:42.999Z</time></trkpt><trkpt lat="45.810369784104246" lon="9.859333228312657"><ele>394.0</ele><time>2026-04-26T07:28:43.999Z</time></trkpt><trkpt lat="45.81042439134191" lon="9.859386597552916"><ele>394.0</ele><time>2026-04-26T07:28:44.999Z</time></trkpt><trkpt lat="45.8104814136431" lon="9.859441571858993"><ele>394.14285714285717</ele><time>2026-04-26T07:28:45.999Z</time></trkpt><trkpt lat="45.810534891593186" lon="9.859497195493963"><ele>394.28571428571433</ele><time>2026-04-26T07:28:46.999Z</time></trkpt><trkpt lat="45.8105930897135" lon="9.859551912650707"><ele>394.42857142857144</ele><time>2026-04-26T07:28:47.999Z</time></trkpt><trkpt lat="45.81064679380596" lon="9.859603654697034"><ele>394.57142857142856</ele><time>2026-04-26T07:28:48.999Z</time></trkpt><trkpt lat="45.81070135809026" lon="9.859657916686414"><ele>394.7142857142857</ele><time>2026-04-26T07:28:49.999Z</time></trkpt><trkpt lat="45.81075634663344" lon="9.859708703445033"><ele>394.85714285714283</ele><time>2026-04-26T07:28:50.999Z</time></trkpt><trkpt lat="45.81081017451642" lon="9.859760957331035"><ele>395.0</ele><time>2026-04-26T07:28:51.999Z</time></trkpt><trkpt lat="45.8108659543741" lon="9.859815959339782"><ele>394.99999999999994</ele><time>2026-04-26T07:28:52.999Z</time></trkpt><trkpt lat="45.81092434491902" lon="9.859872278449245"><ele>395.0</ele><time>2026-04-26T07:28:53.999Z</time></trkpt><trkpt lat="45.81103343980666" lon="9.859967725915611"><ele>395.0</ele><time>2026-04-26T07:28:55.999Z</time></trkpt><trkpt lat="45.81108746463864" lon="9.860021245889397"><ele>395.0</ele><time>2026-04-26T07:28:56.999Z</time></trkpt><trkpt lat="45.811143974110855" lon="9.860071004873818"><ele>394.99999999999994</ele><time>2026-04-26T07:28:57.999Z</time></trkpt><trkpt lat="45.81119976317628" lon="9.860117067849739"><ele>395.0</ele><time>2026-04-26T07:28:58.999Z</time></trkpt><trkpt lat="45.81125757612984" lon="9.86016794866909"><ele>395.1428571428571</ele><time>2026-04-26T07:28:59.999Z</time></trkpt><trkpt lat="45.81131316032844" lon="9.860212614039456"><ele>395.28571428571433</ele><time>2026-04-26T07:29:00.999Z</time></trkpt><trkpt lat="45.81137328948024" lon="9.860255155881049"><ele>395.42857142857144</ele><time>2026-04-26T07:29:01.999Z</time></trkpt><trkpt lat="45.81143135522164" lon="9.8602942877063"><ele>395.57142857142856</ele><time>2026-04-26T07:29:02.999Z</time></trkpt><trkpt lat="45.811493132919416" lon="9.860331863565719"><ele>395.71428571428567</ele><time>2026-04-26T07:29:03.999Z</time></trkpt><trkpt lat="45.81155074724731" lon="9.86036837748264"><ele>395.8571428571429</ele><time>2026-04-26T07:29:04.999Z</time></trkpt><trkpt lat="45.81161216565224" lon="9.8604031702581"><ele>396.0</ele><time>2026-04-26T07:29:05.999Z</time></trkpt><trkpt lat="45.81167519148591" lon="9.860434661552963"><ele>396.0</ele><time>2026-04-26T07:29:07Z</time></trkpt><trkpt lat="45.811738311448806" lon="9.86046457225916"><ele>396.0</ele><time>2026-04-26T07:29:08Z</time></trkpt><trkpt lat="45.81179967129538" lon="9.860489947865924"><ele>396.0</ele><time>2026-04-26T07:29:09Z</time></trkpt><trkpt lat="45.8118649981172" lon="9.860518141682517"><ele>396.0</ele><time>2026-04-26T07:29:10Z</time></trkpt><trkpt lat="45.811928207525106" lon="9.860536604111417"><ele>396.0</ele><time>2026-04-26T07:29:11Z</time></trkpt><trkpt lat="45.81199393763529" lon="9.860555334775013"><ele>396.0</ele><time>2026-04-26T07:29:12Z</time></trkpt><trkpt lat="45.81205784572615" lon="9.860571570173754"><ele>396.0</ele><time>2026-04-26T07:29:13Z</time></trkpt><trkpt lat="45.81212214046048" lon="9.860591202714899"><ele>396.14285714285717</ele><time>2026-04-26T07:29:14Z</time></trkpt><trkpt lat="45.81218712856911" lon="9.860603683066932"><ele>396.2857142857143</ele><time>2026-04-26T07:29:15Z</time></trkpt><trkpt lat="45.812253534530804" lon="9.860617473239042"><ele>396.42857142857144</ele><time>2026-04-26T07:29:16Z</time></trkpt><trkpt lat="45.81231676272343" lon="9.86062382005293"><ele>396.57142857142856</ele><time>2026-04-26T07:29:17Z</time></trkpt><trkpt lat="45.81238190484687" lon="9.860629949312814"><ele>396.71428571428567</ele><time>2026-04-26T07:29:18Z</time></trkpt><trkpt lat="45.81244788132044" lon="9.86062838270809"><ele>396.85714285714283</ele><time>2026-04-26T07:29:19Z</time></trkpt><trkpt lat="45.81251353405737" lon="9.86063241007983"><ele>397.0</ele><time>2026-04-26T07:29:20Z</time></trkpt><trkpt lat="45.81257996977319" lon="9.860633881105683"><ele>397.0</ele><time>2026-04-26T07:29:21Z</time></trkpt><trkpt lat="45.8126449903241" lon="9.86063356120938"><ele>397.0</ele><time>2026-04-26T07:29:22Z</time></trkpt><trkpt lat="45.81271041461724" lon="9.860625467015005"><ele>397.0</ele><time>2026-04-26T07:29:23Z</time></trkpt><trkpt lat="45.81277516338211" lon="9.86061560608538"><ele>397.0</ele><time>2026-04-26T07:29:24Z</time></trkpt><trkpt lat="45.812839635910144" lon="9.860606851736838"><ele>397.0</ele><time>2026-04-26T07:29:25Z</time></trkpt><trkpt lat="45.81290483062984" lon="9.8605951404369"><ele>397.0</ele><time>2026-04-26T07:29:26Z</time></trkpt><trkpt lat="45.81296876650282" lon="9.860579860633662"><ele>397.0</ele><time>2026-04-26T07:29:27Z</time></trkpt><trkpt lat="45.813033262862945" lon="9.860567726221817"><ele>397.2857142857143</ele><time>2026-04-26T07:29:28Z</time></trkpt><trkpt lat="45.813098697091206" lon="9.860557380493635"><ele>397.57142857142856</ele><time>2026-04-26T07:29:29Z</time></trkpt><trkpt lat="45.81316340134695" lon="9.860546140112604"><ele>397.8571428571429</ele><time>2026-04-26T07:29:30Z</time></trkpt><trkpt lat="45.8132288857842" lon="9.86053356263936"><ele>398.1428571428571</ele><time>2026-04-26T07:29:31Z</time></trkpt><trkpt lat="45.81329357683424" lon="9.860523659817963"><ele>398.42857142857144</ele><time>2026-04-26T07:29:32Z</time></trkpt><trkpt lat="45.81335641171322" lon="9.860510250163356"><ele>398.7142857142857</ele><time>2026-04-26T07:29:33Z</time></trkpt><trkpt lat="45.8134228920369" lon="9.86049591798134"><ele>399.0</ele><time>2026-04-26T07:29:34Z</time></trkpt><trkpt lat="45.813486708015695" lon="9.860487516763431"><ele>400.0</ele><time>2026-04-26T07:29:35Z</time></trkpt><trkpt lat="45.81355011274925" lon="9.860477102260562"><ele>401.0</ele><time>2026-04-26T07:29:36Z</time></trkpt><trkpt lat="45.81361319275175" lon="9.860463339436652"><ele>402.0</ele><time>2026-04-26T07:29:37Z</time></trkpt><trkpt lat="45.81367730482983" lon="9.860456440204846"><ele>403.0</ele><time>2026-04-26T07:29:38Z</time></trkpt><trkpt lat="45.81374129171296" lon="9.860443726924315"><ele>404.0</ele><time>2026-04-26T07:29:39Z</time></trkpt><trkpt lat="45.813806135435456" lon="9.860431967720722"><ele>405.0</ele><time>2026-04-26T07:29:40Z</time></trkpt><trkpt lat="45.81387094963478" lon="9.860418557399022"><ele>406.0</ele><time>2026-04-26T07:29:41Z</time></trkpt><trkpt lat="45.81393475922746" lon="9.860407849079435"><ele>406.0</ele><time>2026-04-26T07:29:42Z</time></trkpt><trkpt lat="45.814000002164285" lon="9.86040062160546"><ele>406.0</ele><time>2026-04-26T07:29:43Z</time></trkpt><trkpt lat="45.81406494892535" lon="9.860387137629287"><ele>406.0</ele><time>2026-04-26T07:29:44Z</time></trkpt><trkpt lat="45.814129911987095" lon="9.860375939964218"><ele>406.0</ele><time>2026-04-26T07:29:45Z</time></trkpt><trkpt lat="45.81419580078249" lon="9.860366239633676"><ele>406.0</ele><time>2026-04-26T07:29:46Z</time></trkpt><trkpt lat="45.814260810383225" lon="9.860357175408566"><ele>406.0</ele><time>2026-04-26T07:29:47Z</time></trkpt><trkpt lat="45.814328326078495" lon="9.860347740783604"><ele>406.0</ele><time>2026-04-26T07:29:48Z</time></trkpt><trkpt lat="45.81439353138966" lon="9.86034412024289"><ele>405.7142857142857</ele><time>2026-04-26T07:29:49Z</time></trkpt><trkpt lat="45.81446094229516" lon="9.860340632262234"><ele>405.42857142857144</ele><time>2026-04-26T07:29:50Z</time></trkpt><trkpt lat="45.81452914812536" lon="9.86034201355817"><ele>405.1428571428571</ele><time>2026-04-26T07:29:51Z</time></trkpt><trkpt lat="45.81459733552049" lon="9.860342812815915"><ele>404.8571428571429</ele><time>2026-04-26T07:29:52Z</time></trkpt><trkpt lat="45.81466880277536" lon="9.860342411306863"><ele>404.57142857142856</ele><time>2026-04-26T07:29:53Z</time></trkpt><trkpt lat="45.81473911848676" lon="9.860343604796945"><ele>404.2857142857143</ele><time>2026-04-26T07:29:54Z</time></trkpt><trkpt lat="45.81481286426104" lon="9.860347381774709"><ele>404.0</ele><time>2026-04-26T07:29:55Z</time></trkpt><trkpt lat="45.814885987451106" lon="9.860346357138868"><ele>404.0</ele><time>2026-04-26T07:29:56Z</time></trkpt><trkpt lat="45.814958261407455" lon="9.86034961864266"><ele>404.0</ele><time>2026-04-26T07:29:57Z</time></trkpt><trkpt lat="45.81503459358939" lon="9.860351798995715"><ele>404.0</ele><time>2026-04-26T07:29:58Z</time></trkpt><trkpt lat="45.815106306105704" lon="9.860356940811705"><ele>404.0</ele><time>2026-04-26T07:29:59Z</time></trkpt><trkpt lat="45.81518351577218" lon="9.86035916262989"><ele>404.0</ele><time>2026-04-26T07:30:00Z</time></trkpt><trkpt lat="45.81525902474786" lon="9.860364637150422"><ele>404.0</ele><time>2026-04-26T07:30:01Z</time></trkpt><trkpt lat="45.81533368354153" lon="9.86036128717685"><ele>404.0</ele><time>2026-04-26T07:30:02Z</time></trkpt><trkpt lat="45.81541038074415" lon="9.860370336798834"><ele>403.7142857142857</ele><time>2026-04-26T07:30:03Z</time></trkpt><trkpt lat="45.81548268835535" lon="9.860358435962855"><ele>403.42857142857144</ele><time>2026-04-26T07:30:04Z</time></trkpt><trkpt lat="45.815558604334285" lon="9.860368235902264"><ele>403.1428571428571</ele><time>2026-04-26T07:30:05Z</time></trkpt><trkpt lat="45.81562853810722" lon="9.86037131183145"><ele>402.8571428571429</ele><time>2026-04-26T07:30:06Z</time></trkpt><trkpt lat="45.815704007371764" lon="9.860368336140903"><ele>402.5714285714286</ele><time>2026-04-26T07:30:07Z</time></trkpt><trkpt lat="45.815776627102956" lon="9.860366119043029"><ele>402.2857142857143</ele><time>2026-04-26T07:30:08Z</time></trkpt><trkpt lat="45.81584970531145" lon="9.860368402598189"><ele>402.0</ele><time>2026-04-26T07:30:09Z</time></trkpt><trkpt lat="45.81592102802404" lon="9.860373536513672"><ele>401.85714285714283</ele><time>2026-04-26T07:30:10Z</time></trkpt><trkpt lat="45.81599302212432" lon="9.860372770236948"><ele>401.7142857142857</ele><time>2026-04-26T07:30:11Z</time></trkpt><trkpt lat="45.81606461179635" lon="9.86037946329051"><ele>401.57142857142856</ele><time>2026-04-26T07:30:12Z</time></trkpt><trkpt lat="45.81613906852421" lon="9.860379209163188"><ele>401.42857142857144</ele><time>2026-04-26T07:30:13Z</time></trkpt><trkpt lat="45.8162100985468" lon="9.86037772919623"><ele>401.28571428571433</ele><time>2026-04-26T07:30:14Z</time></trkpt><trkpt lat="45.816282826214454" lon="9.860382819449327"><ele>401.14285714285717</ele><time>2026-04-26T07:30:15Z</time></trkpt><trkpt lat="45.81635632699883" lon="9.860379386804839"><ele>401.0</ele><time>2026-04-26T07:30:16Z</time></trkpt><trkpt lat="45.81642386211153" lon="9.860380584439783"><ele>401.0</ele><time>2026-04-26T07:30:17Z</time></trkpt><trkpt lat="45.81649443426681" lon="9.860383626064603"><ele>401.0</ele><time>2026-04-26T07:30:18Z</time></trkpt><trkpt lat="45.81656316757339" lon="9.86038815188363"><ele>401.0</ele><time>2026-04-26T07:30:19Z</time></trkpt><trkpt lat="45.81662792039873" lon="9.860386533813513"><ele>401.0</ele><time>2026-04-26T07:30:20Z</time></trkpt><trkpt lat="45.81669228269091" lon="9.860388124466395"><ele>401.0</ele><time>2026-04-26T07:30:21Z</time></trkpt><trkpt lat="45.816759788656775" lon="9.860390131808664"><ele>401.0</ele><time>2026-04-26T07:30:22Z</time></trkpt><trkpt lat="45.81682705765969" lon="9.860390790967628"><ele>401.0</ele><time>2026-04-26T07:30:23Z</time></trkpt><trkpt lat="45.81689128650908" lon="9.860400373727082"><ele>401.2857142857143</ele><time>2026-04-26T07:30:24Z</time></trkpt><trkpt lat="45.81695682495529" lon="9.86040286393522"><ele>401.57142857142856</ele><time>2026-04-26T07:30:25Z</time></trkpt><trkpt lat="45.81702292181004" lon="9.860409570719641"><ele>401.8571428571429</ele><time>2026-04-26T07:30:26Z</time></trkpt><trkpt lat="45.81708888509367" lon="9.860408683934974"><ele>402.1428571428571</ele><time>2026-04-26T07:30:27Z</time></trkpt><trkpt lat="45.81715568407915" lon="9.860415157004422"><ele>402.4285714285714</ele><time>2026-04-26T07:30:28Z</time></trkpt><trkpt lat="45.8172217385093" lon="9.860418673829336"><ele>402.7142857142857</ele><time>2026-04-26T07:30:29Z</time></trkpt><trkpt lat="45.81728880987066" lon="9.860422520922434"><ele>403.0</ele><time>2026-04-26T07:30:30Z</time></trkpt><trkpt lat="45.817352979062896" lon="9.860424990455519"><ele>403.0</ele><time>2026-04-26T07:30:31Z</time></trkpt><trkpt lat="45.81741896259935" lon="9.860428492452593"><ele>403.0</ele><time>2026-04-26T07:30:32Z</time></trkpt><trkpt lat="45.817483752095036" lon="9.860430385211028"><ele>403.0</ele><time>2026-04-26T07:30:33Z</time></trkpt><trkpt lat="45.817549679615055" lon="9.860436394090357"><ele>403.0</ele><time>2026-04-26T07:30:34Z</time></trkpt><trkpt lat="45.81761319521378" lon="9.860449760689297"><ele>403.0</ele><time>2026-04-26T07:30:35Z</time></trkpt><trkpt lat="45.817676178812945" lon="9.860476826017893"><ele>403.0</ele><time>2026-04-26T07:30:36Z</time></trkpt><trkpt lat="45.8177296976523" lon="9.860526563060743"><ele>403.0</ele><time>2026-04-26T07:30:37Z</time></trkpt><trkpt lat="45.81780179713047" lon="9.860657552600221"><ele>404.25</ele><time>2026-04-26T07:30:39Z</time></trkpt><trkpt lat="45.81785581440628" lon="9.860809226097278"><ele>405.5</ele><time>2026-04-26T07:30:41Z</time></trkpt><trkpt lat="45.81793405114615" lon="9.860939315190684"><ele>406.75</ele><time>2026-04-26T07:30:43Z</time></trkpt><trkpt lat="45.81803790627872" lon="9.860993822940964"><ele>408.0</ele><time>2026-04-26T07:30:45Z</time></trkpt><trkpt lat="45.81813573111533" lon="9.860946770396186"><ele>408.0</ele><time>2026-04-26T07:30:47Z</time></trkpt><trkpt lat="45.81820462392238" lon="9.86082142456208"><ele>408.0</ele><time>2026-04-26T07:30:49Z</time></trkpt><trkpt lat="45.81824044063876" lon="9.860731037429519"><ele>408.0</ele><time>2026-04-26T07:30:50Z</time></trkpt><trkpt lat="45.81828022409048" lon="9.860641758117804"><ele>408.0</ele><time>2026-04-26T07:30:51Z</time></trkpt><trkpt lat="45.81832669461151" lon="9.860560905478504"><ele>408.0</ele><time>2026-04-26T07:30:52Z</time></trkpt><trkpt lat="45.81838186510574" lon="9.860497854887658"><ele>408.0</ele><time>2026-04-26T07:30:53Z</time></trkpt><trkpt lat="45.81844255711952" lon="9.860456182832147"><ele>407.8333333333333</ele><time>2026-04-26T07:30:54Z</time></trkpt><trkpt lat="45.81850501211422" lon="9.860441259723828"><ele>407.66666666666663</ele><time>2026-04-26T07:30:55Z</time></trkpt><trkpt lat="45.818568428321065" lon="9.860438849401875"><ele>407.5</ele><time>2026-04-26T07:30:56Z</time></trkpt><trkpt lat="45.81863383342801" lon="9.860443373734958"><ele>407.3333333333333</ele><time>2026-04-26T07:30:57Z</time></trkpt><trkpt lat="45.81869716319436" lon="9.860443890566344"><ele>407.16666666666663</ele><time>2026-04-26T07:30:58Z</time></trkpt><trkpt lat="45.81881825619053" lon="9.860448848339098"><ele>407.0</ele><time>2026-04-26T07:31:00Z</time></trkpt><trkpt lat="45.818939902088616" lon="9.860454736473665"><ele>407.0</ele><time>2026-04-26T07:31:02Z</time></trkpt><trkpt lat="45.81906090601007" lon="9.86045596755515"><ele>407.0</ele><time>2026-04-26T07:31:04Z</time></trkpt><trkpt lat="45.81912495108264" lon="9.860455348027251"><ele>407.0</ele><time>2026-04-26T07:31:05Z</time></trkpt><trkpt lat="45.81924496282963" lon="9.860460543208895"><ele>407.0</ele><time>2026-04-26T07:31:07Z</time></trkpt><trkpt lat="45.81936513119418" lon="9.860458067593747"><ele>407.0</ele><time>2026-04-26T07:31:09Z</time></trkpt><trkpt lat="45.81948664979775" lon="9.860462191616326"><ele>408.20000000000005</ele><time>2026-04-26T07:31:11Z</time></trkpt><trkpt lat="45.819607392406624" lon="9.860464835705407"><ele>409.4</ele><time>2026-04-26T07:31:13Z</time></trkpt><trkpt lat="45.8196719801776" lon="9.860464941377261"><ele>410.6</ele><time>2026-04-26T07:31:14Z</time></trkpt><trkpt lat="45.81979546840222" lon="9.860473531056584"><ele>411.79999999999995</ele><time>2026-04-26T07:31:16Z</time></trkpt><trkpt lat="45.81985908516955" lon="9.860471050917981"><ele>413.0</ele><time>2026-04-26T07:31:17Z</time></trkpt><trkpt lat="45.81998252046243" lon="9.86048000466158"><ele>413.0</ele><time>2026-04-26T07:31:19Z</time></trkpt><trkpt lat="45.820046377438764" lon="9.860481185742797"><ele>413.0</ele><time>2026-04-26T07:31:20Z</time></trkpt><trkpt lat="45.82017029331384" lon="9.86048401447764"><ele>413.0</ele><time>2026-04-26T07:31:22Z</time></trkpt><trkpt lat="45.820295170279465" lon="9.86049313404458"><ele>413.0</ele><time>2026-04-26T07:31:24Z</time></trkpt><trkpt lat="45.820418778678174" lon="9.860496883274948"><ele>413.0</ele><time>2026-04-26T07:31:26Z</time></trkpt><trkpt lat="45.82054536069655" lon="9.86050104971025"><ele>412.7142857142857</ele><time>2026-04-26T07:31:28Z</time></trkpt><trkpt lat="45.820611783403606" lon="9.860503633254178"><ele>412.42857142857144</ele><time>2026-04-26T07:31:29Z</time></trkpt><trkpt lat="45.82067677195268" lon="9.860504060869738"><ele>412.1428571428571</ele><time>2026-04-26T07:31:30Z</time></trkpt><trkpt lat="45.820741086976426" lon="9.860506895609674"><ele>411.8571428571429</ele><time>2026-04-26T07:31:31Z</time></trkpt><trkpt lat="45.820807367156284" lon="9.860511023383411"><ele>411.57142857142856</ele><time>2026-04-26T07:31:32Z</time></trkpt><trkpt lat="45.82087125428334" lon="9.86051178072678"><ele>411.2857142857143</ele><time>2026-04-26T07:31:33Z</time></trkpt><trkpt lat="45.82093749516142" lon="9.860518441906883"><ele>411.0</ele><time>2026-04-26T07:31:34Z</time></trkpt><trkpt lat="45.82100267668096" lon="9.860520079452863"><ele>411.57142857142856</ele><time>2026-04-26T07:31:35Z</time></trkpt><trkpt lat="45.82106843858529" lon="9.860521131571321"><ele>412.1428571428571</ele><time>2026-04-26T07:31:36Z</time></trkpt><trkpt lat="45.821134665455915" lon="9.860520474298829"><ele>412.7142857142857</ele><time>2026-04-26T07:31:37Z</time></trkpt><trkpt lat="45.82119867869697" lon="9.860524500092419"><ele>413.2857142857143</ele><time>2026-04-26T07:31:38Z</time></trkpt><trkpt lat="45.821264033341116" lon="9.860523242597337"><ele>413.8571428571429</ele><time>2026-04-26T07:31:39Z</time></trkpt><trkpt lat="45.821327567806165" lon="9.860525660850257"><ele>414.42857142857144</ele><time>2026-04-26T07:31:40Z</time></trkpt><trkpt lat="45.82139089223727" lon="9.86052918191592"><ele>415.0</ele><time>2026-04-26T07:31:41Z</time></trkpt><trkpt lat="45.82145532651419" lon="9.860537379184057"><ele>415.0</ele><time>2026-04-26T07:31:42Z</time></trkpt><trkpt lat="45.82151815557029" lon="9.860550085751438"><ele>415.0</ele><time>2026-04-26T07:31:43Z</time></trkpt><trkpt lat="45.821581537323965" lon="9.86056536109856"><ele>415.0</ele><time>2026-04-26T07:31:44Z</time></trkpt><trkpt lat="45.821645108062505" lon="9.860581577486707"><ele>415.0</ele><time>2026-04-26T07:31:45Z</time></trkpt><trkpt lat="45.82170954456795" lon="9.86060125984159"><ele>415.0</ele><time>2026-04-26T07:31:46Z</time></trkpt><trkpt lat="45.82177194086062" lon="9.86062745803956"><ele>415.0</ele><time>2026-04-26T07:31:47Z</time></trkpt><trkpt lat="45.82183390809605" lon="9.86065213812589"><ele>415.0</ele><time>2026-04-26T07:31:48Z</time></trkpt><trkpt lat="45.82189501563973" lon="9.860685553037724"><ele>414.50000000000006</ele><time>2026-04-26T07:31:49Z</time></trkpt><trkpt lat="45.821954901116285" lon="9.860714426129471"><ele>414.0</ele><time>2026-04-26T07:31:50Z</time></trkpt><trkpt lat="45.82201700705953" lon="9.860736557590554"><ele>413.5</ele><time>2026-04-26T07:31:51Z</time></trkpt><trkpt lat="45.82213563511666" lon="9.86078501137452"><ele>413.0</ele><time>2026-04-26T07:31:53Z</time></trkpt><trkpt lat="45.822197074928795" lon="9.860810537639482"><ele>412.50000000000006</ele><time>2026-04-26T07:31:54Z</time></trkpt><trkpt lat="45.822313974397005" lon="9.860864731687531"><ele>412.0</ele><time>2026-04-26T07:31:56Z</time></trkpt><trkpt lat="45.82242629376942" lon="9.860922758393984"><ele>417.25</ele><time>2026-04-26T07:31:58Z</time></trkpt><trkpt lat="45.822540648953925" lon="9.860976953455989"><ele>422.5</ele><time>2026-04-26T07:32:00Z</time></trkpt><trkpt lat="45.822651481608276" lon="9.861030677793472"><ele>427.75</ele><time>2026-04-26T07:32:02Z</time></trkpt><trkpt lat="45.82275619184079" lon="9.861084180803564"><ele>433.0</ele><time>2026-04-26T07:32:04Z</time></trkpt><trkpt lat="45.82286939699719" lon="9.861142945802422"><ele>433.0</ele><time>2026-04-26T07:32:06Z</time></trkpt><trkpt lat="45.82298449054792" lon="9.86120011267669"><ele>433.0</ele><time>2026-04-26T07:32:08Z</time></trkpt><trkpt lat="45.823098144476965" lon="9.861253498836628"><ele>433.0</ele><time>2026-04-26T07:32:10Z</time></trkpt><trkpt lat="45.823208823244265" lon="9.861308730659198"><ele>433.0</ele><time>2026-04-26T07:32:12Z</time></trkpt><trkpt lat="45.823320617469705" lon="9.861366343949484"><ele>433.0</ele><time>2026-04-26T07:32:14Z</time></trkpt><trkpt lat="45.82343255928213" lon="9.861418818409549"><ele>433.0</ele><time>2026-04-26T07:32:16Z</time></trkpt><trkpt lat="45.82353916532054" lon="9.861469361343932"><ele>433.0</ele><time>2026-04-26T07:32:18Z</time></trkpt><trkpt lat="45.82364981455006" lon="9.861523980532304"><ele>433.0</ele><time>2026-04-26T07:32:20Z</time></trkpt><trkpt lat="45.823759435101614" lon="9.86158433503086"><ele>435.0</ele><time>2026-04-26T07:32:22Z</time></trkpt><trkpt lat="45.823869346692014" lon="9.861638321027037"><ele>437.0</ele><time>2026-04-26T07:32:24Z</time></trkpt><trkpt lat="45.82398035636577" lon="9.861691401461421"><ele>439.0</ele><time>2026-04-26T07:32:26Z</time></trkpt><trkpt lat="45.82409068143111" lon="9.861745988931677"><ele>441.0</ele><time>2026-04-26T07:32:28Z</time></trkpt><trkpt lat="45.82420218352572" lon="9.861800654500822"><ele>441.0</ele><time>2026-04-26T07:32:30Z</time></trkpt><trkpt lat="45.82431152529254" lon="9.861848264316734"><ele>441.0</ele><time>2026-04-26T07:32:32Z</time></trkpt><trkpt lat="45.82437082343154" lon="9.86188405421254"><ele>441.0</ele><time>2026-04-26T07:32:33Z</time></trkpt><trkpt lat="45.824482837763675" lon="9.861937820835156"><ele>441.0</ele><time>2026-04-26T07:32:35Z</time></trkpt><trkpt lat="45.824594300338156" lon="9.861996167879644"><ele>441.0</ele><time>2026-04-26T07:32:37Z</time></trkpt><trkpt lat="45.82470426795469" lon="9.862046552549941"><ele>437.75</ele><time>2026-04-26T07:32:39Z</time></trkpt><trkpt lat="45.82482208353782" lon="9.862104126678156"><ele>434.5</ele><time>2026-04-26T07:32:41Z</time></trkpt><trkpt lat="45.82493751209919" lon="9.862159736976833"><ele>431.25</ele><time>2026-04-26T07:32:43Z</time></trkpt><trkpt lat="45.82504983249796" lon="9.862213053166249"><ele>428.0</ele><time>2026-04-26T07:32:45Z</time></trkpt><trkpt lat="45.82515842590541" lon="9.862266324055136"><ele>427.0</ele><time>2026-04-26T07:32:47Z</time></trkpt><trkpt lat="45.825267351949805" lon="9.862321540979476"><ele>425.99999999999994</ele><time>2026-04-26T07:32:49Z</time></trkpt><trkpt lat="45.82537287290042" lon="9.862375402785657"><ele>425.0</ele><time>2026-04-26T07:32:51Z</time></trkpt><trkpt lat="45.82547483199868" lon="9.862424511639938"><ele>424.0</ele><time>2026-04-26T07:32:53Z</time></trkpt><trkpt lat="45.8255815037931" lon="9.86247631856969"><ele>423.0</ele><time>2026-04-26T07:32:55Z</time></trkpt><trkpt lat="45.82569099409995" lon="9.862524927517498"><ele>423.0</ele><time>2026-04-26T07:32:57Z</time></trkpt><trkpt lat="45.8257997978901" lon="9.86256523425986"><ele>423.0</ele><time>2026-04-26T07:32:59Z</time></trkpt><trkpt lat="45.82590680911592" lon="9.862598056112814"><ele>423.0</ele><time>2026-04-26T07:33:01Z</time></trkpt><trkpt lat="45.825968925434516" lon="9.862613290180372"><ele>423.0</ele><time>2026-04-26T07:33:02Z</time></trkpt><trkpt lat="45.82609453923736" lon="9.862634178660686"><ele>423.0</ele><time>2026-04-26T07:33:04Z</time></trkpt><trkpt lat="45.82621765413681" lon="9.862641543978432"><ele>424.79999999999995</ele><time>2026-04-26T07:33:06Z</time></trkpt><trkpt lat="45.82634154825251" lon="9.862652114324334"><ele>426.6</ele><time>2026-04-26T07:33:08Z</time></trkpt><trkpt lat="45.82646617107794" lon="9.862671017860482"><ele>428.40000000000003</ele><time>2026-04-26T07:33:10Z</time></trkpt><trkpt lat="45.82659478135088" lon="9.862696301946501"><ele>430.20000000000005</ele><time>2026-04-26T07:33:12Z</time></trkpt><trkpt lat="45.826658289890084" lon="9.862715138516172"><ele>432.0</ele><time>2026-04-26T07:33:13Z</time></trkpt><trkpt lat="45.82672244150526" lon="9.862735923489376"><ele>429.6</ele><time>2026-04-26T07:33:13.999Z</time></trkpt><trkpt lat="45.82684456968496" lon="9.862780319339805"><ele>427.20000000000005</ele><time>2026-04-26T07:33:15.999Z</time></trkpt><trkpt lat="45.82696601370385" lon="9.862841230688057"><ele>424.8</ele><time>2026-04-26T07:33:17.999Z</time></trkpt><trkpt lat="45.82703008678321" lon="9.862873352585519"><ele>422.4</ele><time>2026-04-26T07:33:19Z</time></trkpt><trkpt lat="45.827092661830015" lon="9.862912282687638"><ele>420.0</ele><time>2026-04-26T07:33:20Z</time></trkpt><trkpt lat="45.82715428080527" lon="9.862948977176496"><ele>420.0</ele><time>2026-04-26T07:33:21Z</time></trkpt><trkpt lat="45.827217870278325" lon="9.862992580066786"><ele>420.0</ele><time>2026-04-26T07:33:22Z</time></trkpt><trkpt lat="45.827275647802274" lon="9.863039531859329"><ele>420.0</ele><time>2026-04-26T07:33:23Z</time></trkpt><trkpt lat="45.827342574521246" lon="9.863080441141246"><ele>420.0</ele><time>2026-04-26T07:33:24Z</time></trkpt><trkpt lat="45.82740157205089" lon="9.863126007622634"><ele>420.0</ele><time>2026-04-26T07:33:25Z</time></trkpt><trkpt lat="45.827464595943155" lon="9.863168770399598"><ele>420.0</ele><time>2026-04-26T07:33:26Z</time></trkpt><trkpt lat="45.82752365273879" lon="9.863215707702818"><ele>420.0</ele><time>2026-04-26T07:33:27Z</time></trkpt><trkpt lat="45.8275855334286" lon="9.863260983504532"><ele>418.6666666666667</ele><time>2026-04-26T07:33:28Z</time></trkpt><trkpt lat="45.82764475743422" lon="9.86330335716134"><ele>417.33333333333337</ele><time>2026-04-26T07:33:29Z</time></trkpt><trkpt lat="45.8277041423895" lon="9.863345673025394"><ele>416.0</ele><time>2026-04-26T07:33:30Z</time></trkpt><trkpt lat="45.82775931346577" lon="9.863393433390222"><ele>414.6666666666667</ele><time>2026-04-26T07:33:31Z</time></trkpt><trkpt lat="45.827815744304246" lon="9.863439262727427"><ele>413.33333333333337</ele><time>2026-04-26T07:33:32Z</time></trkpt><trkpt lat="45.82792749216517" lon="9.863516013941508"><ele>412.0</ele><time>2026-04-26T07:33:34Z</time></trkpt><trkpt lat="45.82803924151506" lon="9.863601543231026"><ele>414.99999999999994</ele><time>2026-04-26T07:33:36Z</time></trkpt><trkpt lat="45.82809658549518" lon="9.863647859038528"><ele>418.0</ele><time>2026-04-26T07:33:37Z</time></trkpt><trkpt lat="45.828157155654836" lon="9.863693895026492"><ele>421.0</ele><time>2026-04-26T07:33:38Z</time></trkpt><trkpt lat="45.82821856736393" lon="9.863736063407673"><ele>424.0</ele><time>2026-04-26T07:33:39Z</time></trkpt><trkpt lat="45.82827860638406" lon="9.863780892564602"><ele>427.0</ele><time>2026-04-26T07:33:40Z</time></trkpt><trkpt lat="45.82834045783469" lon="9.863822503455975"><ele>429.99999999999994</ele><time>2026-04-26T07:33:41Z</time></trkpt><trkpt lat="45.828396434366056" lon="9.863866031157432"><ele>433.0</ele><time>2026-04-26T07:33:42Z</time></trkpt><trkpt lat="45.82845889205737" lon="9.863907155100927"><ele>431.00000000000006</ele><time>2026-04-26T07:33:43Z</time></trkpt><trkpt lat="45.82851681899278" lon="9.863948555621656"><ele>429.0</ele><time>2026-04-26T07:33:44Z</time></trkpt><trkpt lat="45.828575644259594" lon="9.863993209147635"><ele>427.0</ele><time>2026-04-26T07:33:45Z</time></trkpt><trkpt lat="45.82863734000831" lon="9.864035310383839"><ele>425.0</ele><time>2026-04-26T07:33:46Z</time></trkpt><trkpt lat="45.82869656757878" lon="9.864075773292168"><ele>423.00000000000006</ele><time>2026-04-26T07:33:47Z</time></trkpt><trkpt lat="45.82875537300216" lon="9.864118643519825"><ele>421.0</ele><time>2026-04-26T07:33:48Z</time></trkpt><trkpt lat="45.828874715748725" lon="9.864189926788944"><ele>421.00000000000006</ele><time>2026-04-26T07:33:50Z</time></trkpt><trkpt lat="45.82893628876125" lon="9.864226394220243"><ele>421.0</ele><time>2026-04-26T07:33:51Z</time></trkpt><trkpt lat="45.828998352742516" lon="9.864263373220611"><ele>421.0</ele><time>2026-04-26T07:33:52Z</time></trkpt><trkpt lat="45.82905832161339" lon="9.864300337947185"><ele>421.0</ele><time>2026-04-26T07:33:53Z</time></trkpt><trkpt lat="45.82912107962951" lon="9.864340147277852"><ele>421.0</ele><time>2026-04-26T07:33:54Z</time></trkpt><trkpt lat="45.829185107250034" lon="9.86437937571765"><ele>421.00000000000006</ele><time>2026-04-26T07:33:55Z</time></trkpt><trkpt lat="45.82924491415328" lon="9.864416581182335"><ele>421.0</ele><time>2026-04-26T07:33:56Z</time></trkpt><trkpt lat="45.82930855877746" lon="9.864438726596752"><ele>422.1666666666667</ele><time>2026-04-26T07:33:57Z</time></trkpt><trkpt lat="45.82936686830776" lon="9.864487170261071"><ele>423.33333333333337</ele><time>2026-04-26T07:33:58Z</time></trkpt><trkpt lat="45.82943834356684" lon="9.864522956033845"><ele>424.5</ele><time>2026-04-26T07:33:59Z</time></trkpt><trkpt lat="45.82954806801135" lon="9.864595038520608"><ele>425.66666666666663</ele><time>2026-04-26T07:34:01Z</time></trkpt><trkpt lat="45.82961191337978" lon="9.864632608111991"><ele>426.8333333333333</ele><time>2026-04-26T07:34:02Z</time></trkpt><trkpt lat="45.82967878403544" lon="9.86466787866951"><ele>428.0</ele><time>2026-04-26T07:34:03Z</time></trkpt><trkpt lat="45.82974481094903" lon="9.864705581245783"><ele>428.00000000000006</ele><time>2026-04-26T07:34:04Z</time></trkpt><trkpt lat="45.82981176434641" lon="9.864745543941"><ele>428.0</ele><time>2026-04-26T07:34:05Z</time></trkpt><trkpt lat="45.8298804501367" lon="9.864786364410083"><ele>428.0</ele><time>2026-04-26T07:34:06Z</time></trkpt><trkpt lat="45.82994768164433" lon="9.864824029225078"><ele>428.0</ele><time>2026-04-26T07:34:07Z</time></trkpt><trkpt lat="45.830020422378404" lon="9.864864043515139"><ele>428.0</ele><time>2026-04-26T07:34:08Z</time></trkpt><trkpt lat="45.83008673623129" lon="9.864907406894984"><ele>428.00000000000006</ele><time>2026-04-26T07:34:09Z</time></trkpt><trkpt lat="45.83015449257754" lon="9.86494723469322"><ele>428.0</ele><time>2026-04-26T07:34:10Z</time></trkpt><trkpt lat="45.83021950414103" lon="9.864988430891039"><ele>428.14285714285717</ele><time>2026-04-26T07:34:11Z</time></trkpt><trkpt lat="45.830285390064695" lon="9.865025664776967"><ele>428.2857142857143</ele><time>2026-04-26T07:34:12Z</time></trkpt><trkpt lat="45.83034864435188" lon="9.86506193629165"><ele>428.42857142857144</ele><time>2026-04-26T07:34:13Z</time></trkpt><trkpt lat="45.830411562419215" lon="9.865098551739493"><ele>428.57142857142856</ele><time>2026-04-26T07:34:14Z</time></trkpt><trkpt lat="45.83047260265322" lon="9.865135491418494"><ele>428.7142857142857</ele><time>2026-04-26T07:34:15Z</time></trkpt><trkpt lat="45.83053151730387" lon="9.86517195086845"><ele>428.8571428571429</ele><time>2026-04-26T07:34:16Z</time></trkpt><trkpt lat="45.83059005156951" lon="9.865208308087636"><ele>429.0</ele><time>2026-04-26T07:34:17Z</time></trkpt><trkpt lat="45.83064862980726" lon="9.8652455835227"><ele>429.0</ele><time>2026-04-26T07:34:18Z</time></trkpt><trkpt lat="45.8307090120962" lon="9.8652847617682"><ele>429.0</ele><time>2026-04-26T07:34:19Z</time></trkpt><trkpt lat="45.83076811489635" lon="9.865320682264368"><ele>429.0</ele><time>2026-04-26T07:34:20Z</time></trkpt><trkpt lat="45.830827582928436" lon="9.865360369847417"><ele>429.0</ele><time>2026-04-26T07:34:21Z</time></trkpt><trkpt lat="45.83088937300929" lon="9.865394255837062"><ele>429.0</ele><time>2026-04-26T07:34:22Z</time></trkpt><trkpt lat="45.83094872669259" lon="9.865427626324198"><ele>429.0</ele><time>2026-04-26T07:34:23Z</time></trkpt><trkpt lat="45.831008057035525" lon="9.865461259721563"><ele>429.0</ele><time>2026-04-26T07:34:24Z</time></trkpt><trkpt lat="45.83106731424879" lon="9.865496986629521"><ele>427.3333333333333</ele><time>2026-04-26T07:34:25Z</time></trkpt><trkpt lat="45.8311265586131" lon="9.865532801290685"><ele>425.66666666666663</ele><time>2026-04-26T07:34:26Z</time></trkpt><trkpt lat="45.831184990973405" lon="9.865571658684173"><ele>424.0</ele><time>2026-04-26T07:34:27Z</time></trkpt><trkpt lat="45.83129234953846" lon="9.865649562905496"><ele>422.3333333333333</ele><time>2026-04-26T07:34:29Z</time></trkpt><trkpt lat="45.831351068211646" lon="9.865687434241446"><ele>420.66666666666663</ele><time>2026-04-26T07:34:30Z</time></trkpt><trkpt lat="45.831411055836014" lon="9.865723999940776"><ele>419.0</ele><time>2026-04-26T07:34:31Z</time></trkpt><trkpt lat="45.831520972291585" lon="9.865802491687942"><ele>419.0</ele><time>2026-04-26T07:34:33Z</time></trkpt><trkpt lat="45.83162958120295" lon="9.86588834491028"><ele>419.0</ele><time>2026-04-26T07:34:35Z</time></trkpt><trkpt lat="45.83173580542342" lon="9.86596785924556"><ele>419.0</ele><time>2026-04-26T07:34:37Z</time></trkpt><trkpt lat="45.831843565413976" lon="9.86604899245973"><ele>419.0</ele><time>2026-04-26T07:34:39Z</time></trkpt><trkpt lat="45.831951107383276" lon="9.866136155568112"><ele>419.2</ele><time>2026-04-26T07:34:41Z</time></trkpt><trkpt lat="45.832054527719585" lon="9.86621882523489"><ele>419.4</ele><time>2026-04-26T07:34:43Z</time></trkpt><trkpt lat="45.83216347858832" lon="9.86629690334987"><ele>419.6</ele><time>2026-04-26T07:34:45Z</time></trkpt><trkpt lat="45.83222055909357" lon="9.866335076840965"><ele>419.8</ele><time>2026-04-26T07:34:46Z</time></trkpt><trkpt lat="45.8322763703431" lon="9.86637801042675"><ele>420.0</ele><time>2026-04-26T07:34:47Z</time></trkpt><trkpt lat="45.832383199966266" lon="9.86646356449461"><ele>420.0</ele><time>2026-04-26T07:34:49Z</time></trkpt><trkpt lat="45.83243914759837" lon="9.866507272401297"><ele>420.0</ele><time>2026-04-26T07:34:50Z</time></trkpt><trkpt lat="45.832494683301704" lon="9.866550240350193"><ele>420.0</ele><time>2026-04-26T07:34:51Z</time></trkpt><trkpt lat="45.83260421895728" lon="9.866631112990698"><ele>420.0</ele><time>2026-04-26T07:34:53Z</time></trkpt><trkpt lat="45.83271334622182" lon="9.866712782586795"><ele>420.0</ele><time>2026-04-26T07:34:55Z</time></trkpt><trkpt lat="45.83282230922708" lon="9.866797349177139"><ele>421.5</ele><time>2026-04-26T07:34:57Z</time></trkpt><trkpt lat="45.83287867234516" lon="9.866839363894782"><ele>423.0</ele><time>2026-04-26T07:34:58Z</time></trkpt><trkpt lat="45.832934432771836" lon="9.866883508879162"><ele>424.5</ele><time>2026-04-26T07:34:59Z</time></trkpt><trkpt lat="45.832990185490566" lon="9.866928048772582"><ele>426.0</ele><time>2026-04-26T07:35:00Z</time></trkpt><trkpt lat="45.833046620132585" lon="9.86696844413229"><ele>427.5</ele><time>2026-04-26T07:35:01Z</time></trkpt><trkpt lat="45.83315706422905" lon="9.867055740676674"><ele>429.0</ele><time>2026-04-26T07:35:03Z</time></trkpt><trkpt lat="45.833268415854036" lon="9.867134828116422"><ele>429.0</ele><time>2026-04-26T07:35:05Z</time></trkpt><trkpt lat="45.83337942604973" lon="9.867218331113634"><ele>429.0</ele><time>2026-04-26T07:35:07Z</time></trkpt><trkpt lat="45.83343591656237" lon="9.867262788333596"><ele>429.0</ele><time>2026-04-26T07:35:08Z</time></trkpt><trkpt lat="45.833547391410136" lon="9.867345277498735"><ele>429.0</ele><time>2026-04-26T07:35:10Z</time></trkpt><trkpt lat="45.83365690490374" lon="9.867426829056576"><ele>429.0</ele><time>2026-04-26T07:35:12Z</time></trkpt><trkpt lat="45.83376782969892" lon="9.867512237312354"><ele>427.4</ele><time>2026-04-26T07:35:14Z</time></trkpt><trkpt lat="45.83387572811225" lon="9.867594299686106"><ele>425.79999999999995</ele><time>2026-04-26T07:35:16Z</time></trkpt><trkpt lat="45.833985372180265" lon="9.867672967881761"><ele>424.20000000000005</ele><time>2026-04-26T07:35:18Z</time></trkpt><trkpt lat="45.83404125671236" lon="9.867715074015946"><ele>422.6</ele><time>2026-04-26T07:35:19Z</time></trkpt><trkpt lat="45.83414956622393" lon="9.86779594335778"><ele>421.0</ele><time>2026-04-26T07:35:20.999Z</time></trkpt><trkpt lat="45.83425852626173" lon="9.86787801202271"><ele>422.75</ele><time>2026-04-26T07:35:22.999Z</time></trkpt><trkpt lat="45.83436876841959" lon="9.867960736908328"><ele>424.5</ele><time>2026-04-26T07:35:25Z</time></trkpt><trkpt lat="45.83447864972099" lon="9.868043985350885"><ele>426.25</ele><time>2026-04-26T07:35:27Z</time></trkpt><trkpt lat="45.83458595890184" lon="9.868123860304618"><ele>428.0</ele><time>2026-04-26T07:35:29Z</time></trkpt><trkpt lat="45.83469007581591" lon="9.868201583851194"><ele>428.0</ele><time>2026-04-26T07:35:31Z</time></trkpt><trkpt lat="45.83479385947371" lon="9.868281061771786"><ele>428.0</ele><time>2026-04-26T07:35:33Z</time></trkpt><trkpt lat="45.834901489346045" lon="9.868360896981082"><ele>428.0</ele><time>2026-04-26T07:35:35Z</time></trkpt><trkpt lat="45.835007261411164" lon="9.868440224586827"><ele>428.0</ele><time>2026-04-26T07:35:37Z</time></trkpt><trkpt lat="45.835111695769555" lon="9.868525341833424"><ele>428.0</ele><time>2026-04-26T07:35:39Z</time></trkpt><trkpt lat="45.8352157123438" lon="9.868608672808259"><ele>428.0</ele><time>2026-04-26T07:35:41Z</time></trkpt><trkpt lat="45.835320650878224" lon="9.868694803269968"><ele>428.0</ele><time>2026-04-26T07:35:43Z</time></trkpt><trkpt lat="45.835428377150436" lon="9.86878100226495"><ele>428.0</ele><time>2026-04-26T07:35:45Z</time></trkpt><trkpt lat="45.83553482439162" lon="9.868870195497879"><ele>428.0</ele><time>2026-04-26T07:35:47Z</time></trkpt><trkpt lat="45.835638858496026" lon="9.868967880367697"><ele>428.0</ele><time>2026-04-26T07:35:49Z</time></trkpt><trkpt lat="45.83574288208988" lon="9.869057066023986"><ele>428.0</ele><time>2026-04-26T07:35:51Z</time></trkpt><trkpt lat="45.83584802740991" lon="9.86915632026593"><ele>428.0</ele><time>2026-04-26T07:35:53Z</time></trkpt><trkpt lat="45.835954647107016" lon="9.869253680921446"><ele>428.4</ele><time>2026-04-26T07:35:55Z</time></trkpt><trkpt lat="45.83600846760664" lon="9.869301943415342"><ele>428.79999999999995</ele><time>2026-04-26T07:35:56Z</time></trkpt><trkpt lat="45.83611182785245" lon="9.869398327513505"><ele>429.2</ele><time>2026-04-26T07:35:58Z</time></trkpt><trkpt lat="45.83620880014471" lon="9.869485693069452"><ele>429.6</ele><time>2026-04-26T07:36:00Z</time></trkpt><trkpt lat="45.83630989951603" lon="9.869578300636695"><ele>430.0</ele><time>2026-04-26T07:36:02Z</time></trkpt><trkpt lat="45.83636235516494" lon="9.869630886250617"><ele>430.0</ele><time>2026-04-26T07:36:03Z</time></trkpt><trkpt lat="45.83646773711543" lon="9.86973025428983"><ele>430.0</ele><time>2026-04-26T07:36:05Z</time></trkpt><trkpt lat="45.83657235214922" lon="9.86982497178365"><ele>430.0</ele><time>2026-04-26T07:36:07Z</time></trkpt><trkpt lat="45.8366706573492" lon="9.869912322918566"><ele>430.0</ele><time>2026-04-26T07:36:09Z</time></trkpt><trkpt lat="45.836772745893505" lon="9.870010043387818"><ele>430.0</ele><time>2026-04-26T07:36:11Z</time></trkpt><trkpt lat="45.836826694277114" lon="9.870061401682044"><ele>430.0</ele><time>2026-04-26T07:36:12Z</time></trkpt><trkpt lat="45.83688104598457" lon="9.8701087521263"><ele>430.0</ele><time>2026-04-26T07:36:13Z</time></trkpt><trkpt lat="45.836984313698295" lon="9.87020117444175"><ele>430.0</ele><time>2026-04-26T07:36:15Z</time></trkpt><trkpt lat="45.837037053695795" lon="9.8702526168128"><ele>430.0</ele><time>2026-04-26T07:36:16Z</time></trkpt><trkpt lat="45.837089521768085" lon="9.87030390294227"><ele>430.0</ele><time>2026-04-26T07:36:17Z</time></trkpt><trkpt lat="45.83714313182417" lon="9.870354862028506"><ele>430.0</ele><time>2026-04-26T07:36:18Z</time></trkpt><trkpt lat="45.83724694605808" lon="9.87045020890498"><ele>430.0</ele><time>2026-04-26T07:36:20Z</time></trkpt><trkpt lat="45.83734408028539" lon="9.870537792770488"><ele>430.0</ele><time>2026-04-26T07:36:22Z</time></trkpt><trkpt lat="45.83745082801694" lon="9.87063610496274"><ele>430.0</ele><time>2026-04-26T07:36:24Z</time></trkpt><trkpt lat="45.837507787351186" lon="9.87068665401386"><ele>430.0</ele><time>2026-04-26T07:36:25Z</time></trkpt><trkpt lat="45.837611385357356" lon="9.870779171620455"><ele>430.0</ele><time>2026-04-26T07:36:27Z</time></trkpt><trkpt lat="45.83771663730459" lon="9.870878182016424"><ele>429.83333333333337</ele><time>2026-04-26T07:36:29Z</time></trkpt><trkpt lat="45.837771752018746" lon="9.870926941355544"><ele>429.6666666666667</ele><time>2026-04-26T07:36:30Z</time></trkpt><trkpt lat="45.83782599024805" lon="9.870979172153538"><ele>429.5</ele><time>2026-04-26T07:36:31Z</time></trkpt><trkpt lat="45.83793091239521" lon="9.871083950591894"><ele>429.33333333333337</ele><time>2026-04-26T07:36:33Z</time></trkpt><trkpt lat="45.83797993643186" lon="9.871145079496804"><ele>429.1666666666667</ele><time>2026-04-26T07:36:34Z</time></trkpt><trkpt lat="45.83803024754819" lon="9.871202570725178"><ele>429.0</ele><time>2026-04-26T07:36:35Z</time></trkpt><trkpt lat="45.83807574794198" lon="9.871265959909115"><ele>429.0</ele><time>2026-04-26T07:36:36Z</time></trkpt><trkpt lat="45.83812330962791" lon="9.871328090449621"><ele>429.0</ele><time>2026-04-26T07:36:37Z</time></trkpt><trkpt lat="45.8381671948137" lon="9.871393121121361"><ele>429.0</ele><time>2026-04-26T07:36:38Z</time></trkpt><trkpt lat="45.83824855282121" lon="9.871529896509228"><ele>429.0</ele><time>2026-04-26T07:36:40Z</time></trkpt><trkpt lat="45.838285416721135" lon="9.871606285119526"><ele>429.0</ele><time>2026-04-26T07:36:41Z</time></trkpt><trkpt lat="45.83832158167481" lon="9.871680791259182"><ele>429.0</ele><time>2026-04-26T07:36:42Z</time></trkpt><trkpt lat="45.838366083150895" lon="9.871755902112616"><ele>429.0</ele><time>2026-04-26T07:36:43Z</time></trkpt><trkpt lat="45.8384032687488" lon="9.871836616225897"><ele>428.0</ele><time>2026-04-26T07:36:44Z</time></trkpt><trkpt lat="45.838479382383184" lon="9.871979820416485"><ele>427.0</ele><time>2026-04-26T07:36:46Z</time></trkpt><trkpt lat="45.83855877440084" lon="9.872121729833424"><ele>426.0</ele><time>2026-04-26T07:36:48Z</time></trkpt><trkpt lat="45.838602045388384" lon="9.872191257110645"><ele>425.0</ele><time>2026-04-26T07:36:49Z</time></trkpt><trkpt lat="45.83865229154781" lon="9.872258432331396"><ele>424.0</ele><time>2026-04-26T07:36:50Z</time></trkpt><trkpt lat="45.838698036378375" lon="9.87232840820555"><ele>424.0</ele><time>2026-04-26T07:36:51Z</time></trkpt><trkpt lat="45.83874493269474" lon="9.872399821291422"><ele>424.0</ele><time>2026-04-26T07:36:52Z</time></trkpt><trkpt lat="45.83879210164851" lon="9.872475662508744"><ele>424.0</ele><time>2026-04-26T07:36:53Z</time></trkpt><trkpt lat="45.838839219620155" lon="9.872552826272136"><ele>424.0</ele><time>2026-04-26T07:36:54Z</time></trkpt><trkpt lat="45.83888658635747" lon="9.872627368419442"><ele>424.0</ele><time>2026-04-26T07:36:55Z</time></trkpt><trkpt lat="45.838935881890336" lon="9.872708210083559"><ele>424.0</ele><time>2026-04-26T07:36:56Z</time></trkpt><trkpt lat="45.838976991664154" lon="9.872782916318798"><ele>424.0</ele><time>2026-04-26T07:36:57Z</time></trkpt><trkpt lat="45.83903840649578" lon="9.872865228760741"><ele>423.50000000000006</ele><time>2026-04-26T07:36:58Z</time></trkpt><trkpt lat="45.83908720871845" lon="9.872946381072266"><ele>423.0</ele><time>2026-04-26T07:36:59Z</time></trkpt><trkpt lat="45.83914348113355" lon="9.873025898361279"><ele>422.5</ele><time>2026-04-26T07:37:00Z</time></trkpt><trkpt lat="45.83919874475441" lon="9.87310703531846"><ele>422.0</ele><time>2026-04-26T07:37:01Z</time></trkpt><trkpt lat="45.83924986046748" lon="9.873183370196433"><ele>421.50000000000006</ele><time>2026-04-26T07:37:02Z</time></trkpt><trkpt lat="45.83931340109769" lon="9.873266849744004"><ele>421.0</ele><time>2026-04-26T07:37:03Z</time></trkpt><trkpt lat="45.839371822779974" lon="9.873343132742729"><ele>421.00000000000006</ele><time>2026-04-26T07:37:04Z</time></trkpt><trkpt lat="45.83943215136234" lon="9.873419468022078"><ele>421.0</ele><time>2026-04-26T07:37:05Z</time></trkpt><trkpt lat="45.83948237283131" lon="9.873481031959848"><ele>421.0</ele><time>2026-04-26T07:37:06Z</time></trkpt><trkpt lat="45.839535202924765" lon="9.873561776452442"><ele>421.0</ele><time>2026-04-26T07:37:07Z</time></trkpt><trkpt lat="45.839596099312146" lon="9.873627299446849"><ele>421.0</ele><time>2026-04-26T07:37:08Z</time></trkpt><trkpt lat="45.839655516298976" lon="9.873695727000495"><ele>421.00000000000006</ele><time>2026-04-26T07:37:09Z</time></trkpt><trkpt lat="45.83970589704061" lon="9.873757491235644"><ele>421.0</ele><time>2026-04-26T07:37:10Z</time></trkpt><trkpt lat="45.83975906037517" lon="9.873822024703914"><ele>422.42857142857144</ele><time>2026-04-26T07:37:11Z</time></trkpt><trkpt lat="45.83980948003695" lon="9.87388479748288"><ele>423.8571428571429</ele><time>2026-04-26T07:37:12Z</time></trkpt><trkpt lat="45.83985821636284" lon="9.873944393483429"><ele>425.28571428571433</ele><time>2026-04-26T07:37:13Z</time></trkpt><trkpt lat="45.839906602295024" lon="9.874008560216406"><ele>426.7142857142857</ele><time>2026-04-26T07:37:14Z</time></trkpt><trkpt lat="45.8399556563009" lon="9.874069214909309"><ele>428.1428571428571</ele><time>2026-04-26T07:37:15Z</time></trkpt><trkpt lat="45.840007096858045" lon="9.874129992568317"><ele>429.5714285714286</ele><time>2026-04-26T07:37:16Z</time></trkpt><trkpt lat="45.84005609231663" lon="9.874187210345612"><ele>431.0</ele><time>2026-04-26T07:37:16.999Z</time></trkpt><trkpt lat="45.8401042311839" lon="9.874247522106522"><ele>431.5</ele><time>2026-04-26T07:37:18Z</time></trkpt><trkpt lat="45.84019937649934" lon="9.874362057567735"><ele>432.0</ele><time>2026-04-26T07:37:19.999Z</time></trkpt><trkpt lat="45.840298770622496" lon="9.874467860220813"><ele>432.5</ele><time>2026-04-26T07:37:21.999Z</time></trkpt><trkpt lat="45.840398150796055" lon="9.874564054732774"><ele>433.0</ele><time>2026-04-26T07:37:23.999Z</time></trkpt><trkpt lat="45.840497653294506" lon="9.87465217347045"><ele>433.0</ele><time>2026-04-26T07:37:25.999Z</time></trkpt><trkpt lat="45.84059426521761" lon="9.87474559623709"><ele>433.0</ele><time>2026-04-26T07:37:27.999Z</time></trkpt><trkpt lat="45.84069497984992" lon="9.874829750136556"><ele>433.0</ele><time>2026-04-26T07:37:29.999Z</time></trkpt><trkpt lat="45.84078974864192" lon="9.874914888074224"><ele>433.0</ele><time>2026-04-26T07:37:32Z</time></trkpt><trkpt lat="45.840888628714666" lon="9.874990409048106"><ele>432.0</ele><time>2026-04-26T07:37:34Z</time></trkpt><trkpt lat="45.84098126948935" lon="9.875057115162564"><ele>430.99999999999994</ele><time>2026-04-26T07:37:36Z</time></trkpt><trkpt lat="45.8410784036529" lon="9.875132959043864"><ele>429.99999999999994</ele><time>2026-04-26T07:37:38Z</time></trkpt><trkpt lat="45.84117663253919" lon="9.875208698319932"><ele>429.0</ele><time>2026-04-26T07:37:40Z</time></trkpt><trkpt lat="45.84126980136715" lon="9.87528221154501"><ele>428.0</ele><time>2026-04-26T07:37:42Z</time></trkpt><trkpt lat="45.841365788879685" lon="9.875365408012973"><ele>428.2</ele><time>2026-04-26T07:37:44Z</time></trkpt><trkpt lat="45.84146238095376" lon="9.875444381722405"><ele>428.4</ele><time>2026-04-26T07:37:46Z</time></trkpt><trkpt lat="45.84155531158316" lon="9.875521310229118"><ele>428.59999999999997</ele><time>2026-04-26T07:37:48Z</time></trkpt><trkpt lat="45.84164498429178" lon="9.875598132542216"><ele>428.79999999999995</ele><time>2026-04-26T07:37:50Z</time></trkpt><trkpt lat="45.84173682142378" lon="9.87567870542581"><ele>429.0</ele><time>2026-04-26T07:37:52Z</time></trkpt><trkpt lat="45.84182691411197" lon="9.875766630347568"><ele>429.0</ele><time>2026-04-26T07:37:54Z</time></trkpt><trkpt lat="45.841910908434606" lon="9.875864572677651"><ele>429.0</ele><time>2026-04-26T07:37:56Z</time></trkpt><trkpt lat="45.841994066726606" lon="9.875964991560458"><ele>429.0</ele><time>2026-04-26T07:37:58Z</time></trkpt><trkpt lat="45.84207256236682" lon="9.876076107957667"><ele>429.0</ele><time>2026-04-26T07:38:00Z</time></trkpt><trkpt lat="45.84215086028149" lon="9.876195378881373"><ele>429.0</ele><time>2026-04-26T07:38:02Z</time></trkpt><trkpt lat="45.842213479034726" lon="9.876309108665009"><ele>430.75</ele><time>2026-04-26T07:38:04Z</time></trkpt><trkpt lat="45.84228224850443" lon="9.876434094772243"><ele>432.5</ele><time>2026-04-26T07:38:06Z</time></trkpt><trkpt lat="45.84234520940416" lon="9.876574742701282"><ele>434.25</ele><time>2026-04-26T07:38:08Z</time></trkpt><trkpt lat="45.84240543438787" lon="9.876723899696792"><ele>436.0</ele><time>2026-04-26T07:38:10Z</time></trkpt><trkpt lat="45.842454867041226" lon="9.876872732940754"><ele>434.25</ele><time>2026-04-26T07:38:12Z</time></trkpt><trkpt lat="45.842502050410275" lon="9.877015110133282"><ele>432.5</ele><time>2026-04-26T07:38:14Z</time></trkpt><trkpt lat="45.84255349594246" lon="9.877175507037975"><ele>430.75</ele><time>2026-04-26T07:38:16Z</time></trkpt><trkpt lat="45.84260323571475" lon="9.877331310775075"><ele>429.0</ele><time>2026-04-26T07:38:18Z</time></trkpt><trkpt lat="45.84265050074411" lon="9.877481120040567"><ele>429.0</ele><time>2026-04-26T07:38:20Z</time></trkpt><trkpt lat="45.84267787070087" lon="9.87756563185122"><ele>429.0</ele><time>2026-04-26T07:38:21Z</time></trkpt><trkpt lat="45.84270298275667" lon="9.877650713617637"><ele>429.0</ele><time>2026-04-26T07:38:22Z</time></trkpt><trkpt lat="45.84275771024038" lon="9.877806579616108"><ele>429.0</ele><time>2026-04-26T07:38:24Z</time></trkpt><trkpt lat="45.84278276156774" lon="9.877892108682428"><ele>429.0</ele><time>2026-04-26T07:38:25Z</time></trkpt><trkpt lat="45.84280978968547" lon="9.877977637892494"><ele>429.0</ele><time>2026-04-26T07:38:26Z</time></trkpt><trkpt lat="45.842843960143554" lon="9.87806402985276"><ele>429.6</ele><time>2026-04-26T07:38:27Z</time></trkpt><trkpt lat="45.84288646854099" lon="9.878220674357253"><ele>430.2</ele><time>2026-04-26T07:38:29Z</time></trkpt><trkpt lat="45.84293863013952" lon="9.878382931112185"><ele>430.80000000000007</ele><time>2026-04-26T07:38:31Z</time></trkpt><trkpt lat="45.8429655411886" lon="9.878465930440086"><ele>431.40000000000003</ele><time>2026-04-26T07:38:32Z</time></trkpt><trkpt lat="45.84302130970141" lon="9.87862774909198"><ele>432.0</ele><time>2026-04-26T07:38:34Z</time></trkpt><trkpt lat="45.843077202076536" lon="9.878787344789263"><ele>433.0</ele><time>2026-04-26T07:38:36Z</time></trkpt><trkpt lat="45.84313161745321" lon="9.878938589653982"><ele>434.0</ele><time>2026-04-26T07:38:38Z</time></trkpt><trkpt lat="45.84319569448733" lon="9.879099062302826"><ele>435.0</ele><time>2026-04-26T07:38:40Z</time></trkpt><trkpt lat="45.84326154942786" lon="9.879255286705389"><ele>436.0</ele><time>2026-04-26T07:38:42Z</time></trkpt><trkpt lat="45.84332947797746" lon="9.879405516880109"><ele>436.0</ele><time>2026-04-26T07:38:44Z</time></trkpt><trkpt lat="45.84339725213975" lon="9.879544892437742"><ele>436.0</ele><time>2026-04-26T07:38:46Z</time></trkpt><trkpt lat="45.84347667096013" lon="9.87968654118214"><ele>436.0</ele><time>2026-04-26T07:38:48Z</time></trkpt><trkpt lat="45.84355614356568" lon="9.87982790972484"><ele>436.0</ele><time>2026-04-26T07:38:50Z</time></trkpt><trkpt lat="45.84364561459283" lon="9.879953577173268"><ele>436.0</ele><time>2026-04-26T07:38:52Z</time></trkpt><trkpt lat="45.843745000997224" lon="9.880053040683281"><ele>436.0</ele><time>2026-04-26T07:38:54Z</time></trkpt><trkpt lat="45.84384938043213" lon="9.880113230071583"><ele>436.0</ele><time>2026-04-26T07:38:56Z</time></trkpt><trkpt lat="45.843962288467736" lon="9.88013531609297"><ele>436.0</ele><time>2026-04-26T07:38:58Z</time></trkpt><trkpt lat="45.84408516332439" lon="9.880114151609499"><ele>436.00000000000006</ele><time>2026-04-26T07:39:00Z</time></trkpt><trkpt lat="45.84418965011546" lon="9.880049788101438"><ele>436.0</ele><time>2026-04-26T07:39:02Z</time></trkpt><trkpt lat="45.844301761448186" lon="9.879980510283971"><ele>436.0</ele><time>2026-04-26T07:39:04Z</time></trkpt><trkpt lat="45.84436399131939" lon="9.87993769435002"><ele>436.0</ele><time>2026-04-26T07:39:05Z</time></trkpt><trkpt lat="45.84442751186941" lon="9.879907865965313"><ele>436.00000000000006</ele><time>2026-04-26T07:39:06Z</time></trkpt><trkpt lat="45.84448894163506" lon="9.879876594614666"><ele>436.0</ele><time>2026-04-26T07:39:07Z</time></trkpt><trkpt lat="45.8445506841338" lon="9.879845772922845"><ele>436.14285714285717</ele><time>2026-04-26T07:39:08Z</time></trkpt><trkpt lat="45.84461324074733" lon="9.879815390860417"><ele>436.28571428571433</ele><time>2026-04-26T07:39:09Z</time></trkpt><trkpt lat="45.84467343927271" lon="9.87978665105679"><ele>436.42857142857144</ele><time>2026-04-26T07:39:10Z</time></trkpt><trkpt lat="45.844737019457185" lon="9.879755338526564"><ele>436.57142857142856</ele><time>2026-04-26T07:39:11Z</time></trkpt><trkpt lat="45.844799843921436" lon="9.879724951655845"><ele>436.7142857142857</ele><time>2026-04-26T07:39:12Z</time></trkpt><trkpt lat="45.84486490069404" lon="9.879701276694256"><ele>436.85714285714283</ele><time>2026-04-26T07:39:13Z</time></trkpt><trkpt lat="45.84492879770066" lon="9.879681784097723"><ele>437.0</ele><time>2026-04-26T07:39:14Z</time></trkpt><trkpt lat="45.84499461361934" lon="9.8796630256719"><ele>437.0</ele><time>2026-04-26T07:39:15Z</time></trkpt><trkpt lat="45.84506268402713" lon="9.879648749858376"><ele>437.0</ele><time>2026-04-26T07:39:16Z</time></trkpt><trkpt lat="45.845130174585385" lon="9.879633949041569"><ele>437.0</ele><time>2026-04-26T07:39:17Z</time></trkpt><trkpt lat="45.84519940223999" lon="9.87961532621946"><ele>437.0</ele><time>2026-04-26T07:39:18Z</time></trkpt><trkpt lat="45.845271390670625" lon="9.879602414051128"><ele>437.0</ele><time>2026-04-26T07:39:19Z</time></trkpt><trkpt lat="45.84534403961887" lon="9.879584705046836"><ele>437.0</ele><time>2026-04-26T07:39:20Z</time></trkpt><trkpt lat="45.84542086381143" lon="9.879570222685587"><ele>437.0</ele><time>2026-04-26T07:39:21Z</time></trkpt><trkpt lat="45.84549966883255" lon="9.879557894586615"><ele>436.8333333333333</ele><time>2026-04-26T07:39:22Z</time></trkpt><trkpt lat="45.84556935714258" lon="9.879539103514325"><ele>436.66666666666663</ele><time>2026-04-26T07:39:23Z</time></trkpt><trkpt lat="45.84564870300088" lon="9.8795300124083"><ele>436.5</ele><time>2026-04-26T07:39:24Z</time></trkpt><trkpt lat="45.84573063400514" lon="9.879520109036388"><ele>436.33333333333337</ele><time>2026-04-26T07:39:25Z</time></trkpt><trkpt lat="45.84580696163431" lon="9.879507448973749"><ele>436.1666666666667</ele><time>2026-04-26T07:39:26Z</time></trkpt><trkpt lat="45.84588723326314" lon="9.879493351461598"><ele>436.0</ele><time>2026-04-26T07:39:27Z</time></trkpt><trkpt lat="45.84596599086285" lon="9.879484548903863"><ele>435.6666666666667</ele><time>2026-04-26T07:39:28Z</time></trkpt><trkpt lat="45.84604871308332" lon="9.879471305503307"><ele>435.33333333333337</ele><time>2026-04-26T07:39:29Z</time></trkpt><trkpt lat="45.846128608131295" lon="9.879464388458308"><ele>435.0</ele><time>2026-04-26T07:39:30Z</time></trkpt><trkpt lat="45.846212679165575" lon="9.879454680440226"><ele>434.66666666666663</ele><time>2026-04-26T07:39:31Z</time></trkpt><trkpt lat="45.84629243102062" lon="9.879443326853961"><ele>434.3333333333333</ele><time>2026-04-26T07:39:32Z</time></trkpt><trkpt lat="45.84638812369087" lon="9.87943942442581"><ele>434.0</ele><time>2026-04-26T07:39:33Z</time></trkpt><trkpt lat="45.846478502383796" lon="9.879427221867216"><ele>433.99999999999994</ele><time>2026-04-26T07:39:34Z</time></trkpt><trkpt lat="45.846565839695074" lon="9.879412797117892"><ele>434.0</ele><time>2026-04-26T07:39:35Z</time></trkpt><trkpt lat="45.84665715475599" lon="9.879398959534822"><ele>434.0</ele><time>2026-04-26T07:39:36Z</time></trkpt><trkpt lat="45.84674537853523" lon="9.87938923736896"><ele>434.0</ele><time>2026-04-26T07:39:37Z</time></trkpt><trkpt lat="45.84683401457747" lon="9.879373767771995"><ele>433.99999999999994</ele><time>2026-04-26T07:39:38Z</time></trkpt><trkpt lat="45.84692133904082" lon="9.87936294007613"><ele>434.0</ele><time>2026-04-26T07:39:39Z</time></trkpt><trkpt lat="45.84700645658732" lon="9.879354808182294"><ele>434.49999999999994</ele><time>2026-04-26T07:39:40Z</time></trkpt><trkpt lat="45.84709129566544" lon="9.87934927000306"><ele>435.0</ele><time>2026-04-26T07:39:41Z</time></trkpt><trkpt lat="45.84717433592679" lon="9.879352650726968"><ele>435.5</ele><time>2026-04-26T07:39:42Z</time></trkpt><trkpt lat="45.847254407637045" lon="9.879362245081325"><ele>436.0</ele><time>2026-04-26T07:39:43Z</time></trkpt><trkpt lat="45.84733409734674" lon="9.879379657524092"><ele>436.49999999999994</ele><time>2026-04-26T07:39:44Z</time></trkpt><trkpt lat="45.84740960357628" lon="9.879406054833902"><ele>437.0</ele><time>2026-04-26T07:39:45Z</time></trkpt><trkpt lat="45.84748439124648" lon="9.879432229407154"><ele>437.0</ele><time>2026-04-26T07:39:46Z</time></trkpt><trkpt lat="45.84755523461097" lon="9.879467446857678"><ele>437.0</ele><time>2026-04-26T07:39:47Z</time></trkpt><trkpt lat="45.84762538723988" lon="9.879502486201506"><ele>437.0</ele><time>2026-04-26T07:39:48Z</time></trkpt><trkpt lat="45.84768904412387" lon="9.879545741403415"><ele>437.0</ele><time>2026-04-26T07:39:49Z</time></trkpt><trkpt lat="45.84775119948162" lon="9.879592821514922"><ele>437.0</ele><time>2026-04-26T07:39:50Z</time></trkpt><trkpt lat="45.84781028581178" lon="9.8796439168689"><ele>437.0</ele><time>2026-04-26T07:39:51Z</time></trkpt><trkpt lat="45.84786573029851" lon="9.879694535482363"><ele>437.0</ele><time>2026-04-26T07:39:52Z</time></trkpt><trkpt lat="45.847919686554896" lon="9.879751588812475"><ele>437.0</ele><time>2026-04-26T07:39:53Z</time></trkpt><trkpt lat="45.84797254965975" lon="9.879810140636293"><ele>437.0</ele><time>2026-04-26T07:39:54Z</time></trkpt><trkpt lat="45.84802106984785" lon="9.879873469345746"><ele>437.0</ele><time>2026-04-26T07:39:55Z</time></trkpt><trkpt lat="45.84807111563488" lon="9.87993306252965"><ele>437.0</ele><time>2026-04-26T07:39:56Z</time></trkpt><trkpt lat="45.84812130451311" lon="9.879998586804755"><ele>437.0</ele><time>2026-04-26T07:39:57Z</time></trkpt><trkpt lat="45.84817292352191" lon="9.880056343660389"><ele>437.0</ele><time>2026-04-26T07:39:58Z</time></trkpt><trkpt lat="45.848224615078294" lon="9.880117204400541"><ele>437.0</ele><time>2026-04-26T07:39:59Z</time></trkpt><trkpt lat="45.848276889938596" lon="9.88017103059322"><ele>436.8333333333333</ele><time>2026-04-26T07:40:00Z</time></trkpt><trkpt lat="45.8483287036258" lon="9.880234185949242"><ele>436.66666666666663</ele><time>2026-04-26T07:40:01Z</time></trkpt><trkpt lat="45.84837808599597" lon="9.880296240916778"><ele>436.5</ele><time>2026-04-26T07:40:02Z</time></trkpt><trkpt lat="45.848427657141265" lon="9.880357361585478"><ele>436.33333333333337</ele><time>2026-04-26T07:40:03Z</time></trkpt><trkpt lat="45.8485274973851" lon="9.880479136042071"><ele>436.1666666666667</ele><time>2026-04-26T07:40:05Z</time></trkpt><trkpt lat="45.84857760230953" lon="9.880537841705397"><ele>436.0</ele><time>2026-04-26T07:40:06Z</time></trkpt><trkpt lat="45.84862797028804" lon="9.880596885484707"><ele>436.14285714285717</ele><time>2026-04-26T07:40:07Z</time></trkpt><trkpt lat="45.84868014863601" lon="9.880656495948124"><ele>436.28571428571433</ele><time>2026-04-26T07:40:08Z</time></trkpt><trkpt lat="45.84873066505598" lon="9.880715394972693"><ele>436.42857142857144</ele><time>2026-04-26T07:40:09Z</time></trkpt><trkpt lat="45.848780551850226" lon="9.880775614480134"><ele>436.57142857142856</ele><time>2026-04-26T07:40:10Z</time></trkpt><trkpt lat="45.84883006410107" lon="9.880836853793502"><ele>436.7142857142857</ele><time>2026-04-26T07:40:11Z</time></trkpt><trkpt lat="45.84888082485225" lon="9.880895572247054"><ele>436.85714285714283</ele><time>2026-04-26T07:40:12Z</time></trkpt><trkpt lat="45.84892903482577" lon="9.880956370749841"><ele>437.0</ele><time>2026-04-26T07:40:13Z</time></trkpt><trkpt lat="45.84898029313507" lon="9.881014087497062"><ele>437.0</ele><time>2026-04-26T07:40:14Z</time></trkpt><trkpt lat="45.849027774552276" lon="9.881074887178146"><ele>437.0</ele><time>2026-04-26T07:40:15Z</time></trkpt><trkpt lat="45.84907961579407" lon="9.881133953194581"><ele>437.0</ele><time>2026-04-26T07:40:16Z</time></trkpt><trkpt lat="45.84912818625307" lon="9.881192695594718"><ele>437.0</ele><time>2026-04-26T07:40:17Z</time></trkpt><trkpt lat="45.84918034876501" lon="9.88125098839035"><ele>437.0</ele><time>2026-04-26T07:40:18Z</time></trkpt><trkpt lat="45.849231196387144" lon="9.881306418595036"><ele>437.0</ele><time>2026-04-26T07:40:19Z</time></trkpt><trkpt lat="45.84928472215812" lon="9.881358123475872"><ele>437.0</ele><time>2026-04-26T07:40:20Z</time></trkpt><trkpt lat="45.84933644625112" lon="9.881410639358283"><ele>437.7142857142857</ele><time>2026-04-26T07:40:21Z</time></trkpt><trkpt lat="45.849393339497674" lon="9.881455669974212"><ele>438.42857142857144</ele><time>2026-04-26T07:40:22Z</time></trkpt><trkpt lat="45.849449768266076" lon="9.881498247912637"><ele>439.14285714285717</ele><time>2026-04-26T07:40:23Z</time></trkpt><trkpt lat="45.84950655389776" lon="9.881540076468639"><ele>439.8571428571429</ele><time>2026-04-26T07:40:24Z</time></trkpt><trkpt lat="45.84956651233906" lon="9.881575403841184"><ele>440.57142857142856</ele><time>2026-04-26T07:40:25Z</time></trkpt><trkpt lat="45.849626808936776" lon="9.881613111722267"><ele>441.28571428571433</ele><time>2026-04-26T07:40:26Z</time></trkpt><trkpt lat="45.84968843072652" lon="9.881642500019673"><ele>442.0</ele><time>2026-04-26T07:40:27Z</time></trkpt><trkpt lat="45.84975039005443" lon="9.881669539506195"><ele>442.00000000000006</ele><time>2026-04-26T07:40:28Z</time></trkpt><trkpt lat="45.849812274377705" lon="9.88169718230569"><ele>442.0</ele><time>2026-04-26T07:40:29Z</time></trkpt><trkpt lat="45.84987606109963" lon="9.881716997880135"><ele>442.0</ele><time>2026-04-26T07:40:30Z</time></trkpt><trkpt lat="45.84993893520771" lon="9.881740707067808"><ele>442.0</ele><time>2026-04-26T07:40:31Z</time></trkpt><trkpt lat="45.850001998428745" lon="9.881760478783697"><ele>442.0</ele><time>2026-04-26T07:40:32Z</time></trkpt><trkpt lat="45.850065614878815" lon="9.881779403455017"><ele>442.00000000000006</ele><time>2026-04-26T07:40:33Z</time></trkpt><trkpt lat="45.85013124059618" lon="9.881793067133609"><ele>442.0</ele><time>2026-04-26T07:40:34Z</time></trkpt><trkpt lat="45.85019715978059" lon="9.881805192381057"><ele>442.00000000000006</ele><time>2026-04-26T07:40:35Z</time></trkpt><trkpt lat="45.85026123007977" lon="9.88181391820573"><ele>442.0</ele><time>2026-04-26T07:40:36Z</time></trkpt><trkpt lat="45.85032763895962" lon="9.88181523006808"><ele>442.0</ele><time>2026-04-26T07:40:37Z</time></trkpt><trkpt lat="45.85039317933001" lon="9.881816475464808"><ele>442.0</ele><time>2026-04-26T07:40:38Z</time></trkpt><trkpt lat="45.850458776634824" lon="9.881812440124472"><ele>442.00000000000006</ele><time>2026-04-26T07:40:39Z</time></trkpt><trkpt lat="45.85052585533873" lon="9.881812173930484"><ele>442.0</ele><time>2026-04-26T07:40:40Z</time></trkpt><trkpt lat="45.85065552112429" lon="9.881796542461556"><ele>442.00000000000006</ele><time>2026-04-26T07:40:42Z</time></trkpt><trkpt lat="45.85072017874449" lon="9.88178780280495"><ele>442.0</ele><time>2026-04-26T07:40:43Z</time></trkpt><trkpt lat="45.85078687474556" lon="9.881781013964956"><ele>442.0</ele><time>2026-04-26T07:40:44Z</time></trkpt><trkpt lat="45.850851479812285" lon="9.881777654487516"><ele>442.0</ele><time>2026-04-26T07:40:45Z</time></trkpt><trkpt lat="45.85091617013307" lon="9.881771970738454"><ele>442.0</ele><time>2026-04-26T07:40:46Z</time></trkpt><trkpt lat="45.850982004050564" lon="9.881762710757137"><ele>442.00000000000006</ele><time>2026-04-26T07:40:47Z</time></trkpt><trkpt lat="45.85104645672378" lon="9.881760064990921"><ele>442.0</ele><time>2026-04-26T07:40:48Z</time></trkpt><trkpt lat="45.85111185362504" lon="9.881750586400482"><ele>443.28571428571433</ele><time>2026-04-26T07:40:49Z</time></trkpt><trkpt lat="45.851177849553665" lon="9.881742966487632"><ele>444.57142857142856</ele><time>2026-04-26T07:40:50Z</time></trkpt><trkpt lat="45.8512439439675" lon="9.881736246355434"><ele>445.8571428571429</ele><time>2026-04-26T07:40:51Z</time></trkpt><trkpt lat="45.85130988041727" lon="9.881728487778904"><ele>447.14285714285717</ele><time>2026-04-26T07:40:52Z</time></trkpt><trkpt lat="45.85137527267935" lon="9.88172255080538"><ele>448.42857142857144</ele><time>2026-04-26T07:40:53Z</time></trkpt><trkpt lat="45.851446003897735" lon="9.881714696286798"><ele>449.7142857142857</ele><time>2026-04-26T07:40:54Z</time></trkpt><trkpt lat="45.851513209690246" lon="9.881707370320358"><ele>451.0</ele><time>2026-04-26T07:40:55Z</time></trkpt><trkpt lat="45.851582424237144" lon="9.881703392282413"><ele>451.0</ele><time>2026-04-26T07:40:56Z</time></trkpt><trkpt lat="45.85164995937166" lon="9.881697039416268"><ele>451.0</ele><time>2026-04-26T07:40:57Z</time></trkpt><trkpt lat="45.85171930361055" lon="9.881687589505841"><ele>451.0</ele><time>2026-04-26T07:40:58Z</time></trkpt><trkpt lat="45.851787054753515" lon="9.88167994964049"><ele>451.0</ele><time>2026-04-26T07:40:59Z</time></trkpt><trkpt lat="45.851857049969375" lon="9.881675454271504"><ele>451.0</ele><time>2026-04-26T07:41:00Z</time></trkpt><trkpt lat="45.851928093686155" lon="9.881671228155813"><ele>451.0</ele><time>2026-04-26T07:41:01Z</time></trkpt><trkpt lat="45.851999838597386" lon="9.881658906943255"><ele>451.0</ele><time>2026-04-26T07:41:02Z</time></trkpt><trkpt lat="45.85207140547148" lon="9.8816521002785"><ele>450.71428571428567</ele><time>2026-04-26T07:41:03Z</time></trkpt><trkpt lat="45.852144097899895" lon="9.881638311883227"><ele>450.42857142857144</ele><time>2026-04-26T07:41:04Z</time></trkpt><trkpt lat="45.85221776013693" lon="9.881630240524707"><ele>450.1428571428571</ele><time>2026-04-26T07:41:05Z</time></trkpt><trkpt lat="45.85229128979438" lon="9.881616660810645"><ele>449.85714285714283</ele><time>2026-04-26T07:41:06Z</time></trkpt><trkpt lat="45.85236332291625" lon="9.88160308052362"><ele>449.57142857142856</ele><time>2026-04-26T07:41:07Z</time></trkpt><trkpt lat="45.852436998231376" lon="9.881587246974764"><ele>449.2857142857143</ele><time>2026-04-26T07:41:08Z</time></trkpt><trkpt lat="45.85250686203512" lon="9.881570202569085"><ele>449.0</ele><time>2026-04-26T07:41:09Z</time></trkpt><trkpt lat="45.85257702403683" lon="9.881553058717044"><ele>448.4285714285714</ele><time>2026-04-26T07:41:10Z</time></trkpt><trkpt lat="45.85264696461727" lon="9.881534678251068"><ele>447.8571428571428</ele><time>2026-04-26T07:41:11Z</time></trkpt><trkpt lat="45.8527148734198" lon="9.881515516446395"><ele>447.2857142857143</ele><time>2026-04-26T07:41:12Z</time></trkpt><trkpt lat="45.85278111811121" lon="9.881493732234265"><ele>446.71428571428567</ele><time>2026-04-26T07:41:13Z</time></trkpt><trkpt lat="45.85284635773122" lon="9.881469167522834"><ele>446.1428571428571</ele><time>2026-04-26T07:41:14Z</time></trkpt><trkpt lat="45.85291115240222" lon="9.88144435675751"><ele>445.57142857142856</ele><time>2026-04-26T07:41:15Z</time></trkpt><trkpt lat="45.852974642688565" lon="9.881422133467975"><ele>445.0</ele><time>2026-04-26T07:41:16Z</time></trkpt><trkpt lat="45.8530365119446" lon="9.881400039408014"><ele>445.0</ele><time>2026-04-26T07:41:17Z</time></trkpt><trkpt lat="45.85310023295014" lon="9.881376938334778"><ele>445.0</ele><time>2026-04-26T07:41:18Z</time></trkpt><trkpt lat="45.85316273066339" lon="9.881352565055382"><ele>445.0</ele><time>2026-04-26T07:41:18.999Z</time></trkpt><trkpt lat="45.85322438998468" lon="9.881325057650457"><ele>445.0</ele><time>2026-04-26T07:41:19.999Z</time></trkpt><trkpt lat="45.853286289995935" lon="9.881297018898088"><ele>445.0</ele><time>2026-04-26T07:41:20.999Z</time></trkpt><trkpt lat="45.85334828591351" lon="9.881265617438425"><ele>445.0</ele><time>2026-04-26T07:41:21.999Z</time></trkpt><trkpt lat="45.85340956128304" lon="9.881235203352373"><ele>445.0</ele><time>2026-04-26T07:41:22.999Z</time></trkpt><trkpt lat="45.85347160138355" lon="9.881203517730139"><ele>444.42857142857144</ele><time>2026-04-26T07:41:23.999Z</time></trkpt><trkpt lat="45.85353111132019" lon="9.88117273642771"><ele>443.85714285714283</ele><time>2026-04-26T07:41:24.999Z</time></trkpt><trkpt lat="45.85359232424334" lon="9.881137219327439"><ele>443.2857142857143</ele><time>2026-04-26T07:41:25.999Z</time></trkpt><trkpt lat="45.85365178394349" lon="9.881104280621926"><ele>442.7142857142857</ele><time>2026-04-26T07:41:26.999Z</time></trkpt><trkpt lat="45.85371398465968" lon="9.881064614590771"><ele>442.1428571428571</ele><time>2026-04-26T07:41:27.999Z</time></trkpt><trkpt lat="45.85377380082486" lon="9.881030041008925"><ele>441.57142857142856</ele><time>2026-04-26T07:41:28.999Z</time></trkpt><trkpt lat="45.85383419995505" lon="9.88099534044461"><ele>441.0</ele><time>2026-04-26T07:41:29.999Z</time></trkpt><trkpt lat="45.853894483886606" lon="9.880962075360204"><ele>441.20000000000005</ele><time>2026-04-26T07:41:30.999Z</time></trkpt><trkpt lat="45.85395348881182" lon="9.88092387982208"><ele>441.40000000000003</ele><time>2026-04-26T07:41:31.999Z</time></trkpt><trkpt lat="45.854011554849784" lon="9.880886596094008"><ele>441.6</ele><time>2026-04-26T07:41:32.999Z</time></trkpt><trkpt lat="45.85412679223736" lon="9.880813584420006"><ele>441.8</ele><time>2026-04-26T07:41:34.999Z</time></trkpt><trkpt lat="45.85424137295087" lon="9.880740023605327"><ele>442.0</ele><time>2026-04-26T07:41:36.999Z</time></trkpt><trkpt lat="45.85435815560541" lon="9.880666259848223"><ele>442.00000000000006</ele><time>2026-04-26T07:41:38.999Z</time></trkpt><trkpt lat="45.85441681406819" lon="9.880631086277813"><ele>442.0</ele><time>2026-04-26T07:41:39.999Z</time></trkpt><trkpt lat="45.854476179628534" lon="9.880597654333389"><ele>442.0</ele><time>2026-04-26T07:41:40.999Z</time></trkpt><trkpt lat="45.85453737601133" lon="9.880565000542928"><ele>442.0</ele><time>2026-04-26T07:41:41.999Z</time></trkpt><trkpt lat="45.854597943296866" lon="9.880538654820961"><ele>442.0</ele><time>2026-04-26T07:41:43Z</time></trkpt><trkpt lat="45.85465996173357" lon="9.880508892699982"><ele>442.00000000000006</ele><time>2026-04-26T07:41:44Z</time></trkpt><trkpt lat="45.85478080999739" lon="9.880462603266615"><ele>442.0</ele><time>2026-04-26T07:41:46Z</time></trkpt><trkpt lat="45.85490225212706" lon="9.880433635045698"><ele>442.00000000000006</ele><time>2026-04-26T07:41:48Z</time></trkpt><trkpt lat="45.85496564027482" lon="9.88042122573684"><ele>442.0</ele><time>2026-04-26T07:41:49Z</time></trkpt><trkpt lat="45.85502933685219" lon="9.880412598618618"><ele>442.0</ele><time>2026-04-26T07:41:50Z</time></trkpt><trkpt lat="45.85509385537094" lon="9.880402480410106"><ele>442.0</ele><time>2026-04-26T07:41:51Z</time></trkpt><trkpt lat="45.85521909454813" lon="9.880384056709444"><ele>442.00000000000006</ele><time>2026-04-26T07:41:53Z</time></trkpt><trkpt lat="45.855281804081116" lon="9.880374948152161"><ele>442.0</ele><time>2026-04-26T07:41:54Z</time></trkpt><trkpt lat="45.85540694559508" lon="9.880353075181242"><ele>442.33333333333337</ele><time>2026-04-26T07:41:56Z</time></trkpt><trkpt lat="45.85547011142287" lon="9.880339088726872"><ele>442.6666666666667</ele><time>2026-04-26T07:41:57Z</time></trkpt><trkpt lat="45.855594341167055" lon="9.880300298748612"><ele>443.0</ele><time>2026-04-26T07:41:59Z</time></trkpt><trkpt lat="45.8556574805357" lon="9.880284714486002"><ele>443.33333333333337</ele><time>2026-04-26T07:42:00Z</time></trkpt><trkpt lat="45.8557212523591" lon="9.880265114502327"><ele>443.6666666666667</ele><time>2026-04-26T07:42:01Z</time></trkpt><trkpt lat="45.855783561598734" lon="9.880242132618967"><ele>444.0</ele><time>2026-04-26T07:42:02Z</time></trkpt><trkpt lat="45.85584627505329" lon="9.880216937528802"><ele>444.0</ele><time>2026-04-26T07:42:03Z</time></trkpt><trkpt lat="45.85591033528486" lon="9.880187382680242"><ele>444.0</ele><time>2026-04-26T07:42:04Z</time></trkpt><trkpt lat="45.85597215062857" lon="9.88015418998364"><ele>444.0</ele><time>2026-04-26T07:42:05Z</time></trkpt><trkpt lat="45.85603383723335" lon="9.880125172473669"><ele>444.0</ele><time>2026-04-26T07:42:06Z</time></trkpt><trkpt lat="45.85609778731908" lon="9.880093543161058"><ele>444.0</ele><time>2026-04-26T07:42:07Z</time></trkpt><trkpt lat="45.85615911233313" lon="9.880066608207347"><ele>444.0</ele><time>2026-04-26T07:42:08Z</time></trkpt><trkpt lat="45.85622122186142" lon="9.880036526245616"><ele>444.0</ele><time>2026-04-26T07:42:09Z</time></trkpt><trkpt lat="45.85628067862963" lon="9.880002140902153"><ele>444.3333333333333</ele><time>2026-04-26T07:42:10Z</time></trkpt><trkpt lat="45.85634424280807" lon="9.879971539933006"><ele>444.66666666666663</ele><time>2026-04-26T07:42:11Z</time></trkpt><trkpt lat="45.856405398817785" lon="9.879944763991855"><ele>445.0</ele><time>2026-04-26T07:42:12Z</time></trkpt><trkpt lat="45.856469469095025" lon="9.87991392742786"><ele>445.3333333333333</ele><time>2026-04-26T07:42:13Z</time></trkpt><trkpt lat="45.85653199656774" lon="9.879887490816628"><ele>445.66666666666663</ele><time>2026-04-26T07:42:14Z</time></trkpt><trkpt lat="45.85659586387447" lon="9.879855669644552"><ele>446.0</ele><time>2026-04-26T07:42:15Z</time></trkpt><trkpt lat="45.856716926144145" lon="9.87979157190418"><ele>446.0</ele><time>2026-04-26T07:42:17Z</time></trkpt><trkpt lat="45.8567792715918" lon="9.879765951500476"><ele>446.0</ele><time>2026-04-26T07:42:18Z</time></trkpt><trkpt lat="45.85684467392145" lon="9.879754134662965"><ele>446.0</ele><time>2026-04-26T07:42:19Z</time></trkpt><trkpt lat="45.85691243782501" lon="9.879747567211203"><ele>446.0</ele><time>2026-04-26T07:42:20Z</time></trkpt><trkpt lat="45.85698139532611" lon="9.879733834447414"><ele>446.0</ele><time>2026-04-26T07:42:21Z</time></trkpt><trkpt lat="45.857049372024036" lon="9.879704298806237"><ele>446.0</ele><time>2026-04-26T07:42:22Z</time></trkpt><trkpt lat="45.85711539427018" lon="9.879677308748995"><ele>446.0</ele><time>2026-04-26T07:42:23Z</time></trkpt><trkpt lat="45.85717673725999" lon="9.879649194165152"><ele>446.16666666666663</ele><time>2026-04-26T07:42:24Z</time></trkpt><trkpt lat="45.85728859656559" lon="9.87959214613106"><ele>446.3333333333333</ele><time>2026-04-26T07:42:26Z</time></trkpt><trkpt lat="45.85739053974721" lon="9.87954453180389"><ele>446.5</ele><time>2026-04-26T07:42:28Z</time></trkpt><trkpt lat="45.85745202159774" lon="9.879515131301837"><ele>446.66666666666663</ele><time>2026-04-26T07:42:29Z</time></trkpt><trkpt lat="45.85751371904313" lon="9.879482679896958"><ele>446.8333333333333</ele><time>2026-04-26T07:42:30Z</time></trkpt><trkpt lat="45.857574757156144" lon="9.879455508390112"><ele>447.0</ele><time>2026-04-26T07:42:31Z</time></trkpt><trkpt lat="45.85763486577342" lon="9.879422874659959"><ele>446.99999999999994</ele><time>2026-04-26T07:42:32Z</time></trkpt><trkpt lat="45.857697641527416" lon="9.879398043865608"><ele>447.0</ele><time>2026-04-26T07:42:33Z</time></trkpt><trkpt lat="45.857758576311234" lon="9.879372571883495"><ele>447.0</ele><time>2026-04-26T07:42:34Z</time></trkpt><trkpt lat="45.857882387967315" lon="9.879325123578834"><ele>447.0</ele><time>2026-04-26T07:42:36Z</time></trkpt><trkpt lat="45.85794482318605" lon="9.879308066893321"><ele>447.0</ele><time>2026-04-26T07:42:37Z</time></trkpt><trkpt lat="45.858008708867054" lon="9.879301744702863"><ele>446.99999999999994</ele><time>2026-04-26T07:42:38Z</time></trkpt><trkpt lat="45.85807172089142" lon="9.87929815776791"><ele>447.0</ele><time>2026-04-26T07:42:39Z</time></trkpt><trkpt lat="45.85813637682028" lon="9.879306982297487"><ele>446.99999999999994</ele><time>2026-04-26T07:42:40Z</time></trkpt><trkpt lat="45.85819914821049" lon="9.879315054405698"><ele>447.0</ele><time>2026-04-26T07:42:41Z</time></trkpt><trkpt lat="45.85826337417744" lon="9.87932738303817"><ele>447.0</ele><time>2026-04-26T07:42:42Z</time></trkpt><trkpt lat="45.85832761781734" lon="9.879335429128771"><ele>447.0</ele><time>2026-04-26T07:42:43Z</time></trkpt><trkpt lat="45.85839045601086" lon="9.87935380881374"><ele>447.0</ele><time>2026-04-26T07:42:44Z</time></trkpt><trkpt lat="45.85845382575652" lon="9.879363237222808"><ele>446.99999999999994</ele><time>2026-04-26T07:42:45Z</time></trkpt><trkpt lat="45.85851805746697" lon="9.879380035577302"><ele>447.0</ele><time>2026-04-26T07:42:46Z</time></trkpt><trkpt lat="45.85858485490255" lon="9.879392232597223"><ele>447.0</ele><time>2026-04-26T07:42:47Z</time></trkpt><trkpt lat="45.85864992510616" lon="9.8794099925982"><ele>447.00000000000006</ele><time>2026-04-26T07:42:48Z</time></trkpt><trkpt lat="45.85871415407541" lon="9.879425633463114"><ele>447.00000000000006</ele><time>2026-04-26T07:42:49Z</time></trkpt><trkpt lat="45.8588383251293" lon="9.879464946837746"><ele>447.0</ele><time>2026-04-26T07:42:51Z</time></trkpt><trkpt lat="45.85895373539771" lon="9.879519161912198"><ele>447.0</ele><time>2026-04-26T07:42:53Z</time></trkpt><trkpt lat="45.85906518128815" lon="9.879573350962396"><ele>446.99999999999994</ele><time>2026-04-26T07:42:55Z</time></trkpt><trkpt lat="45.85911278205878" lon="9.879635690596784"><ele>447.0</ele><time>2026-04-26T07:42:56Z</time></trkpt><trkpt lat="45.85915660700198" lon="9.879712481035869"><ele>447.0</ele><time>2026-04-26T07:42:57Z</time></trkpt><trkpt lat="45.85920335916275" lon="9.879780732760775"><ele>447.0</ele><time>2026-04-26T07:42:58Z</time></trkpt><trkpt lat="45.85925517740331" lon="9.879843615013213"><ele>447.0</ele><time>2026-04-26T07:42:59Z</time></trkpt><trkpt lat="45.8593071236416" lon="9.87990250951589"><ele>446.99999999999994</ele><time>2026-04-26T07:43:00Z</time></trkpt><trkpt lat="45.8593592267873" lon="9.87996926550342"><ele>447.0</ele><time>2026-04-26T07:43:01Z</time></trkpt><trkpt lat="45.859412593719064" lon="9.880036863108085"><ele>446.85714285714283</ele><time>2026-04-26T07:43:02Z</time></trkpt><trkpt lat="45.85946307688643" lon="9.88010668738862"><ele>446.7142857142857</ele><time>2026-04-26T07:43:03Z</time></trkpt><trkpt lat="45.8595144771357" lon="9.88017784150258"><ele>446.57142857142856</ele><time>2026-04-26T07:43:04Z</time></trkpt><trkpt lat="45.85956455929237" lon="9.880254380682029"><ele>446.42857142857144</ele><time>2026-04-26T07:43:05Z</time></trkpt><trkpt lat="45.85961371767494" lon="9.88033288320201"><ele>446.2857142857143</ele><time>2026-04-26T07:43:06Z</time></trkpt><trkpt lat="45.859666850406576" lon="9.880415614749129"><ele>446.1428571428571</ele><time>2026-04-26T07:43:07Z</time></trkpt><trkpt lat="45.85972062497019" lon="9.880488680409059"><ele>446.0</ele><time>2026-04-26T07:43:08Z</time></trkpt><trkpt lat="45.859775363822436" lon="9.880559525064212"><ele>446.0</ele><time>2026-04-26T07:43:09Z</time></trkpt><trkpt lat="45.85982947638984" lon="9.880622432669108"><ele>446.0</ele><time>2026-04-26T07:43:10Z</time></trkpt><trkpt lat="45.859884571205484" lon="9.88067666515191"><ele>446.0</ele><time>2026-04-26T07:43:11Z</time></trkpt><trkpt lat="45.859939567285686" lon="9.880728884459993"><ele>446.0</ele><time>2026-04-26T07:43:12Z</time></trkpt><trkpt lat="45.85999265473328" lon="9.880782238610639"><ele>446.0</ele><time>2026-04-26T07:43:13Z</time></trkpt><trkpt lat="45.860046316115074" lon="9.880833351985501"><ele>446.0</ele><time>2026-04-26T07:43:14Z</time></trkpt><trkpt lat="45.860099645002435" lon="9.88088538201221"><ele>446.0</ele><time>2026-04-26T07:43:15Z</time></trkpt><trkpt lat="45.8601521330432" lon="9.880939261458241"><ele>446.66666666666663</ele><time>2026-04-26T07:43:16Z</time></trkpt><trkpt lat="45.860207948326824" lon="9.880992431709199"><ele>447.3333333333333</ele><time>2026-04-26T07:43:17Z</time></trkpt><trkpt lat="45.86026200624766" lon="9.881045795330957"><ele>448.0</ele><time>2026-04-26T07:43:18Z</time></trkpt><trkpt lat="45.86031881743505" lon="9.881090453945019"><ele>448.66666666666663</ele><time>2026-04-26T07:43:19Z</time></trkpt><trkpt lat="45.86043347950329" lon="9.881189938654197"><ele>449.3333333333333</ele><time>2026-04-26T07:43:21Z</time></trkpt><trkpt lat="45.8604887137907" lon="9.881237928347115"><ele>450.0</ele><time>2026-04-26T07:43:22Z</time></trkpt><trkpt lat="45.860547492853584" lon="9.88128535130766"><ele>450.0</ele><time>2026-04-26T07:43:23Z</time></trkpt><trkpt lat="45.86060642754174" lon="9.881331708367158"><ele>450.0</ele><time>2026-04-26T07:43:24Z</time></trkpt><trkpt lat="45.86066538807055" lon="9.881370086678842"><ele>450.0</ele><time>2026-04-26T07:43:25Z</time></trkpt><trkpt lat="45.86072120398886" lon="9.881414269846388"><ele>450.0</ele><time>2026-04-26T07:43:26Z</time></trkpt><trkpt lat="45.86078123340454" lon="9.881445557058923"><ele>450.0</ele><time>2026-04-26T07:43:27Z</time></trkpt><trkpt lat="45.860894187977856" lon="9.88152020929603"><ele>450.0</ele><time>2026-04-26T07:43:28.999Z</time></trkpt><trkpt lat="45.86100638616472" lon="9.881594356155441"><ele>450.2</ele><time>2026-04-26T07:43:30.999Z</time></trkpt><trkpt lat="45.86106609716222" lon="9.881623948599687"><ele>450.4</ele><time>2026-04-26T07:43:31.999Z</time></trkpt><trkpt lat="45.861181145143206" lon="9.881695142423299"><ele>450.6</ele><time>2026-04-26T07:43:33.999Z</time></trkpt><trkpt lat="45.861242226087505" lon="9.881718336770643"><ele>450.8</ele><time>2026-04-26T07:43:34.999Z</time></trkpt><trkpt lat="45.861360149314066" lon="9.881757847684494"><ele>451.0</ele><time>2026-04-26T07:43:36.999Z</time></trkpt><trkpt lat="45.86146614850302" lon="9.881844825377934"><ele>451.00000000000006</ele><time>2026-04-26T07:43:38.999Z</time></trkpt><trkpt lat="45.861524080180715" lon="9.8818859771876"><ele>451.0</ele><time>2026-04-26T07:43:39.999Z</time></trkpt><trkpt lat="45.86158893788376" lon="9.881926010572013"><ele>451.0</ele><time>2026-04-26T07:43:40.999Z</time></trkpt><trkpt lat="45.86170316229091" lon="9.88200756381623"><ele>451.0</ele><time>2026-04-26T07:43:42.999Z</time></trkpt><trkpt lat="45.86176517780838" lon="9.882048636656526"><ele>451.00000000000006</ele><time>2026-04-26T07:43:43.999Z</time></trkpt><trkpt lat="45.86182368648818" lon="9.882083547942262"><ele>451.0</ele><time>2026-04-26T07:43:44.999Z</time></trkpt><trkpt lat="45.86188566399688" lon="9.882113842970007"><ele>451.1428571428571</ele><time>2026-04-26T07:43:45.999Z</time></trkpt><trkpt lat="45.86194747266262" lon="9.882146206347805"><ele>451.28571428571433</ele><time>2026-04-26T07:43:46.999Z</time></trkpt><trkpt lat="45.86200961767073" lon="9.88217916581884"><ele>451.42857142857144</ele><time>2026-04-26T07:43:47.999Z</time></trkpt><trkpt lat="45.86207086796702" lon="9.882200093227743"><ele>451.57142857142856</ele><time>2026-04-26T07:43:49Z</time></trkpt><trkpt lat="45.86213423443407" lon="9.882229602652465"><ele>451.71428571428567</ele><time>2026-04-26T07:43:50Z</time></trkpt><trkpt lat="45.86219796525222" lon="9.882257918462058"><ele>451.8571428571429</ele><time>2026-04-26T07:43:51Z</time></trkpt><trkpt lat="45.862260673435294" lon="9.88228299266176"><ele>452.0</ele><time>2026-04-26T07:43:52Z</time></trkpt><trkpt lat="45.86232316271024" lon="9.882304110658877"><ele>452.0</ele><time>2026-04-26T07:43:53Z</time></trkpt><trkpt lat="45.8623878554447" lon="9.882322241251243"><ele>452.0</ele><time>2026-04-26T07:43:54Z</time></trkpt><trkpt lat="45.86245371298983" lon="9.882341651869197"><ele>452.0</ele><time>2026-04-26T07:43:55Z</time></trkpt><trkpt lat="45.86251709131229" lon="9.88237058621017"><ele>452.0</ele><time>2026-04-26T07:43:56Z</time></trkpt><trkpt lat="45.862577741513455" lon="9.882405000593774"><ele>452.0</ele><time>2026-04-26T07:43:57Z</time></trkpt><trkpt lat="45.86263844309983" lon="9.88244098050917"><ele>452.0</ele><time>2026-04-26T07:43:58Z</time></trkpt><trkpt lat="45.862697554934584" lon="9.882478354383622"><ele>452.0</ele><time>2026-04-26T07:43:59Z</time></trkpt><trkpt lat="45.86275579999457" lon="9.882518225508777"><ele>451.8571428571429</ele><time>2026-04-26T07:44:00Z</time></trkpt><trkpt lat="45.862812598212265" lon="9.88256474473472"><ele>451.71428571428567</ele><time>2026-04-26T07:44:01Z</time></trkpt><trkpt lat="45.86287015568414" lon="9.882609116127416"><ele>451.57142857142856</ele><time>2026-04-26T07:44:02Z</time></trkpt><trkpt lat="45.862923836618116" lon="9.88265732180435"><ele>451.42857142857144</ele><time>2026-04-26T07:44:03Z</time></trkpt><trkpt lat="45.8629815705902" lon="9.882698293854764"><ele>451.28571428571433</ele><time>2026-04-26T07:44:04Z</time></trkpt><trkpt lat="45.863096062824894" lon="9.882778766040822"><ele>451.1428571428571</ele><time>2026-04-26T07:44:06Z</time></trkpt><trkpt lat="45.86315257019665" lon="9.882819461291897"><ele>451.0</ele><time>2026-04-26T07:44:07Z</time></trkpt><trkpt lat="45.863210993666364" lon="9.882859022565913"><ele>451.0</ele><time>2026-04-26T07:44:08Z</time></trkpt><trkpt lat="45.86326928734574" lon="9.882900889927893"><ele>451.0</ele><time>2026-04-26T07:44:09Z</time></trkpt><trkpt lat="45.86332588277902" lon="9.88294666253426"><ele>451.0</ele><time>2026-04-26T07:44:10Z</time></trkpt><trkpt lat="45.863381949352814" lon="9.882991143078302"><ele>451.0</ele><time>2026-04-26T07:44:11Z</time></trkpt><trkpt lat="45.86343888392556" lon="9.883032690944331"><ele>451.0</ele><time>2026-04-26T07:44:12Z</time></trkpt><trkpt lat="45.863496417894275" lon="9.883073631265512"><ele>451.0</ele><time>2026-04-26T07:44:13Z</time></trkpt><trkpt lat="45.86360687000651" lon="9.883156378508408"><ele>451.0</ele><time>2026-04-26T07:44:15Z</time></trkpt><trkpt lat="45.86366460210584" lon="9.883197436383847"><ele>451.4</ele><time>2026-04-26T07:44:16Z</time></trkpt><trkpt lat="45.86377436157756" lon="9.883270445403472"><ele>451.8</ele><time>2026-04-26T07:44:18Z</time></trkpt><trkpt lat="45.863840248300804" lon="9.883402185432997"><ele>452.19999999999993</ele><time>2026-04-26T07:44:20Z</time></trkpt><trkpt lat="45.863936938816806" lon="9.883516558565253"><ele>452.59999999999997</ele><time>2026-04-26T07:44:22Z</time></trkpt><trkpt lat="45.86399863340557" lon="9.88355050508802"><ele>453.0</ele><time>2026-04-26T07:44:23Z</time></trkpt><trkpt lat="45.86405663919566" lon="9.883588534503836"><ele>452.8333333333333</ele><time>2026-04-26T07:44:24Z</time></trkpt><trkpt lat="45.8641759999364" lon="9.883646952846663"><ele>452.66666666666663</ele><time>2026-04-26T07:44:26Z</time></trkpt><trkpt lat="45.86424093449844" lon="9.883642111699546"><ele>452.5</ele><time>2026-04-26T07:44:27Z</time></trkpt><trkpt lat="45.864324389968665" lon="9.883682887215071"><ele>452.3333333333333</ele><time>2026-04-26T07:44:29Z</time></trkpt><trkpt lat="45.864360624502204" lon="9.883769441335431"><ele>452.16666666666663</ele><time>2026-04-26T07:44:30Z</time></trkpt><trkpt lat="45.864418792076556" lon="9.883813396355707"><ele>452.0</ele><time>2026-04-26T07:44:31Z</time></trkpt><trkpt lat="45.864484955635604" lon="9.883870368408418"><ele>452.0</ele><time>2026-04-26T07:44:32Z</time></trkpt><trkpt lat="45.86454870978328" lon="9.88391353944435"><ele>452.00000000000006</ele><time>2026-04-26T07:44:33Z</time></trkpt><trkpt lat="45.86460958479943" lon="9.883945284685357"><ele>452.00000000000006</ele><time>2026-04-26T07:44:34Z</time></trkpt><trkpt lat="45.86472502003951" lon="9.884013796518127"><ele>452.0</ele><time>2026-04-26T07:44:36Z</time></trkpt><trkpt lat="45.86483401152358" lon="9.88405534848128"><ele>452.0</ele><time>2026-04-26T07:44:38Z</time></trkpt><trkpt lat="45.864957716178566" lon="9.884065438103775"><ele>452.0</ele><time>2026-04-26T07:44:40Z</time></trkpt><trkpt lat="45.86507698845236" lon="9.884112786083312"><ele>452.0</ele><time>2026-04-26T07:44:42Z</time></trkpt><trkpt lat="45.86519345214249" lon="9.884152373916189"><ele>452.0</ele><time>2026-04-26T07:44:44Z</time></trkpt><trkpt lat="45.86528944150101" lon="9.884184039642108"><ele>452.0</ele><time>2026-04-26T07:44:46Z</time></trkpt><trkpt lat="45.86540702470942" lon="9.884191307102856"><ele>452.7142857142857</ele><time>2026-04-26T07:44:48Z</time></trkpt><trkpt lat="45.865475372556034" lon="9.884194520047357"><ele>453.42857142857144</ele><time>2026-04-26T07:44:49Z</time></trkpt><trkpt lat="45.86554134529615" lon="9.884202705975312"><ele>454.14285714285717</ele><time>2026-04-26T07:44:50Z</time></trkpt><trkpt lat="45.86560471063662" lon="9.884216354780806"><ele>454.8571428571429</ele><time>2026-04-26T07:44:51Z</time></trkpt><trkpt lat="45.86566845967811" lon="9.88422936824206"><ele>455.57142857142856</ele><time>2026-04-26T07:44:52Z</time></trkpt><trkpt lat="45.865731556412165" lon="9.884241850256974"><ele>456.28571428571433</ele><time>2026-04-26T07:44:53Z</time></trkpt><trkpt lat="45.86579402712417" lon="9.884255353127662"><ele>457.00000000000006</ele><time>2026-04-26T07:44:54Z</time></trkpt><trkpt lat="45.86585719785113" lon="9.884266206161783"><ele>457.00000000000006</ele><time>2026-04-26T07:44:55Z</time></trkpt><trkpt lat="45.86592032922058" lon="9.884276089307477"><ele>457.0</ele><time>2026-04-26T07:44:56Z</time></trkpt><trkpt lat="45.86598489824832" lon="9.884285417800253"><ele>457.00000000000006</ele><time>2026-04-26T07:44:57Z</time></trkpt><trkpt lat="45.86604770426002" lon="9.88429593373335"><ele>457.00000000000006</ele><time>2026-04-26T07:44:58Z</time></trkpt><trkpt lat="45.866110864731" lon="9.884302465428114"><ele>457.0</ele><time>2026-04-26T07:44:59Z</time></trkpt><trkpt lat="45.86617426931796" lon="9.8843149033312"><ele>457.00000000000006</ele><time>2026-04-26T07:45:00Z</time></trkpt><trkpt lat="45.866298416128274" lon="9.884338106909155"><ele>457.00000000000006</ele><time>2026-04-26T07:45:02Z</time></trkpt><trkpt lat="45.86642392120967" lon="9.884358788458343"><ele>456.83333333333337</ele><time>2026-04-26T07:45:04Z</time></trkpt><trkpt lat="45.8664870304412" lon="9.884361155047394"><ele>456.6666666666667</ele><time>2026-04-26T07:45:05Z</time></trkpt><trkpt lat="45.866609734424074" lon="9.884399011981259"><ele>456.5</ele><time>2026-04-26T07:45:07Z</time></trkpt><trkpt lat="45.866722817825185" lon="9.884477262858269"><ele>456.33333333333337</ele><time>2026-04-26T07:45:09Z</time></trkpt><trkpt lat="45.866780217482145" lon="9.88452010658009"><ele>456.1666666666667</ele><time>2026-04-26T07:45:10Z</time></trkpt><trkpt lat="45.86683540313209" lon="9.88456404533278"><ele>456.0</ele><time>2026-04-26T07:45:11Z</time></trkpt><trkpt lat="45.86689200562129" lon="9.884609989475154"><ele>456.4285714285714</ele><time>2026-04-26T07:45:12Z</time></trkpt><trkpt lat="45.866947364034104" lon="9.884658370087989"><ele>456.8571428571428</ele><time>2026-04-26T07:45:13Z</time></trkpt><trkpt lat="45.86700050654459" lon="9.884708326928664"><ele>457.2857142857143</ele><time>2026-04-26T07:45:14Z</time></trkpt><trkpt lat="45.867102610504716" lon="9.884813645846041"><ele>457.71428571428567</ele><time>2026-04-26T07:45:16Z</time></trkpt><trkpt lat="45.867152231684955" lon="9.884870990607995"><ele>458.1428571428571</ele><time>2026-04-26T07:45:17Z</time></trkpt><trkpt lat="45.867201353477846" lon="9.884928114898136"><ele>458.57142857142856</ele><time>2026-04-26T07:45:18Z</time></trkpt><trkpt lat="45.86725245612981" lon="9.884984196231585"><ele>459.0</ele><time>2026-04-26T07:45:19Z</time></trkpt><trkpt lat="45.86730549443323" lon="9.885035344481862"><ele>458.75</ele><time>2026-04-26T07:45:20Z</time></trkpt><trkpt lat="45.867408539354614" lon="9.885136953750994"><ele>458.5</ele><time>2026-04-26T07:45:22Z</time></trkpt><trkpt lat="45.86751200132156" lon="9.885237987020988"><ele>458.25</ele><time>2026-04-26T07:45:24Z</time></trkpt><trkpt lat="45.86761592343774" lon="9.885331547767878"><ele>458.0</ele><time>2026-04-26T07:45:26Z</time></trkpt><trkpt lat="45.86770758666556" lon="9.88545171859597"><ele>458.0</ele><time>2026-04-26T07:45:28Z</time></trkpt><trkpt lat="45.86780182508874" lon="9.885571442597128"><ele>457.99999999999994</ele><time>2026-04-26T07:45:30Z</time></trkpt><trkpt lat="45.86788448565582" lon="9.885694818240264"><ele>457.99999999999994</ele><time>2026-04-26T07:45:32Z</time></trkpt><trkpt lat="45.867909497835925" lon="9.88583266189698"><ele>458.0</ele><time>2026-04-26T07:45:34Z</time></trkpt><trkpt lat="45.86793543077407" lon="9.885919710130429"><ele>458.0</ele><time>2026-04-26T07:45:35Z</time></trkpt><trkpt lat="45.8679680725845" lon="9.886005481720048"><ele>458.0</ele><time>2026-04-26T07:45:36Z</time></trkpt><trkpt lat="45.86799610106976" lon="9.886091668027397"><ele>458.0</ele><time>2026-04-26T07:45:37Z</time></trkpt><trkpt lat="45.86802081891515" lon="9.886176011053777"><ele>458.0</ele><time>2026-04-26T07:45:38Z</time></trkpt><trkpt lat="45.86804570614929" lon="9.886261066144804"><ele>458.0</ele><time>2026-04-26T07:45:39Z</time></trkpt><trkpt lat="45.86806763041763" lon="9.88634601173916"><ele>458.0</ele><time>2026-04-26T07:45:40Z</time></trkpt><trkpt lat="45.86808911706834" lon="9.886433196785184"><ele>458.0</ele><time>2026-04-26T07:45:41Z</time></trkpt><trkpt lat="45.868103565790236" lon="9.886522891497426"><ele>458.0</ele><time>2026-04-26T07:45:42Z</time></trkpt><trkpt lat="45.86811641619739" lon="9.886611500411354"><ele>458.0</ele><time>2026-04-26T07:45:43Z</time></trkpt><trkpt lat="45.86812839124958" lon="9.886703382297005"><ele>458.49999999999994</ele><time>2026-04-26T07:45:44Z</time></trkpt><trkpt lat="45.86814854488914" lon="9.886883966402305"><ele>459.0</ele><time>2026-04-26T07:45:46Z</time></trkpt><trkpt lat="45.868164821457036" lon="9.886972503875265"><ele>459.5</ele><time>2026-04-26T07:45:47Z</time></trkpt><trkpt lat="45.86817811737504" lon="9.887066072169622"><ele>460.0</ele><time>2026-04-26T07:45:48Z</time></trkpt><trkpt lat="45.868200871829686" lon="9.887244363288689"><ele>460.49999999999994</ele><time>2026-04-26T07:45:50Z</time></trkpt><trkpt lat="45.86821198636488" lon="9.887334954693618"><ele>461.0</ele><time>2026-04-26T07:45:51Z</time></trkpt><trkpt lat="45.868238112952" lon="9.88751228571943"><ele>461.8</ele><time>2026-04-26T07:45:53Z</time></trkpt><trkpt lat="45.868264381017894" lon="9.887689173372994"><ele>462.6</ele><time>2026-04-26T07:45:55Z</time></trkpt><trkpt lat="45.868293277175496" lon="9.887865938803568"><ele>463.4</ele><time>2026-04-26T07:45:57Z</time></trkpt><trkpt lat="45.868330321466864" lon="9.888038457048927"><ele>464.2</ele><time>2026-04-26T07:45:59Z</time></trkpt><trkpt lat="45.86835067946848" lon="9.888125353490652"><ele>465.0</ele><time>2026-04-26T07:46:00Z</time></trkpt><trkpt lat="45.868373089734966" lon="9.88821025688196"><ele>465.0</ele><time>2026-04-26T07:46:01Z</time></trkpt><trkpt lat="45.868396727260155" lon="9.888296361509523"><ele>465.0</ele><time>2026-04-26T07:46:02Z</time></trkpt><trkpt lat="45.86841892921565" lon="9.888381776667373"><ele>465.0</ele><time>2026-04-26T07:46:03Z</time></trkpt><trkpt lat="45.86846853614312" lon="9.888547052520048"><ele>465.0</ele><time>2026-04-26T07:46:05Z</time></trkpt><trkpt lat="45.8684900482205" lon="9.888632683519539"><ele>465.0</ele><time>2026-04-26T07:46:06Z</time></trkpt><trkpt lat="45.86853528196351" lon="9.888796776052462"><ele>465.0</ele><time>2026-04-26T07:46:08Z</time></trkpt><trkpt lat="45.868586419978" lon="9.888961374038985"><ele>464.8</ele><time>2026-04-26T07:46:10Z</time></trkpt><trkpt lat="45.86863994596325" lon="9.889120252936163"><ele>464.6</ele><time>2026-04-26T07:46:12Z</time></trkpt><trkpt lat="45.86866585252768" lon="9.889204587115719"><ele>464.4</ele><time>2026-04-26T07:46:13Z</time></trkpt><trkpt lat="45.86871124917275" lon="9.889347294305427"><ele>464.2</ele><time>2026-04-26T07:46:15Z</time></trkpt><trkpt lat="45.86874621908221" lon="9.889477996626395"><ele>464.0</ele><time>2026-04-26T07:46:17Z</time></trkpt><trkpt lat="45.86880246721553" lon="9.889630330683644"><ele>463.99999999999994</ele><time>2026-04-26T07:46:19Z</time></trkpt><trkpt lat="45.86883156804737" lon="9.889711949386953"><ele>464.0</ele><time>2026-04-26T07:46:20Z</time></trkpt><trkpt lat="45.86886086524025" lon="9.889795322945472"><ele>464.0</ele><time>2026-04-26T07:46:21Z</time></trkpt><trkpt lat="45.8689180613053" lon="9.889957956266084"><ele>464.0</ele><time>2026-04-26T07:46:23Z</time></trkpt><trkpt lat="45.8689804106516" lon="9.890112618026581"><ele>463.99999999999994</ele><time>2026-04-26T07:46:25Z</time></trkpt><trkpt lat="45.86901128445813" lon="9.890194506020457"><ele>464.0</ele><time>2026-04-26T07:46:26Z</time></trkpt><trkpt lat="45.8690487840603" lon="9.890270788944218"><ele>464.25</ele><time>2026-04-26T07:46:27Z</time></trkpt><trkpt lat="45.86911239428995" lon="9.890424920559333"><ele>464.5</ele><time>2026-04-26T07:46:29Z</time></trkpt><trkpt lat="45.86916157110215" lon="9.890585251896297"><ele>464.75</ele><time>2026-04-26T07:46:31Z</time></trkpt><trkpt lat="45.8691922523781" lon="9.890758411378412"><ele>465.0</ele><time>2026-04-26T07:46:33Z</time></trkpt><trkpt lat="45.869216484919015" lon="9.890936742775777"><ele>466.25</ele><time>2026-04-26T07:46:35Z</time></trkpt><trkpt lat="45.869224814272854" lon="9.891114906712763"><ele>467.5</ele><time>2026-04-26T07:46:37Z</time></trkpt><trkpt lat="45.86923424321578" lon="9.891288514483685"><ele>468.75</ele><time>2026-04-26T07:46:39Z</time></trkpt><trkpt lat="45.86924557951813" lon="9.891462962063391"><ele>470.0</ele><time>2026-04-26T07:46:41Z</time></trkpt><trkpt lat="45.869263013903605" lon="9.891642722058219"><ele>471.0</ele><time>2026-04-26T07:46:43Z</time></trkpt><trkpt lat="45.86927003586841" lon="9.891821378007132"><ele>472.0</ele><time>2026-04-26T07:46:45Z</time></trkpt><trkpt lat="45.86926877648399" lon="9.891998444654929"><ele>473.0</ele><time>2026-04-26T07:46:47Z</time></trkpt><trkpt lat="45.86926487267453" lon="9.89208870843093"><ele>474.0</ele><time>2026-04-26T07:46:48Z</time></trkpt><trkpt lat="45.869242555806196" lon="9.892265383680627"><ele>475.0</ele><time>2026-04-26T07:46:50Z</time></trkpt><trkpt lat="45.86922979333833" lon="9.892354927141321"><ele>475.00000000000006</ele><time>2026-04-26T07:46:51Z</time></trkpt><trkpt lat="45.86921729886358" lon="9.89244389163964"><ele>475.0</ele><time>2026-04-26T07:46:52Z</time></trkpt><trkpt lat="45.869185707430454" lon="9.892617005140274"><ele>475.0</ele><time>2026-04-26T07:46:54Z</time></trkpt><trkpt lat="45.86917095669614" lon="9.892705234667432"><ele>475.0</ele><time>2026-04-26T07:46:55Z</time></trkpt><trkpt lat="45.86915042196858" lon="9.892792762744154"><ele>475.00000000000006</ele><time>2026-04-26T07:46:56Z</time></trkpt><trkpt lat="45.869136411645535" lon="9.892881751092512"><ele>475.0</ele><time>2026-04-26T07:46:57Z</time></trkpt><trkpt lat="45.86910942156607" lon="9.893055026664452"><ele>474.8</ele><time>2026-04-26T07:46:59Z</time></trkpt><trkpt lat="45.869085239481535" lon="9.89322710417025"><ele>474.6</ele><time>2026-04-26T07:47:01Z</time></trkpt><trkpt lat="45.869052420763865" lon="9.893398938966845"><ele>474.4</ele><time>2026-04-26T07:47:03Z</time></trkpt><trkpt lat="45.86902170357774" lon="9.893567408258736"><ele>474.2</ele><time>2026-04-26T07:47:05Z</time></trkpt><trkpt lat="45.86901764181311" lon="9.8936578621483"><ele>474.0</ele><time>2026-04-26T07:47:06Z</time></trkpt><trkpt lat="45.869013561011585" lon="9.89383022388186"><ele>474.4</ele><time>2026-04-26T07:47:08Z</time></trkpt><trkpt lat="45.86902810555393" lon="9.894008286621133"><ele>474.79999999999995</ele><time>2026-04-26T07:47:10Z</time></trkpt><trkpt lat="45.869041249479444" lon="9.894109315709114"><ele>475.20000000000005</ele><time>2026-04-26T07:47:11Z</time></trkpt><trkpt lat="45.869064500912586" lon="9.894270706665994"><ele>475.6</ele><time>2026-04-26T07:47:13Z</time></trkpt><trkpt lat="45.869081181385866" lon="9.89436075104914"><ele>476.0</ele><time>2026-04-26T07:47:14Z</time></trkpt><trkpt lat="45.8691287662623" lon="9.894525137055526"><ele>475.4</ele><time>2026-04-26T07:47:16Z</time></trkpt><trkpt lat="45.86918439279409" lon="9.894680018338788"><ele>474.8</ele><time>2026-04-26T07:47:18Z</time></trkpt><trkpt lat="45.869246733728275" lon="9.894835229707772"><ele>474.19999999999993</ele><time>2026-04-26T07:47:20Z</time></trkpt><trkpt lat="45.869306043283125" lon="9.894990294952498"><ele>473.59999999999997</ele><time>2026-04-26T07:47:22Z</time></trkpt><trkpt lat="45.869338378523146" lon="9.895068354967126"><ele>473.0</ele><time>2026-04-26T07:47:23Z</time></trkpt><trkpt lat="45.86939684972064" lon="9.895221798930562"><ele>472.75</ele><time>2026-04-26T07:47:25Z</time></trkpt><trkpt lat="45.86946094730925" lon="9.895376648967488"><ele>472.5</ele><time>2026-04-26T07:47:27Z</time></trkpt><trkpt lat="45.86952346095369" lon="9.895532892102173"><ele>472.25</ele><time>2026-04-26T07:47:29Z</time></trkpt><trkpt lat="45.869584371973964" lon="9.895691342033778"><ele>472.0</ele><time>2026-04-26T07:47:31Z</time></trkpt><trkpt lat="45.86964700287782" lon="9.895846959052662"><ele>473.40000000000003</ele><time>2026-04-26T07:47:33Z</time></trkpt><trkpt lat="45.86968147818577" lon="9.895924329182655"><ele>474.80000000000007</ele><time>2026-04-26T07:47:34Z</time></trkpt><trkpt lat="45.86974634832861" lon="9.89607759863279"><ele>476.2</ele><time>2026-04-26T07:47:36Z</time></trkpt><trkpt lat="45.869811956300616" lon="9.896229003164848"><ele>477.6</ele><time>2026-04-26T07:47:38Z</time></trkpt><trkpt lat="45.869871071532366" lon="9.896386631038524"><ele>479.0</ele><time>2026-04-26T07:47:40Z</time></trkpt><trkpt lat="45.8699312375773" lon="9.89654380227769"><ele>479.0</ele><time>2026-04-26T07:47:42Z</time></trkpt><trkpt lat="45.869988947092544" lon="9.89669881602722"><ele>479.0</ele><time>2026-04-26T07:47:44Z</time></trkpt><trkpt lat="45.87005163692549" lon="9.896852742878092"><ele>479.0</ele><time>2026-04-26T07:47:46Z</time></trkpt><trkpt lat="45.87011247580122" lon="9.897000820161228"><ele>479.0</ele><time>2026-04-26T07:47:48Z</time></trkpt><trkpt lat="45.87017883742491" lon="9.897146532583902"><ele>477.75</ele><time>2026-04-26T07:47:50Z</time></trkpt><trkpt lat="45.87024429079463" lon="9.89729373669175"><ele>476.5</ele><time>2026-04-26T07:47:52Z</time></trkpt><trkpt lat="45.87030642591163" lon="9.89743809244656"><ele>475.25</ele><time>2026-04-26T07:47:54Z</time></trkpt><trkpt lat="45.87036369024444" lon="9.89759126973166"><ele>474.0</ele><time>2026-04-26T07:47:56Z</time></trkpt><trkpt lat="45.870424261934524" lon="9.897742619203369"><ele>476.79999999999995</ele><time>2026-04-26T07:47:58Z</time></trkpt><trkpt lat="45.870482140857426" lon="9.897903005044112"><ele>479.59999999999997</ele><time>2026-04-26T07:48:00Z</time></trkpt><trkpt lat="45.87054307133924" lon="9.898056336129647"><ele>482.4</ele><time>2026-04-26T07:48:02Z</time></trkpt><trkpt lat="45.87057674879649" lon="9.898132882983406"><ele>485.2</ele><time>2026-04-26T07:48:03Z</time></trkpt><trkpt lat="45.87064458804287" lon="9.898277455260256"><ele>488.0</ele><time>2026-04-26T07:48:05Z</time></trkpt><trkpt lat="45.87066756724528" lon="9.898364573893755"><ele>489.49999999999994</ele><time>2026-04-26T07:48:06Z</time></trkpt><trkpt lat="45.87073076559916" lon="9.898511197585908"><ele>491.0</ele><time>2026-04-26T07:48:08Z</time></trkpt><trkpt lat="45.870758136948766" lon="9.898595787135644"><ele>492.5</ele><time>2026-04-26T07:48:09Z</time></trkpt><trkpt lat="45.87078461187886" lon="9.898678346772089"><ele>494.0</ele><time>2026-04-26T07:48:10Z</time></trkpt><trkpt lat="45.87081796602665" lon="9.898755263490418"><ele>495.49999999999994</ele><time>2026-04-26T07:48:11Z</time></trkpt><trkpt lat="45.87085275137583" lon="9.898833268329497"><ele>497.0</ele><time>2026-04-26T07:48:12Z</time></trkpt><trkpt lat="45.87091841930568" lon="9.898983437263569"><ele>495.3333333333333</ele><time>2026-04-26T07:48:14Z</time></trkpt><trkpt lat="45.87097397689982" lon="9.89914456195213"><ele>493.66666666666663</ele><time>2026-04-26T07:48:16Z</time></trkpt><trkpt lat="45.87100329837127" lon="9.899226258431463"><ele>492.0</ele><time>2026-04-26T07:48:17Z</time></trkpt><trkpt lat="45.87103705445908" lon="9.899306915177107"><ele>490.33333333333337</ele><time>2026-04-26T07:48:18Z</time></trkpt><trkpt lat="45.871070288583894" lon="9.899384032113566"><ele>488.6666666666667</ele><time>2026-04-26T07:48:19Z</time></trkpt><trkpt lat="45.87113098645992" lon="9.899540718554697"><ele>487.0</ele><time>2026-04-26T07:48:21Z</time></trkpt><trkpt lat="45.87116472743916" lon="9.899617734464188"><ele>487.0</ele><time>2026-04-26T07:48:22Z</time></trkpt><trkpt lat="45.87123019760132" lon="9.89977212624292"><ele>487.00000000000006</ele><time>2026-04-26T07:48:24Z</time></trkpt><trkpt lat="45.87129102160773" lon="9.899931971182685"><ele>487.00000000000006</ele><time>2026-04-26T07:48:26Z</time></trkpt><trkpt lat="45.87132437179048" lon="9.900012672679173"><ele>487.0</ele><time>2026-04-26T07:48:27Z</time></trkpt><trkpt lat="45.871353971168396" lon="9.90009258082345"><ele>487.0</ele><time>2026-04-26T07:48:28Z</time></trkpt><trkpt lat="45.871424067679534" lon="9.900248458094044"><ele>488.0</ele><time>2026-04-26T07:48:30Z</time></trkpt><trkpt lat="45.87145761467778" lon="9.90032821858714"><ele>489.0</ele><time>2026-04-26T07:48:31Z</time></trkpt><trkpt lat="45.871489093893935" lon="9.900409300163105"><ele>490.0</ele><time>2026-04-26T07:48:32Z</time></trkpt><trkpt lat="45.87152073599611" lon="9.900492516252791"><ele>491.0</ele><time>2026-04-26T07:48:33Z</time></trkpt><trkpt lat="45.87155032688873" lon="9.900573980019127"><ele>492.0</ele><time>2026-04-26T07:48:34Z</time></trkpt><trkpt lat="45.87158040708786" lon="9.900659811611167"><ele>493.0</ele><time>2026-04-26T07:48:35Z</time></trkpt><trkpt lat="45.87161193798047" lon="9.900742361010881"><ele>494.0</ele><time>2026-04-26T07:48:36Z</time></trkpt><trkpt lat="45.87164577977263" lon="9.90082316546971"><ele>493.99999999999994</ele><time>2026-04-26T07:48:37Z</time></trkpt><trkpt lat="45.87167976356289" lon="9.90090204586686"><ele>494.0</ele><time>2026-04-26T07:48:38Z</time></trkpt><trkpt lat="45.871711941060745" lon="9.900982586596209"><ele>494.0</ele><time>2026-04-26T07:48:39Z</time></trkpt><trkpt lat="45.871775378300406" lon="9.901135168554813"><ele>494.0</ele><time>2026-04-26T07:48:41Z</time></trkpt><trkpt lat="45.87183800645963" lon="9.90129338064691"><ele>493.99999999999994</ele><time>2026-04-26T07:48:43Z</time></trkpt><trkpt lat="45.871869282612224" lon="9.901372571469059"><ele>494.0</ele><time>2026-04-26T07:48:44Z</time></trkpt><trkpt lat="45.871897654646325" lon="9.90145365260896"><ele>494.42857142857144</ele><time>2026-04-26T07:48:45Z</time></trkpt><trkpt lat="45.87196156063327" lon="9.901612933194093"><ele>494.85714285714283</ele><time>2026-04-26T07:48:47Z</time></trkpt><trkpt lat="45.87199362876084" lon="9.901691448510809"><ele>495.2857142857143</ele><time>2026-04-26T07:48:48Z</time></trkpt><trkpt lat="45.87202881995872" lon="9.901769155555758"><ele>495.7142857142857</ele><time>2026-04-26T07:48:49Z</time></trkpt><trkpt lat="45.87205772334752" lon="9.901851861618056"><ele>496.1428571428571</ele><time>2026-04-26T07:48:50Z</time></trkpt><trkpt lat="45.87208678622736" lon="9.901932985394366"><ele>496.57142857142856</ele><time>2026-04-26T07:48:51Z</time></trkpt><trkpt lat="45.872111357583094" lon="9.902019965140678"><ele>497.0</ele><time>2026-04-26T07:48:52Z</time></trkpt><trkpt lat="45.87213081854705" lon="9.902107071554791"><ele>497.0</ele><time>2026-04-26T07:48:53Z</time></trkpt><trkpt lat="45.87216522074152" lon="9.902283768142661"><ele>497.00000000000006</ele><time>2026-04-26T07:48:55Z</time></trkpt><trkpt lat="45.87218375975471" lon="9.902457566941028"><ele>497.00000000000006</ele><time>2026-04-26T07:48:57Z</time></trkpt><trkpt lat="45.87219787568138" lon="9.902546214942577"><ele>497.0</ele><time>2026-04-26T07:48:58Z</time></trkpt><trkpt lat="45.87220156434254" lon="9.90272078431716"><ele>497.0</ele><time>2026-04-26T07:49:00Z</time></trkpt><trkpt lat="45.87220143623512" lon="9.902813465458935"><ele>498.40000000000003</ele><time>2026-04-26T07:49:01Z</time></trkpt><trkpt lat="45.87219468442198" lon="9.902906133817371"><ele>499.80000000000007</ele><time>2026-04-26T07:49:02Z</time></trkpt><trkpt lat="45.872191986574244" lon="9.903085308069349"><ele>501.2</ele><time>2026-04-26T07:49:04Z</time></trkpt><trkpt lat="45.8721888249018" lon="9.903258278215379"><ele>502.6</ele><time>2026-04-26T07:49:06Z</time></trkpt><trkpt lat="45.87219125398657" lon="9.903431515590846"><ele>504.0</ele><time>2026-04-26T07:49:08Z</time></trkpt><trkpt lat="45.87218567958489" lon="9.903600436814166"><ele>504.2</ele><time>2026-04-26T07:49:10Z</time></trkpt><trkpt lat="45.87217926769179" lon="9.90377204902963"><ele>504.4</ele><time>2026-04-26T07:49:12Z</time></trkpt><trkpt lat="45.872176896944204" lon="9.90386329611769"><ele>504.6</ele><time>2026-04-26T07:49:13Z</time></trkpt><trkpt lat="45.87217180134494" lon="9.90404197875536"><ele>504.8</ele><time>2026-04-26T07:49:15Z</time></trkpt><trkpt lat="45.872170328278976" lon="9.904220006698624"><ele>505.0</ele><time>2026-04-26T07:49:17Z</time></trkpt><trkpt lat="45.87218864427743" lon="9.904396889289812"><ele>505.8</ele><time>2026-04-26T07:49:19Z</time></trkpt><trkpt lat="45.87219845080291" lon="9.904493164421414"><ele>506.6</ele><time>2026-04-26T07:49:20Z</time></trkpt><trkpt lat="45.87222717702327" lon="9.904656145426387"><ele>507.4</ele><time>2026-04-26T07:49:22Z</time></trkpt><trkpt lat="45.87226654597916" lon="9.90482333245002"><ele>508.2</ele><time>2026-04-26T07:49:24Z</time></trkpt><trkpt lat="45.872326156671974" lon="9.90498041067365"><ele>509.0</ele><time>2026-04-26T07:49:26Z</time></trkpt><trkpt lat="45.87239635647707" lon="9.905126526096725"><ele>509.6</ele><time>2026-04-26T07:49:28Z</time></trkpt><trkpt lat="45.872433863249796" lon="9.905200886192253"><ele>510.2</ele><time>2026-04-26T07:49:29Z</time></trkpt><trkpt lat="45.872500937441146" lon="9.905343800873485"><ele>510.80000000000007</ele><time>2026-04-26T07:49:31Z</time></trkpt><trkpt lat="45.87256497372854" lon="9.905494840361097"><ele>511.40000000000003</ele><time>2026-04-26T07:49:33Z</time></trkpt><trkpt lat="45.87262378450019" lon="9.90564794466188"><ele>512.0</ele><time>2026-04-26T07:49:35Z</time></trkpt><trkpt lat="45.872682060327705" lon="9.905804539325986"><ele>512.0</ele><time>2026-04-26T07:49:37Z</time></trkpt><trkpt lat="45.87273061583897" lon="9.90596298838783"><ele>512.0</ele><time>2026-04-26T07:49:39Z</time></trkpt><trkpt lat="45.87277769260304" lon="9.906119386923931"><ele>512.0</ele><time>2026-04-26T07:49:41Z</time></trkpt><trkpt lat="45.872794917887596" lon="9.906212927748195"><ele>512.0</ele><time>2026-04-26T07:49:42Z</time></trkpt><trkpt lat="45.87280899049724" lon="9.906391044047457"><ele>512.0</ele><time>2026-04-26T07:49:44Z</time></trkpt><trkpt lat="45.872814684671155" lon="9.906481690173573"><ele>512.0</ele><time>2026-04-26T07:49:45Z</time></trkpt><trkpt lat="45.87281973150172" lon="9.906576060852865"><ele>511.99999999999994</ele><time>2026-04-26T07:49:46Z</time></trkpt><trkpt lat="45.87282182382097" lon="9.906666822741641"><ele>512.0</ele><time>2026-04-26T07:49:47Z</time></trkpt><trkpt lat="45.872822649375436" lon="9.906757814606236"><ele>512.0</ele><time>2026-04-26T07:49:48Z</time></trkpt><trkpt lat="45.8728265328686" lon="9.906848274510589"><ele>511.99999999999994</ele><time>2026-04-26T07:49:49Z</time></trkpt><trkpt lat="45.87282937111064" lon="9.90694064935875"><ele>512.0</ele><time>2026-04-26T07:49:50Z</time></trkpt><trkpt lat="45.87284246372794" lon="9.907118154300505"><ele>512.0</ele><time>2026-04-26T07:49:52Z</time></trkpt><trkpt lat="45.87285595903911" lon="9.9072980866424"><ele>512.2</ele><time>2026-04-26T07:49:54Z</time></trkpt><trkpt lat="45.87287056415377" lon="9.907388104640743"><ele>512.4000000000001</ele><time>2026-04-26T07:49:55Z</time></trkpt><trkpt lat="45.87288683750185" lon="9.907560554501917"><ele>512.5999999999999</ele><time>2026-04-26T07:49:57Z</time></trkpt><trkpt lat="45.87288935537292" lon="9.90765208524846"><ele>512.8</ele><time>2026-04-26T07:49:58Z</time></trkpt><trkpt lat="45.87289698629935" lon="9.907832144357958"><ele>513.0</ele><time>2026-04-26T07:50:00Z</time></trkpt><trkpt lat="45.87290682055398" lon="9.908005836698626"><ele>514.6</ele><time>2026-04-26T07:50:02Z</time></trkpt><trkpt lat="45.87291392863995" lon="9.908177799477365"><ele>516.1999999999999</ele><time>2026-04-26T07:50:04Z</time></trkpt><trkpt lat="45.87292139618551" lon="9.908269614781121"><ele>517.8</ele><time>2026-04-26T07:50:05Z</time></trkpt><trkpt lat="45.87293504067559" lon="9.908449569099579"><ele>519.4</ele><time>2026-04-26T07:50:07Z</time></trkpt><trkpt lat="45.87294359278189" lon="9.90862790687655"><ele>521.0</ele><time>2026-04-26T07:50:09Z</time></trkpt><trkpt lat="45.872960527521855" lon="9.908806423308587"><ele>522.25</ele><time>2026-04-26T07:50:11Z</time></trkpt><trkpt lat="45.87297060196667" lon="9.908979438571743"><ele>523.5</ele><time>2026-04-26T07:50:13Z</time></trkpt><trkpt lat="45.872975645650186" lon="9.909152507876092"><ele>524.75</ele><time>2026-04-26T07:50:15Z</time></trkpt><trkpt lat="45.87297947458088" lon="9.90933108902507"><ele>526.0</ele><time>2026-04-26T07:50:17Z</time></trkpt><trkpt lat="45.87298643489915" lon="9.909507499960359"><ele>526.4</ele><time>2026-04-26T07:50:19Z</time></trkpt><trkpt lat="45.87299868500539" lon="9.909683349414431"><ele>526.8</ele><time>2026-04-26T07:50:21Z</time></trkpt><trkpt lat="45.87300254346098" lon="9.909774579394913"><ele>527.1999999999999</ele><time>2026-04-26T07:50:22Z</time></trkpt><trkpt lat="45.873006031663095" lon="9.909866639554085"><ele>527.6</ele><time>2026-04-26T07:50:23Z</time></trkpt><trkpt lat="45.87301230695161" lon="9.910046453865268"><ele>528.0</ele><time>2026-04-26T07:50:25Z</time></trkpt><trkpt lat="45.87302034919018" lon="9.910229279369538"><ele>528.0</ele><time>2026-04-26T07:50:27Z</time></trkpt><trkpt lat="45.87302868570464" lon="9.910410559932656"><ele>528.0</ele><time>2026-04-26T07:50:29Z</time></trkpt><trkpt lat="45.87304264387893" lon="9.910592756150793"><ele>528.0</ele><time>2026-04-26T07:50:31Z</time></trkpt><trkpt lat="45.87304548544582" lon="9.91068723447834"><ele>528.0</ele><time>2026-04-26T07:50:32Z</time></trkpt><trkpt lat="45.87305060316496" lon="9.910778458573994"><ele>528.0</ele><time>2026-04-26T07:50:33Z</time></trkpt><trkpt lat="45.87305476913088" lon="9.910871240958768"><ele>528.0</ele><time>2026-04-26T07:50:34Z</time></trkpt><trkpt lat="45.87307119235524" lon="9.91105215676429"><ele>528.1666666666666</ele><time>2026-04-26T07:50:36Z</time></trkpt><trkpt lat="45.873083570848934" lon="9.9111422663306"><ele>528.3333333333334</ele><time>2026-04-26T07:50:37Z</time></trkpt><trkpt lat="45.87309130166026" lon="9.91123538462115"><ele>528.5</ele><time>2026-04-26T07:50:38Z</time></trkpt><trkpt lat="45.87310252598512" lon="9.911325980419381"><ele>528.6666666666667</ele><time>2026-04-26T07:50:39Z</time></trkpt><trkpt lat="45.87310438982196" lon="9.911418296882916"><ele>528.8333333333334</ele><time>2026-04-26T07:50:40Z</time></trkpt><trkpt lat="45.87310733010275" lon="9.911508702360486"><ele>529.0</ele><time>2026-04-26T07:50:41Z</time></trkpt><trkpt lat="45.873112135372374" lon="9.911694818834272"><ele>529.0</ele><time>2026-04-26T07:50:43Z</time></trkpt><trkpt lat="45.873115892235624" lon="9.911786272439013"><ele>529.0</ele><time>2026-04-26T07:50:44Z</time></trkpt><trkpt lat="45.87312332450074" lon="9.911878564293774"><ele>529.0</ele><time>2026-04-26T07:50:45Z</time></trkpt><trkpt lat="45.87313019394704" lon="9.911970278189122"><ele>529.0</ele><time>2026-04-26T07:50:46Z</time></trkpt><trkpt lat="45.873139099835655" lon="9.912063375690861"><ele>529.0</ele><time>2026-04-26T07:50:47Z</time></trkpt><trkpt lat="45.87314750341006" lon="9.91215490395517"><ele>529.0</ele><time>2026-04-26T07:50:48Z</time></trkpt><trkpt lat="45.87315452876313" lon="9.912247569026611"><ele>529.0</ele><time>2026-04-26T07:50:49Z</time></trkpt><trkpt lat="45.873158198738906" lon="9.912341547244496"><ele>529.0</ele><time>2026-04-26T07:50:50Z</time></trkpt><trkpt lat="45.87316250149269" lon="9.912433551121469"><ele>529.0</ele><time>2026-04-26T07:50:51Z</time></trkpt><trkpt lat="45.873163878503334" lon="9.912528046552724"><ele>529.0</ele><time>2026-04-26T07:50:52Z</time></trkpt><trkpt lat="45.87316673678278" lon="9.91262233551628"><ele>529.0</ele><time>2026-04-26T07:50:53Z</time></trkpt><trkpt lat="45.87317069557276" lon="9.912714201507683"><ele>529.0</ele><time>2026-04-26T07:50:54Z</time></trkpt><trkpt lat="45.87317395324418" lon="9.912807567164393"><ele>529.0</ele><time>2026-04-26T07:50:55Z</time></trkpt><trkpt lat="45.8731781817113" lon="9.912900404811564"><ele>529.0</ele><time>2026-04-26T07:50:56Z</time></trkpt><trkpt lat="45.87318137988467" lon="9.912992241384092"><ele>528.8571428571429</ele><time>2026-04-26T07:50:57Z</time></trkpt><trkpt lat="45.873182676720795" lon="9.913088154333177"><ele>528.7142857142857</ele><time>2026-04-26T07:50:58Z</time></trkpt><trkpt lat="45.87318611572073" lon="9.913181961508371"><ele>528.5714285714286</ele><time>2026-04-26T07:50:59Z</time></trkpt><trkpt lat="45.873190139708434" lon="9.913273455715292"><ele>528.4285714285714</ele><time>2026-04-26T07:51:00Z</time></trkpt><trkpt lat="45.873192565787704" lon="9.91336756403444"><ele>528.2857142857143</ele><time>2026-04-26T07:51:01Z</time></trkpt><trkpt lat="45.87319576046827" lon="9.913459166920434"><ele>528.1428571428571</ele><time>2026-04-26T07:51:02Z</time></trkpt><trkpt lat="45.87319526857947" lon="9.913552460432909"><ele>528.0</ele><time>2026-04-26T07:51:03Z</time></trkpt><trkpt lat="45.87319862543267" lon="9.913647037031316"><ele>528.0</ele><time>2026-04-26T07:51:04Z</time></trkpt><trkpt lat="45.87320482757176" lon="9.913737845110004"><ele>528.0</ele><time>2026-04-26T07:51:05Z</time></trkpt><trkpt lat="45.87321468561322" lon="9.913827277196319"><ele>528.0</ele><time>2026-04-26T07:51:06Z</time></trkpt><trkpt lat="45.87322378279921" lon="9.913920038860079"><ele>528.0</ele><time>2026-04-26T07:51:07Z</time></trkpt><trkpt lat="45.87323646958974" lon="9.91401012176144"><ele>528.0</ele><time>2026-04-26T07:51:08Z</time></trkpt><trkpt lat="45.87324933289015" lon="9.914099814504576"><ele>528.0</ele><time>2026-04-26T07:51:09Z</time></trkpt><trkpt lat="45.873259204088264" lon="9.914278909451244"><ele>528.0</ele><time>2026-04-26T07:51:11Z</time></trkpt><trkpt lat="45.873264644131126" lon="9.914370581189358"><ele>528.6666666666666</ele><time>2026-04-26T07:51:12Z</time></trkpt><trkpt lat="45.87327271915139" lon="9.91446058818786"><ele>529.3333333333334</ele><time>2026-04-26T07:51:13Z</time></trkpt><trkpt lat="45.87328100313365" lon="9.914553268117226"><ele>530.0</ele><time>2026-04-26T07:51:14Z</time></trkpt><trkpt lat="45.87329537498334" lon="9.914729778599968"><ele>530.6666666666667</ele><time>2026-04-26T07:51:16Z</time></trkpt><trkpt lat="45.8733052082734" lon="9.914908105609792"><ele>531.3333333333334</ele><time>2026-04-26T07:51:18Z</time></trkpt><trkpt lat="45.87330984104067" lon="9.914999308870836"><ele>532.0</ele><time>2026-04-26T07:51:19Z</time></trkpt><trkpt lat="45.873317829791276" lon="9.915089878932053"><ele>532.5</ele><time>2026-04-26T07:51:20Z</time></trkpt><trkpt lat="45.873331055224604" lon="9.915181719262268"><ele>533.0</ele><time>2026-04-26T07:51:21Z</time></trkpt><trkpt lat="45.87334123497273" lon="9.915274402660977"><ele>533.5</ele><time>2026-04-26T07:51:22Z</time></trkpt><trkpt lat="45.873351103345286" lon="9.915363858991421"><ele>534.0</ele><time>2026-04-26T07:51:23Z</time></trkpt><trkpt lat="45.87336607703074" lon="9.915454660606496"><ele>534.5</ele><time>2026-04-26T07:51:24Z</time></trkpt><trkpt lat="45.87341508951674" lon="9.915622334766647"><ele>535.0</ele><time>2026-04-26T07:51:26Z</time></trkpt><trkpt lat="45.87347470788906" lon="9.915775186420289"><ele>535.2</ele><time>2026-04-26T07:51:28Z</time></trkpt><trkpt lat="45.8735398837292" lon="9.915924734728458"><ele>535.4</ele><time>2026-04-26T07:51:30Z</time></trkpt><trkpt lat="45.87360679709466" lon="9.916071520791846"><ele>535.6</ele><time>2026-04-26T07:51:32Z</time></trkpt><trkpt lat="45.87367224325725" lon="9.916215769697763"><ele>535.8</ele><time>2026-04-26T07:51:34Z</time></trkpt><trkpt lat="45.873701853197886" lon="9.916296132309004"><ele>536.0</ele><time>2026-04-26T07:51:35Z</time></trkpt><trkpt lat="45.873769946339316" lon="9.91644598322956"><ele>536.0</ele><time>2026-04-26T07:51:37Z</time></trkpt><trkpt lat="45.87383408223607" lon="9.9165898422169"><ele>536.0</ele><time>2026-04-26T07:51:39Z</time></trkpt><trkpt lat="45.87390257952458" lon="9.91673674344978"><ele>536.0</ele><time>2026-04-26T07:51:41Z</time></trkpt><trkpt lat="45.87397346597097" lon="9.91687289273546"><ele>536.0</ele><time>2026-04-26T07:51:43Z</time></trkpt><trkpt lat="45.87404217616846" lon="9.917018412003138"><ele>536.5</ele><time>2026-04-26T07:51:45Z</time></trkpt><trkpt lat="45.874111808588296" lon="9.91716121835737"><ele>537.0</ele><time>2026-04-26T07:51:47Z</time></trkpt><trkpt lat="45.874182862760705" lon="9.917307077295005"><ele>537.5</ele><time>2026-04-26T07:51:49Z</time></trkpt><trkpt lat="45.87425446103821" lon="9.917443848263762"><ele>538.0</ele><time>2026-04-26T07:51:51Z</time></trkpt><trkpt lat="45.87432344691725" lon="9.917587075458634"><ele>538.0</ele><time>2026-04-26T07:51:53Z</time></trkpt><trkpt lat="45.87438727688118" lon="9.91773466430283"><ele>538.0</ele><time>2026-04-26T07:51:55Z</time></trkpt><trkpt lat="45.87445184825556" lon="9.917878374024383"><ele>538.0</ele><time>2026-04-26T07:51:57Z</time></trkpt><trkpt lat="45.87452117835709" lon="9.918016237997664"><ele>538.0</ele><time>2026-04-26T07:51:59Z</time></trkpt><trkpt lat="45.874592605809426" lon="9.918154073933048"><ele>538.0</ele><time>2026-04-26T07:52:01Z</time></trkpt><trkpt lat="45.87466580946973" lon="9.918293825863062"><ele>538.0</ele><time>2026-04-26T07:52:03Z</time></trkpt><trkpt lat="45.874738748561604" lon="9.91843604891647"><ele>538.0</ele><time>2026-04-26T07:52:05Z</time></trkpt><trkpt lat="45.874808886312145" lon="9.918580347041019"><ele>538.0</ele><time>2026-04-26T07:52:07Z</time></trkpt><trkpt lat="45.87488033891372" lon="9.91871918257016"><ele>538.6</ele><time>2026-04-26T07:52:09Z</time></trkpt><trkpt lat="45.874917703638395" lon="9.9187962227583"><ele>539.1999999999999</ele><time>2026-04-26T07:52:10Z</time></trkpt><trkpt lat="45.874951981320194" lon="9.91887247011389"><ele>539.8</ele><time>2026-04-26T07:52:11Z</time></trkpt><trkpt lat="45.8750204688386" lon="9.91902240329425"><ele>540.4</ele><time>2026-04-26T07:52:13Z</time></trkpt><trkpt lat="45.875091079002914" lon="9.91916668276661"><ele>541.0</ele><time>2026-04-26T07:52:15Z</time></trkpt><trkpt lat="45.87516411194823" lon="9.919311868961097"><ele>541.0000000000001</ele><time>2026-04-26T07:52:17Z</time></trkpt><trkpt lat="45.875231941833086" lon="9.919464300302407"><ele>541.0</ele><time>2026-04-26T07:52:19Z</time></trkpt><trkpt lat="45.875266338508" lon="9.919543553939057"><ele>541.0</ele><time>2026-04-26T07:52:20Z</time></trkpt><trkpt lat="45.87529967590836" lon="9.91962149181961"><ele>541.0</ele><time>2026-04-26T07:52:21Z</time></trkpt><trkpt lat="45.875335496318115" lon="9.91969642289788"><ele>541.0</ele><time>2026-04-26T07:52:22Z</time></trkpt><trkpt lat="45.87537271641974" lon="9.91976937914991"><ele>541.0000000000001</ele><time>2026-04-26T07:52:23Z</time></trkpt><trkpt lat="45.87541027458676" lon="9.91984200602088"><ele>541.0</ele><time>2026-04-26T07:52:24Z</time></trkpt><trkpt lat="45.87547984143803" lon="9.919988521831044"><ele>541.8</ele><time>2026-04-26T07:52:26Z</time></trkpt><trkpt lat="45.87554644392278" lon="9.920136728857877"><ele>542.6</ele><time>2026-04-26T07:52:28Z</time></trkpt><trkpt lat="45.8755832580032" lon="9.920211035804357"><ele>543.4</ele><time>2026-04-26T07:52:29Z</time></trkpt><trkpt lat="45.87566094641757" lon="9.920355775273514"><ele>544.2</ele><time>2026-04-26T07:52:31Z</time></trkpt><trkpt lat="45.87570179256316" lon="9.920428804112605"><ele>545.0</ele><time>2026-04-26T07:52:32Z</time></trkpt><trkpt lat="45.87577148103037" lon="9.920574425113148"><ele>545.0</ele><time>2026-04-26T07:52:34Z</time></trkpt><trkpt lat="45.87583478124138" lon="9.920728298358311"><ele>545.0</ele><time>2026-04-26T07:52:36Z</time></trkpt><trkpt lat="45.875870025511475" lon="9.920803402348813"><ele>545.0</ele><time>2026-04-26T07:52:37Z</time></trkpt><trkpt lat="45.875943177823686" lon="9.92094721949633"><ele>545.0</ele><time>2026-04-26T07:52:39Z</time></trkpt><trkpt lat="45.87598062901717" lon="9.92102102665272"><ele>545.0</ele><time>2026-04-26T07:52:40Z</time></trkpt><trkpt lat="45.876017840732864" lon="9.921096930406254"><ele>545.0</ele><time>2026-04-26T07:52:41Z</time></trkpt><trkpt lat="45.87605610815893" lon="9.92117027198638"><ele>545.1666666666666</ele><time>2026-04-26T07:52:42Z</time></trkpt><trkpt lat="45.87612654894588" lon="9.921314057516144"><ele>545.3333333333333</ele><time>2026-04-26T07:52:44Z</time></trkpt><trkpt lat="45.87616325929754" lon="9.921388661710635"><ele>545.5</ele><time>2026-04-26T07:52:45Z</time></trkpt><trkpt lat="45.87620233137527" lon="9.921461523007144"><ele>545.6666666666666</ele><time>2026-04-26T07:52:46Z</time></trkpt><trkpt lat="45.87624225804913" lon="9.921531672145134"><ele>545.8333333333334</ele><time>2026-04-26T07:52:47Z</time></trkpt><trkpt lat="45.876326861967996" lon="9.921661177107621"><ele>546.0</ele><time>2026-04-26T07:52:49Z</time></trkpt><trkpt lat="45.87637358274922" lon="9.92172300502278"><ele>546.5714285714286</ele><time>2026-04-26T07:52:50Z</time></trkpt><trkpt lat="45.87642289652812" lon="9.921782074916587"><ele>547.1428571428571</ele><time>2026-04-26T07:52:51Z</time></trkpt><trkpt lat="45.876476879507536" lon="9.921833342350562"><ele>547.7142857142858</ele><time>2026-04-26T07:52:52Z</time></trkpt><trkpt lat="45.87653373536603" lon="9.92187928378853"><ele>548.2857142857142</ele><time>2026-04-26T07:52:53Z</time></trkpt><trkpt lat="45.876589872128946" lon="9.921926509060025"><ele>548.8571428571429</ele><time>2026-04-26T07:52:54Z</time></trkpt><trkpt lat="45.87664458891467" lon="9.921975523615002"><ele>549.4285714285714</ele><time>2026-04-26T07:52:55Z</time></trkpt><trkpt lat="45.87669779394321" lon="9.922026371252592"><ele>550.0</ele><time>2026-04-26T07:52:56Z</time></trkpt><trkpt lat="45.87674876474146" lon="9.922079505565314"><ele>550.2</ele><time>2026-04-26T07:52:57Z</time></trkpt><trkpt lat="45.87680222248159" lon="9.922130058556315"><ele>550.4</ele><time>2026-04-26T07:52:58Z</time></trkpt><trkpt lat="45.87690465958058" lon="9.922233683805556"><ele>550.6</ele><time>2026-04-26T07:53:00Z</time></trkpt><trkpt lat="45.87700182922958" lon="9.922339658737567"><ele>550.8</ele><time>2026-04-26T07:53:02Z</time></trkpt><trkpt lat="45.87709591433016" lon="9.922457637912649"><ele>551.0</ele><time>2026-04-26T07:53:04Z</time></trkpt><trkpt lat="45.8771776088101" lon="9.922588282990544"><ele>551.5</ele><time>2026-04-26T07:53:06Z</time></trkpt><trkpt lat="45.87726097693642" lon="9.922712641553069"><ele>552.0</ele><time>2026-04-26T07:53:08Z</time></trkpt><trkpt lat="45.87734477115551" lon="9.922840554679233"><ele>552.5</ele><time>2026-04-26T07:53:10Z</time></trkpt><trkpt lat="45.877418462558474" lon="9.922980272084642"><ele>553.0</ele><time>2026-04-26T07:53:12Z</time></trkpt><trkpt lat="45.87748532072765" lon="9.923129590224399"><ele>553.0</ele><time>2026-04-26T07:53:14Z</time></trkpt><trkpt lat="45.87755108113621" lon="9.923281781539293"><ele>553.0</ele><time>2026-04-26T07:53:16Z</time></trkpt><trkpt lat="45.87761416957633" lon="9.923435772576704"><ele>553.0</ele><time>2026-04-26T07:53:18Z</time></trkpt><trkpt lat="45.87767537643094" lon="9.923593912077589"><ele>553.0</ele><time>2026-04-26T07:53:20Z</time></trkpt><trkpt lat="45.87773806988705" lon="9.923748105189597"><ele>553.25</ele><time>2026-04-26T07:53:22Z</time></trkpt><trkpt lat="45.87779131515298" lon="9.923906317261187"><ele>553.5</ele><time>2026-04-26T07:53:24Z</time></trkpt><trkpt lat="45.87784858975611" lon="9.924062602434667"><ele>553.75</ele><time>2026-04-26T07:53:26Z</time></trkpt><trkpt lat="45.87791055895658" lon="9.924216378436492"><ele>554.0</ele><time>2026-04-26T07:53:28Z</time></trkpt><trkpt lat="45.87796958735054" lon="9.924373409937425"><ele>554.4</ele><time>2026-04-26T07:53:30Z</time></trkpt><trkpt lat="45.87802372555993" lon="9.924529817875115"><ele>554.8</ele><time>2026-04-26T07:53:32Z</time></trkpt><trkpt lat="45.87808545045559" lon="9.92466385454871"><ele>555.2</ele><time>2026-04-26T07:53:34Z</time></trkpt><trkpt lat="45.87813903790668" lon="9.924802728638069"><ele>555.6</ele><time>2026-04-26T07:53:36Z</time></trkpt><trkpt lat="45.87817637778926" lon="9.924891458964268"><ele>556.0</ele><time>2026-04-26T07:53:37Z</time></trkpt><trkpt lat="45.878224788758175" lon="9.925047131999081"><ele>556.5</ele><time>2026-04-26T07:53:39Z</time></trkpt><trkpt lat="45.87828030102879" lon="9.92520713822195"><ele>557.0</ele><time>2026-04-26T07:53:41Z</time></trkpt><trkpt lat="45.878342500581695" lon="9.925360603059477"><ele>557.5</ele><time>2026-04-26T07:53:43Z</time></trkpt><trkpt lat="45.87840682291313" lon="9.925512463923294"><ele>558.0</ele><time>2026-04-26T07:53:45Z</time></trkpt><trkpt lat="45.878462794150735" lon="9.925665330602676"><ele>558.4</ele><time>2026-04-26T07:53:47Z</time></trkpt><trkpt lat="45.87849070944813" lon="9.92574655460397"><ele>558.8</ele><time>2026-04-26T07:53:48Z</time></trkpt><trkpt lat="45.87855059149697" lon="9.925902706447053"><ele>559.2</ele><time>2026-04-26T07:53:50Z</time></trkpt><trkpt lat="45.878610469690216" lon="9.926057119477125"><ele>559.6</ele><time>2026-04-26T07:53:52Z</time></trkpt><trkpt lat="45.87866839897151" lon="9.926216990811161"><ele>560.0</ele><time>2026-04-26T07:53:54Z</time></trkpt><trkpt lat="45.87872630037414" lon="9.92637558322224"><ele>560.0</ele><time>2026-04-26T07:53:56Z</time></trkpt><trkpt lat="45.87875876660974" lon="9.926453848402497"><ele>560.0</ele><time>2026-04-26T07:53:57Z</time></trkpt><trkpt lat="45.87878995513389" lon="9.92653304159426"><ele>560.0</ele><time>2026-04-26T07:53:58Z</time></trkpt><trkpt lat="45.878847482971544" lon="9.92669032610529"><ele>560.0</ele><time>2026-04-26T07:54:00Z</time></trkpt><trkpt lat="45.87890697784236" lon="9.926846058268934"><ele>560.0</ele><time>2026-04-26T07:54:02Z</time></trkpt><trkpt lat="45.87897022772688" lon="9.927002669680604"><ele>560.2</ele><time>2026-04-26T07:54:04Z</time></trkpt><trkpt lat="45.87899942655095" lon="9.927083219131214"><ele>560.4</ele><time>2026-04-26T07:54:05Z</time></trkpt><trkpt lat="45.879057634528294" lon="9.927242951046646"><ele>560.6</ele><time>2026-04-26T07:54:07Z</time></trkpt><trkpt lat="45.87910922067786" lon="9.927399107831357"><ele>560.8</ele><time>2026-04-26T07:54:09Z</time></trkpt><trkpt lat="45.8791525742265" lon="9.927531109954218"><ele>561.0</ele><time>2026-04-26T07:54:11Z</time></trkpt><trkpt lat="45.8791924626314" lon="9.927639201099048"><ele>561.1666666666666</ele><time>2026-04-26T07:54:13Z</time></trkpt><trkpt lat="45.87925204273047" lon="9.927734177693708"><ele>561.3333333333334</ele><time>2026-04-26T07:54:16Z</time></trkpt><trkpt lat="45.879274678391944" lon="9.927878309995494"><ele>561.5</ele><time>2026-04-26T07:54:18Z</time></trkpt><trkpt lat="45.87932370490843" lon="9.927941453243752"><ele>561.6666666666667</ele><time>2026-04-26T07:54:20Z</time></trkpt><trkpt lat="45.87935696585872" lon="9.92806188741047"><ele>561.8333333333334</ele><time>2026-04-26T07:54:22Z</time></trkpt><trkpt lat="45.87938508496179" lon="9.928149521620007"><ele>562.0</ele><time>2026-04-26T07:54:23Z</time></trkpt><trkpt lat="45.87941477041568" lon="9.928242587559273"><ele>562.5714285714287</ele><time>2026-04-26T07:54:24Z</time></trkpt><trkpt lat="45.879445233135684" lon="9.928334057116412"><ele>563.1428571428571</ele><time>2026-04-26T07:54:25Z</time></trkpt><trkpt lat="45.879489930209935" lon="9.928499504192411"><ele>563.7142857142858</ele><time>2026-04-26T07:54:27Z</time></trkpt><trkpt lat="45.879515559456074" lon="9.928584112438452"><ele>564.2857142857143</ele><time>2026-04-26T07:54:28Z</time></trkpt><trkpt lat="45.8795426824187" lon="9.928666708117289"><ele>564.8571428571429</ele><time>2026-04-26T07:54:29Z</time></trkpt><trkpt lat="45.8795718476323" lon="9.928748099601698"><ele>565.4285714285714</ele><time>2026-04-26T07:54:30Z</time></trkpt><trkpt lat="45.8796001427718" lon="9.928830034043846"><ele>566.0</ele><time>2026-04-26T07:54:31Z</time></trkpt><trkpt lat="45.879659930450934" lon="9.928984064331718"><ele>566.0</ele><time>2026-04-26T07:54:33Z</time></trkpt><trkpt lat="45.87968977091001" lon="9.92906514536912"><ele>566.0</ele><time>2026-04-26T07:54:34Z</time></trkpt><trkpt lat="45.87971908469541" lon="9.929149255503395"><ele>566.0</ele><time>2026-04-26T07:54:35Z</time></trkpt><trkpt lat="45.87974728581128" lon="9.929231858958737"><ele>566.0</ele><time>2026-04-26T07:54:36Z</time></trkpt><trkpt lat="45.879804059411995" lon="9.929391689691682"><ele>566.0</ele><time>2026-04-26T07:54:38Z</time></trkpt><trkpt lat="45.879865653255344" lon="9.929548323189534"><ele>566.0</ele><time>2026-04-26T07:54:40Z</time></trkpt><trkpt lat="45.87992996184076" lon="9.929704235442236"><ele>565.8</ele><time>2026-04-26T07:54:42Z</time></trkpt><trkpt lat="45.87999009739272" lon="9.92986064089168"><ele>565.6</ele><time>2026-04-26T07:54:44Z</time></trkpt><trkpt lat="45.88004249481171" lon="9.930024280077358"><ele>565.4</ele><time>2026-04-26T07:54:46Z</time></trkpt><trkpt lat="45.8800659983744" lon="9.930108432183566"><ele>565.2</ele><time>2026-04-26T07:54:47Z</time></trkpt><trkpt lat="45.880114322303356" lon="9.93027003816028"><ele>565.0</ele><time>2026-04-26T07:54:49Z</time></trkpt><trkpt lat="45.8801654841095" lon="9.930432870850307"><ele>565.6</ele><time>2026-04-26T07:54:51Z</time></trkpt><trkpt lat="45.88022325949513" lon="9.930592087850908"><ele>566.2</ele><time>2026-04-26T07:54:53Z</time></trkpt><trkpt lat="45.88027499816177" lon="9.930741655345932"><ele>566.8</ele><time>2026-04-26T07:54:55Z</time></trkpt><trkpt lat="45.88032471056139" lon="9.930875069301349"><ele>567.4</ele><time>2026-04-26T07:54:57Z</time></trkpt><trkpt lat="45.880330872592886" lon="9.931012824422018"><ele>568.0</ele><time>2026-04-26T07:54:59Z</time></trkpt><trkpt lat="45.88023152746935" lon="9.931073515221515"><ele>568.0</ele><time>2026-04-26T07:55:01Z</time></trkpt><trkpt lat="45.88016724599021" lon="9.9310426411844"><ele>568.0</ele><time>2026-04-26T07:55:02Z</time></trkpt><trkpt lat="45.88006584957538" lon="9.931130959822509"><ele>568.0</ele><time>2026-04-26T07:55:04Z</time></trkpt><trkpt lat="45.880061253615295" lon="9.931228397206352"><ele>568.0</ele><time>2026-04-26T07:55:05Z</time></trkpt><trkpt lat="45.88008083268476" lon="9.931318206436318"><ele>568.0</ele><time>2026-04-26T07:55:06Z</time></trkpt><trkpt lat="45.88009182468758" lon="9.931412542372417"><ele>568.0</ele><time>2026-04-26T07:55:07Z</time></trkpt><trkpt lat="45.88009223045933" lon="9.93150985848471"><ele>567.4</ele><time>2026-04-26T07:55:08Z</time></trkpt><trkpt lat="45.88009082586276" lon="9.931605498373257"><ele>566.8</ele><time>2026-04-26T07:55:09Z</time></trkpt><trkpt lat="45.88009190822607" lon="9.931778949659376"><ele>566.2</ele><time>2026-04-26T07:55:11Z</time></trkpt><trkpt lat="45.8800967490292" lon="9.931943504268517"><ele>565.6</ele><time>2026-04-26T07:55:13Z</time></trkpt><trkpt lat="45.880098151524706" lon="9.932100942870665"><ele>565.0</ele><time>2026-04-26T07:55:15Z</time></trkpt><trkpt lat="45.88009211427508" lon="9.932246934198664"><ele>565.0</ele><time>2026-04-26T07:55:17Z</time></trkpt><trkpt lat="45.880094083087506" lon="9.93238958096597"><ele>565.0</ele><time>2026-04-26T07:55:19Z</time></trkpt><trkpt lat="45.8801005960987" lon="9.932538533459569"><ele>565.0</ele><time>2026-04-26T07:55:21Z</time></trkpt><trkpt lat="45.88009744266517" lon="9.932630676786616"><ele>565.0</ele><time>2026-04-26T07:55:22Z</time></trkpt><trkpt lat="45.8800454621324" lon="9.93277922953761"><ele>565.0</ele><time>2026-04-26T07:55:24Z</time></trkpt><trkpt lat="45.879951182381326" lon="9.932860166060973"><ele>565.0</ele><time>2026-04-26T07:55:26Z</time></trkpt><trkpt lat="45.87983433173471" lon="9.932895333825188"><ele>565.0</ele><time>2026-04-26T07:55:28Z</time></trkpt><trkpt lat="45.879712524474314" lon="9.932910876740925"><ele>565.0</ele><time>2026-04-26T07:55:30Z</time></trkpt><trkpt lat="45.879649215129085" lon="9.932921199653446"><ele>565.0</ele><time>2026-04-26T07:55:31Z</time></trkpt><trkpt lat="45.8795861211954" lon="9.93293697544264"><ele>565.0</ele><time>2026-04-26T07:55:32Z</time></trkpt><trkpt lat="45.87952616716604" lon="9.932970679931604"><ele>565.0</ele><time>2026-04-26T07:55:33Z</time></trkpt><trkpt lat="45.879479764484074" lon="9.933041981107023"><ele>564.9999999999999</ele><time>2026-04-26T07:55:34Z</time></trkpt><trkpt lat="45.87945518857138" lon="9.93313500638962"><ele>565.0</ele><time>2026-04-26T07:55:35Z</time></trkpt><trkpt lat="45.87944953809487" lon="9.93323271434929"><ele>565.0</ele><time>2026-04-26T07:55:36Z</time></trkpt><trkpt lat="45.87944119565734" lon="9.93333011835532"><ele>565.0</ele><time>2026-04-26T07:55:37Z</time></trkpt><trkpt lat="45.87942448902955" lon="9.933426230748493"><ele>565.0</ele><time>2026-04-26T07:55:38Z</time></trkpt><trkpt lat="45.87939919485518" lon="9.933516690331913"><ele>564.9999999999999</ele><time>2026-04-26T07:55:39Z</time></trkpt><trkpt lat="45.879372103380206" lon="9.933598455346074"><ele>565.0</ele><time>2026-04-26T07:55:40Z</time></trkpt><trkpt lat="45.87933692668692" lon="9.933681209124606"><ele>564.7142857142857</ele><time>2026-04-26T07:55:41Z</time></trkpt><trkpt lat="45.87928285956906" lon="9.933736039328851"><ele>564.4285714285714</ele><time>2026-04-26T07:55:42Z</time></trkpt><trkpt lat="45.87921774447222" lon="9.933766687996854"><ele>564.1428571428571</ele><time>2026-04-26T07:55:43Z</time></trkpt><trkpt lat="45.87916548622586" lon="9.933820606892379"><ele>563.8571428571429</ele><time>2026-04-26T07:55:44Z</time></trkpt><trkpt lat="45.87912045990058" lon="9.933889529909008"><ele>563.5714285714286</ele><time>2026-04-26T07:55:45Z</time></trkpt><trkpt lat="45.87907808276855" lon="9.933969136847919"><ele>563.2857142857142</ele><time>2026-04-26T07:55:46Z</time></trkpt><trkpt lat="45.87904019867058" lon="9.934048758956024"><ele>563.0</ele><time>2026-04-26T07:55:47Z</time></trkpt><trkpt lat="45.879003539547156" lon="9.934127384317646"><ele>563.0</ele><time>2026-04-26T07:55:48Z</time></trkpt><trkpt lat="45.878966426514424" lon="9.93420510031272"><ele>563.0</ele><time>2026-04-26T07:55:49Z</time></trkpt><trkpt lat="45.87893203437188" lon="9.934287362322294"><ele>563.0</ele><time>2026-04-26T07:55:50Z</time></trkpt><trkpt lat="45.87890366384502" lon="9.934372015175569"><ele>563.0</ele><time>2026-04-26T07:55:51Z</time></trkpt><trkpt lat="45.87887710509193" lon="9.934460214349444"><ele>563.0</ele><time>2026-04-26T07:55:52Z</time></trkpt><trkpt lat="45.87884864497465" lon="9.934541482869234"><ele>563.0</ele><time>2026-04-26T07:55:53Z</time></trkpt><trkpt lat="45.87882057223692" lon="9.934627333467263"><ele>563.0</ele><time>2026-04-26T07:55:54Z</time></trkpt><trkpt lat="45.87879644872591" lon="9.93471161350479"><ele>563.0</ele><time>2026-04-26T07:55:55Z</time></trkpt><trkpt lat="45.878772638119365" lon="9.934797128378163"><ele>563.0</ele><time>2026-04-26T07:55:56Z</time></trkpt><trkpt lat="45.878750562149676" lon="9.934884190432987"><ele>563.0</ele><time>2026-04-26T07:55:57Z</time></trkpt><trkpt lat="45.878732959146426" lon="9.934972001729376"><ele>563.0</ele><time>2026-04-26T07:55:58Z</time></trkpt><trkpt lat="45.87871618830025" lon="9.93506089891022"><ele>563.0</ele><time>2026-04-26T07:55:59Z</time></trkpt><trkpt lat="45.87870121707495" lon="9.935151543924963"><ele>563.0</ele><time>2026-04-26T07:56:00Z</time></trkpt><trkpt lat="45.878689785731645" lon="9.93524118053493"><ele>563.0</ele><time>2026-04-26T07:56:01Z</time></trkpt><trkpt lat="45.878680032395486" lon="9.935331922420033"><ele>563.0</ele><time>2026-04-26T07:56:02Z</time></trkpt><trkpt lat="45.87867207789614" lon="9.935424221519918"><ele>563.0</ele><time>2026-04-26T07:56:03Z</time></trkpt><trkpt lat="45.8786707249772" lon="9.93551602954963"><ele>563.0</ele><time>2026-04-26T07:56:04Z</time></trkpt><trkpt lat="45.87867074637727" lon="9.935608989647061"><ele>563.0</ele><time>2026-04-26T07:56:05Z</time></trkpt><trkpt lat="45.878671383235115" lon="9.935701844089738"><ele>563.0</ele><time>2026-04-26T07:56:06Z</time></trkpt><trkpt lat="45.87867201878137" lon="9.935795370515658"><ele>563.0</ele><time>2026-04-26T07:56:07Z</time></trkpt><trkpt lat="45.87868760818486" lon="9.935975501419856"><ele>563.0</ele><time>2026-04-26T07:56:09Z</time></trkpt><trkpt lat="45.87869754761996" lon="9.936066359493877"><ele>563.0</ele><time>2026-04-26T07:56:10Z</time></trkpt><trkpt lat="45.87870877249864" lon="9.936156913234685"><ele>563.0</ele><time>2026-04-26T07:56:11Z</time></trkpt><trkpt lat="45.87872341729467" lon="9.936245857112063"><ele>563.0</ele><time>2026-04-26T07:56:12Z</time></trkpt><trkpt lat="45.878745723870765" lon="9.936331122971756"><ele>563.0</ele><time>2026-04-26T07:56:13Z</time></trkpt><trkpt lat="45.87877429864451" lon="9.936415224567364"><ele>563.0</ele><time>2026-04-26T07:56:14Z</time></trkpt><trkpt lat="45.878846931102174" lon="9.936567636133676"><ele>563.0</ele><time>2026-04-26T07:56:16Z</time></trkpt><trkpt lat="45.8789102078031" lon="9.936724773665677"><ele>563.0</ele><time>2026-04-26T07:56:18Z</time></trkpt><trkpt lat="45.87892860901036" lon="9.936814496866385"><ele>563.5</ele><time>2026-04-26T07:56:19Z</time></trkpt><trkpt lat="45.878942319885574" lon="9.936906581411185"><ele>564.0</ele><time>2026-04-26T07:56:20Z</time></trkpt><trkpt lat="45.87896861061464" lon="9.937087050367559"><ele>564.5</ele><time>2026-04-26T07:56:22Z</time></trkpt><trkpt lat="45.87898039644335" lon="9.937176546531894"><ele>565.0</ele><time>2026-04-26T07:56:23Z</time></trkpt><trkpt lat="45.87899581556386" lon="9.93726718639482"><ele>565.5</ele><time>2026-04-26T07:56:24Z</time></trkpt><trkpt lat="45.879015671691214" lon="9.937359631439712"><ele>566.0</ele><time>2026-04-26T07:56:25Z</time></trkpt><trkpt lat="45.87903828511245" lon="9.93744649167997"><ele>566.0</ele><time>2026-04-26T07:56:26Z</time></trkpt><trkpt lat="45.87906116694847" lon="9.937534764388241"><ele>566.0</ele><time>2026-04-26T07:56:27Z</time></trkpt><trkpt lat="45.87908695742496" lon="9.937620450085376"><ele>566.0</ele><time>2026-04-26T07:56:28Z</time></trkpt><trkpt lat="45.87911154437849" lon="9.937706419871727"><ele>566.0</ele><time>2026-04-26T07:56:29Z</time></trkpt><trkpt lat="45.879137141072036" lon="9.937792495965011"><ele>566.0</ele><time>2026-04-26T07:56:30Z</time></trkpt><trkpt lat="45.87916756446855" lon="9.937874545352283"><ele>566.0</ele><time>2026-04-26T07:56:31Z</time></trkpt><trkpt lat="45.87919663431433" lon="9.937958086897806"><ele>566.0</ele><time>2026-04-26T07:56:32Z</time></trkpt><trkpt lat="45.87925164834533" lon="9.938115473028017"><ele>565.0</ele><time>2026-04-26T07:56:34Z</time></trkpt><trkpt lat="45.879297099834005" lon="9.938266275234545"><ele>564.0</ele><time>2026-04-26T07:56:36Z</time></trkpt><trkpt lat="45.87934420268898" lon="9.938411363636972"><ele>563.0</ele><time>2026-04-26T07:56:38Z</time></trkpt><trkpt lat="45.879388619105804" lon="9.93857887464648"><ele>562.0</ele><time>2026-04-26T07:56:40Z</time></trkpt><trkpt lat="45.879390764834355" lon="9.938671047736879"><ele>561.0</ele><time>2026-04-26T07:56:41Z</time></trkpt><trkpt lat="45.87938289626436" lon="9.93876368921855"><ele>561.0</ele><time>2026-04-26T07:56:42Z</time></trkpt><trkpt lat="45.87937235319155" lon="9.938853154265475"><ele>561.0</ele><time>2026-04-26T07:56:43Z</time></trkpt><trkpt lat="45.87936305355822" lon="9.938944368311533"><ele>561.0</ele><time>2026-04-26T07:56:44Z</time></trkpt><trkpt lat="45.879352164039005" lon="9.939036885170891"><ele>561.0</ele><time>2026-04-26T07:56:45Z</time></trkpt><trkpt lat="45.8793443688471" lon="9.9391284740871"><ele>561.0</ele><time>2026-04-26T07:56:46Z</time></trkpt><trkpt lat="45.8793398115285" lon="9.939219721195776"><ele>561.0</ele><time>2026-04-26T07:56:47Z</time></trkpt><trkpt lat="45.87933442561869" lon="9.939402341416214"><ele>561.0</ele><time>2026-04-26T07:56:49Z</time></trkpt><trkpt lat="45.879338416954035" lon="9.939495714228121"><ele>561.1666666666666</ele><time>2026-04-26T07:56:50Z</time></trkpt><trkpt lat="45.879336066115734" lon="9.939586466215212"><ele>561.3333333333334</ele><time>2026-04-26T07:56:51Z</time></trkpt><trkpt lat="45.87932966041811" lon="9.93967800371787"><ele>561.5</ele><time>2026-04-26T07:56:52Z</time></trkpt><trkpt lat="45.879317042473765" lon="9.93985838980021"><ele>561.6666666666667</ele><time>2026-04-26T07:56:54Z</time></trkpt><trkpt lat="45.87931334837418" lon="9.939950602569414"><ele>561.8333333333334</ele><time>2026-04-26T07:56:55Z</time></trkpt><trkpt lat="45.87930433246757" lon="9.940130821992211"><ele>562.0</ele><time>2026-04-26T07:56:57Z</time></trkpt><trkpt lat="45.87930215654929" lon="9.940221611738485"><ele>562.2</ele><time>2026-04-26T07:56:58Z</time></trkpt><trkpt lat="45.879297172906924" lon="9.940401016364657"><ele>562.4000000000001</ele><time>2026-04-26T07:57:00Z</time></trkpt><trkpt lat="45.879293521449796" lon="9.940579474712216"><ele>562.5999999999999</ele><time>2026-04-26T07:57:02Z</time></trkpt><trkpt lat="45.87930153558045" lon="9.940755692803528"><ele>562.8</ele><time>2026-04-26T07:57:04Z</time></trkpt><trkpt lat="45.87931214165619" lon="9.940847088477804"><ele>563.0</ele><time>2026-04-26T07:57:05Z</time></trkpt><trkpt lat="45.8793319805567" lon="9.941014914780899"><ele>563.3333333333333</ele><time>2026-04-26T07:57:07Z</time></trkpt><trkpt lat="45.87934664672188" lon="9.941110242369447"><ele>563.6666666666666</ele><time>2026-04-26T07:57:08Z</time></trkpt><trkpt lat="45.87935407306698" lon="9.941200051609407"><ele>564.0</ele><time>2026-04-26T07:57:09Z</time></trkpt><trkpt lat="45.87935494560221" lon="9.941292033604489"><ele>564.3333333333334</ele><time>2026-04-26T07:57:10Z</time></trkpt><trkpt lat="45.879345824406464" lon="9.94138526226994"><ele>564.6666666666667</ele><time>2026-04-26T07:57:11Z</time></trkpt><trkpt lat="45.87933685282475" lon="9.941476375684918"><ele>565.0</ele><time>2026-04-26T07:57:12Z</time></trkpt><trkpt lat="45.879342273131826" lon="9.941658743183192"><ele>564.8571428571428</ele><time>2026-04-26T07:57:14Z</time></trkpt><trkpt lat="45.87935793756052" lon="9.941748344032169"><ele>564.7142857142857</ele><time>2026-04-26T07:57:15Z</time></trkpt><trkpt lat="45.87936155243439" lon="9.941841932062554"><ele>564.5714285714286</ele><time>2026-04-26T07:57:16Z</time></trkpt><trkpt lat="45.87934560789854" lon="9.941932322340822"><ele>564.4285714285713</ele><time>2026-04-26T07:57:17Z</time></trkpt><trkpt lat="45.87933557104914" lon="9.94202363713361"><ele>564.2857142857142</ele><time>2026-04-26T07:57:18Z</time></trkpt><trkpt lat="45.87932496122575" lon="9.942114785318779"><ele>564.1428571428571</ele><time>2026-04-26T07:57:19Z</time></trkpt><trkpt lat="45.87931645889031" lon="9.942205128419138"><ele>564.0</ele><time>2026-04-26T07:57:20Z</time></trkpt><trkpt lat="45.879305388546186" lon="9.94229578750485"><ele>564.0</ele><time>2026-04-26T07:57:21Z</time></trkpt><trkpt lat="45.87928714419378" lon="9.94247332163616"><ele>564.0</ele><time>2026-04-26T07:57:23Z</time></trkpt><trkpt lat="45.879273009315106" lon="9.942564383499791"><ele>564.0</ele><time>2026-04-26T07:57:24Z</time></trkpt><trkpt lat="45.87924655377948" lon="9.942738874752024"><ele>564.0</ele><time>2026-04-26T07:57:26Z</time></trkpt><trkpt lat="45.879236577654034" lon="9.942916395383817"><ele>564.0</ele><time>2026-04-26T07:57:28Z</time></trkpt><trkpt lat="45.87923925582379" lon="9.943008933337264"><ele>564.4</ele><time>2026-04-26T07:57:29Z</time></trkpt><trkpt lat="45.87924097696487" lon="9.943190318377596"><ele>564.8</ele><time>2026-04-26T07:57:31Z</time></trkpt><trkpt lat="45.87924149869981" lon="9.943372244151162"><ele>565.2</ele><time>2026-04-26T07:57:33Z</time></trkpt><trkpt lat="45.879247746633936" lon="9.943462827331937"><ele>565.6</ele><time>2026-04-26T07:57:34Z</time></trkpt><trkpt lat="45.8792533606157" lon="9.943634207275716"><ele>566.0</ele><time>2026-04-26T07:57:36Z</time></trkpt><trkpt lat="45.87927116098751" lon="9.943795849543754"><ele>566.0</ele><time>2026-04-26T07:57:38Z</time></trkpt><trkpt lat="45.87928594527604" lon="9.94394374359551"><ele>566.0</ele><time>2026-04-26T07:57:40Z</time></trkpt><trkpt lat="45.879301883938666" lon="9.944082395963633"><ele>566.0</ele><time>2026-04-26T07:57:42Z</time></trkpt><trkpt lat="45.87928514841817" lon="9.94420952427191"><ele>566.0</ele><time>2026-04-26T07:57:44Z</time></trkpt><trkpt lat="45.87918968725474" lon="9.944223310688113"><ele>566.0</ele><time>2026-04-26T07:57:46Z</time></trkpt><trkpt lat="45.87906390919641" lon="9.944188766975527"><ele>566.1666666666666</ele><time>2026-04-26T07:57:48Z</time></trkpt><trkpt lat="45.878995057873624" lon="9.944180238914424"><ele>566.3333333333333</ele><time>2026-04-26T07:57:49Z</time></trkpt><trkpt lat="45.87892745432016" lon="9.9441701615181"><ele>566.5</ele><time>2026-04-26T07:57:50Z</time></trkpt><trkpt lat="45.878864047251646" lon="9.944164406477945"><ele>566.6666666666666</ele><time>2026-04-26T07:57:51Z</time></trkpt><trkpt lat="45.87873990125274" lon="9.944146049678078"><ele>566.8333333333334</ele><time>2026-04-26T07:57:53Z</time></trkpt><trkpt lat="45.87862203277102" lon="9.944130103639202"><ele>567.0</ele><time>2026-04-26T07:57:55Z</time></trkpt><trkpt lat="45.87850761976886" lon="9.9441127665773"><ele>566.8000000000001</ele><time>2026-04-26T07:57:57Z</time></trkpt><trkpt lat="45.87839715428632" lon="9.944088001506136"><ele>566.6</ele><time>2026-04-26T07:57:59Z</time></trkpt><trkpt lat="45.87828989053149" lon="9.944072525221856"><ele>566.4000000000001</ele><time>2026-04-26T07:58:01Z</time></trkpt><trkpt lat="45.87817208691265" lon="9.944043662028939"><ele>566.2</ele><time>2026-04-26T07:58:03Z</time></trkpt><trkpt lat="45.87810646174821" lon="9.944029264649739"><ele>566.0</ele><time>2026-04-26T07:58:04Z</time></trkpt><trkpt lat="45.8780418387979" lon="9.944014815199372"><ele>566.0</ele><time>2026-04-26T07:58:05Z</time></trkpt><trkpt lat="45.87797654287267" lon="9.944009232076656"><ele>566.0</ele><time>2026-04-26T07:58:06Z</time></trkpt><trkpt lat="45.87791355552426" lon="9.944004601382577"><ele>566.0</ele><time>2026-04-26T07:58:07Z</time></trkpt><trkpt lat="45.87778770740322" lon="9.943982522784657"><ele>566.0</ele><time>2026-04-26T07:58:09Z</time></trkpt><trkpt lat="45.8777237309173" lon="9.943972356339158"><ele>566.0</ele><time>2026-04-26T07:58:10Z</time></trkpt><trkpt lat="45.87765967344059" lon="9.943961239399751"><ele>566.0</ele><time>2026-04-26T07:58:11Z</time></trkpt><trkpt lat="45.87759710420979" lon="9.943947740073874"><ele>566.0</ele><time>2026-04-26T07:58:12Z</time></trkpt><trkpt lat="45.877477147400775" lon="9.943931616509238"><ele>565.8571428571429</ele><time>2026-04-26T07:58:14Z</time></trkpt><trkpt lat="45.87738228312161" lon="9.944032512587803"><ele>565.7142857142858</ele><time>2026-04-26T07:58:16Z</time></trkpt><trkpt lat="45.877360509394045" lon="9.944127325497229"><ele>565.5714285714286</ele><time>2026-04-26T07:58:17Z</time></trkpt><trkpt lat="45.87734404302225" lon="9.944218483530863"><ele>565.4285714285714</ele><time>2026-04-26T07:58:18Z</time></trkpt><trkpt lat="45.87732011662492" lon="9.944303487462635"><ele>565.2857142857142</ele><time>2026-04-26T07:58:19Z</time></trkpt><trkpt lat="45.877292728120125" lon="9.944391284852378"><ele>565.1428571428571</ele><time>2026-04-26T07:58:20Z</time></trkpt><trkpt lat="45.87727110195958" lon="9.944477334650346"><ele>565.0</ele><time>2026-04-26T07:58:21Z</time></trkpt><trkpt lat="45.877247146814994" lon="9.944564329384015"><ele>565.0</ele><time>2026-04-26T07:58:22Z</time></trkpt><trkpt lat="45.87720127894405" lon="9.944733243724553"><ele>565.0</ele><time>2026-04-26T07:58:24Z</time></trkpt><trkpt lat="45.8771810504046" lon="9.944819020026102"><ele>565.0</ele><time>2026-04-26T07:58:25Z</time></trkpt><trkpt lat="45.8771481225293" lon="9.944991974615636"><ele>565.0</ele><time>2026-04-26T07:58:27Z</time></trkpt><trkpt lat="45.877113420304646" lon="9.945163729727618"><ele>565.0</ele><time>2026-04-26T07:58:29Z</time></trkpt><trkpt lat="45.87709689034886" lon="9.945254396087593"><ele>565.1666666666667</ele><time>2026-04-26T07:58:30Z</time></trkpt><trkpt lat="45.877079829815685" lon="9.94534220739093"><ele>565.3333333333334</ele><time>2026-04-26T07:58:31Z</time></trkpt><trkpt lat="45.877063081406575" lon="9.945431765432717"><ele>565.5</ele><time>2026-04-26T07:58:32Z</time></trkpt><trkpt lat="45.87702631665383" lon="9.945609592412456"><ele>565.6666666666666</ele><time>2026-04-26T07:58:34Z</time></trkpt><trkpt lat="45.87700804639095" lon="9.945697878027637"><ele>565.8333333333333</ele><time>2026-04-26T07:58:35Z</time></trkpt><trkpt lat="45.87699149292513" lon="9.945789218693363"><ele>566.0</ele><time>2026-04-26T07:58:36Z</time></trkpt><trkpt lat="45.87696206446514" lon="9.945959207803872"><ele>566.2</ele><time>2026-04-26T07:58:38Z</time></trkpt><trkpt lat="45.876930730065574" lon="9.946108374848528"><ele>566.4000000000001</ele><time>2026-04-26T07:58:40Z</time></trkpt><trkpt lat="45.87689835341049" lon="9.946272415556853"><ele>566.6</ele><time>2026-04-26T07:58:42Z</time></trkpt><trkpt lat="45.87686095098986" lon="9.946447061476773"><ele>566.8000000000001</ele><time>2026-04-26T07:58:44Z</time></trkpt><trkpt lat="45.87683811897747" lon="9.946533017491214"><ele>567.0</ele><time>2026-04-26T07:58:45Z</time></trkpt><trkpt lat="45.876818319004194" lon="9.94662073280107"><ele>567.0</ele><time>2026-04-26T07:58:46Z</time></trkpt><trkpt lat="45.87679973865945" lon="9.946708878000084"><ele>567.0</ele><time>2026-04-26T07:58:47Z</time></trkpt><trkpt lat="45.87675772167296" lon="9.946876951044606"><ele>567.0</ele><time>2026-04-26T07:58:49Z</time></trkpt><trkpt lat="45.876737238477766" lon="9.94696411563682"><ele>567.0</ele><time>2026-04-26T07:58:50Z</time></trkpt><trkpt lat="45.876717511555505" lon="9.947051678403765"><ele>567.0</ele><time>2026-04-26T07:58:51Z</time></trkpt><trkpt lat="45.87670130074824" lon="9.947141930012908"><ele>567.0</ele><time>2026-04-26T07:58:52Z</time></trkpt><trkpt lat="45.8766839003987" lon="9.947228995159536"><ele>567.0</ele><time>2026-04-26T07:58:53Z</time></trkpt><trkpt lat="45.87666325110342" lon="9.947316386575718"><ele>567.5</ele><time>2026-04-26T07:58:54Z</time></trkpt><trkpt lat="45.87662772272956" lon="9.947479378782283"><ele>568.0</ele><time>2026-04-26T07:58:56Z</time></trkpt><trkpt lat="45.8766276749764" lon="9.947569824625845"><ele>568.5</ele><time>2026-04-26T07:58:58Z</time></trkpt><trkpt lat="45.87658003271007" lon="9.947661453970236"><ele>569.0</ele><time>2026-04-26T08:00:15Z</time></trkpt><trkpt lat="45.876563421383096" lon="9.94776326555473"><ele>569.5</ele><time>2026-04-26T08:00:17Z</time></trkpt><trkpt lat="45.87654126381317" lon="9.947870006263605"><ele>570.0</ele><time>2026-04-26T08:00:20Z</time></trkpt><trkpt lat="45.876526722038626" lon="9.94798685271543"><ele>570.0</ele><time>2026-04-26T08:00:22Z</time></trkpt><trkpt lat="45.87649114431814" lon="9.948159029260042"><ele>570.0</ele><time>2026-04-26T08:00:24Z</time></trkpt><trkpt lat="45.87647318641723" lon="9.948252243707621"><ele>570.0</ele><time>2026-04-26T08:00:25Z</time></trkpt><trkpt lat="45.87645578932269" lon="9.948340150149477"><ele>570.0</ele><time>2026-04-26T08:00:26Z</time></trkpt><trkpt lat="45.87641940515021" lon="9.94850855387447"><ele>570.0</ele><time>2026-04-26T08:00:28Z</time></trkpt><trkpt lat="45.87640020957018" lon="9.948665346333723"><ele>570.2</ele><time>2026-04-26T08:00:30Z</time></trkpt><trkpt lat="45.876368162607356" lon="9.94883739239033"><ele>570.4</ele><time>2026-04-26T08:00:32Z</time></trkpt><trkpt lat="45.876335985187794" lon="9.949013301173714"><ele>570.6</ele><time>2026-04-26T08:00:34Z</time></trkpt><trkpt lat="45.87631275443624" lon="9.949190921455259"><ele>570.8</ele><time>2026-04-26T08:00:36Z</time></trkpt><trkpt lat="45.87630115917364" lon="9.949283284015658"><ele>571.0</ele><time>2026-04-26T08:00:37Z</time></trkpt><trkpt lat="45.87627408622481" lon="9.949457517108367"><ele>571.2</ele><time>2026-04-26T08:00:39Z</time></trkpt><trkpt lat="45.87624179327038" lon="9.949622757620837"><ele>571.4000000000001</ele><time>2026-04-26T08:00:41Z</time></trkpt><trkpt lat="45.87622119229072" lon="9.949784845785375"><ele>571.6</ele><time>2026-04-26T08:00:43Z</time></trkpt><trkpt lat="45.87621036544224" lon="9.949879857708565"><ele>571.8000000000001</ele><time>2026-04-26T08:00:44Z</time></trkpt><trkpt lat="45.876205018301505" lon="9.950049742933642"><ele>572.0</ele><time>2026-04-26T08:00:46Z</time></trkpt><trkpt lat="45.876199771000444" lon="9.950218311892513"><ele>572.2</ele><time>2026-04-26T08:00:48Z</time></trkpt><trkpt lat="45.87621424722269" lon="9.9503854261608"><ele>572.4000000000001</ele><time>2026-04-26T08:00:50Z</time></trkpt><trkpt lat="45.87625263679448" lon="9.95052583467812"><ele>572.5999999999999</ele><time>2026-04-26T08:00:52Z</time></trkpt><trkpt lat="45.8762916267222" lon="9.950618138313931"><ele>572.8</ele><time>2026-04-26T08:00:54Z</time></trkpt><trkpt lat="45.87621382923267" lon="9.950620521673137"><ele>573.0</ele><time>2026-04-26T08:00:57Z</time></trkpt><trkpt lat="45.876132867188964" lon="9.950520974549145"><ele>573.0</ele><time>2026-04-26T08:00:59Z</time></trkpt><trkpt lat="45.876029131184666" lon="9.950449708622417"><ele>573.0</ele><time>2026-04-26T08:01:01Z</time></trkpt><trkpt lat="45.875929143421615" lon="9.950379565533398"><ele>573.0</ele><time>2026-04-26T08:01:03Z</time></trkpt><trkpt lat="45.87581738972972" lon="9.950323077536876"><ele>573.0</ele><time>2026-04-26T08:01:05Z</time></trkpt><trkpt lat="45.87570997720546" lon="9.950286030007868"><ele>573.6</ele><time>2026-04-26T08:01:07Z</time></trkpt><trkpt lat="45.87560532564332" lon="9.950272346987436"><ele>574.1999999999999</ele><time>2026-04-26T08:01:09Z</time></trkpt><trkpt lat="45.87549865127165" lon="9.950242382602362"><ele>574.8</ele><time>2026-04-26T08:01:11Z</time></trkpt><trkpt lat="45.87538374965555" lon="9.950192117508063"><ele>575.4</ele><time>2026-04-26T08:01:13Z</time></trkpt><trkpt lat="45.87527348908325" lon="9.950145193678264"><ele>576.0</ele><time>2026-04-26T08:01:15Z</time></trkpt><trkpt lat="45.87516145478492" lon="9.95010351619842"><ele>576.25</ele><time>2026-04-26T08:01:17Z</time></trkpt><trkpt lat="45.87504758471594" lon="9.950068630242102"><ele>576.5</ele><time>2026-04-26T08:01:19Z</time></trkpt><trkpt lat="45.874939224256636" lon="9.950021603087286"><ele>576.75</ele><time>2026-04-26T08:01:21Z</time></trkpt><trkpt lat="45.87483067422214" lon="9.949967212161868"><ele>577.0</ele><time>2026-04-26T08:01:23Z</time></trkpt><trkpt lat="45.874726883573416" lon="9.949918350586334"><ele>578.25</ele><time>2026-04-26T08:01:25Z</time></trkpt><trkpt lat="45.87464093250674" lon="9.949814459324568"><ele>579.5</ele><time>2026-04-26T08:01:27Z</time></trkpt><trkpt lat="45.87460264716575" lon="9.94965519950312"><ele>580.75</ele><time>2026-04-26T08:01:29Z</time></trkpt><trkpt lat="45.87450809645549" lon="9.949572217368981"><ele>582.0</ele><time>2026-04-26T08:01:31Z</time></trkpt><trkpt lat="45.87439807964629" lon="9.949660174054193"><ele>582.0</ele><time>2026-04-26T08:01:33Z</time></trkpt><trkpt lat="45.87433922508007" lon="9.949807270893706"><ele>582.0</ele><time>2026-04-26T08:01:35Z</time></trkpt><trkpt lat="45.874298081230066" lon="9.949946142865132"><ele>582.0</ele><time>2026-04-26T08:01:37Z</time></trkpt><trkpt lat="45.874239389665675" lon="9.950064743402384"><ele>582.0</ele><time>2026-04-26T08:01:39Z</time></trkpt><trkpt lat="45.87416465945814" lon="9.950162727991046"><ele>582.0</ele><time>2026-04-26T08:01:41Z</time></trkpt><trkpt lat="45.87406021545769" lon="9.950166976025303"><ele>584.8000000000001</ele><time>2026-04-26T08:01:43Z</time></trkpt><trkpt lat="45.87397951326483" lon="9.9500578660819"><ele>587.6</ele><time>2026-04-26T08:01:45Z</time></trkpt><trkpt lat="45.8739690185279" lon="9.949905672488814"><ele>590.4000000000001</ele><time>2026-04-26T08:01:47Z</time></trkpt><trkpt lat="45.87395821233098" lon="9.949755555172024"><ele>593.2</ele><time>2026-04-26T08:01:49Z</time></trkpt><trkpt lat="45.87394629179261" lon="9.949614141562298"><ele>596.0</ele><time>2026-04-26T08:01:51Z</time></trkpt><trkpt lat="45.87394559005606" lon="9.949486550076811"><ele>597.0</ele><time>2026-04-26T08:01:53Z</time></trkpt><trkpt lat="45.8739445618122" lon="9.94935812029532"><ele>598.0</ele><time>2026-04-26T08:01:55Z</time></trkpt><trkpt lat="45.8739276750117" lon="9.949234679973193"><ele>599.0</ele><time>2026-04-26T08:01:57Z</time></trkpt><trkpt lat="45.87392576823076" lon="9.949106631929341"><ele>600.0</ele><time>2026-04-26T08:01:59Z</time></trkpt><trkpt lat="45.873937552739804" lon="9.948974661316026"><ele>601.0</ele><time>2026-04-26T08:02:01Z</time></trkpt><trkpt lat="45.87395730414614" lon="9.948829216596376"><ele>602.0</ele><time>2026-04-26T08:02:03Z</time></trkpt><trkpt lat="45.873984804872855" lon="9.94867984318086"><ele>603.0</ele><time>2026-04-26T08:02:05Z</time></trkpt><trkpt lat="45.87401241237242" lon="9.948538079835812"><ele>604.0</ele><time>2026-04-26T08:02:07Z</time></trkpt><trkpt lat="45.874047002599205" lon="9.948406333370807"><ele>605.0</ele><time>2026-04-26T08:02:09Z</time></trkpt><trkpt lat="45.874082188392066" lon="9.948280327400205"><ele>606.0</ele><time>2026-04-26T08:02:11Z</time></trkpt><trkpt lat="45.87411357650629" lon="9.948152997784014"><ele>608.0</ele><time>2026-04-26T08:02:13Z</time></trkpt><trkpt lat="45.87414424335944" lon="9.948026922067195"><ele>610.0</ele><time>2026-04-26T08:02:15Z</time></trkpt><trkpt lat="45.874176126599025" lon="9.947906598336715"><ele>612.0</ele><time>2026-04-26T08:02:17Z</time></trkpt><trkpt lat="45.874205992850044" lon="9.947785301594589"><ele>614.0</ele><time>2026-04-26T08:02:19Z</time></trkpt><trkpt lat="45.874231125089224" lon="9.947663199601715"><ele>616.0</ele><time>2026-04-26T08:02:21Z</time></trkpt><trkpt lat="45.87425585725491" lon="9.947535963094532"><ele>611.5</ele><time>2026-04-26T08:02:23Z</time></trkpt><trkpt lat="45.874282638504035" lon="9.947410424974635"><ele>607.0</ele><time>2026-04-26T08:02:25Z</time></trkpt><trkpt lat="45.874304371253004" lon="9.947286241548042"><ele>602.5</ele><time>2026-04-26T08:02:27Z</time></trkpt><trkpt lat="45.874323076268965" lon="9.947165017290082"><ele>598.0</ele><time>2026-04-26T08:02:29Z</time></trkpt><trkpt lat="45.87433998608615" lon="9.947042993512307"><ele>593.5</ele><time>2026-04-26T08:02:31Z</time></trkpt><trkpt lat="45.87435632648788" lon="9.94691826275639"><ele>589.0</ele><time>2026-04-26T08:02:33Z</time></trkpt><trkpt lat="45.87437189923037" lon="9.94679134686822"><ele>591.1666666666667</ele><time>2026-04-26T08:02:35Z</time></trkpt><trkpt lat="45.87438723960282" lon="9.946665736091786"><ele>593.3333333333334</ele><time>2026-04-26T08:02:37Z</time></trkpt><trkpt lat="45.8743994250456" lon="9.946543131635114"><ele>595.5</ele><time>2026-04-26T08:02:39Z</time></trkpt><trkpt lat="45.87441243575773" lon="9.946421442831445"><ele>597.6666666666666</ele><time>2026-04-26T08:02:41Z</time></trkpt><trkpt lat="45.874418041658785" lon="9.94630385052957"><ele>599.8333333333333</ele><time>2026-04-26T08:02:43Z</time></trkpt><trkpt lat="45.8744338628775" lon="9.946183860982828"><ele>602.0</ele><time>2026-04-26T08:02:45Z</time></trkpt><trkpt lat="45.87444366446294" lon="9.946057711944874"><ele>602.0</ele><time>2026-04-26T08:02:47Z</time></trkpt><trkpt lat="45.87445190430638" lon="9.945938541352149"><ele>602.0</ele><time>2026-04-26T08:02:49Z</time></trkpt><trkpt lat="45.874460512124195" lon="9.945814304142427"><ele>602.0</ele><time>2026-04-26T08:02:51Z</time></trkpt><trkpt lat="45.87446402427205" lon="9.945690581287652"><ele>602.0</ele><time>2026-04-26T08:02:53Z</time></trkpt><trkpt lat="45.874465202852036" lon="9.945565514169747"><ele>602.0</ele><time>2026-04-26T08:02:55Z</time></trkpt><trkpt lat="45.87446700441896" lon="9.945436029067483"><ele>602.0</ele><time>2026-04-26T08:02:57Z</time></trkpt><trkpt lat="45.874468712012835" lon="9.945306727309378"><ele>604.3333333333333</ele><time>2026-04-26T08:02:59Z</time></trkpt><trkpt lat="45.87448619436967" lon="9.945189901300692"><ele>606.6666666666666</ele><time>2026-04-26T08:03:01Z</time></trkpt><trkpt lat="45.874486946538994" lon="9.945060105173651"><ele>609.0</ele><time>2026-04-26T08:03:03Z</time></trkpt><trkpt lat="45.87449031932042" lon="9.944936841444346"><ele>611.3333333333334</ele><time>2026-04-26T08:03:05Z</time></trkpt><trkpt lat="45.87449062007035" lon="9.94481091358291"><ele>613.6666666666667</ele><time>2026-04-26T08:03:07Z</time></trkpt><trkpt lat="45.87448715896395" lon="9.944683892452332"><ele>616.0</ele><time>2026-04-26T08:03:09Z</time></trkpt><trkpt lat="45.874473890030316" lon="9.94455760931196"><ele>617.1666666666667</ele><time>2026-04-26T08:03:11Z</time></trkpt><trkpt lat="45.87446094958888" lon="9.944439014025706"><ele>618.3333333333334</ele><time>2026-04-26T08:03:13Z</time></trkpt><trkpt lat="45.87444473827756" lon="9.944322362636438"><ele>619.5</ele><time>2026-04-26T08:03:15Z</time></trkpt><trkpt lat="45.8744246712402" lon="9.944199679847548"><ele>620.6666666666666</ele><time>2026-04-26T08:03:17Z</time></trkpt><trkpt lat="45.874398059707694" lon="9.944083265308228"><ele>621.8333333333333</ele><time>2026-04-26T08:03:19Z</time></trkpt><trkpt lat="45.87437301531558" lon="9.943968345972296"><ele>623.0</ele><time>2026-04-26T08:03:21Z</time></trkpt><trkpt lat="45.87434975096559" lon="9.943856612696644"><ele>623.1666666666666</ele><time>2026-04-26T08:03:23Z</time></trkpt><trkpt lat="45.874325471944346" lon="9.943741502507967"><ele>623.3333333333333</ele><time>2026-04-26T08:03:25Z</time></trkpt><trkpt lat="45.87430742749707" lon="9.943623454546383"><ele>623.5</ele><time>2026-04-26T08:03:27Z</time></trkpt><trkpt lat="45.87427845529537" lon="9.943504207577908"><ele>623.6666666666666</ele><time>2026-04-26T08:03:29Z</time></trkpt><trkpt lat="45.87426127990185" lon="9.943379793506791"><ele>623.8333333333334</ele><time>2026-04-26T08:03:31Z</time></trkpt><trkpt lat="45.87424722282567" lon="9.943250050975887"><ele>624.0</ele><time>2026-04-26T08:03:33Z</time></trkpt><trkpt lat="45.87423073179953" lon="9.94312409039724"><ele>633.8</ele><time>2026-04-26T08:03:35Z</time></trkpt><trkpt lat="45.874216954320964" lon="9.94299504566863"><ele>643.5999999999999</ele><time>2026-04-26T08:03:37Z</time></trkpt><trkpt lat="45.87419222522363" lon="9.94286018275046"><ele>653.4</ele><time>2026-04-26T08:03:39Z</time></trkpt><trkpt lat="45.87416519545258" lon="9.942734734102"><ele>663.1999999999999</ele><time>2026-04-26T08:03:41Z</time></trkpt><trkpt lat="45.87413202412617" lon="9.942615597947789"><ele>673.0</ele><time>2026-04-26T08:03:43Z</time></trkpt><trkpt lat="45.874093151842054" lon="9.94249761187194"><ele>673.0</ele><time>2026-04-26T08:03:45Z</time></trkpt><trkpt lat="45.874056076108914" lon="9.942374721785928"><ele>673.0</ele><time>2026-04-26T08:03:47Z</time></trkpt><trkpt lat="45.874020508431066" lon="9.942253223990795"><ele>673.0</ele><time>2026-04-26T08:03:49Z</time></trkpt><trkpt lat="45.87398624327338" lon="9.942134551453668"><ele>673.0</ele><time>2026-04-26T08:03:51Z</time></trkpt><trkpt lat="45.87395509591329" lon="9.942019294526446"><ele>673.0</ele><time>2026-04-26T08:03:53Z</time></trkpt><trkpt lat="45.8739274025092" lon="9.941898155956348"><ele>673.0</ele><time>2026-04-26T08:03:55Z</time></trkpt><trkpt lat="45.87390629974293" lon="9.941776421933334"><ele>673.0</ele><time>2026-04-26T08:03:57Z</time></trkpt><trkpt lat="45.873882301271436" lon="9.94166048418619"><ele>673.0</ele><time>2026-04-26T08:03:59Z</time></trkpt><trkpt lat="45.873854974236444" lon="9.94153479987715"><ele>673.0</ele><time>2026-04-26T08:04:01Z</time></trkpt><trkpt lat="45.87383475132821" lon="9.941405217587393"><ele>673.0</ele><time>2026-04-26T08:04:03Z</time></trkpt><trkpt lat="45.87381826634196" lon="9.941286511203783"><ele>673.0</ele><time>2026-04-26T08:04:05Z</time></trkpt><trkpt lat="45.8737962132119" lon="9.94116288819801"><ele>673.0</ele><time>2026-04-26T08:04:07Z</time></trkpt><trkpt lat="45.87378019686537" lon="9.94103278374715"><ele>673.0</ele><time>2026-04-26T08:04:09Z</time></trkpt><trkpt lat="45.873759313441205" lon="9.940897880658737"><ele>673.0</ele><time>2026-04-26T08:04:11Z</time></trkpt><trkpt lat="45.873738683714905" lon="9.940768357634688"><ele>673.0</ele><time>2026-04-26T08:04:13Z</time></trkpt><trkpt lat="45.87372414341643" lon="9.94064286049937"><ele>673.0</ele><time>2026-04-26T08:04:15Z</time></trkpt><trkpt lat="45.87370871710325" lon="9.940515987332528"><ele>673.0</ele><time>2026-04-26T08:04:17Z</time></trkpt><trkpt lat="45.87368888798728" lon="9.94039729728168"><ele>672.6666666666667</ele><time>2026-04-26T08:04:19Z</time></trkpt><trkpt lat="45.87366839128941" lon="9.940277503870881"><ele>672.3333333333334</ele><time>2026-04-26T08:04:21Z</time></trkpt><trkpt lat="45.873639870814294" lon="9.940162486153131"><ele>672.0</ele><time>2026-04-26T08:04:23Z</time></trkpt><trkpt lat="45.87360302285024" lon="9.940055546705523"><ele>671.6666666666666</ele><time>2026-04-26T08:04:25Z</time></trkpt><trkpt lat="45.87357412327836" lon="9.939951738861033"><ele>671.3333333333333</ele><time>2026-04-26T08:04:27Z</time></trkpt><trkpt lat="45.873541011847564" lon="9.939855224814844"><ele>671.0</ele><time>2026-04-26T08:04:29Z</time></trkpt><trkpt lat="45.873514133643454" lon="9.939744150020633"><ele>670.3333333333333</ele><time>2026-04-26T08:04:31Z</time></trkpt><trkpt lat="45.87347715498654" lon="9.939648242090696"><ele>669.6666666666666</ele><time>2026-04-26T08:04:33Z</time></trkpt><trkpt lat="45.873442150300626" lon="9.939542541943538"><ele>669.0</ele><time>2026-04-26T08:04:35Z</time></trkpt><trkpt lat="45.87340298799608" lon="9.939434309285273"><ele>668.3333333333334</ele><time>2026-04-26T08:04:37Z</time></trkpt><trkpt lat="45.87336419776939" lon="9.93932316608123"><ele>667.6666666666667</ele><time>2026-04-26T08:04:39Z</time></trkpt><trkpt lat="45.873324176744966" lon="9.939222097766025"><ele>667.0</ele><time>2026-04-26T08:04:41Z</time></trkpt><trkpt lat="45.87327897464017" lon="9.939120214101026"><ele>674.0</ele><time>2026-04-26T08:04:43Z</time></trkpt><trkpt lat="45.87324216142577" lon="9.939023204409564"><ele>681.0</ele><time>2026-04-26T08:04:45Z</time></trkpt><trkpt lat="45.87319741509896" lon="9.938946406718951"><ele>688.0</ele><time>2026-04-26T08:04:47Z</time></trkpt><trkpt lat="45.87313259321792" lon="9.93896825222064"><ele>695.0</ele><time>2026-04-26T08:04:49Z</time></trkpt><trkpt lat="45.873148599243564" lon="9.939105837608619"><ele>702.0</ele><time>2026-04-26T08:04:51Z</time></trkpt><trkpt lat="45.87319860347072" lon="9.939222791038054"><ele>709.0</ele><time>2026-04-26T08:04:53Z</time></trkpt><trkpt lat="45.87321643060116" lon="9.939340972891404"><ele>710.3333333333334</ele><time>2026-04-26T08:04:55Z</time></trkpt><trkpt lat="45.87321815566401" lon="9.939451751481172"><ele>711.6666666666667</ele><time>2026-04-26T08:04:57Z</time></trkpt><trkpt lat="45.87322219383324" lon="9.939552388131334"><ele>713.0</ele><time>2026-04-26T08:04:59Z</time></trkpt><trkpt lat="45.87322196245902" lon="9.939670026434236"><ele>714.3333333333334</ele><time>2026-04-26T08:05:01Z</time></trkpt><trkpt lat="45.87321976571833" lon="9.939789566203983"><ele>715.6666666666666</ele><time>2026-04-26T08:05:03Z</time></trkpt><trkpt lat="45.873234576701975" lon="9.939904919455962"><ele>717.0</ele><time>2026-04-26T08:05:05Z</time></trkpt><trkpt lat="45.87324143256905" lon="9.940016220665537"><ele>718.1428571428571</ele><time>2026-04-26T08:05:07Z</time></trkpt><trkpt lat="45.87324991525284" lon="9.940129461120675"><ele>719.2857142857142</ele><time>2026-04-26T08:05:09Z</time></trkpt><trkpt lat="45.87324681604075" lon="9.940234046615563"><ele>720.4285714285714</ele><time>2026-04-26T08:05:11Z</time></trkpt><trkpt lat="45.87324041930219" lon="9.94034565812484"><ele>721.5714285714286</ele><time>2026-04-26T08:05:13Z</time></trkpt><trkpt lat="45.873235552034444" lon="9.940456261697763"><ele>722.7142857142858</ele><time>2026-04-26T08:05:15Z</time></trkpt><trkpt lat="45.87322690240534" lon="9.940557750847567"><ele>723.8571428571429</ele><time>2026-04-26T08:05:17Z</time></trkpt><trkpt lat="45.873219039646884" lon="9.940656293704224"><ele>725.0</ele><time>2026-04-26T08:05:19Z</time></trkpt><trkpt lat="45.87323456519491" lon="9.940750572858647"><ele>725.0</ele><time>2026-04-26T08:05:21Z</time></trkpt><trkpt lat="45.87321417516133" lon="9.94086191505486"><ele>725.0</ele><time>2026-04-26T08:05:23Z</time></trkpt><trkpt lat="45.87320921138186" lon="9.940970951507053"><ele>725.0</ele><time>2026-04-26T08:05:25Z</time></trkpt><trkpt lat="45.87320464258747" lon="9.941085645205392"><ele>725.0</ele><time>2026-04-26T08:05:27Z</time></trkpt><trkpt lat="45.8731986789227" lon="9.941192704016196"><ele>725.0</ele><time>2026-04-26T08:05:29Z</time></trkpt><trkpt lat="45.87318692707385" lon="9.94130574124246"><ele>725.0</ele><time>2026-04-26T08:05:31Z</time></trkpt><trkpt lat="45.87317238503006" lon="9.941415486012128"><ele>724.6666666666666</ele><time>2026-04-26T08:05:33Z</time></trkpt><trkpt lat="45.873168029483296" lon="9.941530920990953"><ele>724.3333333333333</ele><time>2026-04-26T08:05:35Z</time></trkpt><trkpt lat="45.87317898885073" lon="9.941650773660474"><ele>724.0</ele><time>2026-04-26T08:05:37Z</time></trkpt><trkpt lat="45.87319464985692" lon="9.941763759285685"><ele>723.6666666666666</ele><time>2026-04-26T08:05:39Z</time></trkpt><trkpt lat="45.873207786132724" lon="9.941877173879435"><ele>723.3333333333334</ele><time>2026-04-26T08:05:41Z</time></trkpt><trkpt lat="45.8732146593638" lon="9.941984250586765"><ele>723.0</ele><time>2026-04-26T08:05:43Z</time></trkpt><trkpt lat="45.8732186617638" lon="9.942098266434554"><ele>724.0000000000001</ele><time>2026-04-26T08:05:45Z</time></trkpt><trkpt lat="45.87320681076519" lon="9.942198483022315"><ele>725.0</ele><time>2026-04-26T08:05:47Z</time></trkpt><trkpt lat="45.873174507990676" lon="9.942288328660174"><ele>726.0</ele><time>2026-04-26T08:05:49Z</time></trkpt><trkpt lat="45.87314534187648" lon="9.942379965101612"><ele>727.0</ele><time>2026-04-26T08:05:51Z</time></trkpt><trkpt lat="45.873146219955174" lon="9.942485401552489"><ele>728.0</ele><time>2026-04-26T08:05:52.999Z</time></trkpt><trkpt lat="45.87314345285492" lon="9.942597747814826"><ele>729.0000000000001</ele><time>2026-04-26T08:05:54.999Z</time></trkpt><trkpt lat="45.87313695870586" lon="9.942711139398225"><ele>730.0</ele><time>2026-04-26T08:05:56.999Z</time></trkpt><trkpt lat="45.873118065327965" lon="9.942819231576005"><ele>731.6666666666667</ele><time>2026-04-26T08:05:58.999Z</time></trkpt><trkpt lat="45.873097464484104" lon="9.942924724789076"><ele>733.3333333333334</ele><time>2026-04-26T08:06:00.999Z</time></trkpt><trkpt lat="45.873077049535695" lon="9.94303132774846"><ele>735.0</ele><time>2026-04-26T08:06:02.999Z</time></trkpt><trkpt lat="45.873071448200754" lon="9.943149819129253"><ele>736.6666666666666</ele><time>2026-04-26T08:06:04.999Z</time></trkpt><trkpt lat="45.873072877961" lon="9.943263436394558"><ele>738.3333333333333</ele><time>2026-04-26T08:06:06.999Z</time></trkpt><trkpt lat="45.873075028417375" lon="9.943382123698479"><ele>740.0</ele><time>2026-04-26T08:06:08.999Z</time></trkpt><trkpt lat="45.873096357474836" lon="9.943494987630865"><ele>741.1666666666666</ele><time>2026-04-26T08:06:10.999Z</time></trkpt><trkpt lat="45.873097344076314" lon="9.943604220632038"><ele>742.3333333333333</ele><time>2026-04-26T08:06:12.999Z</time></trkpt><trkpt lat="45.87309396081744" lon="9.943709801936816"><ele>743.5</ele><time>2026-04-26T08:06:14.999Z</time></trkpt><trkpt lat="45.8730993064754" lon="9.943816120080673"><ele>744.6666666666666</ele><time>2026-04-26T08:06:16.999Z</time></trkpt><trkpt lat="45.87309597436705" lon="9.943929024173366"><ele>745.8333333333334</ele><time>2026-04-26T08:06:18.999Z</time></trkpt><trkpt lat="45.87309125462157" lon="9.944039129695742"><ele>747.0</ele><time>2026-04-26T08:06:20.999Z</time></trkpt><trkpt lat="45.87308523641645" lon="9.944150387669396"><ele>746.6666666666666</ele><time>2026-04-26T08:06:22.999Z</time></trkpt><trkpt lat="45.873076086845956" lon="9.944261248423434"><ele>746.3333333333334</ele><time>2026-04-26T08:06:24.999Z</time></trkpt><trkpt lat="45.87307299562739" lon="9.944374450044588"><ele>746.0</ele><time>2026-04-26T08:06:26.999Z</time></trkpt><trkpt lat="45.87305407835764" lon="9.94448188871096"><ele>745.6666666666667</ele><time>2026-04-26T08:06:28.999Z</time></trkpt><trkpt lat="45.87302776558414" lon="9.944591770389934"><ele>745.3333333333334</ele><time>2026-04-26T08:06:30.999Z</time></trkpt><trkpt lat="45.87302133610077" lon="9.94470131178372"><ele>745.0</ele><time>2026-04-26T08:06:32.999Z</time></trkpt><trkpt lat="45.87299994074637" lon="9.944806232548196"><ele>745.0</ele><time>2026-04-26T08:06:34.999Z</time></trkpt><trkpt lat="45.87297826459116" lon="9.944906342755484"><ele>745.0</ele><time>2026-04-26T08:06:36.999Z</time></trkpt><trkpt lat="45.872961161151316" lon="9.94500797074585"><ele>745.0</ele><time>2026-04-26T08:06:38.999Z</time></trkpt><trkpt lat="45.87295156822311" lon="9.945106718152212"><ele>745.0</ele><time>2026-04-26T08:06:40.999Z</time></trkpt><trkpt lat="45.872934387708106" lon="9.945199327886646"><ele>745.0</ele><time>2026-04-26T08:06:42.999Z</time></trkpt><trkpt lat="45.8729140743018" lon="9.945303299411421"><ele>745.0</ele><time>2026-04-26T08:06:44.999Z</time></trkpt><trkpt lat="45.872876764762864" lon="9.945405792170343"><ele>745.0</ele><time>2026-04-26T08:06:46.999Z</time></trkpt><trkpt lat="45.87284465208587" lon="9.945515410464855"><ele>745.8333333333334</ele><time>2026-04-26T08:06:48.999Z</time></trkpt><trkpt lat="45.872817958023205" lon="9.94561339745078"><ele>746.6666666666667</ele><time>2026-04-26T08:06:50.999Z</time></trkpt><trkpt lat="45.872789142265916" lon="9.94571103687777"><ele>747.5</ele><time>2026-04-26T08:06:52.999Z</time></trkpt><trkpt lat="45.87275933883495" lon="9.94581998724215"><ele>748.3333333333334</ele><time>2026-04-26T08:06:55Z</time></trkpt><trkpt lat="45.872699476599806" lon="9.94589183915398"><ele>749.1666666666666</ele><time>2026-04-26T08:06:57Z</time></trkpt><trkpt lat="45.87263292278249" lon="9.945937799677365"><ele>750.0</ele><time>2026-04-26T08:06:59Z</time></trkpt><trkpt lat="45.87256978375219" lon="9.945881544092613"><ele>754.0</ele><time>2026-04-26T08:07:01Z</time></trkpt><trkpt lat="45.87252103572933" lon="9.945803184260829"><ele>758.0</ele><time>2026-04-26T08:07:03Z</time></trkpt><trkpt lat="45.872471236317644" lon="9.945717046557489"><ele>762.0</ele><time>2026-04-26T08:07:05Z</time></trkpt><trkpt lat="45.872426594279055" lon="9.945634329608056"><ele>766.0</ele><time>2026-04-26T08:07:07Z</time></trkpt><trkpt lat="45.872377908986444" lon="9.945558509465942"><ele>770.0</ele><time>2026-04-26T08:07:09Z</time></trkpt><trkpt lat="45.87232631707566" lon="9.945486408490197"><ele>774.0</ele><time>2026-04-26T08:07:11Z</time></trkpt><trkpt lat="45.87227167848626" lon="9.945423175776964"><ele>778.0</ele><time>2026-04-26T08:07:13Z</time></trkpt><trkpt lat="45.872217576746436" lon="9.94536456221718"><ele>777.9999999999999</ele><time>2026-04-26T08:07:15Z</time></trkpt><trkpt lat="45.87217546988538" lon="9.945283752534273"><ele>778.0</ele><time>2026-04-26T08:07:17Z</time></trkpt><trkpt lat="45.872115519794754" lon="9.945216714600026"><ele>778.0</ele><time>2026-04-26T08:07:19Z</time></trkpt><trkpt lat="45.8720772564801" lon="9.945128757869131"><ele>778.0</ele><time>2026-04-26T08:07:21Z</time></trkpt><trkpt lat="45.87200908226767" lon="9.94507197954088"><ele>777.9999999999999</ele><time>2026-04-26T08:07:23Z</time></trkpt><trkpt lat="45.87195412230524" lon="9.944995783462085"><ele>778.0</ele><time>2026-04-26T08:07:25Z</time></trkpt><trkpt lat="45.87189485991985" lon="9.944925737622071"><ele>781.8333333333333</ele><time>2026-04-26T08:07:27Z</time></trkpt><trkpt lat="45.87182880818589" lon="9.944872784839424"><ele>785.6666666666666</ele><time>2026-04-26T08:07:29Z</time></trkpt><trkpt lat="45.8717561213819" lon="9.944865785524726"><ele>789.5</ele><time>2026-04-26T08:07:31Z</time></trkpt><trkpt lat="45.87169159963834" lon="9.944809686531583"><ele>793.3333333333333</ele><time>2026-04-26T08:07:33Z</time></trkpt><trkpt lat="45.87170321073129" lon="9.944705931177664"><ele>797.1666666666666</ele><time>2026-04-26T08:07:35Z</time></trkpt><trkpt lat="45.871789435920135" lon="9.944695029204771"><ele>801.0</ele><time>2026-04-26T08:07:37Z</time></trkpt><trkpt lat="45.8718613151663" lon="9.944723669372255"><ele>801.0</ele><time>2026-04-26T08:07:39Z</time></trkpt><trkpt lat="45.8719331248301" lon="9.944731976258284"><ele>801.0</ele><time>2026-04-26T08:07:41Z</time></trkpt><trkpt lat="45.872007652342205" lon="9.94471590240042"><ele>801.0</ele><time>2026-04-26T08:07:43Z</time></trkpt><trkpt lat="45.872086290649" lon="9.944714808895293"><ele>801.0</ele><time>2026-04-26T08:07:45Z</time></trkpt><trkpt lat="45.872162551326504" lon="9.944690585496001"><ele>801.0</ele><time>2026-04-26T08:07:47Z</time></trkpt><trkpt lat="45.872235074512936" lon="9.944692332905808"><ele>801.0</ele><time>2026-04-26T08:07:49Z</time></trkpt><trkpt lat="45.87231223591003" lon="9.944707579627927"><ele>801.0</ele><time>2026-04-26T08:07:51Z</time></trkpt><trkpt lat="45.87238456024928" lon="9.944726894393668"><ele>801.0</ele><time>2026-04-26T08:07:53Z</time></trkpt><trkpt lat="45.8724491838149" lon="9.944740065939284"><ele>801.0</ele><time>2026-04-26T08:07:55Z</time></trkpt><trkpt lat="45.87251425365886" lon="9.94472178250286"><ele>801.0</ele><time>2026-04-26T08:07:59Z</time></trkpt><trkpt lat="45.872513922302915" lon="9.944630874472978"><ele>801.0</ele><time>2026-04-26T08:08:03Z</time></trkpt><trkpt lat="45.87243781689949" lon="9.944552097917711"><ele>801.0</ele><time>2026-04-26T08:08:07Z</time></trkpt><trkpt lat="45.87237430390679" lon="9.94451305847113"><ele>801.0</ele><time>2026-04-26T08:08:09Z</time></trkpt><trkpt lat="45.87230544083829" lon="9.944482647257969"><ele>801.0</ele><time>2026-04-26T08:08:11Z</time></trkpt><trkpt lat="45.872215534989145" lon="9.944399388603479"><ele>801.0</ele><time>2026-04-26T08:08:14Z</time></trkpt><trkpt lat="45.87215073538225" lon="9.94436425926176"><ele>801.0</ele><time>2026-04-26T08:08:16Z</time></trkpt><trkpt lat="45.87209310476569" lon="9.944311463587624"><ele>801.0</ele><time>2026-04-26T08:08:18Z</time></trkpt><trkpt lat="45.8720329195818" lon="9.944269388091497"><ele>801.0</ele><time>2026-04-26T08:08:20Z</time></trkpt><trkpt lat="45.87197550372574" lon="9.944224184174567"><ele>801.0</ele><time>2026-04-26T08:08:22Z</time></trkpt><trkpt lat="45.87191459558752" lon="9.944142747483577"><ele>802.7142857142857</ele><time>2026-04-26T08:08:23.999Z</time></trkpt><trkpt lat="45.87185613270722" lon="9.944089005407466"><ele>804.4285714285713</ele><time>2026-04-26T08:08:25.999Z</time></trkpt><trkpt lat="45.87179581379992" lon="9.94404834375842"><ele>806.1428571428571</ele><time>2026-04-26T08:08:27.999Z</time></trkpt><trkpt lat="45.87173311814322" lon="9.944001381253406"><ele>807.8571428571429</ele><time>2026-04-26T08:08:30.999Z</time></trkpt><trkpt lat="45.87166762839651" lon="9.943983918022614"><ele>809.5714285714286</ele><time>2026-04-26T08:08:32.999Z</time></trkpt><trkpt lat="45.871585368942874" lon="9.94392781950884"><ele>811.2857142857143</ele><time>2026-04-26T08:08:35.999Z</time></trkpt><trkpt lat="45.871520872934376" lon="9.943886483635174"><ele>813.0</ele><time>2026-04-26T08:08:37.999Z</time></trkpt><trkpt lat="45.871454412397775" lon="9.943841341500445"><ele>814.5</ele><time>2026-04-26T08:08:39.999Z</time></trkpt><trkpt lat="45.87139628293378" lon="9.943785804727854"><ele>816.0</ele><time>2026-04-26T08:08:41.999Z</time></trkpt><trkpt lat="45.8713272999424" lon="9.943728582776522"><ele>817.5</ele><time>2026-04-26T08:08:43.999Z</time></trkpt><trkpt lat="45.87126534906846" lon="9.94370305340412"><ele>819.0</ele><time>2026-04-26T08:08:45.999Z</time></trkpt><trkpt lat="45.8711972187101" lon="9.943676685166823"><ele>820.5</ele><time>2026-04-26T08:08:47.999Z</time></trkpt><trkpt lat="45.87113515940671" lon="9.943628432323196"><ele>822.0</ele><time>2026-04-26T08:08:49.999Z</time></trkpt><trkpt lat="45.871040385619104" lon="9.943605696395814"><ele>822.0</ele><time>2026-04-26T08:08:52.999Z</time></trkpt><trkpt lat="45.87097502578432" lon="9.943598101166403"><ele>822.0</ele><time>2026-04-26T08:08:54.999Z</time></trkpt><trkpt lat="45.87091436738694" lon="9.943567800421947"><ele>822.0</ele><time>2026-04-26T08:08:56.999Z</time></trkpt><trkpt lat="45.870842777375714" lon="9.943547065367476"><ele>822.0</ele><time>2026-04-26T08:08:58.999Z</time></trkpt><trkpt lat="45.87077231051919" lon="9.943540488465473"><ele>822.0</ele><time>2026-04-26T08:09:01Z</time></trkpt><trkpt lat="45.87069551223388" lon="9.943570093198966"><ele>822.0</ele><time>2026-04-26T08:09:03Z</time></trkpt><trkpt lat="45.870620090852505" lon="9.943626351634327"><ele>822.0</ele><time>2026-04-26T08:09:05Z</time></trkpt><trkpt lat="45.870544225302055" lon="9.943684540161591"><ele>823.3333333333334</ele><time>2026-04-26T08:09:07Z</time></trkpt><trkpt lat="45.87047652556373" lon="9.943742700285176"><ele>824.6666666666667</ele><time>2026-04-26T08:09:09Z</time></trkpt><trkpt lat="45.87041524506977" lon="9.943796581100205"><ele>826.0</ele><time>2026-04-26T08:09:11Z</time></trkpt><trkpt lat="45.87036324483054" lon="9.943863338099074"><ele>827.3333333333334</ele><time>2026-04-26T08:09:13Z</time></trkpt><trkpt lat="45.87029096009244" lon="9.943948100490797"><ele>828.6666666666667</ele><time>2026-04-26T08:09:16Z</time></trkpt><trkpt lat="45.87021179822299" lon="9.944017255691218"><ele>830.0</ele><time>2026-04-26T08:09:19Z</time></trkpt><trkpt lat="45.870157110211245" lon="9.944067094696765"><ele>831.2857142857143</ele><time>2026-04-26T08:09:21Z</time></trkpt><trkpt lat="45.87010002969543" lon="9.944109841862861"><ele>832.5714285714287</ele><time>2026-04-26T08:09:23Z</time></trkpt><trkpt lat="45.87003641315752" lon="9.944145123707054"><ele>833.8571428571429</ele><time>2026-04-26T08:09:25Z</time></trkpt><trkpt lat="45.869977882432394" lon="9.944180857567165"><ele>835.1428571428571</ele><time>2026-04-26T08:09:27Z</time></trkpt><trkpt lat="45.86991881973981" lon="9.94421564069728"><ele>836.4285714285714</ele><time>2026-04-26T08:09:29Z</time></trkpt><trkpt lat="45.869843041917214" lon="9.944260667176758"><ele>837.7142857142857</ele><time>2026-04-26T08:09:32Z</time></trkpt><trkpt lat="45.869786146553636" lon="9.944303610665047"><ele>839.0</ele><time>2026-04-26T08:09:35Z</time></trkpt><trkpt lat="45.86973085862652" lon="9.944347237202663"><ele>840.6666666666667</ele><time>2026-04-26T08:09:37Z</time></trkpt><trkpt lat="45.869656864790294" lon="9.94435676621491"><ele>842.3333333333334</ele><time>2026-04-26T08:09:39Z</time></trkpt><trkpt lat="45.86958789808622" lon="9.944379878494715"><ele>844.0</ele><time>2026-04-26T08:09:41Z</time></trkpt><trkpt lat="45.869497631420145" lon="9.944396508404003"><ele>845.6666666666667</ele><time>2026-04-26T08:09:44Z</time></trkpt><trkpt lat="45.86942966287791" lon="9.94440564414804"><ele>847.3333333333334</ele><time>2026-04-26T08:09:46Z</time></trkpt><trkpt lat="45.869354611305205" lon="9.944387436202327"><ele>849.0</ele><time>2026-04-26T08:09:48Z</time></trkpt><trkpt lat="45.869285932166996" lon="9.944366310399705"><ele>852.8333333333334</ele><time>2026-04-26T08:09:50Z</time></trkpt><trkpt lat="45.86921596299313" lon="9.944347251287885"><ele>856.6666666666667</ele><time>2026-04-26T08:09:52Z</time></trkpt><trkpt lat="45.86914033119009" lon="9.944320679215316"><ele>860.5</ele><time>2026-04-26T08:09:54Z</time></trkpt><trkpt lat="45.86906347763945" lon="9.944311324683467"><ele>864.3333333333334</ele><time>2026-04-26T08:09:56Z</time></trkpt><trkpt lat="45.86897449737823" lon="9.944314460500582"><ele>868.1666666666667</ele><time>2026-04-26T08:09:58Z</time></trkpt><trkpt lat="45.868892977166695" lon="9.944319363246448"><ele>872.0</ele><time>2026-04-26T08:10:00Z</time></trkpt><trkpt lat="45.86880418221753" lon="9.944335926378647"><ele>872.0000000000001</ele><time>2026-04-26T08:10:02Z</time></trkpt><trkpt lat="45.868719126792975" lon="9.944347423438199"><ele>872.0</ele><time>2026-04-26T08:10:04Z</time></trkpt><trkpt lat="45.86862969011644" lon="9.944356971678113"><ele>872.0</ele><time>2026-04-26T08:10:06Z</time></trkpt><trkpt lat="45.868543432682074" lon="9.944357655909318"><ele>872.0</ele><time>2026-04-26T08:10:08Z</time></trkpt><trkpt lat="45.868461578457755" lon="9.944335334574863"><ele>872.0000000000001</ele><time>2026-04-26T08:10:10Z</time></trkpt><trkpt lat="45.86838099870577" lon="9.944319817333385"><ele>872.0</ele><time>2026-04-26T08:10:12Z</time></trkpt><trkpt lat="45.86830447434857" lon="9.94427930794702"><ele>871.0000000000001</ele><time>2026-04-26T08:10:14Z</time></trkpt><trkpt lat="45.868223206506435" lon="9.944239301286482"><ele>870.0</ele><time>2026-04-26T08:10:16Z</time></trkpt><trkpt lat="45.86814367527265" lon="9.94420772614584"><ele>869.0</ele><time>2026-04-26T08:10:18Z</time></trkpt><trkpt lat="45.868078395615264" lon="9.944163015914489"><ele>868.0</ele><time>2026-04-26T08:10:20Z</time></trkpt><trkpt lat="45.86799610993127" lon="9.944112034393111"><ele>867.0000000000001</ele><time>2026-04-26T08:10:22Z</time></trkpt><trkpt lat="45.86792079642964" lon="9.944057153071707"><ele>866.0</ele><time>2026-04-26T08:10:24Z</time></trkpt><trkpt lat="45.867846467113765" lon="9.943999391202674"><ele>866.0000000000001</ele><time>2026-04-26T08:10:26Z</time></trkpt><trkpt lat="45.8677650749668" lon="9.943989515160522"><ele>866.0</ele><time>2026-04-26T08:10:28Z</time></trkpt><trkpt lat="45.8676849288332" lon="9.9440137337668"><ele>866.0</ele><time>2026-04-26T08:10:30Z</time></trkpt><trkpt lat="45.86759384948771" lon="9.944034656015551"><ele>866.0</ele><time>2026-04-26T08:10:32Z</time></trkpt><trkpt lat="45.867515919491545" lon="9.944056215690756"><ele>866.0000000000001</ele><time>2026-04-26T08:10:34Z</time></trkpt><trkpt lat="45.86743867753663" lon="9.944076612265189"><ele>866.0</ele><time>2026-04-26T08:10:36Z</time></trkpt><trkpt lat="45.86736081380567" lon="9.944086870692352"><ele>869.0000000000001</ele><time>2026-04-26T08:10:38Z</time></trkpt><trkpt lat="45.867285350197236" lon="9.944104141569252"><ele>872.0</ele><time>2026-04-26T08:10:40Z</time></trkpt><trkpt lat="45.86720798723606" lon="9.944104557046819"><ele>875.0</ele><time>2026-04-26T08:10:42Z</time></trkpt><trkpt lat="45.867134179260155" lon="9.944137478151328"><ele>878.0</ele><time>2026-04-26T08:10:44Z</time></trkpt><trkpt lat="45.86712985094526" lon="9.94423628287425"><ele>881.0000000000001</ele><time>2026-04-26T08:10:46Z</time></trkpt><trkpt lat="45.86723289607901" lon="9.944226288209343"><ele>884.0</ele><time>2026-04-26T08:10:48Z</time></trkpt><trkpt lat="45.86731640849832" lon="9.944210799324056"><ele>886.1666666666667</ele><time>2026-04-26T08:10:50Z</time></trkpt><trkpt lat="45.86740326983499" lon="9.944227975696196"><ele>888.3333333333334</ele><time>2026-04-26T08:10:52Z</time></trkpt><trkpt lat="45.86749101019929" lon="9.944254506433111"><ele>890.5</ele><time>2026-04-26T08:10:54Z</time></trkpt><trkpt lat="45.86757775479601" lon="9.94426720721748"><ele>892.6666666666667</ele><time>2026-04-26T08:10:56Z</time></trkpt><trkpt lat="45.86766474044062" lon="9.94426641282701"><ele>894.8333333333334</ele><time>2026-04-26T08:10:58Z</time></trkpt><trkpt lat="45.86774398948999" lon="9.94430179504462"><ele>897.0</ele><time>2026-04-26T08:11:00Z</time></trkpt><trkpt lat="45.867813616892526" lon="9.944368189993343"><ele>897.0</ele><time>2026-04-26T08:11:02Z</time></trkpt><trkpt lat="45.86787664595277" lon="9.944459094005513"><ele>897.0</ele><time>2026-04-26T08:11:04Z</time></trkpt><trkpt lat="45.86794047239379" lon="9.944547882921666"><ele>897.0</ele><time>2026-04-26T08:11:06Z</time></trkpt><trkpt lat="45.868017032073695" lon="9.944619871765761"><ele>897.0</ele><time>2026-04-26T08:11:08Z</time></trkpt><trkpt lat="45.86807613223207" lon="9.944703364935298"><ele>897.0</ele><time>2026-04-26T08:11:10Z</time></trkpt><trkpt lat="45.86814756433943" lon="9.944774214804212"><ele>897.0</ele><time>2026-04-26T08:11:12Z</time></trkpt><trkpt lat="45.86821878627242" lon="9.944841595832747"><ele>897.0</ele><time>2026-04-26T08:11:13.999Z</time></trkpt><trkpt lat="45.86828320946759" lon="9.944915022990989"><ele>897.0</ele><time>2026-04-26T08:11:15.999Z</time></trkpt><trkpt lat="45.86834404445972" lon="9.94500138970061"><ele>897.0</ele><time>2026-04-26T08:11:17.999Z</time></trkpt><trkpt lat="45.86840021831047" lon="9.945079925828889"><ele>897.0</ele><time>2026-04-26T08:11:19.999Z</time></trkpt><trkpt lat="45.868420327509895" lon="9.945185540990947"><ele>897.0</ele><time>2026-04-26T08:11:21.999Z</time></trkpt><trkpt lat="45.86841828639081" lon="9.945306980618595"><ele>897.0</ele><time>2026-04-26T08:11:23.999Z</time></trkpt><trkpt lat="45.86840872548429" lon="9.945428898161879"><ele>897.6666666666666</ele><time>2026-04-26T08:11:25.999Z</time></trkpt><trkpt lat="45.86839205803343" lon="9.94554661690452"><ele>898.3333333333333</ele><time>2026-04-26T08:11:27.999Z</time></trkpt><trkpt lat="45.86836903224249" lon="9.945654648037827"><ele>899.0</ele><time>2026-04-26T08:11:29.999Z</time></trkpt><trkpt lat="45.86835329886316" lon="9.945786111300064"><ele>899.6666666666666</ele><time>2026-04-26T08:11:31.999Z</time></trkpt><trkpt lat="45.86833454429545" lon="9.945898140302775"><ele>900.3333333333333</ele><time>2026-04-26T08:11:33.999Z</time></trkpt><trkpt lat="45.86830566446743" lon="9.946010447790563"><ele>901.0</ele><time>2026-04-26T08:11:35.999Z</time></trkpt><trkpt lat="45.86826942098303" lon="9.94611560793495"><ele>901.0</ele><time>2026-04-26T08:11:37.999Z</time></trkpt><trkpt lat="45.868238922520284" lon="9.946228956800878"><ele>900.9999999999999</ele><time>2026-04-26T08:11:39.999Z</time></trkpt><trkpt lat="45.86818808339761" lon="9.946340250492376"><ele>900.9999999999999</ele><time>2026-04-26T08:11:41.999Z</time></trkpt><trkpt lat="45.868141330028266" lon="9.946459616794565"><ele>901.0</ele><time>2026-04-26T08:11:43.999Z</time></trkpt><trkpt lat="45.86808138644346" lon="9.94658310819857"><ele>901.0</ele><time>2026-04-26T08:11:45.999Z</time></trkpt><trkpt lat="45.86803483911372" lon="9.94669544829067"><ele>899.1999999999999</ele><time>2026-04-26T08:11:47.999Z</time></trkpt><trkpt lat="45.86797960387666" lon="9.946813621997915"><ele>897.3999999999999</ele><time>2026-04-26T08:11:49.999Z</time></trkpt><trkpt lat="45.86795585006006" lon="9.946943885414251"><ele>895.6</ele><time>2026-04-26T08:11:52Z</time></trkpt><trkpt lat="45.86791433917126" lon="9.947067140172479"><ele>893.8</ele><time>2026-04-26T08:11:54Z</time></trkpt><trkpt lat="45.86786718470843" lon="9.947179406974765"><ele>892.0</ele><time>2026-04-26T08:11:56Z</time></trkpt><trkpt lat="45.86781775528479" lon="9.947299644383353"><ele>891.9999999999999</ele><time>2026-04-26T08:11:58Z</time></trkpt><trkpt lat="45.867757859225904" lon="9.947392050359861"><ele>892.0</ele><time>2026-04-26T08:12:00Z</time></trkpt><trkpt lat="45.867697389993374" lon="9.947485718632725"><ele>892.0</ele><time>2026-04-26T08:12:02Z</time></trkpt><trkpt lat="45.86764818625807" lon="9.947584912122466"><ele>892.0</ele><time>2026-04-26T08:12:04Z</time></trkpt><trkpt lat="45.86761358642807" lon="9.947713766335118"><ele>891.9999999999999</ele><time>2026-04-26T08:12:06Z</time></trkpt><trkpt lat="45.86761006122729" lon="9.947834629754272"><ele>892.0</ele><time>2026-04-26T08:12:08Z</time></trkpt><trkpt lat="45.867614723911636" lon="9.94795232264081"><ele>898.9999999999999</ele><time>2026-04-26T08:12:10Z</time></trkpt><trkpt lat="45.86758258771148" lon="9.94806659129644"><ele>906.0</ele><time>2026-04-26T08:12:12Z</time></trkpt><trkpt lat="45.86751774744162" lon="9.948105560042157"><ele>913.0</ele><time>2026-04-26T08:12:14Z</time></trkpt><trkpt lat="45.86751106779652" lon="9.947974079584474"><ele>920.0</ele><time>2026-04-26T08:12:16Z</time></trkpt><trkpt lat="45.867540444588975" lon="9.947863483791643"><ele>926.9999999999999</ele><time>2026-04-26T08:12:18Z</time></trkpt><trkpt lat="45.867540348703635" lon="9.947739066138817"><ele>934.0</ele><time>2026-04-26T08:12:20Z</time></trkpt><trkpt lat="45.86752592420615" lon="9.947613727382878"><ele>935.0</ele><time>2026-04-26T08:12:22Z</time></trkpt><trkpt lat="45.867532301532954" lon="9.94746590452525"><ele>936.0000000000001</ele><time>2026-04-26T08:12:24Z</time></trkpt><trkpt lat="45.86756335027266" lon="9.947331332834288"><ele>937.0000000000001</ele><time>2026-04-26T08:12:26Z</time></trkpt><trkpt lat="45.86758260458206" lon="9.947186900241071"><ele>938.0</ele><time>2026-04-26T08:12:28Z</time></trkpt><trkpt lat="45.867582806343265" lon="9.947025321308326"><ele>939.0</ele><time>2026-04-26T08:12:30Z</time></trkpt><trkpt lat="45.86758581189074" lon="9.94688696167939"><ele>939.0</ele><time>2026-04-26T08:12:32Z</time></trkpt><trkpt lat="45.86760628202626" lon="9.946750926023693"><ele>939.0000000000001</ele><time>2026-04-26T08:12:34Z</time></trkpt><trkpt lat="45.8676303308541" lon="9.946617855494285"><ele>939.0000000000001</ele><time>2026-04-26T08:12:36Z</time></trkpt><trkpt lat="45.86764469943403" lon="9.946475030929955"><ele>939.0</ele><time>2026-04-26T08:12:38Z</time></trkpt><trkpt lat="45.86766334972562" lon="9.946329113317917"><ele>939.0</ele><time>2026-04-26T08:12:40Z</time></trkpt><trkpt lat="45.867676612667765" lon="9.946186834553595"><ele>932.4000000000001</ele><time>2026-04-26T08:12:42Z</time></trkpt><trkpt lat="45.8676825303388" lon="9.946041819214118"><ele>925.8000000000001</ele><time>2026-04-26T08:12:44Z</time></trkpt><trkpt lat="45.867683150892795" lon="9.945902441431736"><ele>919.1999999999999</ele><time>2026-04-26T08:12:46Z</time></trkpt><trkpt lat="45.86769197511801" lon="9.945758706526005"><ele>912.5999999999999</ele><time>2026-04-26T08:12:48Z</time></trkpt><trkpt lat="45.86769372524141" lon="9.945617025907625"><ele>906.0</ele><time>2026-04-26T08:12:50Z</time></trkpt><trkpt lat="45.86770353374337" lon="9.945472847832649"><ele>906.0</ele><time>2026-04-26T08:12:52Z</time></trkpt><trkpt lat="45.86766097835688" lon="9.945362677245347"><ele>905.9999999999999</ele><time>2026-04-26T08:12:54Z</time></trkpt><trkpt lat="45.867585683000534" lon="9.945425116897367"><ele>905.9999999999999</ele><time>2026-04-26T08:12:55.999Z</time></trkpt><trkpt lat="45.86758761778417" lon="9.94558131190915"><ele>906.0</ele><time>2026-04-26T08:12:57.999Z</time></trkpt><trkpt lat="45.867569470166806" lon="9.945726229586793"><ele>906.0</ele><time>2026-04-26T08:12:59.999Z</time></trkpt><trkpt lat="45.86752124038634" lon="9.945858244910067"><ele>914.0</ele><time>2026-04-26T08:13:01.999Z</time></trkpt><trkpt lat="45.86747591134192" lon="9.945989407291687"><ele>921.9999999999999</ele><time>2026-04-26T08:13:03.999Z</time></trkpt><trkpt lat="45.867423240753034" lon="9.946117326078992"><ele>929.9999999999999</ele><time>2026-04-26T08:13:05.999Z</time></trkpt><trkpt lat="45.86737404378291" lon="9.946253082634206"><ele>938.0</ele><time>2026-04-26T08:13:07.999Z</time></trkpt><trkpt lat="45.86731228269069" lon="9.946375145884357"><ele>946.0</ele><time>2026-04-26T08:13:09.999Z</time></trkpt><trkpt lat="45.867265828834036" lon="9.946497623432547"><ele>946.0</ele><time>2026-04-26T08:13:12Z</time></trkpt><trkpt lat="45.86722082372221" lon="9.946623807648878"><ele>945.9999999999999</ele><time>2026-04-26T08:13:14Z</time></trkpt><trkpt lat="45.86718079239667" lon="9.946743393920805"><ele>945.9999999999999</ele><time>2026-04-26T08:13:16Z</time></trkpt><trkpt lat="45.867132643274694" lon="9.946860587114811"><ele>946.0</ele><time>2026-04-26T08:13:18Z</time></trkpt><trkpt lat="45.86708072134838" lon="9.94698109927541"><ele>946.0</ele><time>2026-04-26T08:13:20Z</time></trkpt><trkpt lat="45.8670275290213" lon="9.947105518935158"><ele>944.5999999999999</ele><time>2026-04-26T08:13:22Z</time></trkpt><trkpt lat="45.8669822445865" lon="9.947226110883502"><ele>943.1999999999999</ele><time>2026-04-26T08:13:24Z</time></trkpt><trkpt lat="45.866940554753164" lon="9.947341323143846"><ele>941.8000000000001</ele><time>2026-04-26T08:13:26Z</time></trkpt><trkpt lat="45.86689656193189" lon="9.947462112322759"><ele>940.4000000000001</ele><time>2026-04-26T08:13:28Z</time></trkpt><trkpt lat="45.866848771533206" lon="9.947577612217897"><ele>939.0</ele><time>2026-04-26T08:13:30Z</time></trkpt><trkpt lat="45.86680494469896" lon="9.947683078428481"><ele>945.5</ele><time>2026-04-26T08:13:32Z</time></trkpt><trkpt lat="45.86677323515035" lon="9.947800302342655"><ele>952.0</ele><time>2026-04-26T08:13:34Z</time></trkpt><trkpt lat="45.86674777391976" lon="9.9479136562987"><ele>958.5</ele><time>2026-04-26T08:13:36Z</time></trkpt><trkpt lat="45.86673450924105" lon="9.948023430759154"><ele>965.0</ele><time>2026-04-26T08:13:38Z</time></trkpt><trkpt lat="45.8667211026118" lon="9.948136111591722"><ele>971.5</ele><time>2026-04-26T08:13:40Z</time></trkpt><trkpt lat="45.866640971680795" lon="9.948151756448896"><ele>978.0</ele><time>2026-04-26T08:13:42Z</time></trkpt><trkpt lat="45.866615246639554" lon="9.948012531110264"><ele>978.0</ele><time>2026-04-26T08:13:44Z</time></trkpt><trkpt lat="45.86663444204811" lon="9.947877463842737"><ele>978.0</ele><time>2026-04-26T08:13:46Z</time></trkpt><trkpt lat="45.86664975832053" lon="9.947742571385598"><ele>978.0</ele><time>2026-04-26T08:13:48Z</time></trkpt><trkpt lat="45.86664731162177" lon="9.947623660070478"><ele>978.0</ele><time>2026-04-26T08:13:50Z</time></trkpt><trkpt lat="45.86662447339806" lon="9.94749493327851"><ele>978.0</ele><time>2026-04-26T08:13:52Z</time></trkpt><trkpt lat="45.866605337807016" lon="9.94736269041263"><ele>978.6666666666666</ele><time>2026-04-26T08:13:54Z</time></trkpt><trkpt lat="45.86659830502865" lon="9.947230855884982"><ele>979.3333333333333</ele><time>2026-04-26T08:13:56Z</time></trkpt><trkpt lat="45.86661005469214" lon="9.947106040770285"><ele>980.0</ele><time>2026-04-26T08:13:58Z</time></trkpt><trkpt lat="45.866636673871774" lon="9.946992697758146"><ele>980.6666666666666</ele><time>2026-04-26T08:14:00Z</time></trkpt><trkpt lat="45.8666668113753" lon="9.946865518625021"><ele>981.3333333333333</ele><time>2026-04-26T08:14:02Z</time></trkpt><trkpt lat="45.86668746790647" lon="9.946771128609992"><ele>982.0</ele><time>2026-04-26T08:14:04Z</time></trkpt><trkpt lat="45.86668416066708" lon="9.94666006671879"><ele>982.6666666666666</ele><time>2026-04-26T08:14:06Z</time></trkpt><trkpt lat="45.866665966710926" lon="9.94653862696935"><ele>983.3333333333333</ele><time>2026-04-26T08:14:08Z</time></trkpt><trkpt lat="45.866664732658904" lon="9.946422312883495"><ele>984.0</ele><time>2026-04-26T08:14:10Z</time></trkpt><trkpt lat="45.86665297239409" lon="9.946311502299249"><ele>984.6666666666667</ele><time>2026-04-26T08:14:12Z</time></trkpt><trkpt lat="45.86665425438394" lon="9.94620121766117"><ele>985.3333333333334</ele><time>2026-04-26T08:14:14Z</time></trkpt><trkpt lat="45.86665189489933" lon="9.946086426706312"><ele>986.0</ele><time>2026-04-26T08:14:16Z</time></trkpt><trkpt lat="45.86663520857945" lon="9.945978401473115"><ele>986.0000000000001</ele><time>2026-04-26T08:14:18Z</time></trkpt><trkpt lat="45.866596195541106" lon="9.945881375276526"><ele>986.0</ele><time>2026-04-26T08:14:20Z</time></trkpt><trkpt lat="45.86653967868242" lon="9.945801834152016"><ele>986.0</ele><time>2026-04-26T08:14:22Z</time></trkpt><trkpt lat="45.86645833449078" lon="9.945747369542365"><ele>986.0</ele><time>2026-04-26T08:14:24Z</time></trkpt><trkpt lat="45.866386584964516" lon="9.945696792908446"><ele>986.0000000000001</ele><time>2026-04-26T08:14:26Z</time></trkpt><trkpt lat="45.86631484330939" lon="9.94565457800549"><ele>986.0</ele><time>2026-04-26T08:14:28Z</time></trkpt><trkpt lat="45.86623903076668" lon="9.945614315120583"><ele>985.1666666666667</ele><time>2026-04-26T08:14:30Z</time></trkpt><trkpt lat="45.86616685368728" lon="9.945562673325883"><ele>984.3333333333334</ele><time>2026-04-26T08:14:32Z</time></trkpt><trkpt lat="45.86609886624237" lon="9.94550806615964"><ele>983.5</ele><time>2026-04-26T08:14:34Z</time></trkpt><trkpt lat="45.86603491091524" lon="9.94544591327002"><ele>982.6666666666667</ele><time>2026-04-26T08:14:36Z</time></trkpt><trkpt lat="45.86596719802347" lon="9.945380981113518"><ele>981.8333333333334</ele><time>2026-04-26T08:14:38Z</time></trkpt><trkpt lat="45.8658985179824" lon="9.945330726840432"><ele>981.0</ele><time>2026-04-26T08:14:40Z</time></trkpt><trkpt lat="45.86582786549155" lon="9.945295014110519"><ele>983.0</ele><time>2026-04-26T08:14:42Z</time></trkpt><trkpt lat="45.8657554622195" lon="9.94526595392954"><ele>985.0</ele><time>2026-04-26T08:14:44Z</time></trkpt><trkpt lat="45.865680156187594" lon="9.945231039688617"><ele>987.0</ele><time>2026-04-26T08:14:46Z</time></trkpt><trkpt lat="45.86560463641423" lon="9.94518909608567"><ele>989.0</ele><time>2026-04-26T08:14:48Z</time></trkpt><trkpt lat="45.865539113683894" lon="9.945131238561899"><ele>991.0</ele><time>2026-04-26T08:14:50Z</time></trkpt><trkpt lat="45.86548077535527" lon="9.94506304675207"><ele>993.0</ele><time>2026-04-26T08:14:52Z</time></trkpt><trkpt lat="45.86542519838441" lon="9.944988620043638"><ele>993.0</ele><time>2026-04-26T08:14:54Z</time></trkpt><trkpt lat="45.86537408809112" lon="9.94491856327103"><ele>993.0</ele><time>2026-04-26T08:14:56Z</time></trkpt><trkpt lat="45.86531688026135" lon="9.944858063445153"><ele>993.0</ele><time>2026-04-26T08:14:58Z</time></trkpt><trkpt lat="45.86526943742091" lon="9.94492195239357"><ele>993.0</ele><time>2026-04-26T08:15:00Z</time></trkpt><trkpt lat="45.865320841861816" lon="9.945034515580778"><ele>993.0</ele><time>2026-04-26T08:15:02Z</time></trkpt><trkpt lat="45.865385983457394" lon="9.945099329813317"><ele>993.0</ele><time>2026-04-26T08:15:04Z</time></trkpt><trkpt lat="45.86542881705813" lon="9.945179586821459"><ele>996.7142857142857</ele><time>2026-04-26T08:15:06Z</time></trkpt><trkpt lat="45.86546855312857" lon="9.945257259444837"><ele>1000.4285714285716</ele><time>2026-04-26T08:15:08Z</time></trkpt><trkpt lat="45.86550706323346" lon="9.945329677809132"><ele>1004.1428571428572</ele><time>2026-04-26T08:15:10Z</time></trkpt><trkpt lat="45.86555337467167" lon="9.94539890692863"><ele>1007.8571428571429</ele><time>2026-04-26T08:15:12Z</time></trkpt><trkpt lat="45.86560192863379" lon="9.945460909741824"><ele>1011.5714285714287</ele><time>2026-04-26T08:15:14Z</time></trkpt><trkpt lat="45.865650207239206" lon="9.94553342294256"><ele>1015.2857142857144</ele><time>2026-04-26T08:15:15.999Z</time></trkpt><trkpt lat="45.86570615114323" lon="9.945587340483955"><ele>1019.0000000000001</ele><time>2026-04-26T08:15:18Z</time></trkpt><trkpt lat="45.86575329053494" lon="9.945655095276695"><ele>1019.0000000000001</ele><time>2026-04-26T08:15:20Z</time></trkpt><trkpt lat="45.86578704742847" lon="9.945738446950207"><ele>1019.0</ele><time>2026-04-26T08:15:22Z</time></trkpt><trkpt lat="45.8658039406244" lon="9.945827928082705"><ele>1019.0000000000001</ele><time>2026-04-26T08:15:24Z</time></trkpt><trkpt lat="45.86578838717117" lon="9.9459228317387"><ele>1019.0000000000001</ele><time>2026-04-26T08:15:26Z</time></trkpt><trkpt lat="45.86574805903465" lon="9.946014092421871"><ele>1019.0</ele><time>2026-04-26T08:15:28Z</time></trkpt><trkpt lat="45.8657059896586" lon="9.946093850139171"><ele>1019.0000000000001</ele><time>2026-04-26T08:15:30Z</time></trkpt><trkpt lat="45.86566785819983" lon="9.94617893520199"><ele>1019.0000000000001</ele><time>2026-04-26T08:15:32Z</time></trkpt><trkpt lat="45.86562932145265" lon="9.946259341780605"><ele>1019.0000000000001</ele><time>2026-04-26T08:15:34Z</time></trkpt><trkpt lat="45.86558993323739" lon="9.94634161584579"><ele>1019.0</ele><time>2026-04-26T08:15:36Z</time></trkpt><trkpt lat="45.8655416867791" lon="9.946417269395864"><ele>1019.0000000000001</ele><time>2026-04-26T08:15:38Z</time></trkpt><trkpt lat="45.86550112572504" lon="9.946488837248797"><ele>1019.0000000000001</ele><time>2026-04-26T08:15:40Z</time></trkpt><trkpt lat="45.86543439801972" lon="9.946583368671176"><ele>1019.0</ele><time>2026-04-26T08:15:43Z</time></trkpt><trkpt lat="45.86538770404701" lon="9.946650512752903"><ele>1019.0000000000001</ele><time>2026-04-26T08:15:45Z</time></trkpt><trkpt lat="45.865335409253994" lon="9.946712810796962"><ele>1019.0000000000001</ele><time>2026-04-26T08:15:47Z</time></trkpt><trkpt lat="45.865278242477366" lon="9.946775003266863"><ele>1019.0000000000001</ele><time>2026-04-26T08:15:49Z</time></trkpt><trkpt lat="45.86522054205002" lon="9.94685740834681"><ele>1019.0</ele><time>2026-04-26T08:15:52Z</time></trkpt><trkpt lat="45.865156653935394" lon="9.946943057536982"><ele>1019.0</ele><time>2026-04-26T08:15:56Z</time></trkpt><trkpt lat="45.86512450894381" lon="9.947025570067511"><ele>1019.0</ele><time>2026-04-26T08:15:59Z</time></trkpt><trkpt lat="45.86510289434074" lon="9.947117636214811"><ele>1019.0000000000001</ele><time>2026-04-26T08:16:02Z</time></trkpt><trkpt lat="45.86508158172734" lon="9.947233269995193"><ele>1019.0</ele><time>2026-04-26T08:16:05Z</time></trkpt><trkpt lat="45.86508231290941" lon="9.947327996215476"><ele>1023.8333333333334</ele><time>2026-04-26T08:16:07Z</time></trkpt><trkpt lat="45.86505495593712" lon="9.947455173014884"><ele>1028.6666666666667</ele><time>2026-04-26T08:16:10Z</time></trkpt><trkpt lat="45.86501708414907" lon="9.947574270582491"><ele>1033.5</ele><time>2026-04-26T08:16:13Z</time></trkpt><trkpt lat="45.864983963261416" lon="9.947657552916608"><ele>1038.3333333333333</ele><time>2026-04-26T08:16:15Z</time></trkpt><trkpt lat="45.86495953248909" lon="9.947771933186498"><ele>1043.1666666666665</ele><time>2026-04-26T08:16:17Z</time></trkpt><trkpt lat="45.86495866271949" lon="9.94791602520652"><ele>1048.0</ele><time>2026-04-26T08:16:19Z</time></trkpt><trkpt lat="45.86496561454782" lon="9.94802226311393"><ele>1048.1666666666665</ele><time>2026-04-26T08:16:20Z</time></trkpt><trkpt lat="45.86499684338278" lon="9.948119096651919"><ele>1048.3333333333333</ele><time>2026-04-26T08:16:21Z</time></trkpt><trkpt lat="45.86504970138671" lon="9.948222616221164"><ele>1048.5</ele><time>2026-04-26T08:16:22Z</time></trkpt><trkpt lat="45.8651191015049" lon="9.948300582808693"><ele>1048.6666666666667</ele><time>2026-04-26T08:16:23Z</time></trkpt><trkpt lat="45.86519281814594" lon="9.948418196823477"><ele>1048.8333333333335</ele><time>2026-04-26T08:16:25Z</time></trkpt><trkpt lat="45.8652322983093" lon="9.948495808827436"><ele>1049.0</ele><time>2026-04-26T08:16:26Z</time></trkpt><trkpt lat="45.86528305357211" lon="9.948572486756671"><ele>1044.3333333333335</ele><time>2026-04-26T08:16:26.999Z</time></trkpt><trkpt lat="45.86532163621308" lon="9.94867158891307"><ele>1039.6666666666667</ele><time>2026-04-26T08:16:27.999Z</time></trkpt><trkpt lat="45.86535452530099" lon="9.948788989627712"><ele>1035.0</ele><time>2026-04-26T08:16:28.999Z</time></trkpt><trkpt lat="45.86537916009079" lon="9.948905569653462"><ele>1030.3333333333333</ele><time>2026-04-26T08:16:29.999Z</time></trkpt><trkpt lat="45.865407126931686" lon="9.949035613513935"><ele>1025.6666666666665</ele><time>2026-04-26T08:16:30.999Z</time></trkpt><trkpt lat="45.86542209259185" lon="9.949133085069198"><ele>1021.0</ele><time>2026-04-26T08:16:31.999Z</time></trkpt><trkpt lat="45.86543452754144" lon="9.949248016312396"><ele>1019.3333333333333</ele><time>2026-04-26T08:16:32.999Z</time></trkpt><trkpt lat="45.86545184434095" lon="9.949342497596554"><ele>1017.6666666666666</ele><time>2026-04-26T08:16:33.999Z</time></trkpt><trkpt lat="45.865437481110504" lon="9.949461700993908"><ele>1016.0</ele><time>2026-04-26T08:16:34.999Z</time></trkpt><trkpt lat="45.86540731426388" lon="9.949586856745137"><ele>1014.3333333333333</ele><time>2026-04-26T08:16:35.999Z</time></trkpt><trkpt lat="45.865368116885655" lon="9.949709460083131"><ele>1012.6666666666666</ele><time>2026-04-26T08:16:36.999Z</time></trkpt><trkpt lat="45.86533819593995" lon="9.949821739323433"><ele>1011.0</ele><time>2026-04-26T08:16:37.999Z</time></trkpt><trkpt lat="45.86531787540279" lon="9.94993336276424"><ele>1013.1999999999999</ele><time>2026-04-26T08:16:38.999Z</time></trkpt><trkpt lat="45.865264638655546" lon="9.950056973426458"><ele>1015.3999999999999</ele><time>2026-04-26T08:16:40.999Z</time></trkpt><trkpt lat="45.86527740108994" lon="9.950154687753772"><ele>1017.6</ele><time>2026-04-26T08:16:43.999Z</time></trkpt><trkpt lat="45.86521995489823" lon="9.950208952077045"><ele>1019.8</ele><time>2026-04-26T08:16:47.999Z</time></trkpt><trkpt lat="45.865135826957996" lon="9.950302511335172"><ele>1022.0</ele><time>2026-04-26T08:16:49.999Z</time></trkpt><trkpt lat="45.86509501122323" lon="9.950448644689846"><ele>1022.0</ele><time>2026-04-26T08:16:51.999Z</time></trkpt><trkpt lat="45.86505527447187" lon="9.950608538765742"><ele>1022.0</ele><time>2026-04-26T08:16:53.999Z</time></trkpt><trkpt lat="45.865029735239" lon="9.950695155996995"><ele>1022.0</ele><time>2026-04-26T08:16:54.999Z</time></trkpt><trkpt lat="45.86498341561558" lon="9.950852711546865"><ele>1022.0</ele><time>2026-04-26T08:16:56.999Z</time></trkpt><trkpt lat="45.86492668698595" lon="9.950988219789803"><ele>1022.0</ele><time>2026-04-26T08:16:58.999Z</time></trkpt><trkpt lat="45.86489553557996" lon="9.95107249265044"><ele>1020.8</ele><time>2026-04-26T08:16:59.999Z</time></trkpt><trkpt lat="45.86482637271572" lon="9.951186713080372"><ele>1019.6</ele><time>2026-04-26T08:17:01.999Z</time></trkpt><trkpt lat="45.86475867241736" lon="9.951295964527402"><ele>1018.3999999999999</ele><time>2026-04-26T08:17:03.999Z</time></trkpt><trkpt lat="45.86468491531173" lon="9.951400831110625"><ele>1017.1999999999999</ele><time>2026-04-26T08:17:05.999Z</time></trkpt><trkpt lat="45.86462298051035" lon="9.95150059710402"><ele>1016.0</ele><time>2026-04-26T08:17:07.999Z</time></trkpt><trkpt lat="45.864582625995695" lon="9.951607424080306"><ele>1016.0</ele><time>2026-04-26T08:17:09.999Z</time></trkpt><trkpt lat="45.86454113157659" lon="9.95169518693854"><ele>1016.0</ele><time>2026-04-26T08:17:11.999Z</time></trkpt><trkpt lat="45.864496771665095" lon="9.951774847327677"><ele>1016.0</ele><time>2026-04-26T08:17:13.999Z</time></trkpt><trkpt lat="45.864453921343824" lon="9.951841331317786"><ele>1016.0</ele><time>2026-04-26T08:17:15.999Z</time></trkpt><trkpt lat="45.86441305532714" lon="9.951920388700254"><ele>1016.0</ele><time>2026-04-26T08:17:17.999Z</time></trkpt><trkpt lat="45.864375493662095" lon="9.952017053494762"><ele>1016.0</ele><time>2026-04-26T08:17:19.999Z</time></trkpt><trkpt lat="45.86432568403258" lon="9.952096806355874"><ele>1016.0</ele><time>2026-04-26T08:17:21.999Z</time></trkpt><trkpt lat="45.86427480487733" lon="9.952211246841019"><ele>1016.3333333333334</ele><time>2026-04-26T08:17:24Z</time></trkpt><trkpt lat="45.86423251138233" lon="9.952332838984276"><ele>1016.6666666666667</ele><time>2026-04-26T08:17:26Z</time></trkpt><trkpt lat="45.864192829535845" lon="9.952442012252243"><ele>1017.0</ele><time>2026-04-26T08:17:28Z</time></trkpt><trkpt lat="45.8641454553058" lon="9.952517227975344"><ele>1017.3333333333333</ele><time>2026-04-26T08:17:30Z</time></trkpt><trkpt lat="45.864093595531635" lon="9.9526035221364"><ele>1017.6666666666666</ele><time>2026-04-26T08:17:33Z</time></trkpt><trkpt lat="45.86406149367966" lon="9.952691935703749"><ele>1018.0</ele><time>2026-04-26T08:17:35Z</time></trkpt><trkpt lat="45.864061941417624" lon="9.952800651519071"><ele>1017.9999999999999</ele><time>2026-04-26T08:17:37Z</time></trkpt><trkpt lat="45.86405913416108" lon="9.952920718401506"><ele>1018.0</ele><time>2026-04-26T08:17:40Z</time></trkpt><trkpt lat="45.86404642535025" lon="9.953042488377402"><ele>1017.9999999999999</ele><time>2026-04-26T08:17:43Z</time></trkpt><trkpt lat="45.86408442017763" lon="9.953125875369581"><ele>1017.9999999999999</ele><time>2026-04-26T08:17:46Z</time></trkpt><trkpt lat="45.86402086327869" lon="9.953118242405905"><ele>1018.0</ele><time>2026-04-26T08:18:24Z</time></trkpt><trkpt lat="45.86408946623753" lon="9.953096714340258"><ele>1017.9999999999999</ele><time>2026-04-26T08:18:44Z</time></trkpt><trkpt lat="45.86402735733571" lon="9.95311319460291"><ele>1017.9999999999999</ele><time>2026-04-26T08:19:55Z</time></trkpt><trkpt lat="45.864075605497206" lon="9.95318583691139"><ele>1017.9999999999999</ele><time>2026-04-26T08:20:32Z</time></trkpt><trkpt lat="45.86402531249355" lon="9.953283583204158"><ele>1018.0</ele><time>2026-04-26T08:20:35Z</time></trkpt><trkpt lat="45.86399330192934" lon="9.953364048038512"><ele>1017.9999999999999</ele><time>2026-04-26T08:20:38Z</time></trkpt><trkpt lat="45.86394594751557" lon="9.95345458598795"><ele>1017.9999999999999</ele><time>2026-04-26T08:20:42Z</time></trkpt><trkpt lat="45.86391406692792" lon="9.953538363196904"><ele>1018.0</ele><time>2026-04-26T08:20:45Z</time></trkpt><trkpt lat="45.86387277519488" lon="9.953607895951745"><ele>1017.9999999999999</ele><time>2026-04-26T08:20:49Z</time></trkpt><trkpt lat="45.86382906024041" lon="9.953689718129745"><ele>1017.9999999999999</ele><time>2026-04-26T08:20:54Z</time></trkpt><trkpt lat="45.86375252952351" lon="9.95365186026443"><ele>1016.142857142857</ele><time>2026-04-26T08:20:57Z</time></trkpt><trkpt lat="45.86368570747609" lon="9.953688841437884"><ele>1014.2857142857142</ele><time>2026-04-26T08:21:01Z</time></trkpt><trkpt lat="45.863709229967554" lon="9.953777519274894"><ele>1012.4285714285714</ele><time>2026-04-26T08:21:04Z</time></trkpt><trkpt lat="45.86365261523092" lon="9.953844509075715"><ele>1010.5714285714286</ele><time>2026-04-26T08:21:08Z</time></trkpt><trkpt lat="45.86358220068415" lon="9.953798403769625"><ele>1008.7142857142858</ele><time>2026-04-26T08:21:11Z</time></trkpt><trkpt lat="45.86353923049025" lon="9.953718278015947"><ele>1006.857142857143</ele><time>2026-04-26T08:21:15Z</time></trkpt><trkpt lat="45.86346879117451" lon="9.953714632454238"><ele>1005.0000000000001</ele><time>2026-04-26T08:22:14Z</time></trkpt><trkpt lat="45.86340229850188" lon="9.953716735105715"><ele>1005.0</ele><time>2026-04-26T08:24:05Z</time></trkpt><trkpt lat="45.863363757131076" lon="9.953800831049387"><ele>1005.0</ele><time>2026-04-26T08:24:07Z</time></trkpt><trkpt lat="45.86337287012583" lon="9.953906758131685"><ele>1005.0</ele><time>2026-04-26T08:24:10Z</time></trkpt><trkpt lat="45.863387913047504" lon="9.953793056046035"><ele>1005.0</ele><time>2026-04-26T08:24:16Z</time></trkpt><trkpt lat="45.86342715317807" lon="9.953692316636689"><ele>1005.0</ele><time>2026-04-26T08:24:19Z</time></trkpt><trkpt lat="45.86349766812095" lon="9.95368063695761"><ele>1005.0</ele><time>2026-04-26T08:24:22Z</time></trkpt><trkpt lat="45.86356114419109" lon="9.953747260619988"><ele>1005.0000000000001</ele><time>2026-04-26T08:24:25Z</time></trkpt><trkpt lat="45.86361507726122" lon="9.953828787797487"><ele>1005.0</ele><time>2026-04-26T08:24:28Z</time></trkpt><trkpt lat="45.86370211968589" lon="9.953815080765228"><ele>1005.0000000000001</ele><time>2026-04-26T08:24:31Z</time></trkpt><trkpt lat="45.86374615531272" lon="9.953738589655824"><ele>1005.0000000000001</ele><time>2026-04-26T08:24:34Z</time></trkpt><trkpt lat="45.86368514986131" lon="9.953682514844457"><ele>1005.0</ele><time>2026-04-26T08:25:56Z</time></trkpt><trkpt lat="45.863661287813684" lon="9.95378013556862"><ele>1005.0000000000001</ele><time>2026-04-26T08:26:00Z</time></trkpt><trkpt lat="45.8636066996214" lon="9.953827929563957"><ele>1005.0000000000001</ele><time>2026-04-26T08:26:03Z</time></trkpt><trkpt lat="45.86355501648989" lon="9.953774251249941"><ele>1005.0</ele><time>2026-04-26T08:26:05Z</time></trkpt><trkpt lat="45.86355741173012" lon="9.953647063110981"><ele>1005.0</ele><time>2026-04-26T08:26:08Z</time></trkpt><trkpt lat="45.86360611165984" lon="9.953588570586293"><ele>1005.0</ele><time>2026-04-26T08:26:10Z</time></trkpt><trkpt lat="45.86366564487871" lon="9.95349504564217"><ele>1005.0</ele><time>2026-04-26T08:26:13Z</time></trkpt><trkpt lat="45.86371088383599" lon="9.953389388855314"><ele>1005.0</ele><time>2026-04-26T08:26:16Z</time></trkpt><trkpt lat="45.863742119154026" lon="9.953281783535502"><ele>1005.0</ele><time>2026-04-26T08:26:19Z</time></trkpt><trkpt lat="45.86377100922489" lon="9.953181546289205"><ele>1006.857142857143</ele><time>2026-04-26T08:26:22Z</time></trkpt><trkpt lat="45.86380148242239" lon="9.953082600255103"><ele>1008.7142857142858</ele><time>2026-04-26T08:26:25Z</time></trkpt><trkpt lat="45.863837124454236" lon="9.952975148324786"><ele>1010.5714285714286</ele><time>2026-04-26T08:26:28Z</time></trkpt><trkpt lat="45.86385664762053" lon="9.952867078524156"><ele>1012.4285714285714</ele><time>2026-04-26T08:26:31Z</time></trkpt><trkpt lat="45.86388770684674" lon="9.95278081862758"><ele>1014.2857142857142</ele><time>2026-04-26T08:26:33Z</time></trkpt><trkpt lat="45.86392659289693" lon="9.952703425520268"><ele>1016.142857142857</ele><time>2026-04-26T08:26:35Z</time></trkpt><trkpt lat="45.86397842790838" lon="9.952627169023318"><ele>1017.9999999999999</ele><time>2026-04-26T08:26:38Z</time></trkpt><trkpt lat="45.864041707584185" lon="9.95254417862289"><ele>1020.1666666666666</ele><time>2026-04-26T08:26:41Z</time></trkpt><trkpt lat="45.864089271349776" lon="9.952475835252626"><ele>1022.3333333333333</ele><time>2026-04-26T08:26:43Z</time></trkpt><trkpt lat="45.864139853820966" lon="9.95239488093538"><ele>1024.5</ele><time>2026-04-26T08:26:45Z</time></trkpt><trkpt lat="45.86418992361128" lon="9.952280192729015"><ele>1026.6666666666667</ele><time>2026-04-26T08:26:47Z</time></trkpt><trkpt lat="45.8642553588935" lon="9.952146788962665"><ele>1028.8333333333335</ele><time>2026-04-26T08:26:49Z</time></trkpt><trkpt lat="45.864305153868905" lon="9.9520833252183"><ele>1031.0</ele><time>2026-04-26T08:26:50Z</time></trkpt><trkpt lat="45.86435610615779" lon="9.952013735084144"><ele>1028.0</ele><time>2026-04-26T08:26:51Z</time></trkpt><trkpt lat="45.86443023853909" lon="9.951905760760848"><ele>1025.0</ele><time>2026-04-26T08:26:53Z</time></trkpt><trkpt lat="45.864488212245156" lon="9.951777581035115"><ele>1021.9999999999999</ele><time>2026-04-26T08:26:55Z</time></trkpt><trkpt lat="45.86454569594495" lon="9.95166127934309"><ele>1019.0</ele><time>2026-04-26T08:26:57Z</time></trkpt><trkpt lat="45.86460600973619" lon="9.951532359909674"><ele>1016.0</ele><time>2026-04-26T08:26:59Z</time></trkpt><trkpt lat="45.86467041886466" lon="9.951418081619503"><ele>1016.0</ele><time>2026-04-26T08:27:01Z</time></trkpt><trkpt lat="45.86473611062273" lon="9.951316968977931"><ele>1015.9999999999999</ele><time>2026-04-26T08:27:03Z</time></trkpt><trkpt lat="45.864799606544416" lon="9.95123090445005"><ele>1015.9999999999999</ele><time>2026-04-26T08:27:05Z</time></trkpt><trkpt lat="45.86484938116773" lon="9.951143111101281"><ele>1016.0</ele><time>2026-04-26T08:27:07Z</time></trkpt><trkpt lat="45.86491425088731" lon="9.951035869515403"><ele>1016.0</ele><time>2026-04-26T08:27:09Z</time></trkpt><trkpt lat="45.864974945569394" lon="9.950898722637762"><ele>1017.0000000000001</ele><time>2026-04-26T08:27:11Z</time></trkpt><trkpt lat="45.86502148583692" lon="9.950772575756755"><ele>1018.0</ele><time>2026-04-26T08:27:13Z</time></trkpt><trkpt lat="45.86504748908336" lon="9.950672559004293"><ele>1019.0</ele><time>2026-04-26T08:27:15Z</time></trkpt><trkpt lat="45.86506190283301" lon="9.950567751865394"><ele>1020.0</ele><time>2026-04-26T08:27:17Z</time></trkpt><trkpt lat="45.86509522332382" lon="9.950479126209572"><ele>1021.0000000000001</ele><time>2026-04-26T08:27:19Z</time></trkpt><trkpt lat="45.86513004208291" lon="9.950358166111117"><ele>1022.0</ele><time>2026-04-26T08:27:22Z</time></trkpt><trkpt lat="45.865162305471166" lon="9.950278574547017"><ele>1020.4285714285714</ele><time>2026-04-26T08:27:24Z</time></trkpt><trkpt lat="45.865215038759395" lon="9.950216506413714"><ele>1018.8571428571429</ele><time>2026-04-26T08:27:26Z</time></trkpt><trkpt lat="45.86527645792592" lon="9.950185243071125"><ele>1017.2857142857142</ele><time>2026-04-26T08:27:29Z</time></trkpt><trkpt lat="45.865266343398375" lon="9.95007002219689"><ele>1015.7142857142857</ele><time>2026-04-26T08:27:33Z</time></trkpt><trkpt lat="45.86531239793629" lon="9.949961867497553"><ele>1014.1428571428571</ele><time>2026-04-26T08:27:36Z</time></trkpt><trkpt lat="45.865343167140125" lon="9.94987837574234"><ele>1012.5714285714284</ele><time>2026-04-26T08:27:38Z</time></trkpt><trkpt lat="45.865376227555906" lon="9.949780876356334"><ele>1010.9999999999999</ele><time>2026-04-26T08:27:40Z</time></trkpt><trkpt lat="45.86541023935532" lon="9.949681863589214"><ele>1010.9999999999999</ele><time>2026-04-26T08:27:42Z</time></trkpt><trkpt lat="45.865443204342306" lon="9.949591994419976"><ele>1011.0</ele><time>2026-04-26T08:27:44Z</time></trkpt><trkpt lat="45.865465085523844" lon="9.949501575544724"><ele>1010.9999999999999</ele><time>2026-04-26T08:27:46Z</time></trkpt><trkpt lat="45.865473151406334" lon="9.94940931667777"><ele>1010.9999999999999</ele><time>2026-04-26T08:27:48Z</time></trkpt><trkpt lat="45.865466825638784" lon="9.949312134843288"><ele>1011.0</ele><time>2026-04-26T08:27:50Z</time></trkpt><trkpt lat="45.86543932662723" lon="9.949223345630134"><ele>1010.9999999999999</ele><time>2026-04-26T08:27:52Z</time></trkpt><trkpt lat="45.865416240672076" lon="9.949135932249698"><ele>1010.9999999999999</ele><time>2026-04-26T08:27:54Z</time></trkpt><trkpt lat="45.86539517405615" lon="9.949047771941002"><ele>1012.6666666666666</ele><time>2026-04-26T08:27:56Z</time></trkpt><trkpt lat="45.86537842599688" lon="9.94895911732912"><ele>1014.3333333333333</ele><time>2026-04-26T08:27:58Z</time></trkpt><trkpt lat="45.86535503259017" lon="9.94883944465028"><ele>1016.0</ele><time>2026-04-26T08:28:01Z</time></trkpt><trkpt lat="45.86532729513475" lon="9.948710161812022"><ele>1017.6666666666666</ele><time>2026-04-26T08:28:04Z</time></trkpt><trkpt lat="45.86530161488476" lon="9.94862408768467"><ele>1019.3333333333333</ele><time>2026-04-26T08:28:06Z</time></trkpt><trkpt lat="45.86525767706381" lon="9.948540790270354"><ele>1021.0</ele><time>2026-04-26T08:28:08Z</time></trkpt><trkpt lat="45.86520918053604" lon="9.948468026212826"><ele>1021.0</ele><time>2026-04-26T08:28:10Z</time></trkpt><trkpt lat="45.86516354898161" lon="9.948399245932228"><ele>1021.0</ele><time>2026-04-26T08:28:12Z</time></trkpt><trkpt lat="45.86512614211859" lon="9.948324566956092"><ele>1021.0</ele><time>2026-04-26T08:28:14Z</time></trkpt><trkpt lat="45.86508541924191" lon="9.94825467118299"><ele>1021.0</ele><time>2026-04-26T08:28:16Z</time></trkpt><trkpt lat="45.86503863416779" lon="9.948188955382246"><ele>1021.0</ele><time>2026-04-26T08:28:18Z</time></trkpt><trkpt lat="45.86499898814525" lon="9.948109882893853"><ele>1021.0</ele><time>2026-04-26T08:28:20Z</time></trkpt><trkpt lat="45.86496812599253" lon="9.948024827100884"><ele>1021.0</ele><time>2026-04-26T08:28:22Z</time></trkpt><trkpt lat="45.86495611912413" lon="9.947923037881718"><ele>1020.7142857142857</ele><time>2026-04-26T08:28:25Z</time></trkpt><trkpt lat="45.864962733059315" lon="9.947806363459492"><ele>1020.4285714285716</ele><time>2026-04-26T08:28:28Z</time></trkpt><trkpt lat="45.86499852721166" lon="9.947731536562454"><ele>1020.1428571428572</ele><time>2026-04-26T08:28:31Z</time></trkpt><trkpt lat="45.86502016521883" lon="9.947644179000866"><ele>1019.8571428571429</ele><time>2026-04-26T08:28:34Z</time></trkpt><trkpt lat="45.865052417489714" lon="9.947554031252068"><ele>1019.5714285714287</ele><time>2026-04-26T08:28:37Z</time></trkpt><trkpt lat="45.86508040743561" lon="9.947451471353547"><ele>1019.2857142857144</ele><time>2026-04-26T08:28:41Z</time></trkpt><trkpt lat="45.86511799985551" lon="9.947351188126966"><ele>1019.0000000000001</ele><time>2026-04-26T08:29:02Z</time></trkpt><trkpt lat="45.86507600471396" lon="9.947424239397842"><ele>1023.8333333333334</ele><time>2026-04-26T08:29:10Z</time></trkpt><trkpt lat="45.86504453391245" lon="9.94751118497511"><ele>1028.6666666666667</ele><time>2026-04-26T08:29:13Z</time></trkpt><trkpt lat="45.8650036635583" lon="9.947612730890064"><ele>1033.5</ele><time>2026-04-26T08:29:17Z</time></trkpt><trkpt lat="45.86506621799244" lon="9.947544435812059"><ele>1038.3333333333333</ele><time>2026-04-26T08:32:43Z</time></trkpt><trkpt lat="45.865090677032505" lon="9.94743288818374"><ele>1043.1666666666665</ele><time>2026-04-26T08:32:46Z</time></trkpt><trkpt lat="45.865101789753275" lon="9.947320555774365"><ele>1048.0</ele><time>2026-04-26T08:32:49Z</time></trkpt><trkpt lat="45.865106048946316" lon="9.947212441697463"><ele>1048.0</ele><time>2026-04-26T08:32:52Z</time></trkpt><trkpt lat="45.865123365279494" lon="9.947103129911328"><ele>1048.0</ele><time>2026-04-26T08:32:56Z</time></trkpt><trkpt lat="45.86511214418188" lon="9.947005149698319"><ele>1048.0</ele><time>2026-04-26T08:33:21Z</time></trkpt><trkpt lat="45.86518031036789" lon="9.946934316438409"><ele>1048.0</ele><time>2026-04-26T08:33:24Z</time></trkpt><trkpt lat="45.86525305034784" lon="9.94685298773566"><ele>1048.0</ele><time>2026-04-26T08:33:26Z</time></trkpt><trkpt lat="45.865343657740134" lon="9.946729709547979"><ele>1048.0</ele><time>2026-04-26T08:33:28Z</time></trkpt><trkpt lat="45.86541935471196" lon="9.946626066554218"><ele>1043.8333333333333</ele><time>2026-04-26T08:33:30Z</time></trkpt><trkpt lat="45.86545756115266" lon="9.946552944306292"><ele>1039.6666666666665</ele><time>2026-04-26T08:33:31Z</time></trkpt><trkpt lat="45.86550819399614" lon="9.94646819007458"><ele>1035.5</ele><time>2026-04-26T08:33:32Z</time></trkpt><trkpt lat="45.865565482799376" lon="9.946383787590818"><ele>1031.3333333333333</ele><time>2026-04-26T08:33:33Z</time></trkpt><trkpt lat="45.865622639056475" lon="9.9462993077653"><ele>1027.1666666666667</ele><time>2026-04-26T08:33:34Z</time></trkpt><trkpt lat="45.86567153383386" lon="9.946201824307437"><ele>1023.0</ele><time>2026-04-26T08:33:35Z</time></trkpt><trkpt lat="45.86571117269951" lon="9.946122998844267"><ele>1023.0</ele><time>2026-04-26T08:33:36Z</time></trkpt><trkpt lat="45.8657658105865" lon="9.94601721431767"><ele>1023.0</ele><time>2026-04-26T08:33:38Z</time></trkpt><trkpt lat="45.86581417191123" lon="9.945951392549864"><ele>1023.0</ele><time>2026-04-26T08:33:41Z</time></trkpt><trkpt lat="45.865828100247114" lon="9.945848477697304"><ele>1023.0</ele><time>2026-04-26T08:34:08Z</time></trkpt><trkpt lat="45.86582473703116" lon="9.945757331961232"><ele>1023.0</ele><time>2026-04-26T08:34:10Z</time></trkpt><trkpt lat="45.86579528673442" lon="9.945672118223786"><ele>1023.0</ele><time>2026-04-26T08:34:12Z</time></trkpt><trkpt lat="45.86574895530464" lon="9.945591866695613"><ele>1023.0</ele><time>2026-04-26T08:34:14Z</time></trkpt><trkpt lat="45.865670324928836" lon="9.945519321808737"><ele>1022.2</ele><time>2026-04-26T08:34:16Z</time></trkpt><trkpt lat="45.8655737575278" lon="9.945403140058643"><ele>1021.4</ele><time>2026-04-26T08:34:18Z</time></trkpt><trkpt lat="45.86549823214831" lon="9.9452802720782"><ele>1020.6000000000001</ele><time>2026-04-26T08:34:20Z</time></trkpt><trkpt lat="45.865450114222845" lon="9.945204975795631"><ele>1019.8000000000001</ele><time>2026-04-26T08:34:22Z</time></trkpt><trkpt lat="45.865391706921" lon="9.945108042037281"><ele>1019.0</ele><time>2026-04-26T08:34:24Z</time></trkpt><trkpt lat="45.86530723408071" lon="9.944994033986962"><ele>1019.0000000000001</ele><time>2026-04-26T08:34:26Z</time></trkpt><trkpt lat="45.8652984662385" lon="9.944900651183934"><ele>1019.0</ele><time>2026-04-26T08:34:28Z</time></trkpt><trkpt lat="45.865382784131306" lon="9.944909417095364"><ele>1019.0</ele><time>2026-04-26T08:34:30Z</time></trkpt><trkpt lat="45.865422482004085" lon="9.944982789545083"><ele>1019.0</ele><time>2026-04-26T08:34:31Z</time></trkpt><trkpt lat="45.86550681933474" lon="9.945122924111187"><ele>1019.0000000000001</ele><time>2026-04-26T08:34:33Z</time></trkpt><trkpt lat="45.86556987068433" lon="9.945189373505315"><ele>1019.0</ele><time>2026-04-26T08:34:34Z</time></trkpt><trkpt lat="45.86564125670903" lon="9.945250801249076"><ele>1019.0</ele><time>2026-04-26T08:34:35Z</time></trkpt><trkpt lat="45.86572164645784" lon="9.945290418942811"><ele>1019.0000000000001</ele><time>2026-04-26T08:34:36Z</time></trkpt><trkpt lat="45.86579388085866" lon="9.945313022487367"><ele>1019.0000000000001</ele><time>2026-04-26T08:34:37Z</time></trkpt><trkpt lat="45.86592108865651" lon="9.945363464081092"><ele>1019.0</ele><time>2026-04-26T08:34:39Z</time></trkpt><trkpt lat="45.865995976218485" lon="9.945435682193507"><ele>1019.0</ele><time>2026-04-26T08:34:40Z</time></trkpt><trkpt lat="45.86607945570005" lon="9.945514473582117"><ele>1013.5000000000001</ele><time>2026-04-26T08:34:41Z</time></trkpt><trkpt lat="45.86616694995816" lon="9.945588091053652"><ele>1008.0</ele><time>2026-04-26T08:34:42Z</time></trkpt><trkpt lat="45.866252979651506" lon="9.945654974567253"><ele>1002.5</ele><time>2026-04-26T08:34:43Z</time></trkpt><trkpt lat="45.866337713358035" lon="9.94570637472614"><ele>997.0</ele><time>2026-04-26T08:34:44Z</time></trkpt><trkpt lat="45.86641398970519" lon="9.94575345410921"><ele>991.5000000000001</ele><time>2026-04-26T08:34:45Z</time></trkpt><trkpt lat="45.866481638651" lon="9.945796749098479"><ele>986.0</ele><time>2026-04-26T08:34:46Z</time></trkpt><trkpt lat="45.866569196759635" lon="9.945917708923123"><ele>986.0000000000001</ele><time>2026-04-26T08:34:48Z</time></trkpt><trkpt lat="45.86659994325372" lon="9.946015836490952"><ele>986.0</ele><time>2026-04-26T08:34:49Z</time></trkpt><trkpt lat="45.86661382519318" lon="9.946132221293771"><ele>986.0</ele><time>2026-04-26T08:34:50Z</time></trkpt><trkpt lat="45.86661929752211" lon="9.946262686228577"><ele>986.0</ele><time>2026-04-26T08:34:51Z</time></trkpt><trkpt lat="45.86662602274383" lon="9.94640257361338"><ele>986.0000000000001</ele><time>2026-04-26T08:34:52Z</time></trkpt><trkpt lat="45.86663517885824" lon="9.946540229963468"><ele>986.0</ele><time>2026-04-26T08:34:53Z</time></trkpt><trkpt lat="45.86664029431137" lon="9.946664864447518"><ele>985.1999999999999</ele><time>2026-04-26T08:34:54Z</time></trkpt><trkpt lat="45.86663971740529" lon="9.946785053106346"><ele>984.3999999999999</ele><time>2026-04-26T08:34:55Z</time></trkpt><trkpt lat="45.86661706287262" lon="9.9469199404077"><ele>983.6</ele><time>2026-04-26T08:34:56Z</time></trkpt><trkpt lat="45.86659152443853" lon="9.947047361379866"><ele>982.8</ele><time>2026-04-26T08:34:57Z</time></trkpt><trkpt lat="45.866570406387346" lon="9.947179214666065"><ele>982.0</ele><time>2026-04-26T08:34:58Z</time></trkpt><trkpt lat="45.86656797273738" lon="9.947325291175302"><ele>982.0</ele><time>2026-04-26T08:34:59Z</time></trkpt><trkpt lat="45.866588965471166" lon="9.947481778162349"><ele>982.0</ele><time>2026-04-26T08:35:00Z</time></trkpt><trkpt lat="45.86662361428919" lon="9.94761868037572"><ele>982.0</ele><time>2026-04-26T08:35:01Z</time></trkpt><trkpt lat="45.866631174337336" lon="9.947761422492581"><ele>982.0</ele><time>2026-04-26T08:35:02Z</time></trkpt><trkpt lat="45.86662651558465" lon="9.947896557928953"><ele>982.0</ele><time>2026-04-26T08:35:03Z</time></trkpt><trkpt lat="45.86661185420611" lon="9.948008460393371"><ele>981.3333333333333</ele><time>2026-04-26T08:35:04Z</time></trkpt><trkpt lat="45.86662478778411" lon="9.948162428285464"><ele>980.6666666666666</ele><time>2026-04-26T08:35:06Z</time></trkpt><trkpt lat="45.86671325304529" lon="9.948169148237737"><ele>980.0</ele><time>2026-04-26T08:35:08Z</time></trkpt><trkpt lat="45.86675147260028" lon="9.948079204103296"><ele>979.3333333333333</ele><time>2026-04-26T08:35:09Z</time></trkpt><trkpt lat="45.86675537154119" lon="9.947972205989641"><ele>978.6666666666666</ele><time>2026-04-26T08:35:10Z</time></trkpt><trkpt lat="45.86677026566947" lon="9.947874384655977"><ele>978.0</ele><time>2026-04-26T08:35:11Z</time></trkpt><trkpt lat="45.86679994172969" lon="9.947774490782267"><ele>971.5</ele><time>2026-04-26T08:35:12Z</time></trkpt><trkpt lat="45.86683437047809" lon="9.947685330096363"><ele>965.0</ele><time>2026-04-26T08:35:13Z</time></trkpt><trkpt lat="45.86687029755323" lon="9.947584833960136"><ele>958.5</ele><time>2026-04-26T08:35:14Z</time></trkpt><trkpt lat="45.86691097949258" lon="9.947479206462305"><ele>952.0</ele><time>2026-04-26T08:35:15Z</time></trkpt><trkpt lat="45.86695505914327" lon="9.947365137749905"><ele>945.5</ele><time>2026-04-26T08:35:16Z</time></trkpt><trkpt lat="45.867004093554335" lon="9.947239384003542"><ele>939.0</ele><time>2026-04-26T08:35:17Z</time></trkpt><trkpt lat="45.86705571474308" lon="9.94710684492122"><ele>939.0</ele><time>2026-04-26T08:35:18Z</time></trkpt><trkpt lat="45.86710968804406" lon="9.946971268667218"><ele>939.0000000000001</ele><time>2026-04-26T08:35:19Z</time></trkpt><trkpt lat="45.8671607231906" lon="9.946838529162829"><ele>939.0000000000001</ele><time>2026-04-26T08:35:20Z</time></trkpt><trkpt lat="45.867212724824675" lon="9.946693427954214"><ele>939.0</ele><time>2026-04-26T08:35:21Z</time></trkpt><trkpt lat="45.867264657924636" lon="9.94655464103111"><ele>939.0</ele><time>2026-04-26T08:35:22Z</time></trkpt><trkpt lat="45.86731953242838" lon="9.946415443892265"><ele>940.4000000000001</ele><time>2026-04-26T08:35:23Z</time></trkpt><trkpt lat="45.867375353137845" lon="9.946281029457996"><ele>941.8000000000001</ele><time>2026-04-26T08:35:24Z</time></trkpt><trkpt lat="45.86743055169786" lon="9.946144399640469"><ele>943.1999999999999</ele><time>2026-04-26T08:35:25Z</time></trkpt><trkpt lat="45.86748657951743" lon="9.946012137726997"><ele>944.5999999999999</ele><time>2026-04-26T08:35:26Z</time></trkpt><trkpt lat="45.86753464643182" lon="9.94588089405132"><ele>946.0</ele><time>2026-04-26T08:35:27Z</time></trkpt><trkpt lat="45.867570780837376" lon="9.94575559594368"><ele>945.9999999999999</ele><time>2026-04-26T08:35:28Z</time></trkpt><trkpt lat="45.867597141016255" lon="9.945648832392827"><ele>946.0</ele><time>2026-04-26T08:35:29Z</time></trkpt><trkpt lat="45.86761130493808" lon="9.945557515385552"><ele>946.0</ele><time>2026-04-26T08:35:30Z</time></trkpt><trkpt lat="45.86760612492572" lon="9.94542366179184"><ele>946.0</ele><time>2026-04-26T08:35:32Z</time></trkpt><trkpt lat="45.86770131700536" lon="9.945445022992182"><ele>945.9999999999999</ele><time>2026-04-26T08:35:35Z</time></trkpt><trkpt lat="45.867681062719306" lon="9.945607458458136"><ele>946.0</ele><time>2026-04-26T08:35:37Z</time></trkpt><trkpt lat="45.86767394665463" lon="9.945752974649443"><ele>938.4999999999999</ele><time>2026-04-26T08:35:39Z</time></trkpt><trkpt lat="45.86767222258293" lon="9.9459199100217"><ele>931.0</ele><time>2026-04-26T08:35:41Z</time></trkpt><trkpt lat="45.867665104073694" lon="9.946014395252366"><ele>923.5</ele><time>2026-04-26T08:35:42Z</time></trkpt><trkpt lat="45.86765737626839" lon="9.94611133819037"><ele>916.0</ele><time>2026-04-26T08:35:43Z</time></trkpt><trkpt lat="45.86764940049706" lon="9.946211185624982"><ele>908.4999999999999</ele><time>2026-04-26T08:35:44Z</time></trkpt><trkpt lat="45.86763936946754" lon="9.946315462692091"><ele>901.0</ele><time>2026-04-26T08:35:45Z</time></trkpt><trkpt lat="45.867627791770325" lon="9.946425619340037"><ele>900.9999999999999</ele><time>2026-04-26T08:35:46Z</time></trkpt><trkpt lat="45.86761553696484" lon="9.946537960980343"><ele>901.0</ele><time>2026-04-26T08:35:47Z</time></trkpt><trkpt lat="45.86760200095167" lon="9.946655474522725"><ele>901.0</ele><time>2026-04-26T08:35:48Z</time></trkpt><trkpt lat="45.867588731814834" lon="9.94677308308995"><ele>901.0</ele><time>2026-04-26T08:35:49Z</time></trkpt><trkpt lat="45.86757760209032" lon="9.946893498690734"><ele>900.9999999999999</ele><time>2026-04-26T08:35:50Z</time></trkpt><trkpt lat="45.867569414934984" lon="9.947016600362705"><ele>901.0</ele><time>2026-04-26T08:35:51Z</time></trkpt><trkpt lat="45.86755925455987" lon="9.94714185290627"><ele>906.4999999999999</ele><time>2026-04-26T08:35:52Z</time></trkpt><trkpt lat="45.86755086401277" lon="9.947268248823715"><ele>912.0</ele><time>2026-04-26T08:35:53Z</time></trkpt><trkpt lat="45.867537930768215" lon="9.947380110799445"><ele>917.5</ele><time>2026-04-26T08:35:53.999Z</time></trkpt><trkpt lat="45.86751824299849" lon="9.947476365521009"><ele>923.0</ele><time>2026-04-26T08:35:54.999Z</time></trkpt><trkpt lat="45.86750454051682" lon="9.947577512028534"><ele>928.4999999999999</ele><time>2026-04-26T08:35:55.999Z</time></trkpt><trkpt lat="45.86750667643738" lon="9.947684994590261"><ele>934.0</ele><time>2026-04-26T08:35:56.999Z</time></trkpt><trkpt lat="45.86751899055703" lon="9.94780075793639"><ele>933.9999999999999</ele><time>2026-04-26T08:35:57.999Z</time></trkpt><trkpt lat="45.86751622436938" lon="9.947910888965682"><ele>934.0</ele><time>2026-04-26T08:35:58.999Z</time></trkpt><trkpt lat="45.867479904818104" lon="9.948065880132985"><ele>934.0</ele><time>2026-04-26T08:36:00.999Z</time></trkpt><trkpt lat="45.867525627030474" lon="9.948133363272952"><ele>934.0</ele><time>2026-04-26T08:36:02.999Z</time></trkpt><trkpt lat="45.86760861817957" lon="9.948018516766936"><ele>933.9999999999999</ele><time>2026-04-26T08:36:04.999Z</time></trkpt><trkpt lat="45.86760827502007" lon="9.947919791612103"><ele>934.0</ele><time>2026-04-26T08:36:05.999Z</time></trkpt><trkpt lat="45.867605156345604" lon="9.947818718637393"><ele>926.9999999999999</ele><time>2026-04-26T08:36:06.999Z</time></trkpt><trkpt lat="45.86761251435529" lon="9.947716622777216"><ele>920.0</ele><time>2026-04-26T08:36:07.999Z</time></trkpt><trkpt lat="45.86763188128427" lon="9.947610176274013"><ele>913.0</ele><time>2026-04-26T08:36:08.999Z</time></trkpt><trkpt lat="45.86766958721195" lon="9.94751988164788"><ele>906.0</ele><time>2026-04-26T08:36:09.999Z</time></trkpt><trkpt lat="45.86773343520965" lon="9.947438319992374"><ele>898.9999999999999</ele><time>2026-04-26T08:36:10.999Z</time></trkpt><trkpt lat="45.86779280917552" lon="9.947357221238743"><ele>892.0</ele><time>2026-04-26T08:36:11.999Z</time></trkpt><trkpt lat="45.86784313789441" lon="9.947262026892103"><ele>892.0</ele><time>2026-04-26T08:36:12.999Z</time></trkpt><trkpt lat="45.867896488813166" lon="9.947150273366676"><ele>892.0</ele><time>2026-04-26T08:36:13.999Z</time></trkpt><trkpt lat="45.8679397856046" lon="9.947029952135486"><ele>892.0</ele><time>2026-04-26T08:36:14.999Z</time></trkpt><trkpt lat="45.86798271370905" lon="9.946905247937163"><ele>892.0</ele><time>2026-04-26T08:36:15.999Z</time></trkpt><trkpt lat="45.868024713821264" lon="9.946775157032013"><ele>892.0</ele><time>2026-04-26T08:36:17Z</time></trkpt><trkpt lat="45.86807535604221" lon="9.946641483407547"><ele>893.8</ele><time>2026-04-26T08:36:18Z</time></trkpt><trkpt lat="45.86813263227679" lon="9.946511393583258"><ele>895.6</ele><time>2026-04-26T08:36:19Z</time></trkpt><trkpt lat="45.86818552180102" lon="9.94639112489383"><ele>897.3999999999999</ele><time>2026-04-26T08:36:20Z</time></trkpt><trkpt lat="45.86823507771945" lon="9.946280555559412"><ele>899.1999999999999</ele><time>2026-04-26T08:36:21Z</time></trkpt><trkpt lat="45.86827840150953" lon="9.946160382053016"><ele>901.0</ele><time>2026-04-26T08:36:22Z</time></trkpt><trkpt lat="45.86831514845512" lon="9.946034147232403"><ele>901.0</ele><time>2026-04-26T08:36:23Z</time></trkpt><trkpt lat="45.868349781715644" lon="9.945895596162007"><ele>900.9999999999999</ele><time>2026-04-26T08:36:24Z</time></trkpt><trkpt lat="45.86837952123704" lon="9.945758557680598"><ele>900.9999999999999</ele><time>2026-04-26T08:36:25Z</time></trkpt><trkpt lat="45.86840072958415" lon="9.945631920587678"><ele>901.0</ele><time>2026-04-26T08:36:26Z</time></trkpt><trkpt lat="45.86841677646562" lon="9.94551718851705"><ele>901.0</ele><time>2026-04-26T08:36:27Z</time></trkpt><trkpt lat="45.86843582001841" lon="9.945393742847354"><ele>900.3333333333333</ele><time>2026-04-26T08:36:28Z</time></trkpt><trkpt lat="45.86844784017079" lon="9.945289986518604"><ele>899.6666666666666</ele><time>2026-04-26T08:36:29Z</time></trkpt><trkpt lat="45.86845472648084" lon="9.945199203499415"><ele>899.0</ele><time>2026-04-26T08:36:30Z</time></trkpt><trkpt lat="45.86842324241958" lon="9.945043163745314"><ele>898.3333333333333</ele><time>2026-04-26T08:36:32Z</time></trkpt><trkpt lat="45.86833691995795" lon="9.944926567696148"><ele>897.6666666666666</ele><time>2026-04-26T08:36:34Z</time></trkpt><trkpt lat="45.86828742535964" lon="9.944867110757672"><ele>897.0</ele><time>2026-04-26T08:36:35Z</time></trkpt><trkpt lat="45.86823060768789" lon="9.944817415995498"><ele>897.0</ele><time>2026-04-26T08:36:36Z</time></trkpt><trkpt lat="45.8681636999444" lon="9.944759984927893"><ele>897.0</ele><time>2026-04-26T08:36:37Z</time></trkpt><trkpt lat="45.86809109039943" lon="9.94469390309564"><ele>897.0</ele><time>2026-04-26T08:36:38Z</time></trkpt><trkpt lat="45.86801874478149" lon="9.944621441438944"><ele>897.0</ele><time>2026-04-26T08:36:39Z</time></trkpt><trkpt lat="45.867952248687644" lon="9.944541759580602"><ele>897.0</ele><time>2026-04-26T08:36:40Z</time></trkpt><trkpt lat="45.86788481903237" lon="9.944442964243438"><ele>897.0</ele><time>2026-04-26T08:36:41Z</time></trkpt><trkpt lat="45.86782142707755" lon="9.944364529158095"><ele>897.0</ele><time>2026-04-26T08:36:42Z</time></trkpt><trkpt lat="45.86776357640965" lon="9.944303097400098"><ele>897.0</ele><time>2026-04-26T08:36:43Z</time></trkpt><trkpt lat="45.867684373413944" lon="9.944267204935906"><ele>897.0</ele><time>2026-04-26T08:36:44Z</time></trkpt><trkpt lat="45.86758987658803" lon="9.94424916596458"><ele>897.0</ele><time>2026-04-26T08:36:45Z</time></trkpt><trkpt lat="45.86749159617266" lon="9.944231844517963"><ele>897.0</ele><time>2026-04-26T08:36:46Z</time></trkpt><trkpt lat="45.8673963125093" lon="9.944224947451957"><ele>897.0</ele><time>2026-04-26T08:36:47Z</time></trkpt><trkpt lat="45.86730836225984" lon="9.9442152713865"><ele>894.4000000000001</ele><time>2026-04-26T08:36:48Z</time></trkpt><trkpt lat="45.86723933406598" lon="9.944217665338906"><ele>891.8000000000001</ele><time>2026-04-26T08:36:49Z</time></trkpt><trkpt lat="45.86713898398468" lon="9.944230022396495"><ele>889.2</ele><time>2026-04-26T08:36:51Z</time></trkpt><trkpt lat="45.86711032570601" lon="9.944123042397866"><ele>886.6</ele><time>2026-04-26T08:36:54Z</time></trkpt><trkpt lat="45.867223632839774" lon="9.94409929354252"><ele>884.0</ele><time>2026-04-26T08:36:56Z</time></trkpt><trkpt lat="45.86734487608594" lon="9.94410030523363"><ele>884.0000000000001</ele><time>2026-04-26T08:36:58Z</time></trkpt><trkpt lat="45.867426456604605" lon="9.944095335713776"><ele>884.0</ele><time>2026-04-26T08:36:59Z</time></trkpt><trkpt lat="45.8675184398274" lon="9.944086390976873"><ele>884.0</ele><time>2026-04-26T08:37:00Z</time></trkpt><trkpt lat="45.867589241052464" lon="9.944054251873713"><ele>884.0</ele><time>2026-04-26T08:37:01Z</time></trkpt><trkpt lat="45.8676664994138" lon="9.944038773637391"><ele>884.0000000000001</ele><time>2026-04-26T08:37:02Z</time></trkpt><trkpt lat="45.867731100347434" lon="9.944024803605995"><ele>884.0</ele><time>2026-04-26T08:37:03Z</time></trkpt><trkpt lat="45.867860432271705" lon="9.944034306861914"><ele>886.1666666666667</ele><time>2026-04-26T08:37:05Z</time></trkpt><trkpt lat="45.86792636823318" lon="9.944089398951583"><ele>888.3333333333334</ele><time>2026-04-26T08:37:06Z</time></trkpt><trkpt lat="45.86800480987839" lon="9.944139011597331"><ele>890.5</ele><time>2026-04-26T08:37:07Z</time></trkpt><trkpt lat="45.868091303901615" lon="9.944191134497887"><ele>892.6666666666667</ele><time>2026-04-26T08:37:08Z</time></trkpt><trkpt lat="45.86817913958574" lon="9.944233517391632"><ele>894.8333333333334</ele><time>2026-04-26T08:37:09Z</time></trkpt><trkpt lat="45.86826694487901" lon="9.944275241169779"><ele>897.0</ele><time>2026-04-26T08:37:10Z</time></trkpt><trkpt lat="45.868361120881865" lon="9.94431207706179"><ele>892.0</ele><time>2026-04-26T08:37:11Z</time></trkpt><trkpt lat="45.86846474681559" lon="9.944328504829736"><ele>887.0</ele><time>2026-04-26T08:37:12Z</time></trkpt><trkpt lat="45.86855707940944" lon="9.944335833892017"><ele>882.0</ele><time>2026-04-26T08:37:13Z</time></trkpt><trkpt lat="45.86865613275921" lon="9.944332247524336"><ele>877.0</ele><time>2026-04-26T08:37:13.999Z</time></trkpt><trkpt lat="45.86875146693236" lon="9.944323151581406"><ele>872.0</ele><time>2026-04-26T08:37:14.999Z</time></trkpt><trkpt lat="45.86883688267862" lon="9.94430772321489"><ele>872.0</ele><time>2026-04-26T08:37:15.999Z</time></trkpt><trkpt lat="45.86892605574436" lon="9.94430149570343"><ele>872.0</ele><time>2026-04-26T08:37:16.999Z</time></trkpt><trkpt lat="45.869009314296044" lon="9.944304145711651"><ele>872.0</ele><time>2026-04-26T08:37:17.999Z</time></trkpt><trkpt lat="45.86910719056714" lon="9.944310551877631"><ele>872.0</ele><time>2026-04-26T08:37:18.999Z</time></trkpt><trkpt lat="45.869204900371024" lon="9.944332886514765"><ele>872.0</ele><time>2026-04-26T08:37:19.999Z</time></trkpt><trkpt lat="45.86929972939835" lon="9.94435575961968"><ele>868.1666666666667</ele><time>2026-04-26T08:37:20.999Z</time></trkpt><trkpt lat="45.8693846946224" lon="9.94438043745494"><ele>864.3333333333334</ele><time>2026-04-26T08:37:21.999Z</time></trkpt><trkpt lat="45.86945865411349" lon="9.94438446896636"><ele>860.5</ele><time>2026-04-26T08:37:22.999Z</time></trkpt><trkpt lat="45.8695365443245" lon="9.944381413722684"><ele>856.6666666666667</ele><time>2026-04-26T08:37:23.999Z</time></trkpt><trkpt lat="45.86960522821669" lon="9.944368763063709"><ele>852.8333333333334</ele><time>2026-04-26T08:37:24.999Z</time></trkpt><trkpt lat="45.86966638189755" lon="9.944336943078357"><ele>849.0</ele><time>2026-04-26T08:37:25.999Z</time></trkpt><trkpt lat="45.86977798362455" lon="9.94428876655074"><ele>849.0</ele><time>2026-04-26T08:37:27.999Z</time></trkpt><trkpt lat="45.86987881182662" lon="9.944237601469727"><ele>849.0</ele><time>2026-04-26T08:37:29.999Z</time></trkpt><trkpt lat="45.869943560805424" lon="9.944204170869689"><ele>849.0</ele><time>2026-04-26T08:37:31.999Z</time></trkpt><trkpt lat="45.87001285577125" lon="9.944151976220638"><ele>849.0</ele><time>2026-04-26T08:37:33.999Z</time></trkpt><trkpt lat="45.87007458703821" lon="9.94409971576672"><ele>849.0</ele><time>2026-04-26T08:37:35.999Z</time></trkpt><trkpt lat="45.87015021302189" lon="9.94404925781369"><ele>849.0</ele><time>2026-04-26T08:37:37.999Z</time></trkpt><trkpt lat="45.87022156475213" lon="9.944064256761658"><ele>845.8333333333334</ele><time>2026-04-26T08:37:41.999Z</time></trkpt><trkpt lat="45.87017781883038" lon="9.944158829922138"><ele>842.6666666666667</ele><time>2026-04-26T08:37:46.999Z</time></trkpt><trkpt lat="45.87012763470082" lon="9.944217605345425"><ele>839.5</ele><time>2026-04-26T08:37:48.999Z</time></trkpt><trkpt lat="45.87011043449419" lon="9.944334218125048"><ele>836.3333333333334</ele><time>2026-04-26T08:37:51.999Z</time></trkpt><trkpt lat="45.87012884192628" lon="9.944436023918772"><ele>833.1666666666667</ele><time>2026-04-26T08:37:54.999Z</time></trkpt><trkpt lat="45.87013280420197" lon="9.944545131642247"><ele>830.0</ele><time>2026-04-26T08:37:57.999Z</time></trkpt><trkpt lat="45.87014170162573" lon="9.944651117971969"><ele>828.1666666666667</ele><time>2026-04-26T08:38:00.999Z</time></trkpt><trkpt lat="45.870164287374344" lon="9.944744134604282"><ele>826.3333333333334</ele><time>2026-04-26T08:38:03.999Z</time></trkpt><trkpt lat="45.87016875083296" lon="9.944845296297258"><ele>824.5</ele><time>2026-04-26T08:38:07.999Z</time></trkpt><trkpt lat="45.8701641416223" lon="9.944966920003397"><ele>822.6666666666667</ele><time>2026-04-26T08:38:59Z</time></trkpt><trkpt lat="45.870150212060814" lon="9.94507193783487"><ele>820.8333333333334</ele><time>2026-04-26T08:39:02Z</time></trkpt><trkpt lat="45.87014048229659" lon="9.945200921254893"><ele>819.0</ele><time>2026-04-26T08:39:05Z</time></trkpt><trkpt lat="45.870127456156496" lon="9.945110749238248"><ele>819.0</ele><time>2026-04-26T08:39:11Z</time></trkpt><trkpt lat="45.870164224536055" lon="9.945024621896987"><ele>819.0</ele><time>2026-04-26T08:39:13Z</time></trkpt><trkpt lat="45.87016853426282" lon="9.944909288639067"><ele>819.0</ele><time>2026-04-26T08:39:15Z</time></trkpt><trkpt lat="45.870168348758384" lon="9.94480545366264"><ele>819.0</ele><time>2026-04-26T08:39:17Z</time></trkpt><trkpt lat="45.870161563846544" lon="9.944691861466211"><ele>819.0</ele><time>2026-04-26T08:39:19Z</time></trkpt><trkpt lat="45.87013808644673" lon="9.944603663328257"><ele>819.0</ele><time>2026-04-26T08:39:21Z</time></trkpt><trkpt lat="45.87011805968573" lon="9.944515657255803"><ele>819.0</ele><time>2026-04-26T08:39:23Z</time></trkpt><trkpt lat="45.87011742244812" lon="9.944405080712245"><ele>819.0</ele><time>2026-04-26T08:39:25Z</time></trkpt><trkpt lat="45.87012168799953" lon="9.94431102953538"><ele>819.0</ele><time>2026-04-26T08:39:27Z</time></trkpt><trkpt lat="45.87014558692561" lon="9.944196650203233"><ele>819.0</ele><time>2026-04-26T08:39:30Z</time></trkpt><trkpt lat="45.87020039511745" lon="9.944126972234775"><ele>819.0</ele><time>2026-04-26T08:39:33Z</time></trkpt><trkpt lat="45.870197811462745" lon="9.944033388751008"><ele>819.0</ele><time>2026-04-26T08:39:38Z</time></trkpt><trkpt lat="45.87013824331038" lon="9.944068192423853"><ele>819.0</ele><time>2026-04-26T08:39:40Z</time></trkpt><trkpt lat="45.870080208008325" lon="9.944120091824415"><ele>819.0</ele><time>2026-04-26T08:39:43Z</time></trkpt><trkpt lat="45.87000479961017" lon="9.944160164214974"><ele>822.3333333333334</ele><time>2026-04-26T08:39:46Z</time></trkpt><trkpt lat="45.86993556270514" lon="9.944196078647332"><ele>825.6666666666667</ele><time>2026-04-26T08:39:48Z</time></trkpt><trkpt lat="45.86987367069745" lon="9.944229363971916"><ele>829.0</ele><time>2026-04-26T08:39:50Z</time></trkpt><trkpt lat="45.86975303011915" lon="9.94424547359888"><ele>832.3333333333334</ele><time>2026-04-26T08:40:45Z</time></trkpt><trkpt lat="45.86968394242803" lon="9.944246618428842"><ele>835.6666666666667</ele><time>2026-04-26T08:40:47Z</time></trkpt><trkpt lat="45.869584132970466" lon="9.944229538673905"><ele>839.0</ele><time>2026-04-26T08:40:50Z</time></trkpt><trkpt lat="45.869512717440735" lon="9.944217386101679"><ele>839.0000000000001</ele><time>2026-04-26T08:40:52Z</time></trkpt><trkpt lat="45.86944120035289" lon="9.94418139196468"><ele>839.0</ele><time>2026-04-26T08:40:54Z</time></trkpt><trkpt lat="45.86936560651265" lon="9.944128688658534"><ele>839.0</ele><time>2026-04-26T08:40:56Z</time></trkpt><trkpt lat="45.86929598495702" lon="9.944065099265865"><ele>839.0</ele><time>2026-04-26T08:40:58Z</time></trkpt><trkpt lat="45.869201800907994" lon="9.944007934390983"><ele>839.0000000000001</ele><time>2026-04-26T08:41:00Z</time></trkpt><trkpt lat="45.86912056469504" lon="9.94393487211266"><ele>839.0</ele><time>2026-04-26T08:41:02Z</time></trkpt><trkpt lat="45.869056771988305" lon="9.943886701459254"><ele>839.6666666666667</ele><time>2026-04-26T08:41:04Z</time></trkpt><trkpt lat="45.86898339191748" lon="9.94383926769945"><ele>840.3333333333334</ele><time>2026-04-26T08:41:06Z</time></trkpt><trkpt lat="45.868896318505485" lon="9.943795048953307"><ele>841.0</ele><time>2026-04-26T08:41:09Z</time></trkpt><trkpt lat="45.868823681986356" lon="9.94377190064468"><ele>841.6666666666667</ele><time>2026-04-26T08:41:12Z</time></trkpt><trkpt lat="45.868747865694736" lon="9.94372735417836"><ele>842.3333333333334</ele><time>2026-04-26T08:41:14Z</time></trkpt><trkpt lat="45.868692356580375" lon="9.943682306301866"><ele>843.0</ele><time>2026-04-26T08:41:16Z</time></trkpt><trkpt lat="45.868610190637455" lon="9.943620749290538"><ele>843.0</ele><time>2026-04-26T08:41:18Z</time></trkpt><trkpt lat="45.86854144166625" lon="9.943541538454433"><ele>843.0</ele><time>2026-04-26T08:41:20Z</time></trkpt><trkpt lat="45.86847459786595" lon="9.943455607382031"><ele>843.0</ele><time>2026-04-26T08:41:22Z</time></trkpt><trkpt lat="45.868410431682705" lon="9.9434049953582"><ele>843.0</ele><time>2026-04-26T08:41:24Z</time></trkpt><trkpt lat="45.86833139595886" lon="9.943331329332713"><ele>843.0</ele><time>2026-04-26T08:41:27Z</time></trkpt><trkpt lat="45.868285710993405" lon="9.94324781808535"><ele>843.0</ele><time>2026-04-26T08:41:30Z</time></trkpt><trkpt lat="45.868231700192034" lon="9.943180866973375"><ele>839.8333333333334</ele><time>2026-04-26T08:41:33Z</time></trkpt><trkpt lat="45.86817057990434" lon="9.943095771103774"><ele>836.6666666666667</ele><time>2026-04-26T08:41:36Z</time></trkpt><trkpt lat="45.86811303990855" lon="9.94303861155338"><ele>833.5</ele><time>2026-04-26T08:41:39Z</time></trkpt><trkpt lat="45.868070911559926" lon="9.942960340293924"><ele>830.3333333333334</ele><time>2026-04-26T08:41:41Z</time></trkpt><trkpt lat="45.868023339686744" lon="9.942897969261608"><ele>827.1666666666667</ele><time>2026-04-26T08:41:43Z</time></trkpt><trkpt lat="45.86795181252925" lon="9.94280816458214"><ele>824.0</ele><time>2026-04-26T08:41:45Z</time></trkpt><trkpt lat="45.867890579880466" lon="9.942744795810698"><ele>824.0000000000001</ele><time>2026-04-26T08:41:47Z</time></trkpt><trkpt lat="45.867827309239445" lon="9.942679929256673"><ele>824.0</ele><time>2026-04-26T08:41:49Z</time></trkpt><trkpt lat="45.86775181703141" lon="9.942617743367704"><ele>824.0</ele><time>2026-04-26T08:41:51Z</time></trkpt><trkpt lat="45.867657057555654" lon="9.942612548418563"><ele>824.0</ele><time>2026-04-26T08:41:54Z</time></trkpt><trkpt lat="45.86758378185006" lon="9.942623279292688"><ele>824.0000000000001</ele><time>2026-04-26T08:41:56Z</time></trkpt><trkpt lat="45.8675161258846" lon="9.942648397762234"><ele>824.0</ele><time>2026-04-26T08:41:59Z</time></trkpt><trkpt lat="45.86744406006015" lon="9.942677656281749"><ele>826.2857142857142</ele><time>2026-04-26T08:42:01Z</time></trkpt><trkpt lat="45.86739281102639" lon="9.942732295011346"><ele>828.5714285714286</ele><time>2026-04-26T08:42:03Z</time></trkpt><trkpt lat="45.8673644752276" lon="9.94265044530744"><ele>830.8571428571429</ele><time>2026-04-26T08:42:07Z</time></trkpt><trkpt lat="45.86733213411685" lon="9.942571867383103"><ele>833.1428571428571</ele><time>2026-04-26T08:42:09Z</time></trkpt><trkpt lat="45.86734214731806" lon="9.942473759095856"><ele>835.4285714285714</ele><time>2026-04-26T08:42:15Z</time></trkpt><trkpt lat="45.867308036804715" lon="9.942369160150951"><ele>837.7142857142857</ele><time>2026-04-26T08:42:18.999Z</time></trkpt><trkpt lat="45.867249681843305" lon="9.942263788674282"><ele>840.0</ele><time>2026-04-26T08:42:21.999Z</time></trkpt><trkpt lat="45.86718508039046" lon="9.94216273101742"><ele>834.0</ele><time>2026-04-26T08:42:24.999Z</time></trkpt><trkpt lat="45.86713617022372" lon="9.94209305244342"><ele>828.0</ele><time>2026-04-26T08:42:26.999Z</time></trkpt><trkpt lat="45.867089046901185" lon="9.94197227134336"><ele>822.0</ele><time>2026-04-26T08:42:29.999Z</time></trkpt><trkpt lat="45.86709514177288" lon="9.94187634646596"><ele>816.0</ele><time>2026-04-26T08:42:31.999Z</time></trkpt><trkpt lat="45.867065529175974" lon="9.941762662553788"><ele>810.0</ele><time>2026-04-26T08:42:35Z</time></trkpt><trkpt lat="45.867047644439566" lon="9.941662309563576"><ele>804.0</ele><time>2026-04-26T08:42:37Z</time></trkpt><trkpt lat="45.867030232278466" lon="9.9415731809188"><ele>799.0</ele><time>2026-04-26T08:42:39Z</time></trkpt><trkpt lat="45.866985566301985" lon="9.94148338573737"><ele>794.0</ele><time>2026-04-26T08:42:42Z</time></trkpt><trkpt lat="45.86694514165857" lon="9.941395876720632"><ele>789.0</ele><time>2026-04-26T08:42:46Z</time></trkpt><trkpt lat="45.86690147122537" lon="9.941294797892276"><ele>784.0</ele><time>2026-04-26T08:42:49Z</time></trkpt><trkpt lat="45.86686386754318" lon="9.941208107224329"><ele>779.0</ele><time>2026-04-26T08:42:52Z</time></trkpt><trkpt lat="45.86683712839756" lon="9.941123493834745"><ele>774.0</ele><time>2026-04-26T08:42:59Z</time></trkpt><trkpt lat="45.86690830499808" lon="9.941170340959697"><ele>769.0</ele><time>2026-04-26T08:43:25Z</time></trkpt><trkpt lat="45.866964341963744" lon="9.941214201055786"><ele>768.9999999999999</ele><time>2026-04-26T08:43:27Z</time></trkpt><trkpt lat="45.86704127424384" lon="9.941273542422818"><ele>769.0</ele><time>2026-04-26T08:43:30Z</time></trkpt><trkpt lat="45.86711100957741" lon="9.941327476318584"><ele>769.0</ele><time>2026-04-26T08:43:33Z</time></trkpt><trkpt lat="45.86717526031551" lon="9.94140145644801"><ele>769.0</ele><time>2026-04-26T08:43:38Z</time></trkpt><trkpt lat="45.86724312524901" lon="9.941445455813907"><ele>768.9999999999999</ele><time>2026-04-26T08:43:42Z</time></trkpt><trkpt lat="45.86730559425542" lon="9.941524713673381"><ele>769.0</ele><time>2026-04-26T08:43:45Z</time></trkpt><trkpt lat="45.86739622995398" lon="9.941592721898429"><ele>768.9999999999999</ele><time>2026-04-26T08:44:15Z</time></trkpt><trkpt lat="45.86742205161254" lon="9.941704765480468"><ele>769.0</ele><time>2026-04-26T08:44:24.999Z</time></trkpt><trkpt lat="45.867483065260345" lon="9.941731053735237"><ele>769.0</ele><time>2026-04-26T08:44:28.999Z</time></trkpt><trkpt lat="45.86754891239683" lon="9.941842637704521"><ele>769.0</ele><time>2026-04-26T08:44:32.999Z</time></trkpt><trkpt lat="45.86758525029267" lon="9.941944265581762"><ele>768.9999999999999</ele><time>2026-04-26T08:44:37.999Z</time></trkpt><trkpt lat="45.86764364521368" lon="9.94198688161437"><ele>769.0</ele><time>2026-04-26T08:44:45Z</time></trkpt><trkpt lat="45.867689237610065" lon="9.941905555929736"><ele>771.6666666666666</ele><time>2026-04-26T08:44:53Z</time></trkpt><trkpt lat="45.86774872847326" lon="9.941863763687685"><ele>774.3333333333333</ele><time>2026-04-26T08:44:56Z</time></trkpt><trkpt lat="45.867827426121416" lon="9.941827053898402"><ele>777.0</ele><time>2026-04-26T08:44:59Z</time></trkpt><trkpt lat="45.867894688692864" lon="9.941783812210629"><ele>779.6666666666667</ele><time>2026-04-26T08:45:02Z</time></trkpt><trkpt lat="45.867978711812896" lon="9.941780489240022"><ele>782.3333333333334</ele><time>2026-04-26T08:45:05Z</time></trkpt><trkpt lat="45.86803909467233" lon="9.941736612566508"><ele>785.0</ele><time>2026-04-26T08:45:10Z</time></trkpt><trkpt lat="45.86811115134998" lon="9.941689628478297"><ele>778.4285714285714</ele><time>2026-04-26T08:45:13Z</time></trkpt><trkpt lat="45.868177475386986" lon="9.941634976180397"><ele>771.8571428571428</ele><time>2026-04-26T08:45:17Z</time></trkpt><trkpt lat="45.868239162743365" lon="9.941611551723154"><ele>765.2857142857142</ele><time>2026-04-26T08:45:21Z</time></trkpt><trkpt lat="45.868282144680265" lon="9.941688762528075"><ele>758.7142857142858</ele><time>2026-04-26T08:45:28Z</time></trkpt><trkpt lat="45.86825597852775" lon="9.941605812070039"><ele>752.1428571428571</ele><time>2026-04-26T08:45:36Z</time></trkpt><trkpt lat="45.86819241815246" lon="9.94157895004067"><ele>745.5714285714286</ele><time>2026-04-26T08:45:42Z</time></trkpt><trkpt lat="45.8681102571666" lon="9.941604297102607"><ele>739.0</ele><time>2026-04-26T08:45:53Z</time></trkpt><trkpt lat="45.86802972645114" lon="9.941607229742333"><ele>739.0</ele><time>2026-04-26T08:45:56Z</time></trkpt><trkpt lat="45.8679456785611" lon="9.941598547757993"><ele>739.0</ele><time>2026-04-26T08:46:00Z</time></trkpt><trkpt lat="45.86787914036439" lon="9.94158126518035"><ele>739.0</ele><time>2026-04-26T08:46:02Z</time></trkpt><trkpt lat="45.86780543825772" lon="9.941558153440942"><ele>739.0</ele><time>2026-04-26T08:46:05Z</time></trkpt><trkpt lat="45.86775700097931" lon="9.941495672473557"><ele>739.0</ele><time>2026-04-26T08:46:11Z</time></trkpt><trkpt lat="45.867723154664006" lon="9.941408862314132"><ele>739.0</ele><time>2026-04-26T08:46:19Z</time></trkpt><trkpt lat="45.86772941980245" lon="9.941291861104183"><ele>739.0</ele><time>2026-04-26T08:46:22Z</time></trkpt><trkpt lat="45.86772244249951" lon="9.941201523859885"><ele>739.0</ele><time>2026-04-26T08:46:25Z</time></trkpt><trkpt lat="45.86767709588212" lon="9.941108594032983"><ele>739.0</ele><time>2026-04-26T08:46:28Z</time></trkpt><trkpt lat="45.86763178326919" lon="9.940993359440567"><ele>739.0</ele><time>2026-04-26T08:46:31Z</time></trkpt><trkpt lat="45.86758253400385" lon="9.940915319646471"><ele>739.0</ele><time>2026-04-26T08:46:33Z</time></trkpt><trkpt lat="45.86753582003445" lon="9.940821414036243"><ele>739.0</ele><time>2026-04-26T08:46:35Z</time></trkpt><trkpt lat="45.86750683725955" lon="9.940735873697912"><ele>739.0</ele><time>2026-04-26T08:46:38Z</time></trkpt><trkpt lat="45.867468681255026" lon="9.94065789699531"><ele>736.8571428571429</ele><time>2026-04-26T08:46:40Z</time></trkpt><trkpt lat="45.86742123462018" lon="9.94058094213582"><ele>734.7142857142858</ele><time>2026-04-26T08:46:43Z</time></trkpt><trkpt lat="45.86740904412721" lon="9.940487515915375"><ele>732.5714285714286</ele><time>2026-04-26T08:46:54Z</time></trkpt><trkpt lat="45.86744306026129" lon="9.940574991490147"><ele>730.4285714285714</ele><time>2026-04-26T08:47:09Z</time></trkpt><trkpt lat="45.86749852653675" lon="9.940631834401966"><ele>728.2857142857142</ele><time>2026-04-26T08:47:13Z</time></trkpt><trkpt lat="45.86753214238828" lon="9.940720683417224"><ele>726.1428571428571</ele><time>2026-04-26T08:47:16Z</time></trkpt><trkpt lat="45.867594045787" lon="9.940792613413363"><ele>724.0</ele><time>2026-04-26T08:47:19Z</time></trkpt><trkpt lat="45.86765601952985" lon="9.940863592149883"><ele>726.5</ele><time>2026-04-26T08:47:23Z</time></trkpt><trkpt lat="45.8677118673039" lon="9.940926555568925"><ele>729.0</ele><time>2026-04-26T08:47:25Z</time></trkpt><trkpt lat="45.86778614762624" lon="9.940974314430177"><ele>731.5</ele><time>2026-04-26T08:47:30Z</time></trkpt><trkpt lat="45.86782197730161" lon="9.941057189756279"><ele>734.0</ele><time>2026-04-26T08:47:36Z</time></trkpt><trkpt lat="45.86789204696777" lon="9.94106751738844"><ele>736.5</ele><time>2026-04-26T08:47:40Z</time></trkpt><trkpt lat="45.86795811808127" lon="9.941049240313639"><ele>739.0</ele><time>2026-04-26T08:47:47Z</time></trkpt><trkpt lat="45.868025042676045" lon="9.94091942641778"><ele>731.6666666666667</ele><time>2026-04-26T08:48:03Z</time></trkpt><trkpt lat="45.86806172437305" lon="9.940821050687347"><ele>724.3333333333334</ele><time>2026-04-26T08:48:06Z</time></trkpt><trkpt lat="45.86810905499987" lon="9.940734053470187"><ele>717.0</ele><time>2026-04-26T08:48:09Z</time></trkpt><trkpt lat="45.868146841488134" lon="9.940646928451367"><ele>709.6666666666666</ele><time>2026-04-26T08:48:12Z</time></trkpt><trkpt lat="45.868236365022625" lon="9.940626402205664"><ele>702.3333333333333</ele><time>2026-04-26T08:48:16Z</time></trkpt><trkpt lat="45.868330083254875" lon="9.940605920224607"><ele>695.0</ele><time>2026-04-26T08:48:19Z</time></trkpt><trkpt lat="45.868392380346314" lon="9.9406215616088"><ele>697.2857142857143</ele><time>2026-04-26T08:48:21Z</time></trkpt><trkpt lat="45.86846518919149" lon="9.94065862133654"><ele>699.5714285714286</ele><time>2026-04-26T08:48:24Z</time></trkpt><trkpt lat="45.86853659926997" lon="9.940722951945338"><ele>701.8571428571429</ele><time>2026-04-26T08:48:27Z</time></trkpt><trkpt lat="45.86860436121501" lon="9.940746355363627"><ele>704.1428571428571</ele><time>2026-04-26T08:48:31Z</time></trkpt><trkpt lat="45.86867233369106" lon="9.940766284302214"><ele>706.4285714285714</ele><time>2026-04-26T08:48:35Z</time></trkpt><trkpt lat="45.8687110761789" lon="9.940855299943692"><ele>708.7142857142858</ele><time>2026-04-26T08:48:37Z</time></trkpt><trkpt lat="45.86873735759321" lon="9.940945053464413"><ele>711.0</ele><time>2026-04-26T08:48:40Z</time></trkpt><trkpt lat="45.868760252330894" lon="9.941057712225973"><ele>711.0</ele><time>2026-04-26T08:48:43Z</time></trkpt><trkpt lat="45.8687926052046" lon="9.941190058890475"><ele>711.0</ele><time>2026-04-26T08:48:46Z</time></trkpt><trkpt lat="45.86882792489905" lon="9.94127353053203"><ele>711.0</ele><time>2026-04-26T08:48:48Z</time></trkpt><trkpt lat="45.86888748793789" lon="9.941329423901033"><ele>711.0</ele><time>2026-04-26T08:48:50.999Z</time></trkpt><trkpt lat="45.8689555716446" lon="9.941362061473287"><ele>711.0</ele><time>2026-04-26T08:48:54Z</time></trkpt><trkpt lat="45.86902062116752" lon="9.941408592939142"><ele>711.0</ele><time>2026-04-26T08:49:00Z</time></trkpt><trkpt lat="45.869014461840415" lon="9.941284763350225"><ele>711.0</ele><time>2026-04-26T08:49:47Z</time></trkpt><trkpt lat="45.868963634343395" lon="9.941167559114854"><ele>711.0</ele><time>2026-04-26T08:49:51Z</time></trkpt><trkpt lat="45.86892110955724" lon="9.941099226770959"><ele>711.0</ele><time>2026-04-26T08:49:53Z</time></trkpt><trkpt lat="45.868902809161135" lon="9.94100609741913"><ele>711.0</ele><time>2026-04-26T08:49:57Z</time></trkpt><trkpt lat="45.86893689106737" lon="9.940910042570886"><ele>711.0</ele><time>2026-04-26T08:50:04Z</time></trkpt><trkpt lat="45.8689490596164" lon="9.940812379329332"><ele>711.0</ele><time>2026-04-26T08:50:09Z</time></trkpt><trkpt lat="45.86897309193493" lon="9.940724754516404"><ele>711.0</ele><time>2026-04-26T08:50:17Z</time></trkpt><trkpt lat="45.868938153505155" lon="9.940646150163927"><ele>705.2857142857143</ele><time>2026-04-26T08:50:22Z</time></trkpt><trkpt lat="45.86893236520202" lon="9.940554888451334"><ele>699.5714285714286</ele><time>2026-04-26T08:50:28.999Z</time></trkpt><trkpt lat="45.868878655556635" lon="9.940479516997957"><ele>693.8571428571429</ele><time>2026-04-26T08:50:34.999Z</time></trkpt><trkpt lat="45.868805649346925" lon="9.940425711852647"><ele>688.1428571428571</ele><time>2026-04-26T08:50:37.999Z</time></trkpt><trkpt lat="45.86873962714319" lon="9.940359915422743"><ele>682.4285714285714</ele><time>2026-04-26T08:50:41.999Z</time></trkpt><trkpt lat="45.868671842161916" lon="9.940378838790052"><ele>676.7142857142857</ele><time>2026-04-26T08:50:44.999Z</time></trkpt><trkpt lat="45.868659111806245" lon="9.940268302134047"><ele>671.0</ele><time>2026-04-26T08:50:47.999Z</time></trkpt><trkpt lat="45.86862540681673" lon="9.940182901940451"><ele>671.0</ele><time>2026-04-26T08:50:50.999Z</time></trkpt><trkpt lat="45.86857734903546" lon="9.940101193675588"><ele>671.0</ele><time>2026-04-26T08:50:53.999Z</time></trkpt><trkpt lat="45.86851235893154" lon="9.940081089266204"><ele>671.0</ele><time>2026-04-26T08:51:00Z</time></trkpt><trkpt lat="45.86844064343952" lon="9.940075797180263"><ele>671.0</ele><time>2026-04-26T08:51:02Z</time></trkpt><trkpt lat="45.8683732489966" lon="9.940057810303383"><ele>671.0</ele><time>2026-04-26T08:51:04Z</time></trkpt><trkpt lat="45.868296991367004" lon="9.940031936943107"><ele>671.0</ele><time>2026-04-26T08:51:08Z</time></trkpt><trkpt lat="45.868352484057716" lon="9.939955786297864"><ele>671.0</ele><time>2026-04-26T08:51:40Z</time></trkpt><trkpt lat="45.86841649666088" lon="9.939941332171419"><ele>671.0</ele><time>2026-04-26T08:51:42Z</time></trkpt><trkpt lat="45.8685170483901" lon="9.939928832073832"><ele>671.0</ele><time>2026-04-26T08:51:45Z</time></trkpt><trkpt lat="45.86858571892718" lon="9.93994412041483"><ele>671.0</ele><time>2026-04-26T08:51:48Z</time></trkpt><trkpt lat="45.86864563189464" lon="9.940017665524858"><ele>671.0</ele><time>2026-04-26T08:51:51Z</time></trkpt><trkpt lat="45.868694678319336" lon="9.940081554843575"><ele>671.0</ele><time>2026-04-26T08:51:54Z</time></trkpt><trkpt lat="45.868762015321515" lon="9.940124213977263"><ele>671.0</ele><time>2026-04-26T08:52:03Z</time></trkpt><trkpt lat="45.86883411555357" lon="9.940154733316232"><ele>671.0</ele><time>2026-04-26T08:52:06Z</time></trkpt><trkpt lat="45.86889592746954" lon="9.940175558376154"><ele>671.0</ele><time>2026-04-26T08:52:14Z</time></trkpt><trkpt lat="45.868969354572066" lon="9.940232066890559"><ele>671.0</ele><time>2026-04-26T08:52:17Z</time></trkpt><trkpt lat="45.86902832908941" lon="9.940299289363544"><ele>671.0</ele><time>2026-04-26T08:52:22Z</time></trkpt><trkpt lat="45.869097214631076" lon="9.940356919476637"><ele>671.0</ele><time>2026-04-26T08:52:26Z</time></trkpt><trkpt lat="45.86917250624793" lon="9.940403921839664"><ele>671.0</ele><time>2026-04-26T08:52:37Z</time></trkpt><trkpt lat="45.86917284562318" lon="9.940297242601183"><ele>671.0</ele><time>2026-04-26T08:52:59Z</time></trkpt><trkpt lat="45.86915351709748" lon="9.940190001693338"><ele>671.0</ele><time>2026-04-26T08:53:05Z</time></trkpt><trkpt lat="45.86917451828782" lon="9.940074309052532"><ele>671.0</ele><time>2026-04-26T08:53:10Z</time></trkpt><trkpt lat="45.86920101319387" lon="9.939960070751424"><ele>671.0</ele><time>2026-04-26T08:53:12Z</time></trkpt><trkpt lat="45.8691745467347" lon="9.939877147932341"><ele>671.0</ele><time>2026-04-26T08:53:22Z</time></trkpt><trkpt lat="45.86922067974291" lon="9.939796942014032"><ele>671.0</ele><time>2026-04-26T08:53:36Z</time></trkpt><trkpt lat="45.86928670319015" lon="9.939850281622025"><ele>666.1999999999999</ele><time>2026-04-26T08:53:39Z</time></trkpt><trkpt lat="45.869379702015095" lon="9.93987309000169"><ele>661.4</ele><time>2026-04-26T08:53:42Z</time></trkpt><trkpt lat="45.86946726321688" lon="9.939836338388975"><ele>656.6</ele><time>2026-04-26T08:53:44Z</time></trkpt><trkpt lat="45.86955129114089" lon="9.939754637531738"><ele>651.8</ele><time>2026-04-26T08:53:46Z</time></trkpt><trkpt lat="45.86962063146437" lon="9.939647275389978"><ele>647.0</ele><time>2026-04-26T08:53:48Z</time></trkpt><trkpt lat="45.869687976455666" lon="9.939534385509484"><ele>647.0</ele><time>2026-04-26T08:53:50Z</time></trkpt><trkpt lat="45.86979212894056" lon="9.939439630172053"><ele>647.0</ele><time>2026-04-26T08:53:52Z</time></trkpt><trkpt lat="45.86989152410169" lon="9.939351773589292"><ele>647.0</ele><time>2026-04-26T08:53:54Z</time></trkpt><trkpt lat="45.86995189890716" lon="9.939235752993813"><ele>647.0</ele><time>2026-04-26T08:53:56Z</time></trkpt><trkpt lat="45.869979708981234" lon="9.939089410931508"><ele>647.0</ele><time>2026-04-26T08:53:58Z</time></trkpt><trkpt lat="45.87003146779904" lon="9.938934157407493"><ele>645.0</ele><time>2026-04-26T08:54:00Z</time></trkpt><trkpt lat="45.87008938650106" lon="9.938787822595023"><ele>643.0</ele><time>2026-04-26T08:54:02Z</time></trkpt><trkpt lat="45.870124398724705" lon="9.938690249976569"><ele>641.0</ele><time>2026-04-26T08:54:03Z</time></trkpt><trkpt lat="45.87015285222535" lon="9.938595630239577"><ele>639.0</ele><time>2026-04-26T08:54:04Z</time></trkpt><trkpt lat="45.870179916291626" lon="9.938509182211282"><ele>637.0</ele><time>2026-04-26T08:54:05Z</time></trkpt><trkpt lat="45.870213970000634" lon="9.93842044529591"><ele>635.0</ele><time>2026-04-26T08:54:06Z</time></trkpt><trkpt lat="45.87026862859472" lon="9.938316248211924"><ele>634.2</ele><time>2026-04-26T08:54:08Z</time></trkpt><trkpt lat="45.87032561921163" lon="9.938211538194523"><ele>633.4</ele><time>2026-04-26T08:54:11Z</time></trkpt><trkpt lat="45.87037685029019" lon="9.938109504417268"><ele>632.6</ele><time>2026-04-26T08:54:13Z</time></trkpt><trkpt lat="45.87043703962581" lon="9.937993017998556"><ele>631.8</ele><time>2026-04-26T08:54:15Z</time></trkpt><trkpt lat="45.87050464273624" lon="9.937868893203104"><ele>631.0</ele><time>2026-04-26T08:54:17Z</time></trkpt><trkpt lat="45.87058499302443" lon="9.93776593682629"><ele>631.0</ele><time>2026-04-26T08:54:19Z</time></trkpt><trkpt lat="45.87062232354253" lon="9.93762557687505"><ele>631.0</ele><time>2026-04-26T08:54:21Z</time></trkpt><trkpt lat="45.870665651143085" lon="9.937469334384476"><ele>631.0</ele><time>2026-04-26T08:54:23Z</time></trkpt><trkpt lat="45.87074075426213" lon="9.937336841602589"><ele>631.0</ele><time>2026-04-26T08:54:25Z</time></trkpt><trkpt lat="45.87078859217801" lon="9.937273602713233"><ele>631.0</ele><time>2026-04-26T08:54:26Z</time></trkpt><trkpt lat="45.87087654664522" lon="9.937155577070056"><ele>631.0</ele><time>2026-04-26T08:54:28Z</time></trkpt><trkpt lat="45.870977097215544" lon="9.937068200772261"><ele>631.0</ele><time>2026-04-26T08:54:30Z</time></trkpt><trkpt lat="45.871068846376126" lon="9.936959952306733"><ele>631.0</ele><time>2026-04-26T08:54:32Z</time></trkpt><trkpt lat="45.87114219607258" lon="9.936873363454488"><ele>631.0</ele><time>2026-04-26T08:54:34Z</time></trkpt><trkpt lat="45.87123010723898" lon="9.936788241250634"><ele>631.0</ele><time>2026-04-26T08:54:36Z</time></trkpt><trkpt lat="45.87132878547696" lon="9.93670911922383"><ele>627.8</ele><time>2026-04-26T08:54:38Z</time></trkpt><trkpt lat="45.87142432250307" lon="9.936625959642592"><ele>624.6</ele><time>2026-04-26T08:54:40Z</time></trkpt><trkpt lat="45.8715021106168" lon="9.936558488526682"><ele>621.4</ele><time>2026-04-26T08:54:42Z</time></trkpt><trkpt lat="45.87160002866264" lon="9.936460851125554"><ele>618.2</ele><time>2026-04-26T08:54:44Z</time></trkpt><trkpt lat="45.871688443772996" lon="9.936337462401328"><ele>615.0</ele><time>2026-04-26T08:54:46Z</time></trkpt><trkpt lat="45.87174820080201" lon="9.936279943121649"><ele>614.6</ele><time>2026-04-26T08:54:47Z</time></trkpt><trkpt lat="45.871852472630025" lon="9.93620691752924"><ele>614.2</ele><time>2026-04-26T08:54:49Z</time></trkpt><trkpt lat="45.87195542825388" lon="9.936117675997396"><ele>613.8</ele><time>2026-04-26T08:54:51Z</time></trkpt><trkpt lat="45.87202499068123" lon="9.936000848826424"><ele>613.4</ele><time>2026-04-26T08:54:53Z</time></trkpt><trkpt lat="45.872064314989444" lon="9.935928952104288"><ele>613.0</ele><time>2026-04-26T08:54:53.999Z</time></trkpt><trkpt lat="45.872105560887526" lon="9.93585655547546"><ele>613.0</ele><time>2026-04-26T08:54:55Z</time></trkpt><trkpt lat="45.87215017419003" lon="9.935773204387415"><ele>613.0</ele><time>2026-04-26T08:54:55.999Z</time></trkpt><trkpt lat="45.8722003358401" lon="9.93569231757837"><ele>613.0</ele><time>2026-04-26T08:54:56.999Z</time></trkpt><trkpt lat="45.872251558866765" lon="9.93561702398865"><ele>613.0</ele><time>2026-04-26T08:54:57.999Z</time></trkpt><trkpt lat="45.872299908416544" lon="9.9355462185149"><ele>613.0</ele><time>2026-04-26T08:54:58.999Z</time></trkpt><trkpt lat="45.87235217230179" lon="9.93548737225645"><ele>613.0</ele><time>2026-04-26T08:54:59.999Z</time></trkpt><trkpt lat="45.872432046378044" lon="9.935382880593412"><ele>613.0</ele><time>2026-04-26T08:55:01.999Z</time></trkpt><trkpt lat="45.87250916749468" lon="9.935305946946873"><ele>613.0</ele><time>2026-04-26T08:55:03.999Z</time></trkpt><trkpt lat="45.87260790700724" lon="9.93525427497515"><ele>613.0</ele><time>2026-04-26T08:55:05.999Z</time></trkpt><trkpt lat="45.872713538355534" lon="9.935176778446527"><ele>613.0</ele><time>2026-04-26T08:55:07.999Z</time></trkpt><trkpt lat="45.87279396399706" lon="9.935093026310824"><ele>613.0</ele><time>2026-04-26T08:55:09.999Z</time></trkpt><trkpt lat="45.87288238454368" lon="9.934980025211212"><ele>612.75</ele><time>2026-04-26T08:55:12Z</time></trkpt><trkpt lat="45.87296610829191" lon="9.934860830281046"><ele>612.5</ele><time>2026-04-26T08:55:14Z</time></trkpt><trkpt lat="45.8730527831718" lon="9.934742409143603"><ele>612.25</ele><time>2026-04-26T08:55:16Z</time></trkpt><trkpt lat="45.87313901129324" lon="9.934634424669465"><ele>612.0</ele><time>2026-04-26T08:55:18Z</time></trkpt><trkpt lat="45.87323132484788" lon="9.934552897111553"><ele>612.0</ele><time>2026-04-26T08:55:20Z</time></trkpt><trkpt lat="45.87331942685299" lon="9.934444976172998"><ele>612.0</ele><time>2026-04-26T08:55:22Z</time></trkpt><trkpt lat="45.87340375505548" lon="9.934337911259282"><ele>612.0</ele><time>2026-04-26T08:55:24Z</time></trkpt><trkpt lat="45.87347756828333" lon="9.934251832754164"><ele>612.0</ele><time>2026-04-26T08:55:26Z</time></trkpt><trkpt lat="45.8735427452397" lon="9.934158747269871"><ele>612.0</ele><time>2026-04-26T08:55:28Z</time></trkpt><trkpt lat="45.873616582698794" lon="9.934070970896414"><ele>611.0</ele><time>2026-04-26T08:55:30Z</time></trkpt><trkpt lat="45.873693528111026" lon="9.93398004692406"><ele>610.0</ele><time>2026-04-26T08:55:32Z</time></trkpt><trkpt lat="45.8737734693218" lon="9.933851157156749"><ele>609.0</ele><time>2026-04-26T08:55:34Z</time></trkpt><trkpt lat="45.87386364163522" lon="9.933729412468201"><ele>608.0</ele><time>2026-04-26T08:55:36Z</time></trkpt><trkpt lat="45.873912987489916" lon="9.93367096788338"><ele>607.0</ele><time>2026-04-26T08:55:37Z</time></trkpt><trkpt lat="45.87395724873238" lon="9.933603673577982"><ele>607.0</ele><time>2026-04-26T08:55:38Z</time></trkpt><trkpt lat="45.8740024815893" lon="9.93353873939564"><ele>607.0</ele><time>2026-04-26T08:55:39Z</time></trkpt><trkpt lat="45.874052811899695" lon="9.93347396160958"><ele>607.0</ele><time>2026-04-26T08:55:40Z</time></trkpt><trkpt lat="45.87410625858651" lon="9.93341805627426"><ele>607.0</ele><time>2026-04-26T08:55:41Z</time></trkpt><trkpt lat="45.87419318872397" lon="9.933318036885794"><ele>607.0</ele><time>2026-04-26T08:55:43Z</time></trkpt><trkpt lat="45.87427416783946" lon="9.933221278652733"><ele>607.0</ele><time>2026-04-26T08:55:45Z</time></trkpt><trkpt lat="45.874345417958885" lon="9.933106786464556"><ele>606.2</ele><time>2026-04-26T08:55:47Z</time></trkpt><trkpt lat="45.8744329435166" lon="9.932997662723658"><ele>605.4000000000001</ele><time>2026-04-26T08:55:49Z</time></trkpt><trkpt lat="45.874509008416545" lon="9.932916260908888"><ele>604.5999999999999</ele><time>2026-04-26T08:55:51Z</time></trkpt><trkpt lat="45.87458760283813" lon="9.932826043985882"><ele>603.8</ele><time>2026-04-26T08:55:53Z</time></trkpt><trkpt lat="45.87468096578777" lon="9.932743645601613"><ele>603.0</ele><time>2026-04-26T08:55:55Z</time></trkpt><trkpt lat="45.874781882168065" lon="9.93267501712343"><ele>603.0</ele><time>2026-04-26T08:55:57Z</time></trkpt><trkpt lat="45.87486989815329" lon="9.932608372050897"><ele>603.0</ele><time>2026-04-26T08:55:59Z</time></trkpt><trkpt lat="45.87495368268851" lon="9.93254538219657"><ele>603.0</ele><time>2026-04-26T08:56:01Z</time></trkpt><trkpt lat="45.875040200692695" lon="9.932472939833112"><ele>603.0</ele><time>2026-04-26T08:56:03Z</time></trkpt><trkpt lat="45.87512105749716" lon="9.932419873375482"><ele>603.0</ele><time>2026-04-26T08:56:05Z</time></trkpt><trkpt lat="45.8751937108114" lon="9.932343129887661"><ele>602.1999999999999</ele><time>2026-04-26T08:56:07Z</time></trkpt><trkpt lat="45.87527588128725" lon="9.932264716912014"><ele>601.4</ele><time>2026-04-26T08:56:09Z</time></trkpt><trkpt lat="45.87533051007735" lon="9.932219320744288"><ele>600.5999999999999</ele><time>2026-04-26T08:56:10Z</time></trkpt><trkpt lat="45.87541566995893" lon="9.932155053210197"><ele>599.8</ele><time>2026-04-26T08:56:12Z</time></trkpt><trkpt lat="45.87550904205573" lon="9.932107618848812"><ele>599.0</ele><time>2026-04-26T08:56:14Z</time></trkpt><trkpt lat="45.87559809872054" lon="9.932058921704035"><ele>599.0</ele><time>2026-04-26T08:56:16Z</time></trkpt><trkpt lat="45.87566584873453" lon="9.931975843143828"><ele>599.0</ele><time>2026-04-26T08:56:18Z</time></trkpt><trkpt lat="45.87573067537353" lon="9.931872592381602"><ele>599.0</ele><time>2026-04-26T08:56:20Z</time></trkpt><trkpt lat="45.87579468850781" lon="9.931778154515012"><ele>599.0</ele><time>2026-04-26T08:56:22Z</time></trkpt><trkpt lat="45.87586587762759" lon="9.93169074182594"><ele>599.0</ele><time>2026-04-26T08:56:24Z</time></trkpt><trkpt lat="45.875940828692016" lon="9.93161637783215"><ele>600.1666666666666</ele><time>2026-04-26T08:56:26Z</time></trkpt><trkpt lat="45.87598707673678" lon="9.931502831293853"><ele>601.3333333333333</ele><time>2026-04-26T08:56:28Z</time></trkpt><trkpt lat="45.87601548227946" lon="9.931390063575456"><ele>602.5</ele><time>2026-04-26T08:56:30Z</time></trkpt><trkpt lat="45.87602027054106" lon="9.931280631443752"><ele>603.6666666666666</ele><time>2026-04-26T08:56:32Z</time></trkpt><trkpt lat="45.876045556777406" lon="9.931158893096084"><ele>604.8333333333334</ele><time>2026-04-26T08:56:35Z</time></trkpt><trkpt lat="45.87604281185491" lon="9.93106736530557"><ele>606.0</ele><time>2026-04-26T08:56:37Z</time></trkpt><trkpt lat="45.87604818652912" lon="9.930973707618545"><ele>603.0</ele><time>2026-04-26T08:56:39Z</time></trkpt><trkpt lat="45.876098662127525" lon="9.93088277567529"><ele>600.0</ele><time>2026-04-26T08:56:41Z</time></trkpt><trkpt lat="45.87615462254066" lon="9.930767575583172"><ele>597.0</ele><time>2026-04-26T08:56:43Z</time></trkpt><trkpt lat="45.876210103969626" lon="9.93062885336789"><ele>594.0</ele><time>2026-04-26T08:56:45Z</time></trkpt><trkpt lat="45.876266526402105" lon="9.930468961377318"><ele>591.0</ele><time>2026-04-26T08:56:47Z</time></trkpt><trkpt lat="45.876287553179665" lon="9.930380386879323"><ele>591.0</ele><time>2026-04-26T08:56:48Z</time></trkpt><trkpt lat="45.8763111336307" lon="9.930291278979615"><ele>591.0</ele><time>2026-04-26T08:56:49Z</time></trkpt><trkpt lat="45.87634593956923" lon="9.930198823070231"><ele>591.0</ele><time>2026-04-26T08:56:50Z</time></trkpt><trkpt lat="45.87637499147342" lon="9.930105531754116"><ele>591.0</ele><time>2026-04-26T08:56:51Z</time></trkpt><trkpt lat="45.876405426635834" lon="9.930004931174055"><ele>591.0</ele><time>2026-04-26T08:56:52Z</time></trkpt><trkpt lat="45.87643597068067" lon="9.929903311919555"><ele>591.0</ele><time>2026-04-26T08:56:53Z</time></trkpt><trkpt lat="45.876464914062375" lon="9.92980182737793"><ele>591.0</ele><time>2026-04-26T08:56:54Z</time></trkpt><trkpt lat="45.876494509499125" lon="9.929699276146579"><ele>589.3333333333334</ele><time>2026-04-26T08:56:55Z</time></trkpt><trkpt lat="45.87652228268156" lon="9.929598291033397"><ele>587.6666666666666</ele><time>2026-04-26T08:56:56Z</time></trkpt><trkpt lat="45.876554621618546" lon="9.929495923356418"><ele>586.0</ele><time>2026-04-26T08:56:57Z</time></trkpt><trkpt lat="45.876585584230575" lon="9.92939608188912"><ele>584.3333333333333</ele><time>2026-04-26T08:56:58Z</time></trkpt><trkpt lat="45.876620319353705" lon="9.929299912840138"><ele>582.6666666666666</ele><time>2026-04-26T08:56:59Z</time></trkpt><trkpt lat="45.876663847102044" lon="9.929203549418036"><ele>581.0</ele><time>2026-04-26T08:57:00Z</time></trkpt><trkpt lat="45.87670916693459" lon="9.929104958359586"><ele>581.4</ele><time>2026-04-26T08:57:01Z</time></trkpt><trkpt lat="45.876757554144824" lon="9.92899497845965"><ele>581.8</ele><time>2026-04-26T08:57:02Z</time></trkpt><trkpt lat="45.87680744950667" lon="9.928881017764283"><ele>582.1999999999999</ele><time>2026-04-26T08:57:03Z</time></trkpt><trkpt lat="45.8768590525472" lon="9.928756245547818"><ele>582.6</ele><time>2026-04-26T08:57:04Z</time></trkpt><trkpt lat="45.876908412646735" lon="9.928628443735297"><ele>583.0</ele><time>2026-04-26T08:57:05Z</time></trkpt><trkpt lat="45.87695590992421" lon="9.928495379572738"><ele>581.4</ele><time>2026-04-26T08:57:06Z</time></trkpt><trkpt lat="45.87700224333036" lon="9.928367186312755"><ele>579.8</ele><time>2026-04-26T08:57:07Z</time></trkpt><trkpt lat="45.87704951954156" lon="9.928241028291591"><ele>578.2</ele><time>2026-04-26T08:57:08Z</time></trkpt><trkpt lat="45.87709488291334" lon="9.928111977946509"><ele>576.6</ele><time>2026-04-26T08:57:09Z</time></trkpt><trkpt lat="45.87713877941267" lon="9.927983202998794"><ele>575.0</ele><time>2026-04-26T08:57:10Z</time></trkpt><trkpt lat="45.877184089861444" lon="9.92785555235422"><ele>575.0</ele><time>2026-04-26T08:57:11Z</time></trkpt><trkpt lat="45.87723202547384" lon="9.927730994870792"><ele>575.0</ele><time>2026-04-26T08:57:12Z</time></trkpt><trkpt lat="45.87728166770319" lon="9.92761700967359"><ele>575.0</ele><time>2026-04-26T08:57:13Z</time></trkpt><trkpt lat="45.877328757391176" lon="9.9275178306159"><ele>575.0</ele><time>2026-04-26T08:57:13.999Z</time></trkpt><trkpt lat="45.877372281449105" lon="9.92742353173972"><ele>575.0</ele><time>2026-04-26T08:57:14.999Z</time></trkpt><trkpt lat="45.87742516281888" lon="9.927334923723127"><ele>575.0</ele><time>2026-04-26T08:57:15.999Z</time></trkpt><trkpt lat="45.877490052431284" lon="9.927261935385745"><ele>573.6666666666666</ele><time>2026-04-26T08:57:17Z</time></trkpt><trkpt lat="45.8775607186806" lon="9.92719805516457"><ele>572.3333333333333</ele><time>2026-04-26T08:57:18Z</time></trkpt><trkpt lat="45.87763079896199" lon="9.927124169396924"><ele>571.0</ele><time>2026-04-26T08:57:19Z</time></trkpt><trkpt lat="45.87768797995204" lon="9.92703768955433"><ele>569.6666666666666</ele><time>2026-04-26T08:57:20Z</time></trkpt><trkpt lat="45.877729020075755" lon="9.926926002694032"><ele>568.3333333333334</ele><time>2026-04-26T08:57:21Z</time></trkpt><trkpt lat="45.87775379313972" lon="9.926799805905477"><ele>567.0</ele><time>2026-04-26T08:57:22Z</time></trkpt><trkpt lat="45.87776773724109" lon="9.926669575352156"><ele>565.4</ele><time>2026-04-26T08:57:23Z</time></trkpt><trkpt lat="45.877772629721164" lon="9.926537433175616"><ele>563.8000000000001</ele><time>2026-04-26T08:57:24Z</time></trkpt><trkpt lat="45.877766539097316" lon="9.926406023542595"><ele>562.2</ele><time>2026-04-26T08:57:25Z</time></trkpt><trkpt lat="45.877765473385665" lon="9.926273776477943"><ele>560.6</ele><time>2026-04-26T08:57:26Z</time></trkpt><trkpt lat="45.877772130948536" lon="9.92614450430718"><ele>559.0</ele><time>2026-04-26T08:57:27Z</time></trkpt><trkpt lat="45.87778668100098" lon="9.92602092087782"><ele>559.0</ele><time>2026-04-26T08:57:28Z</time></trkpt><trkpt lat="45.87780265242605" lon="9.925900665798546"><ele>559.0</ele><time>2026-04-26T08:57:29Z</time></trkpt><trkpt lat="45.8778253131877" lon="9.925773812495704"><ele>559.0</ele><time>2026-04-26T08:57:30Z</time></trkpt><trkpt lat="45.87784946195375" lon="9.925640388200847"><ele>559.0</ele><time>2026-04-26T08:57:31Z</time></trkpt><trkpt lat="45.87787195140362" lon="9.925503352585977"><ele>559.0</ele><time>2026-04-26T08:57:32Z</time></trkpt><trkpt lat="45.87789393112125" lon="9.925370573271758"><ele>558.8</ele><time>2026-04-26T08:57:33Z</time></trkpt><trkpt lat="45.87791921337198" lon="9.925244948099474"><ele>558.5999999999999</ele><time>2026-04-26T08:57:34Z</time></trkpt><trkpt lat="45.877946002421446" lon="9.92512559247682"><ele>558.4</ele><time>2026-04-26T08:57:35Z</time></trkpt><trkpt lat="45.877970977310376" lon="9.925009723066713"><ele>558.1999999999999</ele><time>2026-04-26T08:57:36Z</time></trkpt><trkpt lat="45.87799498811937" lon="9.924908806829805"><ele>558.0</ele><time>2026-04-26T08:57:37Z</time></trkpt><trkpt lat="45.87802641949774" lon="9.924735197651483"><ele>557.6666666666666</ele><time>2026-04-26T08:57:39Z</time></trkpt><trkpt lat="45.878044898352414" lon="9.92464857404307"><ele>557.3333333333334</ele><time>2026-04-26T08:57:40Z</time></trkpt><trkpt lat="45.87804380318368" lon="9.92450222998205"><ele>557.0</ele><time>2026-04-26T08:57:42Z</time></trkpt><trkpt lat="45.87798232626175" lon="9.924353392701951"><ele>556.6666666666667</ele><time>2026-04-26T08:57:44Z</time></trkpt><trkpt lat="45.87794329175459" lon="9.92426842924197"><ele>556.3333333333334</ele><time>2026-04-26T08:57:45Z</time></trkpt><trkpt lat="45.87790824819593" lon="9.924182450759222"><ele>556.0</ele><time>2026-04-26T08:57:46Z</time></trkpt><trkpt lat="45.87787570081632" lon="9.924086401349495"><ele>555.6666666666667</ele><time>2026-04-26T08:57:47Z</time></trkpt><trkpt lat="45.87784213589059" lon="9.92399663586222"><ele>555.3333333333334</ele><time>2026-04-26T08:57:48Z</time></trkpt><trkpt lat="45.87780455995886" lon="9.923901210279007"><ele>555.0</ele><time>2026-04-26T08:57:49Z</time></trkpt><trkpt lat="45.877765708443974" lon="9.923805423401609"><ele>554.6666666666666</ele><time>2026-04-26T08:57:50Z</time></trkpt><trkpt lat="45.8777311673777" lon="9.923705364040902"><ele>554.3333333333333</ele><time>2026-04-26T08:57:51Z</time></trkpt><trkpt lat="45.87769247363324" lon="9.923606952428417"><ele>554.0</ele><time>2026-04-26T08:57:52Z</time></trkpt><trkpt lat="45.87765762665615" lon="9.923506227161594"><ele>554.0</ele><time>2026-04-26T08:57:53Z</time></trkpt><trkpt lat="45.87762140473136" lon="9.923406394277112"><ele>554.0</ele><time>2026-04-26T08:57:54Z</time></trkpt><trkpt lat="45.877580477084315" lon="9.923310643477933"><ele>554.0</ele><time>2026-04-26T08:57:55Z</time></trkpt><trkpt lat="45.87753888340637" lon="9.923215477451862"><ele>554.0</ele><time>2026-04-26T08:57:56Z</time></trkpt><trkpt lat="45.87749156041012" lon="9.923121396561799"><ele>554.0</ele><time>2026-04-26T08:57:57Z</time></trkpt><trkpt lat="45.877446047197544" lon="9.923027685606915"><ele>554.0</ele><time>2026-04-26T08:57:58Z</time></trkpt><trkpt lat="45.87740403149826" lon="9.922929142842433"><ele>553.8333333333333</ele><time>2026-04-26T08:57:59Z</time></trkpt><trkpt lat="45.87736063681383" lon="9.922836831400867"><ele>553.6666666666666</ele><time>2026-04-26T08:58:00Z</time></trkpt><trkpt lat="45.87730532954405" lon="9.922750388340328"><ele>553.5</ele><time>2026-04-26T08:58:01Z</time></trkpt><trkpt lat="45.87724945320007" lon="9.922669717208594"><ele>553.3333333333334</ele><time>2026-04-26T08:58:02Z</time></trkpt><trkpt lat="45.87719180413749" lon="9.922588440133909"><ele>553.1666666666667</ele><time>2026-04-26T08:58:03Z</time></trkpt><trkpt lat="45.877135933088894" lon="9.922503068203946"><ele>553.0</ele><time>2026-04-26T08:58:04Z</time></trkpt><trkpt lat="45.877084178731025" lon="9.922413660153676"><ele>552.6666666666667</ele><time>2026-04-26T08:58:05Z</time></trkpt><trkpt lat="45.87702704739819" lon="9.922327067219967"><ele>552.3333333333334</ele><time>2026-04-26T08:58:06Z</time></trkpt><trkpt lat="45.87696632023716" lon="9.92224714022411"><ele>552.0</ele><time>2026-04-26T08:58:07Z</time></trkpt><trkpt lat="45.87689940805299" lon="9.922171570991443"><ele>551.6666666666666</ele><time>2026-04-26T08:58:08Z</time></trkpt><trkpt lat="45.87682689308327" lon="9.92210878230753"><ele>551.3333333333333</ele><time>2026-04-26T08:58:09Z</time></trkpt><trkpt lat="45.87675161292417" lon="9.922051858489336"><ele>551.0</ele><time>2026-04-26T08:58:10Z</time></trkpt><trkpt lat="45.87667989008319" lon="9.921993305453288"><ele>550.8333333333333</ele><time>2026-04-26T08:58:11Z</time></trkpt><trkpt lat="45.87661032196164" lon="9.921933228657391"><ele>550.6666666666666</ele><time>2026-04-26T08:58:12Z</time></trkpt><trkpt lat="45.87653957807999" lon="9.921875721810263"><ele>550.5</ele><time>2026-04-26T08:58:13Z</time></trkpt><trkpt lat="45.87646665124214" lon="9.921811834895221"><ele>550.3333333333334</ele><time>2026-04-26T08:58:14Z</time></trkpt><trkpt lat="45.87639964779854" lon="9.921740957707677"><ele>550.1666666666667</ele><time>2026-04-26T08:58:15Z</time></trkpt><trkpt lat="45.87633623415969" lon="9.921658131896502"><ele>550.0</ele><time>2026-04-26T08:58:16Z</time></trkpt><trkpt lat="45.87627636588398" lon="9.92157069720227"><ele>549.3333333333334</ele><time>2026-04-26T08:58:17Z</time></trkpt><trkpt lat="45.87622107954521" lon="9.921478106754964"><ele>548.6666666666667</ele><time>2026-04-26T08:58:18Z</time></trkpt><trkpt lat="45.87617108948885" lon="9.921376552196302"><ele>548.0</ele><time>2026-04-26T08:58:19Z</time></trkpt><trkpt lat="45.876126000187504" lon="9.921271105238594"><ele>547.3333333333334</ele><time>2026-04-26T08:58:20Z</time></trkpt><trkpt lat="45.87607797975504" lon="9.921168375712627"><ele>546.6666666666666</ele><time>2026-04-26T08:58:21Z</time></trkpt><trkpt lat="45.87602861695723" lon="9.921065241794135"><ele>546.0</ele><time>2026-04-26T08:58:22Z</time></trkpt><trkpt lat="45.875978929202226" lon="9.920962169162696"><ele>545.8333333333334</ele><time>2026-04-26T08:58:23Z</time></trkpt><trkpt lat="45.87592355405415" lon="9.92086366370391"><ele>545.6666666666666</ele><time>2026-04-26T08:58:24Z</time></trkpt><trkpt lat="45.875871599463494" lon="9.920765312274556"><ele>545.5</ele><time>2026-04-26T08:58:25Z</time></trkpt><trkpt lat="45.87582098573457" lon="9.92065946026095"><ele>545.3333333333333</ele><time>2026-04-26T08:58:26Z</time></trkpt><trkpt lat="45.87577382672073" lon="9.920551781640283"><ele>545.1666666666666</ele><time>2026-04-26T08:58:27Z</time></trkpt><trkpt lat="45.87572338144789" lon="9.920440733722135"><ele>545.0</ele><time>2026-04-26T08:58:28Z</time></trkpt><trkpt lat="45.87567356740635" lon="9.92033408856457"><ele>545.0</ele><time>2026-04-26T08:58:29Z</time></trkpt><trkpt lat="45.87561770074039" lon="9.920230830986181"><ele>545.0</ele><time>2026-04-26T08:58:30Z</time></trkpt><trkpt lat="45.87556710967509" lon="9.920124564723881"><ele>545.0</ele><time>2026-04-26T08:58:31Z</time></trkpt><trkpt lat="45.87551765960375" lon="9.920017840151928"><ele>545.0</ele><time>2026-04-26T08:58:32Z</time></trkpt><trkpt lat="45.87546750001821" lon="9.919912104722341"><ele>545.0</ele><time>2026-04-26T08:58:33Z</time></trkpt><trkpt lat="45.87541862181028" lon="9.919808669429312"><ele>545.0</ele><time>2026-04-26T08:58:34Z</time></trkpt><trkpt lat="45.87536719306315" lon="9.91969984386133"><ele>544.3333333333333</ele><time>2026-04-26T08:58:35Z</time></trkpt><trkpt lat="45.87531842476166" lon="9.919596388713888"><ele>543.6666666666666</ele><time>2026-04-26T08:58:36Z</time></trkpt><trkpt lat="45.87526708490407" lon="9.919493042729597"><ele>543.0</ele><time>2026-04-26T08:58:37Z</time></trkpt><trkpt lat="45.87521742996175" lon="9.9193909800676"><ele>542.3333333333334</ele><time>2026-04-26T08:58:38Z</time></trkpt><trkpt lat="45.8751665862521" lon="9.919291537302904"><ele>541.6666666666667</ele><time>2026-04-26T08:58:39Z</time></trkpt><trkpt lat="45.87511998137641" lon="9.919191087793694"><ele>541.0</ele><time>2026-04-26T08:58:40Z</time></trkpt><trkpt lat="45.875074166215065" lon="9.919089573284342"><ele>541.0</ele><time>2026-04-26T08:58:41Z</time></trkpt><trkpt lat="45.875027704942" lon="9.918987089081966"><ele>541.0</ele><time>2026-04-26T08:58:42Z</time></trkpt><trkpt lat="45.87498090120793" lon="9.91888482154526"><ele>541.0</ele><time>2026-04-26T08:58:43Z</time></trkpt><trkpt lat="45.87493643329963" lon="9.91878869741207"><ele>541.0</ele><time>2026-04-26T08:58:44Z</time></trkpt><trkpt lat="45.87488772482491" lon="9.918696940389955"><ele>541.0</ele><time>2026-04-26T08:58:45Z</time></trkpt><trkpt lat="45.874841739479386" lon="9.918605201955202"><ele>541.0</ele><time>2026-04-26T08:58:46Z</time></trkpt><trkpt lat="45.87479702202591" lon="9.918513186112218"><ele>541.0</ele><time>2026-04-26T08:58:47Z</time></trkpt><trkpt lat="45.874747717253335" lon="9.91841956305472"><ele>541.0</ele><time>2026-04-26T08:58:48Z</time></trkpt><trkpt lat="45.87469755176228" lon="9.918327166869599"><ele>541.0</ele><time>2026-04-26T08:58:49Z</time></trkpt><trkpt lat="45.874649028908294" lon="9.918235011650467"><ele>541.0</ele><time>2026-04-26T08:58:50Z</time></trkpt><trkpt lat="45.874596297370005" lon="9.918141354802456"><ele>541.0</ele><time>2026-04-26T08:58:51Z</time></trkpt><trkpt lat="45.874550586142654" lon="9.918048201421088"><ele>541.0</ele><time>2026-04-26T08:58:52Z</time></trkpt><trkpt lat="45.87450759860692" lon="9.917948503250988"><ele>541.1666666666667</ele><time>2026-04-26T08:58:53Z</time></trkpt><trkpt lat="45.87446063937043" lon="9.917849786220104"><ele>541.3333333333334</ele><time>2026-04-26T08:58:54Z</time></trkpt><trkpt lat="45.874414645725146" lon="9.917749601889179"><ele>541.5</ele><time>2026-04-26T08:58:55Z</time></trkpt><trkpt lat="45.874369730079735" lon="9.91765050550062"><ele>541.6666666666666</ele><time>2026-04-26T08:58:56Z</time></trkpt><trkpt lat="45.87432374828144" lon="9.917550639611562"><ele>541.8333333333333</ele><time>2026-04-26T08:58:57Z</time></trkpt><trkpt lat="45.874275675017046" lon="9.917453286586799"><ele>542.0</ele><time>2026-04-26T08:58:58Z</time></trkpt><trkpt lat="45.87423085597578" lon="9.917355939683727"><ele>540.5</ele><time>2026-04-26T08:58:59Z</time></trkpt><trkpt lat="45.874184476119815" lon="9.917259806696798"><ele>539.0</ele><time>2026-04-26T08:59:00Z</time></trkpt><trkpt lat="45.874139976090156" lon="9.917163383476755"><ele>537.5</ele><time>2026-04-26T08:59:01Z</time></trkpt><trkpt lat="45.874094484056016" lon="9.917068875297625"><ele>536.0</ele><time>2026-04-26T08:59:02Z</time></trkpt><trkpt lat="45.8740487273191" lon="9.916974367379202"><ele>534.5</ele><time>2026-04-26T08:59:03Z</time></trkpt><trkpt lat="45.874005924671636" lon="9.916879450845544"><ele>533.0</ele><time>2026-04-26T08:59:04Z</time></trkpt><trkpt lat="45.87396017971614" lon="9.916781550987437"><ele>533.5</ele><time>2026-04-26T08:59:05Z</time></trkpt><trkpt lat="45.8739155006885" lon="9.916682539064713"><ele>534.0</ele><time>2026-04-26T08:59:06Z</time></trkpt><trkpt lat="45.87387030530694" lon="9.916584615012033"><ele>534.5</ele><time>2026-04-26T08:59:07Z</time></trkpt><trkpt lat="45.873821191983815" lon="9.916487305453208"><ele>535.0</ele><time>2026-04-26T08:59:08Z</time></trkpt><trkpt lat="45.87377294668801" lon="9.916391883317587"><ele>535.5</ele><time>2026-04-26T08:59:09Z</time></trkpt><trkpt lat="45.873727093149476" lon="9.916296079652735"><ele>536.0</ele><time>2026-04-26T08:59:10Z</time></trkpt><trkpt lat="45.87368414657702" lon="9.91620064707858"><ele>536.0</ele><time>2026-04-26T08:59:11Z</time></trkpt><trkpt lat="45.87363865161127" lon="9.916105550526538"><ele>536.0</ele><time>2026-04-26T08:59:12Z</time></trkpt><trkpt lat="45.873593308106955" lon="9.916008913681654"><ele>536.0</ele><time>2026-04-26T08:59:13Z</time></trkpt><trkpt lat="45.87355142945344" lon="9.915909632599881"><ele>536.0</ele><time>2026-04-26T08:59:14Z</time></trkpt><trkpt lat="45.87351079145575" lon="9.91580635251044"><ele>536.0</ele><time>2026-04-26T08:59:15Z</time></trkpt><trkpt lat="45.873475011486725" lon="9.915701815220734"><ele>536.0</ele><time>2026-04-26T08:59:16Z</time></trkpt><trkpt lat="45.87343946280467" lon="9.915594424254724"><ele>535.8333333333333</ele><time>2026-04-26T08:59:17Z</time></trkpt><trkpt lat="45.87340466363401" lon="9.91548612852389"><ele>535.6666666666666</ele><time>2026-04-26T08:59:18Z</time></trkpt><trkpt lat="45.87337510562095" lon="9.91538001654839"><ele>535.5</ele><time>2026-04-26T08:59:19Z</time></trkpt><trkpt lat="45.87335488941157" lon="9.915273333165986"><ele>535.3333333333334</ele><time>2026-04-26T08:59:20Z</time></trkpt><trkpt lat="45.873341432592085" lon="9.915177912853999"><ele>535.1666666666667</ele><time>2026-04-26T08:59:21Z</time></trkpt><trkpt lat="45.873323905368295" lon="9.915011361779976"><ele>535.0</ele><time>2026-04-26T08:59:23Z</time></trkpt><trkpt lat="45.87332032564054" lon="9.914863158891979"><ele>534.5</ele><time>2026-04-26T08:59:25Z</time></trkpt><trkpt lat="45.87331069455481" lon="9.914770435210071"><ele>534.0</ele><time>2026-04-26T08:59:26Z</time></trkpt><trkpt lat="45.87329582585893" lon="9.914667568878114"><ele>533.5</ele><time>2026-04-26T08:59:27Z</time></trkpt><trkpt lat="45.87328614637848" lon="9.91457621841095"><ele>533.0</ele><time>2026-04-26T08:59:28Z</time></trkpt><trkpt lat="45.873281468118016" lon="9.914474458375812"><ele>532.5</ele><time>2026-04-26T08:59:31Z</time></trkpt><trkpt lat="45.873267964393925" lon="9.914328270470856"><ele>532.0</ele><time>2026-04-26T08:59:33Z</time></trkpt><trkpt lat="45.87325551244188" lon="9.914143529288442"><ele>531.4285714285714</ele><time>2026-04-26T08:59:35Z</time></trkpt><trkpt lat="45.873250099107395" lon="9.914044791739737"><ele>530.8571428571429</ele><time>2026-04-26T08:59:36Z</time></trkpt><trkpt lat="45.87324329703458" lon="9.913942897243695"><ele>530.2857142857142</ele><time>2026-04-26T08:59:37Z</time></trkpt><trkpt lat="45.873238621311444" lon="9.91384452911008"><ele>529.7142857142858</ele><time>2026-04-26T08:59:38Z</time></trkpt><trkpt lat="45.873233245439806" lon="9.913742850649596"><ele>529.1428571428571</ele><time>2026-04-26T08:59:39Z</time></trkpt><trkpt lat="45.87322915926905" lon="9.91364201878394"><ele>528.5714285714286</ele><time>2026-04-26T08:59:40Z</time></trkpt><trkpt lat="45.87322524461134" lon="9.913539628148003"><ele>528.0</ele><time>2026-04-26T08:59:41Z</time></trkpt><trkpt lat="45.87321972244317" lon="9.913434976881124"><ele>528.0</ele><time>2026-04-26T08:59:42Z</time></trkpt><trkpt lat="45.87321424593533" lon="9.91332927823865"><ele>528.0</ele><time>2026-04-26T08:59:43Z</time></trkpt><trkpt lat="45.873209087616274" lon="9.913224200620151"><ele>528.0</ele><time>2026-04-26T08:59:44Z</time></trkpt><trkpt lat="45.87320287972532" lon="9.913115580122593"><ele>528.0</ele><time>2026-04-26T08:59:45Z</time></trkpt><trkpt lat="45.873198571615504" lon="9.913008331091959"><ele>528.0</ele><time>2026-04-26T08:59:46Z</time></trkpt><trkpt lat="45.87319536592195" lon="9.912898431172142"><ele>528.0</ele><time>2026-04-26T08:59:47Z</time></trkpt><trkpt lat="45.87319067072217" lon="9.912789526380518"><ele>528.0</ele><time>2026-04-26T08:59:48Z</time></trkpt><trkpt lat="45.87318713031956" lon="9.91267952745825"><ele>528.0</ele><time>2026-04-26T08:59:49Z</time></trkpt><trkpt lat="45.87318393832152" lon="9.91256947622296"><ele>528.0</ele><time>2026-04-26T08:59:50Z</time></trkpt><trkpt lat="45.873180423267684" lon="9.912458885128515"><ele>528.0</ele><time>2026-04-26T08:59:51Z</time></trkpt><trkpt lat="45.87317574574957" lon="9.912349031315037"><ele>528.0</ele><time>2026-04-26T08:59:52Z</time></trkpt><trkpt lat="45.87316869729678" lon="9.9122378580293"><ele>528.0</ele><time>2026-04-26T08:59:53Z</time></trkpt><trkpt lat="45.87316061469566" lon="9.912129273165819"><ele>528.1666666666666</ele><time>2026-04-26T08:59:54Z</time></trkpt><trkpt lat="45.87315337982454" lon="9.912016809046438"><ele>528.3333333333334</ele><time>2026-04-26T08:59:55Z</time></trkpt><trkpt lat="45.873143547919724" lon="9.911904727121131"><ele>528.5</ele><time>2026-04-26T08:59:56Z</time></trkpt><trkpt lat="45.87313589867596" lon="9.911792460848915"><ele>528.6666666666667</ele><time>2026-04-26T08:59:57Z</time></trkpt><trkpt lat="45.87312924680743" lon="9.911681041623826"><ele>528.8333333333334</ele><time>2026-04-26T08:59:58Z</time></trkpt><trkpt lat="45.87312530389495" lon="9.91156683138523"><ele>529.0</ele><time>2026-04-26T08:59:59Z</time></trkpt><trkpt lat="45.87313806490586" lon="9.911456763872813"><ele>529.0</ele><time>2026-04-26T09:00:00Z</time></trkpt><trkpt lat="45.87311872282088" lon="9.911341661530457"><ele>529.0</ele><time>2026-04-26T09:00:01Z</time></trkpt><trkpt lat="45.87310933326381" lon="9.911228272125506"><ele>529.0</ele><time>2026-04-26T09:00:02Z</time></trkpt><trkpt lat="45.87310367981508" lon="9.911114281884265"><ele>529.0</ele><time>2026-04-26T09:00:03Z</time></trkpt><trkpt lat="45.873096397929764" lon="9.910998150239354"><ele>529.0</ele><time>2026-04-26T09:00:04Z</time></trkpt><trkpt lat="45.873090256809434" lon="9.910884421692963"><ele>529.0</ele><time>2026-04-26T09:00:05Z</time></trkpt><trkpt lat="45.873083464117094" lon="9.910767699984298"><ele>528.8333333333334</ele><time>2026-04-26T09:00:06Z</time></trkpt><trkpt lat="45.87307372491712" lon="9.910651797979323"><ele>528.6666666666667</ele><time>2026-04-26T09:00:07Z</time></trkpt><trkpt lat="45.873067914326086" lon="9.910534876267887"><ele>528.5</ele><time>2026-04-26T09:00:08Z</time></trkpt><trkpt lat="45.87305968734071" lon="9.910420989814174"><ele>528.3333333333334</ele><time>2026-04-26T09:00:09Z</time></trkpt><trkpt lat="45.87304977382932" lon="9.910302664728102"><ele>528.1666666666666</ele><time>2026-04-26T09:00:10Z</time></trkpt><trkpt lat="45.87304112457712" lon="9.91018609177986"><ele>528.0</ele><time>2026-04-26T09:00:11Z</time></trkpt><trkpt lat="45.87303426404478" lon="9.910069101081026"><ele>528.0</ele><time>2026-04-26T09:00:12Z</time></trkpt><trkpt lat="45.87302173004059" lon="9.909952413734166"><ele>528.0</ele><time>2026-04-26T09:00:13Z</time></trkpt><trkpt lat="45.873014918228534" lon="9.909836607515553"><ele>528.0</ele><time>2026-04-26T09:00:14Z</time></trkpt><trkpt lat="45.87300381955237" lon="9.909723943356214"><ele>528.0</ele><time>2026-04-26T09:00:15Z</time></trkpt><trkpt lat="45.87300185253435" lon="9.90960882561334"><ele>528.0</ele><time>2026-04-26T09:00:16Z</time></trkpt><trkpt lat="45.87300338602085" lon="9.90949633854344"><ele>528.0</ele><time>2026-04-26T09:00:17Z</time></trkpt><trkpt lat="45.87300171948111" lon="9.909386006117254"><ele>528.0</ele><time>2026-04-26T09:00:18Z</time></trkpt><trkpt lat="45.8729934482109" lon="9.909277133292267"><ele>528.0</ele><time>2026-04-26T09:00:19Z</time></trkpt><trkpt lat="45.872985517556344" lon="9.909168079279329"><ele>528.0</ele><time>2026-04-26T09:00:20Z</time></trkpt><trkpt lat="45.872982361255346" lon="9.909055534390305"><ele>528.0</ele><time>2026-04-26T09:00:21Z</time></trkpt><trkpt lat="45.8729733133127" lon="9.908945359759699"><ele>528.0</ele><time>2026-04-26T09:00:22Z</time></trkpt><trkpt lat="45.8729685420661" lon="9.908827071042332"><ele>528.0</ele><time>2026-04-26T09:00:23Z</time></trkpt><trkpt lat="45.87296275989228" lon="9.908711195208037"><ele>527.6666666666666</ele><time>2026-04-26T09:00:24Z</time></trkpt><trkpt lat="45.872954995826085" lon="9.90859422991499"><ele>527.3333333333334</ele><time>2026-04-26T09:00:25Z</time></trkpt><trkpt lat="45.87294603372248" lon="9.90847532147677"><ele>527.0</ele><time>2026-04-26T09:00:26Z</time></trkpt><trkpt lat="45.872937099239024" lon="9.908355503400157"><ele>526.6666666666667</ele><time>2026-04-26T09:00:27Z</time></trkpt><trkpt lat="45.87293196778331" lon="9.908240570597279"><ele>526.3333333333334</ele><time>2026-04-26T09:00:28Z</time></trkpt><trkpt lat="45.872927496783696" lon="9.908119332892511"><ele>526.0</ele><time>2026-04-26T09:00:29Z</time></trkpt><trkpt lat="45.87292092642755" lon="9.907999116156201"><ele>525.1666666666667</ele><time>2026-04-26T09:00:30Z</time></trkpt><trkpt lat="45.872913461703384" lon="9.907879040239324"><ele>524.3333333333334</ele><time>2026-04-26T09:00:31Z</time></trkpt><trkpt lat="45.87290290040981" lon="9.907757764217836"><ele>523.5</ele><time>2026-04-26T09:00:32Z</time></trkpt><trkpt lat="45.87289876786667" lon="9.907637542284819"><ele>522.6666666666666</ele><time>2026-04-26T09:00:33Z</time></trkpt><trkpt lat="45.87289264366613" lon="9.90751735051521"><ele>521.8333333333333</ele><time>2026-04-26T09:00:34Z</time></trkpt><trkpt lat="45.87288481817242" lon="9.907398658181682"><ele>521.0</ele><time>2026-04-26T09:00:35Z</time></trkpt><trkpt lat="45.872878129044956" lon="9.907278442454379"><ele>519.6666666666666</ele><time>2026-04-26T09:00:36Z</time></trkpt><trkpt lat="45.872870957208114" lon="9.907158844910319"><ele>518.3333333333333</ele><time>2026-04-26T09:00:37Z</time></trkpt><trkpt lat="45.87286244611783" lon="9.90703794211056"><ele>517.0</ele><time>2026-04-26T09:00:38Z</time></trkpt><trkpt lat="45.872855279678994" lon="9.906916643500484"><ele>515.6666666666666</ele><time>2026-04-26T09:00:39Z</time></trkpt><trkpt lat="45.872846760894404" lon="9.906795122334954"><ele>514.3333333333334</ele><time>2026-04-26T09:00:40Z</time></trkpt><trkpt lat="45.87283848973742" lon="9.906676921407547"><ele>513.0</ele><time>2026-04-26T09:00:41Z</time></trkpt><trkpt lat="45.87282886626361" lon="9.906559903620618"><ele>513.0000000000001</ele><time>2026-04-26T09:00:42Z</time></trkpt><trkpt lat="45.87282097287863" lon="9.906450565155343"><ele>513.0</ele><time>2026-04-26T09:00:43Z</time></trkpt><trkpt lat="45.8728139575675" lon="9.906343675692993"><ele>513.0</ele><time>2026-04-26T09:00:44Z</time></trkpt><trkpt lat="45.87280307088114" lon="9.90623838619444"><ele>513.0</ele><time>2026-04-26T09:00:45Z</time></trkpt><trkpt lat="45.87278291409078" lon="9.90613067145869"><ele>513.0</ele><time>2026-04-26T09:00:46Z</time></trkpt><trkpt lat="45.872760798834165" lon="9.906029003947646"><ele>513.0000000000001</ele><time>2026-04-26T09:00:47Z</time></trkpt><trkpt lat="45.872738166260184" lon="9.905932810321017"><ele>513.0</ele><time>2026-04-26T09:00:48Z</time></trkpt><trkpt lat="45.872712419208746" lon="9.905835247257269"><ele>513.0</ele><time>2026-04-26T09:00:49Z</time></trkpt><trkpt lat="45.872675357680535" lon="9.9057160583861"><ele>513.0</ele><time>2026-04-26T09:00:50Z</time></trkpt><trkpt lat="45.87262853401147" lon="9.905609614338749"><ele>513.0</ele><time>2026-04-26T09:00:51Z</time></trkpt><trkpt lat="45.87257883763357" lon="9.905515335664274"><ele>513.0</ele><time>2026-04-26T09:00:52Z</time></trkpt><trkpt lat="45.872528267265004" lon="9.905419115054436"><ele>513.0</ele><time>2026-04-26T09:00:53Z</time></trkpt><trkpt lat="45.8724842033394" lon="9.90532148231816"><ele>513.0</ele><time>2026-04-26T09:00:54Z</time></trkpt><trkpt lat="45.8724429751434" lon="9.905234225761548"><ele>512.8333333333334</ele><time>2026-04-26T09:00:55Z</time></trkpt><trkpt lat="45.87239950684097" lon="9.905147129772773"><ele>512.6666666666666</ele><time>2026-04-26T09:00:56Z</time></trkpt><trkpt lat="45.872357385820955" lon="9.905060544715608"><ele>512.5</ele><time>2026-04-26T09:00:57Z</time></trkpt><trkpt lat="45.87232269310396" lon="9.904964033267206"><ele>512.3333333333333</ele><time>2026-04-26T09:00:58Z</time></trkpt><trkpt lat="45.8722931512571" lon="9.9048642969311"><ele>512.1666666666666</ele><time>2026-04-26T09:00:59Z</time></trkpt><trkpt lat="45.87226590311195" lon="9.904757586775796"><ele>512.0</ele><time>2026-04-26T09:01:00Z</time></trkpt><trkpt lat="45.87223839903691" lon="9.904652642335838"><ele>511.49999999999994</ele><time>2026-04-26T09:01:01Z</time></trkpt><trkpt lat="45.87221716699053" lon="9.904545006078505"><ele>511.0</ele><time>2026-04-26T09:01:02Z</time></trkpt><trkpt lat="45.872202170679664" lon="9.904434064597488"><ele>510.5</ele><time>2026-04-26T09:01:03Z</time></trkpt><trkpt lat="45.87218801341423" lon="9.904324761543867"><ele>510.0</ele><time>2026-04-26T09:01:04Z</time></trkpt><trkpt lat="45.872181203656" lon="9.904219094677185"><ele>509.49999999999994</ele><time>2026-04-26T09:01:05Z</time></trkpt><trkpt lat="45.87218267751066" lon="9.904109190301439"><ele>509.0</ele><time>2026-04-26T09:01:06Z</time></trkpt><trkpt lat="45.87218650444249" lon="9.90400102285302"><ele>508.42857142857133</ele><time>2026-04-26T09:01:07Z</time></trkpt><trkpt lat="45.87218743335567" lon="9.90389299580815"><ele>507.85714285714283</ele><time>2026-04-26T09:01:08Z</time></trkpt><trkpt lat="45.87218785879357" lon="9.903789621405538"><ele>507.2857142857142</ele><time>2026-04-26T09:01:09Z</time></trkpt><trkpt lat="45.87219285550366" lon="9.903681600365736"><ele>506.71428571428567</ele><time>2026-04-26T09:01:10Z</time></trkpt><trkpt lat="45.87219335387007" lon="9.903574251936098"><ele>506.1428571428571</ele><time>2026-04-26T09:01:11Z</time></trkpt><trkpt lat="45.87219769558088" lon="9.903469884714276"><ele>505.57142857142856</ele><time>2026-04-26T09:01:12Z</time></trkpt><trkpt lat="45.8722016663021" lon="9.9033613936034"><ele>505.0</ele><time>2026-04-26T09:01:13Z</time></trkpt><trkpt lat="45.87221150644327" lon="9.903256096339652"><ele>504.83333333333337</ele><time>2026-04-26T09:01:14Z</time></trkpt><trkpt lat="45.872213741989114" lon="9.903141917829018"><ele>504.6666666666667</ele><time>2026-04-26T09:01:15Z</time></trkpt><trkpt lat="45.87221025663318" lon="9.903031673796024"><ele>504.5</ele><time>2026-04-26T09:01:16Z</time></trkpt><trkpt lat="45.87221153009619" lon="9.90291692802983"><ele>504.33333333333337</ele><time>2026-04-26T09:01:17Z</time></trkpt><trkpt lat="45.87221529441212" lon="9.902803539778514"><ele>504.1666666666667</ele><time>2026-04-26T09:01:18Z</time></trkpt><trkpt lat="45.872213307288696" lon="9.902690566015659"><ele>504.0</ele><time>2026-04-26T09:01:19Z</time></trkpt><trkpt lat="45.872216471691864" lon="9.902575835570714"><ele>502.8333333333333</ele><time>2026-04-26T09:01:20Z</time></trkpt><trkpt lat="45.8722053667529" lon="9.902471882107891"><ele>501.66666666666663</ele><time>2026-04-26T09:01:21Z</time></trkpt><trkpt lat="45.87219659754858" lon="9.902353282384828"><ele>500.5</ele><time>2026-04-26T09:01:22Z</time></trkpt><trkpt lat="45.87218415771334" lon="9.902242732328116"><ele>499.3333333333333</ele><time>2026-04-26T09:01:23Z</time></trkpt><trkpt lat="45.872159085453795" lon="9.902137182114481"><ele>498.16666666666663</ele><time>2026-04-26T09:01:24Z</time></trkpt><trkpt lat="45.87213238219186" lon="9.902034627052076"><ele>497.0</ele><time>2026-04-26T09:01:25Z</time></trkpt><trkpt lat="45.872102781637835" lon="9.901938411154633"><ele>496.99999999999994</ele><time>2026-04-26T09:01:26Z</time></trkpt><trkpt lat="45.87206322082984" lon="9.901849687752183"><ele>497.0</ele><time>2026-04-26T09:01:27Z</time></trkpt><trkpt lat="45.8720086270868" lon="9.901715763786859"><ele>497.0</ele><time>2026-04-26T09:01:29Z</time></trkpt><trkpt lat="45.87194608820208" lon="9.90168052594313"><ele>497.0</ele><time>2026-04-26T09:01:32Z</time></trkpt><trkpt lat="45.87191490792394" lon="9.90154663850352"><ele>496.99999999999994</ele><time>2026-04-26T09:02:03Z</time></trkpt><trkpt lat="45.87188175209535" lon="9.901439555946027"><ele>497.0</ele><time>2026-04-26T09:02:05Z</time></trkpt><trkpt lat="45.87183636839819" lon="9.901308538911868"><ele>496.49999999999994</ele><time>2026-04-26T09:02:07Z</time></trkpt><trkpt lat="45.87177414150202" lon="9.901149602837732"><ele>496.0</ele><time>2026-04-26T09:02:09Z</time></trkpt><trkpt lat="45.87174212120774" lon="9.901066250850928"><ele>495.5</ele><time>2026-04-26T09:02:10Z</time></trkpt><trkpt lat="45.87170783286815" lon="9.900982934795845"><ele>495.0</ele><time>2026-04-26T09:02:11Z</time></trkpt><trkpt lat="45.87167635238546" lon="9.900899088312187"><ele>494.49999999999994</ele><time>2026-04-26T09:02:12Z</time></trkpt><trkpt lat="45.87164214757655" lon="9.90081414673305"><ele>494.0</ele><time>2026-04-26T09:02:13Z</time></trkpt><trkpt lat="45.87160940922748" lon="9.900726833082837"><ele>494.0</ele><time>2026-04-26T09:02:14Z</time></trkpt><trkpt lat="45.87157590024923" lon="9.90063963083987"><ele>494.0</ele><time>2026-04-26T09:02:15Z</time></trkpt><trkpt lat="45.87154133801357" lon="9.900552193474617"><ele>494.0</ele><time>2026-04-26T09:02:16Z</time></trkpt><trkpt lat="45.87150689669299" lon="9.900466078321701"><ele>494.0</ele><time>2026-04-26T09:02:17Z</time></trkpt><trkpt lat="45.87147224228931" lon="9.900377884062097"><ele>494.0</ele><time>2026-04-26T09:02:18Z</time></trkpt><trkpt lat="45.87143553989883" lon="9.900290224502768"><ele>494.0</ele><time>2026-04-26T09:02:19Z</time></trkpt><trkpt lat="45.87139931245067" lon="9.90020216621551"><ele>494.0</ele><time>2026-04-26T09:02:20Z</time></trkpt><trkpt lat="45.87136047247966" lon="9.900114370002129"><ele>493.0</ele><time>2026-04-26T09:02:21Z</time></trkpt><trkpt lat="45.87132129847915" lon="9.900021073893772"><ele>492.0</ele><time>2026-04-26T09:02:22Z</time></trkpt><trkpt lat="45.871284506621244" lon="9.89993052551818"><ele>491.0</ele><time>2026-04-26T09:02:23Z</time></trkpt><trkpt lat="45.871248133486105" lon="9.899837992307207"><ele>490.0</ele><time>2026-04-26T09:02:24Z</time></trkpt><trkpt lat="45.87121274528834" lon="9.899746004351483"><ele>489.0</ele><time>2026-04-26T09:02:25Z</time></trkpt><trkpt lat="45.871172611107916" lon="9.899655012576334"><ele>488.0</ele><time>2026-04-26T09:02:26Z</time></trkpt><trkpt lat="45.87113493882606" lon="9.899564267959201"><ele>487.0</ele><time>2026-04-26T09:02:27Z</time></trkpt><trkpt lat="45.87109719873046" lon="9.89947058024603"><ele>487.0</ele><time>2026-04-26T09:02:28Z</time></trkpt><trkpt lat="45.87105621129716" lon="9.899393332602498"><ele>487.0</ele><time>2026-04-26T09:02:29Z</time></trkpt><trkpt lat="45.87102042515278" lon="9.899295356885714"><ele>487.0</ele><time>2026-04-26T09:02:30Z</time></trkpt><trkpt lat="45.87098274562654" lon="9.899202940337247"><ele>487.0</ele><time>2026-04-26T09:02:31Z</time></trkpt><trkpt lat="45.870951871117036" lon="9.899112709667715"><ele>487.0</ele><time>2026-04-26T09:02:32Z</time></trkpt><trkpt lat="45.870914838387186" lon="9.899022439479792"><ele>487.0</ele><time>2026-04-26T09:02:33Z</time></trkpt><trkpt lat="45.87087581875477" lon="9.898941117129297"><ele>487.0</ele><time>2026-04-26T09:02:34Z</time></trkpt><trkpt lat="45.870843614273106" lon="9.898843105142511"><ele>487.14285714285717</ele><time>2026-04-26T09:02:35Z</time></trkpt><trkpt lat="45.87081053917578" lon="9.898754398255047"><ele>487.2857142857142</ele><time>2026-04-26T09:02:36Z</time></trkpt><trkpt lat="45.87077364304995" lon="9.898659737115397"><ele>487.4285714285714</ele><time>2026-04-26T09:02:37Z</time></trkpt><trkpt lat="45.87074027392234" lon="9.898563497971244"><ele>487.57142857142856</ele><time>2026-04-26T09:02:38Z</time></trkpt><trkpt lat="45.87069919629555" lon="9.898474334199094"><ele>487.71428571428567</ele><time>2026-04-26T09:02:39Z</time></trkpt><trkpt lat="45.87066505992405" lon="9.898379862324978"><ele>487.8571428571428</ele><time>2026-04-26T09:02:40Z</time></trkpt><trkpt lat="45.8706299977717" lon="9.898280237819852"><ele>487.99999999999994</ele><time>2026-04-26T09:02:41Z</time></trkpt><trkpt lat="45.870594065354084" lon="9.898182577649807"><ele>487.99999999999994</ele><time>2026-04-26T09:02:42Z</time></trkpt><trkpt lat="45.870555808112286" lon="9.898088164373558"><ele>488.0</ele><time>2026-04-26T09:02:43Z</time></trkpt><trkpt lat="45.87051916277202" lon="9.897990085228502"><ele>488.0</ele><time>2026-04-26T09:02:44Z</time></trkpt><trkpt lat="45.87047947198306" lon="9.897896170936722"><ele>488.0</ele><time>2026-04-26T09:02:45Z</time></trkpt><trkpt lat="45.87043380701197" lon="9.897807096055596"><ele>487.99999999999994</ele><time>2026-04-26T09:02:46Z</time></trkpt><trkpt lat="45.87040533778073" lon="9.89770836435726"><ele>488.0</ele><time>2026-04-26T09:02:47Z</time></trkpt><trkpt lat="45.87037287130737" lon="9.897617791160808"><ele>485.99999999999994</ele><time>2026-04-26T09:02:48Z</time></trkpt><trkpt lat="45.87034092402318" lon="9.897520826930874"><ele>484.0</ele><time>2026-04-26T09:02:49Z</time></trkpt><trkpt lat="45.87030547667255" lon="9.89743262232286"><ele>481.99999999999994</ele><time>2026-04-26T09:02:50Z</time></trkpt><trkpt lat="45.87027094363077" lon="9.89734531317744"><ele>479.99999999999994</ele><time>2026-04-26T09:02:51Z</time></trkpt><trkpt lat="45.87022878375793" lon="9.897251878876517"><ele>478.0</ele><time>2026-04-26T09:02:52Z</time></trkpt><trkpt lat="45.87018410908736" lon="9.897154343267754"><ele>475.99999999999994</ele><time>2026-04-26T09:02:53Z</time></trkpt><trkpt lat="45.870153151985974" lon="9.897057407194284"><ele>473.99999999999994</ele><time>2026-04-26T09:02:54Z</time></trkpt><trkpt lat="45.87011131343691" lon="9.89695661621739"><ele>474.8333333333333</ele><time>2026-04-26T09:02:55Z</time></trkpt><trkpt lat="45.870072216622404" lon="9.896854523063404"><ele>475.66666666666663</ele><time>2026-04-26T09:02:56Z</time></trkpt><trkpt lat="45.870027462770025" lon="9.896757628389814"><ele>476.5</ele><time>2026-04-26T09:02:57Z</time></trkpt><trkpt lat="45.869986669329755" lon="9.896659791136738"><ele>477.3333333333333</ele><time>2026-04-26T09:02:58Z</time></trkpt><trkpt lat="45.86994187136644" lon="9.89655705998258"><ele>478.16666666666663</ele><time>2026-04-26T09:02:59Z</time></trkpt><trkpt lat="45.86990262946861" lon="9.89645548521011"><ele>479.0</ele><time>2026-04-26T09:03:00Z</time></trkpt><trkpt lat="45.86986253000415" lon="9.896351202504079"><ele>478.99999999999994</ele><time>2026-04-26T09:03:01Z</time></trkpt><trkpt lat="45.86982324948532" lon="9.896248232510644"><ele>479.0</ele><time>2026-04-26T09:03:02Z</time></trkpt><trkpt lat="45.86977982085728" lon="9.896153487167213"><ele>479.0</ele><time>2026-04-26T09:03:03Z</time></trkpt><trkpt lat="45.86974368927196" lon="9.896048830609208"><ele>479.0</ele><time>2026-04-26T09:03:04Z</time></trkpt><trkpt lat="45.869704811394975" lon="9.895950439207265"><ele>478.99999999999994</ele><time>2026-04-26T09:03:05Z</time></trkpt><trkpt lat="45.869665995133666" lon="9.89585157955432"><ele>479.0</ele><time>2026-04-26T09:03:06Z</time></trkpt><trkpt lat="45.86962933413325" lon="9.895752331234226"><ele>477.8333333333333</ele><time>2026-04-26T09:03:07Z</time></trkpt><trkpt lat="45.869593678750746" lon="9.895651795668057"><ele>476.66666666666663</ele><time>2026-04-26T09:03:08Z</time></trkpt><trkpt lat="45.86955757436521" lon="9.895552361652749"><ele>475.5</ele><time>2026-04-26T09:03:09Z</time></trkpt><trkpt lat="45.869516786182274" lon="9.895455089278988"><ele>474.33333333333337</ele><time>2026-04-26T09:03:10Z</time></trkpt><trkpt lat="45.86947682838564" lon="9.895362445756188"><ele>473.1666666666667</ele><time>2026-04-26T09:03:11Z</time></trkpt><trkpt lat="45.86943704358943" lon="9.895264919776054"><ele>472.0</ele><time>2026-04-26T09:03:12Z</time></trkpt><trkpt lat="45.86940206665657" lon="9.895174849124507"><ele>472.1666666666667</ele><time>2026-04-26T09:03:13Z</time></trkpt><trkpt lat="45.86936495337572" lon="9.895075097979186"><ele>472.33333333333337</ele><time>2026-04-26T09:03:14Z</time></trkpt><trkpt lat="45.869326356687154" lon="9.894986859227856"><ele>472.5</ele><time>2026-04-26T09:03:15Z</time></trkpt><trkpt lat="45.869286920645656" lon="9.894893869492675"><ele>472.66666666666663</ele><time>2026-04-26T09:03:16Z</time></trkpt><trkpt lat="45.86924863360498" lon="9.894804051862755"><ele>472.8333333333333</ele><time>2026-04-26T09:03:17Z</time></trkpt><trkpt lat="45.869212867602585" lon="9.894708155447484"><ele>473.0</ele><time>2026-04-26T09:03:18Z</time></trkpt><trkpt lat="45.86917668851861" lon="9.894613839306185"><ele>473.49999999999994</ele><time>2026-04-26T09:03:19Z</time></trkpt><trkpt lat="45.86914003627115" lon="9.894520857300755"><ele>474.0</ele><time>2026-04-26T09:03:20Z</time></trkpt><trkpt lat="45.869109957976946" lon="9.894422247818857"><ele>474.5</ele><time>2026-04-26T09:03:21Z</time></trkpt><trkpt lat="45.86908595837012" lon="9.894318842881844"><ele>475.0</ele><time>2026-04-26T09:03:22Z</time></trkpt><trkpt lat="45.869060891159506" lon="9.894222000608435"><ele>475.49999999999994</ele><time>2026-04-26T09:03:23Z</time></trkpt><trkpt lat="45.86902831002237" lon="9.894134880828071"><ele>476.0</ele><time>2026-04-26T09:03:24Z</time></trkpt><trkpt lat="45.86904015037035" lon="9.89399622367486"><ele>475.99999999999994</ele><time>2026-04-26T09:03:25Z</time></trkpt><trkpt lat="45.86902856450957" lon="9.89388591044444"><ele>476.0</ele><time>2026-04-26T09:03:26Z</time></trkpt><trkpt lat="45.86902601860585" lon="9.89377164008732"><ele>476.0</ele><time>2026-04-26T09:03:27Z</time></trkpt><trkpt lat="45.869033837449315" lon="9.893661993444526"><ele>476.0</ele><time>2026-04-26T09:03:28Z</time></trkpt><trkpt lat="45.869040451780585" lon="9.893546678188027"><ele>475.99999999999994</ele><time>2026-04-26T09:03:29Z</time></trkpt><trkpt lat="45.86905234923238" lon="9.893435319496158"><ele>476.0</ele><time>2026-04-26T09:03:30Z</time></trkpt><trkpt lat="45.86907265004426" lon="9.89332688250422"><ele>475.66666666666663</ele><time>2026-04-26T09:03:31Z</time></trkpt><trkpt lat="45.86909529587126" lon="9.893219565054057"><ele>475.3333333333333</ele><time>2026-04-26T09:03:32Z</time></trkpt><trkpt lat="45.86911378651898" lon="9.893117135015276"><ele>475.0</ele><time>2026-04-26T09:03:33Z</time></trkpt><trkpt lat="45.86913026253683" lon="9.893011585282164"><ele>474.66666666666663</ele><time>2026-04-26T09:03:34Z</time></trkpt><trkpt lat="45.86914367853022" lon="9.892904294523237"><ele>474.3333333333333</ele><time>2026-04-26T09:03:35Z</time></trkpt><trkpt lat="45.86916173850842" lon="9.89280192003993"><ele>474.0</ele><time>2026-04-26T09:03:36Z</time></trkpt><trkpt lat="45.86917832999844" lon="9.892695195993007"><ele>473.99999999999994</ele><time>2026-04-26T09:03:37Z</time></trkpt><trkpt lat="45.86919699965857" lon="9.89259062045285"><ele>474.0</ele><time>2026-04-26T09:03:38Z</time></trkpt><trkpt lat="45.86922281189973" lon="9.892490475825632"><ele>473.99999999999994</ele><time>2026-04-26T09:03:39Z</time></trkpt><trkpt lat="45.86924166125695" lon="9.892386608645674"><ele>473.99999999999994</ele><time>2026-04-26T09:03:40Z</time></trkpt><trkpt lat="45.86925291031297" lon="9.892279464436148"><ele>474.0</ele><time>2026-04-26T09:03:41Z</time></trkpt><trkpt lat="45.86927054483492" lon="9.892175446941758"><ele>473.99999999999994</ele><time>2026-04-26T09:03:42Z</time></trkpt><trkpt lat="45.8692828387858" lon="9.89207433800784"><ele>473.99999999999994</ele><time>2026-04-26T09:03:43Z</time></trkpt><trkpt lat="45.86929014868569" lon="9.891969334182694"><ele>473.42857142857133</ele><time>2026-04-26T09:03:44Z</time></trkpt><trkpt lat="45.86929043035313" lon="9.891868050628565"><ele>472.85714285714283</ele><time>2026-04-26T09:03:45Z</time></trkpt><trkpt lat="45.86928627962644" lon="9.89176760070118"><ele>472.2857142857142</ele><time>2026-04-26T09:03:46Z</time></trkpt><trkpt lat="45.86928230765851" lon="9.891667429840137"><ele>471.71428571428567</ele><time>2026-04-26T09:03:47Z</time></trkpt><trkpt lat="45.869279531174925" lon="9.891567222296372"><ele>471.1428571428571</ele><time>2026-04-26T09:03:48Z</time></trkpt><trkpt lat="45.8692702711758" lon="9.891466417679707"><ele>470.57142857142856</ele><time>2026-04-26T09:03:49Z</time></trkpt><trkpt lat="45.86926069801113" lon="9.891367309256156"><ele>470.0</ele><time>2026-04-26T09:03:50Z</time></trkpt><trkpt lat="45.86925346186774" lon="9.89127073478623"><ele>470.0</ele><time>2026-04-26T09:03:51Z</time></trkpt><trkpt lat="45.86924767706701" lon="9.891175520381589"><ele>469.99999999999994</ele><time>2026-04-26T09:03:52Z</time></trkpt><trkpt lat="45.86923594940965" lon="9.891075109307366"><ele>470.0</ele><time>2026-04-26T09:03:53Z</time></trkpt><trkpt lat="45.86922790711876" lon="9.890977657783713"><ele>470.0</ele><time>2026-04-26T09:03:54Z</time></trkpt><trkpt lat="45.86922223198529" lon="9.890881842647792"><ele>469.99999999999994</ele><time>2026-04-26T09:03:55Z</time></trkpt><trkpt lat="45.869217365134816" lon="9.890786349363513"><ele>470.0</ele><time>2026-04-26T09:03:56Z</time></trkpt><trkpt lat="45.86920310249663" lon="9.890688487563025"><ele>470.0</ele><time>2026-04-26T09:03:57Z</time></trkpt><trkpt lat="45.869178438461155" lon="9.890594686444096"><ele>469.16666666666663</ele><time>2026-04-26T09:03:58Z</time></trkpt><trkpt lat="45.86915396642675" lon="9.890494871797637"><ele>468.3333333333333</ele><time>2026-04-26T09:03:59Z</time></trkpt><trkpt lat="45.86912579948313" lon="9.890393081702545"><ele>467.5</ele><time>2026-04-26T09:04:00Z</time></trkpt><trkpt lat="45.869079247488784" lon="9.890300590931622"><ele>466.66666666666663</ele><time>2026-04-26T09:04:01Z</time></trkpt><trkpt lat="45.86903146680525" lon="9.890206658641116"><ele>465.8333333333333</ele><time>2026-04-26T09:04:02Z</time></trkpt><trkpt lat="45.86898778291517" lon="9.890114090962692"><ele>465.0</ele><time>2026-04-26T09:04:03Z</time></trkpt><trkpt lat="45.86895219799821" lon="9.890013732725551"><ele>464.85714285714283</ele><time>2026-04-26T09:04:04Z</time></trkpt><trkpt lat="45.86891591364141" lon="9.889915202389439"><ele>464.7142857142858</ele><time>2026-04-26T09:04:05Z</time></trkpt><trkpt lat="45.86888464327082" lon="9.889818752126367"><ele>464.5714285714286</ele><time>2026-04-26T09:04:06Z</time></trkpt><trkpt lat="45.8688524829889" lon="9.889724256377265"><ele>464.42857142857144</ele><time>2026-04-26T09:04:07Z</time></trkpt><trkpt lat="45.86882096136158" lon="9.889628276207556"><ele>464.28571428571433</ele><time>2026-04-26T09:04:08Z</time></trkpt><trkpt lat="45.86879291462708" lon="9.88953269498948"><ele>464.1428571428572</ele><time>2026-04-26T09:04:09Z</time></trkpt><trkpt lat="45.86876064292398" lon="9.889440704953124"><ele>464.00000000000006</ele><time>2026-04-26T09:04:10Z</time></trkpt><trkpt lat="45.868726399251784" lon="9.889349080820276"><ele>463.57142857142867</ele><time>2026-04-26T09:04:11Z</time></trkpt><trkpt lat="45.86869428147214" lon="9.889255320792191"><ele>463.14285714285717</ele><time>2026-04-26T09:04:12Z</time></trkpt><trkpt lat="45.86865707710139" lon="9.88916268345128"><ele>462.7142857142858</ele><time>2026-04-26T09:04:13Z</time></trkpt><trkpt lat="45.86862143462376" lon="9.889071952895792"><ele>462.28571428571433</ele><time>2026-04-26T09:04:14Z</time></trkpt><trkpt lat="45.86859103762303" lon="9.888980770022021"><ele>461.8571428571429</ele><time>2026-04-26T09:04:15Z</time></trkpt><trkpt lat="45.86856427981223" lon="9.888887444029569"><ele>461.42857142857144</ele><time>2026-04-26T09:04:16Z</time></trkpt><trkpt lat="45.868535224793554" lon="9.888795037846158"><ele>461.0</ele><time>2026-04-26T09:04:17Z</time></trkpt><trkpt lat="45.86850691847262" lon="9.888694451202875"><ele>461.0</ele><time>2026-04-26T09:04:18Z</time></trkpt><trkpt lat="45.86848154428136" lon="9.888596185474887"><ele>461.00000000000006</ele><time>2026-04-26T09:04:19Z</time></trkpt><trkpt lat="45.868455498961566" lon="9.888498193774241"><ele>461.0</ele><time>2026-04-26T09:04:20Z</time></trkpt><trkpt lat="45.868430180665285" lon="9.888400442619245"><ele>461.0</ele><time>2026-04-26T09:04:21Z</time></trkpt><trkpt lat="45.86840477698112" lon="9.888305400125244"><ele>461.00000000000006</ele><time>2026-04-26T09:04:22Z</time></trkpt><trkpt lat="45.868379257552235" lon="9.888212247407296"><ele>461.0</ele><time>2026-04-26T09:04:23Z</time></trkpt><trkpt lat="45.868355283982254" lon="9.888121936871235"><ele>461.0</ele><time>2026-04-26T09:04:24Z</time></trkpt><trkpt lat="45.86833117628506" lon="9.888034542586709"><ele>461.0</ele><time>2026-04-26T09:04:25Z</time></trkpt><trkpt lat="45.868308160274346" lon="9.887943458263162"><ele>461.00000000000006</ele><time>2026-04-26T09:04:26Z</time></trkpt><trkpt lat="45.86828472367783" lon="9.887853898157362"><ele>461.0</ele><time>2026-04-26T09:04:27Z</time></trkpt><trkpt lat="45.86826943042768" lon="9.887764283986776"><ele>461.0</ele><time>2026-04-26T09:04:28Z</time></trkpt><trkpt lat="45.86825418338857" lon="9.88766797760438"><ele>461.00000000000006</ele><time>2026-04-26T09:04:29Z</time></trkpt><trkpt lat="45.86824239504396" lon="9.88757147673211"><ele>461.0</ele><time>2026-04-26T09:04:30Z</time></trkpt><trkpt lat="45.8682330985256" lon="9.887475898482993"><ele>461.0</ele><time>2026-04-26T09:04:31Z</time></trkpt><trkpt lat="45.86822459712222" lon="9.887379498863565"><ele>460.99999999999994</ele><time>2026-04-26T09:04:32Z</time></trkpt><trkpt lat="45.86821214474376" lon="9.887284835804653"><ele>461.0</ele><time>2026-04-26T09:04:33Z</time></trkpt><trkpt lat="45.86819890069486" lon="9.887193041173214"><ele>461.0</ele><time>2026-04-26T09:04:34Z</time></trkpt><trkpt lat="45.86818734548518" lon="9.887098329071915"><ele>461.0</ele><time>2026-04-26T09:04:35Z</time></trkpt><trkpt lat="45.86817228313724" lon="9.88700810913391"><ele>460.99999999999994</ele><time>2026-04-26T09:04:36Z</time></trkpt><trkpt lat="45.86814455754594" lon="9.886835920536575"><ele>461.0</ele><time>2026-04-26T09:04:38Z</time></trkpt><trkpt lat="45.868133672539095" lon="9.886746768341542"><ele>460.5714285714286</ele><time>2026-04-26T09:04:39Z</time></trkpt><trkpt lat="45.868115642867465" lon="9.886578646303855"><ele>460.1428571428572</ele><time>2026-04-26T09:04:41Z</time></trkpt><trkpt lat="45.86810144120093" lon="9.886489706355581"><ele>459.7142857142857</ele><time>2026-04-26T09:04:42Z</time></trkpt><trkpt lat="45.868084248759956" lon="9.886401971498026"><ele>459.28571428571433</ele><time>2026-04-26T09:04:43Z</time></trkpt><trkpt lat="45.86806453308267" lon="9.886311894862962"><ele>458.8571428571429</ele><time>2026-04-26T09:04:44Z</time></trkpt><trkpt lat="45.86804549837904" lon="9.886223544267061"><ele>458.42857142857144</ele><time>2026-04-26T09:04:45Z</time></trkpt><trkpt lat="45.86802455993773" lon="9.886137043923489"><ele>458.0</ele><time>2026-04-26T09:04:46Z</time></trkpt><trkpt lat="45.86799851908695" lon="9.886053261569392"><ele>458.0</ele><time>2026-04-26T09:04:47Z</time></trkpt><trkpt lat="45.867938419919" lon="9.885897976787392"><ele>458.0</ele><time>2026-04-26T09:04:49Z</time></trkpt><trkpt lat="45.867867814013024" lon="9.885757060055017"><ele>458.0</ele><time>2026-04-26T09:04:51Z</time></trkpt><trkpt lat="45.867792552962804" lon="9.885633355870157"><ele>458.0</ele><time>2026-04-26T09:04:53Z</time></trkpt><trkpt lat="45.86771174768612" lon="9.885519508063275"><ele>457.99999999999994</ele><time>2026-04-26T09:04:55Z</time></trkpt><trkpt lat="45.86761853588374" lon="9.885431841322575"><ele>458.0</ele><time>2026-04-26T09:04:57Z</time></trkpt><trkpt lat="45.867495484680646" lon="9.885390770123937"><ele>458.0</ele><time>2026-04-26T09:04:59Z</time></trkpt><trkpt lat="45.867432194939" lon="9.885382430191783"><ele>458.0</ele><time>2026-04-26T09:05:00Z</time></trkpt><trkpt lat="45.86736801891664" lon="9.885379690141765"><ele>457.99999999999994</ele><time>2026-04-26T09:05:01Z</time></trkpt><trkpt lat="45.86730249658876" lon="9.88537055923149"><ele>458.0</ele><time>2026-04-26T09:05:02Z</time></trkpt><trkpt lat="45.86717544421299" lon="9.885348104276453"><ele>458.42857142857144</ele><time>2026-04-26T09:05:04Z</time></trkpt><trkpt lat="45.86710868427202" lon="9.885340273169684"><ele>458.8571428571429</ele><time>2026-04-26T09:05:05Z</time></trkpt><trkpt lat="45.867041915941755" lon="9.885328439831886"><ele>459.28571428571433</ele><time>2026-04-26T09:05:06Z</time></trkpt><trkpt lat="45.866975606383384" lon="9.885316700075592"><ele>459.7142857142857</ele><time>2026-04-26T09:05:07Z</time></trkpt><trkpt lat="45.86691074385603" lon="9.88530509302016"><ele>460.1428571428572</ele><time>2026-04-26T09:05:08Z</time></trkpt><trkpt lat="45.86684673937283" lon="9.885290397523482"><ele>460.5714285714286</ele><time>2026-04-26T09:05:09Z</time></trkpt><trkpt lat="45.86677924978447" lon="9.885278488800266"><ele>461.0</ele><time>2026-04-26T09:05:10Z</time></trkpt><trkpt lat="45.86671655774629" lon="9.885268736643948"><ele>461.20000000000005</ele><time>2026-04-26T09:05:11Z</time></trkpt><trkpt lat="45.86664984302383" lon="9.88526047001572"><ele>461.40000000000003</ele><time>2026-04-26T09:05:12Z</time></trkpt><trkpt lat="45.86652427095088" lon="9.885243540878268"><ele>461.6</ele><time>2026-04-26T09:05:14Z</time></trkpt><trkpt lat="45.86639473228381" lon="9.885223212345107"><ele>461.8</ele><time>2026-04-26T09:05:16Z</time></trkpt><trkpt lat="45.86632705947883" lon="9.885213270067181"><ele>462.0</ele><time>2026-04-26T09:05:17Z</time></trkpt><trkpt lat="45.866260060733396" lon="9.885202180110412"><ele>462.0</ele><time>2026-04-26T09:05:18Z</time></trkpt><trkpt lat="45.86619444365198" lon="9.885193806030165"><ele>462.0</ele><time>2026-04-26T09:05:19Z</time></trkpt><trkpt lat="45.866128658291935" lon="9.885179706358844"><ele>462.0</ele><time>2026-04-26T09:05:20Z</time></trkpt><trkpt lat="45.866063905184" lon="9.88516466647198"><ele>462.0</ele><time>2026-04-26T09:05:21Z</time></trkpt><trkpt lat="45.86599640244263" lon="9.885148823611893"><ele>462.0</ele><time>2026-04-26T09:05:22Z</time></trkpt><trkpt lat="45.86593114655769" lon="9.885139486147024"><ele>462.0</ele><time>2026-04-26T09:05:23Z</time></trkpt><trkpt lat="45.86586624077724" lon="9.88512740118329"><ele>462.0</ele><time>2026-04-26T09:05:24Z</time></trkpt><trkpt lat="45.86580307473707" lon="9.885116834806723"><ele>462.0</ele><time>2026-04-26T09:05:25Z</time></trkpt><trkpt lat="45.8656783140764" lon="9.8851002095648"><ele>462.00000000000006</ele><time>2026-04-26T09:05:27Z</time></trkpt><trkpt lat="45.865563964495976" lon="9.885059726923176"><ele>462.00000000000006</ele><time>2026-04-26T09:05:29Z</time></trkpt><trkpt lat="45.86548652482353" lon="9.884933190582524"><ele>462.0</ele><time>2026-04-26T09:05:31Z</time></trkpt><trkpt lat="45.86546840518373" lon="9.884843318481359"><ele>462.0</ele><time>2026-04-26T09:05:32Z</time></trkpt><trkpt lat="45.865455409605545" lon="9.88475167663772"><ele>461.3333333333333</ele><time>2026-04-26T09:05:33Z</time></trkpt><trkpt lat="45.86543768402635" lon="9.884659369163057"><ele>460.66666666666663</ele><time>2026-04-26T09:05:34Z</time></trkpt><trkpt lat="45.86541815065139" lon="9.884572376068055"><ele>460.0</ele><time>2026-04-26T09:05:35Z</time></trkpt><trkpt lat="45.865394681058476" lon="9.884486917520126"><ele>459.3333333333333</ele><time>2026-04-26T09:05:36Z</time></trkpt><trkpt lat="45.865368776866376" lon="9.884403478867315"><ele>458.66666666666663</ele><time>2026-04-26T09:05:37Z</time></trkpt><trkpt lat="45.86532097224337" lon="9.884253163704965"><ele>458.0</ele><time>2026-04-26T09:05:39Z</time></trkpt><trkpt lat="45.865246026946174" lon="9.884162669589443"><ele>458.0</ele><time>2026-04-26T09:05:41Z</time></trkpt><trkpt lat="45.86512815350294" lon="9.884139452343225"><ele>458.0</ele><time>2026-04-26T09:05:43Z</time></trkpt><trkpt lat="45.86506617901389" lon="9.88411727678"><ele>458.0</ele><time>2026-04-26T09:05:44Z</time></trkpt><trkpt lat="45.86499866608312" lon="9.8840894956892"><ele>458.0</ele><time>2026-04-26T09:05:45Z</time></trkpt><trkpt lat="45.86493533586545" lon="9.884065538848583"><ele>458.0</ele><time>2026-04-26T09:05:46Z</time></trkpt><trkpt lat="45.86487256734353" lon="9.884048679788968"><ele>458.0</ele><time>2026-04-26T09:05:47Z</time></trkpt><trkpt lat="45.86480586967584" lon="9.884039137693998"><ele>458.0</ele><time>2026-04-26T09:05:48Z</time></trkpt><trkpt lat="45.86468776954353" lon="9.88400734795614"><ele>457.49999999999994</ele><time>2026-04-26T09:05:50Z</time></trkpt><trkpt lat="45.86460221597156" lon="9.88393905479043"><ele>457.0</ele><time>2026-04-26T09:05:52Z</time></trkpt><trkpt lat="45.86451486235174" lon="9.883889510832844"><ele>456.5</ele><time>2026-04-26T09:05:54Z</time></trkpt><trkpt lat="45.86445486545881" lon="9.883849207724005"><ele>456.0</ele><time>2026-04-26T09:05:55Z</time></trkpt><trkpt lat="45.86439819772972" lon="9.88379788470646"><ele>455.49999999999994</ele><time>2026-04-26T09:05:56Z</time></trkpt><trkpt lat="45.86430417437117" lon="9.88370261754947"><ele>455.0</ele><time>2026-04-26T09:05:58Z</time></trkpt><trkpt lat="45.86424211015581" lon="9.883604011040427"><ele>455.0</ele><time>2026-04-26T09:06:00Z</time></trkpt><trkpt lat="45.864139424525796" lon="9.883641497515507"><ele>455.0</ele><time>2026-04-26T09:06:02Z</time></trkpt><trkpt lat="45.86402696874537" lon="9.883577311195143"><ele>455.0</ele><time>2026-04-26T09:06:04Z</time></trkpt><trkpt lat="45.863967135870766" lon="9.883531895773652"><ele>455.0</ele><time>2026-04-26T09:06:05Z</time></trkpt><trkpt lat="45.86391095398591" lon="9.883486644903403"><ele>455.0</ele><time>2026-04-26T09:06:06Z</time></trkpt><trkpt lat="45.86382170920924" lon="9.88338210085856"><ele>454.66666666666663</ele><time>2026-04-26T09:06:08Z</time></trkpt><trkpt lat="45.863766482340004" lon="9.883263416689285"><ele>454.3333333333333</ele><time>2026-04-26T09:06:10Z</time></trkpt><trkpt lat="45.86366241984635" lon="9.883223383310028"><ele>454.0</ele><time>2026-04-26T09:06:12Z</time></trkpt><trkpt lat="45.863606251304496" lon="9.883171055115223"><ele>453.66666666666663</ele><time>2026-04-26T09:06:13Z</time></trkpt><trkpt lat="45.86353834204234" lon="9.883115513992584"><ele>453.3333333333333</ele><time>2026-04-26T09:06:14Z</time></trkpt><trkpt lat="45.863476729240595" lon="9.88306325650377"><ele>453.0</ele><time>2026-04-26T09:06:15Z</time></trkpt><trkpt lat="45.86341423802185" lon="9.883014123726282"><ele>452.71428571428567</ele><time>2026-04-26T09:06:16Z</time></trkpt><trkpt lat="45.863349875819075" lon="9.882968820165376"><ele>452.42857142857144</ele><time>2026-04-26T09:06:17Z</time></trkpt><trkpt lat="45.86328375316375" lon="9.882922650590576"><ele>452.1428571428571</ele><time>2026-04-26T09:06:18Z</time></trkpt><trkpt lat="45.86322000266949" lon="9.882873427185928"><ele>451.85714285714283</ele><time>2026-04-26T09:06:19Z</time></trkpt><trkpt lat="45.86316033951208" lon="9.882818717513002"><ele>451.57142857142856</ele><time>2026-04-26T09:06:20Z</time></trkpt><trkpt lat="45.86310540064513" lon="9.88276562795647"><ele>451.2857142857143</ele><time>2026-04-26T09:06:21Z</time></trkpt><trkpt lat="45.863045796365405" lon="9.882723981317453"><ele>451.0</ele><time>2026-04-26T09:06:22Z</time></trkpt><trkpt lat="45.862982432175585" lon="9.882685596744201"><ele>451.00000000000006</ele><time>2026-04-26T09:06:23Z</time></trkpt><trkpt lat="45.86292334959217" lon="9.882649280044866"><ele>451.0</ele><time>2026-04-26T09:06:24Z</time></trkpt><trkpt lat="45.86286368960891" lon="9.882608305542226"><ele>451.0</ele><time>2026-04-26T09:06:25Z</time></trkpt><trkpt lat="45.862806670427524" lon="9.882560576518387"><ele>451.0</ele><time>2026-04-26T09:06:26Z</time></trkpt><trkpt lat="45.86275015765296" lon="9.882513451857104"><ele>451.00000000000006</ele><time>2026-04-26T09:06:27Z</time></trkpt><trkpt lat="45.86263744438197" lon="9.88243208938435"><ele>451.0</ele><time>2026-04-26T09:06:29Z</time></trkpt><trkpt lat="45.86257781642431" lon="9.88239138250198"><ele>451.1666666666667</ele><time>2026-04-26T09:06:30Z</time></trkpt><trkpt lat="45.862516268946514" lon="9.882355036583249"><ele>451.33333333333337</ele><time>2026-04-26T09:06:31Z</time></trkpt><trkpt lat="45.862452133599554" lon="9.882326321163113"><ele>451.5</ele><time>2026-04-26T09:06:32Z</time></trkpt><trkpt lat="45.862387825695464" lon="9.882308311268138"><ele>451.66666666666663</ele><time>2026-04-26T09:06:33Z</time></trkpt><trkpt lat="45.86232370673979" lon="9.882297390483643"><ele>451.8333333333333</ele><time>2026-04-26T09:06:34Z</time></trkpt><trkpt lat="45.86225979936448" lon="9.882285897423404"><ele>452.0</ele><time>2026-04-26T09:06:35Z</time></trkpt><trkpt lat="45.86213871639608" lon="9.882226450460424"><ele>452.0</ele><time>2026-04-26T09:06:37Z</time></trkpt><trkpt lat="45.86207861818773" lon="9.882190932893106"><ele>452.0</ele><time>2026-04-26T09:06:38Z</time></trkpt><trkpt lat="45.862012972979656" lon="9.882165475397043"><ele>452.0</ele><time>2026-04-26T09:06:39Z</time></trkpt><trkpt lat="45.86195106323445" lon="9.88213896182065"><ele>452.0</ele><time>2026-04-26T09:06:40Z</time></trkpt><trkpt lat="45.86188960135568" lon="9.882105167870693"><ele>452.0</ele><time>2026-04-26T09:06:41Z</time></trkpt><trkpt lat="45.86183109799023" lon="9.882070526992075"><ele>452.0</ele><time>2026-04-26T09:06:42Z</time></trkpt><trkpt lat="45.8617704138682" lon="9.882034917978363"><ele>452.0</ele><time>2026-04-26T09:06:43Z</time></trkpt><trkpt lat="45.861713900666985" lon="9.881993714512143"><ele>452.0</ele><time>2026-04-26T09:06:44Z</time></trkpt><trkpt lat="45.8616574462265" lon="9.881952304054707"><ele>452.00000000000006</ele><time>2026-04-26T09:06:45Z</time></trkpt><trkpt lat="45.86159732483209" lon="9.881913964245804"><ele>452.00000000000006</ele><time>2026-04-26T09:06:46Z</time></trkpt><trkpt lat="45.86148977732788" lon="9.881842615413674"><ele>452.0</ele><time>2026-04-26T09:06:48Z</time></trkpt><trkpt lat="45.86139175421762" lon="9.881763515628917"><ele>452.0</ele><time>2026-04-26T09:06:50Z</time></trkpt><trkpt lat="45.861277599604804" lon="9.881718898412403"><ele>452.0</ele><time>2026-04-26T09:06:52Z</time></trkpt><trkpt lat="45.86120644606954" lon="9.881700656862009"><ele>452.0</ele><time>2026-04-26T09:06:53Z</time></trkpt><trkpt lat="45.86113337350937" lon="9.88167176529461"><ele>452.0</ele><time>2026-04-26T09:06:54Z</time></trkpt><trkpt lat="45.86106289784411" lon="9.881633311524553"><ele>452.0</ele><time>2026-04-26T09:06:55Z</time></trkpt><trkpt lat="45.86100211612853" lon="9.881584391749229"><ele>452.0</ele><time>2026-04-26T09:06:56Z</time></trkpt><trkpt lat="45.86093923951843" lon="9.881536448207218"><ele>452.0</ele><time>2026-04-26T09:06:57Z</time></trkpt><trkpt lat="45.860875388483244" lon="9.881488403309705"><ele>452.0</ele><time>2026-04-26T09:06:58Z</time></trkpt><trkpt lat="45.860809172717204" lon="9.88144779638793"><ele>451.7142857142857</ele><time>2026-04-26T09:06:59Z</time></trkpt><trkpt lat="45.860740516925134" lon="9.881407226879467"><ele>451.42857142857144</ele><time>2026-04-26T09:07:00Z</time></trkpt><trkpt lat="45.86067091526215" lon="9.881368029364877"><ele>451.14285714285717</ele><time>2026-04-26T09:07:01Z</time></trkpt><trkpt lat="45.86060248044978" lon="9.881322436225137"><ele>450.8571428571429</ele><time>2026-04-26T09:07:02Z</time></trkpt><trkpt lat="45.86053998714403" lon="9.881269482669513"><ele>450.57142857142856</ele><time>2026-04-26T09:07:03Z</time></trkpt><trkpt lat="45.86048253509825" lon="9.881216604223727"><ele>450.28571428571433</ele><time>2026-04-26T09:07:04Z</time></trkpt><trkpt lat="45.860425852550975" lon="9.881161660461228"><ele>450.00000000000006</ele><time>2026-04-26T09:07:05Z</time></trkpt><trkpt lat="45.86036409857751" lon="9.881129041554306"><ele>450.0</ele><time>2026-04-26T09:07:06Z</time></trkpt><trkpt lat="45.86030772072303" lon="9.881068504768708"><ele>450.0</ele><time>2026-04-26T09:07:07Z</time></trkpt><trkpt lat="45.860200365524015" lon="9.880974465097811"><ele>450.0</ele><time>2026-04-26T09:07:09Z</time></trkpt><trkpt lat="45.86014610477934" lon="9.880928064862186"><ele>450.0</ele><time>2026-04-26T09:07:10Z</time></trkpt><trkpt lat="45.86009218560022" lon="9.880866404107902"><ele>450.0</ele><time>2026-04-26T09:07:11Z</time></trkpt><trkpt lat="45.85998768255674" lon="9.880763269902406"><ele>449.2</ele><time>2026-04-26T09:07:13Z</time></trkpt><trkpt lat="45.85993222375328" lon="9.880716541587224"><ele>448.4</ele><time>2026-04-26T09:07:14Z</time></trkpt><trkpt lat="45.859878684668885" lon="9.880653815000668"><ele>447.6</ele><time>2026-04-26T09:07:15Z</time></trkpt><trkpt lat="45.85977681594113" lon="9.880543025036772"><ele>446.8</ele><time>2026-04-26T09:07:17Z</time></trkpt><trkpt lat="45.85972950964096" lon="9.880480141093054"><ele>446.0</ele><time>2026-04-26T09:07:18Z</time></trkpt><trkpt lat="45.85963544565937" lon="9.880357032250492"><ele>446.0</ele><time>2026-04-26T09:07:20Z</time></trkpt><trkpt lat="45.85959384179285" lon="9.880287275453114"><ele>446.0</ele><time>2026-04-26T09:07:21Z</time></trkpt><trkpt lat="45.859515733895286" lon="9.88015848989721"><ele>446.0</ele><time>2026-04-26T09:07:23Z</time></trkpt><trkpt lat="45.85943214479584" lon="9.880047380098413"><ele>446.0</ele><time>2026-04-26T09:07:25Z</time></trkpt><trkpt lat="45.859346244328066" lon="9.87993207397563"><ele>446.0</ele><time>2026-04-26T09:07:27Z</time></trkpt><trkpt lat="45.859296822689124" lon="9.879873503173226"><ele>446.25</ele><time>2026-04-26T09:07:28Z</time></trkpt><trkpt lat="45.859204607946396" lon="9.879765951540655"><ele>446.5</ele><time>2026-04-26T09:07:30Z</time></trkpt><trkpt lat="45.85913008606447" lon="9.879647511657717"><ele>446.75</ele><time>2026-04-26T09:07:32Z</time></trkpt><trkpt lat="45.85905517875343" lon="9.87954991658312"><ele>447.0</ele><time>2026-04-26T09:07:34Z</time></trkpt><trkpt lat="45.85893056952291" lon="9.879485895952827"><ele>446.99999999999994</ele><time>2026-04-26T09:07:36Z</time></trkpt><trkpt lat="45.8588658225768" lon="9.879459864301662"><ele>447.0</ele><time>2026-04-26T09:07:37Z</time></trkpt><trkpt lat="45.858797500864874" lon="9.879428655654229"><ele>447.0</ele><time>2026-04-26T09:07:38Z</time></trkpt><trkpt lat="45.85872481837885" lon="9.879402920039038"><ele>447.0</ele><time>2026-04-26T09:07:39Z</time></trkpt><trkpt lat="45.858653975825675" lon="9.879380880133747"><ele>447.0</ele><time>2026-04-26T09:07:40Z</time></trkpt><trkpt lat="45.85858607109839" lon="9.87936228543784"><ele>446.99999999999994</ele><time>2026-04-26T09:07:41Z</time></trkpt><trkpt lat="45.858519715451635" lon="9.87934952152211"><ele>447.0</ele><time>2026-04-26T09:07:42Z</time></trkpt><trkpt lat="45.85845402498344" lon="9.87933406563089"><ele>446.99999999999994</ele><time>2026-04-26T09:07:43Z</time></trkpt><trkpt lat="45.858389892756065" lon="9.879319110866486"><ele>447.0</ele><time>2026-04-26T09:07:44Z</time></trkpt><trkpt lat="45.85832547796684" lon="9.879308157310193"><ele>447.0</ele><time>2026-04-26T09:07:45Z</time></trkpt><trkpt lat="45.85825837634388" lon="9.879298348264417"><ele>447.0</ele><time>2026-04-26T09:07:46Z</time></trkpt><trkpt lat="45.85819325907839" lon="9.879284779987994"><ele>447.0</ele><time>2026-04-26T09:07:47Z</time></trkpt><trkpt lat="45.85812266716619" lon="9.879275211871704"><ele>446.99999999999994</ele><time>2026-04-26T09:07:48Z</time></trkpt><trkpt lat="45.858056574205605" lon="9.879271816983145"><ele>447.0</ele><time>2026-04-26T09:07:49Z</time></trkpt><trkpt lat="45.857988180335425" lon="9.879276637132248"><ele>446.99999999999994</ele><time>2026-04-26T09:07:50Z</time></trkpt><trkpt lat="45.85792085621913" lon="9.879288823933672"><ele>447.0</ele><time>2026-04-26T09:07:51Z</time></trkpt><trkpt lat="45.85785446748546" lon="9.879305471556885"><ele>447.0</ele><time>2026-04-26T09:07:52Z</time></trkpt><trkpt lat="45.857789481575026" lon="9.879324632228283"><ele>447.0</ele><time>2026-04-26T09:07:53Z</time></trkpt><trkpt lat="45.85772622554496" lon="9.879351055720896"><ele>447.0</ele><time>2026-04-26T09:07:54Z</time></trkpt><trkpt lat="45.85766451942369" lon="9.87938266413147"><ele>446.99999999999994</ele><time>2026-04-26T09:07:55Z</time></trkpt><trkpt lat="45.857602592730565" lon="9.879419456395908"><ele>447.0</ele><time>2026-04-26T09:07:56Z</time></trkpt><trkpt lat="45.85753909227704" lon="9.879449174499495"><ele>446.4285714285714</ele><time>2026-04-26T09:07:57Z</time></trkpt><trkpt lat="45.857477456388516" lon="9.879482016781708"><ele>445.85714285714283</ele><time>2026-04-26T09:07:58Z</time></trkpt><trkpt lat="45.85741254052182" lon="9.879509513025315"><ele>445.2857142857143</ele><time>2026-04-26T09:07:59Z</time></trkpt><trkpt lat="45.85734970279437" lon="9.87954227478087"><ele>444.71428571428567</ele><time>2026-04-26T09:08:00Z</time></trkpt><trkpt lat="45.85728491873753" lon="9.87957015011999"><ele>444.14285714285717</ele><time>2026-04-26T09:08:01Z</time></trkpt><trkpt lat="45.857222549678355" lon="9.879602058518724"><ele>443.57142857142856</ele><time>2026-04-26T09:08:02Z</time></trkpt><trkpt lat="45.85715616012025" lon="9.879632014764848"><ele>443.0</ele><time>2026-04-26T09:08:03Z</time></trkpt><trkpt lat="45.85709331996091" lon="9.879661397328505"><ele>442.99999999999994</ele><time>2026-04-26T09:08:04Z</time></trkpt><trkpt lat="45.85702990137943" lon="9.879690057271825"><ele>443.0</ele><time>2026-04-26T09:08:05Z</time></trkpt><trkpt lat="45.856966167252594" lon="9.87972027035776"><ele>443.0</ele><time>2026-04-26T09:08:06Z</time></trkpt><trkpt lat="45.856903691871686" lon="9.879750657293954"><ele>443.0</ele><time>2026-04-26T09:08:07Z</time></trkpt><trkpt lat="45.856788763380784" lon="9.879824411170361"><ele>442.99999999999994</ele><time>2026-04-26T09:08:09Z</time></trkpt><trkpt lat="45.85672598247573" lon="9.879860695411303"><ele>443.0</ele><time>2026-04-26T09:08:10Z</time></trkpt><trkpt lat="45.85665951644351" lon="9.879887258031172"><ele>443.2857142857143</ele><time>2026-04-26T09:08:11Z</time></trkpt><trkpt lat="45.85659664984339" lon="9.87991868172508"><ele>443.57142857142856</ele><time>2026-04-26T09:08:12Z</time></trkpt><trkpt lat="45.85653618098679" lon="9.879967560353096"><ele>443.8571428571429</ele><time>2026-04-26T09:08:13Z</time></trkpt><trkpt lat="45.856479482063676" lon="9.880020784329394"><ele>444.1428571428571</ele><time>2026-04-26T09:08:14Z</time></trkpt><trkpt lat="45.85641723462902" lon="9.880061162286415"><ele>444.4285714285714</ele><time>2026-04-26T09:08:15Z</time></trkpt><trkpt lat="45.8563528564264" lon="9.880099647576499"><ele>444.7142857142857</ele><time>2026-04-26T09:08:16Z</time></trkpt><trkpt lat="45.85628627922732" lon="9.880141277326382"><ele>445.0</ele><time>2026-04-26T09:08:17Z</time></trkpt><trkpt lat="45.85622221923984" lon="9.880182182540004"><ele>445.00000000000006</ele><time>2026-04-26T09:08:18Z</time></trkpt><trkpt lat="45.856151167204835" lon="9.880217009317679"><ele>445.0</ele><time>2026-04-26T09:08:19Z</time></trkpt><trkpt lat="45.856089909322144" lon="9.880261500374663"><ele>445.0</ele><time>2026-04-26T09:08:20Z</time></trkpt><trkpt lat="45.85602005426074" lon="9.880297239155272"><ele>445.0</ele><time>2026-04-26T09:08:21Z</time></trkpt><trkpt lat="45.85595697574411" lon="9.880338895732352"><ele>445.00000000000006</ele><time>2026-04-26T09:08:22Z</time></trkpt><trkpt lat="45.85584567928918" lon="9.880392934641003"><ele>445.0</ele><time>2026-04-26T09:08:24Z</time></trkpt><trkpt lat="45.85572225614227" lon="9.880447403714635"><ele>444.83333333333337</ele><time>2026-04-26T09:08:26Z</time></trkpt><trkpt lat="45.85559106378635" lon="9.880468794824875"><ele>444.6666666666667</ele><time>2026-04-26T09:08:28Z</time></trkpt><trkpt lat="45.8555270875208" lon="9.880470863588009"><ele>444.5</ele><time>2026-04-26T09:08:29Z</time></trkpt><trkpt lat="45.85545647972502" lon="9.880464657280934"><ele>444.33333333333337</ele><time>2026-04-26T09:08:30Z</time></trkpt><trkpt lat="45.85538713617108" lon="9.88046250194767"><ele>444.1666666666667</ele><time>2026-04-26T09:08:31Z</time></trkpt><trkpt lat="45.855318526317554" lon="9.880460413811594"><ele>444.0</ele><time>2026-04-26T09:08:32Z</time></trkpt><trkpt lat="45.855251178711704" lon="9.880473012117719"><ele>444.0</ele><time>2026-04-26T09:08:33Z</time></trkpt><trkpt lat="45.85517472886004" lon="9.880471631999054"><ele>444.0</ele><time>2026-04-26T09:08:34Z</time></trkpt><trkpt lat="45.8551112725574" lon="9.880487168934536"><ele>444.0</ele><time>2026-04-26T09:08:35Z</time></trkpt><trkpt lat="45.85503916486174" lon="9.880495503432158"><ele>444.0</ele><time>2026-04-26T09:08:36Z</time></trkpt><trkpt lat="45.85497488288311" lon="9.880509722441627"><ele>444.0</ele><time>2026-04-26T09:08:37Z</time></trkpt><trkpt lat="45.85490544394898" lon="9.880520986030389"><ele>444.0</ele><time>2026-04-26T09:08:38Z</time></trkpt><trkpt lat="45.8548370653486" lon="9.880537881619745"><ele>444.0</ele><time>2026-04-26T09:08:39Z</time></trkpt><trkpt lat="45.85477091756643" lon="9.880555300806924"><ele>443.7142857142857</ele><time>2026-04-26T09:08:40Z</time></trkpt><trkpt lat="45.854702570324164" lon="9.88057482587165"><ele>443.42857142857144</ele><time>2026-04-26T09:08:41Z</time></trkpt><trkpt lat="45.85463496827172" lon="9.880601349471583"><ele>443.14285714285717</ele><time>2026-04-26T09:08:42Z</time></trkpt><trkpt lat="45.85456952199124" lon="9.880635246244339"><ele>442.8571428571429</ele><time>2026-04-26T09:08:43Z</time></trkpt><trkpt lat="45.854503371484036" lon="9.880669078349056"><ele>442.57142857142856</ele><time>2026-04-26T09:08:44Z</time></trkpt><trkpt lat="45.854436246974316" lon="9.880704274093452"><ele>442.28571428571433</ele><time>2026-04-26T09:08:45Z</time></trkpt><trkpt lat="45.85437525591119" lon="9.88074756888218"><ele>442.0</ele><time>2026-04-26T09:08:46Z</time></trkpt><trkpt lat="45.85430733657636" lon="9.88078245264737"><ele>441.8571428571429</ele><time>2026-04-26T09:08:47Z</time></trkpt><trkpt lat="45.85424679435577" lon="9.880830297634354"><ele>441.7142857142857</ele><time>2026-04-26T09:08:48Z</time></trkpt><trkpt lat="45.854182637407746" lon="9.880864673859167"><ele>441.57142857142856</ele><time>2026-04-26T09:08:49Z</time></trkpt><trkpt lat="45.85411762931704" lon="9.88090588268288"><ele>441.42857142857144</ele><time>2026-04-26T09:08:50Z</time></trkpt><trkpt lat="45.8540548839499" lon="9.880947135375848"><ele>441.2857142857143</ele><time>2026-04-26T09:08:51Z</time></trkpt><trkpt lat="45.85398922291981" lon="9.880986283184775"><ele>441.14285714285717</ele><time>2026-04-26T09:08:52Z</time></trkpt><trkpt lat="45.85392759296313" lon="9.881028055345956"><ele>441.0</ele><time>2026-04-26T09:08:53Z</time></trkpt><trkpt lat="45.85386477287706" lon="9.88107063299844"><ele>441.0</ele><time>2026-04-26T09:08:54Z</time></trkpt><trkpt lat="45.85380011234433" lon="9.881106562450146"><ele>441.0</ele><time>2026-04-26T09:08:55Z</time></trkpt><trkpt lat="45.8537354442931" lon="9.881146336159931"><ele>441.0</ele><time>2026-04-26T09:08:56Z</time></trkpt><trkpt lat="45.85367277785399" lon="9.881183150443382"><ele>441.0</ele><time>2026-04-26T09:08:57Z</time></trkpt><trkpt lat="45.85361047640905" lon="9.881202347508514"><ele>441.0</ele><time>2026-04-26T09:08:58Z</time></trkpt><trkpt lat="45.85354557796422" lon="9.881210511565163"><ele>441.0</ele><time>2026-04-26T09:08:59Z</time></trkpt><trkpt lat="45.85348055293503" lon="9.881274418869237"><ele>441.0</ele><time>2026-04-26T09:09:00Z</time></trkpt><trkpt lat="45.85341544203653" lon="9.881300405964087"><ele>441.57142857142856</ele><time>2026-04-26T09:09:01Z</time></trkpt><trkpt lat="45.853354372314904" lon="9.881330249207826"><ele>442.1428571428571</ele><time>2026-04-26T09:09:02Z</time></trkpt><trkpt lat="45.853292282011566" lon="9.881364677106426"><ele>442.7142857142857</ele><time>2026-04-26T09:09:03Z</time></trkpt><trkpt lat="45.853227665606624" lon="9.881399681597241"><ele>443.2857142857143</ele><time>2026-04-26T09:09:04Z</time></trkpt><trkpt lat="45.8531637060026" lon="9.881422009282163"><ele>443.85714285714283</ele><time>2026-04-26T09:09:05Z</time></trkpt><trkpt lat="45.85309899762417" lon="9.88145121689663"><ele>444.42857142857144</ele><time>2026-04-26T09:09:06Z</time></trkpt><trkpt lat="45.853037200735244" lon="9.881482405352916"><ele>445.0</ele><time>2026-04-26T09:09:07Z</time></trkpt><trkpt lat="45.852974008000814" lon="9.88150986048356"><ele>445.0</ele><time>2026-04-26T09:09:08Z</time></trkpt><trkpt lat="45.85290867738004" lon="9.88153670137982"><ele>445.0</ele><time>2026-04-26T09:09:09Z</time></trkpt><trkpt lat="45.85284683603427" lon="9.881566772219719"><ele>445.0</ele><time>2026-04-26T09:09:10Z</time></trkpt><trkpt lat="45.85278104412657" lon="9.881590635830753"><ele>445.0</ele><time>2026-04-26T09:09:11Z</time></trkpt><trkpt lat="45.85271837061393" lon="9.881613411295056"><ele>445.0</ele><time>2026-04-26T09:09:12Z</time></trkpt><trkpt lat="45.85265556815884" lon="9.881643161215417"><ele>445.0</ele><time>2026-04-26T09:09:13Z</time></trkpt><trkpt lat="45.85259299835137" lon="9.881671031542455"><ele>445.0</ele><time>2026-04-26T09:09:14Z</time></trkpt><trkpt lat="45.85253010312683" lon="9.881695647284829"><ele>445.6666666666667</ele><time>2026-04-26T09:09:15Z</time></trkpt><trkpt lat="45.852465551541364" lon="9.881714220624197"><ele>446.33333333333337</ele><time>2026-04-26T09:09:16Z</time></trkpt><trkpt lat="45.85240084126239" lon="9.88172172296917"><ele>447.0</ele><time>2026-04-26T09:09:17Z</time></trkpt><trkpt lat="45.85233518984725" lon="9.881732408254056"><ele>447.66666666666663</ele><time>2026-04-26T09:09:18Z</time></trkpt><trkpt lat="45.852269269557645" lon="9.881739646896602"><ele>448.3333333333333</ele><time>2026-04-26T09:09:19Z</time></trkpt><trkpt lat="45.85214072946771" lon="9.881757564880191"><ele>449.0</ele><time>2026-04-26T09:09:21Z</time></trkpt><trkpt lat="45.85207734812996" lon="9.881764092001335"><ele>449.2857142857143</ele><time>2026-04-26T09:09:22Z</time></trkpt><trkpt lat="45.85201169707858" lon="9.88176665351913"><ele>449.57142857142856</ele><time>2026-04-26T09:09:23Z</time></trkpt><trkpt lat="45.851947741465914" lon="9.881768111638076"><ele>449.85714285714283</ele><time>2026-04-26T09:09:24Z</time></trkpt><trkpt lat="45.85188150527495" lon="9.881776482025513"><ele>450.1428571428571</ele><time>2026-04-26T09:09:25Z</time></trkpt><trkpt lat="45.85181749097241" lon="9.88178289876162"><ele>450.42857142857144</ele><time>2026-04-26T09:09:26Z</time></trkpt><trkpt lat="45.85175400509051" lon="9.881800402928906"><ele>450.71428571428567</ele><time>2026-04-26T09:09:27Z</time></trkpt><trkpt lat="45.85168981530606" lon="9.881813421460304"><ele>451.0</ele><time>2026-04-26T09:09:28Z</time></trkpt><trkpt lat="45.85162373310733" lon="9.881818919692687"><ele>450.1428571428571</ele><time>2026-04-26T09:09:29Z</time></trkpt><trkpt lat="45.85155704694629" lon="9.881829082235233"><ele>449.28571428571433</ele><time>2026-04-26T09:09:30Z</time></trkpt><trkpt lat="45.85149263926983" lon="9.881836624775968"><ele>448.42857142857144</ele><time>2026-04-26T09:09:31Z</time></trkpt><trkpt lat="45.85142974372648" lon="9.881842309776907"><ele>447.57142857142856</ele><time>2026-04-26T09:09:32Z</time></trkpt><trkpt lat="45.851365655732465" lon="9.881851928739339"><ele>446.71428571428567</ele><time>2026-04-26T09:09:33Z</time></trkpt><trkpt lat="45.85130155230612" lon="9.881863344075931"><ele>445.8571428571429</ele><time>2026-04-26T09:09:34Z</time></trkpt><trkpt lat="45.85123692590862" lon="9.881869559873849"><ele>445.0</ele><time>2026-04-26T09:09:35Z</time></trkpt><trkpt lat="45.851169814155554" lon="9.881881349756389"><ele>445.00000000000006</ele><time>2026-04-26T09:09:36Z</time></trkpt><trkpt lat="45.85110365088812" lon="9.881887975260721"><ele>445.0</ele><time>2026-04-26T09:09:37Z</time></trkpt><trkpt lat="45.85103808860008" lon="9.881891354096943"><ele>445.0</ele><time>2026-04-26T09:09:38Z</time></trkpt><trkpt lat="45.8509680776542" lon="9.881899499748506"><ele>445.0</ele><time>2026-04-26T09:09:39Z</time></trkpt><trkpt lat="45.85090193128429" lon="9.881883524615327"><ele>445.00000000000006</ele><time>2026-04-26T09:09:40Z</time></trkpt><trkpt lat="45.850770202647766" lon="9.881896097851754"><ele>445.0</ele><time>2026-04-26T09:09:42Z</time></trkpt><trkpt lat="45.850642975627814" lon="9.881906402360462"><ele>444.4</ele><time>2026-04-26T09:09:44Z</time></trkpt><trkpt lat="45.850576207264545" lon="9.88191386640224"><ele>443.8</ele><time>2026-04-26T09:09:45Z</time></trkpt><trkpt lat="45.85044705861842" lon="9.881917753483355"><ele>443.20000000000005</ele><time>2026-04-26T09:09:47Z</time></trkpt><trkpt lat="45.850378283498486" lon="9.88191718189006"><ele>442.6</ele><time>2026-04-26T09:09:48Z</time></trkpt><trkpt lat="45.85025047590908" lon="9.881919510583094"><ele>442.0</ele><time>2026-04-26T09:09:50Z</time></trkpt><trkpt lat="45.85018463933651" lon="9.881911582152716"><ele>441.8571428571429</ele><time>2026-04-26T09:09:51Z</time></trkpt><trkpt lat="45.85011728388089" lon="9.881901778386403"><ele>441.7142857142857</ele><time>2026-04-26T09:09:52Z</time></trkpt><trkpt lat="45.850054328840514" lon="9.881886203401448"><ele>441.57142857142856</ele><time>2026-04-26T09:09:53Z</time></trkpt><trkpt lat="45.849988582881046" lon="9.881866444626656"><ele>441.42857142857144</ele><time>2026-04-26T09:09:54Z</time></trkpt><trkpt lat="45.84992278946185" lon="9.88184737852192"><ele>441.2857142857143</ele><time>2026-04-26T09:09:55Z</time></trkpt><trkpt lat="45.84985866886973" lon="9.881823113071848"><ele>441.14285714285717</ele><time>2026-04-26T09:09:56Z</time></trkpt><trkpt lat="45.8497955158383" lon="9.881796878134534"><ele>441.0</ele><time>2026-04-26T09:09:57Z</time></trkpt><trkpt lat="45.84973260689661" lon="9.881767150183226"><ele>441.25</ele><time>2026-04-26T09:09:58Z</time></trkpt><trkpt lat="45.84960750778275" lon="9.881703704827142"><ele>441.5</ele><time>2026-04-26T09:10:00Z</time></trkpt><trkpt lat="45.84949116544176" lon="9.881624015100016"><ele>441.75</ele><time>2026-04-26T09:10:02Z</time></trkpt><trkpt lat="45.84938448141097" lon="9.881547795192384"><ele>442.0</ele><time>2026-04-26T09:10:04Z</time></trkpt><trkpt lat="45.84930148533386" lon="9.88149234585839"><ele>441.1666666666667</ele><time>2026-04-26T09:10:05Z</time></trkpt><trkpt lat="45.849214312339214" lon="9.881382960294918"><ele>440.33333333333337</ele><time>2026-04-26T09:10:07Z</time></trkpt><trkpt lat="45.84916461864664" lon="9.881324348559517"><ele>439.5</ele><time>2026-04-26T09:10:08Z</time></trkpt><trkpt lat="45.849113945412405" lon="9.881262208059747"><ele>438.66666666666663</ele><time>2026-04-26T09:10:09Z</time></trkpt><trkpt lat="45.84906152405992" lon="9.881204324588683"><ele>437.8333333333333</ele><time>2026-04-26T09:10:10Z</time></trkpt><trkpt lat="45.849010746817" lon="9.88114916681208"><ele>437.0</ele><time>2026-04-26T09:10:11Z</time></trkpt><trkpt lat="45.84891669948769" lon="9.881031464635019"><ele>439.20000000000005</ele><time>2026-04-26T09:10:13Z</time></trkpt><trkpt lat="45.848825551900944" lon="9.88091510892362"><ele>441.40000000000003</ele><time>2026-04-26T09:10:15Z</time></trkpt><trkpt lat="45.848735268833536" lon="9.880805065468524"><ele>443.59999999999997</ele><time>2026-04-26T09:10:17Z</time></trkpt><trkpt lat="45.84864208349657" lon="9.88068897157018"><ele>445.79999999999995</ele><time>2026-04-26T09:10:19Z</time></trkpt><trkpt lat="45.84859479730321" lon="9.880624509665864"><ele>448.0</ele><time>2026-04-26T09:10:20Z</time></trkpt><trkpt lat="45.848547455671394" lon="9.880563893379678"><ele>448.0</ele><time>2026-04-26T09:10:21Z</time></trkpt><trkpt lat="45.84849804133211" lon="9.88050397105487"><ele>448.0</ele><time>2026-04-26T09:10:22Z</time></trkpt><trkpt lat="45.848448738522784" lon="9.880442612764751"><ele>448.0</ele><time>2026-04-26T09:10:23Z</time></trkpt><trkpt lat="45.84839905713535" lon="9.880384142627552"><ele>448.0</ele><time>2026-04-26T09:10:24Z</time></trkpt><trkpt lat="45.848348380849906" lon="9.88032400258643"><ele>448.0</ele><time>2026-04-26T09:10:25Z</time></trkpt><trkpt lat="45.84829773026177" lon="9.880263730680019"><ele>448.0</ele><time>2026-04-26T09:10:26Z</time></trkpt><trkpt lat="45.84824761520431" lon="9.880203506953002"><ele>448.0</ele><time>2026-04-26T09:10:27Z</time></trkpt><trkpt lat="45.848195931600536" lon="9.880145602417151"><ele>446.1666666666667</ele><time>2026-04-26T09:10:28Z</time></trkpt><trkpt lat="45.848146089554206" lon="9.88008564467655"><ele>444.33333333333337</ele><time>2026-04-26T09:10:29Z</time></trkpt><trkpt lat="45.84809513180603" lon="9.880025408346023"><ele>442.5</ele><time>2026-04-26T09:10:30Z</time></trkpt><trkpt lat="45.84799579223241" lon="9.87990677650656"><ele>440.66666666666663</ele><time>2026-04-26T09:10:32Z</time></trkpt><trkpt lat="45.84794553282698" lon="9.879849064946628"><ele>438.8333333333333</ele><time>2026-04-26T09:10:33Z</time></trkpt><trkpt lat="45.8478926763626" lon="9.87979695963135"><ele>437.0</ele><time>2026-04-26T09:10:34Z</time></trkpt><trkpt lat="45.847782744224844" lon="9.87970125052456"><ele>436.99999999999994</ele><time>2026-04-26T09:10:36Z</time></trkpt><trkpt lat="45.84766784872074" lon="9.879618949334015"><ele>437.0</ele><time>2026-04-26T09:10:38Z</time></trkpt><trkpt lat="45.84760888365353" lon="9.879583349987355"><ele>437.0</ele><time>2026-04-26T09:10:39Z</time></trkpt><trkpt lat="45.84754577768023" lon="9.879552751885456"><ele>437.0</ele><time>2026-04-26T09:10:40Z</time></trkpt><trkpt lat="45.8474856175057" lon="9.879523671311674"><ele>436.99999999999994</ele><time>2026-04-26T09:10:41Z</time></trkpt><trkpt lat="45.84736610628192" lon="9.87947732042005"><ele>437.0</ele><time>2026-04-26T09:10:43Z</time></trkpt><trkpt lat="45.84725118168401" lon="9.87944329460419"><ele>436.99999999999994</ele><time>2026-04-26T09:10:45Z</time></trkpt><trkpt lat="45.84718729020013" lon="9.879431673148675"><ele>437.0</ele><time>2026-04-26T09:10:46Z</time></trkpt><trkpt lat="45.84712239767758" lon="9.879423317466998"><ele>437.0</ele><time>2026-04-26T09:10:47Z</time></trkpt><trkpt lat="45.84699852957354" lon="9.879426631910043"><ele>437.0</ele><time>2026-04-26T09:10:49Z</time></trkpt><trkpt lat="45.84693342671952" lon="9.879428669449586"><ele>436.99999999999994</ele><time>2026-04-26T09:10:50Z</time></trkpt><trkpt lat="45.84680747727332" lon="9.87944451532904"><ele>437.0</ele><time>2026-04-26T09:10:52Z</time></trkpt><trkpt lat="45.846683593974866" lon="9.879466744545345"><ele>436.40000000000003</ele><time>2026-04-26T09:10:54Z</time></trkpt><trkpt lat="45.8465641908993" lon="9.879491761651868"><ele>435.80000000000007</ele><time>2026-04-26T09:10:56Z</time></trkpt><trkpt lat="45.84644633062676" lon="9.879529594347208"><ele>435.2</ele><time>2026-04-26T09:10:58Z</time></trkpt><trkpt lat="45.84632317434224" lon="9.879560403577694"><ele>434.6</ele><time>2026-04-26T09:11:00Z</time></trkpt><trkpt lat="45.846259676404564" lon="9.879586124286222"><ele>434.0</ele><time>2026-04-26T09:11:01Z</time></trkpt><trkpt lat="45.846137078325526" lon="9.879628191194659"><ele>433.99999999999994</ele><time>2026-04-26T09:11:03Z</time></trkpt><trkpt lat="45.846073989335494" lon="9.879638514893538"><ele>434.0</ele><time>2026-04-26T09:11:04Z</time></trkpt><trkpt lat="45.84601098979353" lon="9.87965844263801"><ele>434.0</ele><time>2026-04-26T09:11:05Z</time></trkpt><trkpt lat="45.84588909465922" lon="9.879707947624865"><ele>434.0</ele><time>2026-04-26T09:11:07Z</time></trkpt><trkpt lat="45.845826375754896" lon="9.87972757359511"><ele>433.99999999999994</ele><time>2026-04-26T09:11:08Z</time></trkpt><trkpt lat="45.845705277276224" lon="9.879752815954545"><ele>434.0</ele><time>2026-04-26T09:11:10Z</time></trkpt><trkpt lat="45.84558302382393" lon="9.879774523447963"><ele>434.4</ele><time>2026-04-26T09:11:12Z</time></trkpt><trkpt lat="45.84546179108213" lon="9.879808160774353"><ele>434.79999999999995</ele><time>2026-04-26T09:11:14Z</time></trkpt><trkpt lat="45.84533644205271" lon="9.879828796843494"><ele>435.20000000000005</ele><time>2026-04-26T09:11:16Z</time></trkpt><trkpt lat="45.84521181024341" lon="9.87983249590621"><ele>435.6</ele><time>2026-04-26T09:11:18Z</time></trkpt><trkpt lat="45.84514786812593" lon="9.879830057884872"><ele>436.0</ele><time>2026-04-26T09:11:19Z</time></trkpt><trkpt lat="45.84502336666216" lon="9.879811696112936"><ele>436.1666666666667</ele><time>2026-04-26T09:11:21Z</time></trkpt><trkpt lat="45.84496056478319" lon="9.879787704649791"><ele>436.33333333333337</ele><time>2026-04-26T09:11:22Z</time></trkpt><trkpt lat="45.84489571210284" lon="9.879753238483717"><ele>436.5</ele><time>2026-04-26T09:11:23Z</time></trkpt><trkpt lat="45.84483299434594" lon="9.879710905519534"><ele>436.66666666666663</ele><time>2026-04-26T09:11:24Z</time></trkpt><trkpt lat="45.844722821804936" lon="9.87963725858545"><ele>436.8333333333333</ele><time>2026-04-26T09:11:26Z</time></trkpt><trkpt lat="45.84465527017074" lon="9.87961418220599"><ele>437.0</ele><time>2026-04-26T09:11:27Z</time></trkpt><trkpt lat="45.84459408541208" lon="9.879533604332211"><ele>437.0</ele><time>2026-04-26T09:11:28Z</time></trkpt><trkpt lat="45.8444909827742" lon="9.87943186088014"><ele>437.0</ele><time>2026-04-26T09:11:30Z</time></trkpt><trkpt lat="45.844387344358395" lon="9.879333534102383"><ele>437.0</ele><time>2026-04-26T09:11:32Z</time></trkpt><trkpt lat="45.8442993047661" lon="9.87922214174541"><ele>437.0</ele><time>2026-04-26T09:11:34Z</time></trkpt><trkpt lat="45.84422656671805" lon="9.879100132763348"><ele>437.1428571428571</ele><time>2026-04-26T09:11:36Z</time></trkpt><trkpt lat="45.844190626727666" lon="9.879023676039386"><ele>437.28571428571433</ele><time>2026-04-26T09:11:37Z</time></trkpt><trkpt lat="45.844153167279494" lon="9.87894305355989"><ele>437.42857142857144</ele><time>2026-04-26T09:11:38Z</time></trkpt><trkpt lat="45.84411526681313" lon="9.878862977317091"><ele>437.57142857142856</ele><time>2026-04-26T09:11:39Z</time></trkpt><trkpt lat="45.84407913791474" lon="9.878782584121243"><ele>437.71428571428567</ele><time>2026-04-26T09:11:40Z</time></trkpt><trkpt lat="45.844053404399375" lon="9.87869387553546"><ele>437.8571428571429</ele><time>2026-04-26T09:11:41Z</time></trkpt><trkpt lat="45.844023869610076" lon="9.8786074083001"><ele>438.0</ele><time>2026-04-26T09:11:42Z</time></trkpt><trkpt lat="45.84399499331624" lon="9.878526537657471"><ele>439.4</ele><time>2026-04-26T09:11:43Z</time></trkpt><trkpt lat="45.843945835467025" lon="9.878364319216244"><ele>440.79999999999995</ele><time>2026-04-26T09:11:45Z</time></trkpt><trkpt lat="45.843910330750234" lon="9.878201205967189"><ele>442.2</ele><time>2026-04-26T09:11:47Z</time></trkpt><trkpt lat="45.84387273359214" lon="9.87802954155756"><ele>443.6</ele><time>2026-04-26T09:11:49Z</time></trkpt><trkpt lat="45.84385701697498" lon="9.877939439423873"><ele>445.0</ele><time>2026-04-26T09:11:50Z</time></trkpt><trkpt lat="45.84384035135942" lon="9.877846574426147"><ele>445.0</ele><time>2026-04-26T09:11:51Z</time></trkpt><trkpt lat="45.8438089300009" lon="9.877673846992785"><ele>445.0</ele><time>2026-04-26T09:11:53Z</time></trkpt><trkpt lat="45.84377481134399" lon="9.877515586717296"><ele>445.0</ele><time>2026-04-26T09:11:55Z</time></trkpt><trkpt lat="45.84373885002295" lon="9.877346365617408"><ele>445.0</ele><time>2026-04-26T09:11:57Z</time></trkpt><trkpt lat="45.84371803674616" lon="9.877255463616411"><ele>445.0</ele><time>2026-04-26T09:11:58Z</time></trkpt><trkpt lat="45.84369278817697" lon="9.877171604114583"><ele>446.0</ele><time>2026-04-26T09:11:59Z</time></trkpt><trkpt lat="45.8436639477124" lon="9.87708870595686"><ele>447.0</ele><time>2026-04-26T09:12:00Z</time></trkpt><trkpt lat="45.84363442135855" lon="9.87700713216731"><ele>448.0</ele><time>2026-04-26T09:12:01Z</time></trkpt><trkpt lat="45.84360543765449" lon="9.876923215027276"><ele>449.0</ele><time>2026-04-26T09:12:02Z</time></trkpt><trkpt lat="45.84357250222324" lon="9.876845072774259"><ele>450.0</ele><time>2026-04-26T09:12:03Z</time></trkpt><trkpt lat="45.843542365769736" lon="9.876764440112138"><ele>451.0</ele><time>2026-04-26T09:12:04Z</time></trkpt><trkpt lat="45.84350792678821" lon="9.876682438760566"><ele>452.0</ele><time>2026-04-26T09:12:05Z</time></trkpt><trkpt lat="45.843469377715564" lon="9.87660323763382"><ele>448.8333333333333</ele><time>2026-04-26T09:12:06Z</time></trkpt><trkpt lat="45.84343499490513" lon="9.876524268637853"><ele>445.66666666666663</ele><time>2026-04-26T09:12:07Z</time></trkpt><trkpt lat="45.8433953270648" lon="9.876449113249281"><ele>442.5</ele><time>2026-04-26T09:12:08Z</time></trkpt><trkpt lat="45.84335243438643" lon="9.876377544435046"><ele>439.33333333333337</ele><time>2026-04-26T09:12:09Z</time></trkpt><trkpt lat="45.84330226784415" lon="9.876318542769553"><ele>436.1666666666667</ele><time>2026-04-26T09:12:10Z</time></trkpt><trkpt lat="45.843222402326006" lon="9.876184190370472"><ele>433.0</ele><time>2026-04-26T09:12:12Z</time></trkpt><trkpt lat="45.843166856543434" lon="9.87603385272056"><ele>435.6666666666667</ele><time>2026-04-26T09:12:14Z</time></trkpt><trkpt lat="45.84311238118637" lon="9.875894578715739"><ele>438.33333333333337</ele><time>2026-04-26T09:12:16Z</time></trkpt><trkpt lat="45.843048236721565" lon="9.875754524192848"><ele>441.0</ele><time>2026-04-26T09:12:18Z</time></trkpt><trkpt lat="45.843011928812814" lon="9.87567534760255"><ele>443.66666666666663</ele><time>2026-04-26T09:12:19Z</time></trkpt><trkpt lat="45.842970412745274" lon="9.875599269263205"><ele>446.3333333333333</ele><time>2026-04-26T09:12:20Z</time></trkpt><trkpt lat="45.842925140458725" lon="9.875528145806594"><ele>449.0</ele><time>2026-04-26T09:12:21Z</time></trkpt><trkpt lat="45.84288178137156" lon="9.875461424564461"><ele>449.0</ele><time>2026-04-26T09:12:22Z</time></trkpt><trkpt lat="45.84283468749621" lon="9.875396929589687"><ele>448.99999999999994</ele><time>2026-04-26T09:12:23Z</time></trkpt><trkpt lat="45.84278830498683" lon="9.875331862912677"><ele>449.0</ele><time>2026-04-26T09:12:24Z</time></trkpt><trkpt lat="45.842743113858546" lon="9.875266105460016"><ele>449.0</ele><time>2026-04-26T09:12:25Z</time></trkpt><trkpt lat="45.842693762484124" lon="9.875204299404238"><ele>448.99999999999994</ele><time>2026-04-26T09:12:26Z</time></trkpt><trkpt lat="45.842641321012785" lon="9.875147296457481"><ele>449.0</ele><time>2026-04-26T09:12:27Z</time></trkpt><trkpt lat="45.84259014075127" lon="9.875088809561102"><ele>449.0</ele><time>2026-04-26T09:12:28Z</time></trkpt><trkpt lat="45.8425410001027" lon="9.875027984204513"><ele>447.3333333333333</ele><time>2026-04-26T09:12:29Z</time></trkpt><trkpt lat="45.84249048865196" lon="9.874969348156599"><ele>445.66666666666663</ele><time>2026-04-26T09:12:30Z</time></trkpt><trkpt lat="45.84243793140189" lon="9.874912625598194"><ele>444.0</ele><time>2026-04-26T09:12:31Z</time></trkpt><trkpt lat="45.84238762974464" lon="9.874857003765841"><ele>442.33333333333337</ele><time>2026-04-26T09:12:32Z</time></trkpt><trkpt lat="45.84233719925018" lon="9.87480164725076"><ele>440.6666666666667</ele><time>2026-04-26T09:12:33Z</time></trkpt><trkpt lat="45.84224148580407" lon="9.874693606882635"><ele>439.0</ele><time>2026-04-26T09:12:35Z</time></trkpt><trkpt lat="45.84213935384963" lon="9.87459758516413"><ele>439.0</ele><time>2026-04-26T09:12:37Z</time></trkpt><trkpt lat="45.84205057224724" lon="9.874489312961876"><ele>439.0</ele><time>2026-04-26T09:12:39Z</time></trkpt><trkpt lat="45.841964687376525" lon="9.874382009947933"><ele>439.0</ele><time>2026-04-26T09:12:41Z</time></trkpt><trkpt lat="45.84188607473826" lon="9.874268807937707"><ele>439.0</ele><time>2026-04-26T09:12:43Z</time></trkpt><trkpt lat="45.84179950032273" lon="9.874158250370165"><ele>437.42857142857144</ele><time>2026-04-26T09:12:45Z</time></trkpt><trkpt lat="45.841747884480924" lon="9.874100188965532"><ele>435.85714285714283</ele><time>2026-04-26T09:12:46Z</time></trkpt><trkpt lat="45.841695097487246" lon="9.874040351672182"><ele>434.28571428571433</ele><time>2026-04-26T09:12:47Z</time></trkpt><trkpt lat="45.84164297006798" lon="9.873983136985707"><ele>432.7142857142857</ele><time>2026-04-26T09:12:48Z</time></trkpt><trkpt lat="45.84159452639594" lon="9.873924775940845"><ele>431.14285714285717</ele><time>2026-04-26T09:12:49Z</time></trkpt><trkpt lat="45.841504471351804" lon="9.873830174118185"><ele>429.5714285714286</ele><time>2026-04-26T09:12:51Z</time></trkpt><trkpt lat="45.84146008911819" lon="9.873765229169726"><ele>428.0</ele><time>2026-04-26T09:12:54Z</time></trkpt><trkpt lat="45.841467219142096" lon="9.873667999903365"><ele>427.99999999999994</ele><time>2026-04-26T09:12:56Z</time></trkpt><trkpt lat="45.84139844439319" lon="9.873545570703484"><ele>428.0</ele><time>2026-04-26T09:12:58Z</time></trkpt><trkpt lat="45.84134480124069" lon="9.873491229285516"><ele>428.0</ele><time>2026-04-26T09:12:59Z</time></trkpt><trkpt lat="45.84129503081103" lon="9.873430487348234"><ele>428.0</ele><time>2026-04-26T09:13:00Z</time></trkpt><trkpt lat="45.84121095102655" lon="9.873297710565293"><ele>427.99999999999994</ele><time>2026-04-26T09:13:02Z</time></trkpt><trkpt lat="45.841170062041975" lon="9.873228964445408"><ele>428.0</ele><time>2026-04-26T09:13:03Z</time></trkpt><trkpt lat="45.84109103230904" lon="9.873088664525277"><ele>427.59999999999997</ele><time>2026-04-26T09:13:05Z</time></trkpt><trkpt lat="45.84102199159221" lon="9.87293995215951"><ele>427.19999999999993</ele><time>2026-04-26T09:13:07Z</time></trkpt><trkpt lat="45.84094736186868" lon="9.872803602356004"><ele>426.8</ele><time>2026-04-26T09:13:09Z</time></trkpt><trkpt lat="45.8409053427715" lon="9.872736088910253"><ele>426.4</ele><time>2026-04-26T09:13:10Z</time></trkpt><trkpt lat="45.84081861715326" lon="9.87260832080411"><ele>426.0</ele><time>2026-04-26T09:13:12Z</time></trkpt><trkpt lat="45.840720995884034" lon="9.872493102781645"><ele>427.3333333333333</ele><time>2026-04-26T09:13:14Z</time></trkpt><trkpt lat="45.840622665080446" lon="9.872392808513496"><ele>428.66666666666663</ele><time>2026-04-26T09:13:16Z</time></trkpt><trkpt lat="45.84052436727439" lon="9.872276874068413"><ele>430.0</ele><time>2026-04-26T09:13:18Z</time></trkpt><trkpt lat="45.84047449055193" lon="9.872220607101081"><ele>431.3333333333333</ele><time>2026-04-26T09:13:19Z</time></trkpt><trkpt lat="45.84042086921401" lon="9.87216780131315"><ele>432.66666666666663</ele><time>2026-04-26T09:13:20Z</time></trkpt><trkpt lat="45.84036781250659" lon="9.872117035709778"><ele>434.0</ele><time>2026-04-26T09:13:21Z</time></trkpt><trkpt lat="45.840271174483036" lon="9.872009256509623"><ele>434.0</ele><time>2026-04-26T09:13:23Z</time></trkpt><trkpt lat="45.84018020379951" lon="9.871907226420188"><ele>434.0</ele><time>2026-04-26T09:13:25Z</time></trkpt><trkpt lat="45.84009823744058" lon="9.871812938276612"><ele>434.0</ele><time>2026-04-26T09:13:27Z</time></trkpt><trkpt lat="45.839993629408156" lon="9.871702138544272"><ele>434.0</ele><time>2026-04-26T09:13:29Z</time></trkpt><trkpt lat="45.83993028087203" lon="9.871659475483172"><ele>434.0</ele><time>2026-04-26T09:13:30Z</time></trkpt><trkpt lat="45.83986864929967" lon="9.871618476438686"><ele>434.66666666666663</ele><time>2026-04-26T09:13:31Z</time></trkpt><trkpt lat="45.83981051727331" lon="9.871569310402728"><ele>435.3333333333333</ele><time>2026-04-26T09:13:32Z</time></trkpt><trkpt lat="45.83976150052922" lon="9.8715116976722"><ele>436.0</ele><time>2026-04-26T09:13:33Z</time></trkpt><trkpt lat="45.83971443958313" lon="9.871448239895326"><ele>436.66666666666663</ele><time>2026-04-26T09:13:34Z</time></trkpt><trkpt lat="45.83966711237445" lon="9.87138579793804"><ele>437.3333333333333</ele><time>2026-04-26T09:13:35Z</time></trkpt><trkpt lat="45.83957354133611" lon="9.87126652681489"><ele>438.0</ele><time>2026-04-26T09:13:37Z</time></trkpt><trkpt lat="45.83948135282928" lon="9.871145575009566"><ele>438.0</ele><time>2026-04-26T09:13:39Z</time></trkpt><trkpt lat="45.83938383619647" lon="9.871028549807562"><ele>438.0</ele><time>2026-04-26T09:13:41Z</time></trkpt><trkpt lat="45.83933334244131" lon="9.87096974130719"><ele>438.0</ele><time>2026-04-26T09:13:42Z</time></trkpt><trkpt lat="45.83928128001937" lon="9.87091255302025"><ele>438.0</ele><time>2026-04-26T09:13:43Z</time></trkpt><trkpt lat="45.83923093556079" lon="9.87085777782122"><ele>438.0</ele><time>2026-04-26T09:13:44Z</time></trkpt><trkpt lat="45.83918204357092" lon="9.870795944502841"><ele>438.0</ele><time>2026-04-26T09:13:45Z</time></trkpt><trkpt lat="45.83913131133935" lon="9.870739201705662"><ele>436.6666666666667</ele><time>2026-04-26T09:13:46Z</time></trkpt><trkpt lat="45.839083291513575" lon="9.870678741924078"><ele>435.33333333333337</ele><time>2026-04-26T09:13:47Z</time></trkpt><trkpt lat="45.83903869504357" lon="9.870614388379336"><ele>434.0</ele><time>2026-04-26T09:13:48Z</time></trkpt><trkpt lat="45.838994639102204" lon="9.870548193020324"><ele>432.6666666666667</ele><time>2026-04-26T09:13:49Z</time></trkpt><trkpt lat="45.83895022296292" lon="9.870479389260888"><ele>431.33333333333337</ele><time>2026-04-26T09:13:50Z</time></trkpt><trkpt lat="45.83886948134783" lon="9.870345025335437"><ele>430.0</ele><time>2026-04-26T09:13:52Z</time></trkpt><trkpt lat="45.83881211025879" lon="9.87019597290181"><ele>431.8</ele><time>2026-04-26T09:13:54Z</time></trkpt><trkpt lat="45.83876585120615" lon="9.870074697650509"><ele>433.6</ele><time>2026-04-26T09:13:56Z</time></trkpt><trkpt lat="45.83872968788366" lon="9.869979402250417"><ele>435.4</ele><time>2026-04-26T09:15:55Z</time></trkpt><trkpt lat="45.838679442250545" lon="9.869889739929812"><ele>437.2</ele><time>2026-04-26T09:15:57Z</time></trkpt><trkpt lat="45.838622571111095" lon="9.869763875425233"><ele>439.0</ele><time>2026-04-26T09:15:59Z</time></trkpt><trkpt lat="45.838551025716995" lon="9.869618702466788"><ele>439.0</ele><time>2026-04-26T09:16:01Z</time></trkpt><trkpt lat="45.838485473843626" lon="9.869481404121819"><ele>439.0</ele><time>2026-04-26T09:16:03Z</time></trkpt><trkpt lat="45.838433252455104" lon="9.869338756731562"><ele>439.0</ele><time>2026-04-26T09:16:05Z</time></trkpt><trkpt lat="45.83839922692269" lon="9.869259229372195"><ele>439.0</ele><time>2026-04-26T09:16:06Z</time></trkpt><trkpt lat="45.838364329786096" lon="9.869180611423367"><ele>439.0</ele><time>2026-04-26T09:16:07Z</time></trkpt><trkpt lat="45.838299341609" lon="9.86903290734489"><ele>439.4</ele><time>2026-04-26T09:16:09Z</time></trkpt><trkpt lat="45.83821532315567" lon="9.868908280223863"><ele>439.79999999999995</ele><time>2026-04-26T09:16:11Z</time></trkpt><trkpt lat="45.83816219759544" lon="9.868849366520491"><ele>440.20000000000005</ele><time>2026-04-26T09:16:12Z</time></trkpt><trkpt lat="45.838087750074074" lon="9.868701497872904"><ele>440.6</ele><time>2026-04-26T09:16:14Z</time></trkpt><trkpt lat="45.83801429582798" lon="9.868569463648624"><ele>441.0</ele><time>2026-04-26T09:16:16Z</time></trkpt><trkpt lat="45.83794355243578" lon="9.868419386883946"><ele>441.0</ele><time>2026-04-26T09:16:18Z</time></trkpt><trkpt lat="45.83790847732776" lon="9.868338533362346"><ele>441.0</ele><time>2026-04-26T09:16:19Z</time></trkpt><trkpt lat="45.83787376300704" lon="9.86826003659371"><ele>441.0</ele><time>2026-04-26T09:16:20Z</time></trkpt><trkpt lat="45.83784143118019" lon="9.868178946583773"><ele>441.0</ele><time>2026-04-26T09:16:21Z</time></trkpt><trkpt lat="45.83780506355256" lon="9.868102003650248"><ele>441.0</ele><time>2026-04-26T09:16:22Z</time></trkpt><trkpt lat="45.83776748957287" lon="9.868025610119588"><ele>441.0</ele><time>2026-04-26T09:16:23Z</time></trkpt><trkpt lat="45.837731920419095" lon="9.867947988380607"><ele>441.0</ele><time>2026-04-26T09:16:24Z</time></trkpt><trkpt lat="45.83769848343569" lon="9.867868371938728"><ele>441.0</ele><time>2026-04-26T09:16:25Z</time></trkpt><trkpt lat="45.83766169536794" lon="9.867792459448626"><ele>441.0</ele><time>2026-04-26T09:16:26Z</time></trkpt><trkpt lat="45.83762135863094" lon="9.867718274809782"><ele>441.0</ele><time>2026-04-26T09:16:27Z</time></trkpt><trkpt lat="45.837581572354175" lon="9.867645944058854"><ele>441.0</ele><time>2026-04-26T09:16:28Z</time></trkpt><trkpt lat="45.837507315028475" lon="9.867498235598019"><ele>441.0</ele><time>2026-04-26T09:16:30Z</time></trkpt><trkpt lat="45.837465047710474" lon="9.867427240992379"><ele>441.0</ele><time>2026-04-26T09:16:31Z</time></trkpt><trkpt lat="45.83741855813188" lon="9.867361544656122"><ele>439.42857142857144</ele><time>2026-04-26T09:16:32Z</time></trkpt><trkpt lat="45.837372827318056" lon="9.867295517127374"><ele>437.8571428571429</ele><time>2026-04-26T09:16:33Z</time></trkpt><trkpt lat="45.837322408847314" lon="9.867232634734469"><ele>436.2857142857143</ele><time>2026-04-26T09:16:34Z</time></trkpt><trkpt lat="45.837273905061" lon="9.867168755537945"><ele>434.7142857142857</ele><time>2026-04-26T09:16:35Z</time></trkpt><trkpt lat="45.83722339270733" lon="9.867105589370569"><ele>433.14285714285717</ele><time>2026-04-26T09:16:36Z</time></trkpt><trkpt lat="45.83717190223495" lon="9.867048390230416"><ele>431.57142857142856</ele><time>2026-04-26T09:16:37Z</time></trkpt><trkpt lat="45.83712341093657" lon="9.866989602505928"><ele>430.0</ele><time>2026-04-26T09:16:38Z</time></trkpt><trkpt lat="45.837032802864215" lon="9.866867831215083"><ele>429.0</ele><time>2026-04-26T09:16:40Z</time></trkpt><trkpt lat="45.83693381825914" lon="9.8667656231204"><ele>428.0</ele><time>2026-04-26T09:16:42Z</time></trkpt><trkpt lat="45.836836914680774" lon="9.866653185036595"><ele>427.0</ele><time>2026-04-26T09:16:44Z</time></trkpt><trkpt lat="45.83678362128852" lon="9.866592212744095"><ele>426.0</ele><time>2026-04-26T09:16:45Z</time></trkpt><trkpt lat="45.83673334889907" lon="9.866531463512828"><ele>425.0</ele><time>2026-04-26T09:16:46Z</time></trkpt><trkpt lat="45.836677600578376" lon="9.86646774872435"><ele>425.0</ele><time>2026-04-26T09:16:47Z</time></trkpt><trkpt lat="45.836623817575585" lon="9.866404107294732"><ele>425.0</ele><time>2026-04-26T09:16:48Z</time></trkpt><trkpt lat="45.8365753208757" lon="9.866337997243864"><ele>425.0</ele><time>2026-04-26T09:16:49Z</time></trkpt><trkpt lat="45.8365251355177" lon="9.86626870997644"><ele>425.0</ele><time>2026-04-26T09:16:50Z</time></trkpt><trkpt lat="45.83647491016624" lon="9.86620162029814"><ele>425.0</ele><time>2026-04-26T09:16:51Z</time></trkpt><trkpt lat="45.83642558604975" lon="9.866134004874239"><ele>425.0</ele><time>2026-04-26T09:16:52Z</time></trkpt><trkpt lat="45.83637234730038" lon="9.866067717262945"><ele>425.0</ele><time>2026-04-26T09:16:53Z</time></trkpt><trkpt lat="45.83632200989886" lon="9.866001707218883"><ele>424.7142857142857</ele><time>2026-04-26T09:16:54Z</time></trkpt><trkpt lat="45.83626945923962" lon="9.865935062362363"><ele>424.42857142857144</ele><time>2026-04-26T09:16:55Z</time></trkpt><trkpt lat="45.83622176821365" lon="9.86586420933379"><ele>424.1428571428571</ele><time>2026-04-26T09:16:56Z</time></trkpt><trkpt lat="45.83616848859979" lon="9.865792313526773"><ele>423.8571428571429</ele><time>2026-04-26T09:16:57Z</time></trkpt><trkpt lat="45.8361203604436" lon="9.865719758749972"><ele>423.5714285714286</ele><time>2026-04-26T09:16:58Z</time></trkpt><trkpt lat="45.83606988570337" lon="9.86565218274226"><ele>423.2857142857143</ele><time>2026-04-26T09:16:59Z</time></trkpt><trkpt lat="45.83601802343476" lon="9.865585629687917"><ele>423.0</ele><time>2026-04-26T09:17:00Z</time></trkpt><trkpt lat="45.83596907153433" lon="9.865519479931253"><ele>423.0</ele><time>2026-04-26T09:17:01Z</time></trkpt><trkpt lat="45.835918077264836" lon="9.86545687970751"><ele>423.0</ele><time>2026-04-26T09:17:02Z</time></trkpt><trkpt lat="45.83586404215952" lon="9.865397891837706"><ele>423.0</ele><time>2026-04-26T09:17:03Z</time></trkpt><trkpt lat="45.835809549374005" lon="9.865342187747508"><ele>423.0</ele><time>2026-04-26T09:17:04Z</time></trkpt><trkpt lat="45.83575380569356" lon="9.865285049011577"><ele>423.0</ele><time>2026-04-26T09:17:05Z</time></trkpt><trkpt lat="45.8356981446694" lon="9.865230692551677"><ele>423.0</ele><time>2026-04-26T09:17:06Z</time></trkpt><trkpt lat="45.8356404352186" lon="9.865178458769691"><ele>423.0</ele><time>2026-04-26T09:17:07Z</time></trkpt><trkpt lat="45.83558262111917" lon="9.865133551948897"><ele>425.7142857142857</ele><time>2026-04-26T09:17:08Z</time></trkpt><trkpt lat="45.83552207679032" lon="9.865090880763121"><ele>428.42857142857144</ele><time>2026-04-26T09:17:09Z</time></trkpt><trkpt lat="45.83546083345537" lon="9.865052416111864"><ele>431.14285714285717</ele><time>2026-04-26T09:17:10Z</time></trkpt><trkpt lat="45.83539981498129" lon="9.865007974040056"><ele>433.8571428571429</ele><time>2026-04-26T09:17:11Z</time></trkpt><trkpt lat="45.83533917656434" lon="9.864964265223628"><ele>436.57142857142856</ele><time>2026-04-26T09:17:12Z</time></trkpt><trkpt lat="45.83527906058852" lon="9.864922805362866"><ele>439.28571428571433</ele><time>2026-04-26T09:17:13Z</time></trkpt><trkpt lat="45.83521921260912" lon="9.864883830696806"><ele>442.0</ele><time>2026-04-26T09:17:14Z</time></trkpt><trkpt lat="45.835157985585774" lon="9.864846711410285"><ele>439.28571428571433</ele><time>2026-04-26T09:17:15Z</time></trkpt><trkpt lat="45.83509694215711" lon="9.864808338774676"><ele>436.57142857142856</ele><time>2026-04-26T09:17:16Z</time></trkpt><trkpt lat="45.83503717642863" lon="9.864767638954447"><ele>433.8571428571429</ele><time>2026-04-26T09:17:17Z</time></trkpt><trkpt lat="45.83497768039169" lon="9.864731778938683"><ele>431.14285714285717</ele><time>2026-04-26T09:17:18Z</time></trkpt><trkpt lat="45.83491604366543" lon="9.864688605958975"><ele>428.42857142857144</ele><time>2026-04-26T09:17:19Z</time></trkpt><trkpt lat="45.8348567986341" lon="9.864647134458115"><ele>425.7142857142857</ele><time>2026-04-26T09:17:20Z</time></trkpt><trkpt lat="45.834797549917205" lon="9.864599205959195"><ele>423.0</ele><time>2026-04-26T09:17:21Z</time></trkpt><trkpt lat="45.834737644720825" lon="9.864557676333824"><ele>423.0</ele><time>2026-04-26T09:17:22Z</time></trkpt><trkpt lat="45.83467584529178" lon="9.864518926648904"><ele>423.0</ele><time>2026-04-26T09:17:23Z</time></trkpt><trkpt lat="45.83461491263751" lon="9.864479114615918"><ele>423.0</ele><time>2026-04-26T09:17:24Z</time></trkpt><trkpt lat="45.83455681723609" lon="9.86443216151841"><ele>423.0</ele><time>2026-04-26T09:17:25Z</time></trkpt><trkpt lat="45.83449335328441" lon="9.864395362721334"><ele>423.0</ele><time>2026-04-26T09:17:26Z</time></trkpt><trkpt lat="45.83443486776992" lon="9.864356800152219"><ele>423.0</ele><time>2026-04-26T09:17:27Z</time></trkpt><trkpt lat="45.83437647513225" lon="9.864315067965201"><ele>423.0</ele><time>2026-04-26T09:17:28Z</time></trkpt><trkpt lat="45.83431822951058" lon="9.86427639379495"><ele>423.8333333333333</ele><time>2026-04-26T09:17:29Z</time></trkpt><trkpt lat="45.83425992228375" lon="9.864237981290973"><ele>424.66666666666663</ele><time>2026-04-26T09:17:30Z</time></trkpt><trkpt lat="45.834148501535665" lon="9.86415829211593"><ele>425.5</ele><time>2026-04-26T09:17:32Z</time></trkpt><trkpt lat="45.8340909672261" lon="9.864118010458567"><ele>426.3333333333333</ele><time>2026-04-26T09:17:33Z</time></trkpt><trkpt lat="45.83403197583155" lon="9.864081037242684"><ele>427.16666666666663</ele><time>2026-04-26T09:17:34Z</time></trkpt><trkpt lat="45.83396777346421" lon="9.864044754086542"><ele>428.0</ele><time>2026-04-26T09:17:35Z</time></trkpt><trkpt lat="45.833906194882196" lon="9.864013505269694"><ele>428.00000000000006</ele><time>2026-04-26T09:17:36Z</time></trkpt><trkpt lat="45.833843495258506" lon="9.863977840273439"><ele>428.0</ele><time>2026-04-26T09:17:37Z</time></trkpt><trkpt lat="45.83378329231034" lon="9.863938211444237"><ele>428.0</ele><time>2026-04-26T09:17:38Z</time></trkpt><trkpt lat="45.83372527887038" lon="9.863894511784329"><ele>428.0</ele><time>2026-04-26T09:17:39Z</time></trkpt><trkpt lat="45.83366792978374" lon="9.863851188486947"><ele>428.0</ele><time>2026-04-26T09:17:40Z</time></trkpt><trkpt lat="45.83360943482099" lon="9.863810071214036"><ele>428.00000000000006</ele><time>2026-04-26T09:17:41Z</time></trkpt><trkpt lat="45.83354705506308" lon="9.863775939903164"><ele>428.0</ele><time>2026-04-26T09:17:41.999Z</time></trkpt><trkpt lat="45.833485740123955" lon="9.863741798153017"><ele>426.5714285714286</ele><time>2026-04-26T09:17:42.999Z</time></trkpt><trkpt lat="45.83342418419186" lon="9.863706601890534"><ele>425.14285714285717</ele><time>2026-04-26T09:17:43.999Z</time></trkpt><trkpt lat="45.83336276923937" lon="9.863675212523836"><ele>423.7142857142857</ele><time>2026-04-26T09:17:44.999Z</time></trkpt><trkpt lat="45.83330087903949" lon="9.8636415836098"><ele>422.28571428571433</ele><time>2026-04-26T09:17:45.999Z</time></trkpt><trkpt lat="45.833235522012245" lon="9.863617257890033"><ele>420.85714285714283</ele><time>2026-04-26T09:17:46.999Z</time></trkpt><trkpt lat="45.833172292573074" lon="9.863594772155771"><ele>419.42857142857144</ele><time>2026-04-26T09:17:47.999Z</time></trkpt><trkpt lat="45.83310800489733" lon="9.863569647082716"><ele>418.0</ele><time>2026-04-26T09:17:48.999Z</time></trkpt><trkpt lat="45.8330443319556" lon="9.86354370147254"><ele>418.0</ele><time>2026-04-26T09:17:49.999Z</time></trkpt><trkpt lat="45.83298279253171" lon="9.863518016205282"><ele>418.0</ele><time>2026-04-26T09:17:50.999Z</time></trkpt><trkpt lat="45.832917715365205" lon="9.863500202673427"><ele>418.0</ele><time>2026-04-26T09:17:51.999Z</time></trkpt><trkpt lat="45.83285402327868" lon="9.86348257548658"><ele>418.0</ele><time>2026-04-26T09:17:52.999Z</time></trkpt><trkpt lat="45.832789270481705" lon="9.863466108748163"><ele>418.0</ele><time>2026-04-26T09:17:53.999Z</time></trkpt><trkpt lat="45.83272590636904" lon="9.863456831986296"><ele>418.0</ele><time>2026-04-26T09:17:54.999Z</time></trkpt><trkpt lat="45.832659283601366" lon="9.863448935519417"><ele>418.0</ele><time>2026-04-26T09:17:55.999Z</time></trkpt><trkpt lat="45.83259233151203" lon="9.863440438739097"><ele>417.7142857142857</ele><time>2026-04-26T09:17:56.999Z</time></trkpt><trkpt lat="45.83252492435407" lon="9.863439723260226"><ele>417.42857142857144</ele><time>2026-04-26T09:17:57.999Z</time></trkpt><trkpt lat="45.832457412961006" lon="9.863444485561274"><ele>417.1428571428571</ele><time>2026-04-26T09:17:58.999Z</time></trkpt><trkpt lat="45.83239127064763" lon="9.863452409573906"><ele>416.8571428571429</ele><time>2026-04-26T09:17:59.999Z</time></trkpt><trkpt lat="45.832324966524865" lon="9.863464014116484"><ele>416.5714285714286</ele><time>2026-04-26T09:18:00.999Z</time></trkpt><trkpt lat="45.832260440268634" lon="9.863479015923323"><ele>416.2857142857143</ele><time>2026-04-26T09:18:01.999Z</time></trkpt><trkpt lat="45.832195225320014" lon="9.863497755168853"><ele>416.0</ele><time>2026-04-26T09:18:02.999Z</time></trkpt><trkpt lat="45.832131355592644" lon="9.863517887603901"><ele>416.0</ele><time>2026-04-26T09:18:03.999Z</time></trkpt><trkpt lat="45.83206447582967" lon="9.863539451982897"><ele>416.0</ele><time>2026-04-26T09:18:04.999Z</time></trkpt><trkpt lat="45.832001080042296" lon="9.863566252992808"><ele>416.0</ele><time>2026-04-26T09:18:05.999Z</time></trkpt><trkpt lat="45.831936815047605" lon="9.863594737566844"><ele>416.0</ele><time>2026-04-26T09:18:06.999Z</time></trkpt><trkpt lat="45.8318752870563" lon="9.86362029416077"><ele>416.0</ele><time>2026-04-26T09:18:07.999Z</time></trkpt><trkpt lat="45.831811593581534" lon="9.863650450538803"><ele>416.0</ele><time>2026-04-26T09:18:08.999Z</time></trkpt><trkpt lat="45.83175068826459" lon="9.86368311167979"><ele>416.0</ele><time>2026-04-26T09:18:09.999Z</time></trkpt><trkpt lat="45.8316901964779" lon="9.86372445489789"><ele>416.4285714285714</ele><time>2026-04-26T09:18:10.999Z</time></trkpt><trkpt lat="45.831626719608806" lon="9.86376246144178"><ele>416.8571428571429</ele><time>2026-04-26T09:18:11.999Z</time></trkpt><trkpt lat="45.83156432743603" lon="9.863797197542116"><ele>417.2857142857143</ele><time>2026-04-26T09:18:12.999Z</time></trkpt><trkpt lat="45.83150077429288" lon="9.863827528165558"><ele>417.71428571428567</ele><time>2026-04-26T09:18:13.999Z</time></trkpt><trkpt lat="45.83143789920142" lon="9.863858521215072"><ele>418.1428571428571</ele><time>2026-04-26T09:18:14.999Z</time></trkpt><trkpt lat="45.83137543914444" lon="9.863891345292405"><ele>418.57142857142856</ele><time>2026-04-26T09:18:15.999Z</time></trkpt><trkpt lat="45.831312718795076" lon="9.863928027541764"><ele>419.0</ele><time>2026-04-26T09:18:17Z</time></trkpt><trkpt lat="45.83125154283464" lon="9.863959682019706"><ele>418.99999999999994</ele><time>2026-04-26T09:18:18Z</time></trkpt><trkpt lat="45.831190938857866" lon="9.863991339218815"><ele>419.0</ele><time>2026-04-26T09:18:19Z</time></trkpt><trkpt lat="45.83106489602577" lon="9.864025202734574"><ele>419.0</ele><time>2026-04-26T09:18:21Z</time></trkpt><trkpt lat="45.830999340418856" lon="9.864041373946705"><ele>419.0</ele><time>2026-04-26T09:18:22Z</time></trkpt><trkpt lat="45.830935327809556" lon="9.864053753322844"><ele>418.99999999999994</ele><time>2026-04-26T09:18:23Z</time></trkpt><trkpt lat="45.830871353652604" lon="9.864063385716376"><ele>419.0</ele><time>2026-04-26T09:18:24Z</time></trkpt><trkpt lat="45.83080590500641" lon="9.864077160378534"><ele>419.4285714285714</ele><time>2026-04-26T09:18:25Z</time></trkpt><trkpt lat="45.830738610333434" lon="9.864079538513149"><ele>419.85714285714283</ele><time>2026-04-26T09:18:26Z</time></trkpt><trkpt lat="45.83067386871758" lon="9.86407095459528"><ele>420.2857142857143</ele><time>2026-04-26T09:18:27Z</time></trkpt><trkpt lat="45.83060973721121" lon="9.864060852942645"><ele>420.71428571428567</ele><time>2026-04-26T09:18:28Z</time></trkpt><trkpt lat="45.83054460457471" lon="9.864049921384366"><ele>421.14285714285717</ele><time>2026-04-26T09:18:29Z</time></trkpt><trkpt lat="45.83047885502662" lon="9.864038105066607"><ele>421.57142857142856</ele><time>2026-04-26T09:18:30Z</time></trkpt><trkpt lat="45.83041679970954" lon="9.864017419834203"><ele>422.0</ele><time>2026-04-26T09:18:31Z</time></trkpt><trkpt lat="45.83035377952503" lon="9.86399354460093"><ele>421.99999999999994</ele><time>2026-04-26T09:18:32Z</time></trkpt><trkpt lat="45.830290363397836" lon="9.863972334155998"><ele>422.0</ele><time>2026-04-26T09:18:33Z</time></trkpt><trkpt lat="45.83022968727735" lon="9.863943787386228"><ele>422.0</ele><time>2026-04-26T09:18:34Z</time></trkpt><trkpt lat="45.83017013521639" lon="9.863910936091266"><ele>422.0</ele><time>2026-04-26T09:18:35Z</time></trkpt><trkpt lat="45.830058170881514" lon="9.86384320281819"><ele>421.99999999999994</ele><time>2026-04-26T09:18:37Z</time></trkpt><trkpt lat="45.829952930979374" lon="9.863776772002694"><ele>422.0</ele><time>2026-04-26T09:18:39Z</time></trkpt><trkpt lat="45.82988209008424" lon="9.863656542361866"><ele>421.8333333333333</ele><time>2026-04-26T09:18:41Z</time></trkpt><trkpt lat="45.82989243792968" lon="9.863493756489067"><ele>421.66666666666663</ele><time>2026-04-26T09:18:43Z</time></trkpt><trkpt lat="45.82985513501724" lon="9.863404777362419"><ele>421.5</ele><time>2026-04-26T09:18:45Z</time></trkpt><trkpt lat="45.82979440492702" lon="9.863364220237981"><ele>421.33333333333337</ele><time>2026-04-26T09:18:56Z</time></trkpt><trkpt lat="45.82972913427777" lon="9.863342209800075"><ele>421.1666666666667</ele><time>2026-04-26T09:18:59Z</time></trkpt><trkpt lat="45.829657326103444" lon="9.863322064247043"><ele>421.0</ele><time>2026-04-26T09:19:01Z</time></trkpt><trkpt lat="45.8295471284306" lon="9.86327711090153"><ele>422.0</ele><time>2026-04-26T09:19:03Z</time></trkpt><trkpt lat="45.829464316448885" lon="9.863157664659637"><ele>423.0</ele><time>2026-04-26T09:19:05Z</time></trkpt><trkpt lat="45.82935956403962" lon="9.863074691620923"><ele>424.0</ele><time>2026-04-26T09:19:07Z</time></trkpt><trkpt lat="45.82930023773618" lon="9.863036847809905"><ele>425.0</ele><time>2026-04-26T09:19:08Z</time></trkpt><trkpt lat="45.8292474607399" lon="9.862984254715016"><ele>426.0</ele><time>2026-04-26T09:19:09Z</time></trkpt><trkpt lat="45.82914620718192" lon="9.862878154593103"><ele>425.3333333333333</ele><time>2026-04-26T09:19:11Z</time></trkpt><trkpt lat="45.829104990100674" lon="9.862804777548641"><ele>424.66666666666663</ele><time>2026-04-26T09:19:12Z</time></trkpt><trkpt lat="45.829061137505064" lon="9.862738153761915"><ele>424.0</ele><time>2026-04-26T09:19:13Z</time></trkpt><trkpt lat="45.82901293322468" lon="9.862674249205828"><ele>423.3333333333333</ele><time>2026-04-26T09:19:14Z</time></trkpt><trkpt lat="45.828967486911395" lon="9.86261159911941"><ele>422.66666666666663</ele><time>2026-04-26T09:19:15Z</time></trkpt><trkpt lat="45.82888124389441" lon="9.86249682953306"><ele>422.0</ele><time>2026-04-26T09:19:17Z</time></trkpt><trkpt lat="45.82880727987191" lon="9.862388963806527"><ele>421.99999999999994</ele><time>2026-04-26T09:19:19Z</time></trkpt><trkpt lat="45.82874277121537" lon="9.862279381575899"><ele>422.0</ele><time>2026-04-26T09:19:21Z</time></trkpt><trkpt lat="45.82866897778165" lon="9.86216622113549"><ele>422.0</ele><time>2026-04-26T09:19:23Z</time></trkpt><trkpt lat="45.82862890617077" lon="9.86209043809683"><ele>422.0</ele><time>2026-04-26T09:19:24Z</time></trkpt><trkpt lat="45.828591012818066" lon="9.862011449983331"><ele>421.99999999999994</ele><time>2026-04-26T09:19:25Z</time></trkpt><trkpt lat="45.82855351507677" lon="9.86193609051317"><ele>422.0</ele><time>2026-04-26T09:19:26Z</time></trkpt><trkpt lat="45.828509546894104" lon="9.861864100364333"><ele>421.8571428571429</ele><time>2026-04-26T09:19:27Z</time></trkpt><trkpt lat="45.828466834014996" lon="9.861787288861503"><ele>421.7142857142857</ele><time>2026-04-26T09:19:28Z</time></trkpt><trkpt lat="45.828422898918966" lon="9.86171114426531"><ele>421.57142857142856</ele><time>2026-04-26T09:19:29Z</time></trkpt><trkpt lat="45.82837525127527" lon="9.861637148614422"><ele>421.42857142857144</ele><time>2026-04-26T09:19:30Z</time></trkpt><trkpt lat="45.82832502439318" lon="9.861564954997371"><ele>421.2857142857143</ele><time>2026-04-26T09:19:31Z</time></trkpt><trkpt lat="45.828282625877854" lon="9.861489493909602"><ele>421.14285714285717</ele><time>2026-04-26T09:19:32Z</time></trkpt><trkpt lat="45.828235719195575" lon="9.861412766202172"><ele>421.0</ele><time>2026-04-26T09:19:33Z</time></trkpt><trkpt lat="45.82818173162794" lon="9.861337500837305"><ele>421.00000000000006</ele><time>2026-04-26T09:19:34Z</time></trkpt><trkpt lat="45.82812171824945" lon="9.861272292953014"><ele>421.0</ele><time>2026-04-26T09:19:35Z</time></trkpt><trkpt lat="45.82806286802941" lon="9.861209436958267"><ele>421.0</ele><time>2026-04-26T09:19:36Z</time></trkpt><trkpt lat="45.82800905725354" lon="9.861137275851624"><ele>421.0</ele><time>2026-04-26T09:19:37Z</time></trkpt><trkpt lat="45.827951898223645" lon="9.86107082592405"><ele>421.0</ele><time>2026-04-26T09:19:38Z</time></trkpt><trkpt lat="45.82789189540737" lon="9.861016583411022"><ele>421.00000000000006</ele><time>2026-04-26T09:19:39Z</time></trkpt><trkpt lat="45.827831876320474" lon="9.860967703206786"><ele>421.0</ele><time>2026-04-26T09:19:40Z</time></trkpt><trkpt lat="45.82777557450316" lon="9.860913983110615"><ele>419.8571428571429</ele><time>2026-04-26T09:19:41Z</time></trkpt><trkpt lat="45.8277164745822" lon="9.860860727431847"><ele>418.7142857142857</ele><time>2026-04-26T09:19:42Z</time></trkpt><trkpt lat="45.827655779274416" lon="9.860823905895758"><ele>417.57142857142856</ele><time>2026-04-26T09:19:43Z</time></trkpt><trkpt lat="45.827593161512276" lon="9.860782195673218"><ele>416.42857142857144</ele><time>2026-04-26T09:19:44Z</time></trkpt><trkpt lat="45.82753132913131" lon="9.860740963168427"><ele>415.2857142857143</ele><time>2026-04-26T09:19:45Z</time></trkpt><trkpt lat="45.82746593063188" lon="9.860700180726408"><ele>414.14285714285717</ele><time>2026-04-26T09:19:46Z</time></trkpt><trkpt lat="45.82740342483152" lon="9.860661065706271"><ele>413.0</ele><time>2026-04-26T09:19:47Z</time></trkpt><trkpt lat="45.82733919434428" lon="9.860623287833366"><ele>413.0</ele><time>2026-04-26T09:19:48Z</time></trkpt><trkpt lat="45.827278889362354" lon="9.860582643647561"><ele>413.0</ele><time>2026-04-26T09:19:49Z</time></trkpt><trkpt lat="45.827215239327714" lon="9.860547097685705"><ele>413.0</ele><time>2026-04-26T09:19:50Z</time></trkpt><trkpt lat="45.82715562048415" lon="9.86050436826151"><ele>413.0</ele><time>2026-04-26T09:19:51Z</time></trkpt><trkpt lat="45.827094864271544" lon="9.860461375879005"><ele>413.0</ele><time>2026-04-26T09:19:52Z</time></trkpt><trkpt lat="45.827032816408526" lon="9.86042876144596"><ele>413.0</ele><time>2026-04-26T09:19:53Z</time></trkpt><trkpt lat="45.82697104917757" lon="9.860396979528353"><ele>413.0</ele><time>2026-04-26T09:19:54Z</time></trkpt><trkpt lat="45.82691064867769" lon="9.860360893004861"><ele>413.0</ele><time>2026-04-26T09:19:55Z</time></trkpt><trkpt lat="45.82684560507729" lon="9.860332769377335"><ele>413.0</ele><time>2026-04-26T09:19:56Z</time></trkpt><trkpt lat="45.82678128313115" lon="9.860310115948273"><ele>413.0</ele><time>2026-04-26T09:19:57Z</time></trkpt><trkpt lat="45.82671543294193" lon="9.860291135489584"><ele>413.0</ele><time>2026-04-26T09:19:58Z</time></trkpt><trkpt lat="45.826651904421425" lon="9.860265487403137"><ele>413.0</ele><time>2026-04-26T09:19:59Z</time></trkpt><trkpt lat="45.82659007477787" lon="9.860238881135954"><ele>413.0</ele><time>2026-04-26T09:20:00Z</time></trkpt><trkpt lat="45.82652671316495" lon="9.860221396582192"><ele>413.0</ele><time>2026-04-26T09:20:01Z</time></trkpt><trkpt lat="45.82646013062516" lon="9.860209372200037"><ele>412.42857142857144</ele><time>2026-04-26T09:20:02Z</time></trkpt><trkpt lat="45.8263983689945" lon="9.860190129361406"><ele>411.8571428571429</ele><time>2026-04-26T09:20:03Z</time></trkpt><trkpt lat="45.826322067974516" lon="9.8601948431572"><ele>411.2857142857143</ele><time>2026-04-26T09:20:04Z</time></trkpt><trkpt lat="45.8262583638464" lon="9.860175992867795"><ele>410.7142857142857</ele><time>2026-04-26T09:20:05Z</time></trkpt><trkpt lat="45.8261923866003" lon="9.860160543133322"><ele>410.14285714285717</ele><time>2026-04-26T09:20:06Z</time></trkpt><trkpt lat="45.82612625561832" lon="9.86014853817944"><ele>409.57142857142856</ele><time>2026-04-26T09:20:07Z</time></trkpt><trkpt lat="45.82606174462386" lon="9.860145651088786"><ele>409.0</ele><time>2026-04-26T09:20:08Z</time></trkpt><trkpt lat="45.82599632332243" lon="9.86013537895805"><ele>408.7142857142857</ele><time>2026-04-26T09:20:09Z</time></trkpt><trkpt lat="45.82593165442348" lon="9.860119801957975"><ele>408.42857142857144</ele><time>2026-04-26T09:20:10Z</time></trkpt><trkpt lat="45.8258679048605" lon="9.860113099595916"><ele>408.14285714285717</ele><time>2026-04-26T09:20:11Z</time></trkpt><trkpt lat="45.82580104600347" lon="9.86011342524081"><ele>407.8571428571429</ele><time>2026-04-26T09:20:12Z</time></trkpt><trkpt lat="45.82573311273848" lon="9.860106814618616"><ele>407.57142857142856</ele><time>2026-04-26T09:20:13Z</time></trkpt><trkpt lat="45.82566776360741" lon="9.860102679417695"><ele>407.28571428571433</ele><time>2026-04-26T09:20:14Z</time></trkpt><trkpt lat="45.82560381064716" lon="9.860102376611819"><ele>407.0</ele><time>2026-04-26T09:20:15Z</time></trkpt><trkpt lat="45.82553818644331" lon="9.860101687547022"><ele>408.40000000000003</ele><time>2026-04-26T09:20:16Z</time></trkpt><trkpt lat="45.82547312406535" lon="9.860102981289254"><ele>409.8</ele><time>2026-04-26T09:20:17Z</time></trkpt><trkpt lat="45.825409862753304" lon="9.860099319830232"><ele>411.2</ele><time>2026-04-26T09:20:18Z</time></trkpt><trkpt lat="45.82527989483298" lon="9.860083252691002"><ele>412.6</ele><time>2026-04-26T09:20:20Z</time></trkpt><trkpt lat="45.82515376897736" lon="9.860068959831144"><ele>414.0</ele><time>2026-04-26T09:20:22Z</time></trkpt><trkpt lat="45.82508822419351" lon="9.860071612174764"><ele>414.00000000000006</ele><time>2026-04-26T09:20:23Z</time></trkpt><trkpt lat="45.825022956882364" lon="9.860075109874375"><ele>414.0</ele><time>2026-04-26T09:20:24Z</time></trkpt><trkpt lat="45.824957240912155" lon="9.860076868305102"><ele>414.0</ele><time>2026-04-26T09:20:25Z</time></trkpt><trkpt lat="45.82489300580583" lon="9.860075508939136"><ele>414.0</ele><time>2026-04-26T09:20:26Z</time></trkpt><trkpt lat="45.82482554605579" lon="9.860080020360554"><ele>414.0</ele><time>2026-04-26T09:20:27Z</time></trkpt><trkpt lat="45.824760874003616" lon="9.8600779926828"><ele>414.00000000000006</ele><time>2026-04-26T09:20:28Z</time></trkpt><trkpt lat="45.82469462545181" lon="9.860085837914333"><ele>414.0</ele><time>2026-04-26T09:20:29Z</time></trkpt><trkpt lat="45.824628693047906" lon="9.860092655729751"><ele>414.0</ele><time>2026-04-26T09:20:30Z</time></trkpt><trkpt lat="45.82450300905044" lon="9.860084989766268"><ele>414.0</ele><time>2026-04-26T09:20:32Z</time></trkpt><trkpt lat="45.824437348025214" lon="9.860088589376112"><ele>414.0</ele><time>2026-04-26T09:20:33Z</time></trkpt><trkpt lat="45.8243731136293" lon="9.860083318199026"><ele>414.0</ele><time>2026-04-26T09:20:34Z</time></trkpt><trkpt lat="45.824309550473785" lon="9.860077373547169"><ele>414.0</ele><time>2026-04-26T09:20:35Z</time></trkpt><trkpt lat="45.824185934559885" lon="9.860054294921417"><ele>414.0</ele><time>2026-04-26T09:20:37Z</time></trkpt><trkpt lat="45.82412366360072" lon="9.860040237109299"><ele>413.6</ele><time>2026-04-26T09:20:38Z</time></trkpt><trkpt lat="45.82402299241907" lon="9.860016211453194"><ele>413.2</ele><time>2026-04-26T09:20:40Z</time></trkpt><trkpt lat="45.82388947423736" lon="9.859988720396244"><ele>412.8</ele><time>2026-04-26T09:20:42Z</time></trkpt><trkpt lat="45.82382934163735" lon="9.859944680861853"><ele>412.40000000000003</ele><time>2026-04-26T09:20:43Z</time></trkpt><trkpt lat="45.82370327992131" lon="9.859899307166556"><ele>412.0</ele><time>2026-04-26T09:20:45Z</time></trkpt><trkpt lat="45.823639926317064" lon="9.859867695801226"><ele>411.99999999999994</ele><time>2026-04-26T09:20:46Z</time></trkpt><trkpt lat="45.82357800499365" lon="9.859831991079101"><ele>412.0</ele><time>2026-04-26T09:20:47Z</time></trkpt><trkpt lat="45.823516919637" lon="9.859800374886415"><ele>412.0</ele><time>2026-04-26T09:20:48Z</time></trkpt><trkpt lat="45.82345433085364" lon="9.859770338889048"><ele>412.0</ele><time>2026-04-26T09:20:49Z</time></trkpt><trkpt lat="45.823394435400594" lon="9.859737152083603"><ele>412.0</ele><time>2026-04-26T09:20:50Z</time></trkpt><trkpt lat="45.82333333635851" lon="9.859701494159546"><ele>411.99999999999994</ele><time>2026-04-26T09:20:51Z</time></trkpt><trkpt lat="45.82327143638444" lon="9.859667568359075"><ele>412.0</ele><time>2026-04-26T09:20:52Z</time></trkpt><trkpt lat="45.823211269709226" lon="9.859628490976341"><ele>410.99999999999994</ele><time>2026-04-26T09:20:53Z</time></trkpt><trkpt lat="45.82315132803487" lon="9.859591687040819"><ele>410.0</ele><time>2026-04-26T09:20:54Z</time></trkpt><trkpt lat="45.82309187809715" lon="9.859558844263226"><ele>409.0</ele><time>2026-04-26T09:20:55Z</time></trkpt><trkpt lat="45.82302848532267" lon="9.859526016553177"><ele>408.0</ele><time>2026-04-26T09:20:56Z</time></trkpt><trkpt lat="45.82296755412174" lon="9.859494194774127"><ele>407.0</ele><time>2026-04-26T09:20:57Z</time></trkpt><trkpt lat="45.82290805196534" lon="9.859461388492353"><ele>405.99999999999994</ele><time>2026-04-26T09:20:58Z</time></trkpt><trkpt lat="45.82284929642576" lon="9.85942353386689"><ele>405.0</ele><time>2026-04-26T09:20:59Z</time></trkpt><trkpt lat="45.82278856621348" lon="9.85939018988912"><ele>405.0</ele><time>2026-04-26T09:21:00Z</time></trkpt><trkpt lat="45.82272680625644" lon="9.859367288862137"><ele>405.0</ele><time>2026-04-26T09:21:01Z</time></trkpt><trkpt lat="45.82266255866859" lon="9.859345627242178"><ele>405.0</ele><time>2026-04-26T09:21:02Z</time></trkpt><trkpt lat="45.82260074126739" lon="9.859322520477004"><ele>405.0</ele><time>2026-04-26T09:21:03Z</time></trkpt><trkpt lat="45.82253823806221" lon="9.859296799140754"><ele>405.0</ele><time>2026-04-26T09:21:04Z</time></trkpt><trkpt lat="45.8224135854688" lon="9.859257277140653"><ele>405.0</ele><time>2026-04-26T09:21:06Z</time></trkpt><trkpt lat="45.82235200043688" lon="9.859235142067428"><ele>406.6666666666667</ele><time>2026-04-26T09:21:07Z</time></trkpt><trkpt lat="45.822296243061665" lon="9.859187495802283"><ele>408.33333333333337</ele><time>2026-04-26T09:21:08Z</time></trkpt><trkpt lat="45.82225370788897" lon="9.859116338445496"><ele>410.0</ele><time>2026-04-26T09:21:09Z</time></trkpt><trkpt lat="45.822204205946825" lon="9.858962257145539"><ele>411.6666666666667</ele><time>2026-04-26T09:21:11Z</time></trkpt><trkpt lat="45.82210263390032" lon="9.858880068988858"><ele>413.33333333333337</ele><time>2026-04-26T09:21:13Z</time></trkpt><trkpt lat="45.822032557502965" lon="9.858887332509656"><ele>415.0</ele><time>2026-04-26T09:21:14Z</time></trkpt><trkpt lat="45.821965554788086" lon="9.858895519922918"><ele>415.0</ele><time>2026-04-26T09:21:15Z</time></trkpt><trkpt lat="45.821901432983466" lon="9.858888380990727"><ele>415.0</ele><time>2026-04-26T09:21:16Z</time></trkpt><trkpt lat="45.82178209569006" lon="9.85886986018704"><ele>415.0</ele><time>2026-04-26T09:21:18Z</time></trkpt><trkpt lat="45.82167954797332" lon="9.858855034059154"><ele>415.0</ele><time>2026-04-26T09:21:20Z</time></trkpt><trkpt lat="45.82159899968008" lon="9.858824318585324"><ele>415.0</ele><time>2026-04-26T09:21:22Z</time></trkpt><trkpt lat="45.8215196102503" lon="9.858792232762834"><ele>413.6666666666667</ele><time>2026-04-26T09:21:24Z</time></trkpt><trkpt lat="45.821434214120664" lon="9.858750730245935"><ele>412.33333333333337</ele><time>2026-04-26T09:21:26Z</time></trkpt><trkpt lat="45.821373551501175" lon="9.858717252300668"><ele>411.0</ele><time>2026-04-26T09:21:28Z</time></trkpt><trkpt lat="45.82130713283944" lon="9.858747492624085"><ele>409.66666666666663</ele><time>2026-04-26T09:22:28Z</time></trkpt><trkpt lat="45.821248163012996" lon="9.858827327995222"><ele>408.3333333333333</ele><time>2026-04-26T09:22:30Z</time></trkpt><trkpt lat="45.821129195213466" lon="9.858860282866969"><ele>407.0</ele><time>2026-04-26T09:22:32Z</time></trkpt><trkpt lat="45.82106135458232" lon="9.858842680078876"><ele>407.0</ele><time>2026-04-26T09:22:33Z</time></trkpt><trkpt lat="45.82099667389266" lon="9.858818963084405"><ele>407.0</ele><time>2026-04-26T09:22:34Z</time></trkpt><trkpt lat="45.82087539883969" lon="9.85879285471879"><ele>407.0</ele><time>2026-04-26T09:22:36Z</time></trkpt><trkpt lat="45.82075505473119" lon="9.858770317781563"><ele>407.0</ele><time>2026-04-26T09:22:38Z</time></trkpt><trkpt lat="45.82063897832824" lon="9.858749316555175"><ele>407.0</ele><time>2026-04-26T09:22:40Z</time></trkpt><trkpt lat="45.82052581032853" lon="9.858735544030676"><ele>406.7142857142857</ele><time>2026-04-26T09:22:42Z</time></trkpt><trkpt lat="45.82046203319949" lon="9.85872442200589"><ele>406.42857142857144</ele><time>2026-04-26T09:22:43Z</time></trkpt><trkpt lat="45.820395101609776" lon="9.858706220941821"><ele>406.1428571428571</ele><time>2026-04-26T09:22:44Z</time></trkpt><trkpt lat="45.82033028042102" lon="9.858686997299417"><ele>405.8571428571429</ele><time>2026-04-26T09:22:45Z</time></trkpt><trkpt lat="45.820265477946556" lon="9.858671254387918"><ele>405.57142857142856</ele><time>2026-04-26T09:22:46Z</time></trkpt><trkpt lat="45.82019969669084" lon="9.858658937735507"><ele>405.2857142857143</ele><time>2026-04-26T09:22:47Z</time></trkpt><trkpt lat="45.82013397808197" lon="9.858652877883893"><ele>405.0</ele><time>2026-04-26T09:22:48Z</time></trkpt><trkpt lat="45.82006848831341" lon="9.858645394893998"><ele>404.85714285714283</ele><time>2026-04-26T09:22:49Z</time></trkpt><trkpt lat="45.8200039241124" lon="9.858636527354452"><ele>404.7142857142857</ele><time>2026-04-26T09:22:50Z</time></trkpt><trkpt lat="45.819939436387756" lon="9.85862663077889"><ele>404.57142857142856</ele><time>2026-04-26T09:22:51Z</time></trkpt><trkpt lat="45.819873216420554" lon="9.858617742197994"><ele>404.42857142857144</ele><time>2026-04-26T09:22:52Z</time></trkpt><trkpt lat="45.8198074687599" lon="9.858606379620802"><ele>404.2857142857143</ele><time>2026-04-26T09:22:53Z</time></trkpt><trkpt lat="45.81974289600492" lon="9.858594394118482"><ele>404.1428571428571</ele><time>2026-04-26T09:22:54Z</time></trkpt><trkpt lat="45.81967826179826" lon="9.858581988497455"><ele>404.0</ele><time>2026-04-26T09:22:55Z</time></trkpt><trkpt lat="45.81961194631892" lon="9.858570633685439"><ele>404.0</ele><time>2026-04-26T09:22:56Z</time></trkpt><trkpt lat="45.819546918202086" lon="9.858557132131267"><ele>404.0</ele><time>2026-04-26T09:22:57Z</time></trkpt><trkpt lat="45.81948147652924" lon="9.858545109480847"><ele>404.0</ele><time>2026-04-26T09:22:58Z</time></trkpt><trkpt lat="45.81941623682028" lon="9.858539195420851"><ele>404.0</ele><time>2026-04-26T09:22:59Z</time></trkpt><trkpt lat="45.819348836455056" lon="9.85853356830491"><ele>404.0</ele><time>2026-04-26T09:23:00Z</time></trkpt><trkpt lat="45.81928280507503" lon="9.85852922340469"><ele>404.0</ele><time>2026-04-26T09:23:01Z</time></trkpt><trkpt lat="45.81921762419586" lon="9.858523891818676"><ele>404.0</ele><time>2026-04-26T09:23:02Z</time></trkpt><trkpt lat="45.819148383239025" lon="9.858519999292602"><ele>403.57142857142856</ele><time>2026-04-26T09:23:03Z</time></trkpt><trkpt lat="45.81908375190587" lon="9.858510690042468"><ele>403.1428571428571</ele><time>2026-04-26T09:23:04Z</time></trkpt><trkpt lat="45.81901613755236" lon="9.858503949452883"><ele>402.7142857142857</ele><time>2026-04-26T09:23:05Z</time></trkpt><trkpt lat="45.818949766904176" lon="9.858503496419608"><ele>402.2857142857143</ele><time>2026-04-26T09:23:06Z</time></trkpt><trkpt lat="45.81888275777997" lon="9.858505932017666"><ele>401.8571428571429</ele><time>2026-04-26T09:23:07Z</time></trkpt><trkpt lat="45.81881743319711" lon="9.858509979811531"><ele>401.42857142857144</ele><time>2026-04-26T09:23:08Z</time></trkpt><trkpt lat="45.81874736580506" lon="9.858515483056978"><ele>401.0</ele><time>2026-04-26T09:23:09Z</time></trkpt><trkpt lat="45.81868195486418" lon="9.858518245021973"><ele>401.0</ele><time>2026-04-26T09:23:10Z</time></trkpt><trkpt lat="45.818614506112816" lon="9.858527497911416"><ele>401.0</ele><time>2026-04-26T09:23:11Z</time></trkpt><trkpt lat="45.81854791539116" lon="9.85853000261544"><ele>401.0</ele><time>2026-04-26T09:23:12Z</time></trkpt><trkpt lat="45.81848144199703" lon="9.858528352335574"><ele>401.0</ele><time>2026-04-26T09:23:13Z</time></trkpt><trkpt lat="45.81841209883195" lon="9.858529785657593"><ele>401.0</ele><time>2026-04-26T09:23:14Z</time></trkpt><trkpt lat="45.81834477316765" lon="9.858524899983935"><ele>401.0</ele><time>2026-04-26T09:23:15Z</time></trkpt><trkpt lat="45.81827660184327" lon="9.858518385153264"><ele>401.0</ele><time>2026-04-26T09:23:16Z</time></trkpt><trkpt lat="45.81820892180629" lon="9.85851875010247"><ele>401.0</ele><time>2026-04-26T09:23:17Z</time></trkpt><trkpt lat="45.81814079914558" lon="9.85852090904102"><ele>401.0</ele><time>2026-04-26T09:23:18Z</time></trkpt><trkpt lat="45.818073440010004" lon="9.858513399168459"><ele>401.0</ele><time>2026-04-26T09:23:19Z</time></trkpt><trkpt lat="45.818004486034994" lon="9.858507985142188"><ele>401.0</ele><time>2026-04-26T09:23:20Z</time></trkpt><trkpt lat="45.81793706316054" lon="9.858497530756893"><ele>401.0</ele><time>2026-04-26T09:23:21Z</time></trkpt><trkpt lat="45.81786930444505" lon="9.85848679803646"><ele>401.0</ele><time>2026-04-26T09:23:22Z</time></trkpt><trkpt lat="45.81780444289983" lon="9.858474303130809"><ele>401.0</ele><time>2026-04-26T09:23:23Z</time></trkpt><trkpt lat="45.817738514518695" lon="9.858463173668905"><ele>401.0</ele><time>2026-04-26T09:23:24Z</time></trkpt><trkpt lat="45.81767192922261" lon="9.858451840644962"><ele>401.0</ele><time>2026-04-26T09:23:25Z</time></trkpt><trkpt lat="45.81760474572114" lon="9.858438191277253"><ele>401.0</ele><time>2026-04-26T09:23:26Z</time></trkpt><trkpt lat="45.81753795932375" lon="9.858432678358056"><ele>401.0</ele><time>2026-04-26T09:23:27Z</time></trkpt><trkpt lat="45.81747009268957" lon="9.858426528566687"><ele>401.0</ele><time>2026-04-26T09:23:28Z</time></trkpt><trkpt lat="45.81740438774058" lon="9.858419283758169"><ele>401.0</ele><time>2026-04-26T09:23:29Z</time></trkpt><trkpt lat="45.817336997129786" lon="9.858419468602746"><ele>401.0</ele><time>2026-04-26T09:23:30Z</time></trkpt><trkpt lat="45.81727017769529" lon="9.858415170359576"><ele>402.0</ele><time>2026-04-26T09:23:31Z</time></trkpt><trkpt lat="45.81720201578213" lon="9.85840886734557"><ele>403.0</ele><time>2026-04-26T09:23:32Z</time></trkpt><trkpt lat="45.81713538572449" lon="9.858400118421857"><ele>404.0</ele><time>2026-04-26T09:23:33Z</time></trkpt><trkpt lat="45.81707123822236" lon="9.858396187756062"><ele>405.0</ele><time>2026-04-26T09:23:34Z</time></trkpt><trkpt lat="45.817002166508274" lon="9.85837262574912"><ele>406.0</ele><time>2026-04-26T09:23:35Z</time></trkpt><trkpt lat="45.8169358518688" lon="9.858378371487749"><ele>407.0</ele><time>2026-04-26T09:23:36Z</time></trkpt><trkpt lat="45.81687001120993" lon="9.858377030838176"><ele>408.0</ele><time>2026-04-26T09:23:37Z</time></trkpt><trkpt lat="45.81680525478245" lon="9.858370226474335"><ele>408.0</ele><time>2026-04-26T09:23:38Z</time></trkpt><trkpt lat="45.81673916745737" lon="9.858376179018247"><ele>408.0</ele><time>2026-04-26T09:23:39Z</time></trkpt><trkpt lat="45.816671555502154" lon="9.858380434002953"><ele>408.0</ele><time>2026-04-26T09:23:40Z</time></trkpt><trkpt lat="45.81654488989705" lon="9.85838169830374"><ele>408.0</ele><time>2026-04-26T09:23:42Z</time></trkpt><trkpt lat="45.81647933973962" lon="9.858374207262047"><ele>408.0</ele><time>2026-04-26T09:23:43Z</time></trkpt><trkpt lat="45.81641443623886" lon="9.85837465746334"><ele>408.0</ele><time>2026-04-26T09:23:44Z</time></trkpt><trkpt lat="45.81634573480232" lon="9.858374548318544"><ele>408.0</ele><time>2026-04-26T09:23:45Z</time></trkpt><trkpt lat="45.81621543156078" lon="9.858385815807575"><ele>408.0</ele><time>2026-04-26T09:23:47Z</time></trkpt><trkpt lat="45.816150894565126" lon="9.85839242051754"><ele>408.0</ele><time>2026-04-26T09:23:48Z</time></trkpt><trkpt lat="45.81608491540351" lon="9.85840342275943"><ele>408.0</ele><time>2026-04-26T09:23:49Z</time></trkpt><trkpt lat="45.816020298334884" lon="9.858412374814575"><ele>408.0</ele><time>2026-04-26T09:23:50Z</time></trkpt><trkpt lat="45.81595549380633" lon="9.858425893786995"><ele>408.0</ele><time>2026-04-26T09:23:51Z</time></trkpt><trkpt lat="45.81588978294564" lon="9.858441139286898"><ele>406.8333333333333</ele><time>2026-04-26T09:23:52Z</time></trkpt><trkpt lat="45.81582435678161" lon="9.858460155389508"><ele>405.66666666666663</ele><time>2026-04-26T09:23:53Z</time></trkpt><trkpt lat="45.81576188731905" lon="9.858482805290192"><ele>404.5</ele><time>2026-04-26T09:23:54Z</time></trkpt><trkpt lat="45.815695374223274" lon="9.858502345863384"><ele>403.3333333333333</ele><time>2026-04-26T09:23:55Z</time></trkpt><trkpt lat="45.815632522256635" lon="9.858516525407863"><ele>402.16666666666663</ele><time>2026-04-26T09:23:56Z</time></trkpt><trkpt lat="45.81556636711258" lon="9.858540650241272"><ele>401.0</ele><time>2026-04-26T09:23:57Z</time></trkpt><trkpt lat="45.81543974115011" lon="9.858573865221452"><ele>400.99999999999994</ele><time>2026-04-26T09:23:59Z</time></trkpt><trkpt lat="45.815314107979056" lon="9.85861357880137"><ele>401.0</ele><time>2026-04-26T09:24:01Z</time></trkpt><trkpt lat="45.815253516383386" lon="9.858638182376838"><ele>401.0</ele><time>2026-04-26T09:24:02Z</time></trkpt><trkpt lat="45.8151903481345" lon="9.858661942289096"><ele>401.0</ele><time>2026-04-26T09:24:03Z</time></trkpt><trkpt lat="45.815123949732424" lon="9.858689418539862"><ele>400.99999999999994</ele><time>2026-04-26T09:24:04Z</time></trkpt><trkpt lat="45.81506377431393" lon="9.858719479823133"><ele>401.0</ele><time>2026-04-26T09:24:05Z</time></trkpt><trkpt lat="45.81500222751812" lon="9.858750513983287"><ele>400.49999999999994</ele><time>2026-04-26T09:24:06Z</time></trkpt><trkpt lat="45.81494232017631" lon="9.858779708938995"><ele>400.0</ele><time>2026-04-26T09:24:07Z</time></trkpt><trkpt lat="45.814880039260665" lon="9.858811378478071"><ele>399.5</ele><time>2026-04-26T09:24:08Z</time></trkpt><trkpt lat="45.81475704001616" lon="9.858857539124198"><ele>399.0</ele><time>2026-04-26T09:24:10Z</time></trkpt><trkpt lat="45.81463404045746" lon="9.858907337006071"><ele>398.49999999999994</ele><time>2026-04-26T09:24:12Z</time></trkpt><trkpt lat="45.814571820122886" lon="9.858930854682955"><ele>398.0</ele><time>2026-04-26T09:24:13Z</time></trkpt><trkpt lat="45.814510758446296" lon="9.85895560603945"><ele>397.99999999999994</ele><time>2026-04-26T09:24:14Z</time></trkpt><trkpt lat="45.81444540057202" lon="9.858965188006104"><ele>398.0</ele><time>2026-04-26T09:24:15Z</time></trkpt><trkpt lat="45.814319526891715" lon="9.858995473404082"><ele>398.0</ele><time>2026-04-26T09:24:17Z</time></trkpt><trkpt lat="45.81425610355279" lon="9.859000044980323"><ele>398.0</ele><time>2026-04-26T09:24:18Z</time></trkpt><trkpt lat="45.814192743862336" lon="9.858989803183803"><ele>397.99999999999994</ele><time>2026-04-26T09:24:19Z</time></trkpt><trkpt lat="45.81408100703155" lon="9.85895480635087"><ele>398.0</ele><time>2026-04-26T09:24:21Z</time></trkpt><trkpt lat="45.81396175104239" lon="9.85894040016207"><ele>398.49999999999994</ele><time>2026-04-26T09:24:23Z</time></trkpt><trkpt lat="45.81389469374531" lon="9.858941410972962"><ele>399.0</ele><time>2026-04-26T09:24:24Z</time></trkpt><trkpt lat="45.8138294771803" lon="9.858932995573191"><ele>399.5</ele><time>2026-04-26T09:24:25Z</time></trkpt><trkpt lat="45.813764588589706" lon="9.858906159512399"><ele>400.0</ele><time>2026-04-26T09:24:26Z</time></trkpt><trkpt lat="45.813711541489106" lon="9.85885070669681"><ele>400.49999999999994</ele><time>2026-04-26T09:24:27Z</time></trkpt><trkpt lat="45.81366674452977" lon="9.85877958122609"><ele>401.0</ele><time>2026-04-26T09:24:28Z</time></trkpt><trkpt lat="45.813570180473" lon="9.858673240230132"><ele>400.99999999999994</ele><time>2026-04-26T09:24:30Z</time></trkpt><trkpt lat="45.81349052374268" lon="9.858596529809432"><ele>401.0</ele><time>2026-04-26T09:24:32Z</time></trkpt><trkpt lat="45.81341807754733" lon="9.858668170689445"><ele>401.0</ele><time>2026-04-26T09:24:34Z</time></trkpt><trkpt lat="45.81342277648155" lon="9.858762620246493"><ele>401.0</ele><time>2026-04-26T09:24:35Z</time></trkpt><trkpt lat="45.81344317533631" lon="9.85885547925627"><ele>400.99999999999994</ele><time>2026-04-26T09:24:36Z</time></trkpt><trkpt lat="45.81343453358575" lon="9.858955356354013"><ele>401.0</ele><time>2026-04-26T09:24:37Z</time></trkpt><trkpt lat="45.81340424875167" lon="9.859056203804323"><ele>400.3333333333333</ele><time>2026-04-26T09:24:38Z</time></trkpt><trkpt lat="45.81336501413349" lon="9.859156849975614"><ele>399.66666666666663</ele><time>2026-04-26T09:24:39Z</time></trkpt><trkpt lat="45.81332765650183" lon="9.859259331539327"><ele>399.0</ele><time>2026-04-26T09:24:40Z</time></trkpt><trkpt lat="45.81328376320266" lon="9.859366878494672"><ele>398.33333333333337</ele><time>2026-04-26T09:24:41Z</time></trkpt><trkpt lat="45.81322597724527" lon="9.859462712807312"><ele>397.6666666666667</ele><time>2026-04-26T09:24:42Z</time></trkpt><trkpt lat="45.81314218525329" lon="9.859531202000321"><ele>397.0</ele><time>2026-04-26T09:24:43Z</time></trkpt><trkpt lat="45.81305227196076" lon="9.859574569190322"><ele>396.6666666666667</ele><time>2026-04-26T09:24:44Z</time></trkpt><trkpt lat="45.812965640107464" lon="9.85961196245591"><ele>396.33333333333337</ele><time>2026-04-26T09:24:45Z</time></trkpt><trkpt lat="45.81288275144079" lon="9.859649298471297"><ele>396.0</ele><time>2026-04-26T09:24:46Z</time></trkpt><trkpt lat="45.81279790137296" lon="9.8596568747651"><ele>395.66666666666663</ele><time>2026-04-26T09:24:47Z</time></trkpt><trkpt lat="45.812715171010275" lon="9.859654467835801"><ele>395.3333333333333</ele><time>2026-04-26T09:24:48Z</time></trkpt><trkpt lat="45.812637051558426" lon="9.859639657499699"><ele>395.0</ele><time>2026-04-26T09:24:49Z</time></trkpt><trkpt lat="45.81256392306602" lon="9.859608901083673"><ele>395.0</ele><time>2026-04-26T09:24:50Z</time></trkpt><trkpt lat="45.812498272692466" lon="9.859551131803842"><ele>395.0</ele><time>2026-04-26T09:24:51Z</time></trkpt><trkpt lat="45.81243812661373" lon="9.859496612250128"><ele>395.0</ele><time>2026-04-26T09:24:52Z</time></trkpt><trkpt lat="45.81237848804985" lon="9.859449281262869"><ele>395.0</ele><time>2026-04-26T09:24:53Z</time></trkpt><trkpt lat="45.81232013392323" lon="9.859403457451775"><ele>395.0</ele><time>2026-04-26T09:24:54Z</time></trkpt><trkpt lat="45.81226285241532" lon="9.859356744736685"><ele>395.0</ele><time>2026-04-26T09:24:55Z</time></trkpt><trkpt lat="45.81220808870895" lon="9.859311324159082"><ele>395.0</ele><time>2026-04-26T09:24:56Z</time></trkpt><trkpt lat="45.81215087036807" lon="9.859266942858342"><ele>395.1428571428571</ele><time>2026-04-26T09:24:57Z</time></trkpt><trkpt lat="45.81209167115783" lon="9.859225725901705"><ele>395.28571428571433</ele><time>2026-04-26T09:24:58Z</time></trkpt><trkpt lat="45.812030893320035" lon="9.859183840548528"><ele>395.42857142857144</ele><time>2026-04-26T09:24:59Z</time></trkpt><trkpt lat="45.81197386520269" lon="9.859139048430126"><ele>395.57142857142856</ele><time>2026-04-26T09:25:00Z</time></trkpt><trkpt lat="45.81191581212456" lon="9.859094620169332"><ele>395.71428571428567</ele><time>2026-04-26T09:25:01Z</time></trkpt><trkpt lat="45.811859358888626" lon="9.859046961706571"><ele>395.8571428571429</ele><time>2026-04-26T09:25:02Z</time></trkpt><trkpt lat="45.811797957389" lon="9.859007593237118"><ele>396.0</ele><time>2026-04-26T09:25:03Z</time></trkpt><trkpt lat="45.811741445067305" lon="9.858967237248805"><ele>396.0</ele><time>2026-04-26T09:25:04Z</time></trkpt><trkpt lat="45.81168337912315" lon="9.858919959080128"><ele>396.0</ele><time>2026-04-26T09:25:05Z</time></trkpt><trkpt lat="45.81162439007534" lon="9.858874977177546"><ele>396.0</ele><time>2026-04-26T09:25:06Z</time></trkpt><trkpt lat="45.81156690164526" lon="9.858828500081582"><ele>396.0</ele><time>2026-04-26T09:25:07Z</time></trkpt><trkpt lat="45.811511600208526" lon="9.858782194392996"><ele>396.0</ele><time>2026-04-26T09:25:08Z</time></trkpt><trkpt lat="45.811455164705684" lon="9.85873736026263"><ele>396.0</ele><time>2026-04-26T09:25:09Z</time></trkpt><trkpt lat="45.81139256552491" lon="9.858694217757444"><ele>396.0</ele><time>2026-04-26T09:25:10Z</time></trkpt><trkpt lat="45.811335693424176" lon="9.858654426129128"><ele>396.0</ele><time>2026-04-26T09:25:11Z</time></trkpt><trkpt lat="45.81127771223801" lon="9.858609290818395"><ele>396.0</ele><time>2026-04-26T09:25:12Z</time></trkpt><trkpt lat="45.811221002401666" lon="9.858561527521385"><ele>396.0</ele><time>2026-04-26T09:25:13Z</time></trkpt><trkpt lat="45.811163794375105" lon="9.858514207483386"><ele>396.0</ele><time>2026-04-26T09:25:14Z</time></trkpt><trkpt lat="45.8111039288428" lon="9.858472844289583"><ele>396.0</ele><time>2026-04-26T09:25:15Z</time></trkpt><trkpt lat="45.81104329749271" lon="9.858428452784732"><ele>396.0</ele><time>2026-04-26T09:25:16Z</time></trkpt><trkpt lat="45.81098776299878" lon="9.858378349684962"><ele>396.0</ele><time>2026-04-26T09:25:17Z</time></trkpt><trkpt lat="45.810934147852315" lon="9.85832878332436"><ele>396.14285714285717</ele><time>2026-04-26T09:25:18Z</time></trkpt><trkpt lat="45.81087870456439" lon="9.858279304330145"><ele>396.2857142857143</ele><time>2026-04-26T09:25:19Z</time></trkpt><trkpt lat="45.81082295460309" lon="9.858226428871259"><ele>396.42857142857144</ele><time>2026-04-26T09:25:20Z</time></trkpt><trkpt lat="45.810774697397164" lon="9.85816408400148"><ele>396.57142857142856</ele><time>2026-04-26T09:25:21Z</time></trkpt><trkpt lat="45.81072988354394" lon="9.85809757410697"><ele>396.71428571428567</ele><time>2026-04-26T09:25:22Z</time></trkpt><trkpt lat="45.81068389044049" lon="9.85803284006215"><ele>396.85714285714283</ele><time>2026-04-26T09:25:23Z</time></trkpt><trkpt lat="45.81063892794217" lon="9.8579654124805"><ele>397.0</ele><time>2026-04-26T09:25:24Z</time></trkpt><trkpt lat="45.81059554032068" lon="9.857897039230133"><ele>397.0</ele><time>2026-04-26T09:25:25Z</time></trkpt><trkpt lat="45.8105504475538" lon="9.857832426627452"><ele>397.0</ele><time>2026-04-26T09:25:26Z</time></trkpt><trkpt lat="45.810502744350515" lon="9.857769528882947"><ele>397.0</ele><time>2026-04-26T09:25:27Z</time></trkpt><trkpt lat="45.81045792457725" lon="9.857704521660803"><ele>397.0</ele><time>2026-04-26T09:25:28Z</time></trkpt><trkpt lat="45.81041026499203" lon="9.857640957899456"><ele>397.0</ele><time>2026-04-26T09:25:29Z</time></trkpt><trkpt lat="45.8103659412631" lon="9.857575094825407"><ele>397.0</ele><time>2026-04-26T09:25:30Z</time></trkpt><trkpt lat="45.81032023348706" lon="9.857510436121016"><ele>397.0</ele><time>2026-04-26T09:25:31Z</time></trkpt><trkpt lat="45.81027460872071" lon="9.857447037559295"><ele>397.0</ele><time>2026-04-26T09:25:32Z</time></trkpt><trkpt lat="45.81023018448858" lon="9.857380537926568"><ele>396.6666666666667</ele><time>2026-04-26T09:25:33Z</time></trkpt><trkpt lat="45.81014084386633" lon="9.85725859264253"><ele>396.33333333333337</ele><time>2026-04-26T09:25:35Z</time></trkpt><trkpt lat="45.81009579537369" lon="9.857192867131927"><ele>396.0</ele><time>2026-04-26T09:25:36Z</time></trkpt><trkpt lat="45.81004407386402" lon="9.857134945299237"><ele>395.66666666666663</ele><time>2026-04-26T09:25:37Z</time></trkpt><trkpt lat="45.80994806565558" lon="9.857014418195137"><ele>395.3333333333333</ele><time>2026-04-26T09:25:39Z</time></trkpt><trkpt lat="45.8099030466059" lon="9.856949194646733"><ele>395.0</ele><time>2026-04-26T09:25:40Z</time></trkpt><trkpt lat="45.809824848226874" lon="9.85682360140191"><ele>394.99999999999994</ele><time>2026-04-26T09:25:42Z</time></trkpt><trkpt lat="45.80975239032843" lon="9.856856442367663"><ele>395.0</ele><time>2026-04-26T09:25:44Z</time></trkpt><trkpt lat="45.80964390112593" lon="9.856946271546757"><ele>395.0</ele><time>2026-04-26T09:25:46Z</time></trkpt><trkpt lat="45.80957567754178" lon="9.85697426256465"><ele>395.0</ele><time>2026-04-26T09:25:47Z</time></trkpt><trkpt lat="45.809513283547965" lon="9.857003469976263"><ele>394.99999999999994</ele><time>2026-04-26T09:25:48Z</time></trkpt><trkpt lat="45.809454565893546" lon="9.857037967296112"><ele>395.0</ele><time>2026-04-26T09:25:49Z</time></trkpt><trkpt lat="45.809393404879344" lon="9.857075969072582"><ele>395.0</ele><time>2026-04-26T09:25:50Z</time></trkpt><trkpt lat="45.809335812047074" lon="9.857113946766814"><ele>395.0</ele><time>2026-04-26T09:25:51Z</time></trkpt><trkpt lat="45.80927796617434" lon="9.857155298379318"><ele>395.0</ele><time>2026-04-26T09:25:52Z</time></trkpt><trkpt lat="45.80917572298306" lon="9.857251960080506"><ele>395.0</ele><time>2026-04-26T09:25:54Z</time></trkpt><trkpt lat="45.80907712307482" lon="9.85735146885774"><ele>395.0</ele><time>2026-04-26T09:25:56Z</time></trkpt><trkpt lat="45.80898395217284" lon="9.857450220061791"><ele>395.0</ele><time>2026-04-26T09:25:58Z</time></trkpt><trkpt lat="45.80891058258146" lon="9.857572032874806"><ele>395.0</ele><time>2026-04-26T09:26:00Z</time></trkpt><trkpt lat="45.80885094567952" lon="9.857686317453425"><ele>395.0</ele><time>2026-04-26T09:26:02Z</time></trkpt><trkpt lat="45.80875836402919" lon="9.857793887707482"><ele>395.0</ele><time>2026-04-26T09:26:04Z</time></trkpt><trkpt lat="45.80871314383937" lon="9.85787222417991"><ele>395.0</ele><time>2026-04-26T09:26:05Z</time></trkpt><trkpt lat="45.80865085035186" lon="9.857966410415031"><ele>395.16666666666663</ele><time>2026-04-26T09:26:07Z</time></trkpt><trkpt lat="45.808594404853274" lon="9.857864735647947"><ele>395.3333333333333</ele><time>2026-04-26T09:26:09Z</time></trkpt><trkpt lat="45.8085406569588" lon="9.857736948043819"><ele>395.5</ele><time>2026-04-26T09:26:11Z</time></trkpt><trkpt lat="45.80849354724838" lon="9.857673408941041"><ele>395.66666666666663</ele><time>2026-04-26T09:26:12Z</time></trkpt><trkpt lat="45.80844229692115" lon="9.857612000309874"><ele>395.8333333333333</ele><time>2026-04-26T09:26:13Z</time></trkpt><trkpt lat="45.808389656557424" lon="9.857555736492596"><ele>396.0</ele><time>2026-04-26T09:26:14Z</time></trkpt><trkpt lat="45.80833671473684" lon="9.85750450523319"><ele>395.5714285714286</ele><time>2026-04-26T09:26:15Z</time></trkpt><trkpt lat="45.80828288702379" lon="9.857452934100506"><ele>395.1428571428571</ele><time>2026-04-26T09:26:16Z</time></trkpt><trkpt lat="45.80823009429414" lon="9.857399537003376"><ele>394.7142857142857</ele><time>2026-04-26T09:26:17Z</time></trkpt><trkpt lat="45.8081773541825" lon="9.857343793109006"><ele>394.28571428571433</ele><time>2026-04-26T09:26:18Z</time></trkpt><trkpt lat="45.80812471127354" lon="9.857290795001195"><ele>393.8571428571429</ele><time>2026-04-26T09:26:19Z</time></trkpt><trkpt lat="45.80807081940337" lon="9.857240025580177"><ele>393.42857142857144</ele><time>2026-04-26T09:26:20Z</time></trkpt><trkpt lat="45.80800286196596" lon="9.857181376300044"><ele>393.0</ele><time>2026-04-26T09:26:22Z</time></trkpt><trkpt lat="45.80792309618197" lon="9.857078838921762"><ele>393.00000000000006</ele><time>2026-04-26T09:26:24Z</time></trkpt><trkpt lat="45.80787789359467" lon="9.857008964112879"><ele>393.0</ele><time>2026-04-26T09:26:25Z</time></trkpt><trkpt lat="45.80783307103797" lon="9.856938184607705"><ele>393.0</ele><time>2026-04-26T09:26:26Z</time></trkpt><trkpt lat="45.80778509773861" lon="9.856871936980623"><ele>393.0</ele><time>2026-04-26T09:26:27Z</time></trkpt><trkpt lat="45.80773477184098" lon="9.856809970158343"><ele>393.0</ele><time>2026-04-26T09:26:28Z</time></trkpt><trkpt lat="45.807688760653235" lon="9.856747663939732"><ele>393.00000000000006</ele><time>2026-04-26T09:26:29Z</time></trkpt><trkpt lat="45.80763784888194" lon="9.856686682842025"><ele>393.0</ele><time>2026-04-26T09:26:30Z</time></trkpt><trkpt lat="45.80759214761097" lon="9.856621668123392"><ele>393.7142857142857</ele><time>2026-04-26T09:26:31Z</time></trkpt><trkpt lat="45.80754563594896" lon="9.85655918682217"><ele>394.42857142857144</ele><time>2026-04-26T09:26:32Z</time></trkpt><trkpt lat="45.80749985807482" lon="9.856495113348888"><ele>395.1428571428571</ele><time>2026-04-26T09:26:33Z</time></trkpt><trkpt lat="45.80745672585791" lon="9.856422951066818"><ele>395.8571428571429</ele><time>2026-04-26T09:26:34Z</time></trkpt><trkpt lat="45.8074151747506" lon="9.856354706381781"><ele>396.57142857142856</ele><time>2026-04-26T09:26:35Z</time></trkpt><trkpt lat="45.80737440294885" lon="9.856284457859696"><ele>397.2857142857143</ele><time>2026-04-26T09:26:36Z</time></trkpt><trkpt lat="45.80732975833801" lon="9.856217799055845"><ele>398.0</ele><time>2026-04-26T09:26:37Z</time></trkpt><trkpt lat="45.80728828063584" lon="9.85614536484336"><ele>398.0</ele><time>2026-04-26T09:26:38Z</time></trkpt><trkpt lat="45.8072429928114" lon="9.856078005220152"><ele>398.0</ele><time>2026-04-26T09:26:39Z</time></trkpt><trkpt lat="45.80715501407292" lon="9.85594750947084"><ele>398.0</ele><time>2026-04-26T09:26:41Z</time></trkpt><trkpt lat="45.8070984193517" lon="9.85589999925642"><ele>398.0</ele><time>2026-04-26T09:26:42Z</time></trkpt><trkpt lat="45.806990661904386" lon="9.855797223160916"><ele>398.0</ele><time>2026-04-26T09:26:44Z</time></trkpt><trkpt lat="45.806943505307565" lon="9.855735963223559"><ele>397.71428571428567</ele><time>2026-04-26T09:26:45Z</time></trkpt><trkpt lat="45.80689496693565" lon="9.855669667591597"><ele>397.42857142857144</ele><time>2026-04-26T09:26:46Z</time></trkpt><trkpt lat="45.80685355189937" lon="9.855597201609854"><ele>397.1428571428571</ele><time>2026-04-26T09:26:47Z</time></trkpt><trkpt lat="45.80682114640556" lon="9.855517673556358"><ele>396.85714285714283</ele><time>2026-04-26T09:26:48Z</time></trkpt><trkpt lat="45.80679297594779" lon="9.85543063005439"><ele>396.57142857142856</ele><time>2026-04-26T09:26:49Z</time></trkpt><trkpt lat="45.80676303354106" lon="9.855349438573324"><ele>396.2857142857143</ele><time>2026-04-26T09:26:50Z</time></trkpt><trkpt lat="45.80672969047852" lon="9.855268332282904"><ele>396.0</ele><time>2026-04-26T09:26:51Z</time></trkpt><trkpt lat="45.806692827558194" lon="9.855193874776173"><ele>396.20000000000005</ele><time>2026-04-26T09:26:52Z</time></trkpt><trkpt lat="45.806618850728356" lon="9.855061612472097"><ele>396.40000000000003</ele><time>2026-04-26T09:26:54Z</time></trkpt><trkpt lat="45.80654825225488" lon="9.85496917396543"><ele>396.6</ele><time>2026-04-26T09:26:56Z</time></trkpt><trkpt lat="45.80645885464323" lon="9.85493881769661"><ele>396.8</ele><time>2026-04-26T09:26:59Z</time></trkpt><trkpt lat="45.806365433952045" lon="9.854900683224294"><ele>397.0</ele><time>2026-04-26T09:27:01Z</time></trkpt><trkpt lat="45.80627639441531" lon="9.854775038237495"><ele>397.00000000000006</ele><time>2026-04-26T09:27:03Z</time></trkpt><trkpt lat="45.80625068242441" lon="9.854630740002476"><ele>397.0</ele><time>2026-04-26T09:27:05Z</time></trkpt><trkpt lat="45.80626264384181" lon="9.854525460518776"><ele>397.0</ele><time>2026-04-26T09:27:07Z</time></trkpt><trkpt lat="45.80620439085804" lon="9.854433322257997"><ele>397.0</ele><time>2026-04-26T09:27:09Z</time></trkpt><trkpt lat="45.806145262513425" lon="9.854366180209738"><ele>397.00000000000006</ele><time>2026-04-26T09:27:10Z</time></trkpt><trkpt lat="45.80608808012003" lon="9.854300643971879"><ele>397.0</ele><time>2026-04-26T09:27:11Z</time></trkpt><trkpt lat="45.806032108623135" lon="9.854235480327667"><ele>396.42857142857144</ele><time>2026-04-26T09:27:12Z</time></trkpt><trkpt lat="45.80598212213009" lon="9.854176871185542"><ele>395.85714285714283</ele><time>2026-04-26T09:27:13Z</time></trkpt><trkpt lat="45.805925177706214" lon="9.854121290283752"><ele>395.28571428571433</ele><time>2026-04-26T09:27:14Z</time></trkpt><trkpt lat="45.805873973386284" lon="9.854062077077252"><ele>394.7142857142857</ele><time>2026-04-26T09:27:15Z</time></trkpt><trkpt lat="45.80582191809702" lon="9.853999466966362"><ele>394.14285714285717</ele><time>2026-04-26T09:27:16Z</time></trkpt><trkpt lat="45.80576887337906" lon="9.85394426168068"><ele>393.5714285714286</ele><time>2026-04-26T09:27:17Z</time></trkpt><trkpt lat="45.80571592341122" lon="9.853885094042097"><ele>393.0</ele><time>2026-04-26T09:27:18Z</time></trkpt><trkpt lat="45.80566774533922" lon="9.853823355749869"><ele>393.0</ele><time>2026-04-26T09:27:19Z</time></trkpt><trkpt lat="45.80561966526699" lon="9.853758758033454"><ele>393.0</ele><time>2026-04-26T09:27:20Z</time></trkpt><trkpt lat="45.80553257630034" lon="9.853674082462105"><ele>393.0</ele><time>2026-04-26T09:27:22Z</time></trkpt><trkpt lat="45.805443893754955" lon="9.853719950385196"><ele>393.0</ele><time>2026-04-26T09:27:24Z</time></trkpt><trkpt lat="45.80533871695464" lon="9.853811988744576"><ele>393.0</ele><time>2026-04-26T09:27:26Z</time></trkpt><trkpt lat="45.805230931826934" lon="9.853889781494827"><ele>396.0</ele><time>2026-04-26T09:27:28Z</time></trkpt><trkpt lat="45.805132329018534" lon="9.85395853959139"><ele>399.0</ele><time>2026-04-26T09:27:30Z</time></trkpt><trkpt lat="45.805053853052875" lon="9.853963564891492"><ele>402.0</ele><time>2026-04-26T09:27:32Z</time></trkpt><trkpt lat="45.804993869082004" lon="9.853824048838385"><ele>405.0</ele><time>2026-04-26T09:27:34Z</time></trkpt><trkpt lat="45.80497045134545" lon="9.853724361263327"><ele>408.0</ele><time>2026-04-26T09:27:35Z</time></trkpt><trkpt lat="45.80494464502223" lon="9.85362681480233"><ele>411.0</ele><time>2026-04-26T09:27:36Z</time></trkpt><trkpt lat="45.804913534008904" lon="9.853534958316564"><ele>407.20000000000005</ele><time>2026-04-26T09:27:37Z</time></trkpt><trkpt lat="45.80485707781418" lon="9.853437888698407"><ele>403.40000000000003</ele><time>2026-04-26T09:27:38Z</time></trkpt><trkpt lat="45.80479527829575" lon="9.853343734650421"><ele>399.6</ele><time>2026-04-26T09:27:39Z</time></trkpt><trkpt lat="45.80473852324494" lon="9.853179958669335"><ele>395.8</ele><time>2026-04-26T09:27:41Z</time></trkpt><trkpt lat="45.80469474103532" lon="9.853093440033668"><ele>392.0</ele><time>2026-04-26T09:27:42Z</time></trkpt><trkpt lat="45.8046698069439" lon="9.852988229365629"><ele>391.99999999999994</ele><time>2026-04-26T09:27:43Z</time></trkpt><trkpt lat="45.80465663335026" lon="9.85287417820946"><ele>392.0</ele><time>2026-04-26T09:27:44Z</time></trkpt><trkpt lat="45.80462327836767" lon="9.852767761213865"><ele>392.0</ele><time>2026-04-26T09:27:45Z</time></trkpt><trkpt lat="45.80457904218705" lon="9.852676404558919"><ele>392.0</ele><time>2026-04-26T09:27:46Z</time></trkpt><trkpt lat="45.804527644453046" lon="9.852614729178507"><ele>391.99999999999994</ele><time>2026-04-26T09:27:47Z</time></trkpt><trkpt lat="45.80448214957264" lon="9.852510397522968"><ele>392.0</ele><time>2026-04-26T09:27:49Z</time></trkpt><trkpt lat="45.8045345516965" lon="9.8523941044335"><ele>390.8</ele><time>2026-04-26T09:27:51Z</time></trkpt><trkpt lat="45.80459476917117" lon="9.852245057630219"><ele>389.6</ele><time>2026-04-26T09:27:53Z</time></trkpt><trkpt lat="45.804502477128246" lon="9.852089378879343"><ele>388.40000000000003</ele><time>2026-04-26T09:27:55Z</time></trkpt><trkpt lat="45.80447052828289" lon="9.85200012831118"><ele>387.20000000000005</ele><time>2026-04-26T09:27:56Z</time></trkpt><trkpt lat="45.80445762987505" lon="9.851903217315861"><ele>386.0</ele><time>2026-04-26T09:27:57Z</time></trkpt><trkpt lat="45.8044349123167" lon="9.851814064289567"><ele>386.16666666666663</ele><time>2026-04-26T09:27:58Z</time></trkpt><trkpt lat="45.804408441484505" lon="9.851725502823081"><ele>386.3333333333333</ele><time>2026-04-26T09:27:59Z</time></trkpt><trkpt lat="45.80438525940576" lon="9.851639320926509"><ele>386.5</ele><time>2026-04-26T09:28:00Z</time></trkpt><trkpt lat="45.804355385960896" lon="9.851556834194069"><ele>386.66666666666663</ele><time>2026-04-26T09:28:01Z</time></trkpt><trkpt lat="45.804330251373536" lon="9.85146978123211"><ele>386.8333333333333</ele><time>2026-04-26T09:28:02Z</time></trkpt><trkpt lat="45.80430361611401" lon="9.851382952575698"><ele>387.0</ele><time>2026-04-26T09:28:03Z</time></trkpt><trkpt lat="45.80425530837601" lon="9.851222004288411"><ele>387.0</ele><time>2026-04-26T09:28:05Z</time></trkpt><trkpt lat="45.80423294326324" lon="9.851135183982779"><ele>387.0</ele><time>2026-04-26T09:28:06Z</time></trkpt><trkpt lat="45.804209881983105" lon="9.851042473443538"><ele>387.0</ele><time>2026-04-26T09:28:07Z</time></trkpt><trkpt lat="45.804190996420274" lon="9.850950407031386"><ele>387.0</ele><time>2026-04-26T09:28:08Z</time></trkpt><trkpt lat="45.80417471465093" lon="9.850862551120658"><ele>387.0</ele><time>2026-04-26T09:28:09Z</time></trkpt><trkpt lat="45.80415657511066" lon="9.850766151471836"><ele>387.0</ele><time>2026-04-26T09:28:10Z</time></trkpt><trkpt lat="45.804146655320835" lon="9.850669184017457"><ele>387.0</ele><time>2026-04-26T09:28:11Z</time></trkpt><trkpt lat="45.80412580769137" lon="9.850583626318809"><ele>387.0</ele><time>2026-04-26T09:28:12Z</time></trkpt><trkpt lat="45.804095820510824" lon="9.850405924273606"><ele>387.0</ele><time>2026-04-26T09:28:14Z</time></trkpt><trkpt lat="45.804080511979066" lon="9.850314434484494"><ele>387.0</ele><time>2026-04-26T09:28:15Z</time></trkpt><trkpt lat="45.80406903003688" lon="9.85022357962581"><ele>387.0</ele><time>2026-04-26T09:28:16Z</time></trkpt><trkpt lat="45.80405315273329" lon="9.850131912907283"><ele>387.0</ele><time>2026-04-26T09:28:17Z</time></trkpt><trkpt lat="45.804035731942484" lon="9.850041533676714"><ele>387.0</ele><time>2026-04-26T09:28:18Z</time></trkpt><trkpt lat="45.80401598844253" lon="9.849952500557421"><ele>387.0</ele><time>2026-04-26T09:28:19Z</time></trkpt><trkpt lat="45.804000446856655" lon="9.849863163785734"><ele>387.0</ele><time>2026-04-26T09:28:20Z</time></trkpt><trkpt lat="45.80398981109455" lon="9.84977274296262"><ele>387.0</ele><time>2026-04-26T09:28:21Z</time></trkpt><trkpt lat="45.80396692779703" lon="9.849682411821743"><ele>387.0</ele><time>2026-04-26T09:28:22Z</time></trkpt><trkpt lat="45.80394986761774" lon="9.849591693714853"><ele>387.0</ele><time>2026-04-26T09:28:23Z</time></trkpt><trkpt lat="45.803913923691525" lon="9.849422883728543"><ele>387.0</ele><time>2026-04-26T09:28:25Z</time></trkpt><trkpt lat="45.80389033901933" lon="9.849331307275055"><ele>387.6666666666667</ele><time>2026-04-26T09:28:26Z</time></trkpt><trkpt lat="45.80386212957818" lon="9.849245136701128"><ele>388.33333333333337</ele><time>2026-04-26T09:28:27Z</time></trkpt><trkpt lat="45.80383023650309" lon="9.849156644255693"><ele>389.0</ele><time>2026-04-26T09:28:28Z</time></trkpt><trkpt lat="45.803762198218614" lon="9.848998817831"><ele>389.6666666666667</ele><time>2026-04-26T09:28:30Z</time></trkpt><trkpt lat="45.803726405076354" lon="9.848914205361137"><ele>390.33333333333337</ele><time>2026-04-26T09:28:31Z</time></trkpt><trkpt lat="45.8036933919724" lon="9.848836542274043"><ele>391.0</ele><time>2026-04-26T09:28:32Z</time></trkpt><trkpt lat="45.803649674083594" lon="9.848766656915576"><ele>391.00000000000006</ele><time>2026-04-26T09:28:33Z</time></trkpt><trkpt lat="45.803598526592104" lon="9.848695800454758"><ele>391.0</ele><time>2026-04-26T09:28:34Z</time></trkpt><trkpt lat="45.80355316059276" lon="9.848631370512772"><ele>391.0</ele><time>2026-04-26T09:28:35Z</time></trkpt><trkpt lat="45.803512859323945" lon="9.848558030888759"><ele>391.0</ele><time>2026-04-26T09:28:36Z</time></trkpt><trkpt lat="45.80346379248919" lon="9.848496135631468"><ele>391.00000000000006</ele><time>2026-04-26T09:28:37Z</time></trkpt><trkpt lat="45.80337419949462" lon="9.848368073242357"><ele>391.0</ele><time>2026-04-26T09:28:39Z</time></trkpt><trkpt lat="45.80327656625864" lon="9.848248272098166"><ele>390.0</ele><time>2026-04-26T09:28:41Z</time></trkpt><trkpt lat="45.80317774606784" lon="9.848141684874266"><ele>389.0</ele><time>2026-04-26T09:28:43Z</time></trkpt><trkpt lat="45.803090035455064" lon="9.848038831969827"><ele>388.0</ele><time>2026-04-26T09:28:45Z</time></trkpt><trkpt lat="45.80301180672399" lon="9.847932246867066"><ele>387.0</ele><time>2026-04-26T09:28:47Z</time></trkpt><trkpt lat="45.802932366530406" lon="9.847827922901246"><ele>387.0</ele><time>2026-04-26T09:28:49Z</time></trkpt><trkpt lat="45.802826712103226" lon="9.847704918490999"><ele>387.0</ele><time>2026-04-26T09:28:51Z</time></trkpt><trkpt lat="45.802774880762286" lon="9.847644798458619"><ele>387.0</ele><time>2026-04-26T09:28:52Z</time></trkpt><trkpt lat="45.80272575602198" lon="9.847580354160133"><ele>387.0</ele><time>2026-04-26T09:28:53Z</time></trkpt><trkpt lat="45.802672053571634" lon="9.847523561620388"><ele>387.0</ele><time>2026-04-26T09:28:54Z</time></trkpt><trkpt lat="45.80262829238885" lon="9.847451802914911"><ele>387.0</ele><time>2026-04-26T09:28:55Z</time></trkpt><trkpt lat="45.80257257438259" lon="9.847404388252077"><ele>386.5</ele><time>2026-04-26T09:28:56Z</time></trkpt><trkpt lat="45.80251430500782" lon="9.847355406632271"><ele>386.0</ele><time>2026-04-26T09:28:57Z</time></trkpt><trkpt lat="45.80245380845246" lon="9.847317020378147"><ele>385.5</ele><time>2026-04-26T09:28:58Z</time></trkpt><trkpt lat="45.802395787558694" lon="9.847276010161174"><ele>385.0</ele><time>2026-04-26T09:28:59Z</time></trkpt><trkpt lat="45.802337594030256" lon="9.84724128010457"><ele>384.5</ele><time>2026-04-26T09:29:00Z</time></trkpt><trkpt lat="45.8022771986958" lon="9.847200250983905"><ele>384.0</ele><time>2026-04-26T09:29:01Z</time></trkpt><trkpt lat="45.802150754989555" lon="9.847164798758559"><ele>384.0</ele><time>2026-04-26T09:29:03Z</time></trkpt><trkpt lat="45.802024530994366" lon="9.847139940138296"><ele>384.0</ele><time>2026-04-26T09:29:05Z</time></trkpt><trkpt lat="45.80190932118978" lon="9.847130310180832"><ele>384.0</ele><time>2026-04-26T09:29:07Z</time></trkpt><trkpt lat="45.80179801035245" lon="9.847199960860966"><ele>384.0</ele><time>2026-04-26T09:29:09Z</time></trkpt><trkpt lat="45.80173449484381" lon="9.847213373168186"><ele>384.0</ele><time>2026-04-26T09:29:10Z</time></trkpt><trkpt lat="45.80167060941313" lon="9.847211764140653"><ele>383.5</ele><time>2026-04-26T09:29:11Z</time></trkpt><trkpt lat="45.80160792832539" lon="9.847199452550841"><ele>383.0</ele><time>2026-04-26T09:29:12Z</time></trkpt><trkpt lat="45.801541450021915" lon="9.847189922258547"><ele>382.5</ele><time>2026-04-26T09:29:13Z</time></trkpt><trkpt lat="45.80147535979667" lon="9.847191661891966"><ele>382.0</ele><time>2026-04-26T09:29:14Z</time></trkpt><trkpt lat="45.8014098301266" lon="9.847211997361278"><ele>381.5</ele><time>2026-04-26T09:29:15Z</time></trkpt><trkpt lat="45.80128600027459" lon="9.847248218705623"><ele>381.0</ele><time>2026-04-26T09:29:17Z</time></trkpt><trkpt lat="45.8012259277168" lon="9.847276900399212"><ele>381.0</ele><time>2026-04-26T09:29:18Z</time></trkpt><trkpt lat="45.80117258522303" lon="9.847333441992413"><ele>381.0</ele><time>2026-04-26T09:29:19Z</time></trkpt><trkpt lat="45.80110941096403" lon="9.84738230672995"><ele>381.0</ele><time>2026-04-26T09:29:20Z</time></trkpt><trkpt lat="45.801048385172855" lon="9.847437316240388"><ele>381.0</ele><time>2026-04-26T09:29:21Z</time></trkpt><trkpt lat="45.80098998188731" lon="9.84748916965273"><ele>381.0</ele><time>2026-04-26T09:29:22Z</time></trkpt><trkpt lat="45.80092901148015" lon="9.847536673095924"><ele>381.0</ele><time>2026-04-26T09:29:23Z</time></trkpt><trkpt lat="45.80087271787405" lon="9.847584225281583"><ele>381.0</ele><time>2026-04-26T09:29:24Z</time></trkpt><trkpt lat="45.80081840768604" lon="9.84763329420709"><ele>381.4</ele><time>2026-04-26T09:29:25Z</time></trkpt><trkpt lat="45.80071648382159" lon="9.847733256645729"><ele>381.8</ele><time>2026-04-26T09:29:27Z</time></trkpt><trkpt lat="45.80063670184445" lon="9.84782506100716"><ele>382.2</ele><time>2026-04-26T09:29:29Z</time></trkpt><trkpt lat="45.800570749847196" lon="9.847886237812585"><ele>382.59999999999997</ele><time>2026-04-26T09:29:31Z</time></trkpt><trkpt lat="45.80051316745003" lon="9.847808133221141"><ele>383.0</ele><time>2026-04-26T09:29:33Z</time></trkpt><trkpt lat="45.800434883366584" lon="9.847690441333828"><ele>382.2</ele><time>2026-04-26T09:29:35Z</time></trkpt><trkpt lat="45.800347807701435" lon="9.847561191151405"><ele>381.4</ele><time>2026-04-26T09:29:37Z</time></trkpt><trkpt lat="45.80026664943988" lon="9.847443792626903"><ele>380.59999999999997</ele><time>2026-04-26T09:29:39Z</time></trkpt><trkpt lat="45.800221103042816" lon="9.847317478909265"><ele>379.79999999999995</ele><time>2026-04-26T09:29:41Z</time></trkpt><trkpt lat="45.800228871635525" lon="9.847221246310953"><ele>379.0</ele><time>2026-04-26T09:29:43Z</time></trkpt><trkpt lat="45.80027993247581" lon="9.847115866763037"><ele>379.0</ele><time>2026-04-26T09:29:47Z</time></trkpt><trkpt lat="45.80033751550195" lon="9.846989760669576"><ele>379.0</ele><time>2026-04-26T09:29:49Z</time></trkpt><trkpt lat="45.800365576719585" lon="9.84690416236079"><ele>379.0</ele><time>2026-04-26T09:29:52Z</time></trkpt><trkpt lat="45.80035220364738" lon="9.846795036598582"><ele>379.0</ele><time>2026-04-26T09:29:54Z</time></trkpt><trkpt lat="45.80034312680653" lon="9.846624803999273"><ele>379.0</ele><time>2026-04-26T09:29:56Z</time></trkpt><trkpt lat="45.800334395828266" lon="9.846530237304787"><ele>379.0</ele><time>2026-04-26T09:29:57Z</time></trkpt><trkpt lat="45.80032619637168" lon="9.846398493239075"><ele>379.3333333333333</ele><time>2026-04-26T09:29:59Z</time></trkpt><trkpt lat="45.80039225683587" lon="9.846408250568139"><ele>379.66666666666663</ele><time>2026-04-26T09:30:02Z</time></trkpt><trkpt lat="45.800478869014526" lon="9.846409406259717"><ele>380.0</ele><time>2026-04-26T09:30:05Z</time></trkpt><trkpt lat="45.800590774593935" lon="9.846384686171746"><ele>380.3333333333333</ele><time>2026-04-26T09:30:07Z</time></trkpt><trkpt lat="45.800572741795904" lon="9.846294810600325"><ele>380.6666666666667</ele><time>2026-04-26T09:30:10Z</time></trkpt><trkpt lat="45.8004620392576" lon="9.846323430544622"><ele>381.0</ele><time>2026-04-26T09:30:12Z</time></trkpt><trkpt lat="45.80039937676184" lon="9.846306393120798"><ele>381.0</ele><time>2026-04-26T09:30:13Z</time></trkpt><trkpt lat="45.800332243647055" lon="9.846296894565505"><ele>381.0</ele><time>2026-04-26T09:30:14Z</time></trkpt><trkpt lat="45.800265656947325" lon="9.846312067644863"><ele>381.0</ele><time>2026-04-26T09:30:15Z</time></trkpt><trkpt lat="45.80020111630847" lon="9.846339027866224"><ele>381.0</ele><time>2026-04-26T09:30:16Z</time></trkpt><trkpt lat="45.80013828836518" lon="9.846360034732632"><ele>381.0</ele><time>2026-04-26T09:30:17Z</time></trkpt><trkpt lat="45.80007448790048" lon="9.8463816512382"><ele>381.0</ele><time>2026-04-26T09:30:18Z</time></trkpt><trkpt lat="45.79995557973192" lon="9.846438483913241"><ele>381.25</ele><time>2026-04-26T09:30:20Z</time></trkpt><trkpt lat="45.79984414869068" lon="9.846513984514932"><ele>381.5</ele><time>2026-04-26T09:30:22Z</time></trkpt><trkpt lat="45.79974009926383" lon="9.84658451541891"><ele>381.75</ele><time>2026-04-26T09:30:24Z</time></trkpt><trkpt lat="45.799644090381186" lon="9.846662456041308"><ele>382.0</ele><time>2026-04-26T09:30:26Z</time></trkpt><trkpt lat="45.799556508413716" lon="9.846734647039213"><ele>381.8333333333333</ele><time>2026-04-26T09:30:28Z</time></trkpt><trkpt lat="45.799499382719894" lon="9.846805619973473"><ele>381.66666666666663</ele><time>2026-04-26T09:30:30Z</time></trkpt><trkpt lat="45.799414181063376" lon="9.846896877924124"><ele>381.5</ele><time>2026-04-26T09:30:32Z</time></trkpt><trkpt lat="45.79935393419362" lon="9.846955842901991"><ele>381.3333333333333</ele><time>2026-04-26T09:30:33Z</time></trkpt><trkpt lat="45.799294217230894" lon="9.84700681485217"><ele>381.1666666666667</ele><time>2026-04-26T09:30:34Z</time></trkpt><trkpt lat="45.799236784107734" lon="9.847059607163684"><ele>381.0</ele><time>2026-04-26T09:30:35Z</time></trkpt><trkpt lat="45.799183336472" lon="9.847109242122018"><ele>381.0</ele><time>2026-04-26T09:30:36Z</time></trkpt><trkpt lat="45.799131284136465" lon="9.847167513187541"><ele>381.0</ele><time>2026-04-26T09:30:37Z</time></trkpt><trkpt lat="45.79902898971358" lon="9.847267320021935"><ele>381.0</ele><time>2026-04-26T09:30:39Z</time></trkpt><trkpt lat="45.798935760636056" lon="9.84733702197944"><ele>381.0</ele><time>2026-04-26T09:30:41Z</time></trkpt><trkpt lat="45.79885616637886" lon="9.847354082669753"><ele>381.0</ele><time>2026-04-26T09:30:43Z</time></trkpt><trkpt lat="45.798777069487315" lon="9.847330186526458"><ele>381.0</ele><time>2026-04-26T09:30:45Z</time></trkpt><trkpt lat="45.798692046002394" lon="9.8473078026646"><ele>381.0</ele><time>2026-04-26T09:30:47Z</time></trkpt><trkpt lat="45.79864305148438" lon="9.847241244096196"><ele>381.0</ele><time>2026-04-26T09:30:48.999Z</time></trkpt><trkpt lat="45.79861309547892" lon="9.847069489021584"><ele>381.0</ele><time>2026-04-26T09:30:50.999Z</time></trkpt><trkpt lat="45.798586717746886" lon="9.846977593308964"><ele>381.0</ele><time>2026-04-26T09:30:51.999Z</time></trkpt><trkpt lat="45.7985554159788" lon="9.846888288272496"><ele>381.0</ele><time>2026-04-26T09:30:53Z</time></trkpt><trkpt lat="45.79852736623753" lon="9.846804976442556"><ele>381.0</ele><time>2026-04-26T09:30:54Z</time></trkpt><trkpt lat="45.79847586355805" lon="9.846642334035105"><ele>381.0</ele><time>2026-04-26T09:30:56Z</time></trkpt><trkpt lat="45.79842801416894" lon="9.84648882022528"><ele>381.0</ele><time>2026-04-26T09:30:58Z</time></trkpt><trkpt lat="45.79838475741669" lon="9.846351392172014"><ele>381.0</ele><time>2026-04-26T09:31:00Z</time></trkpt><trkpt lat="45.79834965410021" lon="9.846219580784227"><ele>381.0</ele><time>2026-04-26T09:31:02Z</time></trkpt><trkpt lat="45.798333255872365" lon="9.846064681671233"><ele>381.0</ele><time>2026-04-26T09:31:04Z</time></trkpt><trkpt lat="45.798310844894914" lon="9.84596797759484"><ele>381.0</ele><time>2026-04-26T09:31:05Z</time></trkpt><trkpt lat="45.798286093516126" lon="9.845879781119823"><ele>381.0</ele><time>2026-04-26T09:31:06Z</time></trkpt><trkpt lat="45.798256761091544" lon="9.845798973424595"><ele>381.0</ele><time>2026-04-26T09:31:07Z</time></trkpt><trkpt lat="45.79822421115635" lon="9.845716990162964"><ele>381.0</ele><time>2026-04-26T09:31:08Z</time></trkpt><trkpt lat="45.79819213832169" lon="9.845632740701392"><ele>381.0</ele><time>2026-04-26T09:31:09Z</time></trkpt><trkpt lat="45.798150193054596" lon="9.845466774411925"><ele>381.0</ele><time>2026-04-26T09:31:11Z</time></trkpt><trkpt lat="45.7981107085588" lon="9.845298424706657"><ele>381.0</ele><time>2026-04-26T09:31:13Z</time></trkpt><trkpt lat="45.7980871464824" lon="9.845211459071095"><ele>381.0</ele><time>2026-04-26T09:31:14Z</time></trkpt><trkpt lat="45.79803796583706" lon="9.84504402688483"><ele>381.0</ele><time>2026-04-26T09:31:16Z</time></trkpt><trkpt lat="45.79800896241383" lon="9.8449595953413"><ele>381.0</ele><time>2026-04-26T09:31:17Z</time></trkpt><trkpt lat="45.79798278724244" lon="9.844876674724366"><ele>381.0</ele><time>2026-04-26T09:31:18Z</time></trkpt><trkpt lat="45.797956681329" lon="9.844790751309072"><ele>381.3333333333333</ele><time>2026-04-26T09:31:19Z</time></trkpt><trkpt lat="45.797934854892844" lon="9.84470581196098"><ele>381.6666666666667</ele><time>2026-04-26T09:31:20Z</time></trkpt><trkpt lat="45.79789167609842" lon="9.844609410522857"><ele>382.0</ele><time>2026-04-26T09:31:22Z</time></trkpt><trkpt lat="45.797868066025586" lon="9.844513543360906"><ele>382.33333333333337</ele><time>2026-04-26T09:31:23Z</time></trkpt><trkpt lat="45.79782464971057" lon="9.844392187332627"><ele>382.6666666666667</ele><time>2026-04-26T09:31:25Z</time></trkpt><trkpt lat="45.79778761861689" lon="9.84426949266805"><ele>383.0</ele><time>2026-04-26T09:31:27Z</time></trkpt><trkpt lat="45.7977379963292" lon="9.8441084420625"><ele>383.0</ele><time>2026-04-26T09:31:29Z</time></trkpt><trkpt lat="45.79769077053465" lon="9.84395157827612"><ele>383.0</ele><time>2026-04-26T09:31:31Z</time></trkpt><trkpt lat="45.7976479848639" lon="9.843808348384947"><ele>383.0</ele><time>2026-04-26T09:31:33Z</time></trkpt><trkpt lat="45.79761117101308" lon="9.843668131390142"><ele>383.0</ele><time>2026-04-26T09:31:35Z</time></trkpt><trkpt lat="45.797569121133535" lon="9.843538528975078"><ele>383.0</ele><time>2026-04-26T09:31:37Z</time></trkpt><trkpt lat="45.797517890672566" lon="9.84338397635653"><ele>383.0</ele><time>2026-04-26T09:31:39Z</time></trkpt><trkpt lat="45.797490020912605" lon="9.843298594152229"><ele>383.0</ele><time>2026-04-26T09:31:40Z</time></trkpt><trkpt lat="45.7974632383031" lon="9.843216281284082"><ele>383.0</ele><time>2026-04-26T09:31:41Z</time></trkpt><trkpt lat="45.79740985181552" lon="9.84305165761811"><ele>383.0</ele><time>2026-04-26T09:31:43Z</time></trkpt><trkpt lat="45.797383186819346" lon="9.842968211950472"><ele>383.0</ele><time>2026-04-26T09:31:44Z</time></trkpt><trkpt lat="45.797359512062094" lon="9.842881286032226"><ele>383.0</ele><time>2026-04-26T09:31:45Z</time></trkpt><trkpt lat="45.79733273513324" lon="9.84279353810648"><ele>383.0</ele><time>2026-04-26T09:31:46Z</time></trkpt><trkpt lat="45.797311491270186" lon="9.842705207505146"><ele>383.0</ele><time>2026-04-26T09:31:47Z</time></trkpt><trkpt lat="45.797285806781076" lon="9.842615408439507"><ele>383.0</ele><time>2026-04-26T09:31:48Z</time></trkpt><trkpt lat="45.79725945783745" lon="9.84252943802452"><ele>383.0</ele><time>2026-04-26T09:31:49Z</time></trkpt><trkpt lat="45.79721805401647" lon="9.842382754833185"><ele>383.0</ele><time>2026-04-26T09:31:51Z</time></trkpt><trkpt lat="45.79723313830998" lon="9.842248568621477"><ele>383.0</ele><time>2026-04-26T09:31:53Z</time></trkpt><trkpt lat="45.79732863221492" lon="9.842167818818321"><ele>382.83333333333337</ele><time>2026-04-26T09:31:55Z</time></trkpt><trkpt lat="45.79735938795951" lon="9.842021396154179"><ele>382.6666666666667</ele><time>2026-04-26T09:31:57Z</time></trkpt><trkpt lat="45.797323113024056" lon="9.841931044608788"><ele>382.5</ele><time>2026-04-26T09:31:58Z</time></trkpt><trkpt lat="45.7972787885173" lon="9.841851990753565"><ele>382.3333333333333</ele><time>2026-04-26T09:31:59Z</time></trkpt><trkpt lat="45.79723952045789" lon="9.841772089681019"><ele>382.16666666666663</ele><time>2026-04-26T09:32:00Z</time></trkpt><trkpt lat="45.79720509039442" lon="9.841688055109238"><ele>382.0</ele><time>2026-04-26T09:32:01Z</time></trkpt><trkpt lat="45.79717035997745" lon="9.841607285263322"><ele>382.0</ele><time>2026-04-26T09:32:02Z</time></trkpt><trkpt lat="45.79713504464877" lon="9.841528259327848"><ele>382.0</ele><time>2026-04-26T09:32:03Z</time></trkpt><trkpt lat="45.797100295443165" lon="9.841451659993094"><ele>382.0</ele><time>2026-04-26T09:32:04Z</time></trkpt><trkpt lat="45.79706869879163" lon="9.84137230424552"><ele>382.0</ele><time>2026-04-26T09:32:05Z</time></trkpt><trkpt lat="45.797038819605405" lon="9.841292121147763"><ele>382.0</ele><time>2026-04-26T09:32:06Z</time></trkpt><trkpt lat="45.79696167748379" lon="9.841185782216739"><ele>382.0</ele><time>2026-04-26T09:32:08Z</time></trkpt><trkpt lat="45.796863404996785" lon="9.841289104276333"><ele>381.40000000000003</ele><time>2026-04-26T09:32:10Z</time></trkpt><trkpt lat="45.796778473647706" lon="9.841375853619923"><ele>380.8</ele><time>2026-04-26T09:32:12Z</time></trkpt><trkpt lat="45.79668869718794" lon="9.84142165114393"><ele>380.2</ele><time>2026-04-26T09:32:14Z</time></trkpt><trkpt lat="45.796601077719544" lon="9.841467531674459"><ele>379.6</ele><time>2026-04-26T09:32:16Z</time></trkpt><trkpt lat="45.79651795007655" lon="9.841455461233156"><ele>379.0</ele><time>2026-04-26T09:32:18Z</time></trkpt><trkpt lat="45.79644171310275" lon="9.841446706084875"><ele>379.0</ele><time>2026-04-26T09:32:21Z</time></trkpt><trkpt lat="45.79637700412854" lon="9.841441373649776"><ele>379.0</ele><time>2026-04-26T09:32:23Z</time></trkpt><trkpt lat="45.796294352027466" lon="9.84154824714864"><ele>379.0</ele><time>2026-04-26T09:32:25Z</time></trkpt><trkpt lat="45.796230597612514" lon="9.841591997486553"><ele>379.0</ele><time>2026-04-26T09:32:26Z</time></trkpt><trkpt lat="45.796164322733524" lon="9.841629658627003"><ele>379.0</ele><time>2026-04-26T09:32:27Z</time></trkpt><trkpt lat="45.7961007655528" lon="9.841669362178669"><ele>379.0</ele><time>2026-04-26T09:32:28Z</time></trkpt><trkpt lat="45.79604292934914" lon="9.841722922738269"><ele>378.5</ele><time>2026-04-26T09:32:29Z</time></trkpt><trkpt lat="45.79598581968576" lon="9.841774831558618"><ele>378.0</ele><time>2026-04-26T09:32:30Z</time></trkpt><trkpt lat="45.79590031401063" lon="9.841835756249475"><ele>377.5</ele><time>2026-04-26T09:32:32Z</time></trkpt><trkpt lat="45.795837812524404" lon="9.841765941462958"><ele>377.0</ele><time>2026-04-26T09:32:35Z</time></trkpt><trkpt lat="45.79578192669045" lon="9.84161157025951"><ele>376.5</ele><time>2026-04-26T09:32:37Z</time></trkpt><trkpt lat="45.79574580486491" lon="9.84152774913913"><ele>376.0</ele><time>2026-04-26T09:32:38Z</time></trkpt><trkpt lat="45.79571713895837" lon="9.841440967491346"><ele>376.0</ele><time>2026-04-26T09:32:39Z</time></trkpt><trkpt lat="45.79568875380618" lon="9.841354282502609"><ele>376.0</ele><time>2026-04-26T09:32:40Z</time></trkpt><trkpt lat="45.795661323942745" lon="9.841269460715983"><ele>376.0</ele><time>2026-04-26T09:32:41Z</time></trkpt><trkpt lat="45.795629904592616" lon="9.841186185678712"><ele>376.0</ele><time>2026-04-26T09:32:42Z</time></trkpt><trkpt lat="45.79560048106535" lon="9.841100555063429"><ele>376.0</ele><time>2026-04-26T09:32:43Z</time></trkpt><trkpt lat="45.795591693909294" lon="9.840959002548056"><ele>376.0</ele><time>2026-04-26T09:32:45Z</time></trkpt><trkpt lat="45.79559357779756" lon="9.840782578757738"><ele>376.20000000000005</ele><time>2026-04-26T09:32:47Z</time></trkpt><trkpt lat="45.79556121029985" lon="9.840688731762814"><ele>376.40000000000003</ele><time>2026-04-26T09:32:48Z</time></trkpt><trkpt lat="45.795509281435194" lon="9.840533781186588"><ele>376.6</ele><time>2026-04-26T09:32:50Z</time></trkpt><trkpt lat="45.79544469276018" lon="9.840462911370963"><ele>376.8</ele><time>2026-04-26T09:32:52Z</time></trkpt><trkpt lat="45.795366347870186" lon="9.840481765351452"><ele>377.0</ele><time>2026-04-26T09:32:54Z</time></trkpt><trkpt lat="45.79528987449108" lon="9.840607846273295"><ele>377.0</ele><time>2026-04-26T09:32:56Z</time></trkpt><trkpt lat="45.79535148065805" lon="9.840789130749394"><ele>377.0</ele><time>2026-04-26T09:32:58Z</time></trkpt><trkpt lat="45.79537388248945" lon="9.840885925155442"><ele>377.0</ele><time>2026-04-26T09:32:59Z</time></trkpt><trkpt lat="45.795401538941135" lon="9.8409751748452"><ele>377.0</ele><time>2026-04-26T09:33:00Z</time></trkpt><trkpt lat="45.795423169189846" lon="9.84107018252242"><ele>377.0</ele><time>2026-04-26T09:33:01Z</time></trkpt><trkpt lat="45.795438476970624" lon="9.8411775572395"><ele>377.0</ele><time>2026-04-26T09:33:02Z</time></trkpt><trkpt lat="45.79546142072901" lon="9.8412640052034"><ele>376.83333333333337</ele><time>2026-04-26T09:33:03Z</time></trkpt><trkpt lat="45.795483456703955" lon="9.841350941188054"><ele>376.6666666666667</ele><time>2026-04-26T09:33:04Z</time></trkpt><trkpt lat="45.79552528505562" lon="9.841516003000272"><ele>376.5</ele><time>2026-04-26T09:33:06Z</time></trkpt><trkpt lat="45.79548635234495" lon="9.84162711599078"><ele>376.3333333333333</ele><time>2026-04-26T09:33:08Z</time></trkpt><trkpt lat="45.79539270800254" lon="9.841678669287575"><ele>376.16666666666663</ele><time>2026-04-26T09:33:10Z</time></trkpt><trkpt lat="45.79532631388428" lon="9.841705198254575"><ele>376.0</ele><time>2026-04-26T09:33:11Z</time></trkpt><trkpt lat="45.7952690395446" lon="9.8417518459177"><ele>376.0</ele><time>2026-04-26T09:33:12Z</time></trkpt><trkpt lat="45.795201870178865" lon="9.841795144052051"><ele>376.0</ele><time>2026-04-26T09:33:13Z</time></trkpt><trkpt lat="45.795111646091115" lon="9.841861009886546"><ele>376.0</ele><time>2026-04-26T09:33:15Z</time></trkpt><trkpt lat="45.79505081520381" lon="9.841796023922102"><ele>376.0</ele><time>2026-04-26T09:33:17Z</time></trkpt><trkpt lat="45.794994684994585" lon="9.84163391868385"><ele>376.0</ele><time>2026-04-26T09:33:19Z</time></trkpt><trkpt lat="45.794965881962334" lon="9.841510405123701"><ele>376.16666666666663</ele><time>2026-04-26T09:33:20Z</time></trkpt><trkpt lat="45.79492922841875" lon="9.841417077698605"><ele>376.3333333333333</ele><time>2026-04-26T09:33:21Z</time></trkpt><trkpt lat="45.794906031474135" lon="9.841309506253051"><ele>376.5</ele><time>2026-04-26T09:33:22Z</time></trkpt><trkpt lat="45.79487901138823" lon="9.841202498123762"><ele>376.6666666666667</ele><time>2026-04-26T09:33:23Z</time></trkpt><trkpt lat="45.79485390383796" lon="9.841093076480515"><ele>376.83333333333337</ele><time>2026-04-26T09:33:24Z</time></trkpt><trkpt lat="45.79482501325217" lon="9.840987388669346"><ele>377.0</ele><time>2026-04-26T09:33:25Z</time></trkpt><trkpt lat="45.79479387414309" lon="9.840886709144497"><ele>376.99999999999994</ele><time>2026-04-26T09:33:26Z</time></trkpt><trkpt lat="45.79476736800016" lon="9.840784440100016"><ele>377.0</ele><time>2026-04-26T09:33:27Z</time></trkpt><trkpt lat="45.79473940144637" lon="9.840687443180846"><ele>377.0</ele><time>2026-04-26T09:33:28Z</time></trkpt><trkpt lat="45.7947074325519" lon="9.840591128275245"><ele>377.0</ele><time>2026-04-26T09:33:29Z</time></trkpt><trkpt lat="45.794685318913174" lon="9.84049576576965"><ele>377.0</ele><time>2026-04-26T09:33:30Z</time></trkpt><trkpt lat="45.794657494734" lon="9.840407107066904"><ele>376.99999999999994</ele><time>2026-04-26T09:33:31Z</time></trkpt><trkpt lat="45.794629062801" lon="9.840325478736167"><ele>377.0</ele><time>2026-04-26T09:33:32Z</time></trkpt><trkpt lat="45.79459643588693" lon="9.84024283011556"><ele>377.0</ele><time>2026-04-26T09:33:33Z</time></trkpt><trkpt lat="45.79455870445148" lon="9.840168937260483"><ele>377.0</ele><time>2026-04-26T09:33:34Z</time></trkpt><trkpt lat="45.7945134108491" lon="9.840013364215116"><ele>377.0</ele><time>2026-04-26T09:33:36Z</time></trkpt><trkpt lat="45.79451390693479" lon="9.839913120980357"><ele>377.0</ele><time>2026-04-26T09:33:37Z</time></trkpt><trkpt lat="45.794505231067475" lon="9.839806510398773"><ele>377.0</ele><time>2026-04-26T09:33:38Z</time></trkpt><trkpt lat="45.79449339213238" lon="9.839699044712553"><ele>377.0</ele><time>2026-04-26T09:33:39Z</time></trkpt><trkpt lat="45.79448169386514" lon="9.839607122807758"><ele>376.71428571428567</ele><time>2026-04-26T09:33:40Z</time></trkpt><trkpt lat="45.79445586762507" lon="9.839494759414572"><ele>376.42857142857144</ele><time>2026-04-26T09:33:41Z</time></trkpt><trkpt lat="45.794442193126734" lon="9.83939078312271"><ele>376.1428571428571</ele><time>2026-04-26T09:33:42Z</time></trkpt><trkpt lat="45.79442181282067" lon="9.839294962701329"><ele>375.85714285714283</ele><time>2026-04-26T09:33:43Z</time></trkpt><trkpt lat="45.7944059375738" lon="9.839200082684302"><ele>375.57142857142856</ele><time>2026-04-26T09:33:44Z</time></trkpt><trkpt lat="45.79438724895875" lon="9.839109212250166"><ele>375.2857142857143</ele><time>2026-04-26T09:33:45Z</time></trkpt><trkpt lat="45.79437051409333" lon="9.839019774635046"><ele>375.0</ele><time>2026-04-26T09:33:46Z</time></trkpt><trkpt lat="45.79434354658343" lon="9.838844150744132"><ele>376.8333333333333</ele><time>2026-04-26T09:33:48Z</time></trkpt><trkpt lat="45.79432676945232" lon="9.838744954597967"><ele>378.66666666666663</ele><time>2026-04-26T09:33:49Z</time></trkpt><trkpt lat="45.79429140301834" lon="9.838567456636616"><ele>380.5</ele><time>2026-04-26T09:33:51Z</time></trkpt><trkpt lat="45.79426984925255" lon="9.838476849274223"><ele>382.3333333333333</ele><time>2026-04-26T09:33:52Z</time></trkpt><trkpt lat="45.79425218141628" lon="9.838385133966906"><ele>384.16666666666663</ele><time>2026-04-26T09:33:53Z</time></trkpt><trkpt lat="45.794233305867515" lon="9.838293911013858"><ele>386.0</ele><time>2026-04-26T09:33:54Z</time></trkpt><trkpt lat="45.794216761321856" lon="9.838204622266462"><ele>386.0</ele><time>2026-04-26T09:33:55Z</time></trkpt><trkpt lat="45.794185705919176" lon="9.838039442289721"><ele>386.0</ele><time>2026-04-26T09:33:57Z</time></trkpt><trkpt lat="45.794158252821674" lon="9.837890117409609"><ele>386.0</ele><time>2026-04-26T09:33:59Z</time></trkpt><trkpt lat="45.79413091644702" lon="9.837753473421417"><ele>386.0</ele><time>2026-04-26T09:34:01Z</time></trkpt><trkpt lat="45.79410162290324" lon="9.837627755321924"><ele>386.0</ele><time>2026-04-26T09:34:03Z</time></trkpt><trkpt lat="45.79402506619199" lon="9.837528214304434"><ele>384.66666666666663</ele><time>2026-04-26T09:34:05Z</time></trkpt><trkpt lat="45.79406673890401" lon="9.837409743536886"><ele>383.3333333333333</ele><time>2026-04-26T09:34:07Z</time></trkpt><trkpt lat="45.79408232110834" lon="9.837273041147368"><ele>382.0</ele><time>2026-04-26T09:34:09Z</time></trkpt><trkpt lat="45.794009553215034" lon="9.837278069344755"><ele>380.66666666666663</ele><time>2026-04-26T09:34:11Z</time></trkpt><trkpt lat="45.79393348954693" lon="9.837257555609144"><ele>379.3333333333333</ele><time>2026-04-26T09:34:12Z</time></trkpt><trkpt lat="45.793867482763524" lon="9.83726825974166"><ele>378.0</ele><time>2026-04-26T09:34:13Z</time></trkpt><trkpt lat="45.79373906445605" lon="9.837269942503143"><ele>378.0</ele><time>2026-04-26T09:34:15Z</time></trkpt><trkpt lat="45.79373398061524" lon="9.837132666412483"><ele>378.0</ele><time>2026-04-26T09:34:16Z</time></trkpt><trkpt lat="45.793692906670614" lon="9.8370473574641"><ele>378.0</ele><time>2026-04-26T09:34:17Z</time></trkpt><trkpt lat="45.79364420750863" lon="9.836986397086848"><ele>378.0</ele><time>2026-04-26T09:34:18Z</time></trkpt><trkpt lat="45.793592787798595" lon="9.836932434186725"><ele>378.0</ele><time>2026-04-26T09:34:19Z</time></trkpt><trkpt lat="45.79353951820802" lon="9.836881507196951"><ele>378.0</ele><time>2026-04-26T09:34:20Z</time></trkpt><trkpt lat="45.79342978747225" lon="9.836800464950603"><ele>379.1666666666667</ele><time>2026-04-26T09:34:22Z</time></trkpt><trkpt lat="45.79337134562309" lon="9.836764987201299"><ele>380.33333333333337</ele><time>2026-04-26T09:34:23Z</time></trkpt><trkpt lat="45.79326569981647" lon="9.836688618019023"><ele>381.5</ele><time>2026-04-26T09:34:25Z</time></trkpt><trkpt lat="45.793215989112696" lon="9.836626079800695"><ele>382.6666666666667</ele><time>2026-04-26T09:34:26Z</time></trkpt><trkpt lat="45.793160623711756" lon="9.836582134773236"><ele>383.83333333333337</ele><time>2026-04-26T09:34:27Z</time></trkpt><trkpt lat="45.793107310908894" lon="9.83653246964951"><ele>385.0</ele><time>2026-04-26T09:34:28Z</time></trkpt><trkpt lat="45.79299926931295" lon="9.836456364171536"><ele>385.0</ele><time>2026-04-26T09:34:30Z</time></trkpt><trkpt lat="45.792945606740254" lon="9.836406445784984"><ele>385.0</ele><time>2026-04-26T09:34:31Z</time></trkpt><trkpt lat="45.79289594644562" lon="9.836345115035641"><ele>385.0</ele><time>2026-04-26T09:34:32Z</time></trkpt><trkpt lat="45.792848149240854" lon="9.83628210767258"><ele>385.0</ele><time>2026-04-26T09:34:33Z</time></trkpt><trkpt lat="45.792795453757606" lon="9.836229881814358"><ele>385.0</ele><time>2026-04-26T09:34:34Z</time></trkpt><trkpt lat="45.79273819490082" lon="9.836186866028159"><ele>385.0</ele><time>2026-04-26T09:34:35Z</time></trkpt><trkpt lat="45.79267509953873" lon="9.836158366408979"><ele>385.0</ele><time>2026-04-26T09:34:36Z</time></trkpt><trkpt lat="45.79261513720951" lon="9.836128965747644"><ele>394.6666666666667</ele><time>2026-04-26T09:34:37Z</time></trkpt><trkpt lat="45.79255893075686" lon="9.83607837530381"><ele>404.33333333333337</ele><time>2026-04-26T09:34:38Z</time></trkpt><trkpt lat="45.792398688941795" lon="9.836304795703933"><ele>414.0</ele><time>2026-04-26T09:34:39Z</time></trkpt><trkpt lat="45.792383070827135" lon="9.836043785776655"><ele>407.4</ele><time>2026-04-26T09:34:41Z</time></trkpt><trkpt lat="45.792364415806524" lon="9.83587885024599"><ele>400.79999999999995</ele><time>2026-04-26T09:34:42Z</time></trkpt><trkpt lat="45.79233449002503" lon="9.835750593070923"><ele>394.20000000000005</ele><time>2026-04-26T09:34:43Z</time></trkpt><trkpt lat="45.7923075509254" lon="9.835635797910617"><ele>387.6</ele><time>2026-04-26T09:34:44Z</time></trkpt><trkpt lat="45.79223236584357" lon="9.835649910825074"><ele>381.0</ele><time>2026-04-26T09:34:45Z</time></trkpt><trkpt lat="45.792145524821734" lon="9.835510537560744"><ele>381.0</ele><time>2026-04-26T09:34:47Z</time></trkpt><trkpt lat="45.7921131556427" lon="9.835415145089492"><ele>381.0</ele><time>2026-04-26T09:34:48Z</time></trkpt><trkpt lat="45.7920517366284" lon="9.835361289565459"><ele>381.0</ele><time>2026-04-26T09:34:49Z</time></trkpt><trkpt lat="45.79197529976585" lon="9.83524153725669"><ele>381.0</ele><time>2026-04-26T09:34:51Z</time></trkpt><trkpt lat="45.79189242820846" lon="9.835055109112464"><ele>381.0</ele><time>2026-04-26T09:34:53Z</time></trkpt><trkpt lat="45.7917977542594" lon="9.834949415409643"><ele>381.57142857142856</ele><time>2026-04-26T09:34:55Z</time></trkpt><trkpt lat="45.79175599429742" lon="9.834872702261546"><ele>382.14285714285717</ele><time>2026-04-26T09:34:56Z</time></trkpt><trkpt lat="45.79171084471538" lon="9.834799437052217"><ele>382.7142857142857</ele><time>2026-04-26T09:34:57Z</time></trkpt><trkpt lat="45.791665840722246" lon="9.834723496329616"><ele>383.2857142857143</ele><time>2026-04-26T09:34:58Z</time></trkpt><trkpt lat="45.79161993809821" lon="9.83464428384668"><ele>383.8571428571429</ele><time>2026-04-26T09:34:59Z</time></trkpt><trkpt lat="45.791571103664715" lon="9.83457470078292"><ele>384.42857142857144</ele><time>2026-04-26T09:35:00Z</time></trkpt><trkpt lat="45.791524573148486" lon="9.83450047149194"><ele>385.0</ele><time>2026-04-26T09:35:01Z</time></trkpt><trkpt lat="45.79148331215659" lon="9.834417756039613"><ele>385.0</ele><time>2026-04-26T09:35:02Z</time></trkpt><trkpt lat="45.7914361040787" lon="9.834343293380705"><ele>385.0</ele><time>2026-04-26T09:35:03Z</time></trkpt><trkpt lat="45.791389619252996" lon="9.83427406384663"><ele>385.0</ele><time>2026-04-26T09:35:04Z</time></trkpt><trkpt lat="45.791350168740614" lon="9.834184878467253"><ele>385.0</ele><time>2026-04-26T09:35:05Z</time></trkpt><trkpt lat="45.791302357237946" lon="9.834117733614654"><ele>385.0</ele><time>2026-04-26T09:35:06Z</time></trkpt><trkpt lat="45.79124417078902" lon="9.834057735150301"><ele>385.0</ele><time>2026-04-26T09:35:07Z</time></trkpt><trkpt lat="45.791176559804825" lon="9.83398931428935"><ele>385.0</ele><time>2026-04-26T09:35:08Z</time></trkpt><trkpt lat="45.79110350367607" lon="9.833922508906687"><ele>384.4</ele><time>2026-04-26T09:35:09Z</time></trkpt><trkpt lat="45.79111978797979" lon="9.833831153560988"><ele>383.8</ele><time>2026-04-26T09:35:10Z</time></trkpt><trkpt lat="45.79103384009424" lon="9.833694989681925"><ele>383.20000000000005</ele><time>2026-04-26T09:35:12Z</time></trkpt><trkpt lat="45.79098160114832" lon="9.833616914153723"><ele>382.6</ele><time>2026-04-26T09:35:13Z</time></trkpt><trkpt lat="45.79090472280776" lon="9.833475097239994"><ele>382.0</ele><time>2026-04-26T09:35:15Z</time></trkpt><trkpt lat="45.7908565052014" lon="9.833408227286075"><ele>382.0</ele><time>2026-04-26T09:35:16Z</time></trkpt><trkpt lat="45.7908162596197" lon="9.833333881791116"><ele>382.0</ele><time>2026-04-26T09:35:17Z</time></trkpt><trkpt lat="45.79076267332975" lon="9.833271573842303"><ele>382.0</ele><time>2026-04-26T09:35:18Z</time></trkpt><trkpt lat="45.79069850426955" lon="9.833209996516027"><ele>382.0</ele><time>2026-04-26T09:35:19Z</time></trkpt><trkpt lat="45.79062133154008" lon="9.833056281377097"><ele>382.0</ele><time>2026-04-26T09:35:21Z</time></trkpt><trkpt lat="45.79058558601047" lon="9.832979045650097"><ele>382.0</ele><time>2026-04-26T09:35:22Z</time></trkpt><trkpt lat="45.79054193842121" lon="9.832893822438937"><ele>382.0</ele><time>2026-04-26T09:35:23Z</time></trkpt><trkpt lat="45.790509186064824" lon="9.832798018541974"><ele>382.0</ele><time>2026-04-26T09:35:24Z</time></trkpt><trkpt lat="45.790483301574604" lon="9.832699840020815"><ele>382.0</ele><time>2026-04-26T09:35:25Z</time></trkpt><trkpt lat="45.79046755748842" lon="9.832590464392721"><ele>382.0</ele><time>2026-04-26T09:35:26Z</time></trkpt><trkpt lat="45.790462209300344" lon="9.832470239724108"><ele>382.0</ele><time>2026-04-26T09:35:27Z</time></trkpt><trkpt lat="45.79045627546116" lon="9.832356163998812"><ele>382.0</ele><time>2026-04-26T09:35:28Z</time></trkpt><trkpt lat="45.790435671299115" lon="9.832225329074772"><ele>380.40000000000003</ele><time>2026-04-26T09:35:29Z</time></trkpt><trkpt lat="45.79042664807563" lon="9.832075769216049"><ele>378.8</ele><time>2026-04-26T09:35:30Z</time></trkpt><trkpt lat="45.790425630895164" lon="9.831937431850106"><ele>377.2</ele><time>2026-04-26T09:35:31Z</time></trkpt><trkpt lat="45.79036338760855" lon="9.831752424384169"><ele>375.6</ele><time>2026-04-26T09:35:33Z</time></trkpt><trkpt lat="45.79031536586776" lon="9.83164779352528"><ele>374.0</ele><time>2026-04-26T09:35:34Z</time></trkpt><trkpt lat="45.790251844795996" lon="9.831558802335012"><ele>372.83333333333337</ele><time>2026-04-26T09:35:35Z</time></trkpt><trkpt lat="45.790177518609525" lon="9.831505717563477"><ele>371.6666666666667</ele><time>2026-04-26T09:35:36Z</time></trkpt><trkpt lat="45.79009727098433" lon="9.831481437529733"><ele>370.5</ele><time>2026-04-26T09:35:37Z</time></trkpt><trkpt lat="45.79002221517837" lon="9.831458900832148"><ele>369.3333333333333</ele><time>2026-04-26T09:35:38Z</time></trkpt><trkpt lat="45.789952185430884" lon="9.83143311960022"><ele>368.16666666666663</ele><time>2026-04-26T09:35:39Z</time></trkpt><trkpt lat="45.789884437616905" lon="9.8314033402086"><ele>367.0</ele><time>2026-04-26T09:35:40Z</time></trkpt><trkpt lat="45.78981880177063" lon="9.8313731935427"><ele>367.0</ele><time>2026-04-26T09:35:41Z</time></trkpt><trkpt lat="45.789754956321595" lon="9.831345875128717"><ele>367.0</ele><time>2026-04-26T09:35:42Z</time></trkpt><trkpt lat="45.789691789596056" lon="9.831319875258222"><ele>367.0</ele><time>2026-04-26T09:35:43Z</time></trkpt><trkpt lat="45.78963221290564" lon="9.831289993346344"><ele>367.0</ele><time>2026-04-26T09:35:44Z</time></trkpt><trkpt lat="45.78957109571869" lon="9.831258954790307"><ele>367.0</ele><time>2026-04-26T09:35:45Z</time></trkpt><trkpt lat="45.78950951646012" lon="9.83123107661783"><ele>367.0</ele><time>2026-04-26T09:35:46Z</time></trkpt><trkpt lat="45.7894483953356" lon="9.831204131543121"><ele>367.0</ele><time>2026-04-26T09:35:47Z</time></trkpt><trkpt lat="45.78938722629119" lon="9.831176501817538"><ele>367.16666666666663</ele><time>2026-04-26T09:35:48Z</time></trkpt><trkpt lat="45.78932327224853" lon="9.83115136014578"><ele>367.3333333333333</ele><time>2026-04-26T09:35:49Z</time></trkpt><trkpt lat="45.78920037582264" lon="9.831104716279933"><ele>367.5</ele><time>2026-04-26T09:35:51Z</time></trkpt><trkpt lat="45.78913896531022" lon="9.831078087239966"><ele>367.6666666666667</ele><time>2026-04-26T09:35:52Z</time></trkpt><trkpt lat="45.7890772205668" lon="9.831048737628553"><ele>367.83333333333337</ele><time>2026-04-26T09:35:53Z</time></trkpt><trkpt lat="45.789015037114154" lon="9.831022654801114"><ele>368.0</ele><time>2026-04-26T09:35:54Z</time></trkpt><trkpt lat="45.78895255413077" lon="9.830995819032115"><ele>367.14285714285717</ele><time>2026-04-26T09:35:55Z</time></trkpt><trkpt lat="45.78889173219628" lon="9.830968349297825"><ele>366.2857142857143</ele><time>2026-04-26T09:35:56Z</time></trkpt><trkpt lat="45.78882943759747" lon="9.83093773845013"><ele>365.42857142857144</ele><time>2026-04-26T09:35:57Z</time></trkpt><trkpt lat="45.788770099268966" lon="9.83089586242644"><ele>364.57142857142856</ele><time>2026-04-26T09:35:58Z</time></trkpt><trkpt lat="45.788713521312154" lon="9.830843073887058"><ele>363.71428571428567</ele><time>2026-04-26T09:35:59Z</time></trkpt><trkpt lat="45.78866057210529" lon="9.83079150962407"><ele>362.85714285714283</ele><time>2026-04-26T09:36:00Z</time></trkpt><trkpt lat="45.788608257314195" lon="9.83073322166853"><ele>362.0</ele><time>2026-04-26T09:36:01Z</time></trkpt><trkpt lat="45.78855713393815" lon="9.830679519621013"><ele>362.7142857142857</ele><time>2026-04-26T09:36:02Z</time></trkpt><trkpt lat="45.78850330817175" lon="9.830630174583888"><ele>363.42857142857144</ele><time>2026-04-26T09:36:03Z</time></trkpt><trkpt lat="45.788449191850795" lon="9.830581356636303"><ele>364.1428571428571</ele><time>2026-04-26T09:36:04Z</time></trkpt><trkpt lat="45.788393177362394" lon="9.830532011667586"><ele>364.8571428571429</ele><time>2026-04-26T09:36:05Z</time></trkpt><trkpt lat="45.78833750468716" lon="9.830479627545026"><ele>365.5714285714286</ele><time>2026-04-26T09:36:06Z</time></trkpt><trkpt lat="45.78828500250498" lon="9.830429138864147"><ele>366.2857142857143</ele><time>2026-04-26T09:36:07Z</time></trkpt><trkpt lat="45.78822711065333" lon="9.830379029533066"><ele>367.0</ele><time>2026-04-26T09:36:08Z</time></trkpt><trkpt lat="45.78811725620963" lon="9.830282683283372"><ele>367.0</ele><time>2026-04-26T09:36:10Z</time></trkpt><trkpt lat="45.788062644215486" lon="9.830235618777605"><ele>367.0</ele><time>2026-04-26T09:36:11Z</time></trkpt><trkpt lat="45.788007500060345" lon="9.830189326082422"><ele>367.0</ele><time>2026-04-26T09:36:12Z</time></trkpt><trkpt lat="45.78795274809273" lon="9.830144465290013"><ele>367.0</ele><time>2026-04-26T09:36:13Z</time></trkpt><trkpt lat="45.78784419297217" lon="9.830052447732548"><ele>367.0</ele><time>2026-04-26T09:36:15Z</time></trkpt><trkpt lat="45.78779083566703" lon="9.830000733962077"><ele>367.0</ele><time>2026-04-26T09:36:16Z</time></trkpt><trkpt lat="45.787685483296755" lon="9.829896637237734"><ele>367.25</ele><time>2026-04-26T09:36:18Z</time></trkpt><trkpt lat="45.78758712789182" lon="9.829792072808184"><ele>367.5</ele><time>2026-04-26T09:36:20Z</time></trkpt><trkpt lat="45.78748903266058" lon="9.829682395899463"><ele>367.75</ele><time>2026-04-26T09:36:22Z</time></trkpt><trkpt lat="45.78741787138211" lon="9.829546962132792"><ele>368.0</ele><time>2026-04-26T09:36:24Z</time></trkpt><trkpt lat="45.78737578091185" lon="9.82939611769646"><ele>367.6666666666667</ele><time>2026-04-26T09:36:26Z</time></trkpt><trkpt lat="45.787332348002124" lon="9.829241541537321"><ele>367.33333333333337</ele><time>2026-04-26T09:36:28Z</time></trkpt><trkpt lat="45.78728672394955" lon="9.829178727835844"><ele>367.0</ele><time>2026-04-26T09:36:29Z</time></trkpt><trkpt lat="45.78722912673237" lon="9.829141831464465"><ele>366.6666666666667</ele><time>2026-04-26T09:36:29.999Z</time></trkpt><trkpt lat="45.787125730739255" lon="9.829043272663785"><ele>366.3333333333333</ele><time>2026-04-26T09:36:31.999Z</time></trkpt><trkpt lat="45.787091535160485" lon="9.828956171119495"><ele>366.0</ele><time>2026-04-26T09:36:32.999Z</time></trkpt><trkpt lat="45.7870642682738" lon="9.828869767604532"><ele>366.0</ele><time>2026-04-26T09:36:33.999Z</time></trkpt><trkpt lat="45.78702903988489" lon="9.828786608871969"><ele>366.0</ele><time>2026-04-26T09:36:34.999Z</time></trkpt><trkpt lat="45.78699695929217" lon="9.828704367010976"><ele>366.0</ele><time>2026-04-26T09:36:35.999Z</time></trkpt><trkpt lat="45.78695992530726" lon="9.82862364289577"><ele>366.0</ele><time>2026-04-26T09:36:36.999Z</time></trkpt><trkpt lat="45.78692204068034" lon="9.82854531831734"><ele>366.0</ele><time>2026-04-26T09:36:37.999Z</time></trkpt><trkpt lat="45.78688388365126" lon="9.828471111350748"><ele>366.0</ele><time>2026-04-26T09:36:38.999Z</time></trkpt><trkpt lat="45.78681892990405" lon="9.828326395546622"><ele>366.14285714285717</ele><time>2026-04-26T09:36:40.999Z</time></trkpt><trkpt lat="45.786754973523095" lon="9.828186287385922"><ele>366.28571428571433</ele><time>2026-04-26T09:36:42.999Z</time></trkpt><trkpt lat="45.78672072493818" lon="9.828101622063718"><ele>366.42857142857144</ele><time>2026-04-26T09:36:43.999Z</time></trkpt><trkpt lat="45.78668424085392" lon="9.828020307568828"><ele>366.57142857142856</ele><time>2026-04-26T09:36:44.999Z</time></trkpt><trkpt lat="45.78664811716069" lon="9.827943701332117"><ele>366.7142857142857</ele><time>2026-04-26T09:36:45.999Z</time></trkpt><trkpt lat="45.786608199834696" lon="9.827868410644749"><ele>366.85714285714283</ele><time>2026-04-26T09:36:46.999Z</time></trkpt><trkpt lat="45.78657217376832" lon="9.827792053203988"><ele>367.0</ele><time>2026-04-26T09:36:47.999Z</time></trkpt><trkpt lat="45.78653796147369" lon="9.827710445472928"><ele>366.5</ele><time>2026-04-26T09:36:48.999Z</time></trkpt><trkpt lat="45.78646877302088" lon="9.827557324453828"><ele>366.0</ele><time>2026-04-26T09:36:50.999Z</time></trkpt><trkpt lat="45.786432587434376" lon="9.827477410939851"><ele>365.5</ele><time>2026-04-26T09:36:51.999Z</time></trkpt><trkpt lat="45.78639569114414" lon="9.827399292810572"><ele>365.0</ele><time>2026-04-26T09:36:52.999Z</time></trkpt><trkpt lat="45.78635680646585" lon="9.82732356525422"><ele>364.5</ele><time>2026-04-26T09:36:53.999Z</time></trkpt><trkpt lat="45.78631520872194" lon="9.827249700922302"><ele>364.0</ele><time>2026-04-26T09:36:54.999Z</time></trkpt><trkpt lat="45.786274072663836" lon="9.82717906001272"><ele>364.0</ele><time>2026-04-26T09:36:55.999Z</time></trkpt><trkpt lat="45.786228417133216" lon="9.827112562062515"><ele>364.0</ele><time>2026-04-26T09:36:56.999Z</time></trkpt><trkpt lat="45.7861798959807" lon="9.82705360088617"><ele>364.0</ele><time>2026-04-26T09:36:57.999Z</time></trkpt><trkpt lat="45.78613235731536" lon="9.826989908708509"><ele>364.0</ele><time>2026-04-26T09:36:58.999Z</time></trkpt><trkpt lat="45.786083794203115" lon="9.826928882639411"><ele>364.0</ele><time>2026-04-26T09:36:59.999Z</time></trkpt><trkpt lat="45.786031313376135" lon="9.82686834267623"><ele>364.0</ele><time>2026-04-26T09:37:00.999Z</time></trkpt><trkpt lat="45.78598135785558" lon="9.826810961710503"><ele>364.0</ele><time>2026-04-26T09:37:01.999Z</time></trkpt><trkpt lat="45.78592568206942" lon="9.826753193988289"><ele>364.6</ele><time>2026-04-26T09:37:02.999Z</time></trkpt><trkpt lat="45.78582585251812" lon="9.826645495378484"><ele>365.2</ele><time>2026-04-26T09:37:04.999Z</time></trkpt><trkpt lat="45.785731260512314" lon="9.826540105639953"><ele>365.8</ele><time>2026-04-26T09:37:06.999Z</time></trkpt><trkpt lat="45.78563688970058" lon="9.826427318617455"><ele>366.40000000000003</ele><time>2026-04-26T09:37:08.999Z</time></trkpt><trkpt lat="45.78558409913237" lon="9.826368779417495"><ele>367.0</ele><time>2026-04-26T09:37:09.999Z</time></trkpt><trkpt lat="45.78553318484127" lon="9.826308969733528"><ele>367.0</ele><time>2026-04-26T09:37:11Z</time></trkpt><trkpt lat="45.78548044322092" lon="9.826245771264002"><ele>367.0</ele><time>2026-04-26T09:37:12Z</time></trkpt><trkpt lat="45.78543128542124" lon="9.826184265406267"><ele>367.0</ele><time>2026-04-26T09:37:13Z</time></trkpt><trkpt lat="45.78537776337119" lon="9.8261247590747"><ele>367.0</ele><time>2026-04-26T09:37:14Z</time></trkpt><trkpt lat="45.78532621889496" lon="9.82606917231659"><ele>367.0</ele><time>2026-04-26T09:37:15Z</time></trkpt><trkpt lat="45.78527687577728" lon="9.826012079819472"><ele>367.0</ele><time>2026-04-26T09:37:16Z</time></trkpt><trkpt lat="45.785179155871624" lon="9.825900926546675"><ele>366.40000000000003</ele><time>2026-04-26T09:37:18Z</time></trkpt><trkpt lat="45.785091735926486" lon="9.825794887855658"><ele>365.8</ele><time>2026-04-26T09:37:20Z</time></trkpt><trkpt lat="45.78499426220271" lon="9.82567837143891"><ele>365.2</ele><time>2026-04-26T09:37:22Z</time></trkpt><trkpt lat="45.78494061198549" lon="9.825622857898791"><ele>364.6</ele><time>2026-04-26T09:37:23Z</time></trkpt><trkpt lat="45.784851719395995" lon="9.825512149776001"><ele>364.0</ele><time>2026-04-26T09:37:25Z</time></trkpt><trkpt lat="45.784762352672516" lon="9.825408439543114"><ele>364.0</ele><time>2026-04-26T09:37:27Z</time></trkpt><trkpt lat="45.784711057511885" lon="9.825352194807564"><ele>364.0</ele><time>2026-04-26T09:37:28Z</time></trkpt><trkpt lat="45.78465695425919" lon="9.825292402770764"><ele>364.0</ele><time>2026-04-26T09:37:29Z</time></trkpt><trkpt lat="45.78460364374232" lon="9.825236755776599"><ele>364.0</ele><time>2026-04-26T09:37:30Z</time></trkpt><trkpt lat="45.78455176446138" lon="9.825180527388152"><ele>364.0</ele><time>2026-04-26T09:37:31Z</time></trkpt><trkpt lat="45.7844971736123" lon="9.825126594887967"><ele>364.0</ele><time>2026-04-26T09:37:32Z</time></trkpt><trkpt lat="45.78444351538182" lon="9.825073541904636"><ele>364.0</ele><time>2026-04-26T09:37:33Z</time></trkpt><trkpt lat="45.78439262429148" lon="9.825018446084044"><ele>364.0</ele><time>2026-04-26T09:37:34Z</time></trkpt><trkpt lat="45.78434105989346" lon="9.824963052356694"><ele>364.0</ele><time>2026-04-26T09:37:35Z</time></trkpt><trkpt lat="45.78428856166899" lon="9.824908980664867"><ele>364.0</ele><time>2026-04-26T09:37:36Z</time></trkpt><trkpt lat="45.7842365547983" lon="9.82485245176935"><ele>364.0</ele><time>2026-04-26T09:37:37Z</time></trkpt><trkpt lat="45.78418479309607" lon="9.824797098332887"><ele>364.0</ele><time>2026-04-26T09:37:38Z</time></trkpt><trkpt lat="45.78413552535086" lon="9.824737025812027"><ele>364.0</ele><time>2026-04-26T09:37:39Z</time></trkpt><trkpt lat="45.78408293853708" lon="9.824683444697161"><ele>364.0</ele><time>2026-04-26T09:37:40Z</time></trkpt><trkpt lat="45.7840319324188" lon="9.824626759842227"><ele>364.0</ele><time>2026-04-26T09:37:41Z</time></trkpt><trkpt lat="45.78398350467152" lon="9.824567697736708"><ele>364.0</ele><time>2026-04-26T09:37:42Z</time></trkpt><trkpt lat="45.78393181082836" lon="9.824509651644615"><ele>364.0</ele><time>2026-04-26T09:37:43Z</time></trkpt><trkpt lat="45.783877595639936" lon="9.824453713494929"><ele>364.0</ele><time>2026-04-26T09:37:44Z</time></trkpt><trkpt lat="45.783824677075735" lon="9.824396032274711"><ele>364.0</ele><time>2026-04-26T09:37:45Z</time></trkpt><trkpt lat="45.78377008302576" lon="9.824342950676492"><ele>364.0</ele><time>2026-04-26T09:37:46Z</time></trkpt><trkpt lat="45.783672379388484" lon="9.824227878882509"><ele>363.6</ele><time>2026-04-26T09:37:48Z</time></trkpt><trkpt lat="45.78357839395683" lon="9.82411874460876"><ele>363.2</ele><time>2026-04-26T09:37:50Z</time></trkpt><trkpt lat="45.78348743172106" lon="9.824014639574571"><ele>362.8</ele><time>2026-04-26T09:37:52Z</time></trkpt><trkpt lat="45.78339506212686" lon="9.82391177896514"><ele>362.40000000000003</ele><time>2026-04-26T09:37:54Z</time></trkpt><trkpt lat="45.78334565981654" lon="9.823851154238648"><ele>362.0</ele><time>2026-04-26T09:37:55Z</time></trkpt><trkpt lat="45.78329343498322" lon="9.823791860358828"><ele>362.0</ele><time>2026-04-26T09:37:56Z</time></trkpt><trkpt lat="45.78324191062278" lon="9.823735908577543"><ele>362.0</ele><time>2026-04-26T09:37:57Z</time></trkpt><trkpt lat="45.78318608502768" lon="9.823681705422635"><ele>362.0</ele><time>2026-04-26T09:37:58Z</time></trkpt><trkpt lat="45.78308945526072" lon="9.823572082073856"><ele>362.0</ele><time>2026-04-26T09:38:00Z</time></trkpt><trkpt lat="45.782995109522936" lon="9.823463962720918"><ele>362.0</ele><time>2026-04-26T09:38:02Z</time></trkpt><trkpt lat="45.78289345825071" lon="9.823379452099312"><ele>362.0</ele><time>2026-04-26T09:38:04Z</time></trkpt><trkpt lat="45.78278925527648" lon="9.82332671267816"><ele>362.0</ele><time>2026-04-26T09:38:06Z</time></trkpt><trkpt lat="45.78269081452432" lon="9.823252068360588"><ele>362.0</ele><time>2026-04-26T09:38:08Z</time></trkpt><trkpt lat="45.78264013087584" lon="9.82318084865973"><ele>362.0</ele><time>2026-04-26T09:38:09Z</time></trkpt><trkpt lat="45.78258609086666" lon="9.823116410392407"><ele>362.0</ele><time>2026-04-26T09:38:10Z</time></trkpt><trkpt lat="45.782527835094825" lon="9.823050108265736"><ele>362.0</ele><time>2026-04-26T09:38:11Z</time></trkpt><trkpt lat="45.78246264042175" lon="9.822994138553218"><ele>361.6666666666667</ele><time>2026-04-26T09:38:12Z</time></trkpt><trkpt lat="45.7823889332481" lon="9.822950729176103"><ele>361.33333333333337</ele><time>2026-04-26T09:38:13Z</time></trkpt><trkpt lat="45.782310517281736" lon="9.82290918423901"><ele>361.0</ele><time>2026-04-26T09:38:14Z</time></trkpt><trkpt lat="45.782217897974824" lon="9.822908732324684"><ele>360.6666666666667</ele><time>2026-04-26T09:38:15Z</time></trkpt><trkpt lat="45.78213407491103" lon="9.822935049118623"><ele>360.3333333333333</ele><time>2026-04-26T09:38:16Z</time></trkpt><trkpt lat="45.78205758866006" lon="9.822991043234223"><ele>360.0</ele><time>2026-04-26T09:38:17Z</time></trkpt><trkpt lat="45.78198580412425" lon="9.823048195414836"><ele>360.0</ele><time>2026-04-26T09:38:18Z</time></trkpt><trkpt lat="45.781922906378306" lon="9.823107143978111"><ele>360.0</ele><time>2026-04-26T09:38:19Z</time></trkpt><trkpt lat="45.781851379605705" lon="9.82315340567885"><ele>360.0</ele><time>2026-04-26T09:38:20Z</time></trkpt><trkpt lat="45.78178645462971" lon="9.82320476126382"><ele>360.0</ele><time>2026-04-26T09:38:21Z</time></trkpt><trkpt lat="45.78172287944541" lon="9.823255256050725"><ele>360.0</ele><time>2026-04-26T09:38:22Z</time></trkpt><trkpt lat="45.78166091537525" lon="9.823309109533614"><ele>360.0</ele><time>2026-04-26T09:38:23Z</time></trkpt><trkpt lat="45.78160133234336" lon="9.823363681298838"><ele>360.0</ele><time>2026-04-26T09:38:24Z</time></trkpt><trkpt lat="45.78154149766907" lon="9.823413563170526"><ele>359.6666666666667</ele><time>2026-04-26T09:38:25Z</time></trkpt><trkpt lat="45.78148308289254" lon="9.823461748418733"><ele>359.3333333333333</ele><time>2026-04-26T09:38:26Z</time></trkpt><trkpt lat="45.781424317718965" lon="9.823502573528833"><ele>359.0</ele><time>2026-04-26T09:38:27Z</time></trkpt><trkpt lat="45.78136142761356" lon="9.823538988480244"><ele>358.66666666666663</ele><time>2026-04-26T09:38:28Z</time></trkpt><trkpt lat="45.78130449288354" lon="9.823581262942698"><ele>358.3333333333333</ele><time>2026-04-26T09:38:29Z</time></trkpt><trkpt lat="45.781197811099" lon="9.82367688760133"><ele>358.0</ele><time>2026-04-26T09:38:31Z</time></trkpt><trkpt lat="45.78114314730456" lon="9.823733159167997"><ele>358.14285714285717</ele><time>2026-04-26T09:38:32Z</time></trkpt><trkpt lat="45.78108923019023" lon="9.823784484839276"><ele>358.2857142857143</ele><time>2026-04-26T09:38:33Z</time></trkpt><trkpt lat="45.78103111901867" lon="9.823833488800764"><ele>358.42857142857144</ele><time>2026-04-26T09:38:34Z</time></trkpt><trkpt lat="45.78097279608289" lon="9.823878342369937"><ele>358.57142857142856</ele><time>2026-04-26T09:38:35Z</time></trkpt><trkpt lat="45.78091451996756" lon="9.823925209907323"><ele>358.7142857142857</ele><time>2026-04-26T09:38:36Z</time></trkpt><trkpt lat="45.78085718750125" lon="9.823972654625404"><ele>358.8571428571429</ele><time>2026-04-26T09:38:37Z</time></trkpt><trkpt lat="45.780799499727806" lon="9.824013391582339"><ele>359.0</ele><time>2026-04-26T09:38:38Z</time></trkpt><trkpt lat="45.78074374565712" lon="9.824057084250661"><ele>359.0</ele><time>2026-04-26T09:38:39Z</time></trkpt><trkpt lat="45.780684409502335" lon="9.82409707260002"><ele>359.0</ele><time>2026-04-26T09:38:40Z</time></trkpt><trkpt lat="45.78062745868172" lon="9.824138849593169"><ele>359.0</ele><time>2026-04-26T09:38:41Z</time></trkpt><trkpt lat="45.780570549845535" lon="9.824185950310287"><ele>359.0</ele><time>2026-04-26T09:38:42Z</time></trkpt><trkpt lat="45.78051536127707" lon="9.824232073763413"><ele>359.0</ele><time>2026-04-26T09:38:43Z</time></trkpt><trkpt lat="45.78045603625144" lon="9.824276397343414"><ele>359.0</ele><time>2026-04-26T09:38:44Z</time></trkpt><trkpt lat="45.78039988224636" lon="9.82432110801512"><ele>359.0</ele><time>2026-04-26T09:38:45Z</time></trkpt><trkpt lat="45.780340253639295" lon="9.824364722404967"><ele>359.0</ele><time>2026-04-26T09:38:46Z</time></trkpt><trkpt lat="45.7802828592665" lon="9.824407808981974"><ele>359.0</ele><time>2026-04-26T09:38:47Z</time></trkpt><trkpt lat="45.78022575959115" lon="9.824451471322144"><ele>359.0</ele><time>2026-04-26T09:38:48Z</time></trkpt><trkpt lat="45.78016899021999" lon="9.824497206757204"><ele>359.0</ele><time>2026-04-26T09:38:49Z</time></trkpt><trkpt lat="45.78011391723332" lon="9.824550400229693"><ele>359.0</ele><time>2026-04-26T09:38:50Z</time></trkpt><trkpt lat="45.780057493043685" lon="9.824591211716744"><ele>359.0</ele><time>2026-04-26T09:38:51Z</time></trkpt><trkpt lat="45.77999890875629" lon="9.82464090330685"><ele>359.0</ele><time>2026-04-26T09:38:52Z</time></trkpt><trkpt lat="45.77994058934908" lon="9.824684212591178"><ele>359.0</ele><time>2026-04-26T09:38:53Z</time></trkpt><trkpt lat="45.779883699058416" lon="9.824728765737516"><ele>359.0</ele><time>2026-04-26T09:38:54Z</time></trkpt><trkpt lat="45.779826539352136" lon="9.824771259924617"><ele>359.0</ele><time>2026-04-26T09:38:55Z</time></trkpt><trkpt lat="45.77971528792686" lon="9.824862813739701"><ele>359.0</ele><time>2026-04-26T09:38:57Z</time></trkpt><trkpt lat="45.779658557499076" lon="9.82490590269557"><ele>359.0</ele><time>2026-04-26T09:38:58Z</time></trkpt><trkpt lat="45.779603162731966" lon="9.824950738347008"><ele>359.0</ele><time>2026-04-26T09:38:59Z</time></trkpt><trkpt lat="45.779492086302945" lon="9.825044428875136"><ele>359.0</ele><time>2026-04-26T09:39:01Z</time></trkpt><trkpt lat="45.7794367959067" lon="9.825091485893108"><ele>359.0</ele><time>2026-04-26T09:39:02Z</time></trkpt><trkpt lat="45.77938107506214" lon="9.825136639275115"><ele>359.0</ele><time>2026-04-26T09:39:03Z</time></trkpt><trkpt lat="45.77932478744138" lon="9.825182202345266"><ele>359.0</ele><time>2026-04-26T09:39:04Z</time></trkpt><trkpt lat="45.779267915819986" lon="9.825224284046248"><ele>359.0</ele><time>2026-04-26T09:39:05Z</time></trkpt><trkpt lat="45.77915531692527" lon="9.825302997820275"><ele>359.0</ele><time>2026-04-26T09:39:07Z</time></trkpt><trkpt lat="45.77909911084536" lon="9.825346198101476"><ele>359.0</ele><time>2026-04-26T09:39:08Z</time></trkpt><trkpt lat="45.778992600956386" lon="9.825441810715093"><ele>359.4</ele><time>2026-04-26T09:39:10Z</time></trkpt><trkpt lat="45.77889042401353" lon="9.825540748139463"><ele>359.79999999999995</ele><time>2026-04-26T09:39:12Z</time></trkpt><trkpt lat="45.778780086622106" lon="9.825609483444556"><ele>360.20000000000005</ele><time>2026-04-26T09:39:14Z</time></trkpt><trkpt lat="45.778717064646685" lon="9.825609107913523"><ele>360.6</ele><time>2026-04-26T09:39:15Z</time></trkpt><trkpt lat="45.778599438108145" lon="9.82555798649917"><ele>361.0</ele><time>2026-04-26T09:39:17Z</time></trkpt><trkpt lat="45.77847887864078" lon="9.825563785044663"><ele>361.0</ele><time>2026-04-26T09:39:19Z</time></trkpt><trkpt lat="45.77836148335541" lon="9.82553398785913"><ele>361.0</ele><time>2026-04-26T09:39:21Z</time></trkpt><trkpt lat="45.77829799314041" lon="9.82551175245078"><ele>361.0</ele><time>2026-04-26T09:39:22Z</time></trkpt><trkpt lat="45.778236205038525" lon="9.82549301794469"><ele>361.0</ele><time>2026-04-26T09:39:23Z</time></trkpt><trkpt lat="45.778174701281756" lon="9.825472566541098"><ele>361.0</ele><time>2026-04-26T09:39:24Z</time></trkpt><trkpt lat="45.77805363902947" lon="9.825425822753234"><ele>361.0</ele><time>2026-04-26T09:39:26Z</time></trkpt><trkpt lat="45.77793492382615" lon="9.825366965759402"><ele>361.0</ele><time>2026-04-26T09:39:28Z</time></trkpt><trkpt lat="45.7778221652543" lon="9.825304070079298"><ele>361.0</ele><time>2026-04-26T09:39:30Z</time></trkpt><trkpt lat="45.7777050965816" lon="9.825235946598948"><ele>361.0</ele><time>2026-04-26T09:39:32Z</time></trkpt><trkpt lat="45.77764587668615" lon="9.825201198295971"><ele>361.0</ele><time>2026-04-26T09:39:33Z</time></trkpt><trkpt lat="45.77753375084439" lon="9.825129164873934"><ele>361.0</ele><time>2026-04-26T09:39:35Z</time></trkpt><trkpt lat="45.777475445529845" lon="9.825093839673658"><ele>361.3333333333333</ele><time>2026-04-26T09:39:36Z</time></trkpt><trkpt lat="45.77736010572178" lon="9.825021565086171"><ele>361.66666666666663</ele><time>2026-04-26T09:39:38Z</time></trkpt><trkpt lat="45.777302915734495" lon="9.824981835788615"><ele>362.0</ele><time>2026-04-26T09:39:39Z</time></trkpt><trkpt lat="45.77724483792092" lon="9.82494622199755"><ele>362.3333333333333</ele><time>2026-04-26T09:39:40Z</time></trkpt><trkpt lat="45.7771892688616" lon="9.824901899287942"><ele>362.6666666666667</ele><time>2026-04-26T09:39:41Z</time></trkpt><trkpt lat="45.77713410573892" lon="9.824850790277898"><ele>363.0</ele><time>2026-04-26T09:39:42Z</time></trkpt><trkpt lat="45.77702332207809" lon="9.82477287319561"><ele>363.0</ele><time>2026-04-26T09:39:44Z</time></trkpt><trkpt lat="45.7769288750415" lon="9.824685171984418"><ele>363.0</ele><time>2026-04-26T09:39:46Z</time></trkpt><trkpt lat="45.77683302303989" lon="9.824610965704034"><ele>363.0</ele><time>2026-04-26T09:39:48Z</time></trkpt><trkpt lat="45.77674200334475" lon="9.82454243902201"><ele>363.0</ele><time>2026-04-26T09:39:50Z</time></trkpt><trkpt lat="45.77665298811018" lon="9.824475983526048"><ele>363.0</ele><time>2026-04-26T09:39:52Z</time></trkpt><trkpt lat="45.776556417025496" lon="9.824397426916615"><ele>362.8333333333333</ele><time>2026-04-26T09:39:54Z</time></trkpt><trkpt lat="45.77650120977867" lon="9.824351218617455"><ele>362.6666666666667</ele><time>2026-04-26T09:39:55Z</time></trkpt><trkpt lat="45.776395750073675" lon="9.824287024326228"><ele>362.5</ele><time>2026-04-26T09:39:57Z</time></trkpt><trkpt lat="45.77628295135939" lon="9.824227310814893"><ele>362.33333333333337</ele><time>2026-04-26T09:39:59Z</time></trkpt><trkpt lat="45.77623415171661" lon="9.824157138115792"><ele>362.1666666666667</ele><time>2026-04-26T09:40:00Z</time></trkpt><trkpt lat="45.77616863873608" lon="9.82411212620202"><ele>362.0</ele><time>2026-04-26T09:40:01Z</time></trkpt><trkpt lat="45.776104869504934" lon="9.824063582317656"><ele>362.0</ele><time>2026-04-26T09:40:02Z</time></trkpt><trkpt lat="45.77603638972319" lon="9.824023394908593"><ele>362.0</ele><time>2026-04-26T09:40:03Z</time></trkpt><trkpt lat="45.77596720076288" lon="9.823977216628577"><ele>362.0</ele><time>2026-04-26T09:40:04Z</time></trkpt><trkpt lat="45.775895317364075" lon="9.823930125586307"><ele>362.0</ele><time>2026-04-26T09:40:05Z</time></trkpt><trkpt lat="45.77582457795394" lon="9.823877124962767"><ele>362.0</ele><time>2026-04-26T09:40:06Z</time></trkpt><trkpt lat="45.77574744737697" lon="9.823809599080473"><ele>362.0</ele><time>2026-04-26T09:40:07Z</time></trkpt><trkpt lat="45.775671889693236" lon="9.823744384672597"><ele>362.20000000000005</ele><time>2026-04-26T09:40:08Z</time></trkpt><trkpt lat="45.77558812448093" lon="9.823679180696791"><ele>362.4</ele><time>2026-04-26T09:40:09Z</time></trkpt><trkpt lat="45.77550348425501" lon="9.823615679960923"><ele>362.6</ele><time>2026-04-26T09:40:10Z</time></trkpt><trkpt lat="45.7754136746224" lon="9.823553502251695"><ele>362.79999999999995</ele><time>2026-04-26T09:40:11Z</time></trkpt><trkpt lat="45.77532375889211" lon="9.82348659567138"><ele>363.0</ele><time>2026-04-26T09:40:12Z</time></trkpt><trkpt lat="45.77523286165625" lon="9.823412211123896"><ele>361.2</ele><time>2026-04-26T09:40:13Z</time></trkpt><trkpt lat="45.7751409920951" lon="9.823341912092383"><ele>359.4</ele><time>2026-04-26T09:40:14Z</time></trkpt><trkpt lat="45.7750490566813" lon="9.82327790102231"><ele>357.59999999999997</ele><time>2026-04-26T09:40:15Z</time></trkpt><trkpt lat="45.77496007108281" lon="9.823215684442838"><ele>355.79999999999995</ele><time>2026-04-26T09:40:16Z</time></trkpt><trkpt lat="45.774870446003284" lon="9.82315993307051"><ele>354.0</ele><time>2026-04-26T09:40:17Z</time></trkpt><trkpt lat="45.77478559103625" lon="9.823107769066707"><ele>354.0</ele><time>2026-04-26T09:40:18Z</time></trkpt><trkpt lat="45.774702672997016" lon="9.823051689725167"><ele>354.0</ele><time>2026-04-26T09:40:19Z</time></trkpt><trkpt lat="45.7746226919473" lon="9.822993049154297"><ele>354.0</ele><time>2026-04-26T09:40:20Z</time></trkpt><trkpt lat="45.77454532593897" lon="9.82293833681315"><ele>354.0</ele><time>2026-04-26T09:40:21Z</time></trkpt><trkpt lat="45.77447057103554" lon="9.822886236620802"><ele>354.0</ele><time>2026-04-26T09:40:22Z</time></trkpt><trkpt lat="45.77439563893821" lon="9.822836930722834"><ele>354.0</ele><time>2026-04-26T09:40:23Z</time></trkpt><trkpt lat="45.77432236082546" lon="9.822788219449505"><ele>354.1666666666667</ele><time>2026-04-26T09:40:24Z</time></trkpt><trkpt lat="45.77425075331855" lon="9.822739743274429"><ele>354.3333333333333</ele><time>2026-04-26T09:40:25Z</time></trkpt><trkpt lat="45.77417997780699" lon="9.82268893667657"><ele>354.5</ele><time>2026-04-26T09:40:26Z</time></trkpt><trkpt lat="45.77411101456871" lon="9.822635316604337"><ele>354.66666666666663</ele><time>2026-04-26T09:40:27Z</time></trkpt><trkpt lat="45.77404284428088" lon="9.822585370515673"><ele>354.8333333333333</ele><time>2026-04-26T09:40:28Z</time></trkpt><trkpt lat="45.77397479246829" lon="9.822540294323606"><ele>355.0</ele><time>2026-04-26T09:40:29Z</time></trkpt><trkpt lat="45.773908815658906" lon="9.82249228888061"><ele>354.42857142857144</ele><time>2026-04-26T09:40:30Z</time></trkpt><trkpt lat="45.773840706110555" lon="9.822450981994352"><ele>353.8571428571429</ele><time>2026-04-26T09:40:31Z</time></trkpt><trkpt lat="45.7737740956369" lon="9.822411829802693"><ele>353.28571428571433</ele><time>2026-04-26T09:40:32Z</time></trkpt><trkpt lat="45.773709685287706" lon="9.822377010099315"><ele>352.7142857142857</ele><time>2026-04-26T09:40:33Z</time></trkpt><trkpt lat="45.773643206237246" lon="9.822354733284236"><ele>352.14285714285717</ele><time>2026-04-26T09:40:34Z</time></trkpt><trkpt lat="45.77358051450708" lon="9.822328941542139"><ele>351.5714285714286</ele><time>2026-04-26T09:40:35Z</time></trkpt><trkpt lat="45.77351778843101" lon="9.822303607767811"><ele>351.0</ele><time>2026-04-26T09:40:36Z</time></trkpt><trkpt lat="45.773455605107216" lon="9.822277221554724"><ele>351.00000000000006</ele><time>2026-04-26T09:40:37Z</time></trkpt><trkpt lat="45.77339223204195" lon="9.822254551172055"><ele>351.0</ele><time>2026-04-26T09:40:38Z</time></trkpt><trkpt lat="45.773330149187494" lon="9.822228675153397"><ele>351.0</ele><time>2026-04-26T09:40:39Z</time></trkpt><trkpt lat="45.77326803327668" lon="9.822202520879213"><ele>351.0</ele><time>2026-04-26T09:40:40Z</time></trkpt><trkpt lat="45.77320678155814" lon="9.822181223152016"><ele>351.0</ele><time>2026-04-26T09:40:41Z</time></trkpt><trkpt lat="45.773145224706624" lon="9.822153190719632"><ele>351.00000000000006</ele><time>2026-04-26T09:40:42Z</time></trkpt><trkpt lat="45.7730827588616" lon="9.822131825554186"><ele>351.0</ele><time>2026-04-26T09:40:43Z</time></trkpt><trkpt lat="45.773017771015056" lon="9.822112203783252"><ele>351.00000000000006</ele><time>2026-04-26T09:40:44Z</time></trkpt><trkpt lat="45.77295389521333" lon="9.822095844496328"><ele>351.0</ele><time>2026-04-26T09:40:45Z</time></trkpt><trkpt lat="45.772891535457866" lon="9.822074743763629"><ele>351.0</ele><time>2026-04-26T09:40:46Z</time></trkpt><trkpt lat="45.772828252223476" lon="9.822048811431227"><ele>351.0</ele><time>2026-04-26T09:40:47Z</time></trkpt><trkpt lat="45.77276567041048" lon="9.82202690133438"><ele>351.0</ele><time>2026-04-26T09:40:48Z</time></trkpt><trkpt lat="45.77270108914414" lon="9.822011060412454"><ele>351.00000000000006</ele><time>2026-04-26T09:40:49Z</time></trkpt><trkpt lat="45.77263885324089" lon="9.82199440857908"><ele>351.0</ele><time>2026-04-26T09:40:50Z</time></trkpt><trkpt lat="45.77252309568069" lon="9.82195785213215"><ele>351.00000000000006</ele><time>2026-04-26T09:40:52Z</time></trkpt><trkpt lat="45.77240698134919" lon="9.821916378760234"><ele>351.0</ele><time>2026-04-26T09:40:54Z</time></trkpt><trkpt lat="45.7723422435953" lon="9.821898873065058"><ele>351.0</ele><time>2026-04-26T09:40:55Z</time></trkpt><trkpt lat="45.772277311213315" lon="9.821886373388987"><ele>351.0</ele><time>2026-04-26T09:40:56Z</time></trkpt><trkpt lat="45.77221264189389" lon="9.821864758096535"><ele>351.0</ele><time>2026-04-26T09:40:57Z</time></trkpt><trkpt lat="45.772150600388024" lon="9.821840261983038"><ele>351.00000000000006</ele><time>2026-04-26T09:40:58Z</time></trkpt><trkpt lat="45.77208698764127" lon="9.821816783722854"><ele>351.0</ele><time>2026-04-26T09:40:59Z</time></trkpt><trkpt lat="45.77202272117715" lon="9.821799917435532"><ele>351.00000000000006</ele><time>2026-04-26T09:41:00Z</time></trkpt><trkpt lat="45.77196099389554" lon="9.821778632821486"><ele>351.0</ele><time>2026-04-26T09:41:01Z</time></trkpt><trkpt lat="45.77189735095661" lon="9.82175663523964"><ele>351.0</ele><time>2026-04-26T09:41:02Z</time></trkpt><trkpt lat="45.77183502966797" lon="9.821731900704329"><ele>351.0</ele><time>2026-04-26T09:41:03Z</time></trkpt><trkpt lat="45.77177216411539" lon="9.821711150910508"><ele>351.0</ele><time>2026-04-26T09:41:04Z</time></trkpt><trkpt lat="45.771710595937236" lon="9.821686826867554"><ele>351.00000000000006</ele><time>2026-04-26T09:41:05Z</time></trkpt><trkpt lat="45.771647839332616" lon="9.821664561269031"><ele>351.0</ele><time>2026-04-26T09:41:06Z</time></trkpt><trkpt lat="45.77158478474698" lon="9.821643995507648"><ele>351.00000000000006</ele><time>2026-04-26T09:41:07Z</time></trkpt><trkpt lat="45.771521097889675" lon="9.821621874314113"><ele>351.0</ele><time>2026-04-26T09:41:08Z</time></trkpt><trkpt lat="45.771458294287555" lon="9.821603641066492"><ele>351.0</ele><time>2026-04-26T09:41:09Z</time></trkpt><trkpt lat="45.77139455567775" lon="9.821579316955548"><ele>351.0</ele><time>2026-04-26T09:41:10Z</time></trkpt><trkpt lat="45.77133156805961" lon="9.821561759733758"><ele>351.0</ele><time>2026-04-26T09:41:11Z</time></trkpt><trkpt lat="45.771268322936216" lon="9.821536825125749"><ele>351.00000000000006</ele><time>2026-04-26T09:41:12Z</time></trkpt><trkpt lat="45.77120605160644" lon="9.821520161660674"><ele>351.0</ele><time>2026-04-26T09:41:13Z</time></trkpt><trkpt lat="45.77114033763158" lon="9.821492893123033"><ele>351.5714285714286</ele><time>2026-04-26T09:41:14Z</time></trkpt><trkpt lat="45.77101435066128" lon="9.821460357959419"><ele>352.14285714285717</ele><time>2026-04-26T09:41:15.999Z</time></trkpt><trkpt lat="45.77095141650449" lon="9.821438971321895"><ele>352.7142857142857</ele><time>2026-04-26T09:41:16.999Z</time></trkpt><trkpt lat="45.770889712639736" lon="9.821418104611764"><ele>353.28571428571433</ele><time>2026-04-26T09:41:17.999Z</time></trkpt><trkpt lat="45.77082711634683" lon="9.821398993617535"><ele>353.8571428571429</ele><time>2026-04-26T09:41:18.999Z</time></trkpt><trkpt lat="45.77076466925721" lon="9.821374843312302"><ele>354.42857142857144</ele><time>2026-04-26T09:41:19.999Z</time></trkpt><trkpt lat="45.77070170358958" lon="9.821353266916143"><ele>355.0</ele><time>2026-04-26T09:41:20.999Z</time></trkpt><trkpt lat="45.77063856157642" lon="9.821331624044298"><ele>355.0</ele><time>2026-04-26T09:41:21.999Z</time></trkpt><trkpt lat="45.770575281238294" lon="9.821306901612003"><ele>355.0</ele><time>2026-04-26T09:41:23Z</time></trkpt><trkpt lat="45.7705131490983" lon="9.821287615845511"><ele>355.0</ele><time>2026-04-26T09:41:24Z</time></trkpt><trkpt lat="45.77044783684636" lon="9.82127228601326"><ele>355.0</ele><time>2026-04-26T09:41:25Z</time></trkpt><trkpt lat="45.77038473462884" lon="9.821254213606785"><ele>355.0</ele><time>2026-04-26T09:41:26Z</time></trkpt><trkpt lat="45.77032385730233" lon="9.821222170776347"><ele>355.0</ele><time>2026-04-26T09:41:27Z</time></trkpt><trkpt lat="45.77026382206868" lon="9.821182984787422"><ele>355.0</ele><time>2026-04-26T09:41:28Z</time></trkpt><trkpt lat="45.770145571558686" lon="9.821111532230292"><ele>354.66666666666663</ele><time>2026-04-26T09:41:30Z</time></trkpt><trkpt lat="45.77008864993913" lon="9.821068917341979"><ele>354.3333333333333</ele><time>2026-04-26T09:41:31Z</time></trkpt><trkpt lat="45.770033813519035" lon="9.821019211845808"><ele>354.0</ele><time>2026-04-26T09:41:32Z</time></trkpt><trkpt lat="45.76998061370286" lon="9.820965345242774"><ele>353.6666666666667</ele><time>2026-04-26T09:41:33Z</time></trkpt><trkpt lat="45.76992615423396" lon="9.82090940014109"><ele>353.33333333333337</ele><time>2026-04-26T09:41:34Z</time></trkpt><trkpt lat="45.769820670184494" lon="9.82080563559741"><ele>353.0</ele><time>2026-04-26T09:41:36Z</time></trkpt><trkpt lat="45.769768609577056" lon="9.82075180511149"><ele>353.0</ele><time>2026-04-26T09:41:37Z</time></trkpt><trkpt lat="45.76971773801016" lon="9.82069485576381"><ele>353.0</ele><time>2026-04-26T09:41:38Z</time></trkpt><trkpt lat="45.769666093843746" lon="9.820639161013462"><ele>353.0</ele><time>2026-04-26T09:41:39Z</time></trkpt><trkpt lat="45.76961392097742" lon="9.820586908136466"><ele>353.0</ele><time>2026-04-26T09:41:40Z</time></trkpt><trkpt lat="45.76950765139621" lon="9.82048922098199"><ele>353.0</ele><time>2026-04-26T09:41:42Z</time></trkpt><trkpt lat="45.7694097869187" lon="9.820374440774419"><ele>353.0</ele><time>2026-04-26T09:41:44Z</time></trkpt><trkpt lat="45.76935293597674" lon="9.820325912647508"><ele>352.59999999999997</ele><time>2026-04-26T09:41:45Z</time></trkpt><trkpt lat="45.76929891147972" lon="9.820279432301197"><ele>352.2</ele><time>2026-04-26T09:41:46Z</time></trkpt><trkpt lat="45.769192406536284" lon="9.820177777011994"><ele>351.8</ele><time>2026-04-26T09:41:48Z</time></trkpt><trkpt lat="45.76909253513446" lon="9.820069961283982"><ele>351.4</ele><time>2026-04-26T09:41:50Z</time></trkpt><trkpt lat="45.76904268040363" lon="9.820014090126875"><ele>351.0</ele><time>2026-04-26T09:41:51Z</time></trkpt><trkpt lat="45.7689400953313" lon="9.819905932895738"><ele>351.0</ele><time>2026-04-26T09:41:53Z</time></trkpt><trkpt lat="45.76883659161017" lon="9.819797206849598"><ele>351.0</ele><time>2026-04-26T09:41:55Z</time></trkpt><trkpt lat="45.768733091637564" lon="9.819692351547705"><ele>351.0</ele><time>2026-04-26T09:41:57Z</time></trkpt><trkpt lat="45.76868150283086" lon="9.819638309385681"><ele>351.0</ele><time>2026-04-26T09:41:58Z</time></trkpt><trkpt lat="45.768582246734745" lon="9.81953140428228"><ele>351.0</ele><time>2026-04-26T09:42:00Z</time></trkpt><trkpt lat="45.768487716068215" lon="9.81941350026736"><ele>351.8333333333333</ele><time>2026-04-26T09:42:02Z</time></trkpt><trkpt lat="45.76839596034748" lon="9.819291585024088"><ele>352.6666666666667</ele><time>2026-04-26T09:42:04Z</time></trkpt><trkpt lat="45.76835190431236" lon="9.819223577174462"><ele>353.5</ele><time>2026-04-26T09:42:05Z</time></trkpt><trkpt lat="45.768267635742035" lon="9.819089078329434"><ele>354.33333333333337</ele><time>2026-04-26T09:42:07Z</time></trkpt><trkpt lat="45.76822360237215" lon="9.819021124807648"><ele>355.1666666666667</ele><time>2026-04-26T09:42:08Z</time></trkpt><trkpt lat="45.76817876730841" lon="9.818956329968952"><ele>356.0</ele><time>2026-04-26T09:42:09Z</time></trkpt><trkpt lat="45.76813648575652" lon="9.818888841421325"><ele>355.99999999999994</ele><time>2026-04-26T09:42:10Z</time></trkpt><trkpt lat="45.76809468308196" lon="9.818815635088827"><ele>356.0</ele><time>2026-04-26T09:42:11Z</time></trkpt><trkpt lat="45.7680514141703" lon="9.818742665043983"><ele>356.0</ele><time>2026-04-26T09:42:12Z</time></trkpt><trkpt lat="45.7680110422454" lon="9.818670444095321"><ele>356.0</ele><time>2026-04-26T09:42:13Z</time></trkpt><trkpt lat="45.7679676669844" lon="9.818600810791091"><ele>356.0</ele><time>2026-04-26T09:42:14Z</time></trkpt><trkpt lat="45.767925183830485" lon="9.818527029512081"><ele>355.99999999999994</ele><time>2026-04-26T09:42:15Z</time></trkpt><trkpt lat="45.76787939378204" lon="9.818460169594381"><ele>356.0</ele><time>2026-04-26T09:42:16Z</time></trkpt><trkpt lat="45.767834933477126" lon="9.81838307078832"><ele>354.5</ele><time>2026-04-26T09:42:17Z</time></trkpt><trkpt lat="45.76779500665239" lon="9.818304687814626"><ele>353.0</ele><time>2026-04-26T09:42:18Z</time></trkpt><trkpt lat="45.76774893244589" lon="9.818217450127852"><ele>351.5</ele><time>2026-04-26T09:42:19Z</time></trkpt><trkpt lat="45.76770927362834" lon="9.818127504048237"><ele>350.0</ele><time>2026-04-26T09:42:20Z</time></trkpt><trkpt lat="45.767673423984625" lon="9.818026235157932"><ele>348.5</ele><time>2026-04-26T09:42:21Z</time></trkpt><trkpt lat="45.767645456027594" lon="9.817916237870016"><ele>347.0</ele><time>2026-04-26T09:42:22Z</time></trkpt><trkpt lat="45.76762856339461" lon="9.817797455552032"><ele>349.6</ele><time>2026-04-26T09:42:23Z</time></trkpt><trkpt lat="45.76761882896747" lon="9.817667525959903"><ele>352.20000000000005</ele><time>2026-04-26T09:42:24Z</time></trkpt><trkpt lat="45.76761511487652" lon="9.817537299796282"><ele>354.8</ele><time>2026-04-26T09:42:25Z</time></trkpt><trkpt lat="45.76762046495602" lon="9.817402273934123"><ele>357.4</ele><time>2026-04-26T09:42:26Z</time></trkpt><trkpt lat="45.76763420822203" lon="9.817261665297716"><ele>360.0</ele><time>2026-04-26T09:42:27Z</time></trkpt><trkpt lat="45.7676598948482" lon="9.817119739526248"><ele>356.0</ele><time>2026-04-26T09:42:28Z</time></trkpt><trkpt lat="45.767703766629246" lon="9.816986592106357"><ele>352.0</ele><time>2026-04-26T09:42:29Z</time></trkpt><trkpt lat="45.767749833272994" lon="9.816845883374754"><ele>348.0</ele><time>2026-04-26T09:42:30Z</time></trkpt><trkpt lat="45.767815152463456" lon="9.816715368627529"><ele>344.0</ele><time>2026-04-26T09:42:31Z</time></trkpt><trkpt lat="45.76788717844306" lon="9.816595957014036"><ele>340.0</ele><time>2026-04-26T09:42:32Z</time></trkpt><trkpt lat="45.76795452952423" lon="9.816470185720389"><ele>340.0</ele><time>2026-04-26T09:42:33Z</time></trkpt><trkpt lat="45.76801789264616" lon="9.81634670403812"><ele>340.0</ele><time>2026-04-26T09:42:34Z</time></trkpt><trkpt lat="45.76807320133883" lon="9.816216332262734"><ele>340.0</ele><time>2026-04-26T09:42:35Z</time></trkpt><trkpt lat="45.768126814677544" lon="9.816092833479305"><ele>340.0</ele><time>2026-04-26T09:42:36Z</time></trkpt><trkpt lat="45.76817294739814" lon="9.815952061953542"><ele>340.0</ele><time>2026-04-26T09:42:37Z</time></trkpt><trkpt lat="45.76819254719225" lon="9.815812007593035"><ele>339.8</ele><time>2026-04-26T09:42:38Z</time></trkpt><trkpt lat="45.768199017938045" lon="9.815669854443973"><ele>339.6</ele><time>2026-04-26T09:42:39Z</time></trkpt><trkpt lat="45.76819600792062" lon="9.81553517611418"><ele>339.4</ele><time>2026-04-26T09:42:40Z</time></trkpt><trkpt lat="45.76818573095596" lon="9.815404613719924"><ele>339.2</ele><time>2026-04-26T09:42:41Z</time></trkpt><trkpt lat="45.76816610149272" lon="9.815280866482164"><ele>339.0</ele><time>2026-04-26T09:42:42Z</time></trkpt><trkpt lat="45.76814359313885" lon="9.815164189460239"><ele>339.1666666666667</ele><time>2026-04-26T09:42:43Z</time></trkpt><trkpt lat="45.768104197878685" lon="9.815055874817851"><ele>339.3333333333333</ele><time>2026-04-26T09:42:44Z</time></trkpt><trkpt lat="45.76806450635766" lon="9.814953436289114"><ele>339.5</ele><time>2026-04-26T09:42:45Z</time></trkpt><trkpt lat="45.76801923235151" lon="9.814857064257867"><ele>339.66666666666663</ele><time>2026-04-26T09:42:46Z</time></trkpt><trkpt lat="45.76796322967309" lon="9.814777911677844"><ele>339.8333333333333</ele><time>2026-04-26T09:42:47Z</time></trkpt><trkpt lat="45.76790646069075" lon="9.814703516409264"><ele>340.0</ele><time>2026-04-26T09:42:48Z</time></trkpt><trkpt lat="45.76784789130744" lon="9.81463340889349"><ele>340.0</ele><time>2026-04-26T09:42:49Z</time></trkpt><trkpt lat="45.767790877381465" lon="9.814565921262949"><ele>340.0</ele><time>2026-04-26T09:42:50Z</time></trkpt><trkpt lat="45.76773349554302" lon="9.814505377012827"><ele>340.0</ele><time>2026-04-26T09:42:51Z</time></trkpt><trkpt lat="45.767677503469656" lon="9.814439785069936"><ele>340.0</ele><time>2026-04-26T09:42:52Z</time></trkpt><trkpt lat="45.767626546377564" lon="9.81437411008071"><ele>340.0</ele><time>2026-04-26T09:42:53Z</time></trkpt><trkpt lat="45.76757609174417" lon="9.814309965393319"><ele>340.0</ele><time>2026-04-26T09:42:54Z</time></trkpt><trkpt lat="45.76752562294128" lon="9.814247937256631"><ele>340.0</ele><time>2026-04-26T09:42:55Z</time></trkpt><trkpt lat="45.76747016266196" lon="9.814195131302737"><ele>340.2857142857143</ele><time>2026-04-26T09:42:56Z</time></trkpt><trkpt lat="45.76741678753034" lon="9.814142564050881"><ele>340.57142857142856</ele><time>2026-04-26T09:42:57Z</time></trkpt><trkpt lat="45.76736435283633" lon="9.814087944686117"><ele>340.85714285714283</ele><time>2026-04-26T09:42:58Z</time></trkpt><trkpt lat="45.767309902834256" lon="9.814036359725435"><ele>341.1428571428571</ele><time>2026-04-26T09:42:59Z</time></trkpt><trkpt lat="45.767256172603574" lon="9.813980125596725"><ele>341.42857142857144</ele><time>2026-04-26T09:43:00Z</time></trkpt><trkpt lat="45.767204705949204" lon="9.813926087700443"><ele>341.71428571428567</ele><time>2026-04-26T09:43:01Z</time></trkpt><trkpt lat="45.76715119680585" lon="9.813872463563177"><ele>342.0</ele><time>2026-04-26T09:43:02Z</time></trkpt><trkpt lat="45.767098551945125" lon="9.81382134671632"><ele>341.99999999999994</ele><time>2026-04-26T09:43:03Z</time></trkpt><trkpt lat="45.767043996926894" lon="9.813766497523924"><ele>342.0</ele><time>2026-04-26T09:43:04Z</time></trkpt><trkpt lat="45.766995446081026" lon="9.813705685039109"><ele>342.0</ele><time>2026-04-26T09:43:05Z</time></trkpt><trkpt lat="45.76694202814833" lon="9.813650734351656"><ele>342.0</ele><time>2026-04-26T09:43:06Z</time></trkpt><trkpt lat="45.76689134409587" lon="9.813596314098"><ele>342.0</ele><time>2026-04-26T09:43:07Z</time></trkpt><trkpt lat="45.76683965939303" lon="9.813540538667631"><ele>341.99999999999994</ele><time>2026-04-26T09:43:08Z</time></trkpt><trkpt lat="45.766787202405254" lon="9.813487895103906"><ele>342.0</ele><time>2026-04-26T09:43:09Z</time></trkpt><trkpt lat="45.76673269066584" lon="9.813433684349414"><ele>341.57142857142856</ele><time>2026-04-26T09:43:10Z</time></trkpt><trkpt lat="45.76668030620297" lon="9.813382177980678"><ele>341.1428571428571</ele><time>2026-04-26T09:43:11Z</time></trkpt><trkpt lat="45.76662634766441" lon="9.813328206119559"><ele>340.71428571428567</ele><time>2026-04-26T09:43:12Z</time></trkpt><trkpt lat="45.7665705291606" lon="9.813277541394966"><ele>340.2857142857143</ele><time>2026-04-26T09:43:13Z</time></trkpt><trkpt lat="45.766514520688375" lon="9.813227051352275"><ele>339.8571428571429</ele><time>2026-04-26T09:43:14Z</time></trkpt><trkpt lat="45.76646697650864" lon="9.813164874876778"><ele>339.4285714285714</ele><time>2026-04-26T09:43:15Z</time></trkpt><trkpt lat="45.76641500325292" lon="9.813109310801469"><ele>339.0</ele><time>2026-04-26T09:43:16Z</time></trkpt><trkpt lat="45.76636504568276" lon="9.813049021937935"><ele>339.0</ele><time>2026-04-26T09:43:17Z</time></trkpt><trkpt lat="45.76631123010742" lon="9.81299450543571"><ele>339.0</ele><time>2026-04-26T09:43:18Z</time></trkpt><trkpt lat="45.76625848769699" lon="9.812939193899869"><ele>339.0</ele><time>2026-04-26T09:43:19Z</time></trkpt><trkpt lat="45.766205796174624" lon="9.812886581214372"><ele>339.0</ele><time>2026-04-26T09:43:20Z</time></trkpt><trkpt lat="45.766151318223265" lon="9.812834273481647"><ele>339.0</ele><time>2026-04-26T09:43:21Z</time></trkpt><trkpt lat="45.766099056169374" lon="9.812782201240767"><ele>339.0</ele><time>2026-04-26T09:43:22Z</time></trkpt><trkpt lat="45.76603854096543" lon="9.812726339218322"><ele>339.0</ele><time>2026-04-26T09:43:23Z</time></trkpt><trkpt lat="45.76593463134907" lon="9.812624350372603"><ele>338.7142857142857</ele><time>2026-04-26T09:43:25Z</time></trkpt><trkpt lat="45.76587948897832" lon="9.812570757732228"><ele>338.42857142857144</ele><time>2026-04-26T09:43:26Z</time></trkpt><trkpt lat="45.76582531613479" lon="9.812517664611986"><ele>338.14285714285717</ele><time>2026-04-26T09:43:27Z</time></trkpt><trkpt lat="45.76577181712372" lon="9.812468537530334"><ele>337.8571428571429</ele><time>2026-04-26T09:43:28Z</time></trkpt><trkpt lat="45.76571397228838" lon="9.812424763115809"><ele>337.57142857142856</ele><time>2026-04-26T09:43:29Z</time></trkpt><trkpt lat="45.76565548505448" lon="9.812387596155574"><ele>337.28571428571433</ele><time>2026-04-26T09:43:30Z</time></trkpt><trkpt lat="45.765596752202164" lon="9.812345876735044"><ele>337.0</ele><time>2026-04-26T09:43:31Z</time></trkpt><trkpt lat="45.7655419314385" lon="9.812299076454666"><ele>337.00000000000006</ele><time>2026-04-26T09:43:32Z</time></trkpt><trkpt lat="45.76549290141309" lon="9.812237248352243"><ele>337.0</ele><time>2026-04-26T09:43:33Z</time></trkpt><trkpt lat="45.765449678074646" lon="9.812171488037206"><ele>337.0</ele><time>2026-04-26T09:43:34Z</time></trkpt><trkpt lat="45.765393660947915" lon="9.81212076805108"><ele>337.0</ele><time>2026-04-26T09:43:35Z</time></trkpt><trkpt lat="45.76533141889811" lon="9.812101886413952"><ele>337.0</ele><time>2026-04-26T09:43:36Z</time></trkpt><trkpt lat="45.76526573238121" lon="9.812113041802458"><ele>337.00000000000006</ele><time>2026-04-26T09:43:37Z</time></trkpt><trkpt lat="45.765205196957886" lon="9.812163830222586"><ele>337.0</ele><time>2026-04-26T09:43:38Z</time></trkpt><trkpt lat="45.76515003800812" lon="9.812219744711712"><ele>337.14285714285717</ele><time>2026-04-26T09:43:39Z</time></trkpt><trkpt lat="45.76509372975099" lon="9.812267914483462"><ele>337.2857142857143</ele><time>2026-04-26T09:43:40Z</time></trkpt><trkpt lat="45.76502926776889" lon="9.81230718375519"><ele>337.42857142857144</ele><time>2026-04-26T09:43:41Z</time></trkpt><trkpt lat="45.76496711362205" lon="9.812332786576642"><ele>337.57142857142856</ele><time>2026-04-26T09:43:42Z</time></trkpt><trkpt lat="45.76490300544562" lon="9.812351998584486"><ele>337.7142857142857</ele><time>2026-04-26T09:43:43Z</time></trkpt><trkpt lat="45.76484109009762" lon="9.81238164250956"><ele>337.8571428571429</ele><time>2026-04-26T09:43:44Z</time></trkpt><trkpt lat="45.76477846913793" lon="9.812414528524197"><ele>338.0</ele><time>2026-04-26T09:43:45Z</time></trkpt><trkpt lat="45.76471738419245" lon="9.812450118285804"><ele>338.0</ele><time>2026-04-26T09:43:46Z</time></trkpt><trkpt lat="45.76465519016728" lon="9.81248619613862"><ele>338.0</ele><time>2026-04-26T09:43:47Z</time></trkpt><trkpt lat="45.76459338439204" lon="9.812518815441663"><ele>338.0</ele><time>2026-04-26T09:43:48Z</time></trkpt><trkpt lat="45.76453284641018" lon="9.812556769267825"><ele>338.0</ele><time>2026-04-26T09:43:49Z</time></trkpt><trkpt lat="45.76447465953324" lon="9.812594537050582"><ele>338.0</ele><time>2026-04-26T09:43:50Z</time></trkpt><trkpt lat="45.76441313360837" lon="9.812625505125686"><ele>338.0</ele><time>2026-04-26T09:43:51Z</time></trkpt><trkpt lat="45.76435108635249" lon="9.81265886196775"><ele>338.0</ele><time>2026-04-26T09:43:52Z</time></trkpt><trkpt lat="45.76429372164849" lon="9.812699152652193"><ele>338.2857142857143</ele><time>2026-04-26T09:43:53Z</time></trkpt><trkpt lat="45.76423621758779" lon="9.81274318416325"><ele>338.57142857142856</ele><time>2026-04-26T09:43:54Z</time></trkpt><trkpt lat="45.76417493421113" lon="9.81277866547038"><ele>338.8571428571429</ele><time>2026-04-26T09:43:55Z</time></trkpt><trkpt lat="45.76411349948792" lon="9.812807310289422"><ele>339.1428571428571</ele><time>2026-04-26T09:43:56Z</time></trkpt><trkpt lat="45.76405332666853" lon="9.81283725793587"><ele>339.4285714285714</ele><time>2026-04-26T09:43:57Z</time></trkpt><trkpt lat="45.7639938133963" lon="9.812872820063738"><ele>339.7142857142857</ele><time>2026-04-26T09:43:58Z</time></trkpt><trkpt lat="45.76393327745546" lon="9.812903647486936"><ele>340.0</ele><time>2026-04-26T09:43:59Z</time></trkpt><trkpt lat="45.76387416400275" lon="9.812940253889026"><ele>340.0</ele><time>2026-04-26T09:44:00Z</time></trkpt><trkpt lat="45.76381562877323" lon="9.812979154425022"><ele>340.0</ele><time>2026-04-26T09:44:01Z</time></trkpt><trkpt lat="45.763756155518315" lon="9.813013665459815"><ele>340.0</ele><time>2026-04-26T09:44:02Z</time></trkpt><trkpt lat="45.76369677109291" lon="9.813049099497235"><ele>340.0</ele><time>2026-04-26T09:44:03Z</time></trkpt><trkpt lat="45.76363371422638" lon="9.813077951578343"><ele>340.0</ele><time>2026-04-26T09:44:04Z</time></trkpt><trkpt lat="45.763576064921025" lon="9.81311503660117"><ele>340.0</ele><time>2026-04-26T09:44:05Z</time></trkpt><trkpt lat="45.76351757368629" lon="9.813153185600719"><ele>340.0</ele><time>2026-04-26T09:44:06Z</time></trkpt><trkpt lat="45.76345813712403" lon="9.813191060408016"><ele>339.7142857142857</ele><time>2026-04-26T09:44:07Z</time></trkpt><trkpt lat="45.76339994763809" lon="9.813227052213003"><ele>339.4285714285714</ele><time>2026-04-26T09:44:08Z</time></trkpt><trkpt lat="45.76334036777428" lon="9.813264136689316"><ele>339.1428571428571</ele><time>2026-04-26T09:44:09Z</time></trkpt><trkpt lat="45.763283916835846" lon="9.813305743160202"><ele>338.8571428571429</ele><time>2026-04-26T09:44:10Z</time></trkpt><trkpt lat="45.76321996503752" lon="9.813330721284407"><ele>338.57142857142856</ele><time>2026-04-26T09:44:11Z</time></trkpt><trkpt lat="45.76315913497458" lon="9.813363051367299"><ele>338.2857142857143</ele><time>2026-04-26T09:44:12Z</time></trkpt><trkpt lat="45.76309944984872" lon="9.81340223472092"><ele>338.0</ele><time>2026-04-26T09:44:13Z</time></trkpt><trkpt lat="45.763040222057136" lon="9.813437095376022"><ele>338.0</ele><time>2026-04-26T09:44:14Z</time></trkpt><trkpt lat="45.762980503446684" lon="9.813472908382863"><ele>338.0</ele><time>2026-04-26T09:44:15Z</time></trkpt><trkpt lat="45.76292036119277" lon="9.813510116859224"><ele>338.0</ele><time>2026-04-26T09:44:16Z</time></trkpt><trkpt lat="45.76285964184362" lon="9.813544881758148"><ele>338.0</ele><time>2026-04-26T09:44:17Z</time></trkpt><trkpt lat="45.762800100490466" lon="9.813579803667897"><ele>338.0</ele><time>2026-04-26T09:44:18Z</time></trkpt><trkpt lat="45.76274034605311" lon="9.81361555109407"><ele>338.0</ele><time>2026-04-26T09:44:19Z</time></trkpt><trkpt lat="45.76268283809543" lon="9.813654210150096"><ele>338.0</ele><time>2026-04-26T09:44:20Z</time></trkpt><trkpt lat="45.76262448841389" lon="9.813697215770922"><ele>338.2857142857143</ele><time>2026-04-26T09:44:21Z</time></trkpt><trkpt lat="45.762566970378415" lon="9.813735557849045"><ele>338.57142857142856</ele><time>2026-04-26T09:44:22Z</time></trkpt><trkpt lat="45.762504247871185" lon="9.813747733771967"><ele>338.8571428571429</ele><time>2026-04-26T09:44:23Z</time></trkpt><trkpt lat="45.76244047423381" lon="9.81374008502796"><ele>339.1428571428571</ele><time>2026-04-26T09:44:24Z</time></trkpt><trkpt lat="45.76238174759261" lon="9.813689491104258"><ele>339.4285714285714</ele><time>2026-04-26T09:44:25Z</time></trkpt><trkpt lat="45.76234598997596" lon="9.813604852239722"><ele>339.7142857142857</ele><time>2026-04-26T09:44:26Z</time></trkpt><trkpt lat="45.762322514071755" lon="9.813511376812414"><ele>340.0</ele><time>2026-04-26T09:44:27Z</time></trkpt><trkpt lat="45.762302722707496" lon="9.813421083689008"><ele>340.0</ele><time>2026-04-26T09:44:28Z</time></trkpt><trkpt lat="45.76228422029941" lon="9.813325977405118"><ele>340.0</ele><time>2026-04-26T09:44:29Z</time></trkpt><trkpt lat="45.76226303562601" lon="9.813232592287624"><ele>340.0</ele><time>2026-04-26T09:44:30Z</time></trkpt><trkpt lat="45.76223836440077" lon="9.813140691285215"><ele>340.0</ele><time>2026-04-26T09:44:31Z</time></trkpt><trkpt lat="45.762211878611815" lon="9.81304887986371"><ele>340.0</ele><time>2026-04-26T09:44:32Z</time></trkpt><trkpt lat="45.762184610237306" lon="9.812962774693368"><ele>340.0</ele><time>2026-04-26T09:44:33Z</time></trkpt><trkpt lat="45.76216091080636" lon="9.812871903817824"><ele>340.0</ele><time>2026-04-26T09:44:34Z</time></trkpt><trkpt lat="45.76214087183793" lon="9.812776664848927"><ele>340.0</ele><time>2026-04-26T09:44:35Z</time></trkpt><trkpt lat="45.762117540546484" lon="9.81268662523843"><ele>340.0</ele><time>2026-04-26T09:44:36Z</time></trkpt><trkpt lat="45.76209643436209" lon="9.812590990311746"><ele>340.0</ele><time>2026-04-26T09:44:37Z</time></trkpt><trkpt lat="45.762074148077325" lon="9.812494825021846"><ele>340.0</ele><time>2026-04-26T09:44:38Z</time></trkpt><trkpt lat="45.762051302993676" lon="9.81239634555056"><ele>340.0</ele><time>2026-04-26T09:44:39Z</time></trkpt><trkpt lat="45.762026792421466" lon="9.81230015586285"><ele>340.0</ele><time>2026-04-26T09:44:40Z</time></trkpt><trkpt lat="45.76199559724998" lon="9.812204329472165"><ele>340.0</ele><time>2026-04-26T09:44:41Z</time></trkpt><trkpt lat="45.761960875098374" lon="9.812110838046822"><ele>339.8333333333333</ele><time>2026-04-26T09:44:42Z</time></trkpt><trkpt lat="45.76192359865758" lon="9.812020000148317"><ele>339.66666666666663</ele><time>2026-04-26T09:44:43Z</time></trkpt><trkpt lat="45.76187208067883" lon="9.811941986415368"><ele>339.5</ele><time>2026-04-26T09:44:44Z</time></trkpt><trkpt lat="45.761817580580804" lon="9.811867129724828"><ele>339.3333333333333</ele><time>2026-04-26T09:44:45Z</time></trkpt><trkpt lat="45.7617529161639" lon="9.811806827481586"><ele>339.1666666666667</ele><time>2026-04-26T09:44:46Z</time></trkpt><trkpt lat="45.761705188973245" lon="9.811721544279443"><ele>339.0</ele><time>2026-04-26T09:44:47Z</time></trkpt><trkpt lat="45.76165813510079" lon="9.811635117332658"><ele>339.2857142857143</ele><time>2026-04-26T09:44:48Z</time></trkpt><trkpt lat="45.76161154770136" lon="9.811551313209177"><ele>339.5714285714286</ele><time>2026-04-26T09:44:49Z</time></trkpt><trkpt lat="45.76155734719303" lon="9.81148420529491"><ele>339.8571428571429</ele><time>2026-04-26T09:44:50Z</time></trkpt><trkpt lat="45.76150791003765" lon="9.811404145756821"><ele>340.1428571428571</ele><time>2026-04-26T09:44:51Z</time></trkpt><trkpt lat="45.76145518116882" lon="9.811338232026902"><ele>340.42857142857144</ele><time>2026-04-26T09:44:52Z</time></trkpt><trkpt lat="45.7614053700882" lon="9.811275794747042"><ele>340.7142857142857</ele><time>2026-04-26T09:44:53Z</time></trkpt><trkpt lat="45.76135560012582" lon="9.811219267500748"><ele>341.0</ele><time>2026-04-26T09:44:54Z</time></trkpt><trkpt lat="45.761306354239764" lon="9.81116093848016"><ele>341.0</ele><time>2026-04-26T09:44:55Z</time></trkpt><trkpt lat="45.761215765764696" lon="9.81104624280964"><ele>341.0</ele><time>2026-04-26T09:44:57Z</time></trkpt><trkpt lat="45.761118913152664" lon="9.810928255530571"><ele>341.0</ele><time>2026-04-26T09:44:59Z</time></trkpt><trkpt lat="45.76107032173594" lon="9.810868456598364"><ele>341.0</ele><time>2026-04-26T09:45:00Z</time></trkpt><trkpt lat="45.761021141361525" lon="9.81080887422886"><ele>341.0</ele><time>2026-04-26T09:45:01Z</time></trkpt><trkpt lat="45.76097668772803" lon="9.810743787185471"><ele>341.0</ele><time>2026-04-26T09:45:02Z</time></trkpt><trkpt lat="45.76093109999535" lon="9.810676072168183"><ele>340.6</ele><time>2026-04-26T09:45:03Z</time></trkpt><trkpt lat="45.76088472309593" lon="9.810607463098462"><ele>340.20000000000005</ele><time>2026-04-26T09:45:04Z</time></trkpt><trkpt lat="45.7608403274813" lon="9.810535362738023"><ele>339.79999999999995</ele><time>2026-04-26T09:45:05Z</time></trkpt><trkpt lat="45.76078864395126" lon="9.810473644390008"><ele>339.4</ele><time>2026-04-26T09:45:06Z</time></trkpt><trkpt lat="45.760696699692495" lon="9.81033283473968"><ele>339.0</ele><time>2026-04-26T09:45:08Z</time></trkpt><trkpt lat="45.760612618649084" lon="9.810200354860969"><ele>338.3333333333333</ele><time>2026-04-26T09:45:10Z</time></trkpt><trkpt lat="45.760570251671616" lon="9.810129977616239"><ele>337.6666666666667</ele><time>2026-04-26T09:45:11Z</time></trkpt><trkpt lat="45.760526282827065" lon="9.810061149765207"><ele>337.0</ele><time>2026-04-26T09:45:12Z</time></trkpt><trkpt lat="45.76048353710291" lon="9.809994189251155"><ele>336.33333333333337</ele><time>2026-04-26T09:45:13Z</time></trkpt><trkpt lat="45.760398581260525" lon="9.809858757674943"><ele>335.6666666666667</ele><time>2026-04-26T09:45:15Z</time></trkpt><trkpt lat="45.76035523798032" lon="9.809788171327696"><ele>335.0</ele><time>2026-04-26T09:45:16Z</time></trkpt><trkpt lat="45.76030687457446" lon="9.80971782937286"><ele>334.99999999999994</ele><time>2026-04-26T09:45:17Z</time></trkpt><trkpt lat="45.760261248438276" lon="9.809647118743618"><ele>335.0</ele><time>2026-04-26T09:45:18Z</time></trkpt><trkpt lat="45.76021873141871" lon="9.809577782677701"><ele>335.0</ele><time>2026-04-26T09:45:19Z</time></trkpt><trkpt lat="45.760173589823054" lon="9.809507714441413"><ele>335.0</ele><time>2026-04-26T09:45:20Z</time></trkpt><trkpt lat="45.760130288748606" lon="9.809437661553112"><ele>335.0</ele><time>2026-04-26T09:45:21Z</time></trkpt><trkpt lat="45.76008670772888" lon="9.80936956862374"><ele>334.99999999999994</ele><time>2026-04-26T09:45:22Z</time></trkpt><trkpt lat="45.760041468655324" lon="9.809303174172348"><ele>335.0</ele><time>2026-04-26T09:45:23Z</time></trkpt><trkpt lat="45.75995368272618" lon="9.809176362767717"><ele>334.6666666666667</ele><time>2026-04-26T09:45:25Z</time></trkpt><trkpt lat="45.759863013655085" lon="9.809057590827326"><ele>334.33333333333337</ele><time>2026-04-26T09:45:27Z</time></trkpt><trkpt lat="45.759813355174145" lon="9.80899642331706"><ele>334.0</ele><time>2026-04-26T09:45:28Z</time></trkpt><trkpt lat="45.759765620876166" lon="9.808931844561087"><ele>333.6666666666667</ele><time>2026-04-26T09:45:29Z</time></trkpt><trkpt lat="45.759715889766746" lon="9.808871944891232"><ele>333.3333333333333</ele><time>2026-04-26T09:45:30Z</time></trkpt><trkpt lat="45.75966674766902" lon="9.808811535664356"><ele>333.0</ele><time>2026-04-26T09:45:31Z</time></trkpt><trkpt lat="45.759568632784934" lon="9.80869637853662"><ele>333.0</ele><time>2026-04-26T09:45:33Z</time></trkpt><trkpt lat="45.75951820234009" lon="9.80863588667011"><ele>333.0</ele><time>2026-04-26T09:45:34Z</time></trkpt><trkpt lat="45.75946463241724" lon="9.808577093447228"><ele>333.0</ele><time>2026-04-26T09:45:35Z</time></trkpt><trkpt lat="45.75941610777519" lon="9.808512661760128"><ele>333.0</ele><time>2026-04-26T09:45:36Z</time></trkpt><trkpt lat="45.75936828429445" lon="9.808448779843202"><ele>333.0</ele><time>2026-04-26T09:45:37Z</time></trkpt><trkpt lat="45.75932096779931" lon="9.808381057059801"><ele>333.0</ele><time>2026-04-26T09:45:38Z</time></trkpt><trkpt lat="45.759276964243874" lon="9.808315673848899"><ele>333.0</ele><time>2026-04-26T09:45:39Z</time></trkpt><trkpt lat="45.75923355775409" lon="9.80824393379958"><ele>332.8333333333333</ele><time>2026-04-26T09:45:40Z</time></trkpt><trkpt lat="45.759157002357" lon="9.808107324648024"><ele>332.6666666666667</ele><time>2026-04-26T09:45:42Z</time></trkpt><trkpt lat="45.75911542671464" lon="9.808031149177502"><ele>332.5</ele><time>2026-04-26T09:45:43Z</time></trkpt><trkpt lat="45.75907383801595" lon="9.80796002706121"><ele>332.33333333333337</ele><time>2026-04-26T09:45:44Z</time></trkpt><trkpt lat="45.75902885482117" lon="9.80788871250423"><ele>332.1666666666667</ele><time>2026-04-26T09:45:45Z</time></trkpt><trkpt lat="45.758948018260035" lon="9.807748361514227"><ele>332.0</ele><time>2026-04-26T09:45:47Z</time></trkpt><trkpt lat="45.75890778183797" lon="9.807672365382455"><ele>331.40000000000003</ele><time>2026-04-26T09:45:48Z</time></trkpt><trkpt lat="45.7588323074422" lon="9.807537192241572"><ele>330.8</ele><time>2026-04-26T09:45:50Z</time></trkpt><trkpt lat="45.75875391610484" lon="9.807402098505824"><ele>330.2</ele><time>2026-04-26T09:45:52Z</time></trkpt><trkpt lat="45.758679854347925" lon="9.807261876779082"><ele>329.6</ele><time>2026-04-26T09:45:54Z</time></trkpt><trkpt lat="45.75863719406902" lon="9.807190692664948"><ele>329.0</ele><time>2026-04-26T09:45:55Z</time></trkpt><trkpt lat="45.75859508013463" lon="9.80712181829138"><ele>329.0</ele><time>2026-04-26T09:45:56Z</time></trkpt><trkpt lat="45.758553413239504" lon="9.807049963407565"><ele>329.0</ele><time>2026-04-26T09:45:57Z</time></trkpt><trkpt lat="45.75847720633055" lon="9.806912936266796"><ele>329.0</ele><time>2026-04-26T09:45:59Z</time></trkpt><trkpt lat="45.758404241273254" lon="9.806780091001427"><ele>329.0</ele><time>2026-04-26T09:46:01Z</time></trkpt><trkpt lat="45.758361789954954" lon="9.806706425077621"><ele>329.0</ele><time>2026-04-26T09:46:02Z</time></trkpt><trkpt lat="45.75831987900474" lon="9.806634015510438"><ele>329.0</ele><time>2026-04-26T09:46:03Z</time></trkpt><trkpt lat="45.75827709853389" lon="9.806565550699768"><ele>329.5</ele><time>2026-04-26T09:46:04Z</time></trkpt><trkpt lat="45.75823772236784" lon="9.806491298183484"><ele>330.0</ele><time>2026-04-26T09:46:05Z</time></trkpt><trkpt lat="45.75819611070377" lon="9.806420660299851"><ele>330.5</ele><time>2026-04-26T09:46:06Z</time></trkpt><trkpt lat="45.75815194704915" lon="9.806350731504557"><ele>331.0</ele><time>2026-04-26T09:46:07Z</time></trkpt><trkpt lat="45.75810651808442" lon="9.806276163379536"><ele>331.5</ele><time>2026-04-26T09:46:08Z</time></trkpt><trkpt lat="45.75802698419793" lon="9.806131517373416"><ele>332.0</ele><time>2026-04-26T09:46:10Z</time></trkpt><trkpt lat="45.757985915505635" lon="9.806060081130374"><ele>331.85714285714283</ele><time>2026-04-26T09:46:11Z</time></trkpt><trkpt lat="45.75790769795334" lon="9.805920960183558"><ele>331.7142857142857</ele><time>2026-04-26T09:46:13Z</time></trkpt><trkpt lat="45.75786762927117" lon="9.805847640156655"><ele>331.57142857142856</ele><time>2026-04-26T09:46:14Z</time></trkpt><trkpt lat="45.75782618442747" lon="9.805776264236155"><ele>331.42857142857144</ele><time>2026-04-26T09:46:15Z</time></trkpt><trkpt lat="45.75778391785944" lon="9.80570675820135"><ele>331.2857142857143</ele><time>2026-04-26T09:46:16Z</time></trkpt><trkpt lat="45.75774252618807" lon="9.805635425028171"><ele>331.14285714285717</ele><time>2026-04-26T09:46:17Z</time></trkpt><trkpt lat="45.757701056578675" lon="9.805564854959421"><ele>331.0</ele><time>2026-04-26T09:46:18Z</time></trkpt><trkpt lat="45.75766148976698" lon="9.805492333616604"><ele>331.16666666666663</ele><time>2026-04-26T09:46:19Z</time></trkpt><trkpt lat="45.75761972640703" lon="9.805422302058902"><ele>331.3333333333333</ele><time>2026-04-26T09:46:20Z</time></trkpt><trkpt lat="45.757578410760836" lon="9.805352016354963"><ele>331.5</ele><time>2026-04-26T09:46:21Z</time></trkpt><trkpt lat="45.75750097932482" lon="9.805207469532366"><ele>331.6666666666667</ele><time>2026-04-26T09:46:23Z</time></trkpt><trkpt lat="45.7574225727082" lon="9.80506911327685"><ele>331.83333333333337</ele><time>2026-04-26T09:46:25Z</time></trkpt><trkpt lat="45.75738312492004" lon="9.804995183057198"><ele>332.0</ele><time>2026-04-26T09:46:26Z</time></trkpt><trkpt lat="45.757305482676124" lon="9.804850699819017"><ele>332.0</ele><time>2026-04-26T09:46:28Z</time></trkpt><trkpt lat="45.75723080591455" lon="9.804713404363852"><ele>332.0</ele><time>2026-04-26T09:46:30Z</time></trkpt><trkpt lat="45.7571609418176" lon="9.804563909464024"><ele>332.0</ele><time>2026-04-26T09:46:32Z</time></trkpt><trkpt lat="45.757133616132464" lon="9.804474266764586"><ele>332.0</ele><time>2026-04-26T09:46:33Z</time></trkpt><trkpt lat="45.757105944607105" lon="9.804391838906355"><ele>332.0</ele><time>2026-04-26T09:46:34Z</time></trkpt><trkpt lat="45.75707476616592" lon="9.804312016502934"><ele>332.0</ele><time>2026-04-26T09:46:35Z</time></trkpt><trkpt lat="45.75701242988223" lon="9.804159483928112"><ele>331.85714285714283</ele><time>2026-04-26T09:46:37Z</time></trkpt><trkpt lat="45.75697921716328" lon="9.804079537336376"><ele>331.7142857142857</ele><time>2026-04-26T09:46:38Z</time></trkpt><trkpt lat="45.7569165460903" lon="9.803918511438013"><ele>331.57142857142856</ele><time>2026-04-26T09:46:40Z</time></trkpt><trkpt lat="45.756888514061714" lon="9.803836567503067"><ele>331.42857142857144</ele><time>2026-04-26T09:46:41Z</time></trkpt><trkpt lat="45.756854185931935" lon="9.803759280695557"><ele>331.2857142857143</ele><time>2026-04-26T09:46:42Z</time></trkpt><trkpt lat="45.75682496891504" lon="9.803677392045765"><ele>331.14285714285717</ele><time>2026-04-26T09:46:43Z</time></trkpt><trkpt lat="45.75679472224985" lon="9.803597622149498"><ele>331.0</ele><time>2026-04-26T09:46:44Z</time></trkpt><trkpt lat="45.75673462554655" lon="9.80343903810298"><ele>332.20000000000005</ele><time>2026-04-26T09:46:46Z</time></trkpt><trkpt lat="45.75667469570155" lon="9.803282144312293"><ele>333.40000000000003</ele><time>2026-04-26T09:46:48Z</time></trkpt><trkpt lat="45.75663959622966" lon="9.803200943046273"><ele>334.6</ele><time>2026-04-26T09:46:49Z</time></trkpt><trkpt lat="45.75660440455691" lon="9.803116528165672"><ele>335.8</ele><time>2026-04-26T09:46:50Z</time></trkpt><trkpt lat="45.75655177116693" lon="9.802942507877578"><ele>337.0</ele><time>2026-04-26T09:46:52Z</time></trkpt><trkpt lat="45.75651934259369" lon="9.802860224992525"><ele>337.00000000000006</ele><time>2026-04-26T09:46:53Z</time></trkpt><trkpt lat="45.756488962320326" lon="9.802767703388136"><ele>337.0</ele><time>2026-04-26T09:46:54Z</time></trkpt><trkpt lat="45.756457218365355" lon="9.802678980622833"><ele>337.0</ele><time>2026-04-26T09:46:55Z</time></trkpt><trkpt lat="45.75642961804457" lon="9.802593204091767"><ele>337.0</ele><time>2026-04-26T09:46:56Z</time></trkpt><trkpt lat="45.75640194405403" lon="9.802511379771069"><ele>337.0</ele><time>2026-04-26T09:46:57Z</time></trkpt><trkpt lat="45.756372180366775" lon="9.802426637000059"><ele>337.00000000000006</ele><time>2026-04-26T09:46:58Z</time></trkpt><trkpt lat="45.7563445845439" lon="9.802344675643798"><ele>337.0</ele><time>2026-04-26T09:46:59Z</time></trkpt><trkpt lat="45.7563141263796" lon="9.802260109131963"><ele>335.8333333333333</ele><time>2026-04-26T09:47:00Z</time></trkpt><trkpt lat="45.75628204438518" lon="9.80217256561948"><ele>334.66666666666663</ele><time>2026-04-26T09:47:01Z</time></trkpt><trkpt lat="45.7562569963816" lon="9.802083461716862"><ele>333.5</ele><time>2026-04-26T09:47:02Z</time></trkpt><trkpt lat="45.756233532619746" lon="9.801997863074645"><ele>332.3333333333333</ele><time>2026-04-26T09:47:03Z</time></trkpt><trkpt lat="45.75620735801403" lon="9.801911032316799"><ele>331.1666666666667</ele><time>2026-04-26T09:47:04Z</time></trkpt><trkpt lat="45.7561867011292" lon="9.801824100263474"><ele>330.0</ele><time>2026-04-26T09:47:05Z</time></trkpt><trkpt lat="45.75616080479971" lon="9.801646901294538"><ele>330.0</ele><time>2026-04-26T09:47:07Z</time></trkpt><trkpt lat="45.75614724627423" lon="9.801554343688805"><ele>330.0</ele><time>2026-04-26T09:47:08Z</time></trkpt><trkpt lat="45.75613423684537" lon="9.801463918754473"><ele>330.0</ele><time>2026-04-26T09:47:09Z</time></trkpt><trkpt lat="45.75612082296703" lon="9.801373430684446"><ele>330.0</ele><time>2026-04-26T09:47:10Z</time></trkpt><trkpt lat="45.75611029556604" lon="9.801281549380473"><ele>330.0</ele><time>2026-04-26T09:47:11Z</time></trkpt><trkpt lat="45.75608740607728" lon="9.801106276358814"><ele>330.0</ele><time>2026-04-26T09:47:13Z</time></trkpt><trkpt lat="45.75606670612519" lon="9.80092132135019"><ele>330.6666666666667</ele><time>2026-04-26T09:47:15Z</time></trkpt><trkpt lat="45.75602252203286" lon="9.800750539053361"><ele>331.3333333333333</ele><time>2026-04-26T09:47:17Z</time></trkpt><trkpt lat="45.75600607659391" lon="9.800662456516394"><ele>332.0</ele><time>2026-04-26T09:47:18Z</time></trkpt><trkpt lat="45.75598092916254" lon="9.800573173637497"><ele>332.66666666666663</ele><time>2026-04-26T09:47:19Z</time></trkpt><trkpt lat="45.75595442128439" lon="9.800486474223502"><ele>333.3333333333333</ele><time>2026-04-26T09:47:20Z</time></trkpt><trkpt lat="45.755927439442395" lon="9.800403492436757"><ele>334.0</ele><time>2026-04-26T09:47:21Z</time></trkpt><trkpt lat="45.755902490138126" lon="9.800318603487376"><ele>333.6</ele><time>2026-04-26T09:47:22Z</time></trkpt><trkpt lat="45.75585611558302" lon="9.800151837056825"><ele>333.2</ele><time>2026-04-26T09:47:24Z</time></trkpt><trkpt lat="45.755833177585885" lon="9.800064675686288"><ele>332.8</ele><time>2026-04-26T09:47:25Z</time></trkpt><trkpt lat="45.75581324472918" lon="9.799978485184836"><ele>332.40000000000003</ele><time>2026-04-26T09:47:26Z</time></trkpt><trkpt lat="45.75577999516473" lon="9.799810465273701"><ele>332.0</ele><time>2026-04-26T09:47:28Z</time></trkpt><trkpt lat="45.755757514917406" lon="9.799633718647158"><ele>332.0</ele><time>2026-04-26T09:47:30Z</time></trkpt><trkpt lat="45.75574747674861" lon="9.799538404455808"><ele>332.0</ele><time>2026-04-26T09:47:31Z</time></trkpt><trkpt lat="45.75573558193429" lon="9.799446595190581"><ele>332.0</ele><time>2026-04-26T09:47:32Z</time></trkpt><trkpt lat="45.75571915246779" lon="9.799353747150258"><ele>332.0</ele><time>2026-04-26T09:47:33Z</time></trkpt><trkpt lat="45.75569768657588" lon="9.799177970653753"><ele>332.0</ele><time>2026-04-26T09:47:35Z</time></trkpt><trkpt lat="45.755687589401916" lon="9.799083657159064"><ele>332.0</ele><time>2026-04-26T09:47:36Z</time></trkpt><trkpt lat="45.75567425992732" lon="9.798992961551264"><ele>331.4285714285714</ele><time>2026-04-26T09:47:37Z</time></trkpt><trkpt lat="45.75566851504948" lon="9.798891662257168"><ele>330.8571428571429</ele><time>2026-04-26T09:47:38Z</time></trkpt><trkpt lat="45.75564933836617" lon="9.798805331365438"><ele>330.2857142857143</ele><time>2026-04-26T09:47:39Z</time></trkpt><trkpt lat="45.755638017379724" lon="9.798715207296407"><ele>329.71428571428567</ele><time>2026-04-26T09:47:40Z</time></trkpt><trkpt lat="45.7556257025659" lon="9.79862233289303"><ele>329.1428571428571</ele><time>2026-04-26T09:47:41Z</time></trkpt><trkpt lat="45.755624002241206" lon="9.79852323315743"><ele>328.57142857142856</ele><time>2026-04-26T09:47:42Z</time></trkpt><trkpt lat="45.755638573156325" lon="9.79843141762914"><ele>328.0</ele><time>2026-04-26T09:47:43Z</time></trkpt><trkpt lat="45.755666169195166" lon="9.798343542738252"><ele>327.8333333333333</ele><time>2026-04-26T09:47:44Z</time></trkpt><trkpt lat="45.75569462293112" lon="9.798262712261904"><ele>327.66666666666663</ele><time>2026-04-26T09:47:45Z</time></trkpt><trkpt lat="45.75574121052965" lon="9.798192372859333"><ele>327.5</ele><time>2026-04-26T09:47:46Z</time></trkpt><trkpt lat="45.755814137503116" lon="9.798049038908735"><ele>327.3333333333333</ele><time>2026-04-26T09:47:48Z</time></trkpt><trkpt lat="45.7558126958195" lon="9.797952445876312"><ele>327.1666666666667</ele><time>2026-04-26T09:47:49Z</time></trkpt><trkpt lat="45.755789757593384" lon="9.797858515112443"><ele>327.0</ele><time>2026-04-26T09:47:50Z</time></trkpt><trkpt lat="45.755748090366204" lon="9.797779794074986"><ele>327.0</ele><time>2026-04-26T09:47:51Z</time></trkpt><trkpt lat="45.75571197411225" lon="9.797699416705187"><ele>327.0</ele><time>2026-04-26T09:47:52Z</time></trkpt><trkpt lat="45.75568205455245" lon="9.79761469993167"><ele>327.0</ele><time>2026-04-26T09:47:53Z</time></trkpt><trkpt lat="45.755653783427526" lon="9.797529366126744"><ele>327.0</ele><time>2026-04-26T09:47:54Z</time></trkpt><trkpt lat="45.75562949694268" lon="9.79744191037188"><ele>327.0</ele><time>2026-04-26T09:47:55Z</time></trkpt><trkpt lat="45.755604105726874" lon="9.79735625877031"><ele>327.0</ele><time>2026-04-26T09:47:56Z</time></trkpt><trkpt lat="45.755558185283455" lon="9.79718660875409"><ele>326.7142857142857</ele><time>2026-04-26T09:47:58Z</time></trkpt><trkpt lat="45.75553117077918" lon="9.797102241212551"><ele>326.42857142857144</ele><time>2026-04-26T09:47:59Z</time></trkpt><trkpt lat="45.755502272539864" lon="9.797017875945844"><ele>326.1428571428571</ele><time>2026-04-26T09:48:00Z</time></trkpt><trkpt lat="45.75547922920878" lon="9.796931296152467"><ele>325.8571428571429</ele><time>2026-04-26T09:48:01Z</time></trkpt><trkpt lat="45.755455531993164" lon="9.796844891637626"><ele>325.5714285714286</ele><time>2026-04-26T09:48:02Z</time></trkpt><trkpt lat="45.75542765006639" lon="9.796759986432589"><ele>325.2857142857143</ele><time>2026-04-26T09:48:03Z</time></trkpt><trkpt lat="45.755399401031895" lon="9.79667496497472"><ele>325.0</ele><time>2026-04-26T09:48:04Z</time></trkpt><trkpt lat="45.75537369501952" lon="9.79658899430581"><ele>324.5</ele><time>2026-04-26T09:48:05Z</time></trkpt><trkpt lat="45.7553486965237" lon="9.796500857609155"><ele>324.0</ele><time>2026-04-26T09:48:06Z</time></trkpt><trkpt lat="45.75532255296992" lon="9.796413990499993"><ele>323.5</ele><time>2026-04-26T09:48:07Z</time></trkpt><trkpt lat="45.75527384452993" lon="9.796237618587492"><ele>323.0</ele><time>2026-04-26T09:48:09Z</time></trkpt><trkpt lat="45.75524595470368" lon="9.796154784980548"><ele>322.5</ele><time>2026-04-26T09:48:10Z</time></trkpt><trkpt lat="45.75521933814253" lon="9.79607095359689"><ele>322.0</ele><time>2026-04-26T09:48:11Z</time></trkpt><trkpt lat="45.75519281019788" lon="9.795987000165319"><ele>323.0</ele><time>2026-04-26T09:48:12Z</time></trkpt><trkpt lat="45.75516677120117" lon="9.795902875838719"><ele>324.0</ele><time>2026-04-26T09:48:13Z</time></trkpt><trkpt lat="45.75514480961069" lon="9.795809724518964"><ele>325.0</ele><time>2026-04-26T09:48:14Z</time></trkpt><trkpt lat="45.75511944839125" lon="9.795726098720545"><ele>326.0</ele><time>2026-04-26T09:48:15Z</time></trkpt><trkpt lat="45.75509632675805" lon="9.795641538157538"><ele>327.0</ele><time>2026-04-26T09:48:16Z</time></trkpt><trkpt lat="45.75503950801816" lon="9.795476037603944"><ele>328.0</ele><time>2026-04-26T09:48:18Z</time></trkpt><trkpt lat="45.755008507369844" lon="9.795389467167714"><ele>328.0</ele><time>2026-04-26T09:48:19Z</time></trkpt><trkpt lat="45.754975086162794" lon="9.795305758595584"><ele>328.0</ele><time>2026-04-26T09:48:20Z</time></trkpt><trkpt lat="45.75490845237077" lon="9.7951714645626"><ele>328.0</ele><time>2026-04-26T09:48:22Z</time></trkpt><trkpt lat="45.75484326560612" lon="9.795020576383616"><ele>328.0</ele><time>2026-04-26T09:48:24Z</time></trkpt><trkpt lat="45.75480890739097" lon="9.794941464545525"><ele>328.0</ele><time>2026-04-26T09:48:25Z</time></trkpt><trkpt lat="45.7547701194151" lon="9.794869763326282"><ele>328.0</ele><time>2026-04-26T09:48:26Z</time></trkpt><trkpt lat="45.754739613476254" lon="9.794777183071567"><ele>327.57142857142856</ele><time>2026-04-26T09:48:27Z</time></trkpt><trkpt lat="45.75466460988176" lon="9.794639295304139"><ele>327.1428571428571</ele><time>2026-04-26T09:48:29Z</time></trkpt><trkpt lat="45.7546305454912" lon="9.794562993373159"><ele>326.71428571428567</ele><time>2026-04-26T09:48:30Z</time></trkpt><trkpt lat="45.75459816454772" lon="9.794480529303053"><ele>326.2857142857143</ele><time>2026-04-26T09:48:31Z</time></trkpt><trkpt lat="45.75456513321988" lon="9.794401913542254"><ele>325.8571428571429</ele><time>2026-04-26T09:48:32Z</time></trkpt><trkpt lat="45.75453372361877" lon="9.794320650011418"><ele>325.4285714285714</ele><time>2026-04-26T09:48:33Z</time></trkpt><trkpt lat="45.754500794661446" lon="9.79423831083475"><ele>325.0</ele><time>2026-04-26T09:48:34Z</time></trkpt><trkpt lat="45.7544342901127" lon="9.794083103255907"><ele>324.8333333333333</ele><time>2026-04-26T09:48:36Z</time></trkpt><trkpt lat="45.754394247817494" lon="9.794010806896631"><ele>324.66666666666663</ele><time>2026-04-26T09:48:37Z</time></trkpt><trkpt lat="45.75430876131872" lon="9.7938826792803"><ele>324.5</ele><time>2026-04-26T09:48:39Z</time></trkpt><trkpt lat="45.754263158227964" lon="9.793809927656"><ele>324.3333333333333</ele><time>2026-04-26T09:48:40Z</time></trkpt><trkpt lat="45.7542160394652" lon="9.793743345475264"><ele>324.1666666666667</ele><time>2026-04-26T09:48:41Z</time></trkpt><trkpt lat="45.75417047130419" lon="9.793674862298033"><ele>324.0</ele><time>2026-04-26T09:48:42Z</time></trkpt><trkpt lat="45.754124758896694" lon="9.793612055635068"><ele>323.79999999999995</ele><time>2026-04-26T09:48:43Z</time></trkpt><trkpt lat="45.7540369901337" lon="9.793480949409249"><ele>323.59999999999997</ele><time>2026-04-26T09:48:45Z</time></trkpt><trkpt lat="45.75395557305783" lon="9.793344682144609"><ele>323.4</ele><time>2026-04-26T09:48:47Z</time></trkpt><trkpt lat="45.75391455606438" lon="9.793272214616374"><ele>323.2</ele><time>2026-04-26T09:48:48Z</time></trkpt><trkpt lat="45.75384319996783" lon="9.793122227418205"><ele>323.0</ele><time>2026-04-26T09:48:50Z</time></trkpt><trkpt lat="45.7538037916846" lon="9.793045381719555"><ele>323.0</ele><time>2026-04-26T09:48:51Z</time></trkpt><trkpt lat="45.75373708295785" lon="9.792898223519384"><ele>323.0</ele><time>2026-04-26T09:48:53Z</time></trkpt><trkpt lat="45.75370057320473" lon="9.79282005282153"><ele>323.0</ele><time>2026-04-26T09:48:54Z</time></trkpt><trkpt lat="45.75361772183471" lon="9.792685733284582"><ele>323.0</ele><time>2026-04-26T09:48:56Z</time></trkpt><trkpt lat="45.75357263841453" lon="9.792619026673517"><ele>323.0</ele><time>2026-04-26T09:48:57Z</time></trkpt><trkpt lat="45.75351999846688" lon="9.79256209891896"><ele>323.0</ele><time>2026-04-26T09:48:58Z</time></trkpt><trkpt lat="45.7534678257047" lon="9.792505552864696"><ele>323.79999999999995</ele><time>2026-04-26T09:48:59Z</time></trkpt><trkpt lat="45.75341629258434" lon="9.79244221087631"><ele>324.6</ele><time>2026-04-26T09:49:00Z</time></trkpt><trkpt lat="45.75332288538004" lon="9.792323159741857"><ele>325.4</ele><time>2026-04-26T09:49:02Z</time></trkpt><trkpt lat="45.753231064733335" lon="9.792200577828565"><ele>326.20000000000005</ele><time>2026-04-26T09:49:04Z</time></trkpt><trkpt lat="45.75318029523464" lon="9.792143374741656"><ele>327.0</ele><time>2026-04-26T09:49:05Z</time></trkpt><trkpt lat="45.75308396226341" lon="9.792030303042319"><ele>327.0</ele><time>2026-04-26T09:49:07Z</time></trkpt><trkpt lat="45.752990761405165" lon="9.791916491056044"><ele>327.0</ele><time>2026-04-26T09:49:09Z</time></trkpt><trkpt lat="45.752942998169736" lon="9.791850873711875"><ele>327.0</ele><time>2026-04-26T09:49:10Z</time></trkpt><trkpt lat="45.752895469297485" lon="9.79178198852577"><ele>327.0</ele><time>2026-04-26T09:49:11Z</time></trkpt><trkpt lat="45.752794509356654" lon="9.791659824273694"><ele>327.0</ele><time>2026-04-26T09:49:13Z</time></trkpt><trkpt lat="45.75274992730308" lon="9.79159542191658"><ele>327.42857142857144</ele><time>2026-04-26T09:49:14Z</time></trkpt><trkpt lat="45.75270273154383" lon="9.7915262496774"><ele>327.8571428571429</ele><time>2026-04-26T09:49:15Z</time></trkpt><trkpt lat="45.75265678104386" lon="9.791458843500871"><ele>328.28571428571433</ele><time>2026-04-26T09:49:16Z</time></trkpt><trkpt lat="45.75261240933064" lon="9.791390403072622"><ele>328.7142857142857</ele><time>2026-04-26T09:49:17Z</time></trkpt><trkpt lat="45.752571849792" lon="9.791314944816348"><ele>329.14285714285717</ele><time>2026-04-26T09:49:18Z</time></trkpt><trkpt lat="45.75253309337906" lon="9.791238947530843"><ele>329.5714285714286</ele><time>2026-04-26T09:49:19Z</time></trkpt><trkpt lat="45.752499816602175" lon="9.791153693601569"><ele>330.0</ele><time>2026-04-26T09:49:20Z</time></trkpt><trkpt lat="45.75247872894466" lon="9.791068410638909"><ele>329.4</ele><time>2026-04-26T09:49:21Z</time></trkpt><trkpt lat="45.75246116984604" lon="9.790979766031532"><ele>328.8</ele><time>2026-04-26T09:49:22Z</time></trkpt><trkpt lat="45.752427398929626" lon="9.790814311174742"><ele>328.20000000000005</ele><time>2026-04-26T09:49:24Z</time></trkpt><trkpt lat="45.752396154579564" lon="9.79064046004912"><ele>327.6</ele><time>2026-04-26T09:49:26Z</time></trkpt><trkpt lat="45.752356167870985" lon="9.790483006885042"><ele>327.0</ele><time>2026-04-26T09:49:28Z</time></trkpt><trkpt lat="45.752333682515435" lon="9.79039503908439"><ele>327.0</ele><time>2026-04-26T09:49:29Z</time></trkpt><trkpt lat="45.752281487772414" lon="9.790231818620004"><ele>327.0</ele><time>2026-04-26T09:49:31Z</time></trkpt><trkpt lat="45.752246116240684" lon="9.790154575533574"><ele>327.0</ele><time>2026-04-26T09:49:32Z</time></trkpt><trkpt lat="45.75219801865902" lon="9.790074947614308"><ele>327.0</ele><time>2026-04-26T09:49:33Z</time></trkpt><trkpt lat="45.75214518697996" lon="9.790023634903504"><ele>327.0</ele><time>2026-04-26T09:49:34Z</time></trkpt><trkpt lat="45.75208122199747" lon="9.789976368416662"><ele>327.0</ele><time>2026-04-26T09:49:35Z</time></trkpt><trkpt lat="45.75201734442135" lon="9.789932091634778"><ele>326.1428571428571</ele><time>2026-04-26T09:49:36Z</time></trkpt><trkpt lat="45.75194977791029" lon="9.789897374969389"><ele>325.2857142857143</ele><time>2026-04-26T09:49:37Z</time></trkpt><trkpt lat="45.75188310263854" lon="9.789859535939975"><ele>324.42857142857144</ele><time>2026-04-26T09:49:38Z</time></trkpt><trkpt lat="45.75181975174042" lon="9.789818998008789"><ele>323.57142857142856</ele><time>2026-04-26T09:49:39Z</time></trkpt><trkpt lat="45.75176060199671" lon="9.789764447835"><ele>322.7142857142857</ele><time>2026-04-26T09:49:40Z</time></trkpt><trkpt lat="45.7517059318936" lon="9.789710477689344"><ele>321.85714285714283</ele><time>2026-04-26T09:49:41Z</time></trkpt><trkpt lat="45.75164539838061" lon="9.7896654944482"><ele>321.0</ele><time>2026-04-26T09:49:42Z</time></trkpt><trkpt lat="45.7515810953005" lon="9.789634325586347"><ele>322.85714285714283</ele><time>2026-04-26T09:49:43Z</time></trkpt><trkpt lat="45.7515162130449" lon="9.789602527297443"><ele>324.7142857142857</ele><time>2026-04-26T09:49:44Z</time></trkpt><trkpt lat="45.751450397524714" lon="9.789576128418734"><ele>326.57142857142856</ele><time>2026-04-26T09:49:45Z</time></trkpt><trkpt lat="45.751383550725784" lon="9.789548323700606"><ele>328.42857142857144</ele><time>2026-04-26T09:49:46Z</time></trkpt><trkpt lat="45.751319029907535" lon="9.789509553017199"><ele>330.2857142857143</ele><time>2026-04-26T09:49:47Z</time></trkpt><trkpt lat="45.75125396717858" lon="9.789472762030831"><ele>332.1428571428571</ele><time>2026-04-26T09:49:48Z</time></trkpt><trkpt lat="45.75119161973445" lon="9.789434160392192"><ele>334.0</ele><time>2026-04-26T09:49:49Z</time></trkpt><trkpt lat="45.75112642606511" lon="9.789402326263932"><ele>334.0</ele><time>2026-04-26T09:49:50Z</time></trkpt><trkpt lat="45.751061543367385" lon="9.789365293757522"><ele>334.0</ele><time>2026-04-26T09:49:51Z</time></trkpt><trkpt lat="45.750998341322855" lon="9.78931682339997"><ele>334.0</ele><time>2026-04-26T09:49:52Z</time></trkpt><trkpt lat="45.7509382654323" lon="9.78927065438664"><ele>334.0</ele><time>2026-04-26T09:49:53Z</time></trkpt><trkpt lat="45.7508779574461" lon="9.789216562596028"><ele>334.0</ele><time>2026-04-26T09:49:54Z</time></trkpt><trkpt lat="45.75082098874694" lon="9.789164101798782"><ele>334.0</ele><time>2026-04-26T09:49:55Z</time></trkpt><trkpt lat="45.75076496616778" lon="9.789112743434186"><ele>334.0</ele><time>2026-04-26T09:49:56Z</time></trkpt><trkpt lat="45.750712203565925" lon="9.789059618314218"><ele>333.5</ele><time>2026-04-26T09:49:57Z</time></trkpt><trkpt lat="45.750657837599896" lon="9.789006605717532"><ele>333.0</ele><time>2026-04-26T09:49:58Z</time></trkpt><trkpt lat="45.750603246864536" lon="9.788952350187044"><ele>332.5</ele><time>2026-04-26T09:49:59Z</time></trkpt><trkpt lat="45.750549536086005" lon="9.788895697952773"><ele>332.0</ele><time>2026-04-26T09:50:00Z</time></trkpt><trkpt lat="45.750455765649576" lon="9.788770642065769"><ele>331.5</ele><time>2026-04-26T09:50:02Z</time></trkpt><trkpt lat="45.750415122847436" lon="9.788696716685282"><ele>331.0</ele><time>2026-04-26T09:50:03Z</time></trkpt><trkpt lat="45.75038433817273" lon="9.788615523704006"><ele>331.0</ele><time>2026-04-26T09:50:04Z</time></trkpt><trkpt lat="45.75035254391476" lon="9.788530087439934"><ele>331.0</ele><time>2026-04-26T09:50:05Z</time></trkpt><trkpt lat="45.75031662521217" lon="9.78845017732325"><ele>331.0</ele><time>2026-04-26T09:50:06Z</time></trkpt><trkpt lat="45.75027863312227" lon="9.788372097082355"><ele>331.0</ele><time>2026-04-26T09:50:07Z</time></trkpt><trkpt lat="45.75023717962271" lon="9.788291317350424"><ele>331.0</ele><time>2026-04-26T09:50:08Z</time></trkpt><trkpt lat="45.75018972019592" lon="9.788215090620454"><ele>331.0</ele><time>2026-04-26T09:50:09Z</time></trkpt><trkpt lat="45.75014148209015" lon="9.78814330473616"><ele>331.0</ele><time>2026-04-26T09:50:10Z</time></trkpt><trkpt lat="45.75008574755418" lon="9.788084526448726"><ele>331.0</ele><time>2026-04-26T09:50:11Z</time></trkpt><trkpt lat="45.750029617726135" lon="9.788027446530968"><ele>331.0</ele><time>2026-04-26T09:50:12Z</time></trkpt><trkpt lat="45.749972851965715" lon="9.787970779410832"><ele>331.0</ele><time>2026-04-26T09:50:13Z</time></trkpt><trkpt lat="45.74991531082218" lon="9.787914901574569"><ele>331.0</ele><time>2026-04-26T09:50:14Z</time></trkpt><trkpt lat="45.749860481812476" lon="9.787852308397593"><ele>331.0</ele><time>2026-04-26T09:50:15Z</time></trkpt><trkpt lat="45.74980374975245" lon="9.787788190011476"><ele>331.0</ele><time>2026-04-26T09:50:16Z</time></trkpt><trkpt lat="45.74974684707584" lon="9.787724749848648"><ele>331.0</ele><time>2026-04-26T09:50:17Z</time></trkpt><trkpt lat="45.74969041048985" lon="9.787660271885608"><ele>330.57142857142856</ele><time>2026-04-26T09:50:18Z</time></trkpt><trkpt lat="45.74963290057283" lon="9.787594944247543"><ele>330.1428571428571</ele><time>2026-04-26T09:50:19Z</time></trkpt><trkpt lat="45.749575271288386" lon="9.787533369240906"><ele>329.71428571428567</ele><time>2026-04-26T09:50:20Z</time></trkpt><trkpt lat="45.749521477713024" lon="9.787473886381443"><ele>329.2857142857143</ele><time>2026-04-26T09:50:21Z</time></trkpt><trkpt lat="45.74946866236795" lon="9.787419108265487"><ele>328.85714285714283</ele><time>2026-04-26T09:50:22Z</time></trkpt><trkpt lat="45.749415814943994" lon="9.78736931048116"><ele>328.4285714285714</ele><time>2026-04-26T09:50:23Z</time></trkpt><trkpt lat="45.74936106807429" lon="9.787319067049618"><ele>328.0</ele><time>2026-04-26T09:50:24Z</time></trkpt><trkpt lat="45.74930414237538" lon="9.787274492482428"><ele>328.0</ele><time>2026-04-26T09:50:25Z</time></trkpt><trkpt lat="45.74924510998408" lon="9.787235017114735"><ele>328.0</ele><time>2026-04-26T09:50:26Z</time></trkpt><trkpt lat="45.7491811459453" lon="9.787211980493124"><ele>328.0</ele><time>2026-04-26T09:50:27Z</time></trkpt><trkpt lat="45.749118273764736" lon="9.787193293996959"><ele>328.0</ele><time>2026-04-26T09:50:28Z</time></trkpt><trkpt lat="45.74905303298789" lon="9.78718682385465"><ele>328.0</ele><time>2026-04-26T09:50:29Z</time></trkpt><trkpt lat="45.74893044469206" lon="9.787185372214322"><ele>328.0</ele><time>2026-04-26T09:50:31Z</time></trkpt><trkpt lat="45.748892036503214" lon="9.787097690998266"><ele>328.0</ele><time>2026-04-26T09:50:33Z</time></trkpt><trkpt lat="45.7489948915028" lon="9.786998732661903"><ele>328.0</ele><time>2026-04-26T09:50:35Z</time></trkpt><trkpt lat="45.749051325616236" lon="9.786936269687187"><ele>328.0</ele><time>2026-04-26T09:50:36Z</time></trkpt><trkpt lat="45.74909352839498" lon="9.786848329853802"><ele>328.0</ele><time>2026-04-26T09:50:37Z</time></trkpt><trkpt lat="45.74912397087212" lon="9.786748223522373"><ele>328.0</ele><time>2026-04-26T09:50:38Z</time></trkpt><trkpt lat="45.74914872608252" lon="9.786648557070892"><ele>328.0</ele><time>2026-04-26T09:50:39Z</time></trkpt><trkpt lat="45.749175683760036" lon="9.786555634167485"><ele>326.85714285714283</ele><time>2026-04-26T09:50:40Z</time></trkpt><trkpt lat="45.749209017478584" lon="9.78646842377194"><ele>325.7142857142857</ele><time>2026-04-26T09:50:41Z</time></trkpt><trkpt lat="45.749249974719035" lon="9.786388719247045"><ele>324.57142857142856</ele><time>2026-04-26T09:50:42Z</time></trkpt><trkpt lat="45.749301720432165" lon="9.786323425697134"><ele>323.42857142857144</ele><time>2026-04-26T09:50:43Z</time></trkpt><trkpt lat="45.74935556490102" lon="9.786256812354596"><ele>322.2857142857143</ele><time>2026-04-26T09:50:44Z</time></trkpt><trkpt lat="45.74940442077155" lon="9.786192412833058"><ele>321.1428571428571</ele><time>2026-04-26T09:50:45Z</time></trkpt><trkpt lat="45.74944986984163" lon="9.78612995730959"><ele>320.0</ele><time>2026-04-26T09:50:46Z</time></trkpt><trkpt lat="45.74953309383715" lon="9.785999179303634"><ele>319.0</ele><time>2026-04-26T09:50:48Z</time></trkpt><trkpt lat="45.74961118448268" lon="9.785855395528234"><ele>318.0</ele><time>2026-04-26T09:50:50Z</time></trkpt><trkpt lat="45.749655421572534" lon="9.785783370466692"><ele>317.0</ele><time>2026-04-26T09:50:51Z</time></trkpt><trkpt lat="45.749699652097064" lon="9.78571634587044"><ele>316.0</ele><time>2026-04-26T09:50:52Z</time></trkpt><trkpt lat="45.74974699306682" lon="9.785654039180326"><ele>315.0</ele><time>2026-04-26T09:50:53Z</time></trkpt><trkpt lat="45.74982458719422" lon="9.785554317271233"><ele>314.0</ele><time>2026-04-26T09:50:55Z</time></trkpt><trkpt lat="45.74988447720496" lon="9.785448197820125"><ele>314.0</ele><time>2026-04-26T09:50:57Z</time></trkpt><trkpt lat="45.7498857462178" lon="9.785350956276215"><ele>314.0</ele><time>2026-04-26T09:50:59Z</time></trkpt><trkpt lat="45.74985910179934" lon="9.785251530205723"><ele>314.0</ele><time>2026-04-26T09:51:01Z</time></trkpt><trkpt lat="45.74976188451917" lon="9.785153337524196"><ele>314.0</ele><time>2026-04-26T09:51:03Z</time></trkpt><trkpt lat="45.74970259758114" lon="9.785099871615067"><ele>314.0</ele><time>2026-04-26T09:51:04Z</time></trkpt><trkpt lat="45.74965075443866" lon="9.785044536478004"><ele>314.0</ele><time>2026-04-26T09:51:05Z</time></trkpt><trkpt lat="45.749591908302094" lon="9.784994525564692"><ele>313.99999999999994</ele><time>2026-04-26T09:51:06Z</time></trkpt><trkpt lat="45.74953305475539" lon="9.784957164703425"><ele>314.0</ele><time>2026-04-26T09:51:07Z</time></trkpt><trkpt lat="45.74947267577459" lon="9.784924778566928"><ele>314.0</ele><time>2026-04-26T09:51:08Z</time></trkpt><trkpt lat="45.74940665443816" lon="9.784911016792202"><ele>314.0</ele><time>2026-04-26T09:51:09Z</time></trkpt><trkpt lat="45.74934106461077" lon="9.784897365630844"><ele>314.0</ele><time>2026-04-26T09:51:10Z</time></trkpt><trkpt lat="45.74924754369392" lon="9.784845467275966"><ele>313.99999999999994</ele><time>2026-04-26T09:51:12Z</time></trkpt><trkpt lat="45.74919280279794" lon="9.78478875398375"><ele>314.0</ele><time>2026-04-26T09:51:14Z</time></trkpt><trkpt lat="45.74926562599341" lon="9.784772367598304"><ele>314.0</ele><time>2026-04-26T09:51:20Z</time></trkpt><trkpt lat="45.74934642691953" lon="9.784871290750557"><ele>314.0</ele><time>2026-04-26T09:51:22Z</time></trkpt><trkpt lat="45.7494689338218" lon="9.784903045156394"><ele>314.0</ele><time>2026-04-26T09:51:24Z</time></trkpt><trkpt lat="45.749580602036495" lon="9.784964613579179"><ele>314.0</ele><time>2026-04-26T09:51:26Z</time></trkpt><trkpt lat="45.749637950178325" lon="9.785011341602647"><ele>314.0</ele><time>2026-04-26T09:51:27Z</time></trkpt><trkpt lat="45.749693709139756" lon="9.785061396544164"><ele>314.0</ele><time>2026-04-26T09:51:28Z</time></trkpt><trkpt lat="45.74979071176733" lon="9.78515271648695"><ele>314.0</ele><time>2026-04-26T09:51:30Z</time></trkpt><trkpt lat="45.74988710197183" lon="9.7852560578674"><ele>314.0</ele><time>2026-04-26T09:51:32Z</time></trkpt><trkpt lat="45.74992078052356" lon="9.785382576892857"><ele>314.0</ele><time>2026-04-26T09:51:34Z</time></trkpt><trkpt lat="45.749875178422265" lon="9.785505659122583"><ele>314.0</ele><time>2026-04-26T09:51:36Z</time></trkpt><trkpt lat="45.74982219752007" lon="9.785555358800465"><ele>314.0</ele><time>2026-04-26T09:51:37Z</time></trkpt><trkpt lat="45.74976796116576" lon="9.78562890603386"><ele>314.0</ele><time>2026-04-26T09:51:38Z</time></trkpt><trkpt lat="45.74971246663272" lon="9.785687212338527"><ele>314.0</ele><time>2026-04-26T09:51:39Z</time></trkpt><trkpt lat="45.74966103864408" lon="9.785752531243041"><ele>314.0</ele><time>2026-04-26T09:51:40Z</time></trkpt><trkpt lat="45.74961655280505" lon="9.78582324734538"><ele>314.0</ele><time>2026-04-26T09:51:41Z</time></trkpt><trkpt lat="45.7495454647891" lon="9.785965818565096"><ele>314.0</ele><time>2026-04-26T09:51:43Z</time></trkpt><trkpt lat="45.74946819575166" lon="9.786093193369041"><ele>314.57142857142856</ele><time>2026-04-26T09:51:45Z</time></trkpt><trkpt lat="45.74941927614767" lon="9.786153532267118"><ele>315.1428571428571</ele><time>2026-04-26T09:51:46Z</time></trkpt><trkpt lat="45.749372241740474" lon="9.78621659885218"><ele>315.71428571428567</ele><time>2026-04-26T09:51:47Z</time></trkpt><trkpt lat="45.749321434886085" lon="9.786275000979375"><ele>316.2857142857143</ele><time>2026-04-26T09:51:48Z</time></trkpt><trkpt lat="45.749276770923814" lon="9.78634040475774"><ele>316.8571428571429</ele><time>2026-04-26T09:51:49Z</time></trkpt><trkpt lat="45.74922785577796" lon="9.786410107033106"><ele>317.4285714285714</ele><time>2026-04-26T09:51:50Z</time></trkpt><trkpt lat="45.749181118554354" lon="9.786470895475844"><ele>318.0</ele><time>2026-04-26T09:51:51Z</time></trkpt><trkpt lat="45.74913454473135" lon="9.786531839793643"><ele>318.3333333333333</ele><time>2026-04-26T09:51:52Z</time></trkpt><trkpt lat="45.74912238315154" lon="9.786621034220403"><ele>318.6666666666667</ele><time>2026-04-26T09:51:53Z</time></trkpt><trkpt lat="45.74909512415058" lon="9.786706371457011"><ele>319.0</ele><time>2026-04-26T09:51:54Z</time></trkpt><trkpt lat="45.7490706052868" lon="9.78678983111177"><ele>319.33333333333337</ele><time>2026-04-26T09:51:55Z</time></trkpt><trkpt lat="45.7490441939679" lon="9.786872995986629"><ele>319.6666666666667</ele><time>2026-04-26T09:51:56Z</time></trkpt><trkpt lat="45.74896990820436" lon="9.78700900491734"><ele>320.0</ele><time>2026-04-26T09:51:58Z</time></trkpt><trkpt lat="45.748880252859664" lon="9.787095560172537"><ele>321.6</ele><time>2026-04-26T09:52:00Z</time></trkpt><trkpt lat="45.748780710018956" lon="9.78714332051144"><ele>323.2</ele><time>2026-04-26T09:52:02Z</time></trkpt><trkpt lat="45.74864887977318" lon="9.787161664135981"><ele>324.79999999999995</ele><time>2026-04-26T09:52:04Z</time></trkpt><trkpt lat="45.74858360890813" lon="9.787161636070397"><ele>326.4</ele><time>2026-04-26T09:52:05Z</time></trkpt><trkpt lat="45.74851730074349" lon="9.787160522263015"><ele>328.0</ele><time>2026-04-26T09:52:06Z</time></trkpt><trkpt lat="45.74839450463499" lon="9.787158218418213"><ele>328.75</ele><time>2026-04-26T09:52:08Z</time></trkpt><trkpt lat="45.7482740186494" lon="9.787155019040341"><ele>329.5</ele><time>2026-04-26T09:52:10Z</time></trkpt><trkpt lat="45.74816575870481" lon="9.787075830985541"><ele>330.25</ele><time>2026-04-26T09:52:12Z</time></trkpt><trkpt lat="45.74809102853287" lon="9.786934831574095"><ele>331.0</ele><time>2026-04-26T09:52:14Z</time></trkpt><trkpt lat="45.74803493513226" lon="9.786771966693568"><ele>329.20000000000005</ele><time>2026-04-26T09:52:16Z</time></trkpt><trkpt lat="45.74798487910653" lon="9.786618053321009"><ele>327.40000000000003</ele><time>2026-04-26T09:52:18Z</time></trkpt><trkpt lat="45.74792692941655" lon="9.78647966214347"><ele>325.6</ele><time>2026-04-26T09:52:20Z</time></trkpt><trkpt lat="45.747868222322474" lon="9.786334304841118"><ele>323.8</ele><time>2026-04-26T09:52:22Z</time></trkpt><trkpt lat="45.7478339177567" lon="9.786250834102608"><ele>322.0</ele><time>2026-04-26T09:52:23Z</time></trkpt><trkpt lat="45.747802333336736" lon="9.786166334822486"><ele>322.0</ele><time>2026-04-26T09:52:24Z</time></trkpt><trkpt lat="45.74777304623069" lon="9.786082854665397"><ele>322.0</ele><time>2026-04-26T09:52:25Z</time></trkpt><trkpt lat="45.74774417346747" lon="9.78599927799121"><ele>322.0</ele><time>2026-04-26T09:52:26Z</time></trkpt><trkpt lat="45.74771669566909" lon="9.785915486399912"><ele>322.0</ele><time>2026-04-26T09:52:27Z</time></trkpt><trkpt lat="45.74768658296634" lon="9.785832357542319"><ele>322.0</ele><time>2026-04-26T09:52:28Z</time></trkpt><trkpt lat="45.747655928063516" lon="9.785750619429505"><ele>322.0</ele><time>2026-04-26T09:52:29Z</time></trkpt><trkpt lat="45.74762382276625" lon="9.785669527852559"><ele>322.0</ele><time>2026-04-26T09:52:30Z</time></trkpt><trkpt lat="45.7475982207382" lon="9.78558455763404"><ele>322.0</ele><time>2026-04-26T09:52:31Z</time></trkpt><trkpt lat="45.74756915079516" lon="9.785501661540618"><ele>322.0</ele><time>2026-04-26T09:52:32Z</time></trkpt><trkpt lat="45.74753977531964" lon="9.785416541215861"><ele>322.0</ele><time>2026-04-26T09:52:33Z</time></trkpt><trkpt lat="45.74750899863163" lon="9.785334672530183"><ele>322.0</ele><time>2026-04-26T09:52:34Z</time></trkpt><trkpt lat="45.747479229326245" lon="9.785249893365908"><ele>322.0</ele><time>2026-04-26T09:52:35Z</time></trkpt><trkpt lat="45.74745088177945" lon="9.785167210068506"><ele>322.0</ele><time>2026-04-26T09:52:36Z</time></trkpt><trkpt lat="45.74742047449205" lon="9.785086518318888"><ele>322.0</ele><time>2026-04-26T09:52:37Z</time></trkpt><trkpt lat="45.747389214817055" lon="9.78500303462261"><ele>321.66666666666663</ele><time>2026-04-26T09:52:38Z</time></trkpt><trkpt lat="45.74735874826508" lon="9.784922935112629"><ele>321.3333333333333</ele><time>2026-04-26T09:52:39Z</time></trkpt><trkpt lat="45.74732929958097" lon="9.784835122852163"><ele>321.0</ele><time>2026-04-26T09:52:40Z</time></trkpt><trkpt lat="45.74727125628066" lon="9.784671863554221"><ele>320.6666666666667</ele><time>2026-04-26T09:52:42Z</time></trkpt><trkpt lat="45.747244467538984" lon="9.78458921631282"><ele>320.33333333333337</ele><time>2026-04-26T09:52:43Z</time></trkpt><trkpt lat="45.74721447690553" lon="9.784506497972735"><ele>320.0</ele><time>2026-04-26T09:52:44Z</time></trkpt><trkpt lat="45.747183390826315" lon="9.784424050539954"><ele>319.5</ele><time>2026-04-26T09:52:45Z</time></trkpt><trkpt lat="45.74715444066223" lon="9.784342663037998"><ele>319.0</ele><time>2026-04-26T09:52:46Z</time></trkpt><trkpt lat="45.74711981600054" lon="9.784261345181257"><ele>318.5</ele><time>2026-04-26T09:52:47Z</time></trkpt><trkpt lat="45.747059964617904" lon="9.784099120996226"><ele>318.0</ele><time>2026-04-26T09:52:49Z</time></trkpt><trkpt lat="45.74702998407584" lon="9.784017207437314"><ele>317.5</ele><time>2026-04-26T09:52:50Z</time></trkpt><trkpt lat="45.74700419833219" lon="9.783932375009561"><ele>317.0</ele><time>2026-04-26T09:52:51Z</time></trkpt><trkpt lat="45.74697579704109" lon="9.783850109688018"><ele>317.0</ele><time>2026-04-26T09:52:52Z</time></trkpt><trkpt lat="45.74694979321669" lon="9.783764474736932"><ele>317.0</ele><time>2026-04-26T09:52:53Z</time></trkpt><trkpt lat="45.74691983069345" lon="9.783681774534744"><ele>317.0</ele><time>2026-04-26T09:52:54Z</time></trkpt><trkpt lat="45.74689222104207" lon="9.783596412992367"><ele>317.0</ele><time>2026-04-26T09:52:55Z</time></trkpt><trkpt lat="45.74686158082235" lon="9.783515250031863"><ele>317.0</ele><time>2026-04-26T09:52:56Z</time></trkpt><trkpt lat="45.746834853394766" lon="9.783433173012659"><ele>317.0</ele><time>2026-04-26T09:52:57Z</time></trkpt><trkpt lat="45.74680714017027" lon="9.783343732584424"><ele>317.0</ele><time>2026-04-26T09:52:58Z</time></trkpt><trkpt lat="45.74675243051838" lon="9.78317480178072"><ele>317.0</ele><time>2026-04-26T09:53:00Z</time></trkpt><trkpt lat="45.74672515731392" lon="9.783090449301001"><ele>317.0</ele><time>2026-04-26T09:53:01Z</time></trkpt><trkpt lat="45.74669807713502" lon="9.78300355428869"><ele>317.0</ele><time>2026-04-26T09:53:02Z</time></trkpt><trkpt lat="45.746670092920525" lon="9.782918291571093"><ele>317.0</ele><time>2026-04-26T09:53:03Z</time></trkpt><trkpt lat="45.746645872185134" lon="9.78283229823295"><ele>317.0</ele><time>2026-04-26T09:53:04Z</time></trkpt><trkpt lat="45.74662251350835" lon="9.782744087884868"><ele>317.0</ele><time>2026-04-26T09:53:05Z</time></trkpt><trkpt lat="45.746599888437075" lon="9.782656451886709"><ele>317.0</ele><time>2026-04-26T09:53:06Z</time></trkpt><trkpt lat="45.746555810055135" lon="9.782491738853082"><ele>316.5</ele><time>2026-04-26T09:53:08Z</time></trkpt><trkpt lat="45.746516457103915" lon="9.782328136667033"><ele>316.0</ele><time>2026-04-26T09:53:10Z</time></trkpt><trkpt lat="45.74646912855788" lon="9.782165658674991"><ele>315.5</ele><time>2026-04-26T09:53:12Z</time></trkpt><trkpt lat="45.746446368961735" lon="9.782076562896123"><ele>315.0</ele><time>2026-04-26T09:53:13Z</time></trkpt><trkpt lat="45.74642292848452" lon="9.78198695055308"><ele>314.5</ele><time>2026-04-26T09:53:14Z</time></trkpt><trkpt lat="45.746395428418566" lon="9.781903345813339"><ele>314.0</ele><time>2026-04-26T09:53:15Z</time></trkpt><trkpt lat="45.746349115564584" lon="9.781737109825322"><ele>313.75</ele><time>2026-04-26T09:53:17Z</time></trkpt><trkpt lat="45.74630879380608" lon="9.781570949310199"><ele>313.5</ele><time>2026-04-26T09:53:19Z</time></trkpt><trkpt lat="45.74626322795962" lon="9.781410776758447"><ele>313.25</ele><time>2026-04-26T09:53:21Z</time></trkpt><trkpt lat="45.746218011511345" lon="9.781252283422734"><ele>313.0</ele><time>2026-04-26T09:53:23Z</time></trkpt><trkpt lat="45.74616735522226" lon="9.78109228059504"><ele>312.8333333333333</ele><time>2026-04-26T09:53:25Z</time></trkpt><trkpt lat="45.74614230054938" lon="9.781000084298313"><ele>312.66666666666663</ele><time>2026-04-26T09:53:26Z</time></trkpt><trkpt lat="45.74611426400326" lon="9.78091680088419"><ele>312.5</ele><time>2026-04-26T09:53:27Z</time></trkpt><trkpt lat="45.74606435865932" lon="9.780757760552493"><ele>312.3333333333333</ele><time>2026-04-26T09:53:29Z</time></trkpt><trkpt lat="45.746021903667845" lon="9.78059761932245"><ele>312.1666666666667</ele><time>2026-04-26T09:53:31Z</time></trkpt><trkpt lat="45.74599751838486" lon="9.780511702235268"><ele>312.0</ele><time>2026-04-26T09:53:32Z</time></trkpt><trkpt lat="45.74597019819094" lon="9.780422722635427"><ele>312.1666666666667</ele><time>2026-04-26T09:53:33Z</time></trkpt><trkpt lat="45.74594936232941" lon="9.780333745605576"><ele>312.3333333333333</ele><time>2026-04-26T09:53:34Z</time></trkpt><trkpt lat="45.74591564454732" lon="9.780246856086144"><ele>312.5</ele><time>2026-04-26T09:53:35Z</time></trkpt><trkpt lat="45.74587200722388" lon="9.780076104776464"><ele>312.66666666666663</ele><time>2026-04-26T09:53:37Z</time></trkpt><trkpt lat="45.74584617743436" lon="9.779991038999091"><ele>312.8333333333333</ele><time>2026-04-26T09:53:38Z</time></trkpt><trkpt lat="45.7458179970644" lon="9.779902574028458"><ele>313.0</ele><time>2026-04-26T09:53:39Z</time></trkpt><trkpt lat="45.74578907954673" lon="9.779820804977183"><ele>313.0</ele><time>2026-04-26T09:53:40Z</time></trkpt><trkpt lat="45.745761827141386" lon="9.779728818169431"><ele>313.0</ele><time>2026-04-26T09:53:41Z</time></trkpt><trkpt lat="45.74573184308453" lon="9.779646402246968"><ele>313.0</ele><time>2026-04-26T09:53:42Z</time></trkpt><trkpt lat="45.745705163154184" lon="9.779558141619553"><ele>313.0</ele><time>2026-04-26T09:53:43Z</time></trkpt><trkpt lat="45.745673802667206" lon="9.779473421822523"><ele>313.0</ele><time>2026-04-26T09:53:44Z</time></trkpt><trkpt lat="45.74564742454931" lon="9.779390221858307"><ele>313.0</ele><time>2026-04-26T09:53:45Z</time></trkpt><trkpt lat="45.7456139718242" lon="9.779306426344249"><ele>313.0</ele><time>2026-04-26T09:53:46Z</time></trkpt><trkpt lat="45.74556386281308" lon="9.779139103113483"><ele>312.7142857142857</ele><time>2026-04-26T09:53:48Z</time></trkpt><trkpt lat="45.7455366283306" lon="9.7790505111889"><ele>312.42857142857144</ele><time>2026-04-26T09:53:49Z</time></trkpt><trkpt lat="45.74550858060998" lon="9.778968605708355"><ele>312.1428571428571</ele><time>2026-04-26T09:53:50Z</time></trkpt><trkpt lat="45.74547697034808" lon="9.778881390826903"><ele>311.8571428571429</ele><time>2026-04-26T09:53:51Z</time></trkpt><trkpt lat="45.745441801535506" lon="9.778802700752214"><ele>311.5714285714286</ele><time>2026-04-26T09:53:52Z</time></trkpt><trkpt lat="45.74540257533795" lon="9.778725380142019"><ele>311.2857142857143</ele><time>2026-04-26T09:53:53Z</time></trkpt><trkpt lat="45.74536346383286" lon="9.778653685750745"><ele>311.0</ele><time>2026-04-26T09:53:54Z</time></trkpt><trkpt lat="45.74533562068808" lon="9.77857219351199"><ele>310.85714285714283</ele><time>2026-04-26T09:53:55Z</time></trkpt><trkpt lat="45.74531084129344" lon="9.778488993045258"><ele>310.7142857142857</ele><time>2026-04-26T09:53:56Z</time></trkpt><trkpt lat="45.7452660187005" lon="9.778415664102322"><ele>310.57142857142856</ele><time>2026-04-26T09:53:57Z</time></trkpt><trkpt lat="45.745225281435296" lon="9.77833978638196"><ele>310.42857142857144</ele><time>2026-04-26T09:53:58Z</time></trkpt><trkpt lat="45.74518321108493" lon="9.778261059767061"><ele>310.2857142857143</ele><time>2026-04-26T09:53:59Z</time></trkpt><trkpt lat="45.74514225910329" lon="9.7781775810373"><ele>310.14285714285717</ele><time>2026-04-26T09:54:00Z</time></trkpt><trkpt lat="45.745103517853984" lon="9.778095360850003"><ele>310.0</ele><time>2026-04-26T09:54:01Z</time></trkpt><trkpt lat="45.745070864200635" lon="9.778011272716315"><ele>310.0</ele><time>2026-04-26T09:54:02Z</time></trkpt><trkpt lat="45.74504675072068" lon="9.777922255846503"><ele>310.0</ele><time>2026-04-26T09:54:03Z</time></trkpt><trkpt lat="45.74502014264411" lon="9.777839847362463"><ele>310.0</ele><time>2026-04-26T09:54:04Z</time></trkpt><trkpt lat="45.74497623063811" lon="9.777673018109324"><ele>310.0</ele><time>2026-04-26T09:54:06Z</time></trkpt><trkpt lat="45.74492730844252" lon="9.777517227745223"><ele>310.0</ele><time>2026-04-26T09:54:08Z</time></trkpt><trkpt lat="45.744870644747415" lon="9.777370888459746"><ele>310.0</ele><time>2026-04-26T09:54:10Z</time></trkpt><trkpt lat="45.744811990004216" lon="9.777229215245061"><ele>310.0</ele><time>2026-04-26T09:54:12Z</time></trkpt><trkpt lat="45.74473550512102" lon="9.777083333757886"><ele>310.0</ele><time>2026-04-26T09:54:14Z</time></trkpt><trkpt lat="45.74469328620469" lon="9.777007258214416"><ele>310.0</ele><time>2026-04-26T09:54:15Z</time></trkpt><trkpt lat="45.74464920819615" lon="9.776936429803254"><ele>310.0</ele><time>2026-04-26T09:54:16Z</time></trkpt><trkpt lat="45.74460089416312" lon="9.776866945940942"><ele>310.0</ele><time>2026-04-26T09:54:17Z</time></trkpt><trkpt lat="45.7445592220181" lon="9.776789358391657"><ele>310.14285714285717</ele><time>2026-04-26T09:54:18Z</time></trkpt><trkpt lat="45.74452365639277" lon="9.776708582263007"><ele>310.2857142857143</ele><time>2026-04-26T09:54:19Z</time></trkpt><trkpt lat="45.74448368145211" lon="9.776632441883564"><ele>310.42857142857144</ele><time>2026-04-26T09:54:20Z</time></trkpt><trkpt lat="45.74444538055372" lon="9.776560753111998"><ele>310.57142857142856</ele><time>2026-04-26T09:54:21Z</time></trkpt><trkpt lat="45.744407333875934" lon="9.776486586173888"><ele>310.7142857142857</ele><time>2026-04-26T09:54:22Z</time></trkpt><trkpt lat="45.744370616617786" lon="9.77641319859504"><ele>310.85714285714283</ele><time>2026-04-26T09:54:23Z</time></trkpt><trkpt lat="45.744299578408196" lon="9.776268564029358"><ele>311.0</ele><time>2026-04-26T09:54:25Z</time></trkpt><trkpt lat="45.74423209779715" lon="9.776129979846964"><ele>310.8</ele><time>2026-04-26T09:54:27Z</time></trkpt><trkpt lat="45.74416208717482" lon="9.775979359434789"><ele>310.6</ele><time>2026-04-26T09:54:29Z</time></trkpt><trkpt lat="45.74408198017588" lon="9.775834411071807"><ele>310.4</ele><time>2026-04-26T09:54:31Z</time></trkpt><trkpt lat="45.74404487322918" lon="9.775760039473395"><ele>310.2</ele><time>2026-04-26T09:54:32Z</time></trkpt><trkpt lat="45.743977320406216" lon="9.775615096143216"><ele>310.0</ele><time>2026-04-26T09:54:34Z</time></trkpt><trkpt lat="45.74391657724059" lon="9.77547736194873"><ele>310.0</ele><time>2026-04-26T09:54:36Z</time></trkpt><trkpt lat="45.74385594630811" lon="9.775340914939656"><ele>310.0</ele><time>2026-04-26T09:54:38Z</time></trkpt><trkpt lat="45.743793379196426" lon="9.775209743781954"><ele>310.0</ele><time>2026-04-26T09:54:40Z</time></trkpt><trkpt lat="45.743741183862355" lon="9.775077891048417"><ele>310.0</ele><time>2026-04-26T09:54:42Z</time></trkpt><trkpt lat="45.743628138113614" lon="9.775058738473463"><ele>310.0</ele><time>2026-04-26T09:54:44Z</time></trkpt><trkpt lat="45.74356833226018" lon="9.77511591857406"><ele>310.2</ele><time>2026-04-26T09:54:45Z</time></trkpt><trkpt lat="45.74351507202802" lon="9.775175521758273"><ele>310.4</ele><time>2026-04-26T09:54:46Z</time></trkpt><trkpt lat="45.74340262823044" lon="9.775251465370468"><ele>310.6</ele><time>2026-04-26T09:54:48Z</time></trkpt><trkpt lat="45.74328756562309" lon="9.775330086153287"><ele>310.8</ele><time>2026-04-26T09:54:50Z</time></trkpt><trkpt lat="45.74318100912709" lon="9.775405422082143"><ele>311.0</ele><time>2026-04-26T09:54:52Z</time></trkpt><trkpt lat="45.743091093231946" lon="9.775507294744964"><ele>311.0</ele><time>2026-04-26T09:54:54Z</time></trkpt><trkpt lat="45.74297963143569" lon="9.775574836045923"><ele>311.0</ele><time>2026-04-26T09:54:56Z</time></trkpt><trkpt lat="45.74287052617336" lon="9.77564814368762"><ele>311.0</ele><time>2026-04-26T09:54:58Z</time></trkpt><trkpt lat="45.74276137885031" lon="9.775711069363101"><ele>311.0</ele><time>2026-04-26T09:55:00Z</time></trkpt><trkpt lat="45.74264524258499" lon="9.775760899499131"><ele>312.25</ele><time>2026-04-26T09:55:02Z</time></trkpt><trkpt lat="45.74253474987468" lon="9.775812242722804"><ele>313.5</ele><time>2026-04-26T09:55:04Z</time></trkpt><trkpt lat="45.7424172104399" lon="9.775832537903462"><ele>314.75</ele><time>2026-04-26T09:55:06Z</time></trkpt><trkpt lat="45.74230418609523" lon="9.77585688127447"><ele>316.0</ele><time>2026-04-26T09:55:08Z</time></trkpt><trkpt lat="45.74222019812207" lon="9.775979664229148"><ele>317.25</ele><time>2026-04-26T09:55:10Z</time></trkpt><trkpt lat="45.74215438792314" lon="9.776108583767618"><ele>318.5</ele><time>2026-04-26T09:55:12Z</time></trkpt><trkpt lat="45.74208163292897" lon="9.776229133613546"><ele>319.75</ele><time>2026-04-26T09:55:14Z</time></trkpt><trkpt lat="45.7420066402853" lon="9.776350796262061"><ele>321.0</ele><time>2026-04-26T09:55:16Z</time></trkpt><trkpt lat="45.74192523430819" lon="9.776466828350136"><ele>323.0</ele><time>2026-04-26T09:55:18Z</time></trkpt><trkpt lat="45.7418412131293" lon="9.776589455469038"><ele>325.0</ele><time>2026-04-26T09:55:20Z</time></trkpt><trkpt lat="45.74175414725112" lon="9.776673851234941"><ele>327.0</ele><time>2026-04-26T09:55:22Z</time></trkpt><trkpt lat="45.74165755402037" lon="9.776699878525084"><ele>329.0</ele><time>2026-04-26T09:55:24Z</time></trkpt><trkpt lat="45.741559479313906" lon="9.776696458242435"><ele>331.0</ele><time>2026-04-26T09:55:26Z</time></trkpt><trkpt lat="45.74148145907357" lon="9.776608984695589"><ele>331.0</ele><time>2026-04-26T09:55:28Z</time></trkpt><trkpt lat="45.7414271323332" lon="9.776496199959073"><ele>331.0</ele><time>2026-04-26T09:55:30Z</time></trkpt><trkpt lat="45.741360431331785" lon="9.77638850318581"><ele>331.0</ele><time>2026-04-26T09:55:32Z</time></trkpt><trkpt lat="45.74129178844323" lon="9.776285711015275"><ele>331.0</ele><time>2026-04-26T09:55:34Z</time></trkpt><trkpt lat="45.74123943783162" lon="9.776183873071155"><ele>331.0</ele><time>2026-04-26T09:55:36Z</time></trkpt><trkpt lat="45.741187450064906" lon="9.776094004250385"><ele>330.4</ele><time>2026-04-26T09:55:38Z</time></trkpt><trkpt lat="45.741182374286865" lon="9.775980555628832"><ele>329.8</ele><time>2026-04-26T09:55:40Z</time></trkpt><trkpt lat="45.74126285168222" lon="9.77589720582643"><ele>329.2</ele><time>2026-04-26T09:55:42Z</time></trkpt><trkpt lat="45.74133603940974" lon="9.775807418536736"><ele>328.59999999999997</ele><time>2026-04-26T09:55:44Z</time></trkpt><trkpt lat="45.74141753289674" lon="9.775713250298525"><ele>328.0</ele><time>2026-04-26T09:55:46Z</time></trkpt><trkpt lat="45.74149262668374" lon="9.775634272593619"><ele>328.0</ele><time>2026-04-26T09:55:48Z</time></trkpt><trkpt lat="45.74146631996757" lon="9.775550033983736"><ele>328.0</ele><time>2026-04-26T09:55:50Z</time></trkpt><trkpt lat="45.74140216802637" lon="9.775450895776189"><ele>328.0</ele><time>2026-04-26T09:55:53Z</time></trkpt><trkpt lat="45.741347973565446" lon="9.775344381135085"><ele>328.0</ele><time>2026-04-26T09:55:55Z</time></trkpt><trkpt lat="45.741293257623035" lon="9.77524070533522"><ele>328.0</ele><time>2026-04-26T09:55:57Z</time></trkpt><trkpt lat="45.7412471400249" lon="9.775151873346301"><ele>328.0</ele><time>2026-04-26T09:55:59Z</time></trkpt><trkpt lat="45.74120570151366" lon="9.775078060470964"><ele>327.66666666666663</ele><time>2026-04-26T09:56:01Z</time></trkpt><trkpt lat="45.741231098209106" lon="9.77499379579755"><ele>327.3333333333333</ele><time>2026-04-26T09:56:14Z</time></trkpt><trkpt lat="45.74127917881283" lon="9.774910235829195"><ele>327.0</ele><time>2026-04-26T09:56:17Z</time></trkpt><trkpt lat="45.741340588646814" lon="9.774881838758269"><ele>326.6666666666667</ele><time>2026-04-26T09:56:20Z</time></trkpt><trkpt lat="45.74124348636402" lon="9.774940336488532"><ele>326.33333333333337</ele><time>2026-04-26T10:00:16Z</time></trkpt><trkpt lat="45.74118795278724" lon="9.775021864449355"><ele>326.0</ele><time>2026-04-26T10:00:19Z</time></trkpt><trkpt lat="45.74111906961367" lon="9.77500570381052"><ele>326.0</ele><time>2026-04-26T10:00:23Z</time></trkpt><trkpt lat="45.74109336012756" lon="9.774904470026726"><ele>326.0</ele><time>2026-04-26T10:00:25Z</time></trkpt><trkpt lat="45.74106230609309" lon="9.774808576948214"><ele>326.0</ele><time>2026-04-26T10:00:27Z</time></trkpt><trkpt lat="45.74101855758075" lon="9.774699956738074"><ele>326.0</ele><time>2026-04-26T10:00:29Z</time></trkpt><trkpt lat="45.74096508928585" lon="9.774592973337711"><ele>326.0</ele><time>2026-04-26T10:00:31Z</time></trkpt><trkpt lat="45.74091018013887" lon="9.77449614582069"><ele>326.0</ele><time>2026-04-26T10:00:33Z</time></trkpt><trkpt lat="45.740863313617226" lon="9.77442074809406"><ele>326.6</ele><time>2026-04-26T10:00:35Z</time></trkpt><trkpt lat="45.74083809578488" lon="9.77431455749735"><ele>327.20000000000005</ele><time>2026-04-26T10:00:40Z</time></trkpt><trkpt lat="45.74080246416745" lon="9.77419373373299"><ele>327.79999999999995</ele><time>2026-04-26T10:00:42Z</time></trkpt><trkpt lat="45.74071714557009" lon="9.774063805184879"><ele>328.4</ele><time>2026-04-26T10:00:44Z</time></trkpt><trkpt lat="45.74065642739112" lon="9.773931053619043"><ele>329.0</ele><time>2026-04-26T10:00:46Z</time></trkpt><trkpt lat="45.74057559913034" lon="9.773879426694817"><ele>329.0</ele><time>2026-04-26T10:00:48Z</time></trkpt><trkpt lat="45.740477169016096" lon="9.77389585150489"><ele>329.0</ele><time>2026-04-26T10:00:50Z</time></trkpt><trkpt lat="45.74035989155249" lon="9.773892846064273"><ele>329.0</ele><time>2026-04-26T10:00:52Z</time></trkpt><trkpt lat="45.74024119547728" lon="9.773914481200814"><ele>329.0</ele><time>2026-04-26T10:00:54Z</time></trkpt><trkpt lat="45.7401271513822" lon="9.77393657409567"><ele>330.2</ele><time>2026-04-26T10:00:56Z</time></trkpt><trkpt lat="45.740019452444415" lon="9.773981885231263"><ele>331.4</ele><time>2026-04-26T10:00:58Z</time></trkpt><trkpt lat="45.73991547188271" lon="9.774027534996126"><ele>332.6</ele><time>2026-04-26T10:01:00Z</time></trkpt><trkpt lat="45.73981017437291" lon="9.774067047592709"><ele>333.8</ele><time>2026-04-26T10:01:02Z</time></trkpt><trkpt lat="45.739712038538954" lon="9.77411746110613"><ele>335.0</ele><time>2026-04-26T10:01:04Z</time></trkpt><trkpt lat="45.73960921331123" lon="9.774153225026167"><ele>335.0</ele><time>2026-04-26T10:01:06Z</time></trkpt><trkpt lat="45.739515683161954" lon="9.77414219927196"><ele>335.0</ele><time>2026-04-26T10:01:08Z</time></trkpt><trkpt lat="45.73947384439385" lon="9.774032925050898"><ele>335.0</ele><time>2026-04-26T10:01:10Z</time></trkpt><trkpt lat="45.739501460702186" lon="9.773864918596464"><ele>335.0</ele><time>2026-04-26T10:01:12Z</time></trkpt><trkpt lat="45.73950959303123" lon="9.773771079887068"><ele>335.0</ele><time>2026-04-26T10:01:13Z</time></trkpt><trkpt lat="45.73951081705188" lon="9.773673204146387"><ele>335.0</ele><time>2026-04-26T10:01:14Z</time></trkpt><trkpt lat="45.739507450063186" lon="9.77357266226087"><ele>334.99999999999994</ele><time>2026-04-26T10:01:15Z</time></trkpt><trkpt lat="45.73950755379613" lon="9.773477536688603"><ele>335.0</ele><time>2026-04-26T10:01:16Z</time></trkpt><trkpt lat="45.73950741654867" lon="9.773378054243599"><ele>335.0</ele><time>2026-04-26T10:01:17Z</time></trkpt><trkpt lat="45.739504198878926" lon="9.773281625838058"><ele>335.0</ele><time>2026-04-26T10:01:18Z</time></trkpt><trkpt lat="45.73949476916282" lon="9.773184443527168"><ele>335.0</ele><time>2026-04-26T10:01:19Z</time></trkpt><trkpt lat="45.73949049087679" lon="9.773088325891424"><ele>334.99999999999994</ele><time>2026-04-26T10:01:20Z</time></trkpt><trkpt lat="45.739481520391564" lon="9.772996165365255"><ele>335.0</ele><time>2026-04-26T10:01:21Z</time></trkpt><trkpt lat="45.73946933300525" lon="9.772900855506762"><ele>334.99999999999994</ele><time>2026-04-26T10:01:22Z</time></trkpt><trkpt lat="45.73945905574573" lon="9.772808263928106"><ele>335.0</ele><time>2026-04-26T10:01:23Z</time></trkpt><trkpt lat="45.73944076792814" lon="9.772713662092228"><ele>335.0</ele><time>2026-04-26T10:01:24Z</time></trkpt><trkpt lat="45.73941959635418" lon="9.77262587608065"><ele>335.0</ele><time>2026-04-26T10:01:25Z</time></trkpt><trkpt lat="45.73939641009269" lon="9.772538777496843"><ele>335.0</ele><time>2026-04-26T10:01:26Z</time></trkpt><trkpt lat="45.73938154001248" lon="9.772445041712569"><ele>334.99999999999994</ele><time>2026-04-26T10:01:27Z</time></trkpt><trkpt lat="45.7393676504875" lon="9.77234660813155"><ele>335.0</ele><time>2026-04-26T10:01:28Z</time></trkpt><trkpt lat="45.73935277860064" lon="9.772243250530344"><ele>335.0</ele><time>2026-04-26T10:01:29Z</time></trkpt><trkpt lat="45.73932908729553" lon="9.772140071515992"><ele>335.0</ele><time>2026-04-26T10:01:30Z</time></trkpt><trkpt lat="45.73931082522797" lon="9.772032803337757"><ele>335.0</ele><time>2026-04-26T10:01:31Z</time></trkpt><trkpt lat="45.739291160115435" lon="9.77191988488165"><ele>335.0</ele><time>2026-04-26T10:01:32Z</time></trkpt><trkpt lat="45.739269041773035" lon="9.771798447007347"><ele>335.0</ele><time>2026-04-26T10:01:33Z</time></trkpt><trkpt lat="45.73924592120417" lon="9.771673791885153"><ele>335.0</ele><time>2026-04-26T10:01:34Z</time></trkpt><trkpt lat="45.73922104862586" lon="9.771546843135818"><ele>335.0</ele><time>2026-04-26T10:01:35Z</time></trkpt><trkpt lat="45.73919617221836" lon="9.7714079263283"><ele>335.0</ele><time>2026-04-26T10:01:36Z</time></trkpt><trkpt lat="45.73916041629177" lon="9.771273227413518"><ele>335.0</ele><time>2026-04-26T10:01:37Z</time></trkpt><trkpt lat="45.73911967776139" lon="9.771138556006692"><ele>335.0</ele><time>2026-04-26T10:01:38Z</time></trkpt><trkpt lat="45.739073039739914" lon="9.770997710423524"><ele>335.0</ele><time>2026-04-26T10:01:39Z</time></trkpt><trkpt lat="45.739026573677116" lon="9.770856547781566"><ele>334.0</ele><time>2026-04-26T10:01:40Z</time></trkpt><trkpt lat="45.73898835634307" lon="9.770709526159155"><ele>333.0</ele><time>2026-04-26T10:01:41Z</time></trkpt><trkpt lat="45.73896321798031" lon="9.77056017859484"><ele>332.0</ele><time>2026-04-26T10:01:42Z</time></trkpt><trkpt lat="45.7389602810879" lon="9.770409758323977"><ele>331.0</ele><time>2026-04-26T10:01:43Z</time></trkpt><trkpt lat="45.738975440641845" lon="9.770256230610062"><ele>330.0</ele><time>2026-04-26T10:01:44Z</time></trkpt><trkpt lat="45.73900606136589" lon="9.770108104327585"><ele>328.0</ele><time>2026-04-26T10:01:45Z</time></trkpt><trkpt lat="45.73904044261951" lon="9.76996242377822"><ele>326.0</ele><time>2026-04-26T10:01:46Z</time></trkpt><trkpt lat="45.739068726897884" lon="9.769821037150699"><ele>324.0</ele><time>2026-04-26T10:01:47Z</time></trkpt><trkpt lat="45.7390934210419" lon="9.769682231470357"><ele>322.0</ele><time>2026-04-26T10:01:48Z</time></trkpt><trkpt lat="45.73911090060105" lon="9.769547491329208"><ele>320.0</ele><time>2026-04-26T10:01:49Z</time></trkpt><trkpt lat="45.73911821620356" lon="9.769406513343876"><ele>319.2</ele><time>2026-04-26T10:01:50Z</time></trkpt><trkpt lat="45.73911506852025" lon="9.76925931465132"><ele>318.4</ele><time>2026-04-26T10:01:51Z</time></trkpt><trkpt lat="45.73910094590287" lon="9.769118919415673"><ele>317.6</ele><time>2026-04-26T10:01:52Z</time></trkpt><trkpt lat="45.73908335905297" lon="9.768979055765888"><ele>316.8</ele><time>2026-04-26T10:01:53Z</time></trkpt><trkpt lat="45.73906113174926" lon="9.768844883061849"><ele>316.0</ele><time>2026-04-26T10:01:54Z</time></trkpt><trkpt lat="45.73903142653958" lon="9.768712049545334"><ele>316.0</ele><time>2026-04-26T10:01:55Z</time></trkpt><trkpt lat="45.73899737941074" lon="9.768579586764265"><ele>316.0</ele><time>2026-04-26T10:01:56Z</time></trkpt><trkpt lat="45.73897405740739" lon="9.768446779771732"><ele>316.0</ele><time>2026-04-26T10:01:57Z</time></trkpt><trkpt lat="45.73896766677166" lon="9.768309014077417"><ele>316.0</ele><time>2026-04-26T10:01:58Z</time></trkpt><trkpt lat="45.73897184355426" lon="9.768182570554924"><ele>316.0</ele><time>2026-04-26T10:01:59Z</time></trkpt><trkpt lat="45.73898705024638" lon="9.7680682815781"><ele>315.16666666666663</ele><time>2026-04-26T10:02:00Z</time></trkpt><trkpt lat="45.73901107140701" lon="9.767980144447437"><ele>314.3333333333333</ele><time>2026-04-26T10:02:01Z</time></trkpt><trkpt lat="45.739065982494466" lon="9.76782865388221"><ele>313.5</ele><time>2026-04-26T10:02:03Z</time></trkpt><trkpt lat="45.73911981812154" lon="9.767709373685493"><ele>312.6666666666667</ele><time>2026-04-26T10:02:05Z</time></trkpt><trkpt lat="45.73912210919177" lon="9.767605364706753"><ele>311.83333333333337</ele><time>2026-04-26T10:02:06Z</time></trkpt><trkpt lat="45.73911553538637" lon="9.767503928315763"><ele>311.0</ele><time>2026-04-26T10:02:07Z</time></trkpt><trkpt lat="45.73911758032149" lon="9.767401264115165"><ele>309.83333333333337</ele><time>2026-04-26T10:02:08Z</time></trkpt><trkpt lat="45.73913226767221" lon="9.767295267179916"><ele>308.6666666666667</ele><time>2026-04-26T10:02:09Z</time></trkpt><trkpt lat="45.73914678308206" lon="9.767185739303963"><ele>307.5</ele><time>2026-04-26T10:02:10Z</time></trkpt><trkpt lat="45.73914513962993" lon="9.767077617939872"><ele>306.3333333333333</ele><time>2026-04-26T10:02:11Z</time></trkpt><trkpt lat="45.73912569974632" lon="9.766970115574145"><ele>305.16666666666663</ele><time>2026-04-26T10:02:12Z</time></trkpt><trkpt lat="45.739097921085396" lon="9.766866161606425"><ele>304.0</ele><time>2026-04-26T10:02:13Z</time></trkpt><trkpt lat="45.739065308678136" lon="9.766768706837905"><ele>303.57142857142856</ele><time>2026-04-26T10:02:14Z</time></trkpt><trkpt lat="45.7390308811075" lon="9.76667814223488"><ele>303.14285714285717</ele><time>2026-04-26T10:02:15Z</time></trkpt><trkpt lat="45.73899795044149" lon="9.76659515234354"><ele>302.7142857142857</ele><time>2026-04-26T10:02:16Z</time></trkpt><trkpt lat="45.738966543113534" lon="9.766512219140196"><ele>302.2857142857143</ele><time>2026-04-26T10:02:17Z</time></trkpt><trkpt lat="45.73893891580455" lon="9.766424198817047"><ele>301.8571428571429</ele><time>2026-04-26T10:02:18Z</time></trkpt><trkpt lat="45.738911456409234" lon="9.766337220841343"><ele>301.42857142857144</ele><time>2026-04-26T10:02:19Z</time></trkpt><trkpt lat="45.73888275111261" lon="9.766252925778673"><ele>301.0</ele><time>2026-04-26T10:02:20Z</time></trkpt><trkpt lat="45.73884961185491" lon="9.766169480871199"><ele>301.0</ele><time>2026-04-26T10:02:21Z</time></trkpt><trkpt lat="45.73882223720641" lon="9.766087227235822"><ele>301.0</ele><time>2026-04-26T10:02:22Z</time></trkpt><trkpt lat="45.73879132062119" lon="9.766001267923635"><ele>301.0</ele><time>2026-04-26T10:02:23Z</time></trkpt><trkpt lat="45.73876984945444" lon="9.765908956427664"><ele>301.0</ele><time>2026-04-26T10:02:24Z</time></trkpt><trkpt lat="45.73874780013482" lon="9.765815125924767"><ele>301.0</ele><time>2026-04-26T10:02:25Z</time></trkpt><trkpt lat="45.738725587360506" lon="9.76572649761101"><ele>301.0</ele><time>2026-04-26T10:02:26Z</time></trkpt><trkpt lat="45.73870242185123" lon="9.76563909233118"><ele>301.0</ele><time>2026-04-26T10:02:27Z</time></trkpt><trkpt lat="45.73867923277141" lon="9.765554974769884"><ele>300.7142857142857</ele><time>2026-04-26T10:02:28Z</time></trkpt><trkpt lat="45.73864533056194" lon="9.765476379389082"><ele>300.42857142857144</ele><time>2026-04-26T10:02:29Z</time></trkpt><trkpt lat="45.738615602966924" lon="9.765393184215265"><ele>300.1428571428571</ele><time>2026-04-26T10:02:30Z</time></trkpt><trkpt lat="45.738589312659116" lon="9.765305061890093"><ele>299.8571428571429</ele><time>2026-04-26T10:02:31Z</time></trkpt><trkpt lat="45.73856383865248" lon="9.765217102060799"><ele>299.57142857142856</ele><time>2026-04-26T10:02:32Z</time></trkpt><trkpt lat="45.73853162272323" lon="9.765132549907564"><ele>299.2857142857143</ele><time>2026-04-26T10:02:33Z</time></trkpt><trkpt lat="45.73850224954425" lon="9.765046038220776"><ele>299.0</ele><time>2026-04-26T10:02:34Z</time></trkpt><trkpt lat="45.73847151556449" lon="9.764962248669352"><ele>299.0</ele><time>2026-04-26T10:02:35Z</time></trkpt><trkpt lat="45.73844245397978" lon="9.764882126800481"><ele>299.0</ele><time>2026-04-26T10:02:36Z</time></trkpt><trkpt lat="45.73842244156444" lon="9.764793693284275"><ele>299.0</ele><time>2026-04-26T10:02:37Z</time></trkpt><trkpt lat="45.73838198138479" lon="9.764621939913454"><ele>299.0</ele><time>2026-04-26T10:02:39Z</time></trkpt><trkpt lat="45.7383415366832" lon="9.764442878352106"><ele>299.0</ele><time>2026-04-26T10:02:41Z</time></trkpt><trkpt lat="45.73832388619021" lon="9.764349683896969"><ele>299.0</ele><time>2026-04-26T10:02:42Z</time></trkpt><trkpt lat="45.738299672172516" lon="9.76425837367555"><ele>299.0</ele><time>2026-04-26T10:02:43Z</time></trkpt><trkpt lat="45.73827476402321" lon="9.764167359155467"><ele>299.0</ele><time>2026-04-26T10:02:44Z</time></trkpt><trkpt lat="45.73824502171676" lon="9.764074890281588"><ele>299.0</ele><time>2026-04-26T10:02:45Z</time></trkpt><trkpt lat="45.73820719013911" lon="9.763976542621482"><ele>299.0</ele><time>2026-04-26T10:02:46Z</time></trkpt><trkpt lat="45.738177502800006" lon="9.763880974263783"><ele>299.0</ele><time>2026-04-26T10:02:47Z</time></trkpt><trkpt lat="45.738144674010094" lon="9.763788888824797"><ele>299.0</ele><time>2026-04-26T10:02:48Z</time></trkpt><trkpt lat="45.73811022380905" lon="9.763701179760343"><ele>299.0</ele><time>2026-04-26T10:02:49Z</time></trkpt><trkpt lat="45.73807950254041" lon="9.763611825325519"><ele>299.0</ele><time>2026-04-26T10:02:50Z</time></trkpt><trkpt lat="45.73804768908123" lon="9.763527790772407"><ele>299.0</ele><time>2026-04-26T10:02:51Z</time></trkpt><trkpt lat="45.73801658268319" lon="9.76344039252593"><ele>299.0</ele><time>2026-04-26T10:02:52Z</time></trkpt><trkpt lat="45.73798670175795" lon="9.763357273168577"><ele>299.0</ele><time>2026-04-26T10:02:53Z</time></trkpt><trkpt lat="45.73795475232469" lon="9.763272394150421"><ele>299.0</ele><time>2026-04-26T10:02:54Z</time></trkpt><trkpt lat="45.737924360061214" lon="9.763190718568682"><ele>299.0</ele><time>2026-04-26T10:02:55Z</time></trkpt><trkpt lat="45.7378951055616" lon="9.763108549450912"><ele>298.1666666666667</ele><time>2026-04-26T10:02:56Z</time></trkpt><trkpt lat="45.73786714689308" lon="9.763023650510847"><ele>297.33333333333337</ele><time>2026-04-26T10:02:57Z</time></trkpt><trkpt lat="45.7378464002336" lon="9.7629318437846"><ele>296.5</ele><time>2026-04-26T10:02:58Z</time></trkpt><trkpt lat="45.7378107842156" lon="9.762748946267319"><ele>295.6666666666667</ele><time>2026-04-26T10:03:00Z</time></trkpt><trkpt lat="45.7377973753352" lon="9.762658041899885"><ele>294.8333333333333</ele><time>2026-04-26T10:03:01Z</time></trkpt><trkpt lat="45.73778845874948" lon="9.762557976114557"><ele>294.0</ele><time>2026-04-26T10:03:02Z</time></trkpt><trkpt lat="45.73778026308595" lon="9.762461203309588"><ele>293.7142857142857</ele><time>2026-04-26T10:03:03Z</time></trkpt><trkpt lat="45.73777555811825" lon="9.762362381150771"><ele>293.42857142857144</ele><time>2026-04-26T10:03:04Z</time></trkpt><trkpt lat="45.73777194628975" lon="9.762264209838664"><ele>293.1428571428571</ele><time>2026-04-26T10:03:05Z</time></trkpt><trkpt lat="45.73777251062197" lon="9.762161998790564"><ele>292.8571428571429</ele><time>2026-04-26T10:03:06Z</time></trkpt><trkpt lat="45.737778196454705" lon="9.762060220966136"><ele>292.57142857142856</ele><time>2026-04-26T10:03:07Z</time></trkpt><trkpt lat="45.73777864705868" lon="9.761958167050992"><ele>292.2857142857143</ele><time>2026-04-26T10:03:08Z</time></trkpt><trkpt lat="45.73777958406399" lon="9.76185595410749"><ele>292.0</ele><time>2026-04-26T10:03:09Z</time></trkpt><trkpt lat="45.737782013579604" lon="9.761753223117656"><ele>292.0</ele><time>2026-04-26T10:03:10Z</time></trkpt><trkpt lat="45.73778047590939" lon="9.761650173625704"><ele>292.0</ele><time>2026-04-26T10:03:11Z</time></trkpt><trkpt lat="45.737779670185205" lon="9.76155015004188"><ele>292.0</ele><time>2026-04-26T10:03:12Z</time></trkpt><trkpt lat="45.73777571544289" lon="9.761449651139268"><ele>292.0</ele><time>2026-04-26T10:03:13Z</time></trkpt><trkpt lat="45.73776773209282" lon="9.761350493990319"><ele>292.0</ele><time>2026-04-26T10:03:14Z</time></trkpt><trkpt lat="45.73775684073373" lon="9.761253561556277"><ele>292.0</ele><time>2026-04-26T10:03:15Z</time></trkpt><trkpt lat="45.73774454171709" lon="9.761159077630776"><ele>292.0</ele><time>2026-04-26T10:03:16Z</time></trkpt><trkpt lat="45.73773329118643" lon="9.761063028671135"><ele>292.0</ele><time>2026-04-26T10:03:17Z</time></trkpt><trkpt lat="45.73772009498421" lon="9.760969983924475"><ele>292.0</ele><time>2026-04-26T10:03:18Z</time></trkpt><trkpt lat="45.7377077554438" lon="9.760876320355171"><ele>292.0</ele><time>2026-04-26T10:03:19Z</time></trkpt><trkpt lat="45.737690278805175" lon="9.760785299853342"><ele>292.0</ele><time>2026-04-26T10:03:20Z</time></trkpt><trkpt lat="45.737673864263044" lon="9.760693050551366"><ele>292.0</ele><time>2026-04-26T10:03:21Z</time></trkpt><trkpt lat="45.737655663205175" lon="9.760601465894432"><ele>292.0</ele><time>2026-04-26T10:03:22Z</time></trkpt><trkpt lat="45.73763891426622" lon="9.76050935060934"><ele>292.0</ele><time>2026-04-26T10:03:23Z</time></trkpt><trkpt lat="45.737617414250025" lon="9.760422930831671"><ele>292.7142857142857</ele><time>2026-04-26T10:03:24Z</time></trkpt><trkpt lat="45.737593818583136" lon="9.760333715466924"><ele>293.42857142857144</ele><time>2026-04-26T10:03:25Z</time></trkpt><trkpt lat="45.73756731435145" lon="9.760243399054543"><ele>294.14285714285717</ele><time>2026-04-26T10:03:26Z</time></trkpt><trkpt lat="45.73754280346002" lon="9.760152714308346"><ele>294.8571428571429</ele><time>2026-04-26T10:03:27Z</time></trkpt><trkpt lat="45.737521254275435" lon="9.760062186651284"><ele>295.5714285714286</ele><time>2026-04-26T10:03:28Z</time></trkpt><trkpt lat="45.73749528988883" lon="9.759973477613793"><ele>296.2857142857143</ele><time>2026-04-26T10:03:29Z</time></trkpt><trkpt lat="45.7374707272665" lon="9.759886336991292"><ele>297.0</ele><time>2026-04-26T10:03:30Z</time></trkpt><trkpt lat="45.73744623869815" lon="9.759800036424208"><ele>297.0</ele><time>2026-04-26T10:03:31Z</time></trkpt><trkpt lat="45.73742225488989" lon="9.759712836630552"><ele>297.0</ele><time>2026-04-26T10:03:32Z</time></trkpt><trkpt lat="45.73739681265584" lon="9.759625579514799"><ele>297.0</ele><time>2026-04-26T10:03:33Z</time></trkpt><trkpt lat="45.737367734791626" lon="9.759539733190136"><ele>297.0</ele><time>2026-04-26T10:03:34Z</time></trkpt><trkpt lat="45.73734257389883" lon="9.75945436770687"><ele>297.0</ele><time>2026-04-26T10:03:35Z</time></trkpt><trkpt lat="45.73731961772422" lon="9.759368338392596"><ele>297.0</ele><time>2026-04-26T10:03:36Z</time></trkpt><trkpt lat="45.737293788931694" lon="9.759280131211659"><ele>297.0</ele><time>2026-04-26T10:03:37Z</time></trkpt><trkpt lat="45.737266435429895" lon="9.759196648477687"><ele>296.57142857142856</ele><time>2026-04-26T10:03:38Z</time></trkpt><trkpt lat="45.73723947937383" lon="9.759111330123522"><ele>296.14285714285717</ele><time>2026-04-26T10:03:39Z</time></trkpt><trkpt lat="45.737213342507175" lon="9.759027434300913"><ele>295.7142857142857</ele><time>2026-04-26T10:03:40Z</time></trkpt><trkpt lat="45.73718044080176" lon="9.75894628838451"><ele>295.2857142857143</ele><time>2026-04-26T10:03:41Z</time></trkpt><trkpt lat="45.73714561793977" lon="9.758867863654507"><ele>294.8571428571429</ele><time>2026-04-26T10:03:42Z</time></trkpt><trkpt lat="45.73710948091595" lon="9.758790741884466"><ele>294.42857142857144</ele><time>2026-04-26T10:03:43Z</time></trkpt><trkpt lat="45.73707359620345" lon="9.75871373413369"><ele>294.0</ele><time>2026-04-26T10:03:44Z</time></trkpt><trkpt lat="45.7370378499681" lon="9.758636366855821"><ele>294.0</ele><time>2026-04-26T10:03:45Z</time></trkpt><trkpt lat="45.73700004640076" lon="9.758560530521136"><ele>294.0</ele><time>2026-04-26T10:03:46Z</time></trkpt><trkpt lat="45.73696407104746" lon="9.758483375085424"><ele>294.0</ele><time>2026-04-26T10:03:47Z</time></trkpt><trkpt lat="45.73692801402718" lon="9.758405401999676"><ele>294.0</ele><time>2026-04-26T10:03:48Z</time></trkpt><trkpt lat="45.736895043868294" lon="9.758328139719264"><ele>294.0</ele><time>2026-04-26T10:03:49Z</time></trkpt><trkpt lat="45.73685749701567" lon="9.758250416805954"><ele>294.0</ele><time>2026-04-26T10:03:50Z</time></trkpt><trkpt lat="45.736823229377066" lon="9.758173027583581"><ele>294.0</ele><time>2026-04-26T10:03:51Z</time></trkpt><trkpt lat="45.73678935355638" lon="9.758094363012107"><ele>294.2857142857143</ele><time>2026-04-26T10:03:52Z</time></trkpt><trkpt lat="45.736755448903224" lon="9.758018001007018"><ele>294.57142857142856</ele><time>2026-04-26T10:03:53Z</time></trkpt><trkpt lat="45.73671845843098" lon="9.75794304738565"><ele>294.8571428571429</ele><time>2026-04-26T10:03:54Z</time></trkpt><trkpt lat="45.736680938681346" lon="9.757868710143054"><ele>295.1428571428571</ele><time>2026-04-26T10:03:55Z</time></trkpt><trkpt lat="45.736648167100114" lon="9.757787963468974"><ele>295.42857142857144</ele><time>2026-04-26T10:03:56Z</time></trkpt><trkpt lat="45.736611110530525" lon="9.757711631035033"><ele>295.7142857142857</ele><time>2026-04-26T10:03:57Z</time></trkpt><trkpt lat="45.736570969564454" lon="9.757635263512986"><ele>296.0</ele><time>2026-04-26T10:03:58Z</time></trkpt><trkpt lat="45.73652786482852" lon="9.757564761592958"><ele>296.0</ele><time>2026-04-26T10:03:59Z</time></trkpt><trkpt lat="45.736486169281314" lon="9.757492854935718"><ele>296.0</ele><time>2026-04-26T10:04:00Z</time></trkpt><trkpt lat="45.73644094007862" lon="9.757427402350398"><ele>296.0</ele><time>2026-04-26T10:04:01Z</time></trkpt><trkpt lat="45.73639334272546" lon="9.757365102200145"><ele>296.0</ele><time>2026-04-26T10:04:02Z</time></trkpt><trkpt lat="45.73634708358709" lon="9.75730010055885"><ele>296.0</ele><time>2026-04-26T10:04:03Z</time></trkpt><trkpt lat="45.73629329864873" lon="9.757248021350016"><ele>296.0</ele><time>2026-04-26T10:04:04Z</time></trkpt><trkpt lat="45.73617166193937" lon="9.757221866373985"><ele>296.0</ele><time>2026-04-26T10:04:06Z</time></trkpt><trkpt lat="45.73611431193243" lon="9.757268218272928"><ele>297.2</ele><time>2026-04-26T10:04:07Z</time></trkpt><trkpt lat="45.73604579605387" lon="9.75728790668974"><ele>298.40000000000003</ele><time>2026-04-26T10:04:08Z</time></trkpt><trkpt lat="45.73592580497232" lon="9.757236145665088"><ele>299.6</ele><time>2026-04-26T10:04:10Z</time></trkpt><trkpt lat="45.73586394222672" lon="9.757213303567612"><ele>300.8</ele><time>2026-04-26T10:04:11Z</time></trkpt><trkpt lat="45.73574194154631" lon="9.75719304607153"><ele>302.0</ele><time>2026-04-26T10:04:13Z</time></trkpt><trkpt lat="45.7356153456078" lon="9.75720327054411"><ele>302.0</ele><time>2026-04-26T10:04:15Z</time></trkpt><trkpt lat="45.73549003703149" lon="9.75721163036169"><ele>302.0</ele><time>2026-04-26T10:04:17Z</time></trkpt><trkpt lat="45.73536515294328" lon="9.757217345854238"><ele>302.0</ele><time>2026-04-26T10:04:19Z</time></trkpt><trkpt lat="45.735300415293715" lon="9.757221949626986"><ele>302.0</ele><time>2026-04-26T10:04:20Z</time></trkpt><trkpt lat="45.73517747485594" lon="9.75723475412943"><ele>302.0</ele><time>2026-04-26T10:04:22Z</time></trkpt><trkpt lat="45.73505225003303" lon="9.757244590350531"><ele>303.0</ele><time>2026-04-26T10:04:24Z</time></trkpt><trkpt lat="45.73492784260039" lon="9.75725052230576"><ele>304.0</ele><time>2026-04-26T10:04:26Z</time></trkpt><trkpt lat="45.73486438068712" lon="9.757253825299538"><ele>305.0</ele><time>2026-04-26T10:04:27Z</time></trkpt><trkpt lat="45.734802102111175" lon="9.757267746643652"><ele>306.0</ele><time>2026-04-26T10:04:28Z</time></trkpt><trkpt lat="45.73468253936027" lon="9.75729662210521"><ele>307.0</ele><time>2026-04-26T10:04:30Z</time></trkpt><trkpt lat="45.73455850642795" lon="9.757293774100962"><ele>307.0</ele><time>2026-04-26T10:04:32Z</time></trkpt><trkpt lat="45.7344930244991" lon="9.757294712490888"><ele>307.0</ele><time>2026-04-26T10:04:33Z</time></trkpt><trkpt lat="45.73436896653723" lon="9.75731487512398"><ele>307.0</ele><time>2026-04-26T10:04:35Z</time></trkpt><trkpt lat="45.73425013213961" lon="9.75734797862555"><ele>307.0</ele><time>2026-04-26T10:04:37Z</time></trkpt><trkpt lat="45.734130641873776" lon="9.757398340194724"><ele>307.0</ele><time>2026-04-26T10:04:39Z</time></trkpt><trkpt lat="45.73407222377924" lon="9.757435388849371"><ele>306.99999999999994</ele><time>2026-04-26T10:04:40Z</time></trkpt><trkpt lat="45.73401733906792" lon="9.757481059912234"><ele>307.0</ele><time>2026-04-26T10:04:41Z</time></trkpt><trkpt lat="45.733959071642495" lon="9.757525862852408"><ele>307.0</ele><time>2026-04-26T10:04:42Z</time></trkpt><trkpt lat="45.73389862395192" lon="9.75756349758222"><ele>307.0</ele><time>2026-04-26T10:04:43Z</time></trkpt><trkpt lat="45.7338368732543" lon="9.757603696951485"><ele>307.0</ele><time>2026-04-26T10:04:44Z</time></trkpt><trkpt lat="45.73377669856484" lon="9.757644175199571"><ele>306.99999999999994</ele><time>2026-04-26T10:04:45Z</time></trkpt><trkpt lat="45.73371323740618" lon="9.757673786457644"><ele>307.0</ele><time>2026-04-26T10:04:46Z</time></trkpt><trkpt lat="45.73364417015551" lon="9.757699196355244"><ele>306.85714285714283</ele><time>2026-04-26T10:04:47Z</time></trkpt><trkpt lat="45.73357881458246" lon="9.757723570393146"><ele>306.7142857142857</ele><time>2026-04-26T10:04:48Z</time></trkpt><trkpt lat="45.733512607762485" lon="9.757753069047117"><ele>306.57142857142856</ele><time>2026-04-26T10:04:49Z</time></trkpt><trkpt lat="45.73344677911187" lon="9.757784892844219"><ele>306.42857142857144</ele><time>2026-04-26T10:04:50Z</time></trkpt><trkpt lat="45.73338247553394" lon="9.757815349392194"><ele>306.2857142857143</ele><time>2026-04-26T10:04:51Z</time></trkpt><trkpt lat="45.73331983471898" lon="9.757851302016212"><ele>306.1428571428571</ele><time>2026-04-26T10:04:52Z</time></trkpt><trkpt lat="45.73325772149349" lon="9.75788958936686"><ele>306.0</ele><time>2026-04-26T10:04:53Z</time></trkpt><trkpt lat="45.73319654830539" lon="9.75793273206033"><ele>306.0</ele><time>2026-04-26T10:04:54Z</time></trkpt><trkpt lat="45.733138414254526" lon="9.75797472775439"><ele>306.0</ele><time>2026-04-26T10:04:55Z</time></trkpt><trkpt lat="45.73308211012424" lon="9.758024263033231"><ele>306.0</ele><time>2026-04-26T10:04:56Z</time></trkpt><trkpt lat="45.73301981994808" lon="9.758066564076747"><ele>306.0</ele><time>2026-04-26T10:04:57Z</time></trkpt><trkpt lat="45.73296396150956" lon="9.758108302238805"><ele>306.0</ele><time>2026-04-26T10:04:58Z</time></trkpt><trkpt lat="45.732904311522454" lon="9.758150731996611"><ele>306.0</ele><time>2026-04-26T10:04:59Z</time></trkpt><trkpt lat="45.73284477960994" lon="9.758201772100495"><ele>306.0</ele><time>2026-04-26T10:05:00Z</time></trkpt><trkpt lat="45.73278632118291" lon="9.758243198684996"><ele>306.0</ele><time>2026-04-26T10:05:01Z</time></trkpt><trkpt lat="45.732728782497425" lon="9.758284835064817"><ele>306.0</ele><time>2026-04-26T10:05:02Z</time></trkpt><trkpt lat="45.732610422854854" lon="9.758357652959486"><ele>306.0</ele><time>2026-04-26T10:05:04Z</time></trkpt><trkpt lat="45.732492686533476" lon="9.758429345506263"><ele>306.0</ele><time>2026-04-26T10:05:06Z</time></trkpt><trkpt lat="45.73243015657059" lon="9.758453230424978"><ele>306.0</ele><time>2026-04-26T10:05:07Z</time></trkpt><trkpt lat="45.732366971496056" lon="9.758479449713551"><ele>306.1428571428571</ele><time>2026-04-26T10:05:08Z</time></trkpt><trkpt lat="45.73230716602612" lon="9.758509362494536"><ele>306.2857142857143</ele><time>2026-04-26T10:05:09Z</time></trkpt><trkpt lat="45.73224711997841" lon="9.758543024211946"><ele>306.42857142857144</ele><time>2026-04-26T10:05:10Z</time></trkpt><trkpt lat="45.7321848602182" lon="9.758570501693825"><ele>306.57142857142856</ele><time>2026-04-26T10:05:11Z</time></trkpt><trkpt lat="45.732123650144324" lon="9.758595423153178"><ele>306.7142857142857</ele><time>2026-04-26T10:05:12Z</time></trkpt><trkpt lat="45.73206288276442" lon="9.75862517792015"><ele>306.85714285714283</ele><time>2026-04-26T10:05:13Z</time></trkpt><trkpt lat="45.73199958767102" lon="9.758648067562897"><ele>307.0</ele><time>2026-04-26T10:05:14Z</time></trkpt><trkpt lat="45.731874918366394" lon="9.75868829490474"><ele>306.99999999999994</ele><time>2026-04-26T10:05:16Z</time></trkpt><trkpt lat="45.73181226096525" lon="9.758704651178899"><ele>307.0</ele><time>2026-04-26T10:05:17Z</time></trkpt><trkpt lat="45.7317481156477" lon="9.758724601164161"><ele>307.0</ele><time>2026-04-26T10:05:18Z</time></trkpt><trkpt lat="45.731680573081015" lon="9.758738968358534"><ele>307.0</ele><time>2026-04-26T10:05:19Z</time></trkpt><trkpt lat="45.731614606663086" lon="9.758749644388425"><ele>307.0</ele><time>2026-04-26T10:05:20Z</time></trkpt><trkpt lat="45.7315490478719" lon="9.758757577368955"><ele>306.99999999999994</ele><time>2026-04-26T10:05:21Z</time></trkpt><trkpt lat="45.731483065023546" lon="9.758768571356926"><ele>307.0</ele><time>2026-04-26T10:05:22Z</time></trkpt><trkpt lat="45.73142009102751" lon="9.758779491911659"><ele>307.0</ele><time>2026-04-26T10:05:23Z</time></trkpt><trkpt lat="45.731299703216216" lon="9.758799446826158"><ele>307.0</ele><time>2026-04-26T10:05:25Z</time></trkpt><trkpt lat="45.731180334907286" lon="9.758824998050443"><ele>307.0</ele><time>2026-04-26T10:05:27Z</time></trkpt><trkpt lat="45.73106130790099" lon="9.7588718651626"><ele>307.0</ele><time>2026-04-26T10:05:29Z</time></trkpt><trkpt lat="45.73094981425244" lon="9.758940449062187"><ele>306.75</ele><time>2026-04-26T10:05:31Z</time></trkpt><trkpt lat="45.73084339846406" lon="9.759014668466858"><ele>306.5</ele><time>2026-04-26T10:05:33Z</time></trkpt><trkpt lat="45.73073863380855" lon="9.759098682684948"><ele>306.25</ele><time>2026-04-26T10:05:35Z</time></trkpt><trkpt lat="45.73062278210676" lon="9.759162042749383"><ele>306.0</ele><time>2026-04-26T10:05:37Z</time></trkpt><trkpt lat="45.73050214357288" lon="9.759204338118662"><ele>306.0</ele><time>2026-04-26T10:05:39Z</time></trkpt><trkpt lat="45.73044004917329" lon="9.75921927945692"><ele>306.0</ele><time>2026-04-26T10:05:40Z</time></trkpt><trkpt lat="45.73031741022366" lon="9.759241392029251"><ele>306.0</ele><time>2026-04-26T10:05:42Z</time></trkpt><trkpt lat="45.73019543258902" lon="9.759253696734804"><ele>306.0</ele><time>2026-04-26T10:05:44Z</time></trkpt><trkpt lat="45.73007126801768" lon="9.759271336573878"><ele>306.0</ele><time>2026-04-26T10:05:46Z</time></trkpt><trkpt lat="45.73000710094199" lon="9.759274684386858"><ele>306.0</ele><time>2026-04-26T10:05:47Z</time></trkpt><trkpt lat="45.72994313928372" lon="9.759279798862828"><ele>306.0</ele><time>2026-04-26T10:05:48Z</time></trkpt><trkpt lat="45.72987945800163" lon="9.759284264884334"><ele>306.0</ele><time>2026-04-26T10:05:49Z</time></trkpt><trkpt lat="45.72981372574052" lon="9.759290720945877"><ele>306.0</ele><time>2026-04-26T10:05:50Z</time></trkpt><trkpt lat="45.7296877945938" lon="9.759296656419485"><ele>306.0</ele><time>2026-04-26T10:05:52Z</time></trkpt><trkpt lat="45.72956107470527" lon="9.759299054077601"><ele>306.0</ele><time>2026-04-26T10:05:54Z</time></trkpt><trkpt lat="45.729496398181965" lon="9.759302796757602"><ele>305.85714285714283</ele><time>2026-04-26T10:05:55Z</time></trkpt><trkpt lat="45.72937069133869" lon="9.759306343421661"><ele>305.7142857142857</ele><time>2026-04-26T10:05:57Z</time></trkpt><trkpt lat="45.72930512297031" lon="9.759312818801034"><ele>305.57142857142856</ele><time>2026-04-26T10:05:58Z</time></trkpt><trkpt lat="45.729241707462606" lon="9.759325353514354"><ele>305.42857142857144</ele><time>2026-04-26T10:05:59Z</time></trkpt><trkpt lat="45.72917819096881" lon="9.759338789629656"><ele>305.2857142857143</ele><time>2026-04-26T10:06:00Z</time></trkpt><trkpt lat="45.72911355625526" lon="9.759349557053683"><ele>305.14285714285717</ele><time>2026-04-26T10:06:01Z</time></trkpt><trkpt lat="45.729049536534006" lon="9.75936142499305"><ele>305.0</ele><time>2026-04-26T10:06:02Z</time></trkpt><trkpt lat="45.72898668937788" lon="9.759376094581704"><ele>306.0</ele><time>2026-04-26T10:06:03Z</time></trkpt><trkpt lat="45.72886536917558" lon="9.759421859024744"><ele>307.0</ele><time>2026-04-26T10:06:05Z</time></trkpt><trkpt lat="45.72874524944278" lon="9.759488235174565"><ele>308.0</ele><time>2026-04-26T10:06:07Z</time></trkpt><trkpt lat="45.728626504293906" lon="9.75955252949561"><ele>309.0</ele><time>2026-04-26T10:06:09Z</time></trkpt><trkpt lat="45.72856602856552" lon="9.759583648662133"><ele>310.0</ele><time>2026-04-26T10:06:10Z</time></trkpt><trkpt lat="45.728504601131604" lon="9.759612430576748"><ele>310.0</ele><time>2026-04-26T10:06:11Z</time></trkpt><trkpt lat="45.728445548548756" lon="9.759646810272557"><ele>310.0</ele><time>2026-04-26T10:06:12Z</time></trkpt><trkpt lat="45.728325212294145" lon="9.75971000778805"><ele>310.0</ele><time>2026-04-26T10:06:14Z</time></trkpt><trkpt lat="45.7282657414924" lon="9.759740791046783"><ele>310.0</ele><time>2026-04-26T10:06:15Z</time></trkpt><trkpt lat="45.72814526948615" lon="9.759803036993414"><ele>310.0</ele><time>2026-04-26T10:06:17Z</time></trkpt><trkpt lat="45.72808444645892" lon="9.759830180487949"><ele>310.0</ele><time>2026-04-26T10:06:18Z</time></trkpt><trkpt lat="45.72802464884354" lon="9.75986188865618"><ele>310.0</ele><time>2026-04-26T10:06:19Z</time></trkpt><trkpt lat="45.727962638480975" lon="9.759885127907165"><ele>310.0</ele><time>2026-04-26T10:06:20Z</time></trkpt><trkpt lat="45.72790342078179" lon="9.759916542115606"><ele>310.0</ele><time>2026-04-26T10:06:21Z</time></trkpt><trkpt lat="45.72784169290958" lon="9.759946818759685"><ele>310.0</ele><time>2026-04-26T10:06:22Z</time></trkpt><trkpt lat="45.72772108476848" lon="9.760006537557375"><ele>310.0</ele><time>2026-04-26T10:06:24Z</time></trkpt><trkpt lat="45.72765947075781" lon="9.760033292714239"><ele>310.0</ele><time>2026-04-26T10:06:25Z</time></trkpt><trkpt lat="45.72760029331766" lon="9.760064936931663"><ele>310.0</ele><time>2026-04-26T10:06:26Z</time></trkpt><trkpt lat="45.727540585714245" lon="9.760094485420396"><ele>310.0</ele><time>2026-04-26T10:06:27Z</time></trkpt><trkpt lat="45.72748208947285" lon="9.760128291234087"><ele>310.0</ele><time>2026-04-26T10:06:28Z</time></trkpt><trkpt lat="45.727421669041796" lon="9.760154504764156"><ele>310.0</ele><time>2026-04-26T10:06:29Z</time></trkpt><trkpt lat="45.72735942942421" lon="9.760177366891918"><ele>310.0</ele><time>2026-04-26T10:06:30Z</time></trkpt><trkpt lat="45.727295416175615" lon="9.76020018953225"><ele>310.0</ele><time>2026-04-26T10:06:31Z</time></trkpt><trkpt lat="45.72717191144262" lon="9.760243131071755"><ele>310.0</ele><time>2026-04-26T10:06:33Z</time></trkpt><trkpt lat="45.72711008991855" lon="9.760265801200045"><ele>310.0</ele><time>2026-04-26T10:06:34Z</time></trkpt><trkpt lat="45.727046119727895" lon="9.760284823846519"><ele>310.5</ele><time>2026-04-26T10:06:35Z</time></trkpt><trkpt lat="45.72691992323256" lon="9.760311252613334"><ele>311.0</ele><time>2026-04-26T10:06:37Z</time></trkpt><trkpt lat="45.72685630786843" lon="9.760329170179984"><ele>311.5</ele><time>2026-04-26T10:06:38Z</time></trkpt><trkpt lat="45.726793563746" lon="9.760346695134018"><ele>312.0</ele><time>2026-04-26T10:06:39Z</time></trkpt><trkpt lat="45.726730838101346" lon="9.760370093645514"><ele>312.5</ele><time>2026-04-26T10:06:40Z</time></trkpt><trkpt lat="45.72666961962845" lon="9.76039587054009"><ele>313.0</ele><time>2026-04-26T10:06:41Z</time></trkpt><trkpt lat="45.726606829018166" lon="9.76042230514162"><ele>313.0</ele><time>2026-04-26T10:06:42Z</time></trkpt><trkpt lat="45.72654748384842" lon="9.760455786312393"><ele>313.0</ele><time>2026-04-26T10:06:43Z</time></trkpt><trkpt lat="45.726484272685354" lon="9.760475637568979"><ele>313.0</ele><time>2026-04-26T10:06:44Z</time></trkpt><trkpt lat="45.7264226005003" lon="9.76049997522976"><ele>313.0</ele><time>2026-04-26T10:06:45Z</time></trkpt><trkpt lat="45.72636118162446" lon="9.760520956407655"><ele>313.0</ele><time>2026-04-26T10:06:46Z</time></trkpt><trkpt lat="45.72629846076998" lon="9.760547604838465"><ele>313.0</ele><time>2026-04-26T10:06:47Z</time></trkpt><trkpt lat="45.72617626360963" lon="9.760600338829537"><ele>313.0</ele><time>2026-04-26T10:06:49Z</time></trkpt><trkpt lat="45.72605390038022" lon="9.760651409961199"><ele>312.5</ele><time>2026-04-26T10:06:51Z</time></trkpt><trkpt lat="45.72599229878789" lon="9.760674778520492"><ele>312.0</ele><time>2026-04-26T10:06:52Z</time></trkpt><trkpt lat="45.725928056322" lon="9.760700121908686"><ele>311.5</ele><time>2026-04-26T10:06:53Z</time></trkpt><trkpt lat="45.72581041887698" lon="9.760748081727606"><ele>311.0</ele><time>2026-04-26T10:06:55Z</time></trkpt><trkpt lat="45.725747983516065" lon="9.760774553594045"><ele>310.5</ele><time>2026-04-26T10:06:56Z</time></trkpt><trkpt lat="45.725628102277305" lon="9.76082378404881"><ele>310.0</ele><time>2026-04-26T10:06:58Z</time></trkpt><trkpt lat="45.72556569647886" lon="9.760850821656788"><ele>310.0</ele><time>2026-04-26T10:06:59Z</time></trkpt><trkpt lat="45.72544224590071" lon="9.760903813535785"><ele>310.0</ele><time>2026-04-26T10:07:01Z</time></trkpt><trkpt lat="45.7253232310852" lon="9.760957669315355"><ele>310.0</ele><time>2026-04-26T10:07:03Z</time></trkpt><trkpt lat="45.72526350937337" lon="9.760989109770327"><ele>310.0</ele><time>2026-04-26T10:07:04Z</time></trkpt><trkpt lat="45.72514767012443" lon="9.76105938156294"><ele>310.0</ele><time>2026-04-26T10:07:06Z</time></trkpt><trkpt lat="45.725037030042294" lon="9.761135132010597"><ele>311.0</ele><time>2026-04-26T10:07:08Z</time></trkpt><trkpt lat="45.724926244235014" lon="9.761217212544885"><ele>312.0</ele><time>2026-04-26T10:07:10Z</time></trkpt><trkpt lat="45.72482160289654" lon="9.761315106177287"><ele>313.0</ele><time>2026-04-26T10:07:12Z</time></trkpt><trkpt lat="45.72472682916232" lon="9.76143118555932"><ele>314.0</ele><time>2026-04-26T10:07:14Z</time></trkpt><trkpt lat="45.7246816431788" lon="9.76149661093325"><ele>315.0</ele><time>2026-04-26T10:07:15Z</time></trkpt><trkpt lat="45.72463780920155" lon="9.761562213804167"><ele>315.0</ele><time>2026-04-26T10:07:16Z</time></trkpt><trkpt lat="45.72459757062835" lon="9.761633414595826"><ele>315.0</ele><time>2026-04-26T10:07:17Z</time></trkpt><trkpt lat="45.72456277872045" lon="9.761712301783554"><ele>315.0</ele><time>2026-04-26T10:07:18Z</time></trkpt><trkpt lat="45.72452856082404" lon="9.76179422572409"><ele>315.0</ele><time>2026-04-26T10:07:19Z</time></trkpt><trkpt lat="45.724497689762266" lon="9.761874751952275"><ele>315.0</ele><time>2026-04-26T10:07:20Z</time></trkpt><trkpt lat="45.724466509911046" lon="9.761953298144189"><ele>315.0</ele><time>2026-04-26T10:07:21Z</time></trkpt><trkpt lat="45.72440189887585" lon="9.762109073682996"><ele>315.0</ele><time>2026-04-26T10:07:23Z</time></trkpt><trkpt lat="45.72433623066969" lon="9.762264537215747"><ele>314.8</ele><time>2026-04-26T10:07:25Z</time></trkpt><trkpt lat="45.72429900382747" lon="9.762339321708293"><ele>314.6</ele><time>2026-04-26T10:07:26Z</time></trkpt><trkpt lat="45.72422187013475" lon="9.762480500291147"><ele>314.4</ele><time>2026-04-26T10:07:28Z</time></trkpt><trkpt lat="45.72414271197455" lon="9.762620799016785"><ele>314.2</ele><time>2026-04-26T10:07:30Z</time></trkpt><trkpt lat="45.72404868343529" lon="9.762740285838115"><ele>314.0</ele><time>2026-04-26T10:07:32Z</time></trkpt><trkpt lat="45.72394624814916" lon="9.762849097929218"><ele>314.1666666666667</ele><time>2026-04-26T10:07:34Z</time></trkpt><trkpt lat="45.72389601952022" lon="9.76290407878683"><ele>314.33333333333337</ele><time>2026-04-26T10:07:35Z</time></trkpt><trkpt lat="45.723843016848946" lon="9.762960010873396"><ele>314.5</ele><time>2026-04-26T10:07:36Z</time></trkpt><trkpt lat="45.7237893641998" lon="9.763016186350635"><ele>314.6666666666667</ele><time>2026-04-26T10:07:37Z</time></trkpt><trkpt lat="45.72368970055514" lon="9.763125531332262"><ele>314.8333333333333</ele><time>2026-04-26T10:07:39Z</time></trkpt><trkpt lat="45.723638880058836" lon="9.763189544433343"><ele>315.0</ele><time>2026-04-26T10:07:40Z</time></trkpt><trkpt lat="45.72354401293646" lon="9.763307643366916"><ele>315.0</ele><time>2026-04-26T10:07:42Z</time></trkpt><trkpt lat="45.723496318493034" lon="9.763373461442125"><ele>315.0</ele><time>2026-04-26T10:07:43Z</time></trkpt><trkpt lat="45.723405942848" lon="9.763496396033236"><ele>315.0</ele><time>2026-04-26T10:07:45Z</time></trkpt><trkpt lat="45.72336295331204" lon="9.763569029948666"><ele>315.0</ele><time>2026-04-26T10:07:46Z</time></trkpt><trkpt lat="45.723318910672205" lon="9.763636868264287"><ele>315.0</ele><time>2026-04-26T10:07:47Z</time></trkpt><trkpt lat="45.72326809105448" lon="9.763691795582108"><ele>315.0</ele><time>2026-04-26T10:07:48Z</time></trkpt><trkpt lat="45.72317631804998" lon="9.763828986631074"><ele>314.8</ele><time>2026-04-26T10:07:50Z</time></trkpt><trkpt lat="45.72308161034042" lon="9.763938702963133"><ele>314.6</ele><time>2026-04-26T10:07:52Z</time></trkpt><trkpt lat="45.723031998349036" lon="9.76399928037414"><ele>314.4</ele><time>2026-04-26T10:07:53Z</time></trkpt><trkpt lat="45.72293501061676" lon="9.76411492312093"><ele>314.2</ele><time>2026-04-26T10:07:55Z</time></trkpt><trkpt lat="45.7228331025874" lon="9.764218894955613"><ele>314.0</ele><time>2026-04-26T10:07:57Z</time></trkpt><trkpt lat="45.72278120548381" lon="9.764271742984072"><ele>314.33333333333337</ele><time>2026-04-26T10:07:58Z</time></trkpt><trkpt lat="45.7227275159268" lon="9.76431975934225"><ele>314.6666666666667</ele><time>2026-04-26T10:07:59Z</time></trkpt><trkpt lat="45.72262563541156" lon="9.764426276622338"><ele>315.0</ele><time>2026-04-26T10:08:01Z</time></trkpt><trkpt lat="45.7225742599877" lon="9.76448246681273"><ele>315.3333333333333</ele><time>2026-04-26T10:08:02Z</time></trkpt><trkpt lat="45.72247081904316" lon="9.764586453117136"><ele>315.66666666666663</ele><time>2026-04-26T10:08:04Z</time></trkpt><trkpt lat="45.72241701639903" lon="9.76463602781637"><ele>316.0</ele><time>2026-04-26T10:08:05Z</time></trkpt><trkpt lat="45.72236402317348" lon="9.76468951394998"><ele>316.3333333333333</ele><time>2026-04-26T10:08:06Z</time></trkpt><trkpt lat="45.72231124314678" lon="9.76473901671433"><ele>316.66666666666663</ele><time>2026-04-26T10:08:07Z</time></trkpt><trkpt lat="45.72220622480795" lon="9.764839404852303"><ele>317.0</ele><time>2026-04-26T10:08:09Z</time></trkpt><trkpt lat="45.722153401094396" lon="9.764890736522885"><ele>317.3333333333333</ele><time>2026-04-26T10:08:10Z</time></trkpt><trkpt lat="45.72210097427034" lon="9.764943054263462"><ele>317.6666666666667</ele><time>2026-04-26T10:08:11Z</time></trkpt><trkpt lat="45.72199555795978" lon="9.765051307923429"><ele>318.0</ele><time>2026-04-26T10:08:13Z</time></trkpt><trkpt lat="45.721890812472196" lon="9.765141779174359"><ele>318.2</ele><time>2026-04-26T10:08:15Z</time></trkpt><trkpt lat="45.72178851756052" lon="9.765241971852491"><ele>318.4</ele><time>2026-04-26T10:08:17Z</time></trkpt><trkpt lat="45.72168220763084" lon="9.765343500235755"><ele>318.59999999999997</ele><time>2026-04-26T10:08:19Z</time></trkpt><trkpt lat="45.72158104527972" lon="9.765441199885904"><ele>318.8</ele><time>2026-04-26T10:08:21Z</time></trkpt><trkpt lat="45.7215293339964" lon="9.76550454943733"><ele>319.0</ele><time>2026-04-26T10:08:22Z</time></trkpt><trkpt lat="45.72147826075169" lon="9.765561720962307"><ele>319.0</ele><time>2026-04-26T10:08:23Z</time></trkpt><trkpt lat="45.721377211607354" lon="9.765670876734426"><ele>319.0</ele><time>2026-04-26T10:08:25Z</time></trkpt><trkpt lat="45.72132867868304" lon="9.76573052477129"><ele>319.0</ele><time>2026-04-26T10:08:26Z</time></trkpt><trkpt lat="45.72127748514918" lon="9.76578388175103"><ele>319.0</ele><time>2026-04-26T10:08:27Z</time></trkpt><trkpt lat="45.721226938876235" lon="9.765842434869215"><ele>319.0</ele><time>2026-04-26T10:08:28Z</time></trkpt><trkpt lat="45.72112995167636" lon="9.765955725516248"><ele>319.0</ele><time>2026-04-26T10:08:30Z</time></trkpt><trkpt lat="45.721080623753295" lon="9.76601426321758"><ele>319.6</ele><time>2026-04-26T10:08:31Z</time></trkpt><trkpt lat="45.721032608717124" lon="9.766073206133054"><ele>320.2</ele><time>2026-04-26T10:08:32Z</time></trkpt><trkpt lat="45.720934355056784" lon="9.766191386518866"><ele>320.8</ele><time>2026-04-26T10:08:34Z</time></trkpt><trkpt lat="45.72088597138254" lon="9.766252533545527"><ele>321.40000000000003</ele><time>2026-04-26T10:08:35Z</time></trkpt><trkpt lat="45.7208369568257" lon="9.76631273827572"><ele>322.0</ele><time>2026-04-26T10:08:36Z</time></trkpt><trkpt lat="45.72074181258525" lon="9.766440560894926"><ele>322.0</ele><time>2026-04-26T10:08:38Z</time></trkpt><trkpt lat="45.7206483237902" lon="9.766564748425909"><ele>322.0</ele><time>2026-04-26T10:08:39.999Z</time></trkpt><trkpt lat="45.72059937607721" lon="9.766622713866923"><ele>322.0</ele><time>2026-04-26T10:08:41Z</time></trkpt><trkpt lat="45.72054651624" lon="9.766676137149862"><ele>322.0</ele><time>2026-04-26T10:08:42Z</time></trkpt><trkpt lat="45.72049386341845" lon="9.766734235490803"><ele>322.0</ele><time>2026-04-26T10:08:43Z</time></trkpt><trkpt lat="45.72044198047968" lon="9.766787858571968"><ele>322.0</ele><time>2026-04-26T10:08:44Z</time></trkpt><trkpt lat="45.72038777860343" lon="9.766839231852687"><ele>322.57142857142856</ele><time>2026-04-26T10:08:45Z</time></trkpt><trkpt lat="45.7202841540061" lon="9.766942670479764"><ele>323.1428571428571</ele><time>2026-04-26T10:08:47Z</time></trkpt><trkpt lat="45.72023062151818" lon="9.766990499013367"><ele>323.7142857142857</ele><time>2026-04-26T10:08:48Z</time></trkpt><trkpt lat="45.72017847595325" lon="9.767042272971484"><ele>324.2857142857143</ele><time>2026-04-26T10:08:49Z</time></trkpt><trkpt lat="45.72012813147687" lon="9.767099681741398"><ele>324.85714285714283</ele><time>2026-04-26T10:08:50Z</time></trkpt><trkpt lat="45.720076836507204" lon="9.767152168868495"><ele>325.42857142857144</ele><time>2026-04-26T10:08:51Z</time></trkpt><trkpt lat="45.72002425306688" lon="9.767201843082296"><ele>326.0</ele><time>2026-04-26T10:08:52Z</time></trkpt><trkpt lat="45.71996915679879" lon="9.767251833816415"><ele>326.0</ele><time>2026-04-26T10:08:53Z</time></trkpt><trkpt lat="45.71991578285618" lon="9.767302451601731"><ele>326.0</ele><time>2026-04-26T10:08:54Z</time></trkpt><trkpt lat="45.71986364862571" lon="9.767354533073826"><ele>326.0</ele><time>2026-04-26T10:08:55Z</time></trkpt><trkpt lat="45.71981254690864" lon="9.76741124025924"><ele>326.0</ele><time>2026-04-26T10:08:56Z</time></trkpt><trkpt lat="45.71971008512632" lon="9.76751856833964"><ele>326.0</ele><time>2026-04-26T10:08:58Z</time></trkpt><trkpt lat="45.71965722489146" lon="9.767568181478575"><ele>326.0</ele><time>2026-04-26T10:08:59Z</time></trkpt><trkpt lat="45.71955511545534" lon="9.767669653203477"><ele>325.4</ele><time>2026-04-26T10:09:01Z</time></trkpt><trkpt lat="45.71945418308001" lon="9.767768582548081"><ele>324.8</ele><time>2026-04-26T10:09:03Z</time></trkpt><trkpt lat="45.7194014968617" lon="9.767820280748422"><ele>324.2</ele><time>2026-04-26T10:09:04Z</time></trkpt><trkpt lat="45.71929964928354" lon="9.76792578112579"><ele>323.59999999999997</ele><time>2026-04-26T10:09:06Z</time></trkpt><trkpt lat="45.719197434512395" lon="9.768029120166258"><ele>323.0</ele><time>2026-04-26T10:09:08Z</time></trkpt><trkpt lat="45.71914430971075" lon="9.768078993507103"><ele>323.0</ele><time>2026-04-26T10:09:09Z</time></trkpt><trkpt lat="45.71903957207918" lon="9.76818061561541"><ele>323.0</ele><time>2026-04-26T10:09:11Z</time></trkpt><trkpt lat="45.71893610051935" lon="9.76828266629429"><ele>323.0</ele><time>2026-04-26T10:09:13Z</time></trkpt><trkpt lat="45.71884204705678" lon="9.768387623886372"><ele>323.0</ele><time>2026-04-26T10:09:15Z</time></trkpt><trkpt lat="45.71878162666623" lon="9.768433036135697"><ele>323.0</ele><time>2026-04-26T10:09:16Z</time></trkpt><trkpt lat="45.71867364273026" lon="9.768533339174203"><ele>322.79999999999995</ele><time>2026-04-26T10:09:18Z</time></trkpt><trkpt lat="45.71856748948862" lon="9.76863380211436"><ele>322.6</ele><time>2026-04-26T10:09:20Z</time></trkpt><trkpt lat="45.71846122545793" lon="9.768735630513742"><ele>322.4</ele><time>2026-04-26T10:09:22Z</time></trkpt><trkpt lat="45.71840646107879" lon="9.768787343151308"><ele>322.20000000000005</ele><time>2026-04-26T10:09:23Z</time></trkpt><trkpt lat="45.71830387609637" lon="9.768894076035046"><ele>322.0</ele><time>2026-04-26T10:09:25Z</time></trkpt><trkpt lat="45.718210858529375" lon="9.76901730248036"><ele>322.0</ele><time>2026-04-26T10:09:27Z</time></trkpt><trkpt lat="45.71816502630017" lon="9.769080414474674"><ele>322.0</ele><time>2026-04-26T10:09:28Z</time></trkpt><trkpt lat="45.71811816453551" lon="9.769146061464273"><ele>322.0</ele><time>2026-04-26T10:09:29Z</time></trkpt><trkpt lat="45.71806769933063" lon="9.769213332708505"><ele>322.0</ele><time>2026-04-26T10:09:30Z</time></trkpt><trkpt lat="45.71802430791762" lon="9.7692796454591"><ele>322.0</ele><time>2026-04-26T10:09:31Z</time></trkpt><trkpt lat="45.717982944334516" lon="9.769351942330548"><ele>322.0</ele><time>2026-04-26T10:09:32Z</time></trkpt><trkpt lat="45.71794214000521" lon="9.76942512806716"><ele>322.0</ele><time>2026-04-26T10:09:33Z</time></trkpt><trkpt lat="45.71790389906905" lon="9.769497921373937"><ele>322.14285714285717</ele><time>2026-04-26T10:09:34Z</time></trkpt><trkpt lat="45.71785816336793" lon="9.769562015498243"><ele>322.2857142857143</ele><time>2026-04-26T10:09:35Z</time></trkpt><trkpt lat="45.717810642774054" lon="9.769631610067364"><ele>322.42857142857144</ele><time>2026-04-26T10:09:36Z</time></trkpt><trkpt lat="45.717764620265825" lon="9.769696113263544"><ele>322.57142857142856</ele><time>2026-04-26T10:09:37Z</time></trkpt><trkpt lat="45.71772349486778" lon="9.769766013525997"><ele>322.7142857142857</ele><time>2026-04-26T10:09:38Z</time></trkpt><trkpt lat="45.71767818253084" lon="9.769833098134873"><ele>322.8571428571429</ele><time>2026-04-26T10:09:39Z</time></trkpt><trkpt lat="45.717633996810335" lon="9.769901219004185"><ele>323.0</ele><time>2026-04-26T10:09:40Z</time></trkpt><trkpt lat="45.7175909691189" lon="9.76996844572221"><ele>323.00000000000006</ele><time>2026-04-26T10:09:41Z</time></trkpt><trkpt lat="45.717504517653296" lon="9.770102065311304"><ele>323.0</ele><time>2026-04-26T10:09:43Z</time></trkpt><trkpt lat="45.71746213754075" lon="9.77017073002825"><ele>323.0</ele><time>2026-04-26T10:09:44Z</time></trkpt><trkpt lat="45.71742002169313" lon="9.770240000670876"><ele>323.0</ele><time>2026-04-26T10:09:45Z</time></trkpt><trkpt lat="45.71737737725679" lon="9.770306947594221"><ele>323.0</ele><time>2026-04-26T10:09:46Z</time></trkpt><trkpt lat="45.71733548985138" lon="9.770374572342778"><ele>323.00000000000006</ele><time>2026-04-26T10:09:47Z</time></trkpt><trkpt lat="45.71729419624512" lon="9.77044306127794"><ele>323.0</ele><time>2026-04-26T10:09:48Z</time></trkpt><trkpt lat="45.7172517294524" lon="9.77051046708575"><ele>323.42857142857144</ele><time>2026-04-26T10:09:49Z</time></trkpt><trkpt lat="45.71720815568558" lon="9.770576461348192"><ele>323.8571428571429</ele><time>2026-04-26T10:09:50Z</time></trkpt><trkpt lat="45.71716649861718" lon="9.770645570698658"><ele>324.28571428571433</ele><time>2026-04-26T10:09:51Z</time></trkpt><trkpt lat="45.71712152303496" lon="9.770711842939773"><ele>324.7142857142857</ele><time>2026-04-26T10:09:52Z</time></trkpt><trkpt lat="45.71708108421275" lon="9.770782220838003"><ele>325.1428571428571</ele><time>2026-04-26T10:09:53Z</time></trkpt><trkpt lat="45.71703932028172" lon="9.77085057338336"><ele>325.5714285714286</ele><time>2026-04-26T10:09:54Z</time></trkpt><trkpt lat="45.71699678563425" lon="9.770919831793396"><ele>326.0</ele><time>2026-04-26T10:09:55Z</time></trkpt><trkpt lat="45.71691061053746" lon="9.771050765149225"><ele>325.8</ele><time>2026-04-26T10:09:57Z</time></trkpt><trkpt lat="45.716869176937976" lon="9.771120269325701"><ele>325.6</ele><time>2026-04-26T10:09:58Z</time></trkpt><trkpt lat="45.71678261487581" lon="9.77125712245611"><ele>325.4</ele><time>2026-04-26T10:10:00Z</time></trkpt><trkpt lat="45.71669412700408" lon="9.771388934239136"><ele>325.2</ele><time>2026-04-26T10:10:02Z</time></trkpt><trkpt lat="45.71664824928887" lon="9.7714588622035"><ele>325.0</ele><time>2026-04-26T10:10:03Z</time></trkpt><trkpt lat="45.71655543603327" lon="9.77157807755923"><ele>325.0</ele><time>2026-04-26T10:10:05Z</time></trkpt><trkpt lat="45.71650428208063" lon="9.771631953509427"><ele>325.0</ele><time>2026-04-26T10:10:06Z</time></trkpt><trkpt lat="45.71645437385831" lon="9.771696516786564"><ele>325.0</ele><time>2026-04-26T10:10:07Z</time></trkpt><trkpt lat="45.71640784448957" lon="9.771761472723606"><ele>325.0</ele><time>2026-04-26T10:10:08Z</time></trkpt><trkpt lat="45.71635480458025" lon="9.77181969394537"><ele>325.0</ele><time>2026-04-26T10:10:09Z</time></trkpt><trkpt lat="45.716308357401665" lon="9.771885248287642"><ele>325.0</ele><time>2026-04-26T10:10:10Z</time></trkpt><trkpt lat="45.71621409227018" lon="9.771997183835996"><ele>325.0</ele><time>2026-04-26T10:10:12Z</time></trkpt><trkpt lat="45.71612496969795" lon="9.772113770730911"><ele>325.0</ele><time>2026-04-26T10:10:14Z</time></trkpt><trkpt lat="45.71603860810487" lon="9.772230728768623"><ele>325.0</ele><time>2026-04-26T10:10:16Z</time></trkpt><trkpt lat="45.715951804027135" lon="9.77234564085804"><ele>325.0</ele><time>2026-04-26T10:10:18Z</time></trkpt><trkpt lat="45.715868151654156" lon="9.772458106755687"><ele>326.0</ele><time>2026-04-26T10:10:20Z</time></trkpt><trkpt lat="45.7157860882027" lon="9.772570570016642"><ele>327.0</ele><time>2026-04-26T10:10:22Z</time></trkpt><trkpt lat="45.71569997971586" lon="9.77267999184739"><ele>328.0</ele><time>2026-04-26T10:10:24Z</time></trkpt><trkpt lat="45.715621385620814" lon="9.772787039326499"><ele>329.0</ele><time>2026-04-26T10:10:26Z</time></trkpt><trkpt lat="45.71553819490607" lon="9.77289382479115"><ele>330.0</ele><time>2026-04-26T10:10:28Z</time></trkpt><trkpt lat="45.71545676397616" lon="9.77299939563109"><ele>330.0</ele><time>2026-04-26T10:10:30Z</time></trkpt><trkpt lat="45.71538853237754" lon="9.7730647968074"><ele>330.0</ele><time>2026-04-26T10:10:32Z</time></trkpt><trkpt lat="45.71529749236566" lon="9.77303592491655"><ele>330.0</ele><time>2026-04-26T10:10:34Z</time></trkpt><trkpt lat="45.71522689746435" lon="9.772948929150523"><ele>330.0</ele><time>2026-04-26T10:10:36Z</time></trkpt><trkpt lat="45.71520138543404" lon="9.77280887535741"><ele>330.0</ele><time>2026-04-26T10:10:38Z</time></trkpt><trkpt lat="45.71518082979232" lon="9.772639331772073"><ele>329.6666666666667</ele><time>2026-04-26T10:10:39.999Z</time></trkpt><trkpt lat="45.715160682054695" lon="9.772546855764194"><ele>329.3333333333333</ele><time>2026-04-26T10:10:40.999Z</time></trkpt><trkpt lat="45.71514761983402" lon="9.772450598137222"><ele>329.0</ele><time>2026-04-26T10:10:41.999Z</time></trkpt><trkpt lat="45.71514978916889" lon="9.772343433438753"><ele>328.66666666666663</ele><time>2026-04-26T10:10:42.999Z</time></trkpt><trkpt lat="45.715158130083225" lon="9.772231825142445"><ele>328.3333333333333</ele><time>2026-04-26T10:10:43.999Z</time></trkpt><trkpt lat="45.715171554973224" lon="9.772117480846125"><ele>328.0</ele><time>2026-04-26T10:10:44.999Z</time></trkpt><trkpt lat="45.71518122423682" lon="9.771998366411584"><ele>328.0</ele><time>2026-04-26T10:10:45.999Z</time></trkpt><trkpt lat="45.715186747549936" lon="9.77187063735509"><ele>328.0</ele><time>2026-04-26T10:10:47Z</time></trkpt><trkpt lat="45.71519140000255" lon="9.771740613886697"><ele>328.0</ele><time>2026-04-26T10:10:48Z</time></trkpt><trkpt lat="45.7151953119936" lon="9.77160322671072"><ele>328.0</ele><time>2026-04-26T10:10:49Z</time></trkpt><trkpt lat="45.71520041773409" lon="9.771460469385302"><ele>328.0</ele><time>2026-04-26T10:10:50Z</time></trkpt><trkpt lat="45.715207348529155" lon="9.771313269740139"><ele>327.0</ele><time>2026-04-26T10:10:51Z</time></trkpt><trkpt lat="45.71521777197186" lon="9.7711630033209"><ele>326.0</ele><time>2026-04-26T10:10:52Z</time></trkpt><trkpt lat="45.71521332628092" lon="9.771012217672496"><ele>325.0</ele><time>2026-04-26T10:10:53Z</time></trkpt><trkpt lat="45.71520462425878" lon="9.770863650682353"><ele>324.0</ele><time>2026-04-26T10:10:54Z</time></trkpt><trkpt lat="45.715186674371196" lon="9.770716160386119"><ele>323.0</ele><time>2026-04-26T10:10:55Z</time></trkpt><trkpt lat="45.71515948834702" lon="9.770570575053277"><ele>322.59999999999997</ele><time>2026-04-26T10:10:56Z</time></trkpt><trkpt lat="45.71513399326746" lon="9.770429890011563"><ele>322.2</ele><time>2026-04-26T10:10:57Z</time></trkpt><trkpt lat="45.71510013653794" lon="9.77029768908331"><ele>321.8</ele><time>2026-04-26T10:10:58Z</time></trkpt><trkpt lat="45.71505389293016" lon="9.770170962765784"><ele>321.4</ele><time>2026-04-26T10:10:59Z</time></trkpt><trkpt lat="45.7150093237491" lon="9.770052016846972"><ele>321.0</ele><time>2026-04-26T10:11:00Z</time></trkpt><trkpt lat="45.71496194934624" lon="9.769937364014469"><ele>321.0</ele><time>2026-04-26T10:11:01Z</time></trkpt><trkpt lat="45.71490971493847" lon="9.769828331129053"><ele>321.0</ele><time>2026-04-26T10:11:02Z</time></trkpt><trkpt lat="45.7148558458609" lon="9.76972803035628"><ele>321.0</ele><time>2026-04-26T10:11:03Z</time></trkpt><trkpt lat="45.71480072127137" lon="9.769631899014202"><ele>321.0</ele><time>2026-04-26T10:11:04Z</time></trkpt><trkpt lat="45.71474373338146" lon="9.769538288752656"><ele>321.0</ele><time>2026-04-26T10:11:05Z</time></trkpt><trkpt lat="45.71468812094055" lon="9.769451930149563"><ele>321.0</ele><time>2026-04-26T10:11:06Z</time></trkpt><trkpt lat="45.714633045484995" lon="9.769366860908777"><ele>320.1666666666667</ele><time>2026-04-26T10:11:07Z</time></trkpt><trkpt lat="45.71457951861404" lon="9.769280572397124"><ele>319.3333333333333</ele><time>2026-04-26T10:11:08Z</time></trkpt><trkpt lat="45.714525799338716" lon="9.769199739690544"><ele>318.5</ele><time>2026-04-26T10:11:09Z</time></trkpt><trkpt lat="45.714472368682436" lon="9.769116574817348"><ele>317.66666666666663</ele><time>2026-04-26T10:11:10Z</time></trkpt><trkpt lat="45.7144210688463" lon="9.769038403577982"><ele>316.8333333333333</ele><time>2026-04-26T10:11:11Z</time></trkpt><trkpt lat="45.71437060544403" lon="9.76896288687605"><ele>316.0</ele><time>2026-04-26T10:11:12Z</time></trkpt><trkpt lat="45.714319431273026" lon="9.768884261231054"><ele>316.0</ele><time>2026-04-26T10:11:13Z</time></trkpt><trkpt lat="45.714265390539005" lon="9.76880455380542"><ele>316.0</ele><time>2026-04-26T10:11:14Z</time></trkpt><trkpt lat="45.71420897806893" lon="9.768721339852004"><ele>316.0</ele><time>2026-04-26T10:11:15Z</time></trkpt><trkpt lat="45.71414581599661" lon="9.768640276644746"><ele>316.0</ele><time>2026-04-26T10:11:16Z</time></trkpt><trkpt lat="45.71408170133454" lon="9.768558289412805"><ele>316.0</ele><time>2026-04-26T10:11:17Z</time></trkpt><trkpt lat="45.71401917133267" lon="9.76847504984989"><ele>316.0</ele><time>2026-04-26T10:11:18Z</time></trkpt><trkpt lat="45.71394887639719" lon="9.768390075419314"><ele>316.0</ele><time>2026-04-26T10:11:19Z</time></trkpt><trkpt lat="45.713882117869026" lon="9.768313020369366"><ele>316.0</ele><time>2026-04-26T10:11:20Z</time></trkpt><trkpt lat="45.713812109037285" lon="9.76823768529038"><ele>316.0</ele><time>2026-04-26T10:11:21Z</time></trkpt><trkpt lat="45.713737664094445" lon="9.768169043277167"><ele>316.0</ele><time>2026-04-26T10:11:22Z</time></trkpt><trkpt lat="45.7136600961187" lon="9.768107961116893"><ele>316.0</ele><time>2026-04-26T10:11:23Z</time></trkpt><trkpt lat="45.71358399529793" lon="9.76805300523821"><ele>316.0</ele><time>2026-04-26T10:11:24Z</time></trkpt><trkpt lat="45.713507282190406" lon="9.767999899695601"><ele>315.0</ele><time>2026-04-26T10:11:25Z</time></trkpt><trkpt lat="45.71343119468338" lon="9.767946159900921"><ele>314.0</ele><time>2026-04-26T10:11:26Z</time></trkpt><trkpt lat="45.71335824894005" lon="9.767891863894981"><ele>313.0</ele><time>2026-04-26T10:11:27Z</time></trkpt><trkpt lat="45.71328793450394" lon="9.76783644808338"><ele>312.0</ele><time>2026-04-26T10:11:28Z</time></trkpt><trkpt lat="45.71321758001403" lon="9.76778205969539"><ele>311.0</ele><time>2026-04-26T10:11:29Z</time></trkpt><trkpt lat="45.713148986900165" lon="9.767726338487192"><ele>310.0</ele><time>2026-04-26T10:11:30Z</time></trkpt><trkpt lat="45.713084003893364" lon="9.767668997027167"><ele>309.42857142857144</ele><time>2026-04-26T10:11:31Z</time></trkpt><trkpt lat="45.71302008089395" lon="9.767609555169676"><ele>308.85714285714283</ele><time>2026-04-26T10:11:32Z</time></trkpt><trkpt lat="45.712957040850554" lon="9.767553225836588"><ele>308.2857142857143</ele><time>2026-04-26T10:11:33Z</time></trkpt><trkpt lat="45.71289243387975" lon="9.767497012393411"><ele>307.7142857142857</ele><time>2026-04-26T10:11:34Z</time></trkpt><trkpt lat="45.71283034622996" lon="9.767443387412959"><ele>307.14285714285717</ele><time>2026-04-26T10:11:35Z</time></trkpt><trkpt lat="45.71277061926764" lon="9.767384922197804"><ele>306.57142857142856</ele><time>2026-04-26T10:11:36Z</time></trkpt><trkpt lat="45.71271152778352" lon="9.76732316404094"><ele>306.0</ele><time>2026-04-26T10:11:37Z</time></trkpt><trkpt lat="45.71264817022878" lon="9.767267979505126"><ele>306.0</ele><time>2026-04-26T10:11:38Z</time></trkpt><trkpt lat="45.71257730598912" lon="9.767213649475822"><ele>306.0</ele><time>2026-04-26T10:11:39Z</time></trkpt><trkpt lat="45.712503678453125" lon="9.767154582783997"><ele>306.0</ele><time>2026-04-26T10:11:40Z</time></trkpt><trkpt lat="45.712427234667345" lon="9.767090314958233"><ele>306.0</ele><time>2026-04-26T10:11:41Z</time></trkpt><trkpt lat="45.71234399580829" lon="9.767029029212475"><ele>306.0</ele><time>2026-04-26T10:11:42Z</time></trkpt><trkpt lat="45.712251873470834" lon="9.766958127533623"><ele>306.0</ele><time>2026-04-26T10:11:43Z</time></trkpt><trkpt lat="45.71215087694745" lon="9.766897435808497"><ele>306.0</ele><time>2026-04-26T10:11:44Z</time></trkpt><trkpt lat="45.71204435807412" lon="9.766843025485487"><ele>306.0</ele><time>2026-04-26T10:11:45Z</time></trkpt><trkpt lat="45.711939685579644" lon="9.766775514740017"><ele>306.0</ele><time>2026-04-26T10:11:46Z</time></trkpt><trkpt lat="45.711831340673285" lon="9.76669382188582"><ele>304.25</ele><time>2026-04-26T10:11:47Z</time></trkpt><trkpt lat="45.71172901102396" lon="9.766591997888447"><ele>302.5</ele><time>2026-04-26T10:11:48Z</time></trkpt><trkpt lat="45.7116332237608" lon="9.766473280027402"><ele>300.75</ele><time>2026-04-26T10:11:49Z</time></trkpt><trkpt lat="45.71153265078131" lon="9.766350570776885"><ele>299.0</ele><time>2026-04-26T10:11:50Z</time></trkpt><trkpt lat="45.71143214985973" lon="9.76622411144806"><ele>299.0</ele><time>2026-04-26T10:11:51Z</time></trkpt><trkpt lat="45.7113343808599" lon="9.766096321676725"><ele>299.0</ele><time>2026-04-26T10:11:52Z</time></trkpt><trkpt lat="45.71123445583993" lon="9.765964829976316"><ele>299.0</ele><time>2026-04-26T10:11:53Z</time></trkpt><trkpt lat="45.71113672707725" lon="9.765828943965555"><ele>299.0</ele><time>2026-04-26T10:11:54Z</time></trkpt><trkpt lat="45.711044557211544" lon="9.76568424910029"><ele>296.75</ele><time>2026-04-26T10:11:55Z</time></trkpt><trkpt lat="45.71096060275496" lon="9.76552517759019"><ele>294.5</ele><time>2026-04-26T10:11:56Z</time></trkpt><trkpt lat="45.71089195149465" lon="9.765345864683951"><ele>292.25</ele><time>2026-04-26T10:11:57Z</time></trkpt><trkpt lat="45.710842997947815" lon="9.765154990778615"><ele>290.0</ele><time>2026-04-26T10:11:58Z</time></trkpt><trkpt lat="45.710799582813344" lon="9.764960902203518"><ele>288.25</ele><time>2026-04-26T10:11:59Z</time></trkpt><trkpt lat="45.710750522191546" lon="9.764772181632175"><ele>286.5</ele><time>2026-04-26T10:12:00Z</time></trkpt><trkpt lat="45.710701098137385" lon="9.764587364658901"><ele>284.75</ele><time>2026-04-26T10:12:01Z</time></trkpt><trkpt lat="45.71064257738883" lon="9.764408246757716"><ele>283.0</ele><time>2026-04-26T10:12:02Z</time></trkpt><trkpt lat="45.71056726683185" lon="9.764244579776573"><ele>282.5</ele><time>2026-04-26T10:12:03Z</time></trkpt><trkpt lat="45.71048282766854" lon="9.764094758678645"><ele>282.0</ele><time>2026-04-26T10:12:04Z</time></trkpt><trkpt lat="45.71039504368761" lon="9.763952688343993"><ele>281.5</ele><time>2026-04-26T10:12:05Z</time></trkpt><trkpt lat="45.710302855170085" lon="9.763814110345931"><ele>281.0</ele><time>2026-04-26T10:12:06Z</time></trkpt><trkpt lat="45.71021223087216" lon="9.76368164926647"><ele>281.0</ele><time>2026-04-26T10:12:07Z</time></trkpt><trkpt lat="45.710122993521615" lon="9.76355055243015"><ele>281.0</ele><time>2026-04-26T10:12:08Z</time></trkpt><trkpt lat="45.71002980737249" lon="9.763430178669903"><ele>281.0</ele><time>2026-04-26T10:12:09Z</time></trkpt><trkpt lat="45.70992556917664" lon="9.763330122224502"><ele>281.0</ele><time>2026-04-26T10:12:10Z</time></trkpt><trkpt lat="45.709811189702016" lon="9.763265344638496"><ele>279.5</ele><time>2026-04-26T10:12:11Z</time></trkpt><trkpt lat="45.70969770291453" lon="9.763216996321136"><ele>278.0</ele><time>2026-04-26T10:12:12Z</time></trkpt><trkpt lat="45.709585624438056" lon="9.763166238387464"><ele>276.5</ele><time>2026-04-26T10:12:13Z</time></trkpt><trkpt lat="45.709474595365926" lon="9.763116595710512"><ele>275.0</ele><time>2026-04-26T10:12:14Z</time></trkpt><trkpt lat="45.709367912466426" lon="9.763058953350784"><ele>275.0</ele><time>2026-04-26T10:12:15Z</time></trkpt><trkpt lat="45.70926443321722" lon="9.76299904630689"><ele>275.0</ele><time>2026-04-26T10:12:15.999Z</time></trkpt><trkpt lat="45.709164881915584" lon="9.762935852602668"><ele>275.0</ele><time>2026-04-26T10:12:16.999Z</time></trkpt><trkpt lat="45.70906701789052" lon="9.762878282226099"><ele>275.0</ele><time>2026-04-26T10:12:17.999Z</time></trkpt><trkpt lat="45.7089742639986" lon="9.762816390876987"><ele>275.0</ele><time>2026-04-26T10:12:18.999Z</time></trkpt><trkpt lat="45.70888658939331" lon="9.762753790092294"><ele>275.0</ele><time>2026-04-26T10:12:19.999Z</time></trkpt><trkpt lat="45.708810642298936" lon="9.762711896174892"><ele>275.0</ele><time>2026-04-26T10:12:20.999Z</time></trkpt><trkpt lat="45.70873826870378" lon="9.762687513726469"><ele>275.0</ele><time>2026-04-26T10:12:21.999Z</time></trkpt><trkpt lat="45.70864631900389" lon="9.762631699011607"><ele>275.0</ele><time>2026-04-26T10:12:23.999Z</time></trkpt><trkpt lat="45.708553450707754" lon="9.762727049906212"><ele>275.0</ele><time>2026-04-26T10:12:25.999Z</time></trkpt><trkpt lat="45.708469242571695" lon="9.762860833059294"><ele>274.14285714285717</ele><time>2026-04-26T10:12:27.999Z</time></trkpt><trkpt lat="45.708420446827" lon="9.762920519117"><ele>273.2857142857143</ele><time>2026-04-26T10:12:28.999Z</time></trkpt><trkpt lat="45.708373170940575" lon="9.762983298488715"><ele>272.42857142857144</ele><time>2026-04-26T10:12:29.999Z</time></trkpt><trkpt lat="45.708328493828766" lon="9.76304877577466"><ele>271.57142857142856</ele><time>2026-04-26T10:12:30.999Z</time></trkpt><trkpt lat="45.70828068798763" lon="9.763111501279786"><ele>270.7142857142857</ele><time>2026-04-26T10:12:31.999Z</time></trkpt><trkpt lat="45.7082370032679" lon="9.763178937010178"><ele>269.8571428571429</ele><time>2026-04-26T10:12:32.999Z</time></trkpt><trkpt lat="45.7081939459216" lon="9.763247088727239"><ele>269.0</ele><time>2026-04-26T10:12:33.999Z</time></trkpt><trkpt lat="45.70811225162331" lon="9.763386595983304"><ele>269.0</ele><time>2026-04-26T10:12:35.999Z</time></trkpt><trkpt lat="45.708081956413906" lon="9.76346677001847"><ele>269.0</ele><time>2026-04-26T10:12:36.999Z</time></trkpt><trkpt lat="45.7080640398574" lon="9.763554733936981"><ele>269.0</ele><time>2026-04-26T10:12:37.999Z</time></trkpt><trkpt lat="45.708051548817814" lon="9.763727549333865"><ele>269.0</ele><time>2026-04-26T10:12:39.999Z</time></trkpt><trkpt lat="45.708056137952" lon="9.763899016259696"><ele>269.0</ele><time>2026-04-26T10:12:41.999Z</time></trkpt><trkpt lat="45.70806210502495" lon="9.76406763732129"><ele>271.0</ele><time>2026-04-26T10:12:43.999Z</time></trkpt><trkpt lat="45.70806546223609" lon="9.764226817856233"><ele>273.0</ele><time>2026-04-26T10:12:45.999Z</time></trkpt><trkpt lat="45.7080685311859" lon="9.76432302884524"><ele>275.0</ele><time>2026-04-26T10:12:46.999Z</time></trkpt><trkpt lat="45.708070527969404" lon="9.764415402415944"><ele>277.0</ele><time>2026-04-26T10:12:47.999Z</time></trkpt><trkpt lat="45.70807327817432" lon="9.764596578359589"><ele>279.0</ele><time>2026-04-26T10:12:49.999Z</time></trkpt><trkpt lat="45.70808636152337" lon="9.764771760079022"><ele>279.0</ele><time>2026-04-26T10:12:51.999Z</time></trkpt><trkpt lat="45.70812560610317" lon="9.764940872181013"><ele>279.0</ele><time>2026-04-26T10:12:54Z</time></trkpt><trkpt lat="45.70815047091141" lon="9.765025764861951"><ele>279.0</ele><time>2026-04-26T10:12:55Z</time></trkpt><trkpt lat="45.70819737293791" lon="9.76519200751135"><ele>279.0</ele><time>2026-04-26T10:12:57Z</time></trkpt><trkpt lat="45.70825146980607" lon="9.765359717639841"><ele>279.0</ele><time>2026-04-26T10:12:59Z</time></trkpt><trkpt lat="45.7082911101224" lon="9.765524447338274"><ele>279.0</ele><time>2026-04-26T10:13:01Z</time></trkpt><trkpt lat="45.70835511247712" lon="9.765670869417496"><ele>279.0</ele><time>2026-04-26T10:13:03Z</time></trkpt><trkpt lat="45.70842358535432" lon="9.765820344750278"><ele>279.0</ele><time>2026-04-26T10:13:05Z</time></trkpt><trkpt lat="45.70845703906112" lon="9.76590209173318"><ele>279.0</ele><time>2026-04-26T10:13:06Z</time></trkpt><trkpt lat="45.70851752317186" lon="9.766061535850833"><ele>279.0</ele><time>2026-04-26T10:13:08Z</time></trkpt><trkpt lat="45.70857673350225" lon="9.76621972203077"><ele>279.0</ele><time>2026-04-26T10:13:10Z</time></trkpt><trkpt lat="45.708600520586145" lon="9.766305589024304"><ele>279.0</ele><time>2026-04-26T10:13:11Z</time></trkpt><trkpt lat="45.70863680524923" lon="9.766473452652034"><ele>279.0</ele><time>2026-04-26T10:13:13Z</time></trkpt><trkpt lat="45.708665774808345" lon="9.766647295218355"><ele>279.0</ele><time>2026-04-26T10:13:15Z</time></trkpt><trkpt lat="45.70868702182618" lon="9.766822506912325"><ele>279.0</ele><time>2026-04-26T10:13:17Z</time></trkpt><trkpt lat="45.70869516765165" lon="9.766912146564348"><ele>278.8333333333333</ele><time>2026-04-26T10:13:18Z</time></trkpt><trkpt lat="45.70872179232277" lon="9.767092829526641"><ele>278.6666666666667</ele><time>2026-04-26T10:13:20Z</time></trkpt><trkpt lat="45.70874021760142" lon="9.767182721115072"><ele>278.5</ele><time>2026-04-26T10:13:21Z</time></trkpt><trkpt lat="45.70875048949536" lon="9.767273716125203"><ele>278.33333333333337</ele><time>2026-04-26T10:13:22Z</time></trkpt><trkpt lat="45.70876769799518" lon="9.767362083677963"><ele>278.1666666666667</ele><time>2026-04-26T10:13:23Z</time></trkpt><trkpt lat="45.708775666689" lon="9.76745500754164"><ele>278.0</ele><time>2026-04-26T10:13:24Z</time></trkpt><trkpt lat="45.70878730495695" lon="9.767548560254887"><ele>278.0</ele><time>2026-04-26T10:13:25Z</time></trkpt><trkpt lat="45.70880055744616" lon="9.767644200128956"><ele>278.0</ele><time>2026-04-26T10:13:26Z</time></trkpt><trkpt lat="45.708803708823616" lon="9.767744057943517"><ele>278.0</ele><time>2026-04-26T10:13:27Z</time></trkpt><trkpt lat="45.70879491923941" lon="9.767841621288529"><ele>278.0</ele><time>2026-04-26T10:13:28Z</time></trkpt><trkpt lat="45.70876953903812" lon="9.767934026471941"><ele>278.0</ele><time>2026-04-26T10:13:29Z</time></trkpt><trkpt lat="45.70873203370543" lon="9.768019828475758"><ele>278.0</ele><time>2026-04-26T10:13:30Z</time></trkpt><trkpt lat="45.708697772934336" lon="9.768105356885371"><ele>278.0</ele><time>2026-04-26T10:13:31Z</time></trkpt><trkpt lat="45.70867123676958" lon="9.768199782816064"><ele>277.85714285714283</ele><time>2026-04-26T10:13:32Z</time></trkpt><trkpt lat="45.7086392530757" lon="9.768290231275252"><ele>277.7142857142857</ele><time>2026-04-26T10:13:33Z</time></trkpt><trkpt lat="45.708602873148166" lon="9.768375239735796"><ele>277.57142857142856</ele><time>2026-04-26T10:13:34Z</time></trkpt><trkpt lat="45.70857468194476" lon="9.768470141064638"><ele>277.42857142857144</ele><time>2026-04-26T10:13:35Z</time></trkpt><trkpt lat="45.70854917994444" lon="9.76856815169821"><ele>277.2857142857143</ele><time>2026-04-26T10:13:36Z</time></trkpt><trkpt lat="45.708532372421374" lon="9.768673686685194"><ele>277.1428571428571</ele><time>2026-04-26T10:13:37Z</time></trkpt><trkpt lat="45.7085255970702" lon="9.768781025470737"><ele>277.0</ele><time>2026-04-26T10:13:38Z</time></trkpt><trkpt lat="45.70851557138312" lon="9.76889163052607"><ele>276.0</ele><time>2026-04-26T10:13:39Z</time></trkpt><trkpt lat="45.70849812347816" lon="9.769000843402763"><ele>275.0</ele><time>2026-04-26T10:13:40Z</time></trkpt><trkpt lat="45.70849323132398" lon="9.769125529900426"><ele>274.0</ele><time>2026-04-26T10:13:41Z</time></trkpt><trkpt lat="45.70848512475214" lon="9.769240001688125"><ele>273.0</ele><time>2026-04-26T10:13:42Z</time></trkpt><trkpt lat="45.70847908968652" lon="9.769358374013626"><ele>272.0</ele><time>2026-04-26T10:13:43Z</time></trkpt><trkpt lat="45.70847973825795" lon="9.769478508986543"><ele>271.0</ele><time>2026-04-26T10:13:44Z</time></trkpt><trkpt lat="45.70848526224448" lon="9.76959868936232"><ele>271.0</ele><time>2026-04-26T10:13:45Z</time></trkpt><trkpt lat="45.70850231034297" lon="9.769714603465982"><ele>271.0</ele><time>2026-04-26T10:13:46Z</time></trkpt><trkpt lat="45.70850889332748" lon="9.769836958147106"><ele>271.0</ele><time>2026-04-26T10:13:47Z</time></trkpt><trkpt lat="45.70852299916378" lon="9.769952293747622"><ele>271.0</ele><time>2026-04-26T10:13:48Z</time></trkpt><trkpt lat="45.70853786512425" lon="9.770068095478857"><ele>271.0</ele><time>2026-04-26T10:13:49Z</time></trkpt><trkpt lat="45.70855446907215" lon="9.770177595329248"><ele>271.0</ele><time>2026-04-26T10:13:50Z</time></trkpt><trkpt lat="45.70857327415838" lon="9.770284703799891"><ele>270.7142857142857</ele><time>2026-04-26T10:13:51Z</time></trkpt><trkpt lat="45.70858745287016" lon="9.770391360875502"><ele>270.42857142857144</ele><time>2026-04-26T10:13:52Z</time></trkpt><trkpt lat="45.70859784282589" lon="9.770496276644746"><ele>270.14285714285717</ele><time>2026-04-26T10:13:53Z</time></trkpt><trkpt lat="45.70861196188634" lon="9.770601167865195"><ele>269.8571428571429</ele><time>2026-04-26T10:13:54Z</time></trkpt><trkpt lat="45.708624999804" lon="9.770704780583035"><ele>269.5714285714286</ele><time>2026-04-26T10:13:55Z</time></trkpt><trkpt lat="45.708636001723676" lon="9.770805046931864"><ele>269.2857142857143</ele><time>2026-04-26T10:13:56Z</time></trkpt><trkpt lat="45.70864108001222" lon="9.77090880233818"><ele>269.0</ele><time>2026-04-26T10:13:57Z</time></trkpt><trkpt lat="45.708647892001636" lon="9.771005277078531"><ele>269.0</ele><time>2026-04-26T10:13:58Z</time></trkpt><trkpt lat="45.70865735476529" lon="9.771102041610444"><ele>269.0</ele><time>2026-04-26T10:13:59Z</time></trkpt><trkpt lat="45.70866787705528" lon="9.77119952040242"><ele>269.0</ele><time>2026-04-26T10:14:00Z</time></trkpt><trkpt lat="45.70867584815806" lon="9.771295318499172"><ele>269.0</ele><time>2026-04-26T10:14:01Z</time></trkpt><trkpt lat="45.708678941470325" lon="9.771387739479795"><ele>269.0</ele><time>2026-04-26T10:14:02Z</time></trkpt><trkpt lat="45.70868402806064" lon="9.771479499771514"><ele>269.0</ele><time>2026-04-26T10:14:03Z</time></trkpt><trkpt lat="45.70869093849137" lon="9.771573985754058"><ele>269.0</ele><time>2026-04-26T10:14:04Z</time></trkpt><trkpt lat="45.70869796370822" lon="9.771668730992975"><ele>269.0</ele><time>2026-04-26T10:14:05Z</time></trkpt><trkpt lat="45.70870331238691" lon="9.771759332790051"><ele>269.0</ele><time>2026-04-26T10:14:06Z</time></trkpt><trkpt lat="45.708708337155045" lon="9.771857051286343"><ele>269.0</ele><time>2026-04-26T10:14:07Z</time></trkpt><trkpt lat="45.70870158893327" lon="9.77203902228247"><ele>269.0</ele><time>2026-04-26T10:14:09Z</time></trkpt><trkpt lat="45.70869600037271" lon="9.77213415635002"><ele>269.0</ele><time>2026-04-26T10:14:10Z</time></trkpt><trkpt lat="45.70869304349935" lon="9.77222647304749"><ele>269.0</ele><time>2026-04-26T10:14:11Z</time></trkpt><trkpt lat="45.70867857692423" lon="9.77240678598246"><ele>269.59999999999997</ele><time>2026-04-26T10:14:13Z</time></trkpt><trkpt lat="45.70867899088573" lon="9.772498615358206"><ele>270.2</ele><time>2026-04-26T10:14:14Z</time></trkpt><trkpt lat="45.708728992900916" lon="9.772664830004816"><ele>270.79999999999995</ele><time>2026-04-26T10:14:16Z</time></trkpt><trkpt lat="45.70878239644703" lon="9.77271591543233"><ele>271.4</ele><time>2026-04-26T10:14:16.999Z</time></trkpt><trkpt lat="45.70890581004838" lon="9.772743040437417"><ele>272.0</ele><time>2026-04-26T10:14:18.999Z</time></trkpt><trkpt lat="45.70902582323061" lon="9.772767113316128"><ele>273.0</ele><time>2026-04-26T10:14:20.999Z</time></trkpt><trkpt lat="45.709143294680814" lon="9.772809353147347"><ele>274.0</ele><time>2026-04-26T10:14:22.999Z</time></trkpt><trkpt lat="45.70925744572904" lon="9.772849140786214"><ele>275.0</ele><time>2026-04-26T10:14:24.999Z</time></trkpt><trkpt lat="45.70937071566819" lon="9.772899776034434"><ele>276.0</ele><time>2026-04-26T10:14:26.999Z</time></trkpt><trkpt lat="45.709484566856204" lon="9.77294250036945"><ele>278.25</ele><time>2026-04-26T10:14:28.999Z</time></trkpt><trkpt lat="45.709600472908214" lon="9.772984173446025"><ele>280.5</ele><time>2026-04-26T10:14:30.999Z</time></trkpt><trkpt lat="45.709716769722476" lon="9.773010201876719"><ele>282.75</ele><time>2026-04-26T10:14:32.999Z</time></trkpt><trkpt lat="45.70983315876018" lon="9.773038891231334"><ele>285.0</ele><time>2026-04-26T10:14:34.999Z</time></trkpt><trkpt lat="45.709947562361634" lon="9.773071433646047"><ele>285.0</ele><time>2026-04-26T10:14:36.999Z</time></trkpt><trkpt lat="45.71006587470119" lon="9.773101915976023"><ele>285.0</ele><time>2026-04-26T10:14:38.999Z</time></trkpt><trkpt lat="45.71018369291145" lon="9.77313928829476"><ele>285.0</ele><time>2026-04-26T10:14:40.999Z</time></trkpt><trkpt lat="45.710298154985324" lon="9.773189551591615"><ele>285.0</ele><time>2026-04-26T10:14:42.999Z</time></trkpt><trkpt lat="45.71041441971012" lon="9.773237330290716"><ele>286.75</ele><time>2026-04-26T10:14:44.999Z</time></trkpt><trkpt lat="45.71053177128407" lon="9.773283212701756"><ele>288.5</ele><time>2026-04-26T10:14:46.999Z</time></trkpt><trkpt lat="45.71064604849524" lon="9.773342755415477"><ele>290.25</ele><time>2026-04-26T10:14:48.999Z</time></trkpt><trkpt lat="45.71076000743104" lon="9.773407322214373"><ele>292.0</ele><time>2026-04-26T10:14:50.999Z</time></trkpt><trkpt lat="45.71087024830456" lon="9.773477527813803"><ele>293.0</ele><time>2026-04-26T10:14:52.999Z</time></trkpt><trkpt lat="45.710977495567285" lon="9.773545977867297"><ele>294.0</ele><time>2026-04-26T10:14:54.999Z</time></trkpt><trkpt lat="45.71108287174008" lon="9.773614638118623"><ele>295.0</ele><time>2026-04-26T10:14:56.999Z</time></trkpt><trkpt lat="45.71119095336758" lon="9.773673106164246"><ele>296.0</ele><time>2026-04-26T10:14:59Z</time></trkpt><trkpt lat="45.71129021734658" lon="9.773739104205806"><ele>298.6</ele><time>2026-04-26T10:15:01Z</time></trkpt><trkpt lat="45.71138133232115" lon="9.77380964001561"><ele>301.20000000000005</ele><time>2026-04-26T10:15:03Z</time></trkpt><trkpt lat="45.71148933180748" lon="9.773863388298908"><ele>303.79999999999995</ele><time>2026-04-26T10:15:05Z</time></trkpt><trkpt lat="45.711569288002494" lon="9.77395699287624"><ele>306.4</ele><time>2026-04-26T10:15:07Z</time></trkpt><trkpt lat="45.71167019752068" lon="9.773942283075405"><ele>309.0</ele><time>2026-04-26T10:15:09Z</time></trkpt><trkpt lat="45.71174771128034" lon="9.773858262741209"><ele>309.0</ele><time>2026-04-26T10:15:11Z</time></trkpt><trkpt lat="45.71183832444233" lon="9.773890154030473"><ele>309.0</ele><time>2026-04-26T10:15:13Z</time></trkpt><trkpt lat="45.71188774987155" lon="9.773952749850675"><ele>309.0</ele><time>2026-04-26T10:15:14Z</time></trkpt><trkpt lat="45.711980087236306" lon="9.774056088011406"><ele>309.0</ele><time>2026-04-26T10:15:16Z</time></trkpt><trkpt lat="45.71205077485711" lon="9.774187789051474"><ele>309.0</ele><time>2026-04-26T10:15:18Z</time></trkpt><trkpt lat="45.71212727814691" lon="9.774310018840344"><ele>310.75</ele><time>2026-04-26T10:15:20Z</time></trkpt><trkpt lat="45.71221229019117" lon="9.774419575880138"><ele>312.5</ele><time>2026-04-26T10:15:22Z</time></trkpt><trkpt lat="45.71230255496272" lon="9.774525392021179"><ele>314.25</ele><time>2026-04-26T10:15:24Z</time></trkpt><trkpt lat="45.71238979929327" lon="9.774623204688512"><ele>316.0</ele><time>2026-04-26T10:15:26Z</time></trkpt><trkpt lat="45.71247272374725" lon="9.774724828186642"><ele>316.0</ele><time>2026-04-26T10:15:28Z</time></trkpt><trkpt lat="45.712559115612194" lon="9.774827074391105"><ele>316.0</ele><time>2026-04-26T10:15:30Z</time></trkpt><trkpt lat="45.71264772309394" lon="9.77493029845741"><ele>316.0</ele><time>2026-04-26T10:15:32Z</time></trkpt><trkpt lat="45.71272826192943" lon="9.775032965262477"><ele>316.0</ele><time>2026-04-26T10:15:34Z</time></trkpt><trkpt lat="45.71281623469319" lon="9.775125995709885"><ele>316.0</ele><time>2026-04-26T10:15:36Z</time></trkpt><trkpt lat="45.71290081073348" lon="9.77522310844909"><ele>319.0</ele><time>2026-04-26T10:15:38Z</time></trkpt><trkpt lat="45.712978400353514" lon="9.775312405872423"><ele>322.0</ele><time>2026-04-26T10:15:40Z</time></trkpt><trkpt lat="45.71305041851583" lon="9.775402719204784"><ele>325.0</ele><time>2026-04-26T10:15:42Z</time></trkpt><trkpt lat="45.71312501790144" lon="9.7754723909996"><ele>328.0</ele><time>2026-04-26T10:15:44Z</time></trkpt><trkpt lat="45.713211426932425" lon="9.775509326063984"><ele>331.0</ele><time>2026-04-26T10:15:46Z</time></trkpt><trkpt lat="45.713305179802525" lon="9.775528625753019"><ele>331.0</ele><time>2026-04-26T10:15:48Z</time></trkpt><trkpt lat="45.71339768004548" lon="9.775542592359738"><ele>331.0</ele><time>2026-04-26T10:15:50Z</time></trkpt><trkpt lat="45.71350109725529" lon="9.77556303985108"><ele>331.0</ele><time>2026-04-26T10:15:52Z</time></trkpt><trkpt lat="45.71360070433193" lon="9.775577151250724"><ele>331.0</ele><time>2026-04-26T10:15:54Z</time></trkpt><trkpt lat="45.71370147517586" lon="9.775594371624823"><ele>331.0</ele><time>2026-04-26T10:15:56Z</time></trkpt><trkpt lat="45.71379354965662" lon="9.775615312917704"><ele>333.6</ele><time>2026-04-26T10:15:58Z</time></trkpt><trkpt lat="45.7138907590779" lon="9.775627337866792"><ele>336.20000000000005</ele><time>2026-04-26T10:16:00Z</time></trkpt><trkpt lat="45.713984132941725" lon="9.775639282866512"><ele>338.79999999999995</ele><time>2026-04-26T10:16:02Z</time></trkpt><trkpt lat="45.714083560723346" lon="9.77566109866589"><ele>341.4</ele><time>2026-04-26T10:16:04Z</time></trkpt><trkpt lat="45.71416789626968" lon="9.775703817327908"><ele>344.0</ele><time>2026-04-26T10:16:06Z</time></trkpt><trkpt lat="45.7142349995211" lon="9.775736354563149"><ele>344.0</ele><time>2026-04-26T10:16:08Z</time></trkpt><trkpt lat="45.71429692344222" lon="9.775719372520403"><ele>344.0</ele><time>2026-04-26T10:16:11Z</time></trkpt><trkpt lat="45.714323943511324" lon="9.775617290826094"><ele>344.0</ele><time>2026-04-26T10:16:14Z</time></trkpt><trkpt lat="45.7143659794866" lon="9.775496789397653"><ele>344.0</ele><time>2026-04-26T10:16:17Z</time></trkpt><trkpt lat="45.714410712462914" lon="9.775405548977982"><ele>344.0</ele><time>2026-04-26T10:16:20Z</time></trkpt><trkpt lat="45.71447597834996" lon="9.775420671972503"><ele>344.0</ele><time>2026-04-26T10:16:23Z</time></trkpt><trkpt lat="45.714546808265375" lon="9.77546568629864"><ele>343.83333333333337</ele><time>2026-04-26T10:16:27Z</time></trkpt><trkpt lat="45.714613724919964" lon="9.775494904264187"><ele>343.6666666666667</ele><time>2026-04-26T10:16:30Z</time></trkpt><trkpt lat="45.71469088640672" lon="9.775536052961556"><ele>343.5</ele><time>2026-04-26T10:16:34Z</time></trkpt><trkpt lat="45.71476490171388" lon="9.775542709589791"><ele>343.3333333333333</ele><time>2026-04-26T10:16:37Z</time></trkpt><trkpt lat="45.714844856391586" lon="9.775536244728764"><ele>343.16666666666663</ele><time>2026-04-26T10:16:40Z</time></trkpt><trkpt lat="45.714927219179614" lon="9.77552014926443"><ele>343.0</ele><time>2026-04-26T10:16:42Z</time></trkpt><trkpt lat="45.714998771234406" lon="9.775416836326798"><ele>343.0</ele><time>2026-04-26T10:16:44Z</time></trkpt><trkpt lat="45.7150543583398" lon="9.775287383761006"><ele>343.0</ele><time>2026-04-26T10:16:46Z</time></trkpt><trkpt lat="45.715090030526184" lon="9.77511496123989"><ele>343.0</ele><time>2026-04-26T10:16:48Z</time></trkpt><trkpt lat="45.71511372145978" lon="9.77502297450291"><ele>343.0</ele><time>2026-04-26T10:16:49Z</time></trkpt><trkpt lat="45.71513608529359" lon="9.774921165279988"><ele>343.0</ele><time>2026-04-26T10:16:50Z</time></trkpt><trkpt lat="45.715154413629335" lon="9.77480911655956"><ele>342.79999999999995</ele><time>2026-04-26T10:16:51Z</time></trkpt><trkpt lat="45.71517365404659" lon="9.774690854017607"><ele>342.6</ele><time>2026-04-26T10:16:52Z</time></trkpt><trkpt lat="45.71518944891606" lon="9.774564878040145"><ele>342.4</ele><time>2026-04-26T10:16:53Z</time></trkpt><trkpt lat="45.715198706366024" lon="9.774430789658261"><ele>342.20000000000005</ele><time>2026-04-26T10:16:54Z</time></trkpt><trkpt lat="45.71519773764403" lon="9.774293548449869"><ele>342.0</ele><time>2026-04-26T10:16:55Z</time></trkpt><trkpt lat="45.71518592140693" lon="9.774150401783757"><ele>340.8333333333333</ele><time>2026-04-26T10:16:56Z</time></trkpt><trkpt lat="45.715175499553226" lon="9.774012802357527"><ele>339.6666666666667</ele><time>2026-04-26T10:16:57Z</time></trkpt><trkpt lat="45.71516786490076" lon="9.773888933056718"><ele>338.5</ele><time>2026-04-26T10:16:58Z</time></trkpt><trkpt lat="45.71516813924652" lon="9.773769605233834"><ele>337.33333333333337</ele><time>2026-04-26T10:16:59Z</time></trkpt><trkpt lat="45.715181166870046" lon="9.773654024654785"><ele>336.1666666666667</ele><time>2026-04-26T10:17:00Z</time></trkpt><trkpt lat="45.71519995778727" lon="9.773543107864676"><ele>335.0</ele><time>2026-04-26T10:17:01Z</time></trkpt><trkpt lat="45.71522112751379" lon="9.77344011514245"><ele>334.1666666666667</ele><time>2026-04-26T10:17:02Z</time></trkpt><trkpt lat="45.71525595087438" lon="9.773347151807737"><ele>333.33333333333337</ele><time>2026-04-26T10:17:03Z</time></trkpt><trkpt lat="45.71529901444511" lon="9.77326245574485"><ele>332.5</ele><time>2026-04-26T10:17:04Z</time></trkpt><trkpt lat="45.715348409158885" lon="9.773181846386162"><ele>331.6666666666667</ele><time>2026-04-26T10:17:05Z</time></trkpt><trkpt lat="45.71540228961652" lon="9.773110264204602"><ele>330.8333333333333</ele><time>2026-04-26T10:17:06Z</time></trkpt><trkpt lat="45.71546158358667" lon="9.77303725861768"><ele>330.0</ele><time>2026-04-26T10:17:07Z</time></trkpt><trkpt lat="45.71552475344346" lon="9.77296401983078"><ele>330.0</ele><time>2026-04-26T10:17:08Z</time></trkpt><trkpt lat="45.71559229396609" lon="9.77288213695451"><ele>330.0</ele><time>2026-04-26T10:17:09Z</time></trkpt><trkpt lat="45.71565727435226" lon="9.772784364446892"><ele>330.0</ele><time>2026-04-26T10:17:10Z</time></trkpt><trkpt lat="45.715730161755204" lon="9.772687556187261"><ele>330.0</ele><time>2026-04-26T10:17:11Z</time></trkpt><trkpt lat="45.71580997052346" lon="9.772592194125869"><ele>330.0</ele><time>2026-04-26T10:17:12Z</time></trkpt><trkpt lat="45.71589181414017" lon="9.772491401764198"><ele>330.5</ele><time>2026-04-26T10:17:13Z</time></trkpt><trkpt lat="45.71597418225217" lon="9.772383084441534"><ele>331.0</ele><time>2026-04-26T10:17:14Z</time></trkpt><trkpt lat="45.71605827361334" lon="9.772272922015064"><ele>331.5</ele><time>2026-04-26T10:17:15Z</time></trkpt><trkpt lat="45.716145331610385" lon="9.772165490764282"><ele>332.0</ele><time>2026-04-26T10:17:16Z</time></trkpt><trkpt lat="45.71622731883093" lon="9.772053598156992"><ele>330.6</ele><time>2026-04-26T10:17:17Z</time></trkpt><trkpt lat="45.71631254818898" lon="9.771946355783502"><ele>329.20000000000005</ele><time>2026-04-26T10:17:18Z</time></trkpt><trkpt lat="45.71639477589017" lon="9.771841594924345"><ele>327.8</ele><time>2026-04-26T10:17:19Z</time></trkpt><trkpt lat="45.71647326991935" lon="9.771738438126848"><ele>326.4</ele><time>2026-04-26T10:17:20Z</time></trkpt><trkpt lat="45.71655085512593" lon="9.771639823268501"><ele>325.0</ele><time>2026-04-26T10:17:21Z</time></trkpt><trkpt lat="45.71662290240968" lon="9.771540299327528"><ele>325.0</ele><time>2026-04-26T10:17:22Z</time></trkpt><trkpt lat="45.71669418035475" lon="9.771447701342025"><ele>325.0</ele><time>2026-04-26T10:17:23Z</time></trkpt><trkpt lat="45.7167738465017" lon="9.771383291229165"><ele>325.0</ele><time>2026-04-26T10:17:24Z</time></trkpt><trkpt lat="45.716855646564696" lon="9.771344729916441"><ele>325.0</ele><time>2026-04-26T10:17:25Z</time></trkpt><trkpt lat="45.71693817667886" lon="9.771356143655368"><ele>325.0</ele><time>2026-04-26T10:17:26Z</time></trkpt><trkpt lat="45.717013746666574" lon="9.771377517274631"><ele>325.0</ele><time>2026-04-26T10:17:27Z</time></trkpt><trkpt lat="45.71707889660459" lon="9.771401307406096"><ele>325.8</ele><time>2026-04-26T10:17:28Z</time></trkpt><trkpt lat="45.71719126047488" lon="9.771431453461929"><ele>326.6</ele><time>2026-04-26T10:17:30Z</time></trkpt><trkpt lat="45.717290706336655" lon="9.771463381097446"><ele>327.4</ele><time>2026-04-26T10:17:32Z</time></trkpt><trkpt lat="45.717381607367365" lon="9.771497915693175"><ele>328.2</ele><time>2026-04-26T10:17:34Z</time></trkpt><trkpt lat="45.71746531686939" lon="9.771500702439473"><ele>329.0</ele><time>2026-04-26T10:17:36Z</time></trkpt><trkpt lat="45.71751050122022" lon="9.771390004915386"><ele>329.0</ele><time>2026-04-26T10:17:38Z</time></trkpt><trkpt lat="45.71753393643546" lon="9.771264290359408"><ele>329.0</ele><time>2026-04-26T10:17:40Z</time></trkpt><trkpt lat="45.717567194976525" lon="9.771138263202337"><ele>329.0</ele><time>2026-04-26T10:17:42Z</time></trkpt><trkpt lat="45.71760011801435" lon="9.771033645219235"><ele>329.0</ele><time>2026-04-26T10:17:44Z</time></trkpt><trkpt lat="45.717655462374736" lon="9.770934435399901"><ele>329.0</ele><time>2026-04-26T10:17:46Z</time></trkpt><trkpt lat="45.71772793427443" lon="9.770835821392179"><ele>329.6666666666667</ele><time>2026-04-26T10:17:48Z</time></trkpt><trkpt lat="45.717796065716634" lon="9.77074555914127"><ele>330.33333333333337</ele><time>2026-04-26T10:17:50Z</time></trkpt><trkpt lat="45.717863567083235" lon="9.77065410977512"><ele>331.0</ele><time>2026-04-26T10:17:52Z</time></trkpt><trkpt lat="45.7179467484237" lon="9.770599313718522"><ele>331.6666666666667</ele><time>2026-04-26T10:17:54Z</time></trkpt><trkpt lat="45.71801771010886" lon="9.770641777746679"><ele>332.3333333333333</ele><time>2026-04-26T10:17:56Z</time></trkpt><trkpt lat="45.71807765604489" lon="9.770695051468023"><ele>333.0</ele><time>2026-04-26T10:17:58Z</time></trkpt><trkpt lat="45.71815150413168" lon="9.770761712715602"><ele>333.0</ele><time>2026-04-26T10:18:01Z</time></trkpt><trkpt lat="45.71821808020532" lon="9.770808649030995"><ele>333.0</ele><time>2026-04-26T10:18:04Z</time></trkpt><trkpt lat="45.718281727241624" lon="9.770861033066314"><ele>333.0</ele><time>2026-04-26T10:18:07Z</time></trkpt><trkpt lat="45.71836108136249" lon="9.770895011127738"><ele>333.0</ele><time>2026-04-26T10:18:11Z</time></trkpt><trkpt lat="45.718426476392686" lon="9.77095842276765"><ele>333.0</ele><time>2026-04-26T10:18:15Z</time></trkpt><trkpt lat="45.718494259309026" lon="9.771000637785496"><ele>333.0</ele><time>2026-04-26T10:18:19Z</time></trkpt><trkpt lat="45.71857466741572" lon="9.770975414720228"><ele>343.0</ele><time>2026-04-26T10:18:23Z</time></trkpt><trkpt lat="45.71860892680496" lon="9.771063852490391"><ele>345.0</ele><time>2026-04-26T10:18:26Z</time></trkpt><trkpt lat="45.71864001282588" lon="9.771171027532883"><ele>345.0</ele><time>2026-04-26T10:18:30Z</time></trkpt><trkpt lat="45.71870234828621" lon="9.771199070253184"><ele>345.0</ele><time>2026-04-26T10:18:32Z</time></trkpt><trkpt lat="45.71875982081925" lon="9.771239271327723"><ele>345.0</ele><time>2026-04-26T10:18:35Z</time></trkpt><trkpt lat="45.71874079405047" lon="9.77134496368519"><ele>345.0</ele><time>2026-04-26T10:18:37Z</time></trkpt><trkpt lat="45.718714858328816" lon="9.771441663919397"><ele>345.0</ele><time>2026-04-26T10:18:40Z</time></trkpt></trkseg></trk></gpx>